<?xml version="1.0" encoding="UTF-8" standalone="no" ?>
<gpx xmlns="http://www.topografix.com/GPX/1/1" xmlns:xsi="http://www.w3.org/2001/XMLSchema-instance" xsi:schemaLocation="http://www.topografix.com/GPX/1/1 http://www.topografix.com/GPX/1/1/gpx.xsd" version="1.1" creator="VisuGPX - https://www.visugpx.com">
  <metadata>
    <name>LGT : Autour du Barrage de Bosméléac</name>
    <desc><![CDATA[Une balade d'environ 12-13 km au départ du parking du Barrage de Bosméléac. Le circuit emprunte d'abord les berges de l'étang en remontant l'Oust. Après avoir rejoint le village du Bodéo par une voie un peu bitumée mais peu passagère, vous retrouverez l'étang en suivant le ruisseau du Mottay qui vous conduira jusqu'à votre point de départ.]]></desc>
  </metadata>
  <trk>
    <name><![CDATA[LGT : Autour du Barrage de Bosméléac_1]]></name>
    <trkseg>
      <trkpt lat="48.30155" lon="-2.90067">
        <ele>178</ele>
        <time>2016-03-14T13:22:00Z</time>
      </trkpt>
      <trkpt lat="48.30138" lon="-2.901">
        <ele>178</ele>
        <time>2016-03-14T13:22:33Z</time>
      </trkpt>
      <trkpt lat="48.30137" lon="-2.90102">
        <ele>178</ele>
        <time>2016-03-14T13:22:35Z</time>
      </trkpt>
      <trkpt lat="48.30136" lon="-2.90105">
        <ele>178</ele>
        <time>2016-03-14T13:22:37Z</time>
      </trkpt>
      <trkpt lat="48.30135" lon="-2.90107">
        <ele>178</ele>
        <time>2016-03-14T13:22:38Z</time>
      </trkpt>
      <trkpt lat="48.30135" lon="-2.90109">
        <ele>178</ele>
        <time>2016-03-14T13:22:40Z</time>
      </trkpt>
      <trkpt lat="48.30133" lon="-2.90112">
        <ele>178</ele>
        <time>2016-03-14T13:22:42Z</time>
      </trkpt>
      <trkpt lat="48.30133" lon="-2.90114">
        <ele>178</ele>
        <time>2016-03-14T13:22:43Z</time>
      </trkpt>
      <trkpt lat="48.30132" lon="-2.90116">
        <ele>178</ele>
        <time>2016-03-14T13:22:45Z</time>
      </trkpt>
      <trkpt lat="48.30132" lon="-2.90119">
        <ele>178</ele>
        <time>2016-03-14T13:22:47Z</time>
      </trkpt>
      <trkpt lat="48.30131" lon="-2.90122">
        <ele>177</ele>
        <time>2016-03-14T13:22:49Z</time>
      </trkpt>
      <trkpt lat="48.3013" lon="-2.90125">
        <ele>177</ele>
        <time>2016-03-14T13:22:51Z</time>
      </trkpt>
      <trkpt lat="48.30129" lon="-2.90128">
        <ele>176</ele>
        <time>2016-03-14T13:22:53Z</time>
      </trkpt>
      <trkpt lat="48.30127" lon="-2.9013">
        <ele>175</ele>
        <time>2016-03-14T13:22:55Z</time>
      </trkpt>
      <trkpt lat="48.30126" lon="-2.90134">
        <ele>175</ele>
        <time>2016-03-14T13:22:57Z</time>
      </trkpt>
      <trkpt lat="48.30124" lon="-2.90136">
        <ele>175</ele>
        <time>2016-03-14T13:22:59Z</time>
      </trkpt>
      <trkpt lat="48.30123" lon="-2.90137">
        <ele>174</ele>
        <time>2016-03-14T13:23:00Z</time>
      </trkpt>
      <trkpt lat="48.30122" lon="-2.90138">
        <ele>174</ele>
        <time>2016-03-14T13:23:01Z</time>
      </trkpt>
      <trkpt lat="48.3012" lon="-2.90139">
        <ele>174</ele>
        <time>2016-03-14T13:23:02Z</time>
      </trkpt>
      <trkpt lat="48.30118" lon="-2.90141">
        <ele>174</ele>
        <time>2016-03-14T13:23:04Z</time>
      </trkpt>
      <trkpt lat="48.30117" lon="-2.90141">
        <ele>174</ele>
        <time>2016-03-14T13:23:05Z</time>
      </trkpt>
      <trkpt lat="48.30116" lon="-2.90142">
        <ele>174</ele>
        <time>2016-03-14T13:23:06Z</time>
      </trkpt>
      <trkpt lat="48.30114" lon="-2.90143">
        <ele>174</ele>
        <time>2016-03-14T13:23:08Z</time>
      </trkpt>
      <trkpt lat="48.30112" lon="-2.90143">
        <ele>174</ele>
        <time>2016-03-14T13:23:10Z</time>
      </trkpt>
      <trkpt lat="48.3011" lon="-2.90144">
        <ele>174</ele>
        <time>2016-03-14T13:23:12Z</time>
      </trkpt>
      <trkpt lat="48.30109" lon="-2.90144">
        <ele>174</ele>
        <time>2016-03-14T13:23:14Z</time>
      </trkpt>
      <trkpt lat="48.30107" lon="-2.90143">
        <ele>174</ele>
        <time>2016-03-14T13:23:16Z</time>
      </trkpt>
      <trkpt lat="48.30106" lon="-2.90142">
        <ele>174</ele>
        <time>2016-03-14T13:23:18Z</time>
      </trkpt>
      <trkpt lat="48.30105" lon="-2.90141">
        <ele>174</ele>
        <time>2016-03-14T13:23:19Z</time>
      </trkpt>
      <trkpt lat="48.30103" lon="-2.90141">
        <ele>174</ele>
        <time>2016-03-14T13:23:21Z</time>
      </trkpt>
      <trkpt lat="48.30101" lon="-2.9014">
        <ele>174</ele>
        <time>2016-03-14T13:23:23Z</time>
      </trkpt>
      <trkpt lat="48.30099" lon="-2.9014">
        <ele>174</ele>
        <time>2016-03-14T13:23:25Z</time>
      </trkpt>
      <trkpt lat="48.30098" lon="-2.90139">
        <ele>174</ele>
        <time>2016-03-14T13:23:26Z</time>
      </trkpt>
      <trkpt lat="48.30096" lon="-2.90139">
        <ele>174</ele>
        <time>2016-03-14T13:23:28Z</time>
      </trkpt>
      <trkpt lat="48.30095" lon="-2.9014">
        <ele>174</ele>
        <time>2016-03-14T13:23:30Z</time>
      </trkpt>
      <trkpt lat="48.30093" lon="-2.90141">
        <ele>174</ele>
        <time>2016-03-14T13:23:32Z</time>
      </trkpt>
      <trkpt lat="48.30091" lon="-2.90141">
        <ele>174</ele>
        <time>2016-03-14T13:23:34Z</time>
      </trkpt>
      <trkpt lat="48.3009" lon="-2.90141">
        <ele>174</ele>
        <time>2016-03-14T13:23:36Z</time>
      </trkpt>
      <trkpt lat="48.30088" lon="-2.90141">
        <ele>174</ele>
        <time>2016-03-14T13:23:38Z</time>
      </trkpt>
      <trkpt lat="48.30087" lon="-2.90142">
        <ele>174</ele>
        <time>2016-03-14T13:23:40Z</time>
      </trkpt>
      <trkpt lat="48.30085" lon="-2.90142">
        <ele>174</ele>
        <time>2016-03-14T13:23:43Z</time>
      </trkpt>
      <trkpt lat="48.30084" lon="-2.90142">
        <ele>174</ele>
        <time>2016-03-14T13:23:45Z</time>
      </trkpt>
      <trkpt lat="48.30082" lon="-2.90143">
        <ele>174</ele>
        <time>2016-03-14T13:23:47Z</time>
      </trkpt>
      <trkpt lat="48.30081" lon="-2.90143">
        <ele>174</ele>
        <time>2016-03-14T13:23:49Z</time>
      </trkpt>
      <trkpt lat="48.3008" lon="-2.90143">
        <ele>174</ele>
        <time>2016-03-14T13:23:51Z</time>
      </trkpt>
      <trkpt lat="48.30079" lon="-2.90144">
        <ele>174</ele>
        <time>2016-03-14T13:23:53Z</time>
      </trkpt>
      <trkpt lat="48.30077" lon="-2.90144">
        <ele>174</ele>
        <time>2016-03-14T13:23:55Z</time>
      </trkpt>
      <trkpt lat="48.30075" lon="-2.90145">
        <ele>174</ele>
        <time>2016-03-14T13:23:57Z</time>
      </trkpt>
      <trkpt lat="48.30074" lon="-2.90147">
        <ele>174</ele>
        <time>2016-03-14T13:23:59Z</time>
      </trkpt>
      <trkpt lat="48.30072" lon="-2.90147">
        <ele>174</ele>
        <time>2016-03-14T13:24:00Z</time>
      </trkpt>
      <trkpt lat="48.30071" lon="-2.90148">
        <ele>174</ele>
        <time>2016-03-14T13:24:01Z</time>
      </trkpt>
      <trkpt lat="48.3007" lon="-2.90148">
        <ele>174</ele>
        <time>2016-03-14T13:24:02Z</time>
      </trkpt>
      <trkpt lat="48.30068" lon="-2.90149">
        <ele>174</ele>
        <time>2016-03-14T13:24:04Z</time>
      </trkpt>
      <trkpt lat="48.30067" lon="-2.90149">
        <ele>174</ele>
        <time>2016-03-14T13:24:05Z</time>
      </trkpt>
      <trkpt lat="48.30066" lon="-2.90149">
        <ele>174</ele>
        <time>2016-03-14T13:24:07Z</time>
      </trkpt>
      <trkpt lat="48.30064" lon="-2.90149">
        <ele>174</ele>
        <time>2016-03-14T13:24:09Z</time>
      </trkpt>
      <trkpt lat="48.30063" lon="-2.90148">
        <ele>174</ele>
        <time>2016-03-14T13:24:11Z</time>
      </trkpt>
      <trkpt lat="48.30061" lon="-2.90147">
        <ele>174</ele>
        <time>2016-03-14T13:24:13Z</time>
      </trkpt>
      <trkpt lat="48.30059" lon="-2.90148">
        <ele>174</ele>
        <time>2016-03-14T13:24:15Z</time>
      </trkpt>
      <trkpt lat="48.30058" lon="-2.90147">
        <ele>174</ele>
        <time>2016-03-14T13:24:16Z</time>
      </trkpt>
      <trkpt lat="48.30056" lon="-2.90147">
        <ele>174</ele>
        <time>2016-03-14T13:24:18Z</time>
      </trkpt>
      <trkpt lat="48.30054" lon="-2.90147">
        <ele>174</ele>
        <time>2016-03-14T13:24:20Z</time>
      </trkpt>
      <trkpt lat="48.30053" lon="-2.90146">
        <ele>174</ele>
        <time>2016-03-14T13:24:22Z</time>
      </trkpt>
      <trkpt lat="48.30051" lon="-2.90144">
        <ele>173</ele>
        <time>2016-03-14T13:24:24Z</time>
      </trkpt>
      <trkpt lat="48.3005" lon="-2.90141">
        <ele>173</ele>
        <time>2016-03-14T13:24:26Z</time>
      </trkpt>
      <trkpt lat="48.30048" lon="-2.90139">
        <ele>173</ele>
        <time>2016-03-14T13:24:29Z</time>
      </trkpt>
      <trkpt lat="48.30047" lon="-2.90138">
        <ele>173</ele>
        <time>2016-03-14T13:24:33Z</time>
      </trkpt>
      <trkpt lat="48.30046" lon="-2.90136">
        <ele>173</ele>
        <time>2016-03-14T13:24:36Z</time>
      </trkpt>
      <trkpt lat="48.30045" lon="-2.90135">
        <ele>173</ele>
        <time>2016-03-14T13:24:40Z</time>
      </trkpt>
      <trkpt lat="48.30043" lon="-2.90136">
        <ele>173</ele>
        <time>2016-03-14T13:24:43Z</time>
      </trkpt>
      <trkpt lat="48.30041" lon="-2.90137">
        <ele>173</ele>
        <time>2016-03-14T13:24:46Z</time>
      </trkpt>
      <trkpt lat="48.3004" lon="-2.90137">
        <ele>173</ele>
        <time>2016-03-14T13:24:49Z</time>
      </trkpt>
      <trkpt lat="48.30038" lon="-2.90139">
        <ele>172</ele>
        <time>2016-03-14T13:24:52Z</time>
      </trkpt>
      <trkpt lat="48.30037" lon="-2.90141">
        <ele>171</ele>
        <time>2016-03-14T13:24:54Z</time>
      </trkpt>
      <trkpt lat="48.30035" lon="-2.90143">
        <ele>170</ele>
        <time>2016-03-14T13:24:56Z</time>
      </trkpt>
      <trkpt lat="48.30033" lon="-2.90145">
        <ele>169</ele>
        <time>2016-03-14T13:24:58Z</time>
      </trkpt>
      <trkpt lat="48.30032" lon="-2.90146">
        <ele>169</ele>
        <time>2016-03-14T13:25:00Z</time>
      </trkpt>
      <trkpt lat="48.3003" lon="-2.90149">
        <ele>169</ele>
        <time>2016-03-14T13:25:02Z</time>
      </trkpt>
      <trkpt lat="48.30029" lon="-2.90151">
        <ele>169</ele>
        <time>2016-03-14T13:25:04Z</time>
      </trkpt>
      <trkpt lat="48.30027" lon="-2.90153">
        <ele>169</ele>
        <time>2016-03-14T13:25:06Z</time>
      </trkpt>
      <trkpt lat="48.30025" lon="-2.90156">
        <ele>169</ele>
        <time>2016-03-14T13:25:08Z</time>
      </trkpt>
      <trkpt lat="48.30023" lon="-2.90158">
        <ele>168</ele>
        <time>2016-03-14T13:25:10Z</time>
      </trkpt>
      <trkpt lat="48.30021" lon="-2.90161">
        <ele>168</ele>
        <time>2016-03-14T13:25:12Z</time>
      </trkpt>
      <trkpt lat="48.3002" lon="-2.90162">
        <ele>168</ele>
        <time>2016-03-14T13:25:13Z</time>
      </trkpt>
      <trkpt lat="48.30019" lon="-2.90164">
        <ele>168</ele>
        <time>2016-03-14T13:25:14Z</time>
      </trkpt>
      <trkpt lat="48.30017" lon="-2.90165">
        <ele>168</ele>
        <time>2016-03-14T13:25:15Z</time>
      </trkpt>
      <trkpt lat="48.30015" lon="-2.90167">
        <ele>168</ele>
        <time>2016-03-14T13:25:17Z</time>
      </trkpt>
      <trkpt lat="48.30014" lon="-2.9017">
        <ele>168</ele>
        <time>2016-03-14T13:25:19Z</time>
      </trkpt>
      <trkpt lat="48.30012" lon="-2.90172">
        <ele>168</ele>
        <time>2016-03-14T13:25:21Z</time>
      </trkpt>
      <trkpt lat="48.3001" lon="-2.90174">
        <ele>168</ele>
        <time>2016-03-14T13:25:23Z</time>
      </trkpt>
      <trkpt lat="48.30008" lon="-2.90176">
        <ele>168</ele>
        <time>2016-03-14T13:25:25Z</time>
      </trkpt>
      <trkpt lat="48.30006" lon="-2.90178">
        <ele>168</ele>
        <time>2016-03-14T13:25:27Z</time>
      </trkpt>
      <trkpt lat="48.30005" lon="-2.90179">
        <ele>168</ele>
        <time>2016-03-14T13:25:29Z</time>
      </trkpt>
      <trkpt lat="48.30003" lon="-2.90181">
        <ele>168</ele>
        <time>2016-03-14T13:25:31Z</time>
      </trkpt>
      <trkpt lat="48.30002" lon="-2.90183">
        <ele>168</ele>
        <time>2016-03-14T13:25:33Z</time>
      </trkpt>
      <trkpt lat="48.3" lon="-2.90185">
        <ele>168</ele>
        <time>2016-03-14T13:25:35Z</time>
      </trkpt>
      <trkpt lat="48.29998" lon="-2.90188">
        <ele>168</ele>
        <time>2016-03-14T13:25:37Z</time>
      </trkpt>
      <trkpt lat="48.29996" lon="-2.9019">
        <ele>168</ele>
        <time>2016-03-14T13:25:39Z</time>
      </trkpt>
      <trkpt lat="48.29995" lon="-2.90191">
        <ele>168</ele>
        <time>2016-03-14T13:25:41Z</time>
      </trkpt>
      <trkpt lat="48.29993" lon="-2.90192">
        <ele>168</ele>
        <time>2016-03-14T13:25:44Z</time>
      </trkpt>
      <trkpt lat="48.29993" lon="-2.9019">
        <ele>168</ele>
        <time>2016-03-14T13:26:09Z</time>
      </trkpt>
      <trkpt lat="48.29995" lon="-2.90189">
        <ele>170</ele>
        <time>2016-03-14T13:26:30Z</time>
      </trkpt>
      <trkpt lat="48.29993" lon="-2.9019">
        <ele>171</ele>
        <time>2016-03-14T13:26:53Z</time>
      </trkpt>
      <trkpt lat="48.29993" lon="-2.90191">
        <ele>171</ele>
        <time>2016-03-14T13:27:14Z</time>
      </trkpt>
      <trkpt lat="48.29993" lon="-2.90194">
        <ele>171</ele>
        <time>2016-03-14T13:28:02Z</time>
      </trkpt>
      <trkpt lat="48.29991" lon="-2.90195">
        <ele>171</ele>
        <time>2016-03-14T13:28:05Z</time>
      </trkpt>
      <trkpt lat="48.29989" lon="-2.90197">
        <ele>171</ele>
        <time>2016-03-14T13:28:07Z</time>
      </trkpt>
      <trkpt lat="48.29987" lon="-2.90199">
        <ele>171</ele>
        <time>2016-03-14T13:28:09Z</time>
      </trkpt>
      <trkpt lat="48.29986" lon="-2.902">
        <ele>171</ele>
        <time>2016-03-14T13:28:11Z</time>
      </trkpt>
      <trkpt lat="48.29984" lon="-2.90202">
        <ele>171</ele>
        <time>2016-03-14T13:28:13Z</time>
      </trkpt>
      <trkpt lat="48.29982" lon="-2.90203">
        <ele>171</ele>
        <time>2016-03-14T13:28:15Z</time>
      </trkpt>
      <trkpt lat="48.2998" lon="-2.90204">
        <ele>171</ele>
        <time>2016-03-14T13:28:16Z</time>
      </trkpt>
      <trkpt lat="48.29979" lon="-2.90205">
        <ele>171</ele>
        <time>2016-03-14T13:28:17Z</time>
      </trkpt>
      <trkpt lat="48.29977" lon="-2.90207">
        <ele>171</ele>
        <time>2016-03-14T13:28:19Z</time>
      </trkpt>
      <trkpt lat="48.29976" lon="-2.90209">
        <ele>170</ele>
        <time>2016-03-14T13:28:21Z</time>
      </trkpt>
      <trkpt lat="48.29975" lon="-2.90211">
        <ele>170</ele>
        <time>2016-03-14T13:28:23Z</time>
      </trkpt>
      <trkpt lat="48.29974" lon="-2.90212">
        <ele>169</ele>
        <time>2016-03-14T13:28:25Z</time>
      </trkpt>
      <trkpt lat="48.29972" lon="-2.90214">
        <ele>169</ele>
        <time>2016-03-14T13:28:27Z</time>
      </trkpt>
      <trkpt lat="48.29971" lon="-2.90216">
        <ele>168</ele>
        <time>2016-03-14T13:28:29Z</time>
      </trkpt>
      <trkpt lat="48.29969" lon="-2.90219">
        <ele>168</ele>
        <time>2016-03-14T13:28:31Z</time>
      </trkpt>
      <trkpt lat="48.29968" lon="-2.9022">
        <ele>167</ele>
        <time>2016-03-14T13:28:33Z</time>
      </trkpt>
      <trkpt lat="48.29967" lon="-2.90222">
        <ele>167</ele>
        <time>2016-03-14T13:28:35Z</time>
      </trkpt>
      <trkpt lat="48.29965" lon="-2.90225">
        <ele>167</ele>
        <time>2016-03-14T13:28:37Z</time>
      </trkpt>
      <trkpt lat="48.29964" lon="-2.90227">
        <ele>166</ele>
        <time>2016-03-14T13:28:39Z</time>
      </trkpt>
      <trkpt lat="48.29963" lon="-2.90229">
        <ele>166</ele>
        <time>2016-03-14T13:28:41Z</time>
      </trkpt>
      <trkpt lat="48.29961" lon="-2.90231">
        <ele>165</ele>
        <time>2016-03-14T13:28:43Z</time>
      </trkpt>
      <trkpt lat="48.2996" lon="-2.90234">
        <ele>165</ele>
        <time>2016-03-14T13:28:45Z</time>
      </trkpt>
      <trkpt lat="48.29961" lon="-2.90237">
        <ele>165</ele>
        <time>2016-03-14T13:28:47Z</time>
      </trkpt>
      <trkpt lat="48.29963" lon="-2.90239">
        <ele>165</ele>
        <time>2016-03-14T13:28:49Z</time>
      </trkpt>
      <trkpt lat="48.29963" lon="-2.90242">
        <ele>165</ele>
        <time>2016-03-14T13:28:51Z</time>
      </trkpt>
      <trkpt lat="48.29965" lon="-2.90244">
        <ele>165</ele>
        <time>2016-03-14T13:28:53Z</time>
      </trkpt>
      <trkpt lat="48.29966" lon="-2.90246">
        <ele>165</ele>
        <time>2016-03-14T13:28:55Z</time>
      </trkpt>
      <trkpt lat="48.29967" lon="-2.90249">
        <ele>165</ele>
        <time>2016-03-14T13:28:57Z</time>
      </trkpt>
      <trkpt lat="48.29969" lon="-2.90252">
        <ele>165</ele>
        <time>2016-03-14T13:28:59Z</time>
      </trkpt>
      <trkpt lat="48.2997" lon="-2.90254">
        <ele>165</ele>
        <time>2016-03-14T13:29:01Z</time>
      </trkpt>
      <trkpt lat="48.29972" lon="-2.90257">
        <ele>165</ele>
        <time>2016-03-14T13:29:03Z</time>
      </trkpt>
      <trkpt lat="48.29974" lon="-2.90259">
        <ele>165</ele>
        <time>2016-03-14T13:29:05Z</time>
      </trkpt>
      <trkpt lat="48.29975" lon="-2.90262">
        <ele>165</ele>
        <time>2016-03-14T13:29:07Z</time>
      </trkpt>
      <trkpt lat="48.29976" lon="-2.90264">
        <ele>165</ele>
        <time>2016-03-14T13:29:09Z</time>
      </trkpt>
      <trkpt lat="48.29977" lon="-2.90266">
        <ele>165</ele>
        <time>2016-03-14T13:29:10Z</time>
      </trkpt>
      <trkpt lat="48.29977" lon="-2.90267">
        <ele>165</ele>
        <time>2016-03-14T13:29:11Z</time>
      </trkpt>
      <trkpt lat="48.29978" lon="-2.90269">
        <ele>165</ele>
        <time>2016-03-14T13:29:12Z</time>
      </trkpt>
      <trkpt lat="48.29979" lon="-2.90271">
        <ele>165</ele>
        <time>2016-03-14T13:29:13Z</time>
      </trkpt>
      <trkpt lat="48.29979" lon="-2.90273">
        <ele>165</ele>
        <time>2016-03-14T13:29:14Z</time>
      </trkpt>
      <trkpt lat="48.29981" lon="-2.90275">
        <ele>165</ele>
        <time>2016-03-14T13:29:16Z</time>
      </trkpt>
      <trkpt lat="48.29983" lon="-2.90278">
        <ele>165</ele>
        <time>2016-03-14T13:29:18Z</time>
      </trkpt>
      <trkpt lat="48.29983" lon="-2.9028">
        <ele>165</ele>
        <time>2016-03-14T13:29:19Z</time>
      </trkpt>
      <trkpt lat="48.29984" lon="-2.90283">
        <ele>165</ele>
        <time>2016-03-14T13:29:21Z</time>
      </trkpt>
      <trkpt lat="48.29985" lon="-2.90285">
        <ele>165</ele>
        <time>2016-03-14T13:29:23Z</time>
      </trkpt>
      <trkpt lat="48.29986" lon="-2.90288">
        <ele>165</ele>
        <time>2016-03-14T13:29:25Z</time>
      </trkpt>
      <trkpt lat="48.29986" lon="-2.90289">
        <ele>165</ele>
        <time>2016-03-14T13:29:26Z</time>
      </trkpt>
      <trkpt lat="48.29987" lon="-2.90291">
        <ele>165</ele>
        <time>2016-03-14T13:29:27Z</time>
      </trkpt>
      <trkpt lat="48.29987" lon="-2.90293">
        <ele>165</ele>
        <time>2016-03-14T13:29:28Z</time>
      </trkpt>
      <trkpt lat="48.29989" lon="-2.90295">
        <ele>165</ele>
        <time>2016-03-14T13:29:30Z</time>
      </trkpt>
      <trkpt lat="48.2999" lon="-2.90298">
        <ele>165</ele>
        <time>2016-03-14T13:29:32Z</time>
      </trkpt>
      <trkpt lat="48.2999" lon="-2.90301">
        <ele>165</ele>
        <time>2016-03-14T13:29:34Z</time>
      </trkpt>
      <trkpt lat="48.29992" lon="-2.90304">
        <ele>165</ele>
        <time>2016-03-14T13:29:36Z</time>
      </trkpt>
      <trkpt lat="48.29993" lon="-2.90306">
        <ele>165</ele>
        <time>2016-03-14T13:29:38Z</time>
      </trkpt>
      <trkpt lat="48.29994" lon="-2.90308">
        <ele>165</ele>
        <time>2016-03-14T13:29:40Z</time>
      </trkpt>
      <trkpt lat="48.29995" lon="-2.90309">
        <ele>165</ele>
        <time>2016-03-14T13:29:41Z</time>
      </trkpt>
      <trkpt lat="48.29997" lon="-2.90311">
        <ele>165</ele>
        <time>2016-03-14T13:29:42Z</time>
      </trkpt>
      <trkpt lat="48.29998" lon="-2.90314">
        <ele>165</ele>
        <time>2016-03-14T13:29:44Z</time>
      </trkpt>
      <trkpt lat="48.3" lon="-2.90316">
        <ele>164</ele>
        <time>2016-03-14T13:29:46Z</time>
      </trkpt>
      <trkpt lat="48.30001" lon="-2.90318">
        <ele>163</ele>
        <time>2016-03-14T13:29:48Z</time>
      </trkpt>
      <trkpt lat="48.30002" lon="-2.90319">
        <ele>163</ele>
        <time>2016-03-14T13:29:50Z</time>
      </trkpt>
      <trkpt lat="48.30003" lon="-2.9032">
        <ele>163</ele>
        <time>2016-03-14T13:29:51Z</time>
      </trkpt>
      <trkpt lat="48.30005" lon="-2.90321">
        <ele>163</ele>
        <time>2016-03-14T13:29:52Z</time>
      </trkpt>
      <trkpt lat="48.30007" lon="-2.90322">
        <ele>163</ele>
        <time>2016-03-14T13:29:54Z</time>
      </trkpt>
      <trkpt lat="48.30008" lon="-2.90322">
        <ele>163</ele>
        <time>2016-03-14T13:29:55Z</time>
      </trkpt>
      <trkpt lat="48.30011" lon="-2.90325">
        <ele>163</ele>
        <time>2016-03-14T13:29:57Z</time>
      </trkpt>
      <trkpt lat="48.30012" lon="-2.90326">
        <ele>163</ele>
        <time>2016-03-14T13:29:58Z</time>
      </trkpt>
      <trkpt lat="48.30013" lon="-2.90328">
        <ele>163</ele>
        <time>2016-03-14T13:29:59Z</time>
      </trkpt>
      <trkpt lat="48.30014" lon="-2.9033">
        <ele>163</ele>
        <time>2016-03-14T13:30:00Z</time>
      </trkpt>
      <trkpt lat="48.30015" lon="-2.90331">
        <ele>163</ele>
        <time>2016-03-14T13:30:01Z</time>
      </trkpt>
      <trkpt lat="48.30017" lon="-2.90334">
        <ele>163</ele>
        <time>2016-03-14T13:30:03Z</time>
      </trkpt>
      <trkpt lat="48.30018" lon="-2.90335">
        <ele>163</ele>
        <time>2016-03-14T13:30:04Z</time>
      </trkpt>
      <trkpt lat="48.3002" lon="-2.90337">
        <ele>163</ele>
        <time>2016-03-14T13:30:06Z</time>
      </trkpt>
      <trkpt lat="48.30021" lon="-2.9034">
        <ele>163</ele>
        <time>2016-03-14T13:30:08Z</time>
      </trkpt>
      <trkpt lat="48.30022" lon="-2.90343">
        <ele>163</ele>
        <time>2016-03-14T13:30:10Z</time>
      </trkpt>
      <trkpt lat="48.30022" lon="-2.90345">
        <ele>163</ele>
        <time>2016-03-14T13:30:11Z</time>
      </trkpt>
      <trkpt lat="48.30024" lon="-2.90347">
        <ele>163</ele>
        <time>2016-03-14T13:30:13Z</time>
      </trkpt>
      <trkpt lat="48.30025" lon="-2.90349">
        <ele>163</ele>
        <time>2016-03-14T13:30:14Z</time>
      </trkpt>
      <trkpt lat="48.30025" lon="-2.90351">
        <ele>163</ele>
        <time>2016-03-14T13:30:15Z</time>
      </trkpt>
      <trkpt lat="48.30026" lon="-2.90354">
        <ele>163</ele>
        <time>2016-03-14T13:30:17Z</time>
      </trkpt>
      <trkpt lat="48.30027" lon="-2.90356">
        <ele>163</ele>
        <time>2016-03-14T13:30:18Z</time>
      </trkpt>
      <trkpt lat="48.30027" lon="-2.90358">
        <ele>163</ele>
        <time>2016-03-14T13:30:19Z</time>
      </trkpt>
      <trkpt lat="48.30029" lon="-2.90361">
        <ele>163</ele>
        <time>2016-03-14T13:30:21Z</time>
      </trkpt>
      <trkpt lat="48.30032" lon="-2.90363">
        <ele>163</ele>
        <time>2016-03-14T13:30:23Z</time>
      </trkpt>
      <trkpt lat="48.30033" lon="-2.90366">
        <ele>163</ele>
        <time>2016-03-14T13:30:25Z</time>
      </trkpt>
      <trkpt lat="48.30034" lon="-2.90367">
        <ele>163</ele>
        <time>2016-03-14T13:30:26Z</time>
      </trkpt>
      <trkpt lat="48.30035" lon="-2.90369">
        <ele>163</ele>
        <time>2016-03-14T13:30:28Z</time>
      </trkpt>
      <trkpt lat="48.30037" lon="-2.90369">
        <ele>163</ele>
        <time>2016-03-14T13:30:29Z</time>
      </trkpt>
      <trkpt lat="48.30038" lon="-2.90371">
        <ele>163</ele>
        <time>2016-03-14T13:30:31Z</time>
      </trkpt>
      <trkpt lat="48.3004" lon="-2.90372">
        <ele>163</ele>
        <time>2016-03-14T13:30:32Z</time>
      </trkpt>
      <trkpt lat="48.30041" lon="-2.90374">
        <ele>163</ele>
        <time>2016-03-14T13:30:34Z</time>
      </trkpt>
      <trkpt lat="48.30042" lon="-2.90375">
        <ele>163</ele>
        <time>2016-03-14T13:30:35Z</time>
      </trkpt>
      <trkpt lat="48.30043" lon="-2.90375">
        <ele>163</ele>
        <time>2016-03-14T13:30:36Z</time>
      </trkpt>
      <trkpt lat="48.30045" lon="-2.90376">
        <ele>163</ele>
        <time>2016-03-14T13:30:37Z</time>
      </trkpt>
      <trkpt lat="48.30046" lon="-2.90377">
        <ele>163</ele>
        <time>2016-03-14T13:30:38Z</time>
      </trkpt>
      <trkpt lat="48.30047" lon="-2.90378">
        <ele>163</ele>
        <time>2016-03-14T13:30:39Z</time>
      </trkpt>
      <trkpt lat="48.30049" lon="-2.90379">
        <ele>163</ele>
        <time>2016-03-14T13:30:41Z</time>
      </trkpt>
      <trkpt lat="48.3005" lon="-2.9038">
        <ele>163</ele>
        <time>2016-03-14T13:30:42Z</time>
      </trkpt>
      <trkpt lat="48.30052" lon="-2.90381">
        <ele>163</ele>
        <time>2016-03-14T13:30:44Z</time>
      </trkpt>
      <trkpt lat="48.30054" lon="-2.90382">
        <ele>163</ele>
        <time>2016-03-14T13:30:46Z</time>
      </trkpt>
      <trkpt lat="48.30056" lon="-2.90385">
        <ele>163</ele>
        <time>2016-03-14T13:30:48Z</time>
      </trkpt>
      <trkpt lat="48.30057" lon="-2.90388">
        <ele>163</ele>
        <time>2016-03-14T13:30:50Z</time>
      </trkpt>
      <trkpt lat="48.30059" lon="-2.90389">
        <ele>163</ele>
        <time>2016-03-14T13:30:52Z</time>
      </trkpt>
      <trkpt lat="48.30059" lon="-2.90392">
        <ele>163</ele>
        <time>2016-03-14T13:30:54Z</time>
      </trkpt>
      <trkpt lat="48.3006" lon="-2.90393">
        <ele>163</ele>
        <time>2016-03-14T13:30:55Z</time>
      </trkpt>
      <trkpt lat="48.30061" lon="-2.90396">
        <ele>163</ele>
        <time>2016-03-14T13:30:57Z</time>
      </trkpt>
      <trkpt lat="48.30061" lon="-2.90398">
        <ele>163</ele>
        <time>2016-03-14T13:30:58Z</time>
      </trkpt>
      <trkpt lat="48.30062" lon="-2.90401">
        <ele>163</ele>
        <time>2016-03-14T13:30:59Z</time>
      </trkpt>
      <trkpt lat="48.30064" lon="-2.90402">
        <ele>163</ele>
        <time>2016-03-14T13:31:00Z</time>
      </trkpt>
      <trkpt lat="48.30065" lon="-2.90404">
        <ele>163</ele>
        <time>2016-03-14T13:31:01Z</time>
      </trkpt>
      <trkpt lat="48.30065" lon="-2.90406">
        <ele>163</ele>
        <time>2016-03-14T13:31:02Z</time>
      </trkpt>
      <trkpt lat="48.30066" lon="-2.90407">
        <ele>163</ele>
        <time>2016-03-14T13:31:03Z</time>
      </trkpt>
      <trkpt lat="48.30067" lon="-2.90409">
        <ele>163</ele>
        <time>2016-03-14T13:31:04Z</time>
      </trkpt>
      <trkpt lat="48.30067" lon="-2.90411">
        <ele>163</ele>
        <time>2016-03-14T13:31:05Z</time>
      </trkpt>
      <trkpt lat="48.30067" lon="-2.90413">
        <ele>163</ele>
        <time>2016-03-14T13:31:06Z</time>
      </trkpt>
      <trkpt lat="48.30069" lon="-2.90416">
        <ele>163</ele>
        <time>2016-03-14T13:31:08Z</time>
      </trkpt>
      <trkpt lat="48.3007" lon="-2.90418">
        <ele>163</ele>
        <time>2016-03-14T13:31:10Z</time>
      </trkpt>
      <trkpt lat="48.3007" lon="-2.90421">
        <ele>163</ele>
        <time>2016-03-14T13:31:12Z</time>
      </trkpt>
      <trkpt lat="48.3007" lon="-2.90423">
        <ele>163</ele>
        <time>2016-03-14T13:31:13Z</time>
      </trkpt>
      <trkpt lat="48.3007" lon="-2.90425">
        <ele>163</ele>
        <time>2016-03-14T13:31:14Z</time>
      </trkpt>
      <trkpt lat="48.30072" lon="-2.90429">
        <ele>163</ele>
        <time>2016-03-14T13:31:16Z</time>
      </trkpt>
      <trkpt lat="48.30072" lon="-2.90431">
        <ele>163</ele>
        <time>2016-03-14T13:31:17Z</time>
      </trkpt>
      <trkpt lat="48.30072" lon="-2.90434">
        <ele>163</ele>
        <time>2016-03-14T13:31:19Z</time>
      </trkpt>
      <trkpt lat="48.30072" lon="-2.90436">
        <ele>163</ele>
        <time>2016-03-14T13:31:20Z</time>
      </trkpt>
      <trkpt lat="48.30074" lon="-2.90439">
        <ele>163</ele>
        <time>2016-03-14T13:31:22Z</time>
      </trkpt>
      <trkpt lat="48.30075" lon="-2.90441">
        <ele>163</ele>
        <time>2016-03-14T13:31:24Z</time>
      </trkpt>
      <trkpt lat="48.30077" lon="-2.90444">
        <ele>163</ele>
        <time>2016-03-14T13:31:26Z</time>
      </trkpt>
      <trkpt lat="48.3008" lon="-2.90446">
        <ele>163</ele>
        <time>2016-03-14T13:31:28Z</time>
      </trkpt>
      <trkpt lat="48.30082" lon="-2.90448">
        <ele>163</ele>
        <time>2016-03-14T13:31:30Z</time>
      </trkpt>
      <trkpt lat="48.30083" lon="-2.90449">
        <ele>162</ele>
        <time>2016-03-14T13:31:31Z</time>
      </trkpt>
      <trkpt lat="48.30084" lon="-2.9045">
        <ele>162</ele>
        <time>2016-03-14T13:31:32Z</time>
      </trkpt>
      <trkpt lat="48.30085" lon="-2.90451">
        <ele>162</ele>
        <time>2016-03-14T13:31:33Z</time>
      </trkpt>
      <trkpt lat="48.30087" lon="-2.90451">
        <ele>162</ele>
        <time>2016-03-14T13:31:34Z</time>
      </trkpt>
      <trkpt lat="48.30088" lon="-2.90452">
        <ele>162</ele>
        <time>2016-03-14T13:31:35Z</time>
      </trkpt>
      <trkpt lat="48.3009" lon="-2.90453">
        <ele>162</ele>
        <time>2016-03-14T13:31:37Z</time>
      </trkpt>
      <trkpt lat="48.30091" lon="-2.90454">
        <ele>162</ele>
        <time>2016-03-14T13:31:38Z</time>
      </trkpt>
      <trkpt lat="48.30093" lon="-2.90454">
        <ele>162</ele>
        <time>2016-03-14T13:31:39Z</time>
      </trkpt>
      <trkpt lat="48.30094" lon="-2.90456">
        <ele>162</ele>
        <time>2016-03-14T13:31:41Z</time>
      </trkpt>
      <trkpt lat="48.30095" lon="-2.90457">
        <ele>162</ele>
        <time>2016-03-14T13:31:42Z</time>
      </trkpt>
      <trkpt lat="48.30097" lon="-2.90458">
        <ele>162</ele>
        <time>2016-03-14T13:31:44Z</time>
      </trkpt>
      <trkpt lat="48.30099" lon="-2.90458">
        <ele>162</ele>
        <time>2016-03-14T13:31:46Z</time>
      </trkpt>
      <trkpt lat="48.301" lon="-2.90457">
        <ele>162</ele>
        <time>2016-03-14T13:31:48Z</time>
      </trkpt>
      <trkpt lat="48.30101" lon="-2.90458">
        <ele>162</ele>
        <time>2016-03-14T13:31:49Z</time>
      </trkpt>
      <trkpt lat="48.30103" lon="-2.90457">
        <ele>162</ele>
        <time>2016-03-14T13:31:50Z</time>
      </trkpt>
      <trkpt lat="48.30104" lon="-2.90458">
        <ele>162</ele>
        <time>2016-03-14T13:31:51Z</time>
      </trkpt>
      <trkpt lat="48.30105" lon="-2.90459">
        <ele>162</ele>
        <time>2016-03-14T13:31:52Z</time>
      </trkpt>
      <trkpt lat="48.30107" lon="-2.9046">
        <ele>162</ele>
        <time>2016-03-14T13:31:53Z</time>
      </trkpt>
      <trkpt lat="48.30109" lon="-2.90461">
        <ele>162</ele>
        <time>2016-03-14T13:31:54Z</time>
      </trkpt>
      <trkpt lat="48.3011" lon="-2.90463">
        <ele>162</ele>
        <time>2016-03-14T13:31:55Z</time>
      </trkpt>
      <trkpt lat="48.30111" lon="-2.90464">
        <ele>162</ele>
        <time>2016-03-14T13:31:56Z</time>
      </trkpt>
      <trkpt lat="48.30113" lon="-2.90466">
        <ele>162</ele>
        <time>2016-03-14T13:31:58Z</time>
      </trkpt>
      <trkpt lat="48.30114" lon="-2.90468">
        <ele>162</ele>
        <time>2016-03-14T13:31:59Z</time>
      </trkpt>
      <trkpt lat="48.30114" lon="-2.90469">
        <ele>162</ele>
        <time>2016-03-14T13:32:00Z</time>
      </trkpt>
      <trkpt lat="48.30116" lon="-2.90472">
        <ele>162</ele>
        <time>2016-03-14T13:32:02Z</time>
      </trkpt>
      <trkpt lat="48.30118" lon="-2.90474">
        <ele>162</ele>
        <time>2016-03-14T13:32:04Z</time>
      </trkpt>
      <trkpt lat="48.30117" lon="-2.90476">
        <ele>162</ele>
        <time>2016-03-14T13:32:06Z</time>
      </trkpt>
      <trkpt lat="48.30117" lon="-2.90478">
        <ele>162</ele>
        <time>2016-03-14T13:32:08Z</time>
      </trkpt>
      <trkpt lat="48.30116" lon="-2.90479">
        <ele>162</ele>
        <time>2016-03-14T13:32:10Z</time>
      </trkpt>
      <trkpt lat="48.30117" lon="-2.90481">
        <ele>162</ele>
        <time>2016-03-14T13:32:12Z</time>
      </trkpt>
      <trkpt lat="48.30118" lon="-2.90481">
        <ele>162</ele>
        <time>2016-03-14T13:32:14Z</time>
      </trkpt>
      <trkpt lat="48.3012" lon="-2.90481">
        <ele>162</ele>
        <time>2016-03-14T13:32:16Z</time>
      </trkpt>
      <trkpt lat="48.30122" lon="-2.90481">
        <ele>162</ele>
        <time>2016-03-14T13:32:17Z</time>
      </trkpt>
      <trkpt lat="48.30124" lon="-2.90481">
        <ele>162</ele>
        <time>2016-03-14T13:32:19Z</time>
      </trkpt>
      <trkpt lat="48.30125" lon="-2.9048">
        <ele>162</ele>
        <time>2016-03-14T13:32:20Z</time>
      </trkpt>
      <trkpt lat="48.30128" lon="-2.90478">
        <ele>163</ele>
        <time>2016-03-14T13:32:22Z</time>
      </trkpt>
      <trkpt lat="48.30129" lon="-2.90477">
        <ele>164</ele>
        <time>2016-03-14T13:32:23Z</time>
      </trkpt>
      <trkpt lat="48.3013" lon="-2.90476">
        <ele>164</ele>
        <time>2016-03-14T13:32:24Z</time>
      </trkpt>
      <trkpt lat="48.30132" lon="-2.90476">
        <ele>164</ele>
        <time>2016-03-14T13:32:25Z</time>
      </trkpt>
      <trkpt lat="48.30133" lon="-2.90473">
        <ele>165</ele>
        <time>2016-03-14T13:32:27Z</time>
      </trkpt>
      <trkpt lat="48.30134" lon="-2.90471">
        <ele>165</ele>
        <time>2016-03-14T13:32:29Z</time>
      </trkpt>
      <trkpt lat="48.30135" lon="-2.90468">
        <ele>165</ele>
        <time>2016-03-14T13:32:31Z</time>
      </trkpt>
      <trkpt lat="48.30138" lon="-2.90466">
        <ele>166</ele>
        <time>2016-03-14T13:32:33Z</time>
      </trkpt>
      <trkpt lat="48.3014" lon="-2.90464">
        <ele>166</ele>
        <time>2016-03-14T13:32:35Z</time>
      </trkpt>
      <trkpt lat="48.30141" lon="-2.90462">
        <ele>166</ele>
        <time>2016-03-14T13:32:36Z</time>
      </trkpt>
      <trkpt lat="48.30142" lon="-2.90461">
        <ele>166</ele>
        <time>2016-03-14T13:32:37Z</time>
      </trkpt>
      <trkpt lat="48.30143" lon="-2.9046">
        <ele>166</ele>
        <time>2016-03-14T13:32:38Z</time>
      </trkpt>
      <trkpt lat="48.30145" lon="-2.90458">
        <ele>166</ele>
        <time>2016-03-14T13:32:40Z</time>
      </trkpt>
      <trkpt lat="48.30147" lon="-2.90458">
        <ele>166</ele>
        <time>2016-03-14T13:32:42Z</time>
      </trkpt>
      <trkpt lat="48.30148" lon="-2.90456">
        <ele>166</ele>
        <time>2016-03-14T13:32:44Z</time>
      </trkpt>
      <trkpt lat="48.3015" lon="-2.90455">
        <ele>166</ele>
        <time>2016-03-14T13:32:46Z</time>
      </trkpt>
      <trkpt lat="48.30151" lon="-2.90454">
        <ele>166</ele>
        <time>2016-03-14T13:32:47Z</time>
      </trkpt>
      <trkpt lat="48.30153" lon="-2.90453">
        <ele>166</ele>
        <time>2016-03-14T13:32:48Z</time>
      </trkpt>
      <trkpt lat="48.30154" lon="-2.90453">
        <ele>166</ele>
        <time>2016-03-14T13:32:49Z</time>
      </trkpt>
      <trkpt lat="48.30155" lon="-2.90452">
        <ele>166</ele>
        <time>2016-03-14T13:32:50Z</time>
      </trkpt>
      <trkpt lat="48.30156" lon="-2.90451">
        <ele>166</ele>
        <time>2016-03-14T13:32:51Z</time>
      </trkpt>
      <trkpt lat="48.30158" lon="-2.90451">
        <ele>166</ele>
        <time>2016-03-14T13:32:52Z</time>
      </trkpt>
      <trkpt lat="48.30159" lon="-2.90451">
        <ele>166</ele>
        <time>2016-03-14T13:32:53Z</time>
      </trkpt>
      <trkpt lat="48.30161" lon="-2.90451">
        <ele>166</ele>
        <time>2016-03-14T13:32:54Z</time>
      </trkpt>
      <trkpt lat="48.30162" lon="-2.9045">
        <ele>166</ele>
        <time>2016-03-14T13:32:55Z</time>
      </trkpt>
      <trkpt lat="48.30164" lon="-2.9045">
        <ele>166</ele>
        <time>2016-03-14T13:32:56Z</time>
      </trkpt>
      <trkpt lat="48.30165" lon="-2.9045">
        <ele>166</ele>
        <time>2016-03-14T13:32:57Z</time>
      </trkpt>
      <trkpt lat="48.30166" lon="-2.90449">
        <ele>166</ele>
        <time>2016-03-14T13:32:58Z</time>
      </trkpt>
      <trkpt lat="48.30168" lon="-2.90448">
        <ele>166</ele>
        <time>2016-03-14T13:33:00Z</time>
      </trkpt>
      <trkpt lat="48.3017" lon="-2.90447">
        <ele>166</ele>
        <time>2016-03-14T13:33:02Z</time>
      </trkpt>
      <trkpt lat="48.30172" lon="-2.90446">
        <ele>166</ele>
        <time>2016-03-14T13:33:04Z</time>
      </trkpt>
      <trkpt lat="48.30173" lon="-2.90445">
        <ele>166</ele>
        <time>2016-03-14T13:33:05Z</time>
      </trkpt>
      <trkpt lat="48.30175" lon="-2.90445">
        <ele>166</ele>
        <time>2016-03-14T13:33:06Z</time>
      </trkpt>
      <trkpt lat="48.30176" lon="-2.90444">
        <ele>166</ele>
        <time>2016-03-14T13:33:07Z</time>
      </trkpt>
      <trkpt lat="48.30178" lon="-2.90443">
        <ele>166</ele>
        <time>2016-03-14T13:33:09Z</time>
      </trkpt>
      <trkpt lat="48.3018" lon="-2.90442">
        <ele>166</ele>
        <time>2016-03-14T13:33:10Z</time>
      </trkpt>
      <trkpt lat="48.30181" lon="-2.90442">
        <ele>166</ele>
        <time>2016-03-14T13:33:11Z</time>
      </trkpt>
      <trkpt lat="48.30183" lon="-2.90441">
        <ele>166</ele>
        <time>2016-03-14T13:33:12Z</time>
      </trkpt>
      <trkpt lat="48.30185" lon="-2.9044">
        <ele>166</ele>
        <time>2016-03-14T13:33:13Z</time>
      </trkpt>
      <trkpt lat="48.30186" lon="-2.9044">
        <ele>166</ele>
        <time>2016-03-14T13:33:15Z</time>
      </trkpt>
      <trkpt lat="48.30188" lon="-2.9044">
        <ele>166</ele>
        <time>2016-03-14T13:33:17Z</time>
      </trkpt>
      <trkpt lat="48.30189" lon="-2.90439">
        <ele>166</ele>
        <time>2016-03-14T13:33:19Z</time>
      </trkpt>
      <trkpt lat="48.30191" lon="-2.90439">
        <ele>166</ele>
        <time>2016-03-14T13:33:20Z</time>
      </trkpt>
      <trkpt lat="48.30192" lon="-2.90439">
        <ele>166</ele>
        <time>2016-03-14T13:33:21Z</time>
      </trkpt>
      <trkpt lat="48.30193" lon="-2.90439">
        <ele>166</ele>
        <time>2016-03-14T13:33:22Z</time>
      </trkpt>
      <trkpt lat="48.30195" lon="-2.90439">
        <ele>166</ele>
        <time>2016-03-14T13:33:23Z</time>
      </trkpt>
      <trkpt lat="48.30196" lon="-2.9044">
        <ele>166</ele>
        <time>2016-03-14T13:33:24Z</time>
      </trkpt>
      <trkpt lat="48.30199" lon="-2.90441">
        <ele>166</ele>
        <time>2016-03-14T13:33:27Z</time>
      </trkpt>
      <trkpt lat="48.302" lon="-2.90441">
        <ele>166</ele>
        <time>2016-03-14T13:33:28Z</time>
      </trkpt>
      <trkpt lat="48.30201" lon="-2.9044">
        <ele>166</ele>
        <time>2016-03-14T13:33:29Z</time>
      </trkpt>
      <trkpt lat="48.30203" lon="-2.9044">
        <ele>166</ele>
        <time>2016-03-14T13:33:30Z</time>
      </trkpt>
      <trkpt lat="48.30204" lon="-2.90439">
        <ele>166</ele>
        <time>2016-03-14T13:33:32Z</time>
      </trkpt>
      <trkpt lat="48.30206" lon="-2.90439">
        <ele>166</ele>
        <time>2016-03-14T13:33:33Z</time>
      </trkpt>
      <trkpt lat="48.30207" lon="-2.90439">
        <ele>166</ele>
        <time>2016-03-14T13:33:34Z</time>
      </trkpt>
      <trkpt lat="48.30209" lon="-2.90439">
        <ele>166</ele>
        <time>2016-03-14T13:33:35Z</time>
      </trkpt>
      <trkpt lat="48.3021" lon="-2.90439">
        <ele>166</ele>
        <time>2016-03-14T13:33:36Z</time>
      </trkpt>
      <trkpt lat="48.30211" lon="-2.9044">
        <ele>166</ele>
        <time>2016-03-14T13:33:37Z</time>
      </trkpt>
      <trkpt lat="48.30213" lon="-2.9044">
        <ele>166</ele>
        <time>2016-03-14T13:33:38Z</time>
      </trkpt>
      <trkpt lat="48.30214" lon="-2.9044">
        <ele>166</ele>
        <time>2016-03-14T13:33:39Z</time>
      </trkpt>
      <trkpt lat="48.30215" lon="-2.9044">
        <ele>166</ele>
        <time>2016-03-14T13:33:40Z</time>
      </trkpt>
      <trkpt lat="48.30217" lon="-2.9044">
        <ele>166</ele>
        <time>2016-03-14T13:33:42Z</time>
      </trkpt>
      <trkpt lat="48.30218" lon="-2.9044">
        <ele>166</ele>
        <time>2016-03-14T13:33:44Z</time>
      </trkpt>
      <trkpt lat="48.3022" lon="-2.9044">
        <ele>166</ele>
        <time>2016-03-14T13:33:46Z</time>
      </trkpt>
      <trkpt lat="48.30222" lon="-2.9044">
        <ele>166</ele>
        <time>2016-03-14T13:33:47Z</time>
      </trkpt>
      <trkpt lat="48.30224" lon="-2.90439">
        <ele>166</ele>
        <time>2016-03-14T13:33:48Z</time>
      </trkpt>
      <trkpt lat="48.30225" lon="-2.9044">
        <ele>166</ele>
        <time>2016-03-14T13:33:49Z</time>
      </trkpt>
      <trkpt lat="48.30227" lon="-2.9044">
        <ele>166</ele>
        <time>2016-03-14T13:33:50Z</time>
      </trkpt>
      <trkpt lat="48.30228" lon="-2.9044">
        <ele>166</ele>
        <time>2016-03-14T13:33:52Z</time>
      </trkpt>
      <trkpt lat="48.3023" lon="-2.9044">
        <ele>166</ele>
        <time>2016-03-14T13:33:54Z</time>
      </trkpt>
      <trkpt lat="48.30232" lon="-2.90441">
        <ele>166</ele>
        <time>2016-03-14T13:33:55Z</time>
      </trkpt>
      <trkpt lat="48.30233" lon="-2.90441">
        <ele>166</ele>
        <time>2016-03-14T13:33:56Z</time>
      </trkpt>
      <trkpt lat="48.30235" lon="-2.90441">
        <ele>166</ele>
        <time>2016-03-14T13:33:57Z</time>
      </trkpt>
      <trkpt lat="48.30236" lon="-2.90441">
        <ele>166</ele>
        <time>2016-03-14T13:33:58Z</time>
      </trkpt>
      <trkpt lat="48.30238" lon="-2.90441">
        <ele>166</ele>
        <time>2016-03-14T13:34:00Z</time>
      </trkpt>
      <trkpt lat="48.30239" lon="-2.90442">
        <ele>165</ele>
        <time>2016-03-14T13:34:01Z</time>
      </trkpt>
      <trkpt lat="48.30241" lon="-2.90443">
        <ele>164</ele>
        <time>2016-03-14T13:34:03Z</time>
      </trkpt>
      <trkpt lat="48.30242" lon="-2.90442">
        <ele>164</ele>
        <time>2016-03-14T13:34:04Z</time>
      </trkpt>
      <trkpt lat="48.30244" lon="-2.90441">
        <ele>164</ele>
        <time>2016-03-14T13:34:06Z</time>
      </trkpt>
      <trkpt lat="48.30246" lon="-2.90441">
        <ele>164</ele>
        <time>2016-03-14T13:34:07Z</time>
      </trkpt>
      <trkpt lat="48.30247" lon="-2.90441">
        <ele>164</ele>
        <time>2016-03-14T13:34:08Z</time>
      </trkpt>
      <trkpt lat="48.30249" lon="-2.90439">
        <ele>164</ele>
        <time>2016-03-14T13:34:10Z</time>
      </trkpt>
      <trkpt lat="48.30251" lon="-2.9044">
        <ele>164</ele>
        <time>2016-03-14T13:34:12Z</time>
      </trkpt>
      <trkpt lat="48.30253" lon="-2.9044">
        <ele>164</ele>
        <time>2016-03-14T13:34:14Z</time>
      </trkpt>
      <trkpt lat="48.30254" lon="-2.9044">
        <ele>164</ele>
        <time>2016-03-14T13:34:15Z</time>
      </trkpt>
      <trkpt lat="48.30256" lon="-2.9044">
        <ele>164</ele>
        <time>2016-03-14T13:34:17Z</time>
      </trkpt>
      <trkpt lat="48.30258" lon="-2.9044">
        <ele>164</ele>
        <time>2016-03-14T13:34:18Z</time>
      </trkpt>
      <trkpt lat="48.3026" lon="-2.9044">
        <ele>164</ele>
        <time>2016-03-14T13:34:19Z</time>
      </trkpt>
      <trkpt lat="48.30261" lon="-2.90441">
        <ele>164</ele>
        <time>2016-03-14T13:34:20Z</time>
      </trkpt>
      <trkpt lat="48.30263" lon="-2.9044">
        <ele>164</ele>
        <time>2016-03-14T13:34:21Z</time>
      </trkpt>
      <trkpt lat="48.30264" lon="-2.9044">
        <ele>164</ele>
        <time>2016-03-14T13:34:23Z</time>
      </trkpt>
      <trkpt lat="48.30266" lon="-2.90439">
        <ele>164</ele>
        <time>2016-03-14T13:34:26Z</time>
      </trkpt>
      <trkpt lat="48.30268" lon="-2.9044">
        <ele>164</ele>
        <time>2016-03-14T13:34:28Z</time>
      </trkpt>
      <trkpt lat="48.3027" lon="-2.9044">
        <ele>163</ele>
        <time>2016-03-14T13:34:29Z</time>
      </trkpt>
      <trkpt lat="48.30272" lon="-2.90439">
        <ele>163</ele>
        <time>2016-03-14T13:34:31Z</time>
      </trkpt>
      <trkpt lat="48.30273" lon="-2.90439">
        <ele>163</ele>
        <time>2016-03-14T13:34:32Z</time>
      </trkpt>
      <trkpt lat="48.30275" lon="-2.90439">
        <ele>163</ele>
        <time>2016-03-14T13:34:33Z</time>
      </trkpt>
      <trkpt lat="48.30277" lon="-2.90438">
        <ele>163</ele>
        <time>2016-03-14T13:34:34Z</time>
      </trkpt>
      <trkpt lat="48.30279" lon="-2.90437">
        <ele>163</ele>
        <time>2016-03-14T13:34:35Z</time>
      </trkpt>
      <trkpt lat="48.30281" lon="-2.90437">
        <ele>163</ele>
        <time>2016-03-14T13:34:36Z</time>
      </trkpt>
      <trkpt lat="48.30282" lon="-2.90437">
        <ele>163</ele>
        <time>2016-03-14T13:34:37Z</time>
      </trkpt>
      <trkpt lat="48.30284" lon="-2.90437">
        <ele>163</ele>
        <time>2016-03-14T13:34:38Z</time>
      </trkpt>
      <trkpt lat="48.30286" lon="-2.90436">
        <ele>163</ele>
        <time>2016-03-14T13:34:40Z</time>
      </trkpt>
      <trkpt lat="48.30287" lon="-2.90436">
        <ele>163</ele>
        <time>2016-03-14T13:34:41Z</time>
      </trkpt>
      <trkpt lat="48.30288" lon="-2.90435">
        <ele>163</ele>
        <time>2016-03-14T13:34:42Z</time>
      </trkpt>
      <trkpt lat="48.3029" lon="-2.90435">
        <ele>163</ele>
        <time>2016-03-14T13:34:43Z</time>
      </trkpt>
      <trkpt lat="48.30291" lon="-2.90434">
        <ele>163</ele>
        <time>2016-03-14T13:34:44Z</time>
      </trkpt>
      <trkpt lat="48.30293" lon="-2.90433">
        <ele>163</ele>
        <time>2016-03-14T13:34:46Z</time>
      </trkpt>
      <trkpt lat="48.30295" lon="-2.90431">
        <ele>163</ele>
        <time>2016-03-14T13:34:48Z</time>
      </trkpt>
      <trkpt lat="48.30297" lon="-2.90429">
        <ele>163</ele>
        <time>2016-03-14T13:34:50Z</time>
      </trkpt>
      <trkpt lat="48.30299" lon="-2.90428">
        <ele>163</ele>
        <time>2016-03-14T13:34:52Z</time>
      </trkpt>
      <trkpt lat="48.30301" lon="-2.90428">
        <ele>163</ele>
        <time>2016-03-14T13:34:54Z</time>
      </trkpt>
      <trkpt lat="48.30302" lon="-2.90427">
        <ele>163</ele>
        <time>2016-03-14T13:34:56Z</time>
      </trkpt>
      <trkpt lat="48.30304" lon="-2.90426">
        <ele>163</ele>
        <time>2016-03-14T13:34:58Z</time>
      </trkpt>
      <trkpt lat="48.30305" lon="-2.90425">
        <ele>163</ele>
        <time>2016-03-14T13:35:00Z</time>
      </trkpt>
      <trkpt lat="48.30307" lon="-2.90423">
        <ele>163</ele>
        <time>2016-03-14T13:35:02Z</time>
      </trkpt>
      <trkpt lat="48.30309" lon="-2.90423">
        <ele>163</ele>
        <time>2016-03-14T13:35:04Z</time>
      </trkpt>
      <trkpt lat="48.3031" lon="-2.90422">
        <ele>163</ele>
        <time>2016-03-14T13:35:06Z</time>
      </trkpt>
      <trkpt lat="48.30312" lon="-2.90422">
        <ele>163</ele>
        <time>2016-03-14T13:35:07Z</time>
      </trkpt>
      <trkpt lat="48.30313" lon="-2.90422">
        <ele>163</ele>
        <time>2016-03-14T13:35:08Z</time>
      </trkpt>
      <trkpt lat="48.30315" lon="-2.90423">
        <ele>163</ele>
        <time>2016-03-14T13:35:09Z</time>
      </trkpt>
      <trkpt lat="48.30317" lon="-2.90423">
        <ele>163</ele>
        <time>2016-03-14T13:35:11Z</time>
      </trkpt>
      <trkpt lat="48.30318" lon="-2.90424">
        <ele>163</ele>
        <time>2016-03-14T13:35:13Z</time>
      </trkpt>
      <trkpt lat="48.30321" lon="-2.90426">
        <ele>163</ele>
        <time>2016-03-14T13:35:15Z</time>
      </trkpt>
      <trkpt lat="48.30323" lon="-2.90428">
        <ele>163</ele>
        <time>2016-03-14T13:35:17Z</time>
      </trkpt>
      <trkpt lat="48.30325" lon="-2.9043">
        <ele>163</ele>
        <time>2016-03-14T13:35:19Z</time>
      </trkpt>
      <trkpt lat="48.30326" lon="-2.90431">
        <ele>163</ele>
        <time>2016-03-14T13:35:21Z</time>
      </trkpt>
      <trkpt lat="48.30328" lon="-2.90433">
        <ele>163</ele>
        <time>2016-03-14T13:35:23Z</time>
      </trkpt>
      <trkpt lat="48.30329" lon="-2.90436">
        <ele>163</ele>
        <time>2016-03-14T13:35:25Z</time>
      </trkpt>
      <trkpt lat="48.3033" lon="-2.90438">
        <ele>163</ele>
        <time>2016-03-14T13:35:27Z</time>
      </trkpt>
      <trkpt lat="48.30332" lon="-2.90439">
        <ele>163</ele>
        <time>2016-03-14T13:35:29Z</time>
      </trkpt>
      <trkpt lat="48.30334" lon="-2.90441">
        <ele>163</ele>
        <time>2016-03-14T13:35:31Z</time>
      </trkpt>
      <trkpt lat="48.30335" lon="-2.90443">
        <ele>163</ele>
        <time>2016-03-14T13:35:32Z</time>
      </trkpt>
      <trkpt lat="48.30336" lon="-2.90444">
        <ele>163</ele>
        <time>2016-03-14T13:35:33Z</time>
      </trkpt>
      <trkpt lat="48.30338" lon="-2.90447">
        <ele>163</ele>
        <time>2016-03-14T13:35:35Z</time>
      </trkpt>
      <trkpt lat="48.30339" lon="-2.90449">
        <ele>163</ele>
        <time>2016-03-14T13:35:37Z</time>
      </trkpt>
      <trkpt lat="48.30341" lon="-2.90452">
        <ele>163</ele>
        <time>2016-03-14T13:35:39Z</time>
      </trkpt>
      <trkpt lat="48.30343" lon="-2.90455">
        <ele>163</ele>
        <time>2016-03-14T13:35:41Z</time>
      </trkpt>
      <trkpt lat="48.30343" lon="-2.90457">
        <ele>163</ele>
        <time>2016-03-14T13:35:42Z</time>
      </trkpt>
      <trkpt lat="48.30344" lon="-2.90459">
        <ele>163</ele>
        <time>2016-03-14T13:35:43Z</time>
      </trkpt>
      <trkpt lat="48.30346" lon="-2.90462">
        <ele>163</ele>
        <time>2016-03-14T13:35:45Z</time>
      </trkpt>
      <trkpt lat="48.30348" lon="-2.90464">
        <ele>163</ele>
        <time>2016-03-14T13:35:47Z</time>
      </trkpt>
      <trkpt lat="48.3035" lon="-2.90466">
        <ele>163</ele>
        <time>2016-03-14T13:35:49Z</time>
      </trkpt>
      <trkpt lat="48.30352" lon="-2.90468">
        <ele>163</ele>
        <time>2016-03-14T13:35:51Z</time>
      </trkpt>
      <trkpt lat="48.30354" lon="-2.9047">
        <ele>163</ele>
        <time>2016-03-14T13:35:53Z</time>
      </trkpt>
      <trkpt lat="48.30356" lon="-2.90472">
        <ele>163</ele>
        <time>2016-03-14T13:35:55Z</time>
      </trkpt>
      <trkpt lat="48.30357" lon="-2.90474">
        <ele>163</ele>
        <time>2016-03-14T13:35:57Z</time>
      </trkpt>
      <trkpt lat="48.30359" lon="-2.90476">
        <ele>163</ele>
        <time>2016-03-14T13:35:59Z</time>
      </trkpt>
      <trkpt lat="48.3036" lon="-2.90477">
        <ele>163</ele>
        <time>2016-03-14T13:36:00Z</time>
      </trkpt>
      <trkpt lat="48.30362" lon="-2.90479">
        <ele>163</ele>
        <time>2016-03-14T13:36:02Z</time>
      </trkpt>
      <trkpt lat="48.30363" lon="-2.90481">
        <ele>163</ele>
        <time>2016-03-14T13:36:04Z</time>
      </trkpt>
      <trkpt lat="48.30365" lon="-2.90483">
        <ele>163</ele>
        <time>2016-03-14T13:36:06Z</time>
      </trkpt>
      <trkpt lat="48.30365" lon="-2.90485">
        <ele>163</ele>
        <time>2016-03-14T13:36:07Z</time>
      </trkpt>
      <trkpt lat="48.30367" lon="-2.90487">
        <ele>163</ele>
        <time>2016-03-14T13:36:09Z</time>
      </trkpt>
      <trkpt lat="48.30369" lon="-2.90488">
        <ele>163</ele>
        <time>2016-03-14T13:36:10Z</time>
      </trkpt>
      <trkpt lat="48.3037" lon="-2.90488">
        <ele>163</ele>
        <time>2016-03-14T13:36:11Z</time>
      </trkpt>
      <trkpt lat="48.30372" lon="-2.90489">
        <ele>163</ele>
        <time>2016-03-14T13:36:12Z</time>
      </trkpt>
      <trkpt lat="48.30373" lon="-2.9049">
        <ele>163</ele>
        <time>2016-03-14T13:36:13Z</time>
      </trkpt>
      <trkpt lat="48.30375" lon="-2.90493">
        <ele>163</ele>
        <time>2016-03-14T13:36:15Z</time>
      </trkpt>
      <trkpt lat="48.30377" lon="-2.90494">
        <ele>163</ele>
        <time>2016-03-14T13:36:17Z</time>
      </trkpt>
      <trkpt lat="48.30379" lon="-2.90496">
        <ele>163</ele>
        <time>2016-03-14T13:36:19Z</time>
      </trkpt>
      <trkpt lat="48.3038" lon="-2.90497">
        <ele>163</ele>
        <time>2016-03-14T13:36:20Z</time>
      </trkpt>
      <trkpt lat="48.30383" lon="-2.90499">
        <ele>163</ele>
        <time>2016-03-14T13:36:22Z</time>
      </trkpt>
      <trkpt lat="48.30384" lon="-2.90501">
        <ele>163</ele>
        <time>2016-03-14T13:36:24Z</time>
      </trkpt>
      <trkpt lat="48.30385" lon="-2.90503">
        <ele>163</ele>
        <time>2016-03-14T13:36:25Z</time>
      </trkpt>
      <trkpt lat="48.30386" lon="-2.90503">
        <ele>163</ele>
        <time>2016-03-14T13:36:26Z</time>
      </trkpt>
      <trkpt lat="48.30388" lon="-2.90505">
        <ele>163</ele>
        <time>2016-03-14T13:36:28Z</time>
      </trkpt>
      <trkpt lat="48.3039" lon="-2.90507">
        <ele>163</ele>
        <time>2016-03-14T13:36:30Z</time>
      </trkpt>
      <trkpt lat="48.30392" lon="-2.90508">
        <ele>163</ele>
        <time>2016-03-14T13:36:31Z</time>
      </trkpt>
      <trkpt lat="48.30393" lon="-2.90509">
        <ele>163</ele>
        <time>2016-03-14T13:36:33Z</time>
      </trkpt>
      <trkpt lat="48.30395" lon="-2.90511">
        <ele>163</ele>
        <time>2016-03-14T13:36:35Z</time>
      </trkpt>
      <trkpt lat="48.30396" lon="-2.90511">
        <ele>163</ele>
        <time>2016-03-14T13:36:36Z</time>
      </trkpt>
      <trkpt lat="48.30397" lon="-2.90512">
        <ele>163</ele>
        <time>2016-03-14T13:36:37Z</time>
      </trkpt>
      <trkpt lat="48.30399" lon="-2.90513">
        <ele>163</ele>
        <time>2016-03-14T13:36:38Z</time>
      </trkpt>
      <trkpt lat="48.304" lon="-2.90514">
        <ele>163</ele>
        <time>2016-03-14T13:36:39Z</time>
      </trkpt>
      <trkpt lat="48.30401" lon="-2.90515">
        <ele>163</ele>
        <time>2016-03-14T13:36:40Z</time>
      </trkpt>
      <trkpt lat="48.30403" lon="-2.90517">
        <ele>163</ele>
        <time>2016-03-14T13:36:42Z</time>
      </trkpt>
      <trkpt lat="48.30405" lon="-2.90519">
        <ele>163</ele>
        <time>2016-03-14T13:36:44Z</time>
      </trkpt>
      <trkpt lat="48.30406" lon="-2.9052">
        <ele>163</ele>
        <time>2016-03-14T13:36:45Z</time>
      </trkpt>
      <trkpt lat="48.30407" lon="-2.90521">
        <ele>163</ele>
        <time>2016-03-14T13:36:46Z</time>
      </trkpt>
      <trkpt lat="48.30408" lon="-2.90524">
        <ele>163</ele>
        <time>2016-03-14T13:36:48Z</time>
      </trkpt>
      <trkpt lat="48.30409" lon="-2.90527">
        <ele>163</ele>
        <time>2016-03-14T13:36:50Z</time>
      </trkpt>
      <trkpt lat="48.3041" lon="-2.90529">
        <ele>163</ele>
        <time>2016-03-14T13:36:52Z</time>
      </trkpt>
      <trkpt lat="48.3041" lon="-2.90531">
        <ele>163</ele>
        <time>2016-03-14T13:36:53Z</time>
      </trkpt>
      <trkpt lat="48.3041" lon="-2.90533">
        <ele>163</ele>
        <time>2016-03-14T13:36:54Z</time>
      </trkpt>
      <trkpt lat="48.30411" lon="-2.90535">
        <ele>163</ele>
        <time>2016-03-14T13:36:55Z</time>
      </trkpt>
      <trkpt lat="48.30411" lon="-2.90537">
        <ele>163</ele>
        <time>2016-03-14T13:36:56Z</time>
      </trkpt>
      <trkpt lat="48.30412" lon="-2.90539">
        <ele>163</ele>
        <time>2016-03-14T13:36:57Z</time>
      </trkpt>
      <trkpt lat="48.30413" lon="-2.90541">
        <ele>163</ele>
        <time>2016-03-14T13:36:59Z</time>
      </trkpt>
      <trkpt lat="48.30414" lon="-2.90543">
        <ele>163</ele>
        <time>2016-03-14T13:37:01Z</time>
      </trkpt>
      <trkpt lat="48.30415" lon="-2.90545">
        <ele>163</ele>
        <time>2016-03-14T13:37:03Z</time>
      </trkpt>
      <trkpt lat="48.30417" lon="-2.90547">
        <ele>163</ele>
        <time>2016-03-14T13:37:05Z</time>
      </trkpt>
      <trkpt lat="48.30419" lon="-2.9055">
        <ele>163</ele>
        <time>2016-03-14T13:37:07Z</time>
      </trkpt>
      <trkpt lat="48.30421" lon="-2.90553">
        <ele>163</ele>
        <time>2016-03-14T13:37:09Z</time>
      </trkpt>
      <trkpt lat="48.30421" lon="-2.90554">
        <ele>163</ele>
        <time>2016-03-14T13:37:10Z</time>
      </trkpt>
      <trkpt lat="48.30421" lon="-2.90556">
        <ele>163</ele>
        <time>2016-03-14T13:37:11Z</time>
      </trkpt>
      <trkpt lat="48.30422" lon="-2.9056">
        <ele>163</ele>
        <time>2016-03-14T13:37:13Z</time>
      </trkpt>
      <trkpt lat="48.30423" lon="-2.90562">
        <ele>163</ele>
        <time>2016-03-14T13:37:15Z</time>
      </trkpt>
      <trkpt lat="48.30424" lon="-2.90565">
        <ele>163</ele>
        <time>2016-03-14T13:37:17Z</time>
      </trkpt>
      <trkpt lat="48.30424" lon="-2.90569">
        <ele>163</ele>
        <time>2016-03-14T13:37:19Z</time>
      </trkpt>
      <trkpt lat="48.30424" lon="-2.90571">
        <ele>163</ele>
        <time>2016-03-14T13:37:20Z</time>
      </trkpt>
      <trkpt lat="48.30424" lon="-2.90574">
        <ele>163</ele>
        <time>2016-03-14T13:37:21Z</time>
      </trkpt>
      <trkpt lat="48.30425" lon="-2.90576">
        <ele>163</ele>
        <time>2016-03-14T13:37:22Z</time>
      </trkpt>
      <trkpt lat="48.30425" lon="-2.90578">
        <ele>163</ele>
        <time>2016-03-14T13:37:23Z</time>
      </trkpt>
      <trkpt lat="48.30426" lon="-2.90579">
        <ele>163</ele>
        <time>2016-03-14T13:37:24Z</time>
      </trkpt>
      <trkpt lat="48.30428" lon="-2.90582">
        <ele>163</ele>
        <time>2016-03-14T13:37:26Z</time>
      </trkpt>
      <trkpt lat="48.30428" lon="-2.90583">
        <ele>163</ele>
        <time>2016-03-14T13:37:27Z</time>
      </trkpt>
      <trkpt lat="48.30431" lon="-2.90585">
        <ele>163</ele>
        <time>2016-03-14T13:37:29Z</time>
      </trkpt>
      <trkpt lat="48.30432" lon="-2.90586">
        <ele>163</ele>
        <time>2016-03-14T13:37:30Z</time>
      </trkpt>
      <trkpt lat="48.30433" lon="-2.90586">
        <ele>163</ele>
        <time>2016-03-14T13:37:31Z</time>
      </trkpt>
      <trkpt lat="48.30434" lon="-2.90586">
        <ele>163</ele>
        <time>2016-03-14T13:37:32Z</time>
      </trkpt>
      <trkpt lat="48.30436" lon="-2.90586">
        <ele>163</ele>
        <time>2016-03-14T13:37:33Z</time>
      </trkpt>
      <trkpt lat="48.30437" lon="-2.90586">
        <ele>163</ele>
        <time>2016-03-14T13:37:34Z</time>
      </trkpt>
      <trkpt lat="48.30439" lon="-2.90585">
        <ele>163</ele>
        <time>2016-03-14T13:37:35Z</time>
      </trkpt>
      <trkpt lat="48.3044" lon="-2.90585">
        <ele>163</ele>
        <time>2016-03-14T13:37:36Z</time>
      </trkpt>
      <trkpt lat="48.30441" lon="-2.90585">
        <ele>163</ele>
        <time>2016-03-14T13:37:37Z</time>
      </trkpt>
      <trkpt lat="48.30442" lon="-2.90585">
        <ele>163</ele>
        <time>2016-03-14T13:37:38Z</time>
      </trkpt>
      <trkpt lat="48.30444" lon="-2.90586">
        <ele>163</ele>
        <time>2016-03-14T13:37:39Z</time>
      </trkpt>
      <trkpt lat="48.30446" lon="-2.90587">
        <ele>163</ele>
        <time>2016-03-14T13:37:41Z</time>
      </trkpt>
      <trkpt lat="48.30448" lon="-2.90589">
        <ele>163</ele>
        <time>2016-03-14T13:37:43Z</time>
      </trkpt>
      <trkpt lat="48.3045" lon="-2.90591">
        <ele>163</ele>
        <time>2016-03-14T13:37:45Z</time>
      </trkpt>
      <trkpt lat="48.30452" lon="-2.90593">
        <ele>163</ele>
        <time>2016-03-14T13:37:47Z</time>
      </trkpt>
      <trkpt lat="48.30454" lon="-2.90594">
        <ele>163</ele>
        <time>2016-03-14T13:37:48Z</time>
      </trkpt>
      <trkpt lat="48.30455" lon="-2.90595">
        <ele>163</ele>
        <time>2016-03-14T13:37:49Z</time>
      </trkpt>
      <trkpt lat="48.30456" lon="-2.90596">
        <ele>163</ele>
        <time>2016-03-14T13:37:50Z</time>
      </trkpt>
      <trkpt lat="48.30457" lon="-2.90597">
        <ele>163</ele>
        <time>2016-03-14T13:37:51Z</time>
      </trkpt>
      <trkpt lat="48.30459" lon="-2.90598">
        <ele>163</ele>
        <time>2016-03-14T13:37:52Z</time>
      </trkpt>
      <trkpt lat="48.3046" lon="-2.90599">
        <ele>163</ele>
        <time>2016-03-14T13:37:53Z</time>
      </trkpt>
      <trkpt lat="48.30461" lon="-2.906">
        <ele>163</ele>
        <time>2016-03-14T13:37:54Z</time>
      </trkpt>
      <trkpt lat="48.30463" lon="-2.90601">
        <ele>163</ele>
        <time>2016-03-14T13:37:56Z</time>
      </trkpt>
      <trkpt lat="48.30465" lon="-2.90603">
        <ele>163</ele>
        <time>2016-03-14T13:37:58Z</time>
      </trkpt>
      <trkpt lat="48.30466" lon="-2.90603">
        <ele>163</ele>
        <time>2016-03-14T13:37:59Z</time>
      </trkpt>
      <trkpt lat="48.30468" lon="-2.90604">
        <ele>163</ele>
        <time>2016-03-14T13:38:00Z</time>
      </trkpt>
      <trkpt lat="48.30469" lon="-2.90604">
        <ele>163</ele>
        <time>2016-03-14T13:38:01Z</time>
      </trkpt>
      <trkpt lat="48.3047" lon="-2.90604">
        <ele>163</ele>
        <time>2016-03-14T13:38:02Z</time>
      </trkpt>
      <trkpt lat="48.30473" lon="-2.90605">
        <ele>163</ele>
        <time>2016-03-14T13:38:04Z</time>
      </trkpt>
      <trkpt lat="48.30475" lon="-2.90606">
        <ele>163</ele>
        <time>2016-03-14T13:38:06Z</time>
      </trkpt>
      <trkpt lat="48.30476" lon="-2.90606">
        <ele>163</ele>
        <time>2016-03-14T13:38:07Z</time>
      </trkpt>
      <trkpt lat="48.30477" lon="-2.90607">
        <ele>163</ele>
        <time>2016-03-14T13:38:08Z</time>
      </trkpt>
      <trkpt lat="48.30479" lon="-2.90608">
        <ele>163</ele>
        <time>2016-03-14T13:38:10Z</time>
      </trkpt>
      <trkpt lat="48.30481" lon="-2.90609">
        <ele>163</ele>
        <time>2016-03-14T13:38:11Z</time>
      </trkpt>
      <trkpt lat="48.30482" lon="-2.90609">
        <ele>163</ele>
        <time>2016-03-14T13:38:12Z</time>
      </trkpt>
      <trkpt lat="48.30484" lon="-2.9061">
        <ele>163</ele>
        <time>2016-03-14T13:38:14Z</time>
      </trkpt>
      <trkpt lat="48.30486" lon="-2.9061">
        <ele>163</ele>
        <time>2016-03-14T13:38:16Z</time>
      </trkpt>
      <trkpt lat="48.30489" lon="-2.90611">
        <ele>163</ele>
        <time>2016-03-14T13:38:18Z</time>
      </trkpt>
      <trkpt lat="48.3049" lon="-2.90611">
        <ele>163</ele>
        <time>2016-03-14T13:38:20Z</time>
      </trkpt>
      <trkpt lat="48.30492" lon="-2.90611">
        <ele>163</ele>
        <time>2016-03-14T13:38:21Z</time>
      </trkpt>
      <trkpt lat="48.30493" lon="-2.90611">
        <ele>163</ele>
        <time>2016-03-14T13:38:22Z</time>
      </trkpt>
      <trkpt lat="48.30494" lon="-2.90612">
        <ele>163</ele>
        <time>2016-03-14T13:38:23Z</time>
      </trkpt>
      <trkpt lat="48.30495" lon="-2.90612">
        <ele>163</ele>
        <time>2016-03-14T13:38:24Z</time>
      </trkpt>
      <trkpt lat="48.30497" lon="-2.90612">
        <ele>163</ele>
        <time>2016-03-14T13:38:25Z</time>
      </trkpt>
      <trkpt lat="48.30498" lon="-2.90612">
        <ele>163</ele>
        <time>2016-03-14T13:38:26Z</time>
      </trkpt>
      <trkpt lat="48.30499" lon="-2.90612">
        <ele>163</ele>
        <time>2016-03-14T13:38:27Z</time>
      </trkpt>
      <trkpt lat="48.305" lon="-2.90613">
        <ele>163</ele>
        <time>2016-03-14T13:38:28Z</time>
      </trkpt>
      <trkpt lat="48.30501" lon="-2.90613">
        <ele>163</ele>
        <time>2016-03-14T13:38:29Z</time>
      </trkpt>
      <trkpt lat="48.30503" lon="-2.90614">
        <ele>163</ele>
        <time>2016-03-14T13:38:30Z</time>
      </trkpt>
      <trkpt lat="48.30504" lon="-2.90613">
        <ele>163</ele>
        <time>2016-03-14T13:38:31Z</time>
      </trkpt>
      <trkpt lat="48.30505" lon="-2.90614">
        <ele>163</ele>
        <time>2016-03-14T13:38:32Z</time>
      </trkpt>
      <trkpt lat="48.30507" lon="-2.90615">
        <ele>163</ele>
        <time>2016-03-14T13:38:34Z</time>
      </trkpt>
      <trkpt lat="48.30508" lon="-2.90615">
        <ele>163</ele>
        <time>2016-03-14T13:38:35Z</time>
      </trkpt>
      <trkpt lat="48.3051" lon="-2.90615">
        <ele>163</ele>
        <time>2016-03-14T13:38:36Z</time>
      </trkpt>
      <trkpt lat="48.30511" lon="-2.90616">
        <ele>163</ele>
        <time>2016-03-14T13:38:37Z</time>
      </trkpt>
      <trkpt lat="48.30513" lon="-2.90617">
        <ele>163</ele>
        <time>2016-03-14T13:38:39Z</time>
      </trkpt>
      <trkpt lat="48.30515" lon="-2.90619">
        <ele>163</ele>
        <time>2016-03-14T13:38:41Z</time>
      </trkpt>
      <trkpt lat="48.30517" lon="-2.90621">
        <ele>163</ele>
        <time>2016-03-14T13:38:43Z</time>
      </trkpt>
      <trkpt lat="48.30518" lon="-2.90622">
        <ele>163</ele>
        <time>2016-03-14T13:38:45Z</time>
      </trkpt>
      <trkpt lat="48.3052" lon="-2.90623">
        <ele>163</ele>
        <time>2016-03-14T13:38:47Z</time>
      </trkpt>
      <trkpt lat="48.30521" lon="-2.90623">
        <ele>163</ele>
        <time>2016-03-14T13:38:48Z</time>
      </trkpt>
      <trkpt lat="48.30523" lon="-2.90624">
        <ele>163</ele>
        <time>2016-03-14T13:38:49Z</time>
      </trkpt>
      <trkpt lat="48.30524" lon="-2.90625">
        <ele>163</ele>
        <time>2016-03-14T13:38:50Z</time>
      </trkpt>
      <trkpt lat="48.30525" lon="-2.90626">
        <ele>163</ele>
        <time>2016-03-14T13:38:52Z</time>
      </trkpt>
      <trkpt lat="48.30527" lon="-2.90628">
        <ele>163</ele>
        <time>2016-03-14T13:38:54Z</time>
      </trkpt>
      <trkpt lat="48.30529" lon="-2.90629">
        <ele>163</ele>
        <time>2016-03-14T13:38:55Z</time>
      </trkpt>
      <trkpt lat="48.3053" lon="-2.9063">
        <ele>164</ele>
        <time>2016-03-14T13:38:57Z</time>
      </trkpt>
      <trkpt lat="48.30532" lon="-2.90632">
        <ele>164</ele>
        <time>2016-03-14T13:38:59Z</time>
      </trkpt>
      <trkpt lat="48.30533" lon="-2.90633">
        <ele>164</ele>
        <time>2016-03-14T13:39:00Z</time>
      </trkpt>
      <trkpt lat="48.30535" lon="-2.90634">
        <ele>164</ele>
        <time>2016-03-14T13:39:02Z</time>
      </trkpt>
      <trkpt lat="48.30536" lon="-2.90635">
        <ele>164</ele>
        <time>2016-03-14T13:39:03Z</time>
      </trkpt>
      <trkpt lat="48.30538" lon="-2.90637">
        <ele>164</ele>
        <time>2016-03-14T13:39:05Z</time>
      </trkpt>
      <trkpt lat="48.30539" lon="-2.90638">
        <ele>164</ele>
        <time>2016-03-14T13:39:06Z</time>
      </trkpt>
      <trkpt lat="48.30541" lon="-2.90641">
        <ele>164</ele>
        <time>2016-03-14T13:39:08Z</time>
      </trkpt>
      <trkpt lat="48.30542" lon="-2.90643">
        <ele>164</ele>
        <time>2016-03-14T13:39:10Z</time>
      </trkpt>
      <trkpt lat="48.30544" lon="-2.90646">
        <ele>164</ele>
        <time>2016-03-14T13:39:12Z</time>
      </trkpt>
      <trkpt lat="48.30545" lon="-2.90647">
        <ele>164</ele>
        <time>2016-03-14T13:39:13Z</time>
      </trkpt>
      <trkpt lat="48.30547" lon="-2.90649">
        <ele>164</ele>
        <time>2016-03-14T13:39:15Z</time>
      </trkpt>
      <trkpt lat="48.30548" lon="-2.9065">
        <ele>164</ele>
        <time>2016-03-14T13:39:16Z</time>
      </trkpt>
      <trkpt lat="48.3055" lon="-2.90652">
        <ele>164</ele>
        <time>2016-03-14T13:39:18Z</time>
      </trkpt>
      <trkpt lat="48.30552" lon="-2.90654">
        <ele>164</ele>
        <time>2016-03-14T13:39:20Z</time>
      </trkpt>
      <trkpt lat="48.30554" lon="-2.90656">
        <ele>164</ele>
        <time>2016-03-14T13:39:22Z</time>
      </trkpt>
      <trkpt lat="48.30555" lon="-2.90658">
        <ele>164</ele>
        <time>2016-03-14T13:39:24Z</time>
      </trkpt>
      <trkpt lat="48.30557" lon="-2.9066">
        <ele>164</ele>
        <time>2016-03-14T13:39:26Z</time>
      </trkpt>
      <trkpt lat="48.30559" lon="-2.90663">
        <ele>164</ele>
        <time>2016-03-14T13:39:28Z</time>
      </trkpt>
      <trkpt lat="48.3056" lon="-2.90665">
        <ele>164</ele>
        <time>2016-03-14T13:39:30Z</time>
      </trkpt>
      <trkpt lat="48.30562" lon="-2.90667">
        <ele>164</ele>
        <time>2016-03-14T13:39:32Z</time>
      </trkpt>
      <trkpt lat="48.30564" lon="-2.9067">
        <ele>164</ele>
        <time>2016-03-14T13:39:34Z</time>
      </trkpt>
      <trkpt lat="48.30566" lon="-2.90671">
        <ele>164</ele>
        <time>2016-03-14T13:39:36Z</time>
      </trkpt>
      <trkpt lat="48.30568" lon="-2.90673">
        <ele>164</ele>
        <time>2016-03-14T13:39:38Z</time>
      </trkpt>
      <trkpt lat="48.3057" lon="-2.90675">
        <ele>164</ele>
        <time>2016-03-14T13:39:40Z</time>
      </trkpt>
      <trkpt lat="48.30572" lon="-2.90677">
        <ele>164</ele>
        <time>2016-03-14T13:39:42Z</time>
      </trkpt>
      <trkpt lat="48.30573" lon="-2.90678">
        <ele>164</ele>
        <time>2016-03-14T13:39:43Z</time>
      </trkpt>
      <trkpt lat="48.30575" lon="-2.9068">
        <ele>164</ele>
        <time>2016-03-14T13:39:45Z</time>
      </trkpt>
      <trkpt lat="48.30577" lon="-2.90683">
        <ele>164</ele>
        <time>2016-03-14T13:39:47Z</time>
      </trkpt>
      <trkpt lat="48.30578" lon="-2.90684">
        <ele>164</ele>
        <time>2016-03-14T13:39:48Z</time>
      </trkpt>
      <trkpt lat="48.3058" lon="-2.90686">
        <ele>164</ele>
        <time>2016-03-14T13:39:50Z</time>
      </trkpt>
      <trkpt lat="48.30582" lon="-2.90688">
        <ele>164</ele>
        <time>2016-03-14T13:39:52Z</time>
      </trkpt>
      <trkpt lat="48.30583" lon="-2.9069">
        <ele>164</ele>
        <time>2016-03-14T13:39:54Z</time>
      </trkpt>
      <trkpt lat="48.30584" lon="-2.90692">
        <ele>164</ele>
        <time>2016-03-14T13:39:56Z</time>
      </trkpt>
      <trkpt lat="48.30586" lon="-2.90693">
        <ele>164</ele>
        <time>2016-03-14T13:39:57Z</time>
      </trkpt>
      <trkpt lat="48.30587" lon="-2.90693">
        <ele>164</ele>
        <time>2016-03-14T13:39:58Z</time>
      </trkpt>
      <trkpt lat="48.30588" lon="-2.90695">
        <ele>164</ele>
        <time>2016-03-14T13:40:00Z</time>
      </trkpt>
      <trkpt lat="48.3059" lon="-2.90698">
        <ele>164</ele>
        <time>2016-03-14T13:40:02Z</time>
      </trkpt>
      <trkpt lat="48.30591" lon="-2.90699">
        <ele>164</ele>
        <time>2016-03-14T13:40:03Z</time>
      </trkpt>
      <trkpt lat="48.30593" lon="-2.90701">
        <ele>164</ele>
        <time>2016-03-14T13:40:05Z</time>
      </trkpt>
      <trkpt lat="48.30595" lon="-2.90704">
        <ele>164</ele>
        <time>2016-03-14T13:40:07Z</time>
      </trkpt>
      <trkpt lat="48.30595" lon="-2.90705">
        <ele>164</ele>
        <time>2016-03-14T13:40:08Z</time>
      </trkpt>
      <trkpt lat="48.30597" lon="-2.90708">
        <ele>164</ele>
        <time>2016-03-14T13:40:10Z</time>
      </trkpt>
      <trkpt lat="48.30598" lon="-2.9071">
        <ele>164</ele>
        <time>2016-03-14T13:40:11Z</time>
      </trkpt>
      <trkpt lat="48.30599" lon="-2.90714">
        <ele>164</ele>
        <time>2016-03-14T13:40:13Z</time>
      </trkpt>
      <trkpt lat="48.30599" lon="-2.90716">
        <ele>164</ele>
        <time>2016-03-14T13:40:14Z</time>
      </trkpt>
      <trkpt lat="48.306" lon="-2.90719">
        <ele>164</ele>
        <time>2016-03-14T13:40:16Z</time>
      </trkpt>
      <trkpt lat="48.30601" lon="-2.90722">
        <ele>164</ele>
        <time>2016-03-14T13:40:18Z</time>
      </trkpt>
      <trkpt lat="48.30602" lon="-2.90724">
        <ele>164</ele>
        <time>2016-03-14T13:40:19Z</time>
      </trkpt>
      <trkpt lat="48.30602" lon="-2.90726">
        <ele>164</ele>
        <time>2016-03-14T13:40:20Z</time>
      </trkpt>
      <trkpt lat="48.30603" lon="-2.90728">
        <ele>164</ele>
        <time>2016-03-14T13:40:22Z</time>
      </trkpt>
      <trkpt lat="48.30604" lon="-2.90731">
        <ele>164</ele>
        <time>2016-03-14T13:40:24Z</time>
      </trkpt>
      <trkpt lat="48.30605" lon="-2.90734">
        <ele>164</ele>
        <time>2016-03-14T13:40:26Z</time>
      </trkpt>
      <trkpt lat="48.30606" lon="-2.90737">
        <ele>164</ele>
        <time>2016-03-14T13:40:28Z</time>
      </trkpt>
      <trkpt lat="48.30605" lon="-2.90739">
        <ele>164</ele>
        <time>2016-03-14T13:40:29Z</time>
      </trkpt>
      <trkpt lat="48.30606" lon="-2.90741">
        <ele>164</ele>
        <time>2016-03-14T13:40:30Z</time>
      </trkpt>
      <trkpt lat="48.30606" lon="-2.90744">
        <ele>164</ele>
        <time>2016-03-14T13:40:32Z</time>
      </trkpt>
      <trkpt lat="48.30607" lon="-2.90747">
        <ele>164</ele>
        <time>2016-03-14T13:40:34Z</time>
      </trkpt>
      <trkpt lat="48.30608" lon="-2.90751">
        <ele>164</ele>
        <time>2016-03-14T13:40:36Z</time>
      </trkpt>
      <trkpt lat="48.30608" lon="-2.90752">
        <ele>164</ele>
        <time>2016-03-14T13:40:37Z</time>
      </trkpt>
      <trkpt lat="48.30608" lon="-2.90754">
        <ele>164</ele>
        <time>2016-03-14T13:40:38Z</time>
      </trkpt>
      <trkpt lat="48.30608" lon="-2.90757">
        <ele>164</ele>
        <time>2016-03-14T13:40:40Z</time>
      </trkpt>
      <trkpt lat="48.30608" lon="-2.90759">
        <ele>164</ele>
        <time>2016-03-14T13:40:41Z</time>
      </trkpt>
      <trkpt lat="48.30608" lon="-2.9076">
        <ele>164</ele>
        <time>2016-03-14T13:40:42Z</time>
      </trkpt>
      <trkpt lat="48.30609" lon="-2.90763">
        <ele>164</ele>
        <time>2016-03-14T13:40:44Z</time>
      </trkpt>
      <trkpt lat="48.30609" lon="-2.90766">
        <ele>163</ele>
        <time>2016-03-14T13:40:46Z</time>
      </trkpt>
      <trkpt lat="48.30609" lon="-2.90767">
        <ele>163</ele>
        <time>2016-03-14T13:40:47Z</time>
      </trkpt>
      <trkpt lat="48.3061" lon="-2.90771">
        <ele>163</ele>
        <time>2016-03-14T13:40:49Z</time>
      </trkpt>
      <trkpt lat="48.3061" lon="-2.90773">
        <ele>163</ele>
        <time>2016-03-14T13:40:50Z</time>
      </trkpt>
      <trkpt lat="48.30611" lon="-2.90774">
        <ele>163</ele>
        <time>2016-03-14T13:40:51Z</time>
      </trkpt>
      <trkpt lat="48.30611" lon="-2.90777">
        <ele>163</ele>
        <time>2016-03-14T13:40:53Z</time>
      </trkpt>
      <trkpt lat="48.30612" lon="-2.9078">
        <ele>163</ele>
        <time>2016-03-14T13:40:55Z</time>
      </trkpt>
      <trkpt lat="48.30613" lon="-2.90783">
        <ele>162</ele>
        <time>2016-03-14T13:40:57Z</time>
      </trkpt>
      <trkpt lat="48.30614" lon="-2.90785">
        <ele>162</ele>
        <time>2016-03-14T13:40:59Z</time>
      </trkpt>
      <trkpt lat="48.30615" lon="-2.90788">
        <ele>162</ele>
        <time>2016-03-14T13:41:01Z</time>
      </trkpt>
      <trkpt lat="48.30617" lon="-2.90791">
        <ele>162</ele>
        <time>2016-03-14T13:41:03Z</time>
      </trkpt>
      <trkpt lat="48.30617" lon="-2.90794">
        <ele>161</ele>
        <time>2016-03-14T13:41:05Z</time>
      </trkpt>
      <trkpt lat="48.30616" lon="-2.90797">
        <ele>161</ele>
        <time>2016-03-14T13:41:06Z</time>
      </trkpt>
      <trkpt lat="48.30617" lon="-2.90799">
        <ele>161</ele>
        <time>2016-03-14T13:41:07Z</time>
      </trkpt>
      <trkpt lat="48.30618" lon="-2.90802">
        <ele>161</ele>
        <time>2016-03-14T13:41:09Z</time>
      </trkpt>
      <trkpt lat="48.30618" lon="-2.90805">
        <ele>161</ele>
        <time>2016-03-14T13:41:10Z</time>
      </trkpt>
      <trkpt lat="48.30618" lon="-2.90807">
        <ele>161</ele>
        <time>2016-03-14T13:41:11Z</time>
      </trkpt>
      <trkpt lat="48.30618" lon="-2.90809">
        <ele>161</ele>
        <time>2016-03-14T13:41:12Z</time>
      </trkpt>
      <trkpt lat="48.30618" lon="-2.90811">
        <ele>161</ele>
        <time>2016-03-14T13:41:13Z</time>
      </trkpt>
      <trkpt lat="48.30618" lon="-2.90813">
        <ele>161</ele>
        <time>2016-03-14T13:41:14Z</time>
      </trkpt>
      <trkpt lat="48.30618" lon="-2.90815">
        <ele>161</ele>
        <time>2016-03-14T13:41:15Z</time>
      </trkpt>
      <trkpt lat="48.30618" lon="-2.90817">
        <ele>161</ele>
        <time>2016-03-14T13:41:16Z</time>
      </trkpt>
      <trkpt lat="48.30619" lon="-2.90819">
        <ele>161</ele>
        <time>2016-03-14T13:41:17Z</time>
      </trkpt>
      <trkpt lat="48.30619" lon="-2.90821">
        <ele>161</ele>
        <time>2016-03-14T13:41:18Z</time>
      </trkpt>
      <trkpt lat="48.3062" lon="-2.90823">
        <ele>161</ele>
        <time>2016-03-14T13:41:20Z</time>
      </trkpt>
      <trkpt lat="48.3062" lon="-2.90825">
        <ele>161</ele>
        <time>2016-03-14T13:41:21Z</time>
      </trkpt>
      <trkpt lat="48.30621" lon="-2.90827">
        <ele>161</ele>
        <time>2016-03-14T13:41:22Z</time>
      </trkpt>
      <trkpt lat="48.30621" lon="-2.90828">
        <ele>161</ele>
        <time>2016-03-14T13:41:23Z</time>
      </trkpt>
      <trkpt lat="48.30622" lon="-2.90831">
        <ele>161</ele>
        <time>2016-03-14T13:41:25Z</time>
      </trkpt>
      <trkpt lat="48.30622" lon="-2.90833">
        <ele>161</ele>
        <time>2016-03-14T13:41:26Z</time>
      </trkpt>
      <trkpt lat="48.30623" lon="-2.90835">
        <ele>161</ele>
        <time>2016-03-14T13:41:27Z</time>
      </trkpt>
      <trkpt lat="48.30625" lon="-2.90837">
        <ele>161</ele>
        <time>2016-03-14T13:41:29Z</time>
      </trkpt>
      <trkpt lat="48.30626" lon="-2.9084">
        <ele>161</ele>
        <time>2016-03-14T13:41:31Z</time>
      </trkpt>
      <trkpt lat="48.30626" lon="-2.90842">
        <ele>161</ele>
        <time>2016-03-14T13:41:32Z</time>
      </trkpt>
      <trkpt lat="48.30627" lon="-2.90844">
        <ele>161</ele>
        <time>2016-03-14T13:41:34Z</time>
      </trkpt>
      <trkpt lat="48.30628" lon="-2.90847">
        <ele>161</ele>
        <time>2016-03-14T13:41:36Z</time>
      </trkpt>
      <trkpt lat="48.30629" lon="-2.90849">
        <ele>161</ele>
        <time>2016-03-14T13:41:38Z</time>
      </trkpt>
      <trkpt lat="48.30631" lon="-2.90852">
        <ele>161</ele>
        <time>2016-03-14T13:41:40Z</time>
      </trkpt>
      <trkpt lat="48.30632" lon="-2.90854">
        <ele>161</ele>
        <time>2016-03-14T13:41:41Z</time>
      </trkpt>
      <trkpt lat="48.30632" lon="-2.90857">
        <ele>161</ele>
        <time>2016-03-14T13:41:42Z</time>
      </trkpt>
      <trkpt lat="48.30632" lon="-2.90859">
        <ele>161</ele>
        <time>2016-03-14T13:41:43Z</time>
      </trkpt>
      <trkpt lat="48.30632" lon="-2.90861">
        <ele>161</ele>
        <time>2016-03-14T13:41:44Z</time>
      </trkpt>
      <trkpt lat="48.30632" lon="-2.90863">
        <ele>161</ele>
        <time>2016-03-14T13:41:45Z</time>
      </trkpt>
      <trkpt lat="48.30633" lon="-2.90866">
        <ele>161</ele>
        <time>2016-03-14T13:41:46Z</time>
      </trkpt>
      <trkpt lat="48.30633" lon="-2.90868">
        <ele>161</ele>
        <time>2016-03-14T13:41:47Z</time>
      </trkpt>
      <trkpt lat="48.30634" lon="-2.90871">
        <ele>161</ele>
        <time>2016-03-14T13:41:49Z</time>
      </trkpt>
      <trkpt lat="48.30634" lon="-2.90874">
        <ele>161</ele>
        <time>2016-03-14T13:41:50Z</time>
      </trkpt>
      <trkpt lat="48.30635" lon="-2.90875">
        <ele>161</ele>
        <time>2016-03-14T13:41:51Z</time>
      </trkpt>
      <trkpt lat="48.30635" lon="-2.90877">
        <ele>161</ele>
        <time>2016-03-14T13:41:52Z</time>
      </trkpt>
      <trkpt lat="48.30636" lon="-2.90879">
        <ele>161</ele>
        <time>2016-03-14T13:41:53Z</time>
      </trkpt>
      <trkpt lat="48.30637" lon="-2.90882">
        <ele>161</ele>
        <time>2016-03-14T13:41:55Z</time>
      </trkpt>
      <trkpt lat="48.30639" lon="-2.90885">
        <ele>161</ele>
        <time>2016-03-14T13:41:57Z</time>
      </trkpt>
      <trkpt lat="48.30639" lon="-2.90887">
        <ele>161</ele>
        <time>2016-03-14T13:41:58Z</time>
      </trkpt>
      <trkpt lat="48.3064" lon="-2.90889">
        <ele>161</ele>
        <time>2016-03-14T13:41:59Z</time>
      </trkpt>
      <trkpt lat="48.3064" lon="-2.9089">
        <ele>161</ele>
        <time>2016-03-14T13:42:00Z</time>
      </trkpt>
      <trkpt lat="48.30641" lon="-2.90893">
        <ele>161</ele>
        <time>2016-03-14T13:42:01Z</time>
      </trkpt>
      <trkpt lat="48.30641" lon="-2.90894">
        <ele>161</ele>
        <time>2016-03-14T13:42:02Z</time>
      </trkpt>
      <trkpt lat="48.30641" lon="-2.90896">
        <ele>161</ele>
        <time>2016-03-14T13:42:03Z</time>
      </trkpt>
      <trkpt lat="48.30642" lon="-2.90899">
        <ele>162</ele>
        <time>2016-03-14T13:42:05Z</time>
      </trkpt>
      <trkpt lat="48.30642" lon="-2.90902">
        <ele>163</ele>
        <time>2016-03-14T13:42:07Z</time>
      </trkpt>
      <trkpt lat="48.30643" lon="-2.90906">
        <ele>163</ele>
        <time>2016-03-14T13:42:09Z</time>
      </trkpt>
      <trkpt lat="48.30643" lon="-2.90908">
        <ele>163</ele>
        <time>2016-03-14T13:42:10Z</time>
      </trkpt>
      <trkpt lat="48.30643" lon="-2.90909">
        <ele>163</ele>
        <time>2016-03-14T13:42:11Z</time>
      </trkpt>
      <trkpt lat="48.30643" lon="-2.90911">
        <ele>163</ele>
        <time>2016-03-14T13:42:12Z</time>
      </trkpt>
      <trkpt lat="48.30643" lon="-2.90913">
        <ele>163</ele>
        <time>2016-03-14T13:42:13Z</time>
      </trkpt>
      <trkpt lat="48.30643" lon="-2.90915">
        <ele>163</ele>
        <time>2016-03-14T13:42:14Z</time>
      </trkpt>
      <trkpt lat="48.30643" lon="-2.90916">
        <ele>163</ele>
        <time>2016-03-14T13:42:15Z</time>
      </trkpt>
      <trkpt lat="48.30644" lon="-2.90918">
        <ele>163</ele>
        <time>2016-03-14T13:42:16Z</time>
      </trkpt>
      <trkpt lat="48.30644" lon="-2.9092">
        <ele>163</ele>
        <time>2016-03-14T13:42:17Z</time>
      </trkpt>
      <trkpt lat="48.30643" lon="-2.90922">
        <ele>163</ele>
        <time>2016-03-14T13:42:18Z</time>
      </trkpt>
      <trkpt lat="48.30643" lon="-2.90925">
        <ele>163</ele>
        <time>2016-03-14T13:42:20Z</time>
      </trkpt>
      <trkpt lat="48.30643" lon="-2.90927">
        <ele>163</ele>
        <time>2016-03-14T13:42:21Z</time>
      </trkpt>
      <trkpt lat="48.30643" lon="-2.90929">
        <ele>163</ele>
        <time>2016-03-14T13:42:22Z</time>
      </trkpt>
      <trkpt lat="48.30643" lon="-2.90931">
        <ele>163</ele>
        <time>2016-03-14T13:42:23Z</time>
      </trkpt>
      <trkpt lat="48.30643" lon="-2.90932">
        <ele>163</ele>
        <time>2016-03-14T13:42:24Z</time>
      </trkpt>
      <trkpt lat="48.30642" lon="-2.90934">
        <ele>163</ele>
        <time>2016-03-14T13:42:25Z</time>
      </trkpt>
      <trkpt lat="48.30642" lon="-2.90936">
        <ele>163</ele>
        <time>2016-03-14T13:42:26Z</time>
      </trkpt>
      <trkpt lat="48.30642" lon="-2.90938">
        <ele>163</ele>
        <time>2016-03-14T13:42:27Z</time>
      </trkpt>
      <trkpt lat="48.30642" lon="-2.9094">
        <ele>163</ele>
        <time>2016-03-14T13:42:28Z</time>
      </trkpt>
      <trkpt lat="48.30642" lon="-2.90942">
        <ele>163</ele>
        <time>2016-03-14T13:42:29Z</time>
      </trkpt>
      <trkpt lat="48.30642" lon="-2.90944">
        <ele>163</ele>
        <time>2016-03-14T13:42:30Z</time>
      </trkpt>
      <trkpt lat="48.30642" lon="-2.90945">
        <ele>163</ele>
        <time>2016-03-14T13:42:31Z</time>
      </trkpt>
      <trkpt lat="48.30642" lon="-2.90947">
        <ele>163</ele>
        <time>2016-03-14T13:42:32Z</time>
      </trkpt>
      <trkpt lat="48.30642" lon="-2.90949">
        <ele>163</ele>
        <time>2016-03-14T13:42:33Z</time>
      </trkpt>
      <trkpt lat="48.30642" lon="-2.9095">
        <ele>163</ele>
        <time>2016-03-14T13:42:34Z</time>
      </trkpt>
      <trkpt lat="48.30642" lon="-2.90953">
        <ele>163</ele>
        <time>2016-03-14T13:42:35Z</time>
      </trkpt>
      <trkpt lat="48.30642" lon="-2.90955">
        <ele>163</ele>
        <time>2016-03-14T13:42:36Z</time>
      </trkpt>
      <trkpt lat="48.30642" lon="-2.90957">
        <ele>163</ele>
        <time>2016-03-14T13:42:37Z</time>
      </trkpt>
      <trkpt lat="48.30641" lon="-2.9096">
        <ele>163</ele>
        <time>2016-03-14T13:42:39Z</time>
      </trkpt>
      <trkpt lat="48.30642" lon="-2.90962">
        <ele>163</ele>
        <time>2016-03-14T13:42:40Z</time>
      </trkpt>
      <trkpt lat="48.30642" lon="-2.90964">
        <ele>163</ele>
        <time>2016-03-14T13:42:41Z</time>
      </trkpt>
      <trkpt lat="48.30642" lon="-2.90965">
        <ele>163</ele>
        <time>2016-03-14T13:42:42Z</time>
      </trkpt>
      <trkpt lat="48.30642" lon="-2.90967">
        <ele>163</ele>
        <time>2016-03-14T13:42:43Z</time>
      </trkpt>
      <trkpt lat="48.30642" lon="-2.90969">
        <ele>163</ele>
        <time>2016-03-14T13:42:44Z</time>
      </trkpt>
      <trkpt lat="48.30642" lon="-2.9097">
        <ele>163</ele>
        <time>2016-03-14T13:42:45Z</time>
      </trkpt>
      <trkpt lat="48.30642" lon="-2.90972">
        <ele>163</ele>
        <time>2016-03-14T13:42:46Z</time>
      </trkpt>
      <trkpt lat="48.30642" lon="-2.90974">
        <ele>163</ele>
        <time>2016-03-14T13:42:47Z</time>
      </trkpt>
      <trkpt lat="48.30642" lon="-2.90976">
        <ele>163</ele>
        <time>2016-03-14T13:42:48Z</time>
      </trkpt>
      <trkpt lat="48.30642" lon="-2.90978">
        <ele>163</ele>
        <time>2016-03-14T13:42:49Z</time>
      </trkpt>
      <trkpt lat="48.30642" lon="-2.9098">
        <ele>163</ele>
        <time>2016-03-14T13:42:50Z</time>
      </trkpt>
      <trkpt lat="48.30643" lon="-2.90981">
        <ele>163</ele>
        <time>2016-03-14T13:42:51Z</time>
      </trkpt>
      <trkpt lat="48.30643" lon="-2.90984">
        <ele>163</ele>
        <time>2016-03-14T13:42:52Z</time>
      </trkpt>
      <trkpt lat="48.30643" lon="-2.90985">
        <ele>163</ele>
        <time>2016-03-14T13:42:53Z</time>
      </trkpt>
      <trkpt lat="48.30643" lon="-2.90987">
        <ele>163</ele>
        <time>2016-03-14T13:42:54Z</time>
      </trkpt>
      <trkpt lat="48.30643" lon="-2.90989">
        <ele>163</ele>
        <time>2016-03-14T13:42:55Z</time>
      </trkpt>
      <trkpt lat="48.30643" lon="-2.90992">
        <ele>163</ele>
        <time>2016-03-14T13:42:57Z</time>
      </trkpt>
      <trkpt lat="48.30644" lon="-2.90994">
        <ele>163</ele>
        <time>2016-03-14T13:42:58Z</time>
      </trkpt>
      <trkpt lat="48.30643" lon="-2.90998">
        <ele>163</ele>
        <time>2016-03-14T13:42:59Z</time>
      </trkpt>
      <trkpt lat="48.30643" lon="-2.91001">
        <ele>163</ele>
        <time>2016-03-14T13:43:01Z</time>
      </trkpt>
      <trkpt lat="48.30644" lon="-2.91003">
        <ele>163</ele>
        <time>2016-03-14T13:43:02Z</time>
      </trkpt>
      <trkpt lat="48.30644" lon="-2.91004">
        <ele>163</ele>
        <time>2016-03-14T13:43:03Z</time>
      </trkpt>
      <trkpt lat="48.30644" lon="-2.91006">
        <ele>163</ele>
        <time>2016-03-14T13:43:04Z</time>
      </trkpt>
      <trkpt lat="48.30645" lon="-2.91009">
        <ele>163</ele>
        <time>2016-03-14T13:43:06Z</time>
      </trkpt>
      <trkpt lat="48.30645" lon="-2.91013">
        <ele>163</ele>
        <time>2016-03-14T13:43:08Z</time>
      </trkpt>
      <trkpt lat="48.30645" lon="-2.91015">
        <ele>163</ele>
        <time>2016-03-14T13:43:09Z</time>
      </trkpt>
      <trkpt lat="48.30645" lon="-2.91017">
        <ele>163</ele>
        <time>2016-03-14T13:43:10Z</time>
      </trkpt>
      <trkpt lat="48.30645" lon="-2.91019">
        <ele>163</ele>
        <time>2016-03-14T13:43:11Z</time>
      </trkpt>
      <trkpt lat="48.30645" lon="-2.91021">
        <ele>163</ele>
        <time>2016-03-14T13:43:12Z</time>
      </trkpt>
      <trkpt lat="48.30646" lon="-2.91022">
        <ele>163</ele>
        <time>2016-03-14T13:43:13Z</time>
      </trkpt>
      <trkpt lat="48.30646" lon="-2.91026">
        <ele>163</ele>
        <time>2016-03-14T13:43:15Z</time>
      </trkpt>
      <trkpt lat="48.30647" lon="-2.91029">
        <ele>163</ele>
        <time>2016-03-14T13:43:17Z</time>
      </trkpt>
      <trkpt lat="48.30648" lon="-2.91032">
        <ele>163</ele>
        <time>2016-03-14T13:43:19Z</time>
      </trkpt>
      <trkpt lat="48.3065" lon="-2.91035">
        <ele>163</ele>
        <time>2016-03-14T13:43:21Z</time>
      </trkpt>
      <trkpt lat="48.30651" lon="-2.91037">
        <ele>163</ele>
        <time>2016-03-14T13:43:23Z</time>
      </trkpt>
      <trkpt lat="48.30653" lon="-2.9104">
        <ele>163</ele>
        <time>2016-03-14T13:43:25Z</time>
      </trkpt>
      <trkpt lat="48.30655" lon="-2.91042">
        <ele>163</ele>
        <time>2016-03-14T13:43:27Z</time>
      </trkpt>
      <trkpt lat="48.30656" lon="-2.91045">
        <ele>163</ele>
        <time>2016-03-14T13:43:29Z</time>
      </trkpt>
      <trkpt lat="48.30657" lon="-2.91047">
        <ele>163</ele>
        <time>2016-03-14T13:43:31Z</time>
      </trkpt>
      <trkpt lat="48.30659" lon="-2.9105">
        <ele>163</ele>
        <time>2016-03-14T13:43:33Z</time>
      </trkpt>
      <trkpt lat="48.30661" lon="-2.91052">
        <ele>163</ele>
        <time>2016-03-14T13:43:35Z</time>
      </trkpt>
      <trkpt lat="48.30662" lon="-2.91055">
        <ele>163</ele>
        <time>2016-03-14T13:43:37Z</time>
      </trkpt>
      <trkpt lat="48.30664" lon="-2.91057">
        <ele>163</ele>
        <time>2016-03-14T13:43:39Z</time>
      </trkpt>
      <trkpt lat="48.30665" lon="-2.91059">
        <ele>163</ele>
        <time>2016-03-14T13:43:41Z</time>
      </trkpt>
      <trkpt lat="48.30666" lon="-2.91062">
        <ele>163</ele>
        <time>2016-03-14T13:43:43Z</time>
      </trkpt>
      <trkpt lat="48.30667" lon="-2.91063">
        <ele>163</ele>
        <time>2016-03-14T13:43:44Z</time>
      </trkpt>
      <trkpt lat="48.30667" lon="-2.91066">
        <ele>163</ele>
        <time>2016-03-14T13:43:46Z</time>
      </trkpt>
      <trkpt lat="48.30668" lon="-2.91069">
        <ele>163</ele>
        <time>2016-03-14T13:43:48Z</time>
      </trkpt>
      <trkpt lat="48.30669" lon="-2.91072">
        <ele>163</ele>
        <time>2016-03-14T13:43:50Z</time>
      </trkpt>
      <trkpt lat="48.30669" lon="-2.91074">
        <ele>163</ele>
        <time>2016-03-14T13:43:51Z</time>
      </trkpt>
      <trkpt lat="48.3067" lon="-2.91077">
        <ele>163</ele>
        <time>2016-03-14T13:43:53Z</time>
      </trkpt>
      <trkpt lat="48.3067" lon="-2.91078">
        <ele>163</ele>
        <time>2016-03-14T13:43:54Z</time>
      </trkpt>
      <trkpt lat="48.3067" lon="-2.9108">
        <ele>163</ele>
        <time>2016-03-14T13:43:55Z</time>
      </trkpt>
      <trkpt lat="48.3067" lon="-2.91082">
        <ele>163</ele>
        <time>2016-03-14T13:43:56Z</time>
      </trkpt>
      <trkpt lat="48.3067" lon="-2.91084">
        <ele>163</ele>
        <time>2016-03-14T13:43:57Z</time>
      </trkpt>
      <trkpt lat="48.30671" lon="-2.91087">
        <ele>163</ele>
        <time>2016-03-14T13:43:59Z</time>
      </trkpt>
      <trkpt lat="48.30671" lon="-2.91089">
        <ele>163</ele>
        <time>2016-03-14T13:44:00Z</time>
      </trkpt>
      <trkpt lat="48.30671" lon="-2.9109">
        <ele>163</ele>
        <time>2016-03-14T13:44:01Z</time>
      </trkpt>
      <trkpt lat="48.30671" lon="-2.91092">
        <ele>163</ele>
        <time>2016-03-14T13:44:02Z</time>
      </trkpt>
      <trkpt lat="48.30671" lon="-2.91094">
        <ele>163</ele>
        <time>2016-03-14T13:44:03Z</time>
      </trkpt>
      <trkpt lat="48.3067" lon="-2.91096">
        <ele>163</ele>
        <time>2016-03-14T13:44:04Z</time>
      </trkpt>
      <trkpt lat="48.30671" lon="-2.91098">
        <ele>163</ele>
        <time>2016-03-14T13:44:05Z</time>
      </trkpt>
      <trkpt lat="48.30671" lon="-2.911">
        <ele>163</ele>
        <time>2016-03-14T13:44:06Z</time>
      </trkpt>
      <trkpt lat="48.30671" lon="-2.91103">
        <ele>163</ele>
        <time>2016-03-14T13:44:08Z</time>
      </trkpt>
      <trkpt lat="48.30671" lon="-2.91104">
        <ele>163</ele>
        <time>2016-03-14T13:44:09Z</time>
      </trkpt>
      <trkpt lat="48.30671" lon="-2.91106">
        <ele>163</ele>
        <time>2016-03-14T13:44:10Z</time>
      </trkpt>
      <trkpt lat="48.30671" lon="-2.91109">
        <ele>163</ele>
        <time>2016-03-14T13:44:12Z</time>
      </trkpt>
      <trkpt lat="48.30671" lon="-2.91111">
        <ele>163</ele>
        <time>2016-03-14T13:44:13Z</time>
      </trkpt>
      <trkpt lat="48.30671" lon="-2.91113">
        <ele>163</ele>
        <time>2016-03-14T13:44:14Z</time>
      </trkpt>
      <trkpt lat="48.30672" lon="-2.91115">
        <ele>163</ele>
        <time>2016-03-14T13:44:15Z</time>
      </trkpt>
      <trkpt lat="48.30672" lon="-2.91117">
        <ele>163</ele>
        <time>2016-03-14T13:44:16Z</time>
      </trkpt>
      <trkpt lat="48.30672" lon="-2.91119">
        <ele>163</ele>
        <time>2016-03-14T13:44:17Z</time>
      </trkpt>
      <trkpt lat="48.30671" lon="-2.91121">
        <ele>163</ele>
        <time>2016-03-14T13:44:18Z</time>
      </trkpt>
      <trkpt lat="48.30671" lon="-2.91123">
        <ele>163</ele>
        <time>2016-03-14T13:44:19Z</time>
      </trkpt>
      <trkpt lat="48.30671" lon="-2.91125">
        <ele>163</ele>
        <time>2016-03-14T13:44:20Z</time>
      </trkpt>
      <trkpt lat="48.30671" lon="-2.91127">
        <ele>163</ele>
        <time>2016-03-14T13:44:21Z</time>
      </trkpt>
      <trkpt lat="48.30671" lon="-2.91129">
        <ele>163</ele>
        <time>2016-03-14T13:44:22Z</time>
      </trkpt>
      <trkpt lat="48.30671" lon="-2.91131">
        <ele>163</ele>
        <time>2016-03-14T13:44:23Z</time>
      </trkpt>
      <trkpt lat="48.3067" lon="-2.91134">
        <ele>163</ele>
        <time>2016-03-14T13:44:24Z</time>
      </trkpt>
      <trkpt lat="48.3067" lon="-2.91136">
        <ele>163</ele>
        <time>2016-03-14T13:44:25Z</time>
      </trkpt>
      <trkpt lat="48.3067" lon="-2.91137">
        <ele>163</ele>
        <time>2016-03-14T13:44:26Z</time>
      </trkpt>
      <trkpt lat="48.3067" lon="-2.91139">
        <ele>163</ele>
        <time>2016-03-14T13:44:27Z</time>
      </trkpt>
      <trkpt lat="48.3067" lon="-2.91141">
        <ele>163</ele>
        <time>2016-03-14T13:44:28Z</time>
      </trkpt>
      <trkpt lat="48.3067" lon="-2.91143">
        <ele>163</ele>
        <time>2016-03-14T13:44:29Z</time>
      </trkpt>
      <trkpt lat="48.3067" lon="-2.91145">
        <ele>163</ele>
        <time>2016-03-14T13:44:31Z</time>
      </trkpt>
      <trkpt lat="48.3067" lon="-2.91147">
        <ele>163</ele>
        <time>2016-03-14T13:44:32Z</time>
      </trkpt>
      <trkpt lat="48.3067" lon="-2.91149">
        <ele>163</ele>
        <time>2016-03-14T13:44:33Z</time>
      </trkpt>
      <trkpt lat="48.3067" lon="-2.91151">
        <ele>163</ele>
        <time>2016-03-14T13:44:34Z</time>
      </trkpt>
      <trkpt lat="48.30669" lon="-2.91153">
        <ele>163</ele>
        <time>2016-03-14T13:44:35Z</time>
      </trkpt>
      <trkpt lat="48.30669" lon="-2.91154">
        <ele>163</ele>
        <time>2016-03-14T13:44:36Z</time>
      </trkpt>
      <trkpt lat="48.30669" lon="-2.91156">
        <ele>163</ele>
        <time>2016-03-14T13:44:37Z</time>
      </trkpt>
      <trkpt lat="48.30669" lon="-2.91158">
        <ele>163</ele>
        <time>2016-03-14T13:44:38Z</time>
      </trkpt>
      <trkpt lat="48.30669" lon="-2.91161">
        <ele>163</ele>
        <time>2016-03-14T13:44:40Z</time>
      </trkpt>
      <trkpt lat="48.30668" lon="-2.91163">
        <ele>163</ele>
        <time>2016-03-14T13:44:41Z</time>
      </trkpt>
      <trkpt lat="48.30667" lon="-2.91165">
        <ele>163</ele>
        <time>2016-03-14T13:44:43Z</time>
      </trkpt>
      <trkpt lat="48.30666" lon="-2.91169">
        <ele>163</ele>
        <time>2016-03-14T13:44:45Z</time>
      </trkpt>
      <trkpt lat="48.30666" lon="-2.9117">
        <ele>163</ele>
        <time>2016-03-14T13:44:46Z</time>
      </trkpt>
      <trkpt lat="48.30666" lon="-2.91173">
        <ele>163</ele>
        <time>2016-03-14T13:44:48Z</time>
      </trkpt>
      <trkpt lat="48.30666" lon="-2.91176">
        <ele>163</ele>
        <time>2016-03-14T13:44:50Z</time>
      </trkpt>
      <trkpt lat="48.30666" lon="-2.91179">
        <ele>163</ele>
        <time>2016-03-14T13:44:52Z</time>
      </trkpt>
      <trkpt lat="48.30666" lon="-2.9118">
        <ele>163</ele>
        <time>2016-03-14T13:44:54Z</time>
      </trkpt>
      <trkpt lat="48.30666" lon="-2.91182">
        <ele>163</ele>
        <time>2016-03-14T13:44:57Z</time>
      </trkpt>
      <trkpt lat="48.30666" lon="-2.91184">
        <ele>163</ele>
        <time>2016-03-14T13:44:59Z</time>
      </trkpt>
      <trkpt lat="48.30666" lon="-2.91186">
        <ele>163</ele>
        <time>2016-03-14T13:45:01Z</time>
      </trkpt>
      <trkpt lat="48.30665" lon="-2.91188">
        <ele>166</ele>
        <time>2016-03-14T13:45:09Z</time>
      </trkpt>
      <trkpt lat="48.30666" lon="-2.91188">
        <ele>168</ele>
        <time>2016-03-14T13:45:15Z</time>
      </trkpt>
      <trkpt lat="48.30669" lon="-2.91188">
        <ele>169</ele>
        <time>2016-03-14T13:45:16Z</time>
      </trkpt>
      <trkpt lat="48.30667" lon="-2.91189">
        <ele>173</ele>
        <time>2016-03-14T13:45:25Z</time>
      </trkpt>
      <trkpt lat="48.30666" lon="-2.9119">
        <ele>173</ele>
        <time>2016-03-14T13:45:27Z</time>
      </trkpt>
      <trkpt lat="48.30664" lon="-2.9119">
        <ele>173</ele>
        <time>2016-03-14T13:45:31Z</time>
      </trkpt>
      <trkpt lat="48.30663" lon="-2.9119">
        <ele>173</ele>
        <time>2016-03-14T13:45:45Z</time>
      </trkpt>
      <trkpt lat="48.30663" lon="-2.91188">
        <ele>173</ele>
        <time>2016-03-14T13:45:47Z</time>
      </trkpt>
      <trkpt lat="48.30664" lon="-2.91186">
        <ele>173</ele>
        <time>2016-03-14T13:45:56Z</time>
      </trkpt>
      <trkpt lat="48.30663" lon="-2.91186">
        <ele>173</ele>
        <time>2016-03-14T13:46:06Z</time>
      </trkpt>
      <trkpt lat="48.30661" lon="-2.91184">
        <ele>173</ele>
        <time>2016-03-14T13:46:23Z</time>
      </trkpt>
      <trkpt lat="48.3066" lon="-2.91184">
        <ele>173</ele>
        <time>2016-03-14T13:46:40Z</time>
      </trkpt>
      <trkpt lat="48.30659" lon="-2.91186">
        <ele>173</ele>
        <time>2016-03-14T13:46:42Z</time>
      </trkpt>
      <trkpt lat="48.30658" lon="-2.91188">
        <ele>173</ele>
        <time>2016-03-14T13:46:44Z</time>
      </trkpt>
      <trkpt lat="48.30657" lon="-2.9119">
        <ele>173</ele>
        <time>2016-03-14T13:46:46Z</time>
      </trkpt>
      <trkpt lat="48.30655" lon="-2.91192">
        <ele>173</ele>
        <time>2016-03-14T13:46:48Z</time>
      </trkpt>
      <trkpt lat="48.30654" lon="-2.91194">
        <ele>173</ele>
        <time>2016-03-14T13:46:50Z</time>
      </trkpt>
      <trkpt lat="48.30652" lon="-2.91196">
        <ele>173</ele>
        <time>2016-03-14T13:46:52Z</time>
      </trkpt>
      <trkpt lat="48.3065" lon="-2.91198">
        <ele>173</ele>
        <time>2016-03-14T13:46:54Z</time>
      </trkpt>
      <trkpt lat="48.30648" lon="-2.912">
        <ele>173</ele>
        <time>2016-03-14T13:46:56Z</time>
      </trkpt>
      <trkpt lat="48.30647" lon="-2.91202">
        <ele>173</ele>
        <time>2016-03-14T13:46:58Z</time>
      </trkpt>
      <trkpt lat="48.30646" lon="-2.91204">
        <ele>173</ele>
        <time>2016-03-14T13:47:00Z</time>
      </trkpt>
      <trkpt lat="48.30645" lon="-2.91206">
        <ele>173</ele>
        <time>2016-03-14T13:47:02Z</time>
      </trkpt>
      <trkpt lat="48.30644" lon="-2.91208">
        <ele>173</ele>
        <time>2016-03-14T13:47:04Z</time>
      </trkpt>
      <trkpt lat="48.30643" lon="-2.91211">
        <ele>173</ele>
        <time>2016-03-14T13:47:06Z</time>
      </trkpt>
      <trkpt lat="48.30643" lon="-2.91214">
        <ele>173</ele>
        <time>2016-03-14T13:47:08Z</time>
      </trkpt>
      <trkpt lat="48.30644" lon="-2.91217">
        <ele>173</ele>
        <time>2016-03-14T13:47:10Z</time>
      </trkpt>
      <trkpt lat="48.30645" lon="-2.9122">
        <ele>173</ele>
        <time>2016-03-14T13:47:12Z</time>
      </trkpt>
      <trkpt lat="48.30645" lon="-2.91221">
        <ele>173</ele>
        <time>2016-03-14T13:47:13Z</time>
      </trkpt>
      <trkpt lat="48.30646" lon="-2.91224">
        <ele>173</ele>
        <time>2016-03-14T13:47:15Z</time>
      </trkpt>
      <trkpt lat="48.30647" lon="-2.91227">
        <ele>173</ele>
        <time>2016-03-14T13:47:17Z</time>
      </trkpt>
      <trkpt lat="48.30647" lon="-2.9123">
        <ele>173</ele>
        <time>2016-03-14T13:47:19Z</time>
      </trkpt>
      <trkpt lat="48.30648" lon="-2.91232">
        <ele>173</ele>
        <time>2016-03-14T13:47:21Z</time>
      </trkpt>
      <trkpt lat="48.30648" lon="-2.91235">
        <ele>173</ele>
        <time>2016-03-14T13:47:23Z</time>
      </trkpt>
      <trkpt lat="48.30649" lon="-2.91237">
        <ele>173</ele>
        <time>2016-03-14T13:47:25Z</time>
      </trkpt>
      <trkpt lat="48.30649" lon="-2.9124">
        <ele>173</ele>
        <time>2016-03-14T13:47:27Z</time>
      </trkpt>
      <trkpt lat="48.30649" lon="-2.91241">
        <ele>173</ele>
        <time>2016-03-14T13:47:28Z</time>
      </trkpt>
      <trkpt lat="48.30649" lon="-2.91243">
        <ele>173</ele>
        <time>2016-03-14T13:47:29Z</time>
      </trkpt>
      <trkpt lat="48.30649" lon="-2.91246">
        <ele>172</ele>
        <time>2016-03-14T13:47:31Z</time>
      </trkpt>
      <trkpt lat="48.30649" lon="-2.91248">
        <ele>172</ele>
        <time>2016-03-14T13:47:32Z</time>
      </trkpt>
      <trkpt lat="48.30649" lon="-2.9125">
        <ele>172</ele>
        <time>2016-03-14T13:47:33Z</time>
      </trkpt>
      <trkpt lat="48.30649" lon="-2.91252">
        <ele>172</ele>
        <time>2016-03-14T13:47:34Z</time>
      </trkpt>
      <trkpt lat="48.30648" lon="-2.91253">
        <ele>172</ele>
        <time>2016-03-14T13:47:35Z</time>
      </trkpt>
      <trkpt lat="48.30648" lon="-2.91257">
        <ele>172</ele>
        <time>2016-03-14T13:47:37Z</time>
      </trkpt>
      <trkpt lat="48.30648" lon="-2.91259">
        <ele>172</ele>
        <time>2016-03-14T13:47:38Z</time>
      </trkpt>
      <trkpt lat="48.30648" lon="-2.91261">
        <ele>172</ele>
        <time>2016-03-14T13:47:39Z</time>
      </trkpt>
      <trkpt lat="48.30648" lon="-2.91262">
        <ele>172</ele>
        <time>2016-03-14T13:47:40Z</time>
      </trkpt>
      <trkpt lat="48.30648" lon="-2.91264">
        <ele>172</ele>
        <time>2016-03-14T13:47:41Z</time>
      </trkpt>
      <trkpt lat="48.30648" lon="-2.91266">
        <ele>172</ele>
        <time>2016-03-14T13:47:42Z</time>
      </trkpt>
      <trkpt lat="48.30648" lon="-2.91267">
        <ele>172</ele>
        <time>2016-03-14T13:47:43Z</time>
      </trkpt>
      <trkpt lat="48.30648" lon="-2.9127">
        <ele>172</ele>
        <time>2016-03-14T13:47:45Z</time>
      </trkpt>
      <trkpt lat="48.30648" lon="-2.91272">
        <ele>172</ele>
        <time>2016-03-14T13:47:46Z</time>
      </trkpt>
      <trkpt lat="48.30648" lon="-2.91274">
        <ele>171</ele>
        <time>2016-03-14T13:47:47Z</time>
      </trkpt>
      <trkpt lat="48.30647" lon="-2.91277">
        <ele>171</ele>
        <time>2016-03-14T13:47:49Z</time>
      </trkpt>
      <trkpt lat="48.30646" lon="-2.91279">
        <ele>171</ele>
        <time>2016-03-14T13:47:50Z</time>
      </trkpt>
      <trkpt lat="48.30645" lon="-2.91282">
        <ele>171</ele>
        <time>2016-03-14T13:47:52Z</time>
      </trkpt>
      <trkpt lat="48.30644" lon="-2.91284">
        <ele>171</ele>
        <time>2016-03-14T13:47:54Z</time>
      </trkpt>
      <trkpt lat="48.30643" lon="-2.91286">
        <ele>171</ele>
        <time>2016-03-14T13:47:56Z</time>
      </trkpt>
      <trkpt lat="48.30642" lon="-2.91289">
        <ele>171</ele>
        <time>2016-03-14T13:47:58Z</time>
      </trkpt>
      <trkpt lat="48.30641" lon="-2.91291">
        <ele>171</ele>
        <time>2016-03-14T13:48:00Z</time>
      </trkpt>
      <trkpt lat="48.3064" lon="-2.91294">
        <ele>171</ele>
        <time>2016-03-14T13:48:02Z</time>
      </trkpt>
      <trkpt lat="48.30639" lon="-2.91296">
        <ele>171</ele>
        <time>2016-03-14T13:48:04Z</time>
      </trkpt>
      <trkpt lat="48.30639" lon="-2.91298">
        <ele>171</ele>
        <time>2016-03-14T13:48:06Z</time>
      </trkpt>
      <trkpt lat="48.3064" lon="-2.913">
        <ele>171</ele>
        <time>2016-03-14T13:48:08Z</time>
      </trkpt>
      <trkpt lat="48.30639" lon="-2.91303">
        <ele>171</ele>
        <time>2016-03-14T13:48:10Z</time>
      </trkpt>
      <trkpt lat="48.30638" lon="-2.91306">
        <ele>171</ele>
        <time>2016-03-14T13:48:12Z</time>
      </trkpt>
      <trkpt lat="48.30638" lon="-2.91308">
        <ele>171</ele>
        <time>2016-03-14T13:48:14Z</time>
      </trkpt>
      <trkpt lat="48.30638" lon="-2.91312">
        <ele>171</ele>
        <time>2016-03-14T13:48:16Z</time>
      </trkpt>
      <trkpt lat="48.30638" lon="-2.91315">
        <ele>171</ele>
        <time>2016-03-14T13:48:18Z</time>
      </trkpt>
      <trkpt lat="48.30637" lon="-2.91317">
        <ele>171</ele>
        <time>2016-03-14T13:48:20Z</time>
      </trkpt>
      <trkpt lat="48.30635" lon="-2.9132">
        <ele>171</ele>
        <time>2016-03-14T13:48:22Z</time>
      </trkpt>
      <trkpt lat="48.30634" lon="-2.91323">
        <ele>171</ele>
        <time>2016-03-14T13:48:24Z</time>
      </trkpt>
      <trkpt lat="48.30632" lon="-2.91325">
        <ele>171</ele>
        <time>2016-03-14T13:48:26Z</time>
      </trkpt>
      <trkpt lat="48.30631" lon="-2.91327">
        <ele>171</ele>
        <time>2016-03-14T13:48:28Z</time>
      </trkpt>
      <trkpt lat="48.3063" lon="-2.91329">
        <ele>171</ele>
        <time>2016-03-14T13:48:30Z</time>
      </trkpt>
      <trkpt lat="48.30629" lon="-2.91331">
        <ele>171</ele>
        <time>2016-03-14T13:48:32Z</time>
      </trkpt>
      <trkpt lat="48.30627" lon="-2.91334">
        <ele>171</ele>
        <time>2016-03-14T13:48:34Z</time>
      </trkpt>
      <trkpt lat="48.30627" lon="-2.91336">
        <ele>170</ele>
        <time>2016-03-14T13:48:36Z</time>
      </trkpt>
      <trkpt lat="48.30626" lon="-2.91339">
        <ele>170</ele>
        <time>2016-03-14T13:48:38Z</time>
      </trkpt>
      <trkpt lat="48.30625" lon="-2.91341">
        <ele>170</ele>
        <time>2016-03-14T13:48:40Z</time>
      </trkpt>
      <trkpt lat="48.30625" lon="-2.91344">
        <ele>170</ele>
        <time>2016-03-14T13:48:42Z</time>
      </trkpt>
      <trkpt lat="48.30623" lon="-2.91345">
        <ele>170</ele>
        <time>2016-03-14T13:48:44Z</time>
      </trkpt>
      <trkpt lat="48.30622" lon="-2.91348">
        <ele>170</ele>
        <time>2016-03-14T13:48:46Z</time>
      </trkpt>
      <trkpt lat="48.30621" lon="-2.9135">
        <ele>170</ele>
        <time>2016-03-14T13:48:48Z</time>
      </trkpt>
      <trkpt lat="48.30621" lon="-2.91352">
        <ele>170</ele>
        <time>2016-03-14T13:48:49Z</time>
      </trkpt>
      <trkpt lat="48.30621" lon="-2.91354">
        <ele>170</ele>
        <time>2016-03-14T13:48:50Z</time>
      </trkpt>
      <trkpt lat="48.30621" lon="-2.91356">
        <ele>170</ele>
        <time>2016-03-14T13:48:52Z</time>
      </trkpt>
      <trkpt lat="48.30621" lon="-2.91358">
        <ele>170</ele>
        <time>2016-03-14T13:48:54Z</time>
      </trkpt>
      <trkpt lat="48.3062" lon="-2.9136">
        <ele>170</ele>
        <time>2016-03-14T13:48:56Z</time>
      </trkpt>
      <trkpt lat="48.3062" lon="-2.91363">
        <ele>170</ele>
        <time>2016-03-14T13:48:58Z</time>
      </trkpt>
      <trkpt lat="48.3062" lon="-2.91366">
        <ele>169</ele>
        <time>2016-03-14T13:49:00Z</time>
      </trkpt>
      <trkpt lat="48.3062" lon="-2.91368">
        <ele>169</ele>
        <time>2016-03-14T13:49:02Z</time>
      </trkpt>
      <trkpt lat="48.30619" lon="-2.9137">
        <ele>169</ele>
        <time>2016-03-14T13:49:04Z</time>
      </trkpt>
      <trkpt lat="48.30618" lon="-2.91372">
        <ele>169</ele>
        <time>2016-03-14T13:49:05Z</time>
      </trkpt>
      <trkpt lat="48.30618" lon="-2.91374">
        <ele>169</ele>
        <time>2016-03-14T13:49:07Z</time>
      </trkpt>
      <trkpt lat="48.30618" lon="-2.91377">
        <ele>169</ele>
        <time>2016-03-14T13:49:09Z</time>
      </trkpt>
      <trkpt lat="48.30619" lon="-2.91379">
        <ele>169</ele>
        <time>2016-03-14T13:49:10Z</time>
      </trkpt>
      <trkpt lat="48.30618" lon="-2.91381">
        <ele>169</ele>
        <time>2016-03-14T13:49:11Z</time>
      </trkpt>
      <trkpt lat="48.30618" lon="-2.91384">
        <ele>169</ele>
        <time>2016-03-14T13:49:13Z</time>
      </trkpt>
      <trkpt lat="48.30618" lon="-2.91387">
        <ele>169</ele>
        <time>2016-03-14T13:49:15Z</time>
      </trkpt>
      <trkpt lat="48.30617" lon="-2.9139">
        <ele>169</ele>
        <time>2016-03-14T13:49:17Z</time>
      </trkpt>
      <trkpt lat="48.30616" lon="-2.91393">
        <ele>169</ele>
        <time>2016-03-14T13:49:19Z</time>
      </trkpt>
      <trkpt lat="48.30616" lon="-2.91396">
        <ele>169</ele>
        <time>2016-03-14T13:49:21Z</time>
      </trkpt>
      <trkpt lat="48.30615" lon="-2.91397">
        <ele>169</ele>
        <time>2016-03-14T13:49:22Z</time>
      </trkpt>
      <trkpt lat="48.30615" lon="-2.91399">
        <ele>169</ele>
        <time>2016-03-14T13:49:23Z</time>
      </trkpt>
      <trkpt lat="48.30616" lon="-2.91401">
        <ele>169</ele>
        <time>2016-03-14T13:49:25Z</time>
      </trkpt>
      <trkpt lat="48.30616" lon="-2.91405">
        <ele>169</ele>
        <time>2016-03-14T13:49:27Z</time>
      </trkpt>
      <trkpt lat="48.30616" lon="-2.91407">
        <ele>169</ele>
        <time>2016-03-14T13:49:28Z</time>
      </trkpt>
      <trkpt lat="48.30615" lon="-2.91409">
        <ele>169</ele>
        <time>2016-03-14T13:49:30Z</time>
      </trkpt>
      <trkpt lat="48.30615" lon="-2.91412">
        <ele>169</ele>
        <time>2016-03-14T13:49:32Z</time>
      </trkpt>
      <trkpt lat="48.30614" lon="-2.91415">
        <ele>169</ele>
        <time>2016-03-14T13:49:34Z</time>
      </trkpt>
      <trkpt lat="48.30614" lon="-2.91417">
        <ele>169</ele>
        <time>2016-03-14T13:49:35Z</time>
      </trkpt>
      <trkpt lat="48.30613" lon="-2.91421">
        <ele>169</ele>
        <time>2016-03-14T13:49:37Z</time>
      </trkpt>
      <trkpt lat="48.30613" lon="-2.91422">
        <ele>169</ele>
        <time>2016-03-14T13:49:39Z</time>
      </trkpt>
      <trkpt lat="48.30612" lon="-2.91424">
        <ele>169</ele>
        <time>2016-03-14T13:49:41Z</time>
      </trkpt>
      <trkpt lat="48.30612" lon="-2.91427">
        <ele>169</ele>
        <time>2016-03-14T13:49:43Z</time>
      </trkpt>
      <trkpt lat="48.30611" lon="-2.91429">
        <ele>169</ele>
        <time>2016-03-14T13:49:44Z</time>
      </trkpt>
      <trkpt lat="48.30611" lon="-2.91431">
        <ele>169</ele>
        <time>2016-03-14T13:49:45Z</time>
      </trkpt>
      <trkpt lat="48.30611" lon="-2.91433">
        <ele>169</ele>
        <time>2016-03-14T13:49:46Z</time>
      </trkpt>
      <trkpt lat="48.3061" lon="-2.91435">
        <ele>169</ele>
        <time>2016-03-14T13:49:47Z</time>
      </trkpt>
      <trkpt lat="48.3061" lon="-2.91438">
        <ele>169</ele>
        <time>2016-03-14T13:49:48Z</time>
      </trkpt>
      <trkpt lat="48.30608" lon="-2.9144">
        <ele>169</ele>
        <time>2016-03-14T13:49:50Z</time>
      </trkpt>
      <trkpt lat="48.30608" lon="-2.91442">
        <ele>169</ele>
        <time>2016-03-14T13:49:51Z</time>
      </trkpt>
      <trkpt lat="48.30607" lon="-2.91443">
        <ele>169</ele>
        <time>2016-03-14T13:49:52Z</time>
      </trkpt>
      <trkpt lat="48.30607" lon="-2.91447">
        <ele>169</ele>
        <time>2016-03-14T13:49:54Z</time>
      </trkpt>
      <trkpt lat="48.30607" lon="-2.91449">
        <ele>169</ele>
        <time>2016-03-14T13:49:56Z</time>
      </trkpt>
      <trkpt lat="48.30606" lon="-2.91452">
        <ele>169</ele>
        <time>2016-03-14T13:49:57Z</time>
      </trkpt>
      <trkpt lat="48.30605" lon="-2.91454">
        <ele>169</ele>
        <time>2016-03-14T13:49:58Z</time>
      </trkpt>
      <trkpt lat="48.30605" lon="-2.91456">
        <ele>169</ele>
        <time>2016-03-14T13:49:59Z</time>
      </trkpt>
      <trkpt lat="48.30604" lon="-2.91458">
        <ele>169</ele>
        <time>2016-03-14T13:50:01Z</time>
      </trkpt>
      <trkpt lat="48.30605" lon="-2.9146">
        <ele>169</ele>
        <time>2016-03-14T13:50:03Z</time>
      </trkpt>
      <trkpt lat="48.30604" lon="-2.91464">
        <ele>169</ele>
        <time>2016-03-14T13:50:05Z</time>
      </trkpt>
      <trkpt lat="48.30604" lon="-2.91466">
        <ele>169</ele>
        <time>2016-03-14T13:50:06Z</time>
      </trkpt>
      <trkpt lat="48.30604" lon="-2.91468">
        <ele>169</ele>
        <time>2016-03-14T13:50:07Z</time>
      </trkpt>
      <trkpt lat="48.30603" lon="-2.9147">
        <ele>169</ele>
        <time>2016-03-14T13:50:08Z</time>
      </trkpt>
      <trkpt lat="48.30603" lon="-2.91472">
        <ele>169</ele>
        <time>2016-03-14T13:50:09Z</time>
      </trkpt>
      <trkpt lat="48.30603" lon="-2.91473">
        <ele>169</ele>
        <time>2016-03-14T13:50:10Z</time>
      </trkpt>
      <trkpt lat="48.30603" lon="-2.91475">
        <ele>169</ele>
        <time>2016-03-14T13:50:11Z</time>
      </trkpt>
      <trkpt lat="48.30604" lon="-2.91476">
        <ele>169</ele>
        <time>2016-03-14T13:50:13Z</time>
      </trkpt>
      <trkpt lat="48.30603" lon="-2.91478">
        <ele>169</ele>
        <time>2016-03-14T13:50:15Z</time>
      </trkpt>
      <trkpt lat="48.30603" lon="-2.91481">
        <ele>169</ele>
        <time>2016-03-14T13:50:17Z</time>
      </trkpt>
      <trkpt lat="48.30602" lon="-2.91483">
        <ele>169</ele>
        <time>2016-03-14T13:50:19Z</time>
      </trkpt>
      <trkpt lat="48.30603" lon="-2.91485">
        <ele>169</ele>
        <time>2016-03-14T13:50:21Z</time>
      </trkpt>
      <trkpt lat="48.30603" lon="-2.91488">
        <ele>169</ele>
        <time>2016-03-14T13:50:23Z</time>
      </trkpt>
      <trkpt lat="48.30604" lon="-2.91489">
        <ele>169</ele>
        <time>2016-03-14T13:50:24Z</time>
      </trkpt>
      <trkpt lat="48.30604" lon="-2.91492">
        <ele>169</ele>
        <time>2016-03-14T13:50:26Z</time>
      </trkpt>
      <trkpt lat="48.30604" lon="-2.91494">
        <ele>169</ele>
        <time>2016-03-14T13:50:27Z</time>
      </trkpt>
      <trkpt lat="48.30604" lon="-2.91496">
        <ele>169</ele>
        <time>2016-03-14T13:50:28Z</time>
      </trkpt>
      <trkpt lat="48.30603" lon="-2.91499">
        <ele>169</ele>
        <time>2016-03-14T13:50:30Z</time>
      </trkpt>
      <trkpt lat="48.30603" lon="-2.91501">
        <ele>169</ele>
        <time>2016-03-14T13:50:31Z</time>
      </trkpt>
      <trkpt lat="48.30603" lon="-2.91504">
        <ele>169</ele>
        <time>2016-03-14T13:50:33Z</time>
      </trkpt>
      <trkpt lat="48.30603" lon="-2.91506">
        <ele>169</ele>
        <time>2016-03-14T13:50:35Z</time>
      </trkpt>
      <trkpt lat="48.30603" lon="-2.91508">
        <ele>169</ele>
        <time>2016-03-14T13:50:37Z</time>
      </trkpt>
      <trkpt lat="48.30603" lon="-2.9151">
        <ele>169</ele>
        <time>2016-03-14T13:50:39Z</time>
      </trkpt>
      <trkpt lat="48.30603" lon="-2.91512">
        <ele>169</ele>
        <time>2016-03-14T13:50:41Z</time>
      </trkpt>
      <trkpt lat="48.30603" lon="-2.91515">
        <ele>169</ele>
        <time>2016-03-14T13:50:43Z</time>
      </trkpt>
      <trkpt lat="48.30603" lon="-2.91518">
        <ele>169</ele>
        <time>2016-03-14T13:50:45Z</time>
      </trkpt>
      <trkpt lat="48.30604" lon="-2.9152">
        <ele>169</ele>
        <time>2016-03-14T13:50:48Z</time>
      </trkpt>
      <trkpt lat="48.30604" lon="-2.91523">
        <ele>169</ele>
        <time>2016-03-14T13:50:50Z</time>
      </trkpt>
      <trkpt lat="48.30604" lon="-2.91525">
        <ele>169</ele>
        <time>2016-03-14T13:50:52Z</time>
      </trkpt>
      <trkpt lat="48.30604" lon="-2.91529">
        <ele>169</ele>
        <time>2016-03-14T13:50:54Z</time>
      </trkpt>
      <trkpt lat="48.30604" lon="-2.9153">
        <ele>169</ele>
        <time>2016-03-14T13:50:55Z</time>
      </trkpt>
      <trkpt lat="48.30604" lon="-2.91533">
        <ele>169</ele>
        <time>2016-03-14T13:50:57Z</time>
      </trkpt>
      <trkpt lat="48.30603" lon="-2.91535">
        <ele>169</ele>
        <time>2016-03-14T13:50:58Z</time>
      </trkpt>
      <trkpt lat="48.30604" lon="-2.91537">
        <ele>169</ele>
        <time>2016-03-14T13:51:00Z</time>
      </trkpt>
      <trkpt lat="48.30604" lon="-2.91539">
        <ele>169</ele>
        <time>2016-03-14T13:51:01Z</time>
      </trkpt>
      <trkpt lat="48.30603" lon="-2.91542">
        <ele>168</ele>
        <time>2016-03-14T13:51:03Z</time>
      </trkpt>
      <trkpt lat="48.30603" lon="-2.91544">
        <ele>168</ele>
        <time>2016-03-14T13:51:04Z</time>
      </trkpt>
      <trkpt lat="48.30604" lon="-2.91545">
        <ele>168</ele>
        <time>2016-03-14T13:51:05Z</time>
      </trkpt>
      <trkpt lat="48.30604" lon="-2.91548">
        <ele>167</ele>
        <time>2016-03-14T13:51:07Z</time>
      </trkpt>
      <trkpt lat="48.30604" lon="-2.9155">
        <ele>167</ele>
        <time>2016-03-14T13:51:08Z</time>
      </trkpt>
      <trkpt lat="48.30604" lon="-2.91552">
        <ele>167</ele>
        <time>2016-03-14T13:51:09Z</time>
      </trkpt>
      <trkpt lat="48.30604" lon="-2.91554">
        <ele>167</ele>
        <time>2016-03-14T13:51:10Z</time>
      </trkpt>
      <trkpt lat="48.30604" lon="-2.91556">
        <ele>167</ele>
        <time>2016-03-14T13:51:11Z</time>
      </trkpt>
      <trkpt lat="48.30604" lon="-2.91558">
        <ele>167</ele>
        <time>2016-03-14T13:51:12Z</time>
      </trkpt>
      <trkpt lat="48.30603" lon="-2.91559">
        <ele>167</ele>
        <time>2016-03-14T13:51:14Z</time>
      </trkpt>
      <trkpt lat="48.30603" lon="-2.91561">
        <ele>167</ele>
        <time>2016-03-14T13:51:16Z</time>
      </trkpt>
      <trkpt lat="48.30604" lon="-2.91563">
        <ele>167</ele>
        <time>2016-03-14T13:51:19Z</time>
      </trkpt>
      <trkpt lat="48.30603" lon="-2.91566">
        <ele>167</ele>
        <time>2016-03-14T13:51:21Z</time>
      </trkpt>
      <trkpt lat="48.30603" lon="-2.91567">
        <ele>167</ele>
        <time>2016-03-14T13:51:22Z</time>
      </trkpt>
      <trkpt lat="48.30603" lon="-2.91569">
        <ele>167</ele>
        <time>2016-03-14T13:51:23Z</time>
      </trkpt>
      <trkpt lat="48.30603" lon="-2.91571">
        <ele>167</ele>
        <time>2016-03-14T13:51:24Z</time>
      </trkpt>
      <trkpt lat="48.30603" lon="-2.91573">
        <ele>167</ele>
        <time>2016-03-14T13:51:25Z</time>
      </trkpt>
      <trkpt lat="48.30604" lon="-2.91576">
        <ele>167</ele>
        <time>2016-03-14T13:51:27Z</time>
      </trkpt>
      <trkpt lat="48.30604" lon="-2.91577">
        <ele>167</ele>
        <time>2016-03-14T13:51:28Z</time>
      </trkpt>
      <trkpt lat="48.30604" lon="-2.91579">
        <ele>167</ele>
        <time>2016-03-14T13:51:29Z</time>
      </trkpt>
      <trkpt lat="48.30604" lon="-2.91581">
        <ele>167</ele>
        <time>2016-03-14T13:51:30Z</time>
      </trkpt>
      <trkpt lat="48.30604" lon="-2.91583">
        <ele>167</ele>
        <time>2016-03-14T13:51:31Z</time>
      </trkpt>
      <trkpt lat="48.30604" lon="-2.91586">
        <ele>167</ele>
        <time>2016-03-14T13:51:33Z</time>
      </trkpt>
      <trkpt lat="48.30604" lon="-2.91587">
        <ele>167</ele>
        <time>2016-03-14T13:51:34Z</time>
      </trkpt>
      <trkpt lat="48.30604" lon="-2.91589">
        <ele>167</ele>
        <time>2016-03-14T13:51:36Z</time>
      </trkpt>
      <trkpt lat="48.30604" lon="-2.91592">
        <ele>167</ele>
        <time>2016-03-14T13:51:38Z</time>
      </trkpt>
      <trkpt lat="48.30604" lon="-2.91596">
        <ele>167</ele>
        <time>2016-03-14T13:51:40Z</time>
      </trkpt>
      <trkpt lat="48.30604" lon="-2.91597">
        <ele>167</ele>
        <time>2016-03-14T13:51:41Z</time>
      </trkpt>
      <trkpt lat="48.30605" lon="-2.91599">
        <ele>167</ele>
        <time>2016-03-14T13:51:43Z</time>
      </trkpt>
      <trkpt lat="48.30605" lon="-2.91602">
        <ele>167</ele>
        <time>2016-03-14T13:51:45Z</time>
      </trkpt>
      <trkpt lat="48.30605" lon="-2.91604">
        <ele>167</ele>
        <time>2016-03-14T13:51:47Z</time>
      </trkpt>
      <trkpt lat="48.30605" lon="-2.91607">
        <ele>167</ele>
        <time>2016-03-14T13:51:50Z</time>
      </trkpt>
      <trkpt lat="48.30605" lon="-2.91609">
        <ele>167</ele>
        <time>2016-03-14T13:51:51Z</time>
      </trkpt>
      <trkpt lat="48.30605" lon="-2.91611">
        <ele>167</ele>
        <time>2016-03-14T13:51:52Z</time>
      </trkpt>
      <trkpt lat="48.30605" lon="-2.91614">
        <ele>167</ele>
        <time>2016-03-14T13:51:54Z</time>
      </trkpt>
      <trkpt lat="48.30604" lon="-2.91616">
        <ele>166</ele>
        <time>2016-03-14T13:51:56Z</time>
      </trkpt>
      <trkpt lat="48.30603" lon="-2.91619">
        <ele>166</ele>
        <time>2016-03-14T13:51:58Z</time>
      </trkpt>
      <trkpt lat="48.30602" lon="-2.91622">
        <ele>166</ele>
        <time>2016-03-14T13:52:00Z</time>
      </trkpt>
      <trkpt lat="48.30602" lon="-2.91624">
        <ele>166</ele>
        <time>2016-03-14T13:52:02Z</time>
      </trkpt>
      <trkpt lat="48.30603" lon="-2.91625">
        <ele>166</ele>
        <time>2016-03-14T13:52:05Z</time>
      </trkpt>
      <trkpt lat="48.30603" lon="-2.91628">
        <ele>166</ele>
        <time>2016-03-14T13:52:08Z</time>
      </trkpt>
      <trkpt lat="48.30603" lon="-2.9163">
        <ele>166</ele>
        <time>2016-03-14T13:52:09Z</time>
      </trkpt>
      <trkpt lat="48.30603" lon="-2.91632">
        <ele>166</ele>
        <time>2016-03-14T13:52:10Z</time>
      </trkpt>
      <trkpt lat="48.30603" lon="-2.91634">
        <ele>166</ele>
        <time>2016-03-14T13:52:11Z</time>
      </trkpt>
      <trkpt lat="48.30603" lon="-2.91637">
        <ele>166</ele>
        <time>2016-03-14T13:52:12Z</time>
      </trkpt>
      <trkpt lat="48.30603" lon="-2.91639">
        <ele>166</ele>
        <time>2016-03-14T13:52:13Z</time>
      </trkpt>
      <trkpt lat="48.30603" lon="-2.91641">
        <ele>166</ele>
        <time>2016-03-14T13:52:14Z</time>
      </trkpt>
      <trkpt lat="48.30603" lon="-2.91643">
        <ele>166</ele>
        <time>2016-03-14T13:52:16Z</time>
      </trkpt>
      <trkpt lat="48.30603" lon="-2.91645">
        <ele>166</ele>
        <time>2016-03-14T13:52:17Z</time>
      </trkpt>
      <trkpt lat="48.30604" lon="-2.91647">
        <ele>166</ele>
        <time>2016-03-14T13:52:18Z</time>
      </trkpt>
      <trkpt lat="48.30604" lon="-2.91649">
        <ele>166</ele>
        <time>2016-03-14T13:52:19Z</time>
      </trkpt>
      <trkpt lat="48.30605" lon="-2.91651">
        <ele>166</ele>
        <time>2016-03-14T13:52:21Z</time>
      </trkpt>
      <trkpt lat="48.30606" lon="-2.91654">
        <ele>166</ele>
        <time>2016-03-14T13:52:23Z</time>
      </trkpt>
      <trkpt lat="48.30607" lon="-2.91656">
        <ele>166</ele>
        <time>2016-03-14T13:52:25Z</time>
      </trkpt>
      <trkpt lat="48.30608" lon="-2.91659">
        <ele>166</ele>
        <time>2016-03-14T13:52:27Z</time>
      </trkpt>
      <trkpt lat="48.30609" lon="-2.91661">
        <ele>166</ele>
        <time>2016-03-14T13:52:29Z</time>
      </trkpt>
      <trkpt lat="48.3061" lon="-2.91663">
        <ele>166</ele>
        <time>2016-03-14T13:52:31Z</time>
      </trkpt>
      <trkpt lat="48.30611" lon="-2.91666">
        <ele>166</ele>
        <time>2016-03-14T13:52:33Z</time>
      </trkpt>
      <trkpt lat="48.30612" lon="-2.91669">
        <ele>166</ele>
        <time>2016-03-14T13:52:35Z</time>
      </trkpt>
      <trkpt lat="48.30613" lon="-2.91672">
        <ele>166</ele>
        <time>2016-03-14T13:52:37Z</time>
      </trkpt>
      <trkpt lat="48.30614" lon="-2.91674">
        <ele>166</ele>
        <time>2016-03-14T13:52:39Z</time>
      </trkpt>
      <trkpt lat="48.30615" lon="-2.91676">
        <ele>166</ele>
        <time>2016-03-14T13:52:41Z</time>
      </trkpt>
      <trkpt lat="48.30615" lon="-2.91679">
        <ele>166</ele>
        <time>2016-03-14T13:52:43Z</time>
      </trkpt>
      <trkpt lat="48.30615" lon="-2.91681">
        <ele>166</ele>
        <time>2016-03-14T13:52:45Z</time>
      </trkpt>
      <trkpt lat="48.30615" lon="-2.91683">
        <ele>166</ele>
        <time>2016-03-14T13:52:47Z</time>
      </trkpt>
      <trkpt lat="48.30616" lon="-2.91685">
        <ele>166</ele>
        <time>2016-03-14T13:52:49Z</time>
      </trkpt>
      <trkpt lat="48.30617" lon="-2.91688">
        <ele>166</ele>
        <time>2016-03-14T13:52:51Z</time>
      </trkpt>
      <trkpt lat="48.30618" lon="-2.9169">
        <ele>166</ele>
        <time>2016-03-14T13:52:53Z</time>
      </trkpt>
      <trkpt lat="48.3062" lon="-2.91692">
        <ele>166</ele>
        <time>2016-03-14T13:52:55Z</time>
      </trkpt>
      <trkpt lat="48.30621" lon="-2.91694">
        <ele>166</ele>
        <time>2016-03-14T13:52:57Z</time>
      </trkpt>
      <trkpt lat="48.30622" lon="-2.91697">
        <ele>166</ele>
        <time>2016-03-14T13:52:59Z</time>
      </trkpt>
      <trkpt lat="48.30624" lon="-2.91697">
        <ele>166</ele>
        <time>2016-03-14T13:53:00Z</time>
      </trkpt>
      <trkpt lat="48.30626" lon="-2.91699">
        <ele>166</ele>
        <time>2016-03-14T13:53:02Z</time>
      </trkpt>
      <trkpt lat="48.30627" lon="-2.917">
        <ele>165</ele>
        <time>2016-03-14T13:53:04Z</time>
      </trkpt>
      <trkpt lat="48.30628" lon="-2.91701">
        <ele>165</ele>
        <time>2016-03-14T13:53:06Z</time>
      </trkpt>
      <trkpt lat="48.3063" lon="-2.91704">
        <ele>165</ele>
        <time>2016-03-14T13:53:09Z</time>
      </trkpt>
      <trkpt lat="48.30631" lon="-2.91706">
        <ele>165</ele>
        <time>2016-03-14T13:53:11Z</time>
      </trkpt>
      <trkpt lat="48.30632" lon="-2.91708">
        <ele>165</ele>
        <time>2016-03-14T13:53:13Z</time>
      </trkpt>
      <trkpt lat="48.30634" lon="-2.9171">
        <ele>165</ele>
        <time>2016-03-14T13:53:16Z</time>
      </trkpt>
      <trkpt lat="48.30635" lon="-2.91711">
        <ele>165</ele>
        <time>2016-03-14T13:53:18Z</time>
      </trkpt>
      <trkpt lat="48.30637" lon="-2.91713">
        <ele>165</ele>
        <time>2016-03-14T13:53:20Z</time>
      </trkpt>
      <trkpt lat="48.30638" lon="-2.91715">
        <ele>165</ele>
        <time>2016-03-14T13:53:22Z</time>
      </trkpt>
      <trkpt lat="48.30639" lon="-2.91718">
        <ele>165</ele>
        <time>2016-03-14T13:53:24Z</time>
      </trkpt>
      <trkpt lat="48.30639" lon="-2.91721">
        <ele>165</ele>
        <time>2016-03-14T13:53:26Z</time>
      </trkpt>
      <trkpt lat="48.3064" lon="-2.91723">
        <ele>165</ele>
        <time>2016-03-14T13:53:28Z</time>
      </trkpt>
      <trkpt lat="48.30641" lon="-2.91726">
        <ele>165</ele>
        <time>2016-03-14T13:53:30Z</time>
      </trkpt>
      <trkpt lat="48.30641" lon="-2.91728">
        <ele>165</ele>
        <time>2016-03-14T13:53:32Z</time>
      </trkpt>
      <trkpt lat="48.30642" lon="-2.91731">
        <ele>165</ele>
        <time>2016-03-14T13:53:35Z</time>
      </trkpt>
      <trkpt lat="48.30644" lon="-2.91733">
        <ele>165</ele>
        <time>2016-03-14T13:53:37Z</time>
      </trkpt>
      <trkpt lat="48.30645" lon="-2.91735">
        <ele>165</ele>
        <time>2016-03-14T13:53:39Z</time>
      </trkpt>
      <trkpt lat="48.30647" lon="-2.91737">
        <ele>165</ele>
        <time>2016-03-14T13:53:42Z</time>
      </trkpt>
      <trkpt lat="48.30648" lon="-2.91739">
        <ele>165</ele>
        <time>2016-03-14T13:53:44Z</time>
      </trkpt>
      <trkpt lat="48.30648" lon="-2.91741">
        <ele>164</ele>
        <time>2016-03-14T13:53:46Z</time>
      </trkpt>
      <trkpt lat="48.30649" lon="-2.91744">
        <ele>164</ele>
        <time>2016-03-14T13:53:47Z</time>
      </trkpt>
      <trkpt lat="48.30649" lon="-2.91746">
        <ele>164</ele>
        <time>2016-03-14T13:53:48Z</time>
      </trkpt>
      <trkpt lat="48.3065" lon="-2.91748">
        <ele>164</ele>
        <time>2016-03-14T13:53:49Z</time>
      </trkpt>
      <trkpt lat="48.3065" lon="-2.9175">
        <ele>163</ele>
        <time>2016-03-14T13:53:50Z</time>
      </trkpt>
      <trkpt lat="48.30651" lon="-2.91752">
        <ele>163</ele>
        <time>2016-03-14T13:53:51Z</time>
      </trkpt>
      <trkpt lat="48.30651" lon="-2.91753">
        <ele>163</ele>
        <time>2016-03-14T13:53:52Z</time>
      </trkpt>
      <trkpt lat="48.30652" lon="-2.91756">
        <ele>162</ele>
        <time>2016-03-14T13:53:54Z</time>
      </trkpt>
      <trkpt lat="48.30653" lon="-2.91758">
        <ele>162</ele>
        <time>2016-03-14T13:53:56Z</time>
      </trkpt>
      <trkpt lat="48.30654" lon="-2.91761">
        <ele>161</ele>
        <time>2016-03-14T13:53:58Z</time>
      </trkpt>
      <trkpt lat="48.30655" lon="-2.91763">
        <ele>161</ele>
        <time>2016-03-14T13:53:59Z</time>
      </trkpt>
      <trkpt lat="48.30655" lon="-2.91764">
        <ele>161</ele>
        <time>2016-03-14T13:54:00Z</time>
      </trkpt>
      <trkpt lat="48.30656" lon="-2.91767">
        <ele>161</ele>
        <time>2016-03-14T13:54:02Z</time>
      </trkpt>
      <trkpt lat="48.30656" lon="-2.91769">
        <ele>161</ele>
        <time>2016-03-14T13:54:04Z</time>
      </trkpt>
      <trkpt lat="48.30655" lon="-2.91772">
        <ele>161</ele>
        <time>2016-03-14T13:54:06Z</time>
      </trkpt>
      <trkpt lat="48.30656" lon="-2.91775">
        <ele>161</ele>
        <time>2016-03-14T13:54:08Z</time>
      </trkpt>
      <trkpt lat="48.30656" lon="-2.91778">
        <ele>161</ele>
        <time>2016-03-14T13:54:10Z</time>
      </trkpt>
      <trkpt lat="48.30656" lon="-2.91779">
        <ele>161</ele>
        <time>2016-03-14T13:54:11Z</time>
      </trkpt>
      <trkpt lat="48.30656" lon="-2.91781">
        <ele>161</ele>
        <time>2016-03-14T13:54:12Z</time>
      </trkpt>
      <trkpt lat="48.30656" lon="-2.91783">
        <ele>161</ele>
        <time>2016-03-14T13:54:13Z</time>
      </trkpt>
      <trkpt lat="48.30657" lon="-2.91785">
        <ele>161</ele>
        <time>2016-03-14T13:54:14Z</time>
      </trkpt>
      <trkpt lat="48.30658" lon="-2.91787">
        <ele>161</ele>
        <time>2016-03-14T13:54:16Z</time>
      </trkpt>
      <trkpt lat="48.30659" lon="-2.9179">
        <ele>161</ele>
        <time>2016-03-14T13:54:18Z</time>
      </trkpt>
      <trkpt lat="48.3066" lon="-2.91792">
        <ele>161</ele>
        <time>2016-03-14T13:54:19Z</time>
      </trkpt>
      <trkpt lat="48.30661" lon="-2.91795">
        <ele>161</ele>
        <time>2016-03-14T13:54:21Z</time>
      </trkpt>
      <trkpt lat="48.30661" lon="-2.91797">
        <ele>161</ele>
        <time>2016-03-14T13:54:22Z</time>
      </trkpt>
      <trkpt lat="48.30662" lon="-2.91799">
        <ele>161</ele>
        <time>2016-03-14T13:54:24Z</time>
      </trkpt>
      <trkpt lat="48.30662" lon="-2.91801">
        <ele>160</ele>
        <time>2016-03-14T13:54:25Z</time>
      </trkpt>
      <trkpt lat="48.30663" lon="-2.91803">
        <ele>160</ele>
        <time>2016-03-14T13:54:26Z</time>
      </trkpt>
      <trkpt lat="48.30663" lon="-2.91804">
        <ele>160</ele>
        <time>2016-03-14T13:54:27Z</time>
      </trkpt>
      <trkpt lat="48.30663" lon="-2.91807">
        <ele>160</ele>
        <time>2016-03-14T13:54:29Z</time>
      </trkpt>
      <trkpt lat="48.30664" lon="-2.9181">
        <ele>160</ele>
        <time>2016-03-14T13:54:31Z</time>
      </trkpt>
      <trkpt lat="48.30664" lon="-2.91812">
        <ele>160</ele>
        <time>2016-03-14T13:54:32Z</time>
      </trkpt>
      <trkpt lat="48.30664" lon="-2.91815">
        <ele>160</ele>
        <time>2016-03-14T13:54:34Z</time>
      </trkpt>
      <trkpt lat="48.30664" lon="-2.91819">
        <ele>160</ele>
        <time>2016-03-14T13:54:36Z</time>
      </trkpt>
      <trkpt lat="48.30664" lon="-2.91822">
        <ele>160</ele>
        <time>2016-03-14T13:54:38Z</time>
      </trkpt>
      <trkpt lat="48.30664" lon="-2.91823">
        <ele>160</ele>
        <time>2016-03-14T13:54:39Z</time>
      </trkpt>
      <trkpt lat="48.30665" lon="-2.91825">
        <ele>160</ele>
        <time>2016-03-14T13:54:41Z</time>
      </trkpt>
      <trkpt lat="48.30666" lon="-2.91827">
        <ele>160</ele>
        <time>2016-03-14T13:54:43Z</time>
      </trkpt>
      <trkpt lat="48.30666" lon="-2.9183">
        <ele>160</ele>
        <time>2016-03-14T13:54:45Z</time>
      </trkpt>
      <trkpt lat="48.30666" lon="-2.91832">
        <ele>160</ele>
        <time>2016-03-14T13:54:46Z</time>
      </trkpt>
      <trkpt lat="48.30666" lon="-2.91833">
        <ele>160</ele>
        <time>2016-03-14T13:54:47Z</time>
      </trkpt>
      <trkpt lat="48.30666" lon="-2.91836">
        <ele>160</ele>
        <time>2016-03-14T13:54:48Z</time>
      </trkpt>
      <trkpt lat="48.30666" lon="-2.91838">
        <ele>160</ele>
        <time>2016-03-14T13:54:50Z</time>
      </trkpt>
      <trkpt lat="48.30666" lon="-2.9184">
        <ele>160</ele>
        <time>2016-03-14T13:54:51Z</time>
      </trkpt>
      <trkpt lat="48.30666" lon="-2.91842">
        <ele>160</ele>
        <time>2016-03-14T13:54:52Z</time>
      </trkpt>
      <trkpt lat="48.30667" lon="-2.91845">
        <ele>160</ele>
        <time>2016-03-14T13:54:54Z</time>
      </trkpt>
      <trkpt lat="48.30666" lon="-2.91847">
        <ele>160</ele>
        <time>2016-03-14T13:54:55Z</time>
      </trkpt>
      <trkpt lat="48.30666" lon="-2.91848">
        <ele>160</ele>
        <time>2016-03-14T13:54:56Z</time>
      </trkpt>
      <trkpt lat="48.30666" lon="-2.91851">
        <ele>160</ele>
        <time>2016-03-14T13:54:58Z</time>
      </trkpt>
      <trkpt lat="48.30666" lon="-2.91853">
        <ele>160</ele>
        <time>2016-03-14T13:54:59Z</time>
      </trkpt>
      <trkpt lat="48.30666" lon="-2.91856">
        <ele>160</ele>
        <time>2016-03-14T13:55:01Z</time>
      </trkpt>
      <trkpt lat="48.30666" lon="-2.91858">
        <ele>160</ele>
        <time>2016-03-14T13:55:02Z</time>
      </trkpt>
      <trkpt lat="48.30665" lon="-2.9186">
        <ele>160</ele>
        <time>2016-03-14T13:55:03Z</time>
      </trkpt>
      <trkpt lat="48.30665" lon="-2.91862">
        <ele>160</ele>
        <time>2016-03-14T13:55:04Z</time>
      </trkpt>
      <trkpt lat="48.30665" lon="-2.91864">
        <ele>160</ele>
        <time>2016-03-14T13:55:06Z</time>
      </trkpt>
      <trkpt lat="48.30664" lon="-2.91867">
        <ele>160</ele>
        <time>2016-03-14T13:55:08Z</time>
      </trkpt>
      <trkpt lat="48.30664" lon="-2.91869">
        <ele>160</ele>
        <time>2016-03-14T13:55:09Z</time>
      </trkpt>
      <trkpt lat="48.30663" lon="-2.91872">
        <ele>160</ele>
        <time>2016-03-14T13:55:11Z</time>
      </trkpt>
      <trkpt lat="48.30662" lon="-2.91875">
        <ele>160</ele>
        <time>2016-03-14T13:55:13Z</time>
      </trkpt>
      <trkpt lat="48.30661" lon="-2.91878">
        <ele>160</ele>
        <time>2016-03-14T13:55:15Z</time>
      </trkpt>
      <trkpt lat="48.30661" lon="-2.91881">
        <ele>160</ele>
        <time>2016-03-14T13:55:17Z</time>
      </trkpt>
      <trkpt lat="48.3066" lon="-2.91883">
        <ele>160</ele>
        <time>2016-03-14T13:55:19Z</time>
      </trkpt>
      <trkpt lat="48.30659" lon="-2.91886">
        <ele>160</ele>
        <time>2016-03-14T13:55:21Z</time>
      </trkpt>
      <trkpt lat="48.30659" lon="-2.91888">
        <ele>160</ele>
        <time>2016-03-14T13:55:22Z</time>
      </trkpt>
      <trkpt lat="48.30658" lon="-2.91891">
        <ele>160</ele>
        <time>2016-03-14T13:55:24Z</time>
      </trkpt>
      <trkpt lat="48.30658" lon="-2.91893">
        <ele>160</ele>
        <time>2016-03-14T13:55:26Z</time>
      </trkpt>
      <trkpt lat="48.30658" lon="-2.91896">
        <ele>160</ele>
        <time>2016-03-14T13:55:28Z</time>
      </trkpt>
      <trkpt lat="48.30657" lon="-2.91898">
        <ele>160</ele>
        <time>2016-03-14T13:55:30Z</time>
      </trkpt>
      <trkpt lat="48.30656" lon="-2.919">
        <ele>160</ele>
        <time>2016-03-14T13:55:32Z</time>
      </trkpt>
      <trkpt lat="48.30654" lon="-2.91903">
        <ele>160</ele>
        <time>2016-03-14T13:55:34Z</time>
      </trkpt>
      <trkpt lat="48.30653" lon="-2.91905">
        <ele>160</ele>
        <time>2016-03-14T13:55:36Z</time>
      </trkpt>
      <trkpt lat="48.30651" lon="-2.91907">
        <ele>160</ele>
        <time>2016-03-14T13:55:38Z</time>
      </trkpt>
      <trkpt lat="48.3065" lon="-2.91909">
        <ele>160</ele>
        <time>2016-03-14T13:55:40Z</time>
      </trkpt>
      <trkpt lat="48.30649" lon="-2.91911">
        <ele>161</ele>
        <time>2016-03-14T13:55:42Z</time>
      </trkpt>
      <trkpt lat="48.30648" lon="-2.91913">
        <ele>161</ele>
        <time>2016-03-14T13:55:44Z</time>
      </trkpt>
      <trkpt lat="48.30648" lon="-2.91915">
        <ele>161</ele>
        <time>2016-03-14T13:55:46Z</time>
      </trkpt>
      <trkpt lat="48.30646" lon="-2.91918">
        <ele>162</ele>
        <time>2016-03-14T13:55:48Z</time>
      </trkpt>
      <trkpt lat="48.30645" lon="-2.91919">
        <ele>162</ele>
        <time>2016-03-14T13:55:49Z</time>
      </trkpt>
      <trkpt lat="48.30644" lon="-2.9192">
        <ele>163</ele>
        <time>2016-03-14T13:55:51Z</time>
      </trkpt>
      <trkpt lat="48.30642" lon="-2.91921">
        <ele>163</ele>
        <time>2016-03-14T13:55:53Z</time>
      </trkpt>
      <trkpt lat="48.3064" lon="-2.91923">
        <ele>163</ele>
        <time>2016-03-14T13:55:55Z</time>
      </trkpt>
      <trkpt lat="48.30639" lon="-2.91924">
        <ele>163</ele>
        <time>2016-03-14T13:55:56Z</time>
      </trkpt>
      <trkpt lat="48.30638" lon="-2.91925">
        <ele>163</ele>
        <time>2016-03-14T13:55:58Z</time>
      </trkpt>
      <trkpt lat="48.30636" lon="-2.91926">
        <ele>164</ele>
        <time>2016-03-14T13:56:00Z</time>
      </trkpt>
      <trkpt lat="48.30634" lon="-2.91927">
        <ele>164</ele>
        <time>2016-03-14T13:56:03Z</time>
      </trkpt>
      <trkpt lat="48.30633" lon="-2.91928">
        <ele>164</ele>
        <time>2016-03-14T13:56:04Z</time>
      </trkpt>
      <trkpt lat="48.30632" lon="-2.91929">
        <ele>164</ele>
        <time>2016-03-14T13:56:05Z</time>
      </trkpt>
      <trkpt lat="48.3063" lon="-2.91928">
        <ele>165</ele>
        <time>2016-03-14T13:56:07Z</time>
      </trkpt>
      <trkpt lat="48.30627" lon="-2.91928">
        <ele>166</ele>
        <time>2016-03-14T13:56:09Z</time>
      </trkpt>
      <trkpt lat="48.30626" lon="-2.91928">
        <ele>166</ele>
        <time>2016-03-14T13:56:10Z</time>
      </trkpt>
      <trkpt lat="48.30624" lon="-2.91929">
        <ele>167</ele>
        <time>2016-03-14T13:56:12Z</time>
      </trkpt>
      <trkpt lat="48.30623" lon="-2.9193">
        <ele>168</ele>
        <time>2016-03-14T13:56:14Z</time>
      </trkpt>
      <trkpt lat="48.30621" lon="-2.9193">
        <ele>168</ele>
        <time>2016-03-14T13:56:15Z</time>
      </trkpt>
      <trkpt lat="48.3062" lon="-2.91931">
        <ele>168</ele>
        <time>2016-03-14T13:56:16Z</time>
      </trkpt>
      <trkpt lat="48.30619" lon="-2.91931">
        <ele>168</ele>
        <time>2016-03-14T13:56:17Z</time>
      </trkpt>
      <trkpt lat="48.30618" lon="-2.91931">
        <ele>168</ele>
        <time>2016-03-14T13:56:18Z</time>
      </trkpt>
      <trkpt lat="48.30616" lon="-2.91931">
        <ele>168</ele>
        <time>2016-03-14T13:56:19Z</time>
      </trkpt>
      <trkpt lat="48.30614" lon="-2.9193">
        <ele>168</ele>
        <time>2016-03-14T13:56:21Z</time>
      </trkpt>
      <trkpt lat="48.30613" lon="-2.9193">
        <ele>168</ele>
        <time>2016-03-14T13:56:22Z</time>
      </trkpt>
      <trkpt lat="48.30612" lon="-2.9193">
        <ele>168</ele>
        <time>2016-03-14T13:56:23Z</time>
      </trkpt>
      <trkpt lat="48.30611" lon="-2.9193">
        <ele>168</ele>
        <time>2016-03-14T13:56:24Z</time>
      </trkpt>
      <trkpt lat="48.3061" lon="-2.91931">
        <ele>168</ele>
        <time>2016-03-14T13:56:25Z</time>
      </trkpt>
      <trkpt lat="48.30608" lon="-2.91932">
        <ele>168</ele>
        <time>2016-03-14T13:56:26Z</time>
      </trkpt>
      <trkpt lat="48.30607" lon="-2.91933">
        <ele>168</ele>
        <time>2016-03-14T13:56:27Z</time>
      </trkpt>
      <trkpt lat="48.30605" lon="-2.91934">
        <ele>168</ele>
        <time>2016-03-14T13:56:29Z</time>
      </trkpt>
      <trkpt lat="48.30604" lon="-2.91935">
        <ele>168</ele>
        <time>2016-03-14T13:56:31Z</time>
      </trkpt>
      <trkpt lat="48.30603" lon="-2.91938">
        <ele>168</ele>
        <time>2016-03-14T13:56:34Z</time>
      </trkpt>
      <trkpt lat="48.30601" lon="-2.91939">
        <ele>168</ele>
        <time>2016-03-14T13:56:36Z</time>
      </trkpt>
      <trkpt lat="48.306" lon="-2.9194">
        <ele>168</ele>
        <time>2016-03-14T13:56:39Z</time>
      </trkpt>
      <trkpt lat="48.30599" lon="-2.91942">
        <ele>168</ele>
        <time>2016-03-14T13:56:42Z</time>
      </trkpt>
      <trkpt lat="48.30598" lon="-2.91944">
        <ele>168</ele>
        <time>2016-03-14T13:56:44Z</time>
      </trkpt>
      <trkpt lat="48.30599" lon="-2.91946">
        <ele>168</ele>
        <time>2016-03-14T13:56:48Z</time>
      </trkpt>
      <trkpt lat="48.306" lon="-2.91947">
        <ele>168</ele>
        <time>2016-03-14T13:56:53Z</time>
      </trkpt>
      <trkpt lat="48.306" lon="-2.91945">
        <ele>168</ele>
        <time>2016-03-14T13:57:05Z</time>
      </trkpt>
      <trkpt lat="48.30599" lon="-2.91948">
        <ele>168</ele>
        <time>2016-03-14T13:57:18Z</time>
      </trkpt>
      <trkpt lat="48.306" lon="-2.9195">
        <ele>168</ele>
        <time>2016-03-14T13:57:42Z</time>
      </trkpt>
      <trkpt lat="48.306" lon="-2.91951">
        <ele>168</ele>
        <time>2016-03-14T13:57:46Z</time>
      </trkpt>
      <trkpt lat="48.30602" lon="-2.91951">
        <ele>170</ele>
        <time>2016-03-14T13:57:50Z</time>
      </trkpt>
      <trkpt lat="48.306" lon="-2.91952">
        <ele>171</ele>
        <time>2016-03-14T13:58:07Z</time>
      </trkpt>
      <trkpt lat="48.30599" lon="-2.91954">
        <ele>171</ele>
        <time>2016-03-14T13:58:10Z</time>
      </trkpt>
      <trkpt lat="48.30598" lon="-2.91955">
        <ele>171</ele>
        <time>2016-03-14T13:58:12Z</time>
      </trkpt>
      <trkpt lat="48.30596" lon="-2.91957">
        <ele>171</ele>
        <time>2016-03-14T13:58:15Z</time>
      </trkpt>
      <trkpt lat="48.30596" lon="-2.91959">
        <ele>171</ele>
        <time>2016-03-14T13:58:18Z</time>
      </trkpt>
      <trkpt lat="48.30597" lon="-2.91962">
        <ele>171</ele>
        <time>2016-03-14T13:58:21Z</time>
      </trkpt>
      <trkpt lat="48.30599" lon="-2.91963">
        <ele>171</ele>
        <time>2016-03-14T13:58:23Z</time>
      </trkpt>
      <trkpt lat="48.306" lon="-2.91966">
        <ele>171</ele>
        <time>2016-03-14T13:58:25Z</time>
      </trkpt>
      <trkpt lat="48.306" lon="-2.91968">
        <ele>171</ele>
        <time>2016-03-14T13:58:27Z</time>
      </trkpt>
      <trkpt lat="48.306" lon="-2.9197">
        <ele>171</ele>
        <time>2016-03-14T13:58:29Z</time>
      </trkpt>
      <trkpt lat="48.306" lon="-2.91972">
        <ele>171</ele>
        <time>2016-03-14T13:58:30Z</time>
      </trkpt>
      <trkpt lat="48.306" lon="-2.91974">
        <ele>171</ele>
        <time>2016-03-14T13:58:32Z</time>
      </trkpt>
      <trkpt lat="48.30599" lon="-2.91977">
        <ele>171</ele>
        <time>2016-03-14T13:58:34Z</time>
      </trkpt>
      <trkpt lat="48.30598" lon="-2.91979">
        <ele>171</ele>
        <time>2016-03-14T13:58:36Z</time>
      </trkpt>
      <trkpt lat="48.30597" lon="-2.91981">
        <ele>171</ele>
        <time>2016-03-14T13:58:38Z</time>
      </trkpt>
      <trkpt lat="48.30597" lon="-2.91984">
        <ele>171</ele>
        <time>2016-03-14T13:58:40Z</time>
      </trkpt>
      <trkpt lat="48.30597" lon="-2.91985">
        <ele>171</ele>
        <time>2016-03-14T13:58:42Z</time>
      </trkpt>
      <trkpt lat="48.30597" lon="-2.91988">
        <ele>171</ele>
        <time>2016-03-14T13:58:45Z</time>
      </trkpt>
      <trkpt lat="48.30597" lon="-2.9199">
        <ele>171</ele>
        <time>2016-03-14T13:58:47Z</time>
      </trkpt>
      <trkpt lat="48.30597" lon="-2.91992">
        <ele>171</ele>
        <time>2016-03-14T13:58:49Z</time>
      </trkpt>
      <trkpt lat="48.30596" lon="-2.91995">
        <ele>171</ele>
        <time>2016-03-14T13:58:51Z</time>
      </trkpt>
      <trkpt lat="48.30596" lon="-2.91997">
        <ele>171</ele>
        <time>2016-03-14T13:58:53Z</time>
      </trkpt>
      <trkpt lat="48.30595" lon="-2.91999">
        <ele>171</ele>
        <time>2016-03-14T13:58:55Z</time>
      </trkpt>
      <trkpt lat="48.30595" lon="-2.92001">
        <ele>171</ele>
        <time>2016-03-14T13:58:57Z</time>
      </trkpt>
      <trkpt lat="48.30595" lon="-2.92003">
        <ele>171</ele>
        <time>2016-03-14T13:58:59Z</time>
      </trkpt>
      <trkpt lat="48.30594" lon="-2.92006">
        <ele>171</ele>
        <time>2016-03-14T13:59:01Z</time>
      </trkpt>
      <trkpt lat="48.30592" lon="-2.92009">
        <ele>171</ele>
        <time>2016-03-14T13:59:03Z</time>
      </trkpt>
      <trkpt lat="48.30592" lon="-2.92011">
        <ele>171</ele>
        <time>2016-03-14T13:59:05Z</time>
      </trkpt>
      <trkpt lat="48.30592" lon="-2.92013">
        <ele>171</ele>
        <time>2016-03-14T13:59:08Z</time>
      </trkpt>
      <trkpt lat="48.30592" lon="-2.92016">
        <ele>170</ele>
        <time>2016-03-14T13:59:12Z</time>
      </trkpt>
      <trkpt lat="48.30592" lon="-2.92018">
        <ele>170</ele>
        <time>2016-03-14T13:59:14Z</time>
      </trkpt>
      <trkpt lat="48.30592" lon="-2.9202">
        <ele>169</ele>
        <time>2016-03-14T13:59:16Z</time>
      </trkpt>
      <trkpt lat="48.30592" lon="-2.92023">
        <ele>168</ele>
        <time>2016-03-14T13:59:18Z</time>
      </trkpt>
      <trkpt lat="48.30592" lon="-2.92026">
        <ele>167</ele>
        <time>2016-03-14T13:59:20Z</time>
      </trkpt>
      <trkpt lat="48.30592" lon="-2.92028">
        <ele>167</ele>
        <time>2016-03-14T13:59:22Z</time>
      </trkpt>
      <trkpt lat="48.30592" lon="-2.92032">
        <ele>167</ele>
        <time>2016-03-14T13:59:24Z</time>
      </trkpt>
      <trkpt lat="48.30592" lon="-2.92033">
        <ele>167</ele>
        <time>2016-03-14T13:59:25Z</time>
      </trkpt>
      <trkpt lat="48.30592" lon="-2.92037">
        <ele>166</ele>
        <time>2016-03-14T13:59:27Z</time>
      </trkpt>
      <trkpt lat="48.30592" lon="-2.92039">
        <ele>166</ele>
        <time>2016-03-14T13:59:29Z</time>
      </trkpt>
      <trkpt lat="48.30591" lon="-2.92043">
        <ele>166</ele>
        <time>2016-03-14T13:59:31Z</time>
      </trkpt>
      <trkpt lat="48.30591" lon="-2.92045">
        <ele>166</ele>
        <time>2016-03-14T13:59:33Z</time>
      </trkpt>
      <trkpt lat="48.30591" lon="-2.92047">
        <ele>166</ele>
        <time>2016-03-14T13:59:34Z</time>
      </trkpt>
      <trkpt lat="48.3059" lon="-2.9205">
        <ele>166</ele>
        <time>2016-03-14T13:59:36Z</time>
      </trkpt>
      <trkpt lat="48.3059" lon="-2.92053">
        <ele>166</ele>
        <time>2016-03-14T13:59:38Z</time>
      </trkpt>
      <trkpt lat="48.3059" lon="-2.92055">
        <ele>166</ele>
        <time>2016-03-14T13:59:39Z</time>
      </trkpt>
      <trkpt lat="48.3059" lon="-2.92057">
        <ele>166</ele>
        <time>2016-03-14T13:59:41Z</time>
      </trkpt>
      <trkpt lat="48.3059" lon="-2.9206">
        <ele>166</ele>
        <time>2016-03-14T13:59:43Z</time>
      </trkpt>
      <trkpt lat="48.3059" lon="-2.92063">
        <ele>166</ele>
        <time>2016-03-14T13:59:45Z</time>
      </trkpt>
      <trkpt lat="48.30589" lon="-2.92066">
        <ele>166</ele>
        <time>2016-03-14T13:59:47Z</time>
      </trkpt>
      <trkpt lat="48.30588" lon="-2.92069">
        <ele>166</ele>
        <time>2016-03-14T13:59:49Z</time>
      </trkpt>
      <trkpt lat="48.30587" lon="-2.92072">
        <ele>166</ele>
        <time>2016-03-14T13:59:51Z</time>
      </trkpt>
      <trkpt lat="48.30587" lon="-2.92074">
        <ele>166</ele>
        <time>2016-03-14T13:59:53Z</time>
      </trkpt>
      <trkpt lat="48.30586" lon="-2.92077">
        <ele>166</ele>
        <time>2016-03-14T13:59:55Z</time>
      </trkpt>
      <trkpt lat="48.30585" lon="-2.92079">
        <ele>166</ele>
        <time>2016-03-14T13:59:57Z</time>
      </trkpt>
      <trkpt lat="48.30584" lon="-2.92082">
        <ele>166</ele>
        <time>2016-03-14T13:59:59Z</time>
      </trkpt>
      <trkpt lat="48.30583" lon="-2.92085">
        <ele>166</ele>
        <time>2016-03-14T14:00:01Z</time>
      </trkpt>
      <trkpt lat="48.30582" lon="-2.92087">
        <ele>166</ele>
        <time>2016-03-14T14:00:03Z</time>
      </trkpt>
      <trkpt lat="48.30582" lon="-2.92089">
        <ele>166</ele>
        <time>2016-03-14T14:00:05Z</time>
      </trkpt>
      <trkpt lat="48.30581" lon="-2.92091">
        <ele>166</ele>
        <time>2016-03-14T14:00:07Z</time>
      </trkpt>
      <trkpt lat="48.30581" lon="-2.92094">
        <ele>166</ele>
        <time>2016-03-14T14:00:09Z</time>
      </trkpt>
      <trkpt lat="48.3058" lon="-2.92096">
        <ele>166</ele>
        <time>2016-03-14T14:00:11Z</time>
      </trkpt>
      <trkpt lat="48.30579" lon="-2.92099">
        <ele>166</ele>
        <time>2016-03-14T14:00:13Z</time>
      </trkpt>
      <trkpt lat="48.30579" lon="-2.92101">
        <ele>166</ele>
        <time>2016-03-14T14:00:15Z</time>
      </trkpt>
      <trkpt lat="48.30578" lon="-2.92104">
        <ele>166</ele>
        <time>2016-03-14T14:00:17Z</time>
      </trkpt>
      <trkpt lat="48.30576" lon="-2.92106">
        <ele>166</ele>
        <time>2016-03-14T14:00:19Z</time>
      </trkpt>
      <trkpt lat="48.30576" lon="-2.92109">
        <ele>166</ele>
        <time>2016-03-14T14:00:21Z</time>
      </trkpt>
      <trkpt lat="48.30575" lon="-2.92111">
        <ele>166</ele>
        <time>2016-03-14T14:00:23Z</time>
      </trkpt>
      <trkpt lat="48.30574" lon="-2.92113">
        <ele>166</ele>
        <time>2016-03-14T14:00:25Z</time>
      </trkpt>
      <trkpt lat="48.30573" lon="-2.92115">
        <ele>166</ele>
        <time>2016-03-14T14:00:27Z</time>
      </trkpt>
      <trkpt lat="48.30572" lon="-2.92118">
        <ele>166</ele>
        <time>2016-03-14T14:00:29Z</time>
      </trkpt>
      <trkpt lat="48.30571" lon="-2.9212">
        <ele>166</ele>
        <time>2016-03-14T14:00:31Z</time>
      </trkpt>
      <trkpt lat="48.3057" lon="-2.92122">
        <ele>166</ele>
        <time>2016-03-14T14:00:33Z</time>
      </trkpt>
      <trkpt lat="48.30569" lon="-2.92125">
        <ele>166</ele>
        <time>2016-03-14T14:00:35Z</time>
      </trkpt>
      <trkpt lat="48.30568" lon="-2.92127">
        <ele>167</ele>
        <time>2016-03-14T14:00:37Z</time>
      </trkpt>
      <trkpt lat="48.30567" lon="-2.92129">
        <ele>167</ele>
        <time>2016-03-14T14:00:39Z</time>
      </trkpt>
      <trkpt lat="48.30566" lon="-2.92131">
        <ele>167</ele>
        <time>2016-03-14T14:00:41Z</time>
      </trkpt>
      <trkpt lat="48.30565" lon="-2.92133">
        <ele>167</ele>
        <time>2016-03-14T14:00:43Z</time>
      </trkpt>
      <trkpt lat="48.30564" lon="-2.92135">
        <ele>167</ele>
        <time>2016-03-14T14:00:45Z</time>
      </trkpt>
      <trkpt lat="48.30563" lon="-2.92138">
        <ele>167</ele>
        <time>2016-03-14T14:00:47Z</time>
      </trkpt>
      <trkpt lat="48.30562" lon="-2.9214">
        <ele>167</ele>
        <time>2016-03-14T14:00:49Z</time>
      </trkpt>
      <trkpt lat="48.30562" lon="-2.92142">
        <ele>167</ele>
        <time>2016-03-14T14:00:51Z</time>
      </trkpt>
      <trkpt lat="48.30561" lon="-2.92144">
        <ele>167</ele>
        <time>2016-03-14T14:00:53Z</time>
      </trkpt>
      <trkpt lat="48.30561" lon="-2.92147">
        <ele>167</ele>
        <time>2016-03-14T14:00:55Z</time>
      </trkpt>
      <trkpt lat="48.30561" lon="-2.92149">
        <ele>168</ele>
        <time>2016-03-14T14:00:57Z</time>
      </trkpt>
      <trkpt lat="48.30562" lon="-2.92151">
        <ele>168</ele>
        <time>2016-03-14T14:01:00Z</time>
      </trkpt>
      <trkpt lat="48.30561" lon="-2.92154">
        <ele>168</ele>
        <time>2016-03-14T14:01:03Z</time>
      </trkpt>
      <trkpt lat="48.30561" lon="-2.92156">
        <ele>168</ele>
        <time>2016-03-14T14:01:05Z</time>
      </trkpt>
      <trkpt lat="48.30561" lon="-2.92158">
        <ele>169</ele>
        <time>2016-03-14T14:01:07Z</time>
      </trkpt>
      <trkpt lat="48.30561" lon="-2.9216">
        <ele>169</ele>
        <time>2016-03-14T14:01:09Z</time>
      </trkpt>
      <trkpt lat="48.30561" lon="-2.92162">
        <ele>169</ele>
        <time>2016-03-14T14:01:11Z</time>
      </trkpt>
      <trkpt lat="48.30562" lon="-2.92164">
        <ele>170</ele>
        <time>2016-03-14T14:01:13Z</time>
      </trkpt>
      <trkpt lat="48.30562" lon="-2.92167">
        <ele>170</ele>
        <time>2016-03-14T14:01:15Z</time>
      </trkpt>
      <trkpt lat="48.30563" lon="-2.92169">
        <ele>170</ele>
        <time>2016-03-14T14:01:17Z</time>
      </trkpt>
      <trkpt lat="48.30564" lon="-2.92171">
        <ele>170</ele>
        <time>2016-03-14T14:01:19Z</time>
      </trkpt>
      <trkpt lat="48.30564" lon="-2.92173">
        <ele>170</ele>
        <time>2016-03-14T14:01:22Z</time>
      </trkpt>
      <trkpt lat="48.30564" lon="-2.92175">
        <ele>170</ele>
        <time>2016-03-14T14:01:24Z</time>
      </trkpt>
      <trkpt lat="48.30565" lon="-2.92177">
        <ele>170</ele>
        <time>2016-03-14T14:01:26Z</time>
      </trkpt>
      <trkpt lat="48.30565" lon="-2.9218">
        <ele>170</ele>
        <time>2016-03-14T14:01:28Z</time>
      </trkpt>
      <trkpt lat="48.30564" lon="-2.92183">
        <ele>170</ele>
        <time>2016-03-14T14:01:30Z</time>
      </trkpt>
      <trkpt lat="48.30564" lon="-2.92185">
        <ele>170</ele>
        <time>2016-03-14T14:01:32Z</time>
      </trkpt>
      <trkpt lat="48.30564" lon="-2.92188">
        <ele>170</ele>
        <time>2016-03-14T14:01:34Z</time>
      </trkpt>
      <trkpt lat="48.30563" lon="-2.92191">
        <ele>170</ele>
        <time>2016-03-14T14:01:36Z</time>
      </trkpt>
      <trkpt lat="48.30561" lon="-2.92194">
        <ele>170</ele>
        <time>2016-03-14T14:01:38Z</time>
      </trkpt>
      <trkpt lat="48.30561" lon="-2.92195">
        <ele>170</ele>
        <time>2016-03-14T14:01:40Z</time>
      </trkpt>
      <trkpt lat="48.3056" lon="-2.92198">
        <ele>170</ele>
        <time>2016-03-14T14:01:42Z</time>
      </trkpt>
      <trkpt lat="48.30559" lon="-2.922">
        <ele>170</ele>
        <time>2016-03-14T14:01:44Z</time>
      </trkpt>
      <trkpt lat="48.30558" lon="-2.92202">
        <ele>170</ele>
        <time>2016-03-14T14:01:45Z</time>
      </trkpt>
      <trkpt lat="48.30558" lon="-2.92204">
        <ele>170</ele>
        <time>2016-03-14T14:01:47Z</time>
      </trkpt>
      <trkpt lat="48.30557" lon="-2.92208">
        <ele>170</ele>
        <time>2016-03-14T14:01:49Z</time>
      </trkpt>
      <trkpt lat="48.30556" lon="-2.9221">
        <ele>170</ele>
        <time>2016-03-14T14:01:50Z</time>
      </trkpt>
      <trkpt lat="48.30555" lon="-2.92212">
        <ele>170</ele>
        <time>2016-03-14T14:01:51Z</time>
      </trkpt>
      <trkpt lat="48.30554" lon="-2.92214">
        <ele>170</ele>
        <time>2016-03-14T14:01:52Z</time>
      </trkpt>
      <trkpt lat="48.30553" lon="-2.92217">
        <ele>170</ele>
        <time>2016-03-14T14:01:54Z</time>
      </trkpt>
      <trkpt lat="48.30553" lon="-2.92219">
        <ele>169</ele>
        <time>2016-03-14T14:01:56Z</time>
      </trkpt>
      <trkpt lat="48.30554" lon="-2.92221">
        <ele>169</ele>
        <time>2016-03-14T14:01:58Z</time>
      </trkpt>
      <trkpt lat="48.30554" lon="-2.92223">
        <ele>169</ele>
        <time>2016-03-14T14:02:00Z</time>
      </trkpt>
      <trkpt lat="48.30555" lon="-2.92225">
        <ele>169</ele>
        <time>2016-03-14T14:02:02Z</time>
      </trkpt>
      <trkpt lat="48.30555" lon="-2.92227">
        <ele>169</ele>
        <time>2016-03-14T14:02:03Z</time>
      </trkpt>
      <trkpt lat="48.30556" lon="-2.92229">
        <ele>169</ele>
        <time>2016-03-14T14:02:05Z</time>
      </trkpt>
      <trkpt lat="48.30557" lon="-2.9223">
        <ele>169</ele>
        <time>2016-03-14T14:02:07Z</time>
      </trkpt>
      <trkpt lat="48.30557" lon="-2.92232">
        <ele>168</ele>
        <time>2016-03-14T14:02:09Z</time>
      </trkpt>
      <trkpt lat="48.30559" lon="-2.92233">
        <ele>168</ele>
        <time>2016-03-14T14:02:11Z</time>
      </trkpt>
      <trkpt lat="48.30561" lon="-2.92234">
        <ele>168</ele>
        <time>2016-03-14T14:02:13Z</time>
      </trkpt>
      <trkpt lat="48.30562" lon="-2.92236">
        <ele>168</ele>
        <time>2016-03-14T14:02:15Z</time>
      </trkpt>
      <trkpt lat="48.30563" lon="-2.92237">
        <ele>168</ele>
        <time>2016-03-14T14:02:17Z</time>
      </trkpt>
      <trkpt lat="48.30564" lon="-2.9224">
        <ele>168</ele>
        <time>2016-03-14T14:02:19Z</time>
      </trkpt>
      <trkpt lat="48.30564" lon="-2.92242">
        <ele>168</ele>
        <time>2016-03-14T14:02:20Z</time>
      </trkpt>
      <trkpt lat="48.30564" lon="-2.92244">
        <ele>168</ele>
        <time>2016-03-14T14:02:21Z</time>
      </trkpt>
      <trkpt lat="48.30564" lon="-2.92247">
        <ele>168</ele>
        <time>2016-03-14T14:02:23Z</time>
      </trkpt>
      <trkpt lat="48.30564" lon="-2.92249">
        <ele>168</ele>
        <time>2016-03-14T14:02:25Z</time>
      </trkpt>
      <trkpt lat="48.30566" lon="-2.9225">
        <ele>168</ele>
        <time>2016-03-14T14:02:27Z</time>
      </trkpt>
      <trkpt lat="48.30567" lon="-2.92253">
        <ele>168</ele>
        <time>2016-03-14T14:02:29Z</time>
      </trkpt>
      <trkpt lat="48.30567" lon="-2.92255">
        <ele>168</ele>
        <time>2016-03-14T14:02:31Z</time>
      </trkpt>
      <trkpt lat="48.30567" lon="-2.92257">
        <ele>168</ele>
        <time>2016-03-14T14:02:33Z</time>
      </trkpt>
      <trkpt lat="48.30567" lon="-2.92259">
        <ele>168</ele>
        <time>2016-03-14T14:02:34Z</time>
      </trkpt>
      <trkpt lat="48.30567" lon="-2.92262">
        <ele>168</ele>
        <time>2016-03-14T14:02:36Z</time>
      </trkpt>
      <trkpt lat="48.30568" lon="-2.92265">
        <ele>168</ele>
        <time>2016-03-14T14:02:38Z</time>
      </trkpt>
      <trkpt lat="48.30568" lon="-2.92267">
        <ele>168</ele>
        <time>2016-03-14T14:02:39Z</time>
      </trkpt>
      <trkpt lat="48.30568" lon="-2.92269">
        <ele>168</ele>
        <time>2016-03-14T14:02:41Z</time>
      </trkpt>
      <trkpt lat="48.30569" lon="-2.92272">
        <ele>168</ele>
        <time>2016-03-14T14:02:43Z</time>
      </trkpt>
      <trkpt lat="48.3057" lon="-2.92275">
        <ele>168</ele>
        <time>2016-03-14T14:02:45Z</time>
      </trkpt>
      <trkpt lat="48.3057" lon="-2.92277">
        <ele>168</ele>
        <time>2016-03-14T14:02:46Z</time>
      </trkpt>
      <trkpt lat="48.30571" lon="-2.92279">
        <ele>168</ele>
        <time>2016-03-14T14:02:48Z</time>
      </trkpt>
      <trkpt lat="48.30572" lon="-2.92282">
        <ele>167</ele>
        <time>2016-03-14T14:02:50Z</time>
      </trkpt>
      <trkpt lat="48.30573" lon="-2.92284">
        <ele>167</ele>
        <time>2016-03-14T14:02:52Z</time>
      </trkpt>
      <trkpt lat="48.30574" lon="-2.92287">
        <ele>166</ele>
        <time>2016-03-14T14:02:54Z</time>
      </trkpt>
      <trkpt lat="48.30574" lon="-2.92289">
        <ele>166</ele>
        <time>2016-03-14T14:02:56Z</time>
      </trkpt>
      <trkpt lat="48.30575" lon="-2.92291">
        <ele>166</ele>
        <time>2016-03-14T14:02:58Z</time>
      </trkpt>
      <trkpt lat="48.30575" lon="-2.92294">
        <ele>166</ele>
        <time>2016-03-14T14:02:59Z</time>
      </trkpt>
      <trkpt lat="48.30576" lon="-2.92297">
        <ele>166</ele>
        <time>2016-03-14T14:03:01Z</time>
      </trkpt>
      <trkpt lat="48.30576" lon="-2.923">
        <ele>166</ele>
        <time>2016-03-14T14:03:04Z</time>
      </trkpt>
      <trkpt lat="48.30576" lon="-2.92302">
        <ele>166</ele>
        <time>2016-03-14T14:03:05Z</time>
      </trkpt>
      <trkpt lat="48.30576" lon="-2.92305">
        <ele>166</ele>
        <time>2016-03-14T14:03:07Z</time>
      </trkpt>
      <trkpt lat="48.30576" lon="-2.92307">
        <ele>166</ele>
        <time>2016-03-14T14:03:10Z</time>
      </trkpt>
      <trkpt lat="48.30575" lon="-2.92309">
        <ele>166</ele>
        <time>2016-03-14T14:03:11Z</time>
      </trkpt>
      <trkpt lat="48.30574" lon="-2.92312">
        <ele>166</ele>
        <time>2016-03-14T14:03:13Z</time>
      </trkpt>
      <trkpt lat="48.30573" lon="-2.92315">
        <ele>166</ele>
        <time>2016-03-14T14:03:16Z</time>
      </trkpt>
      <trkpt lat="48.30572" lon="-2.92317">
        <ele>166</ele>
        <time>2016-03-14T14:03:16Z</time>
      </trkpt>
      <trkpt lat="48.30572" lon="-2.92319">
        <ele>166</ele>
        <time>2016-03-14T14:03:18Z</time>
      </trkpt>
      <trkpt lat="48.30571" lon="-2.92321">
        <ele>166</ele>
        <time>2016-03-14T14:03:22Z</time>
      </trkpt>
      <trkpt lat="48.3057" lon="-2.92323">
        <ele>166</ele>
        <time>2016-03-14T14:03:24Z</time>
      </trkpt>
      <trkpt lat="48.30568" lon="-2.92323">
        <ele>166</ele>
        <time>2016-03-14T14:03:29Z</time>
      </trkpt>
      <trkpt lat="48.30567" lon="-2.92323">
        <ele>166</ele>
        <time>2016-03-14T14:03:30Z</time>
      </trkpt>
      <trkpt lat="48.30566" lon="-2.92324">
        <ele>166</ele>
        <time>2016-03-14T14:03:34Z</time>
      </trkpt>
      <trkpt lat="48.30564" lon="-2.92325">
        <ele>166</ele>
        <time>2016-03-14T14:03:35Z</time>
      </trkpt>
      <trkpt lat="48.30563" lon="-2.92327">
        <ele>166</ele>
        <time>2016-03-14T14:03:37Z</time>
      </trkpt>
      <trkpt lat="48.30563" lon="-2.92329">
        <ele>166</ele>
        <time>2016-03-14T14:03:40Z</time>
      </trkpt>
      <trkpt lat="48.30561" lon="-2.92329">
        <ele>167</ele>
        <time>2016-03-14T14:03:42Z</time>
      </trkpt>
      <trkpt lat="48.3056" lon="-2.92329">
        <ele>168</ele>
        <time>2016-03-14T14:03:45Z</time>
      </trkpt>
      <trkpt lat="48.30558" lon="-2.92329">
        <ele>168</ele>
        <time>2016-03-14T14:03:47Z</time>
      </trkpt>
      <trkpt lat="48.30557" lon="-2.9233">
        <ele>169</ele>
        <time>2016-03-14T14:03:49Z</time>
      </trkpt>
      <trkpt lat="48.30555" lon="-2.9233">
        <ele>169</ele>
        <time>2016-03-14T14:03:52Z</time>
      </trkpt>
      <trkpt lat="48.30553" lon="-2.92331">
        <ele>170</ele>
        <time>2016-03-14T14:03:53Z</time>
      </trkpt>
      <trkpt lat="48.30551" lon="-2.92332">
        <ele>170</ele>
        <time>2016-03-14T14:03:55Z</time>
      </trkpt>
      <trkpt lat="48.30549" lon="-2.92333">
        <ele>170</ele>
        <time>2016-03-14T14:03:58Z</time>
      </trkpt>
      <trkpt lat="48.30548" lon="-2.92335">
        <ele>170</ele>
        <time>2016-03-14T14:03:59Z</time>
      </trkpt>
      <trkpt lat="48.30547" lon="-2.92337">
        <ele>170</ele>
        <time>2016-03-14T14:04:01Z</time>
      </trkpt>
      <trkpt lat="48.30547" lon="-2.92339">
        <ele>170</ele>
        <time>2016-03-14T14:04:04Z</time>
      </trkpt>
      <trkpt lat="48.30547" lon="-2.92341">
        <ele>170</ele>
        <time>2016-03-14T14:04:04Z</time>
      </trkpt>
      <trkpt lat="48.30547" lon="-2.92343">
        <ele>170</ele>
        <time>2016-03-14T14:04:06Z</time>
      </trkpt>
      <trkpt lat="48.30548" lon="-2.92346">
        <ele>170</ele>
        <time>2016-03-14T14:04:09Z</time>
      </trkpt>
      <trkpt lat="48.30548" lon="-2.92348">
        <ele>170</ele>
        <time>2016-03-14T14:04:10Z</time>
      </trkpt>
      <trkpt lat="48.30549" lon="-2.92351">
        <ele>170</ele>
        <time>2016-03-14T14:04:12Z</time>
      </trkpt>
      <trkpt lat="48.3055" lon="-2.92353">
        <ele>170</ele>
        <time>2016-03-14T14:04:15Z</time>
      </trkpt>
      <trkpt lat="48.3055" lon="-2.92355">
        <ele>170</ele>
        <time>2016-03-14T14:04:16Z</time>
      </trkpt>
      <trkpt lat="48.30551" lon="-2.92359">
        <ele>170</ele>
        <time>2016-03-14T14:04:18Z</time>
      </trkpt>
      <trkpt lat="48.30551" lon="-2.92361">
        <ele>170</ele>
        <time>2016-03-14T14:04:20Z</time>
      </trkpt>
      <trkpt lat="48.30551" lon="-2.92362">
        <ele>170</ele>
        <time>2016-03-14T14:04:20Z</time>
      </trkpt>
      <trkpt lat="48.30552" lon="-2.92365">
        <ele>170</ele>
        <time>2016-03-14T14:04:22Z</time>
      </trkpt>
      <trkpt lat="48.30553" lon="-2.92367">
        <ele>170</ele>
        <time>2016-03-14T14:04:25Z</time>
      </trkpt>
      <trkpt lat="48.30553" lon="-2.92369">
        <ele>170</ele>
        <time>2016-03-14T14:04:26Z</time>
      </trkpt>
      <trkpt lat="48.30553" lon="-2.92372">
        <ele>170</ele>
        <time>2016-03-14T14:04:28Z</time>
      </trkpt>
      <trkpt lat="48.30553" lon="-2.92374">
        <ele>170</ele>
        <time>2016-03-14T14:04:31Z</time>
      </trkpt>
      <trkpt lat="48.30554" lon="-2.92375">
        <ele>170</ele>
        <time>2016-03-14T14:04:32Z</time>
      </trkpt>
      <trkpt lat="48.30554" lon="-2.92377">
        <ele>170</ele>
        <time>2016-03-14T14:04:33Z</time>
      </trkpt>
      <trkpt lat="48.30555" lon="-2.92379">
        <ele>170</ele>
        <time>2016-03-14T14:04:36Z</time>
      </trkpt>
      <trkpt lat="48.30555" lon="-2.92382">
        <ele>170</ele>
        <time>2016-03-14T14:04:37Z</time>
      </trkpt>
      <trkpt lat="48.30555" lon="-2.92384">
        <ele>169</ele>
        <time>2016-03-14T14:04:38Z</time>
      </trkpt>
      <trkpt lat="48.30555" lon="-2.92386">
        <ele>169</ele>
        <time>2016-03-14T14:04:39Z</time>
      </trkpt>
      <trkpt lat="48.30555" lon="-2.92389">
        <ele>169</ele>
        <time>2016-03-14T14:04:42Z</time>
      </trkpt>
      <trkpt lat="48.30554" lon="-2.9239">
        <ele>169</ele>
        <time>2016-03-14T14:04:42Z</time>
      </trkpt>
      <trkpt lat="48.30554" lon="-2.92392">
        <ele>169</ele>
        <time>2016-03-14T14:04:43Z</time>
      </trkpt>
      <trkpt lat="48.30554" lon="-2.92394">
        <ele>169</ele>
        <time>2016-03-14T14:04:44Z</time>
      </trkpt>
      <trkpt lat="48.30553" lon="-2.92397">
        <ele>169</ele>
        <time>2016-03-14T14:04:47Z</time>
      </trkpt>
      <trkpt lat="48.30553" lon="-2.924">
        <ele>169</ele>
        <time>2016-03-14T14:04:48Z</time>
      </trkpt>
      <trkpt lat="48.30553" lon="-2.92401">
        <ele>169</ele>
        <time>2016-03-14T14:04:49Z</time>
      </trkpt>
      <trkpt lat="48.30553" lon="-2.92403">
        <ele>169</ele>
        <time>2016-03-14T14:04:50Z</time>
      </trkpt>
      <trkpt lat="48.30552" lon="-2.92406">
        <ele>169</ele>
        <time>2016-03-14T14:04:53Z</time>
      </trkpt>
      <trkpt lat="48.30551" lon="-2.92408">
        <ele>169</ele>
        <time>2016-03-14T14:04:54Z</time>
      </trkpt>
      <trkpt lat="48.30551" lon="-2.9241">
        <ele>169</ele>
        <time>2016-03-14T14:04:56Z</time>
      </trkpt>
      <trkpt lat="48.30551" lon="-2.92412">
        <ele>169</ele>
        <time>2016-03-14T14:04:58Z</time>
      </trkpt>
      <trkpt lat="48.30551" lon="-2.92415">
        <ele>169</ele>
        <time>2016-03-14T14:04:59Z</time>
      </trkpt>
      <trkpt lat="48.30552" lon="-2.92417">
        <ele>169</ele>
        <time>2016-03-14T14:05:01Z</time>
      </trkpt>
      <trkpt lat="48.30553" lon="-2.92419">
        <ele>169</ele>
        <time>2016-03-14T14:05:04Z</time>
      </trkpt>
      <trkpt lat="48.30553" lon="-2.92422">
        <ele>169</ele>
        <time>2016-03-14T14:05:05Z</time>
      </trkpt>
      <trkpt lat="48.30552" lon="-2.92425">
        <ele>169</ele>
        <time>2016-03-14T14:05:07Z</time>
      </trkpt>
      <trkpt lat="48.30552" lon="-2.92428">
        <ele>169</ele>
        <time>2016-03-14T14:05:09Z</time>
      </trkpt>
      <trkpt lat="48.30551" lon="-2.92431">
        <ele>169</ele>
        <time>2016-03-14T14:05:10Z</time>
      </trkpt>
      <trkpt lat="48.30552" lon="-2.92433">
        <ele>169</ele>
        <time>2016-03-14T14:05:11Z</time>
      </trkpt>
      <trkpt lat="48.30552" lon="-2.92436">
        <ele>169</ele>
        <time>2016-03-14T14:05:14Z</time>
      </trkpt>
      <trkpt lat="48.30553" lon="-2.92438">
        <ele>170</ele>
        <time>2016-03-14T14:05:15Z</time>
      </trkpt>
      <trkpt lat="48.30553" lon="-2.9244">
        <ele>170</ele>
        <time>2016-03-14T14:05:17Z</time>
      </trkpt>
      <trkpt lat="48.30555" lon="-2.92441">
        <ele>170</ele>
        <time>2016-03-14T14:05:19Z</time>
      </trkpt>
      <trkpt lat="48.30555" lon="-2.92442">
        <ele>170</ele>
        <time>2016-03-14T14:05:21Z</time>
      </trkpt>
      <trkpt lat="48.30555" lon="-2.92445">
        <ele>171</ele>
        <time>2016-03-14T14:05:23Z</time>
      </trkpt>
      <trkpt lat="48.30555" lon="-2.92447">
        <ele>171</ele>
        <time>2016-03-14T14:05:26Z</time>
      </trkpt>
      <trkpt lat="48.30555" lon="-2.9245">
        <ele>171</ele>
        <time>2016-03-14T14:05:27Z</time>
      </trkpt>
      <trkpt lat="48.30555" lon="-2.92453">
        <ele>171</ele>
        <time>2016-03-14T14:05:29Z</time>
      </trkpt>
      <trkpt lat="48.30555" lon="-2.92455">
        <ele>171</ele>
        <time>2016-03-14T14:05:32Z</time>
      </trkpt>
      <trkpt lat="48.30556" lon="-2.92458">
        <ele>171</ele>
        <time>2016-03-14T14:05:33Z</time>
      </trkpt>
      <trkpt lat="48.30556" lon="-2.9246">
        <ele>171</ele>
        <time>2016-03-14T14:05:35Z</time>
      </trkpt>
      <trkpt lat="48.30556" lon="-2.92462">
        <ele>171</ele>
        <time>2016-03-14T14:05:37Z</time>
      </trkpt>
      <trkpt lat="48.30556" lon="-2.92463">
        <ele>171</ele>
        <time>2016-03-14T14:05:37Z</time>
      </trkpt>
      <trkpt lat="48.30556" lon="-2.92465">
        <ele>171</ele>
        <time>2016-03-14T14:05:38Z</time>
      </trkpt>
      <trkpt lat="48.30557" lon="-2.92467">
        <ele>171</ele>
        <time>2016-03-14T14:05:40Z</time>
      </trkpt>
      <trkpt lat="48.30557" lon="-2.9247">
        <ele>171</ele>
        <time>2016-03-14T14:05:43Z</time>
      </trkpt>
      <trkpt lat="48.30558" lon="-2.92473">
        <ele>171</ele>
        <time>2016-03-14T14:05:44Z</time>
      </trkpt>
      <trkpt lat="48.30559" lon="-2.92476">
        <ele>171</ele>
        <time>2016-03-14T14:05:46Z</time>
      </trkpt>
      <trkpt lat="48.30559" lon="-2.92478">
        <ele>171</ele>
        <time>2016-03-14T14:05:49Z</time>
      </trkpt>
      <trkpt lat="48.30559" lon="-2.92481">
        <ele>171</ele>
        <time>2016-03-14T14:05:50Z</time>
      </trkpt>
      <trkpt lat="48.30561" lon="-2.92483">
        <ele>171</ele>
        <time>2016-03-14T14:05:52Z</time>
      </trkpt>
      <trkpt lat="48.30562" lon="-2.92485">
        <ele>171</ele>
        <time>2016-03-14T14:05:54Z</time>
      </trkpt>
      <trkpt lat="48.30564" lon="-2.92485">
        <ele>171</ele>
        <time>2016-03-14T14:05:55Z</time>
      </trkpt>
      <trkpt lat="48.30565" lon="-2.92486">
        <ele>171</ele>
        <time>2016-03-14T14:05:57Z</time>
      </trkpt>
      <trkpt lat="48.30566" lon="-2.92486">
        <ele>171</ele>
        <time>2016-03-14T14:05:59Z</time>
      </trkpt>
      <trkpt lat="48.30568" lon="-2.92485">
        <ele>171</ele>
        <time>2016-03-14T14:06:01Z</time>
      </trkpt>
      <trkpt lat="48.30569" lon="-2.92483">
        <ele>171</ele>
        <time>2016-03-14T14:06:04Z</time>
      </trkpt>
      <trkpt lat="48.30571" lon="-2.92481">
        <ele>171</ele>
        <time>2016-03-14T14:06:06Z</time>
      </trkpt>
      <trkpt lat="48.30573" lon="-2.92479">
        <ele>171</ele>
        <time>2016-03-14T14:06:08Z</time>
      </trkpt>
      <trkpt lat="48.30574" lon="-2.92477">
        <ele>171</ele>
        <time>2016-03-14T14:06:11Z</time>
      </trkpt>
      <trkpt lat="48.30576" lon="-2.92477">
        <ele>171</ele>
        <time>2016-03-14T14:06:13Z</time>
      </trkpt>
      <trkpt lat="48.30577" lon="-2.92477">
        <ele>171</ele>
        <time>2016-03-14T14:06:15Z</time>
      </trkpt>
      <trkpt lat="48.30578" lon="-2.92479">
        <ele>170</ele>
        <time>2016-03-14T14:06:18Z</time>
      </trkpt>
      <trkpt lat="48.30579" lon="-2.92481">
        <ele>169</ele>
        <time>2016-03-14T14:06:19Z</time>
      </trkpt>
      <trkpt lat="48.3058" lon="-2.92482">
        <ele>169</ele>
        <time>2016-03-14T14:06:21Z</time>
      </trkpt>
      <trkpt lat="48.30582" lon="-2.92482">
        <ele>168</ele>
        <time>2016-03-14T14:06:23Z</time>
      </trkpt>
      <trkpt lat="48.30584" lon="-2.9248">
        <ele>168</ele>
        <time>2016-03-14T14:06:25Z</time>
      </trkpt>
      <trkpt lat="48.30585" lon="-2.92479">
        <ele>168</ele>
        <time>2016-03-14T14:06:27Z</time>
      </trkpt>
      <trkpt lat="48.30586" lon="-2.92477">
        <ele>167</ele>
        <time>2016-03-14T14:06:30Z</time>
      </trkpt>
      <trkpt lat="48.30588" lon="-2.92477">
        <ele>167</ele>
        <time>2016-03-14T14:06:32Z</time>
      </trkpt>
      <trkpt lat="48.30589" lon="-2.92476">
        <ele>166</ele>
        <time>2016-03-14T14:06:34Z</time>
      </trkpt>
      <trkpt lat="48.30591" lon="-2.92475">
        <ele>166</ele>
        <time>2016-03-14T14:06:37Z</time>
      </trkpt>
      <trkpt lat="48.30593" lon="-2.92473">
        <ele>165</ele>
        <time>2016-03-14T14:06:40Z</time>
      </trkpt>
      <trkpt lat="48.30594" lon="-2.92473">
        <ele>164</ele>
        <time>2016-03-14T14:06:42Z</time>
      </trkpt>
      <trkpt lat="48.30596" lon="-2.92473">
        <ele>164</ele>
        <time>2016-03-14T14:06:44Z</time>
      </trkpt>
      <trkpt lat="48.30597" lon="-2.92474">
        <ele>164</ele>
        <time>2016-03-14T14:06:46Z</time>
      </trkpt>
      <trkpt lat="48.30599" lon="-2.92474">
        <ele>164</ele>
        <time>2016-03-14T14:06:48Z</time>
      </trkpt>
      <trkpt lat="48.306" lon="-2.92474">
        <ele>164</ele>
        <time>2016-03-14T14:06:50Z</time>
      </trkpt>
      <trkpt lat="48.30602" lon="-2.92472">
        <ele>164</ele>
        <time>2016-03-14T14:06:53Z</time>
      </trkpt>
      <trkpt lat="48.30603" lon="-2.9247">
        <ele>164</ele>
        <time>2016-03-14T14:06:56Z</time>
      </trkpt>
      <trkpt lat="48.30603" lon="-2.92468">
        <ele>164</ele>
        <time>2016-03-14T14:06:58Z</time>
      </trkpt>
      <trkpt lat="48.30605" lon="-2.92467">
        <ele>164</ele>
        <time>2016-03-14T14:07:01Z</time>
      </trkpt>
      <trkpt lat="48.30606" lon="-2.92465">
        <ele>164</ele>
        <time>2016-03-14T14:07:03Z</time>
      </trkpt>
      <trkpt lat="48.30607" lon="-2.92465">
        <ele>164</ele>
        <time>2016-03-14T14:07:05Z</time>
      </trkpt>
      <trkpt lat="48.30609" lon="-2.92465">
        <ele>164</ele>
        <time>2016-03-14T14:07:07Z</time>
      </trkpt>
      <trkpt lat="48.3061" lon="-2.92465">
        <ele>164</ele>
        <time>2016-03-14T14:07:09Z</time>
      </trkpt>
      <trkpt lat="48.30612" lon="-2.92466">
        <ele>164</ele>
        <time>2016-03-14T14:07:11Z</time>
      </trkpt>
      <trkpt lat="48.30613" lon="-2.92467">
        <ele>164</ele>
        <time>2016-03-14T14:07:13Z</time>
      </trkpt>
      <trkpt lat="48.30614" lon="-2.92468">
        <ele>164</ele>
        <time>2016-03-14T14:07:15Z</time>
      </trkpt>
      <trkpt lat="48.30615" lon="-2.9247">
        <ele>164</ele>
        <time>2016-03-14T14:07:19Z</time>
      </trkpt>
      <trkpt lat="48.30616" lon="-2.92472">
        <ele>164</ele>
        <time>2016-03-14T14:07:25Z</time>
      </trkpt>
      <trkpt lat="48.30617" lon="-2.92472">
        <ele>164</ele>
        <time>2016-03-14T14:07:27Z</time>
      </trkpt>
      <trkpt lat="48.30618" lon="-2.92474">
        <ele>164</ele>
        <time>2016-03-14T14:07:29Z</time>
      </trkpt>
      <trkpt lat="48.30618" lon="-2.92476">
        <ele>164</ele>
        <time>2016-03-14T14:07:30Z</time>
      </trkpt>
      <trkpt lat="48.30619" lon="-2.92477">
        <ele>164</ele>
        <time>2016-03-14T14:07:32Z</time>
      </trkpt>
      <trkpt lat="48.3062" lon="-2.92479">
        <ele>164</ele>
        <time>2016-03-14T14:07:34Z</time>
      </trkpt>
      <trkpt lat="48.30621" lon="-2.9248">
        <ele>164</ele>
        <time>2016-03-14T14:07:38Z</time>
      </trkpt>
      <trkpt lat="48.30621" lon="-2.92482">
        <ele>164</ele>
        <time>2016-03-14T14:07:50Z</time>
      </trkpt>
      <trkpt lat="48.30623" lon="-2.92483">
        <ele>164</ele>
        <time>2016-03-14T14:07:53Z</time>
      </trkpt>
      <trkpt lat="48.30624" lon="-2.92484">
        <ele>164</ele>
        <time>2016-03-14T14:07:56Z</time>
      </trkpt>
      <trkpt lat="48.30625" lon="-2.92485">
        <ele>164</ele>
        <time>2016-03-14T14:07:59Z</time>
      </trkpt>
      <trkpt lat="48.30627" lon="-2.92487">
        <ele>164</ele>
        <time>2016-03-14T14:08:03Z</time>
      </trkpt>
      <trkpt lat="48.30627" lon="-2.92489">
        <ele>164</ele>
        <time>2016-03-14T14:08:04Z</time>
      </trkpt>
      <trkpt lat="48.30629" lon="-2.9249">
        <ele>164</ele>
        <time>2016-03-14T14:08:06Z</time>
      </trkpt>
      <trkpt lat="48.30631" lon="-2.92491">
        <ele>164</ele>
        <time>2016-03-14T14:08:08Z</time>
      </trkpt>
      <trkpt lat="48.30632" lon="-2.92492">
        <ele>164</ele>
        <time>2016-03-14T14:08:10Z</time>
      </trkpt>
      <trkpt lat="48.30633" lon="-2.92494">
        <ele>164</ele>
        <time>2016-03-14T14:08:12Z</time>
      </trkpt>
      <trkpt lat="48.30634" lon="-2.92496">
        <ele>164</ele>
        <time>2016-03-14T14:08:14Z</time>
      </trkpt>
      <trkpt lat="48.30635" lon="-2.92498">
        <ele>164</ele>
        <time>2016-03-14T14:08:16Z</time>
      </trkpt>
      <trkpt lat="48.30637" lon="-2.925">
        <ele>164</ele>
        <time>2016-03-14T14:08:18Z</time>
      </trkpt>
      <trkpt lat="48.30638" lon="-2.92503">
        <ele>164</ele>
        <time>2016-03-14T14:08:20Z</time>
      </trkpt>
      <trkpt lat="48.30639" lon="-2.92505">
        <ele>164</ele>
        <time>2016-03-14T14:08:22Z</time>
      </trkpt>
      <trkpt lat="48.3064" lon="-2.92507">
        <ele>164</ele>
        <time>2016-03-14T14:08:24Z</time>
      </trkpt>
      <trkpt lat="48.30641" lon="-2.92509">
        <ele>164</ele>
        <time>2016-03-14T14:08:26Z</time>
      </trkpt>
      <trkpt lat="48.30641" lon="-2.92512">
        <ele>164</ele>
        <time>2016-03-14T14:08:28Z</time>
      </trkpt>
      <trkpt lat="48.30641" lon="-2.92514">
        <ele>164</ele>
        <time>2016-03-14T14:08:29Z</time>
      </trkpt>
      <trkpt lat="48.30641" lon="-2.92517">
        <ele>164</ele>
        <time>2016-03-14T14:08:31Z</time>
      </trkpt>
      <trkpt lat="48.30641" lon="-2.92519">
        <ele>164</ele>
        <time>2016-03-14T14:08:32Z</time>
      </trkpt>
      <trkpt lat="48.30642" lon="-2.9252">
        <ele>164</ele>
        <time>2016-03-14T14:08:33Z</time>
      </trkpt>
      <trkpt lat="48.30642" lon="-2.92524">
        <ele>164</ele>
        <time>2016-03-14T14:08:35Z</time>
      </trkpt>
      <trkpt lat="48.30643" lon="-2.92526">
        <ele>164</ele>
        <time>2016-03-14T14:08:37Z</time>
      </trkpt>
      <trkpt lat="48.30644" lon="-2.92528">
        <ele>164</ele>
        <time>2016-03-14T14:08:39Z</time>
      </trkpt>
      <trkpt lat="48.30644" lon="-2.9253">
        <ele>164</ele>
        <time>2016-03-14T14:08:40Z</time>
      </trkpt>
      <trkpt lat="48.30645" lon="-2.92533">
        <ele>164</ele>
        <time>2016-03-14T14:08:42Z</time>
      </trkpt>
      <trkpt lat="48.30645" lon="-2.92535">
        <ele>164</ele>
        <time>2016-03-14T14:08:43Z</time>
      </trkpt>
      <trkpt lat="48.30646" lon="-2.92536">
        <ele>164</ele>
        <time>2016-03-14T14:08:44Z</time>
      </trkpt>
      <trkpt lat="48.30647" lon="-2.92539">
        <ele>164</ele>
        <time>2016-03-14T14:08:46Z</time>
      </trkpt>
      <trkpt lat="48.30648" lon="-2.92542">
        <ele>164</ele>
        <time>2016-03-14T14:08:48Z</time>
      </trkpt>
      <trkpt lat="48.3065" lon="-2.92544">
        <ele>164</ele>
        <time>2016-03-14T14:08:50Z</time>
      </trkpt>
      <trkpt lat="48.30651" lon="-2.92546">
        <ele>164</ele>
        <time>2016-03-14T14:08:52Z</time>
      </trkpt>
      <trkpt lat="48.30652" lon="-2.92548">
        <ele>164</ele>
        <time>2016-03-14T14:08:54Z</time>
      </trkpt>
      <trkpt lat="48.30653" lon="-2.92549">
        <ele>164</ele>
        <time>2016-03-14T14:08:56Z</time>
      </trkpt>
      <trkpt lat="48.30653" lon="-2.92551">
        <ele>164</ele>
        <time>2016-03-14T14:08:59Z</time>
      </trkpt>
      <trkpt lat="48.30655" lon="-2.92553">
        <ele>164</ele>
        <time>2016-03-14T14:09:02Z</time>
      </trkpt>
      <trkpt lat="48.30656" lon="-2.92554">
        <ele>164</ele>
        <time>2016-03-14T14:09:03Z</time>
      </trkpt>
      <trkpt lat="48.30658" lon="-2.92556">
        <ele>164</ele>
        <time>2016-03-14T14:09:05Z</time>
      </trkpt>
      <trkpt lat="48.30659" lon="-2.92557">
        <ele>163</ele>
        <time>2016-03-14T14:09:07Z</time>
      </trkpt>
      <trkpt lat="48.30661" lon="-2.9256">
        <ele>163</ele>
        <time>2016-03-14T14:09:09Z</time>
      </trkpt>
      <trkpt lat="48.30662" lon="-2.92562">
        <ele>163</ele>
        <time>2016-03-14T14:09:11Z</time>
      </trkpt>
      <trkpt lat="48.30663" lon="-2.92564">
        <ele>163</ele>
        <time>2016-03-14T14:09:13Z</time>
      </trkpt>
      <trkpt lat="48.30664" lon="-2.92566">
        <ele>163</ele>
        <time>2016-03-14T14:09:15Z</time>
      </trkpt>
      <trkpt lat="48.30664" lon="-2.92568">
        <ele>163</ele>
        <time>2016-03-14T14:09:16Z</time>
      </trkpt>
      <trkpt lat="48.30665" lon="-2.9257">
        <ele>163</ele>
        <time>2016-03-14T14:09:18Z</time>
      </trkpt>
      <trkpt lat="48.30666" lon="-2.92572">
        <ele>163</ele>
        <time>2016-03-14T14:09:20Z</time>
      </trkpt>
      <trkpt lat="48.30667" lon="-2.92573">
        <ele>163</ele>
        <time>2016-03-14T14:09:22Z</time>
      </trkpt>
      <trkpt lat="48.30669" lon="-2.92576">
        <ele>163</ele>
        <time>2016-03-14T14:09:24Z</time>
      </trkpt>
      <trkpt lat="48.3067" lon="-2.92579">
        <ele>163</ele>
        <time>2016-03-14T14:09:26Z</time>
      </trkpt>
      <trkpt lat="48.30671" lon="-2.9258">
        <ele>163</ele>
        <time>2016-03-14T14:09:27Z</time>
      </trkpt>
      <trkpt lat="48.30672" lon="-2.92583">
        <ele>163</ele>
        <time>2016-03-14T14:09:29Z</time>
      </trkpt>
      <trkpt lat="48.30672" lon="-2.92585">
        <ele>163</ele>
        <time>2016-03-14T14:09:31Z</time>
      </trkpt>
      <trkpt lat="48.30673" lon="-2.92588">
        <ele>163</ele>
        <time>2016-03-14T14:09:33Z</time>
      </trkpt>
      <trkpt lat="48.30674" lon="-2.9259">
        <ele>163</ele>
        <time>2016-03-14T14:09:35Z</time>
      </trkpt>
      <trkpt lat="48.30675" lon="-2.92592">
        <ele>163</ele>
        <time>2016-03-14T14:09:37Z</time>
      </trkpt>
      <trkpt lat="48.30676" lon="-2.92594">
        <ele>163</ele>
        <time>2016-03-14T14:09:38Z</time>
      </trkpt>
      <trkpt lat="48.30677" lon="-2.92597">
        <ele>163</ele>
        <time>2016-03-14T14:09:40Z</time>
      </trkpt>
      <trkpt lat="48.30678" lon="-2.926">
        <ele>163</ele>
        <time>2016-03-14T14:09:42Z</time>
      </trkpt>
      <trkpt lat="48.30678" lon="-2.92602">
        <ele>163</ele>
        <time>2016-03-14T14:09:44Z</time>
      </trkpt>
      <trkpt lat="48.30679" lon="-2.92605">
        <ele>163</ele>
        <time>2016-03-14T14:09:46Z</time>
      </trkpt>
      <trkpt lat="48.30679" lon="-2.92608">
        <ele>163</ele>
        <time>2016-03-14T14:09:48Z</time>
      </trkpt>
      <trkpt lat="48.30679" lon="-2.9261">
        <ele>163</ele>
        <time>2016-03-14T14:09:50Z</time>
      </trkpt>
      <trkpt lat="48.30679" lon="-2.92612">
        <ele>163</ele>
        <time>2016-03-14T14:09:51Z</time>
      </trkpt>
      <trkpt lat="48.30679" lon="-2.92614">
        <ele>163</ele>
        <time>2016-03-14T14:09:53Z</time>
      </trkpt>
      <trkpt lat="48.3068" lon="-2.92617">
        <ele>163</ele>
        <time>2016-03-14T14:09:55Z</time>
      </trkpt>
      <trkpt lat="48.3068" lon="-2.92619">
        <ele>163</ele>
        <time>2016-03-14T14:09:57Z</time>
      </trkpt>
      <trkpt lat="48.30681" lon="-2.92622">
        <ele>163</ele>
        <time>2016-03-14T14:09:59Z</time>
      </trkpt>
      <trkpt lat="48.30681" lon="-2.92624">
        <ele>163</ele>
        <time>2016-03-14T14:10:01Z</time>
      </trkpt>
      <trkpt lat="48.30682" lon="-2.92627">
        <ele>163</ele>
        <time>2016-03-14T14:10:03Z</time>
      </trkpt>
      <trkpt lat="48.30682" lon="-2.92629">
        <ele>163</ele>
        <time>2016-03-14T14:10:05Z</time>
      </trkpt>
      <trkpt lat="48.30682" lon="-2.92632">
        <ele>163</ele>
        <time>2016-03-14T14:10:07Z</time>
      </trkpt>
      <trkpt lat="48.30682" lon="-2.92634">
        <ele>163</ele>
        <time>2016-03-14T14:10:09Z</time>
      </trkpt>
      <trkpt lat="48.30683" lon="-2.92635">
        <ele>163</ele>
        <time>2016-03-14T14:10:11Z</time>
      </trkpt>
      <trkpt lat="48.30685" lon="-2.92637">
        <ele>163</ele>
        <time>2016-03-14T14:10:14Z</time>
      </trkpt>
      <trkpt lat="48.30685" lon="-2.92639">
        <ele>163</ele>
        <time>2016-03-14T14:10:17Z</time>
      </trkpt>
      <trkpt lat="48.30687" lon="-2.92641">
        <ele>163</ele>
        <time>2016-03-14T14:10:20Z</time>
      </trkpt>
      <trkpt lat="48.30687" lon="-2.92643">
        <ele>163</ele>
        <time>2016-03-14T14:10:22Z</time>
      </trkpt>
      <trkpt lat="48.30689" lon="-2.92645">
        <ele>163</ele>
        <time>2016-03-14T14:10:25Z</time>
      </trkpt>
      <trkpt lat="48.3069" lon="-2.92645">
        <ele>163</ele>
        <time>2016-03-14T14:10:28Z</time>
      </trkpt>
      <trkpt lat="48.30691" lon="-2.92646">
        <ele>163</ele>
        <time>2016-03-14T14:10:31Z</time>
      </trkpt>
      <trkpt lat="48.30693" lon="-2.92647">
        <ele>163</ele>
        <time>2016-03-14T14:10:33Z</time>
      </trkpt>
      <trkpt lat="48.30694" lon="-2.92649">
        <ele>163</ele>
        <time>2016-03-14T14:10:35Z</time>
      </trkpt>
      <trkpt lat="48.30695" lon="-2.9265">
        <ele>163</ele>
        <time>2016-03-14T14:10:38Z</time>
      </trkpt>
      <trkpt lat="48.30697" lon="-2.92652">
        <ele>163</ele>
        <time>2016-03-14T14:10:41Z</time>
      </trkpt>
      <trkpt lat="48.30698" lon="-2.92653">
        <ele>163</ele>
        <time>2016-03-14T14:10:43Z</time>
      </trkpt>
      <trkpt lat="48.307" lon="-2.92653">
        <ele>163</ele>
        <time>2016-03-14T14:10:45Z</time>
      </trkpt>
      <trkpt lat="48.30701" lon="-2.92653">
        <ele>163</ele>
        <time>2016-03-14T14:10:47Z</time>
      </trkpt>
      <trkpt lat="48.30703" lon="-2.92653">
        <ele>163</ele>
        <time>2016-03-14T14:10:49Z</time>
      </trkpt>
      <trkpt lat="48.30704" lon="-2.92654">
        <ele>163</ele>
        <time>2016-03-14T14:10:51Z</time>
      </trkpt>
      <trkpt lat="48.30705" lon="-2.92654">
        <ele>163</ele>
        <time>2016-03-14T14:10:53Z</time>
      </trkpt>
      <trkpt lat="48.30706" lon="-2.92654">
        <ele>163</ele>
        <time>2016-03-14T14:10:55Z</time>
      </trkpt>
      <trkpt lat="48.30708" lon="-2.92655">
        <ele>163</ele>
        <time>2016-03-14T14:10:58Z</time>
      </trkpt>
      <trkpt lat="48.3071" lon="-2.92656">
        <ele>163</ele>
        <time>2016-03-14T14:10:59Z</time>
      </trkpt>
      <trkpt lat="48.30712" lon="-2.92657">
        <ele>163</ele>
        <time>2016-03-14T14:11:02Z</time>
      </trkpt>
      <trkpt lat="48.30713" lon="-2.92657">
        <ele>163</ele>
        <time>2016-03-14T14:11:04Z</time>
      </trkpt>
      <trkpt lat="48.30714" lon="-2.92656">
        <ele>163</ele>
        <time>2016-03-14T14:11:09Z</time>
      </trkpt>
      <trkpt lat="48.30714" lon="-2.92655">
        <ele>163</ele>
        <time>2016-03-14T14:11:21Z</time>
      </trkpt>
      <trkpt lat="48.30713" lon="-2.92655">
        <ele>166</ele>
        <time>2016-03-14T14:11:58Z</time>
      </trkpt>
      <trkpt lat="48.30712" lon="-2.92657">
        <ele>166</ele>
        <time>2016-03-14T14:12:18Z</time>
      </trkpt>
      <trkpt lat="48.30713" lon="-2.92658">
        <ele>166</ele>
        <time>2016-03-14T14:13:20Z</time>
      </trkpt>
      <trkpt lat="48.30714" lon="-2.92657">
        <ele>167</ele>
        <time>2016-03-14T14:14:20Z</time>
      </trkpt>
      <trkpt lat="48.30715" lon="-2.92656">
        <ele>167</ele>
        <time>2016-03-14T14:14:25Z</time>
      </trkpt>
      <trkpt lat="48.30714" lon="-2.92656">
        <ele>167</ele>
        <time>2016-03-14T14:15:13Z</time>
      </trkpt>
      <trkpt lat="48.30712" lon="-2.92655">
        <ele>167</ele>
        <time>2016-03-14T14:15:36Z</time>
      </trkpt>
      <trkpt lat="48.30713" lon="-2.92653">
        <ele>167</ele>
        <time>2016-03-14T14:15:42Z</time>
      </trkpt>
      <trkpt lat="48.30714" lon="-2.92653">
        <ele>167</ele>
        <time>2016-03-14T14:15:46Z</time>
      </trkpt>
      <trkpt lat="48.30715" lon="-2.92652">
        <ele>167</ele>
        <time>2016-03-14T14:15:58Z</time>
      </trkpt>
      <trkpt lat="48.30716" lon="-2.92652">
        <ele>167</ele>
        <time>2016-03-14T14:16:15Z</time>
      </trkpt>
      <trkpt lat="48.30717" lon="-2.92651">
        <ele>167</ele>
        <time>2016-03-14T14:16:40Z</time>
      </trkpt>
      <trkpt lat="48.30716" lon="-2.9265">
        <ele>168</ele>
        <time>2016-03-14T14:17:11Z</time>
      </trkpt>
      <trkpt lat="48.30717" lon="-2.92649">
        <ele>168</ele>
        <time>2016-03-14T14:17:20Z</time>
      </trkpt>
      <trkpt lat="48.30718" lon="-2.92647">
        <ele>168</ele>
        <time>2016-03-14T14:17:22Z</time>
      </trkpt>
      <trkpt lat="48.30719" lon="-2.92645">
        <ele>168</ele>
        <time>2016-03-14T14:17:24Z</time>
      </trkpt>
      <trkpt lat="48.3072" lon="-2.92644">
        <ele>168</ele>
        <time>2016-03-14T14:17:26Z</time>
      </trkpt>
      <trkpt lat="48.30721" lon="-2.92642">
        <ele>168</ele>
        <time>2016-03-14T14:17:28Z</time>
      </trkpt>
      <trkpt lat="48.30722" lon="-2.9264">
        <ele>168</ele>
        <time>2016-03-14T14:17:31Z</time>
      </trkpt>
      <trkpt lat="48.30724" lon="-2.92638">
        <ele>168</ele>
        <time>2016-03-14T14:17:33Z</time>
      </trkpt>
      <trkpt lat="48.30725" lon="-2.92636">
        <ele>168</ele>
        <time>2016-03-14T14:17:35Z</time>
      </trkpt>
      <trkpt lat="48.30726" lon="-2.92635">
        <ele>168</ele>
        <time>2016-03-14T14:17:37Z</time>
      </trkpt>
      <trkpt lat="48.30728" lon="-2.92633">
        <ele>168</ele>
        <time>2016-03-14T14:17:39Z</time>
      </trkpt>
      <trkpt lat="48.3073" lon="-2.92631">
        <ele>168</ele>
        <time>2016-03-14T14:17:41Z</time>
      </trkpt>
      <trkpt lat="48.30731" lon="-2.92629">
        <ele>168</ele>
        <time>2016-03-14T14:17:43Z</time>
      </trkpt>
      <trkpt lat="48.30733" lon="-2.92628">
        <ele>168</ele>
        <time>2016-03-14T14:17:45Z</time>
      </trkpt>
      <trkpt lat="48.30735" lon="-2.92626">
        <ele>168</ele>
        <time>2016-03-14T14:17:47Z</time>
      </trkpt>
      <trkpt lat="48.30737" lon="-2.92624">
        <ele>168</ele>
        <time>2016-03-14T14:17:49Z</time>
      </trkpt>
      <trkpt lat="48.30738" lon="-2.92623">
        <ele>168</ele>
        <time>2016-03-14T14:17:51Z</time>
      </trkpt>
      <trkpt lat="48.3074" lon="-2.92622">
        <ele>168</ele>
        <time>2016-03-14T14:17:53Z</time>
      </trkpt>
      <trkpt lat="48.30741" lon="-2.92622">
        <ele>168</ele>
        <time>2016-03-14T14:17:54Z</time>
      </trkpt>
      <trkpt lat="48.30743" lon="-2.92621">
        <ele>167</ele>
        <time>2016-03-14T14:17:56Z</time>
      </trkpt>
      <trkpt lat="48.30745" lon="-2.9262">
        <ele>167</ele>
        <time>2016-03-14T14:17:58Z</time>
      </trkpt>
      <trkpt lat="48.30747" lon="-2.9262">
        <ele>167</ele>
        <time>2016-03-14T14:18:00Z</time>
      </trkpt>
      <trkpt lat="48.30749" lon="-2.9262">
        <ele>167</ele>
        <time>2016-03-14T14:18:02Z</time>
      </trkpt>
      <trkpt lat="48.3075" lon="-2.9262">
        <ele>167</ele>
        <time>2016-03-14T14:18:03Z</time>
      </trkpt>
      <trkpt lat="48.30751" lon="-2.9262">
        <ele>167</ele>
        <time>2016-03-14T14:18:04Z</time>
      </trkpt>
      <trkpt lat="48.30753" lon="-2.9262">
        <ele>167</ele>
        <time>2016-03-14T14:18:06Z</time>
      </trkpt>
      <trkpt lat="48.30755" lon="-2.9262">
        <ele>167</ele>
        <time>2016-03-14T14:18:07Z</time>
      </trkpt>
      <trkpt lat="48.30756" lon="-2.9262">
        <ele>167</ele>
        <time>2016-03-14T14:18:08Z</time>
      </trkpt>
      <trkpt lat="48.30757" lon="-2.9262">
        <ele>167</ele>
        <time>2016-03-14T14:18:09Z</time>
      </trkpt>
      <trkpt lat="48.30759" lon="-2.9262">
        <ele>167</ele>
        <time>2016-03-14T14:18:11Z</time>
      </trkpt>
      <trkpt lat="48.30761" lon="-2.9262">
        <ele>167</ele>
        <time>2016-03-14T14:18:13Z</time>
      </trkpt>
      <trkpt lat="48.30762" lon="-2.9262">
        <ele>167</ele>
        <time>2016-03-14T14:18:14Z</time>
      </trkpt>
      <trkpt lat="48.30764" lon="-2.92621">
        <ele>167</ele>
        <time>2016-03-14T14:18:16Z</time>
      </trkpt>
      <trkpt lat="48.30766" lon="-2.92621">
        <ele>167</ele>
        <time>2016-03-14T14:18:17Z</time>
      </trkpt>
      <trkpt lat="48.30767" lon="-2.92621">
        <ele>167</ele>
        <time>2016-03-14T14:18:18Z</time>
      </trkpt>
      <trkpt lat="48.30769" lon="-2.92621">
        <ele>167</ele>
        <time>2016-03-14T14:18:20Z</time>
      </trkpt>
      <trkpt lat="48.30771" lon="-2.92622">
        <ele>167</ele>
        <time>2016-03-14T14:18:22Z</time>
      </trkpt>
      <trkpt lat="48.30772" lon="-2.92623">
        <ele>167</ele>
        <time>2016-03-14T14:18:24Z</time>
      </trkpt>
      <trkpt lat="48.30774" lon="-2.92623">
        <ele>167</ele>
        <time>2016-03-14T14:18:25Z</time>
      </trkpt>
      <trkpt lat="48.30775" lon="-2.92625">
        <ele>167</ele>
        <time>2016-03-14T14:18:27Z</time>
      </trkpt>
      <trkpt lat="48.30777" lon="-2.92625">
        <ele>167</ele>
        <time>2016-03-14T14:18:29Z</time>
      </trkpt>
      <trkpt lat="48.30779" lon="-2.92627">
        <ele>167</ele>
        <time>2016-03-14T14:18:31Z</time>
      </trkpt>
      <trkpt lat="48.30781" lon="-2.92628">
        <ele>167</ele>
        <time>2016-03-14T14:18:33Z</time>
      </trkpt>
      <trkpt lat="48.30783" lon="-2.92629">
        <ele>167</ele>
        <time>2016-03-14T14:18:35Z</time>
      </trkpt>
      <trkpt lat="48.30784" lon="-2.9263">
        <ele>167</ele>
        <time>2016-03-14T14:18:36Z</time>
      </trkpt>
      <trkpt lat="48.30786" lon="-2.92632">
        <ele>167</ele>
        <time>2016-03-14T14:18:38Z</time>
      </trkpt>
      <trkpt lat="48.30787" lon="-2.92633">
        <ele>167</ele>
        <time>2016-03-14T14:18:39Z</time>
      </trkpt>
      <trkpt lat="48.30788" lon="-2.92633">
        <ele>167</ele>
        <time>2016-03-14T14:18:40Z</time>
      </trkpt>
      <trkpt lat="48.3079" lon="-2.92634">
        <ele>167</ele>
        <time>2016-03-14T14:18:42Z</time>
      </trkpt>
      <trkpt lat="48.30791" lon="-2.92635">
        <ele>167</ele>
        <time>2016-03-14T14:18:44Z</time>
      </trkpt>
      <trkpt lat="48.30793" lon="-2.92637">
        <ele>167</ele>
        <time>2016-03-14T14:18:46Z</time>
      </trkpt>
      <trkpt lat="48.30795" lon="-2.92639">
        <ele>167</ele>
        <time>2016-03-14T14:18:48Z</time>
      </trkpt>
      <trkpt lat="48.30797" lon="-2.92639">
        <ele>167</ele>
        <time>2016-03-14T14:18:50Z</time>
      </trkpt>
      <trkpt lat="48.30798" lon="-2.92641">
        <ele>167</ele>
        <time>2016-03-14T14:18:52Z</time>
      </trkpt>
      <trkpt lat="48.308" lon="-2.92642">
        <ele>167</ele>
        <time>2016-03-14T14:18:54Z</time>
      </trkpt>
      <trkpt lat="48.30802" lon="-2.92644">
        <ele>167</ele>
        <time>2016-03-14T14:18:56Z</time>
      </trkpt>
      <trkpt lat="48.30804" lon="-2.92645">
        <ele>167</ele>
        <time>2016-03-14T14:18:58Z</time>
      </trkpt>
      <trkpt lat="48.30805" lon="-2.92646">
        <ele>167</ele>
        <time>2016-03-14T14:19:00Z</time>
      </trkpt>
      <trkpt lat="48.30807" lon="-2.92647">
        <ele>167</ele>
        <time>2016-03-14T14:19:02Z</time>
      </trkpt>
      <trkpt lat="48.30809" lon="-2.92648">
        <ele>167</ele>
        <time>2016-03-14T14:19:04Z</time>
      </trkpt>
      <trkpt lat="48.30811" lon="-2.9265">
        <ele>167</ele>
        <time>2016-03-14T14:19:06Z</time>
      </trkpt>
      <trkpt lat="48.30813" lon="-2.92652">
        <ele>167</ele>
        <time>2016-03-14T14:19:08Z</time>
      </trkpt>
      <trkpt lat="48.30815" lon="-2.92653">
        <ele>167</ele>
        <time>2016-03-14T14:19:10Z</time>
      </trkpt>
      <trkpt lat="48.30816" lon="-2.92653">
        <ele>167</ele>
        <time>2016-03-14T14:19:11Z</time>
      </trkpt>
      <trkpt lat="48.30818" lon="-2.92654">
        <ele>167</ele>
        <time>2016-03-14T14:19:13Z</time>
      </trkpt>
      <trkpt lat="48.3082" lon="-2.92655">
        <ele>167</ele>
        <time>2016-03-14T14:19:15Z</time>
      </trkpt>
      <trkpt lat="48.30823" lon="-2.92655">
        <ele>167</ele>
        <time>2016-03-14T14:19:17Z</time>
      </trkpt>
      <trkpt lat="48.30824" lon="-2.92655">
        <ele>167</ele>
        <time>2016-03-14T14:19:18Z</time>
      </trkpt>
      <trkpt lat="48.30825" lon="-2.92656">
        <ele>167</ele>
        <time>2016-03-14T14:19:19Z</time>
      </trkpt>
      <trkpt lat="48.30827" lon="-2.92657">
        <ele>167</ele>
        <time>2016-03-14T14:19:21Z</time>
      </trkpt>
      <trkpt lat="48.30829" lon="-2.92658">
        <ele>167</ele>
        <time>2016-03-14T14:19:23Z</time>
      </trkpt>
      <trkpt lat="48.30831" lon="-2.92658">
        <ele>167</ele>
        <time>2016-03-14T14:19:25Z</time>
      </trkpt>
      <trkpt lat="48.30833" lon="-2.92659">
        <ele>167</ele>
        <time>2016-03-14T14:19:27Z</time>
      </trkpt>
      <trkpt lat="48.30835" lon="-2.92661">
        <ele>167</ele>
        <time>2016-03-14T14:19:29Z</time>
      </trkpt>
      <trkpt lat="48.30836" lon="-2.92661">
        <ele>167</ele>
        <time>2016-03-14T14:19:30Z</time>
      </trkpt>
      <trkpt lat="48.30837" lon="-2.92662">
        <ele>167</ele>
        <time>2016-03-14T14:19:31Z</time>
      </trkpt>
      <trkpt lat="48.30838" lon="-2.92662">
        <ele>167</ele>
        <time>2016-03-14T14:19:32Z</time>
      </trkpt>
      <trkpt lat="48.3084" lon="-2.92662">
        <ele>167</ele>
        <time>2016-03-14T14:19:33Z</time>
      </trkpt>
      <trkpt lat="48.30841" lon="-2.92662">
        <ele>167</ele>
        <time>2016-03-14T14:19:34Z</time>
      </trkpt>
      <trkpt lat="48.30842" lon="-2.92662">
        <ele>167</ele>
        <time>2016-03-14T14:19:36Z</time>
      </trkpt>
      <trkpt lat="48.30843" lon="-2.92663">
        <ele>167</ele>
        <time>2016-03-14T14:19:43Z</time>
      </trkpt>
      <trkpt lat="48.30845" lon="-2.92664">
        <ele>167</ele>
        <time>2016-03-14T14:19:49Z</time>
      </trkpt>
      <trkpt lat="48.30847" lon="-2.92664">
        <ele>167</ele>
        <time>2016-03-14T14:19:51Z</time>
      </trkpt>
      <trkpt lat="48.30849" lon="-2.92663">
        <ele>167</ele>
        <time>2016-03-14T14:19:53Z</time>
      </trkpt>
      <trkpt lat="48.30851" lon="-2.92663">
        <ele>167</ele>
        <time>2016-03-14T14:19:55Z</time>
      </trkpt>
      <trkpt lat="48.30853" lon="-2.92663">
        <ele>167</ele>
        <time>2016-03-14T14:19:57Z</time>
      </trkpt>
      <trkpt lat="48.30855" lon="-2.92663">
        <ele>167</ele>
        <time>2016-03-14T14:19:59Z</time>
      </trkpt>
      <trkpt lat="48.30856" lon="-2.92662">
        <ele>167</ele>
        <time>2016-03-14T14:20:00Z</time>
      </trkpt>
      <trkpt lat="48.30857" lon="-2.92662">
        <ele>167</ele>
        <time>2016-03-14T14:20:01Z</time>
      </trkpt>
      <trkpt lat="48.30859" lon="-2.92662">
        <ele>167</ele>
        <time>2016-03-14T14:20:03Z</time>
      </trkpt>
      <trkpt lat="48.30861" lon="-2.92663">
        <ele>167</ele>
        <time>2016-03-14T14:20:05Z</time>
      </trkpt>
      <trkpt lat="48.30862" lon="-2.92663">
        <ele>167</ele>
        <time>2016-03-14T14:20:07Z</time>
      </trkpt>
      <trkpt lat="48.30864" lon="-2.92663">
        <ele>167</ele>
        <time>2016-03-14T14:20:08Z</time>
      </trkpt>
      <trkpt lat="48.30865" lon="-2.92662">
        <ele>167</ele>
        <time>2016-03-14T14:20:09Z</time>
      </trkpt>
      <trkpt lat="48.30866" lon="-2.92662">
        <ele>167</ele>
        <time>2016-03-14T14:20:10Z</time>
      </trkpt>
      <trkpt lat="48.30867" lon="-2.92662">
        <ele>167</ele>
        <time>2016-03-14T14:20:11Z</time>
      </trkpt>
      <trkpt lat="48.30869" lon="-2.92662">
        <ele>167</ele>
        <time>2016-03-14T14:20:13Z</time>
      </trkpt>
      <trkpt lat="48.3087" lon="-2.92662">
        <ele>167</ele>
        <time>2016-03-14T14:20:14Z</time>
      </trkpt>
      <trkpt lat="48.30872" lon="-2.92662">
        <ele>167</ele>
        <time>2016-03-14T14:20:15Z</time>
      </trkpt>
      <trkpt lat="48.30873" lon="-2.92662">
        <ele>167</ele>
        <time>2016-03-14T14:20:16Z</time>
      </trkpt>
      <trkpt lat="48.30875" lon="-2.92662">
        <ele>167</ele>
        <time>2016-03-14T14:20:18Z</time>
      </trkpt>
      <trkpt lat="48.30877" lon="-2.92663">
        <ele>167</ele>
        <time>2016-03-14T14:20:20Z</time>
      </trkpt>
      <trkpt lat="48.30879" lon="-2.92663">
        <ele>167</ele>
        <time>2016-03-14T14:20:22Z</time>
      </trkpt>
      <trkpt lat="48.3088" lon="-2.92663">
        <ele>167</ele>
        <time>2016-03-14T14:20:23Z</time>
      </trkpt>
      <trkpt lat="48.30882" lon="-2.92663">
        <ele>167</ele>
        <time>2016-03-14T14:20:25Z</time>
      </trkpt>
      <trkpt lat="48.30884" lon="-2.92663">
        <ele>167</ele>
        <time>2016-03-14T14:20:27Z</time>
      </trkpt>
      <trkpt lat="48.30886" lon="-2.92663">
        <ele>167</ele>
        <time>2016-03-14T14:20:29Z</time>
      </trkpt>
      <trkpt lat="48.30888" lon="-2.92663">
        <ele>167</ele>
        <time>2016-03-14T14:20:31Z</time>
      </trkpt>
      <trkpt lat="48.3089" lon="-2.92663">
        <ele>167</ele>
        <time>2016-03-14T14:20:33Z</time>
      </trkpt>
      <trkpt lat="48.30891" lon="-2.92663">
        <ele>167</ele>
        <time>2016-03-14T14:20:34Z</time>
      </trkpt>
      <trkpt lat="48.30893" lon="-2.92664">
        <ele>167</ele>
        <time>2016-03-14T14:20:36Z</time>
      </trkpt>
      <trkpt lat="48.30895" lon="-2.92664">
        <ele>167</ele>
        <time>2016-03-14T14:20:37Z</time>
      </trkpt>
      <trkpt lat="48.30897" lon="-2.92664">
        <ele>167</ele>
        <time>2016-03-14T14:20:39Z</time>
      </trkpt>
      <trkpt lat="48.30899" lon="-2.92665">
        <ele>167</ele>
        <time>2016-03-14T14:20:41Z</time>
      </trkpt>
      <trkpt lat="48.30901" lon="-2.92666">
        <ele>167</ele>
        <time>2016-03-14T14:20:43Z</time>
      </trkpt>
      <trkpt lat="48.30902" lon="-2.92666">
        <ele>167</ele>
        <time>2016-03-14T14:20:44Z</time>
      </trkpt>
      <trkpt lat="48.30904" lon="-2.92667">
        <ele>167</ele>
        <time>2016-03-14T14:20:46Z</time>
      </trkpt>
      <trkpt lat="48.30905" lon="-2.92667">
        <ele>167</ele>
        <time>2016-03-14T14:20:47Z</time>
      </trkpt>
      <trkpt lat="48.30907" lon="-2.92667">
        <ele>167</ele>
        <time>2016-03-14T14:20:48Z</time>
      </trkpt>
      <trkpt lat="48.30908" lon="-2.92667">
        <ele>167</ele>
        <time>2016-03-14T14:20:49Z</time>
      </trkpt>
      <trkpt lat="48.30909" lon="-2.92667">
        <ele>167</ele>
        <time>2016-03-14T14:20:50Z</time>
      </trkpt>
      <trkpt lat="48.3091" lon="-2.92668">
        <ele>167</ele>
        <time>2016-03-14T14:20:51Z</time>
      </trkpt>
      <trkpt lat="48.30912" lon="-2.92668">
        <ele>167</ele>
        <time>2016-03-14T14:20:53Z</time>
      </trkpt>
      <trkpt lat="48.30914" lon="-2.92668">
        <ele>167</ele>
        <time>2016-03-14T14:20:55Z</time>
      </trkpt>
      <trkpt lat="48.30916" lon="-2.92669">
        <ele>167</ele>
        <time>2016-03-14T14:20:57Z</time>
      </trkpt>
      <trkpt lat="48.30918" lon="-2.9267">
        <ele>167</ele>
        <time>2016-03-14T14:20:59Z</time>
      </trkpt>
      <trkpt lat="48.30919" lon="-2.9267">
        <ele>167</ele>
        <time>2016-03-14T14:21:01Z</time>
      </trkpt>
      <trkpt lat="48.30921" lon="-2.9267">
        <ele>167</ele>
        <time>2016-03-14T14:21:03Z</time>
      </trkpt>
      <trkpt lat="48.30923" lon="-2.92671">
        <ele>167</ele>
        <time>2016-03-14T14:21:05Z</time>
      </trkpt>
      <trkpt lat="48.30925" lon="-2.92671">
        <ele>167</ele>
        <time>2016-03-14T14:21:07Z</time>
      </trkpt>
      <trkpt lat="48.30927" lon="-2.92671">
        <ele>167</ele>
        <time>2016-03-14T14:21:09Z</time>
      </trkpt>
      <trkpt lat="48.30929" lon="-2.92672">
        <ele>166</ele>
        <time>2016-03-14T14:21:11Z</time>
      </trkpt>
      <trkpt lat="48.3093" lon="-2.92673">
        <ele>166</ele>
        <time>2016-03-14T14:21:13Z</time>
      </trkpt>
      <trkpt lat="48.30932" lon="-2.92674">
        <ele>166</ele>
        <time>2016-03-14T14:21:15Z</time>
      </trkpt>
      <trkpt lat="48.30934" lon="-2.92675">
        <ele>166</ele>
        <time>2016-03-14T14:21:17Z</time>
      </trkpt>
      <trkpt lat="48.30935" lon="-2.92675">
        <ele>166</ele>
        <time>2016-03-14T14:21:18Z</time>
      </trkpt>
      <trkpt lat="48.30936" lon="-2.92675">
        <ele>166</ele>
        <time>2016-03-14T14:21:19Z</time>
      </trkpt>
      <trkpt lat="48.30938" lon="-2.92676">
        <ele>166</ele>
        <time>2016-03-14T14:21:21Z</time>
      </trkpt>
      <trkpt lat="48.3094" lon="-2.92677">
        <ele>166</ele>
        <time>2016-03-14T14:21:23Z</time>
      </trkpt>
      <trkpt lat="48.30943" lon="-2.92678">
        <ele>166</ele>
        <time>2016-03-14T14:21:25Z</time>
      </trkpt>
      <trkpt lat="48.30945" lon="-2.92678">
        <ele>166</ele>
        <time>2016-03-14T14:21:27Z</time>
      </trkpt>
      <trkpt lat="48.30946" lon="-2.9268">
        <ele>166</ele>
        <time>2016-03-14T14:21:29Z</time>
      </trkpt>
      <trkpt lat="48.30948" lon="-2.92681">
        <ele>166</ele>
        <time>2016-03-14T14:21:31Z</time>
      </trkpt>
      <trkpt lat="48.3095" lon="-2.92681">
        <ele>166</ele>
        <time>2016-03-14T14:21:33Z</time>
      </trkpt>
      <trkpt lat="48.30952" lon="-2.92682">
        <ele>166</ele>
        <time>2016-03-14T14:21:35Z</time>
      </trkpt>
      <trkpt lat="48.30954" lon="-2.92683">
        <ele>166</ele>
        <time>2016-03-14T14:21:37Z</time>
      </trkpt>
      <trkpt lat="48.30955" lon="-2.92683">
        <ele>166</ele>
        <time>2016-03-14T14:21:38Z</time>
      </trkpt>
      <trkpt lat="48.30957" lon="-2.92684">
        <ele>166</ele>
        <time>2016-03-14T14:21:40Z</time>
      </trkpt>
      <trkpt lat="48.30959" lon="-2.92685">
        <ele>166</ele>
        <time>2016-03-14T14:21:42Z</time>
      </trkpt>
      <trkpt lat="48.30961" lon="-2.92686">
        <ele>166</ele>
        <time>2016-03-14T14:21:44Z</time>
      </trkpt>
      <trkpt lat="48.30963" lon="-2.92688">
        <ele>166</ele>
        <time>2016-03-14T14:21:46Z</time>
      </trkpt>
      <trkpt lat="48.30965" lon="-2.92688">
        <ele>166</ele>
        <time>2016-03-14T14:21:48Z</time>
      </trkpt>
      <trkpt lat="48.30967" lon="-2.9269">
        <ele>166</ele>
        <time>2016-03-14T14:21:50Z</time>
      </trkpt>
      <trkpt lat="48.30969" lon="-2.92692">
        <ele>166</ele>
        <time>2016-03-14T14:21:52Z</time>
      </trkpt>
      <trkpt lat="48.3097" lon="-2.92693">
        <ele>166</ele>
        <time>2016-03-14T14:21:54Z</time>
      </trkpt>
      <trkpt lat="48.30972" lon="-2.92694">
        <ele>166</ele>
        <time>2016-03-14T14:21:56Z</time>
      </trkpt>
      <trkpt lat="48.30973" lon="-2.92694">
        <ele>166</ele>
        <time>2016-03-14T14:21:58Z</time>
      </trkpt>
      <trkpt lat="48.30975" lon="-2.92695">
        <ele>166</ele>
        <time>2016-03-14T14:22:00Z</time>
      </trkpt>
      <trkpt lat="48.30977" lon="-2.92695">
        <ele>166</ele>
        <time>2016-03-14T14:22:02Z</time>
      </trkpt>
      <trkpt lat="48.30979" lon="-2.92695">
        <ele>166</ele>
        <time>2016-03-14T14:22:04Z</time>
      </trkpt>
      <trkpt lat="48.30981" lon="-2.92694">
        <ele>166</ele>
        <time>2016-03-14T14:22:06Z</time>
      </trkpt>
      <trkpt lat="48.30983" lon="-2.92695">
        <ele>166</ele>
        <time>2016-03-14T14:22:08Z</time>
      </trkpt>
      <trkpt lat="48.30984" lon="-2.92696">
        <ele>166</ele>
        <time>2016-03-14T14:22:10Z</time>
      </trkpt>
      <trkpt lat="48.30986" lon="-2.92698">
        <ele>166</ele>
        <time>2016-03-14T14:22:12Z</time>
      </trkpt>
      <trkpt lat="48.30988" lon="-2.92699">
        <ele>166</ele>
        <time>2016-03-14T14:22:14Z</time>
      </trkpt>
      <trkpt lat="48.3099" lon="-2.927">
        <ele>166</ele>
        <time>2016-03-14T14:22:16Z</time>
      </trkpt>
      <trkpt lat="48.30992" lon="-2.92702">
        <ele>166</ele>
        <time>2016-03-14T14:22:18Z</time>
      </trkpt>
      <trkpt lat="48.30993" lon="-2.92704">
        <ele>166</ele>
        <time>2016-03-14T14:22:20Z</time>
      </trkpt>
      <trkpt lat="48.30995" lon="-2.92706">
        <ele>166</ele>
        <time>2016-03-14T14:22:22Z</time>
      </trkpt>
      <trkpt lat="48.30996" lon="-2.92708">
        <ele>166</ele>
        <time>2016-03-14T14:22:24Z</time>
      </trkpt>
      <trkpt lat="48.30998" lon="-2.92709">
        <ele>166</ele>
        <time>2016-03-14T14:22:26Z</time>
      </trkpt>
      <trkpt lat="48.30999" lon="-2.92711">
        <ele>166</ele>
        <time>2016-03-14T14:22:28Z</time>
      </trkpt>
      <trkpt lat="48.31001" lon="-2.92714">
        <ele>166</ele>
        <time>2016-03-14T14:22:30Z</time>
      </trkpt>
      <trkpt lat="48.31002" lon="-2.92716">
        <ele>166</ele>
        <time>2016-03-14T14:22:32Z</time>
      </trkpt>
      <trkpt lat="48.31004" lon="-2.92719">
        <ele>166</ele>
        <time>2016-03-14T14:22:34Z</time>
      </trkpt>
      <trkpt lat="48.31005" lon="-2.92721">
        <ele>166</ele>
        <time>2016-03-14T14:22:36Z</time>
      </trkpt>
      <trkpt lat="48.31006" lon="-2.92723">
        <ele>166</ele>
        <time>2016-03-14T14:22:38Z</time>
      </trkpt>
      <trkpt lat="48.31007" lon="-2.92725">
        <ele>166</ele>
        <time>2016-03-14T14:22:40Z</time>
      </trkpt>
      <trkpt lat="48.31009" lon="-2.92728">
        <ele>166</ele>
        <time>2016-03-14T14:22:42Z</time>
      </trkpt>
      <trkpt lat="48.3101" lon="-2.92731">
        <ele>166</ele>
        <time>2016-03-14T14:22:44Z</time>
      </trkpt>
      <trkpt lat="48.31011" lon="-2.92733">
        <ele>166</ele>
        <time>2016-03-14T14:22:46Z</time>
      </trkpt>
      <trkpt lat="48.31013" lon="-2.92736">
        <ele>166</ele>
        <time>2016-03-14T14:22:48Z</time>
      </trkpt>
      <trkpt lat="48.31014" lon="-2.92738">
        <ele>166</ele>
        <time>2016-03-14T14:22:50Z</time>
      </trkpt>
      <trkpt lat="48.31015" lon="-2.92741">
        <ele>166</ele>
        <time>2016-03-14T14:22:52Z</time>
      </trkpt>
      <trkpt lat="48.31016" lon="-2.92743">
        <ele>166</ele>
        <time>2016-03-14T14:22:54Z</time>
      </trkpt>
      <trkpt lat="48.31018" lon="-2.92745">
        <ele>166</ele>
        <time>2016-03-14T14:22:56Z</time>
      </trkpt>
      <trkpt lat="48.31019" lon="-2.92748">
        <ele>166</ele>
        <time>2016-03-14T14:22:58Z</time>
      </trkpt>
      <trkpt lat="48.3102" lon="-2.92751">
        <ele>166</ele>
        <time>2016-03-14T14:23:00Z</time>
      </trkpt>
      <trkpt lat="48.31021" lon="-2.92754">
        <ele>166</ele>
        <time>2016-03-14T14:23:02Z</time>
      </trkpt>
      <trkpt lat="48.31022" lon="-2.92757">
        <ele>166</ele>
        <time>2016-03-14T14:23:04Z</time>
      </trkpt>
      <trkpt lat="48.31023" lon="-2.92759">
        <ele>166</ele>
        <time>2016-03-14T14:23:06Z</time>
      </trkpt>
      <trkpt lat="48.31025" lon="-2.92762">
        <ele>166</ele>
        <time>2016-03-14T14:23:08Z</time>
      </trkpt>
      <trkpt lat="48.31025" lon="-2.92765">
        <ele>166</ele>
        <time>2016-03-14T14:23:10Z</time>
      </trkpt>
      <trkpt lat="48.31026" lon="-2.92768">
        <ele>166</ele>
        <time>2016-03-14T14:23:12Z</time>
      </trkpt>
      <trkpt lat="48.31027" lon="-2.9277">
        <ele>166</ele>
        <time>2016-03-14T14:23:14Z</time>
      </trkpt>
      <trkpt lat="48.31028" lon="-2.92772">
        <ele>166</ele>
        <time>2016-03-14T14:23:16Z</time>
      </trkpt>
      <trkpt lat="48.31028" lon="-2.92774">
        <ele>166</ele>
        <time>2016-03-14T14:23:18Z</time>
      </trkpt>
      <trkpt lat="48.31028" lon="-2.92776">
        <ele>166</ele>
        <time>2016-03-14T14:23:20Z</time>
      </trkpt>
      <trkpt lat="48.31029" lon="-2.92778">
        <ele>166</ele>
        <time>2016-03-14T14:23:22Z</time>
      </trkpt>
      <trkpt lat="48.31028" lon="-2.92781">
        <ele>166</ele>
        <time>2016-03-14T14:23:25Z</time>
      </trkpt>
      <trkpt lat="48.31028" lon="-2.92783">
        <ele>166</ele>
        <time>2016-03-14T14:23:27Z</time>
      </trkpt>
      <trkpt lat="48.31027" lon="-2.92785">
        <ele>166</ele>
        <time>2016-03-14T14:23:29Z</time>
      </trkpt>
      <trkpt lat="48.31027" lon="-2.92787">
        <ele>166</ele>
        <time>2016-03-14T14:23:31Z</time>
      </trkpt>
      <trkpt lat="48.31027" lon="-2.9279">
        <ele>166</ele>
        <time>2016-03-14T14:23:44Z</time>
      </trkpt>
      <trkpt lat="48.31028" lon="-2.92792">
        <ele>166</ele>
        <time>2016-03-14T14:23:46Z</time>
      </trkpt>
      <trkpt lat="48.31029" lon="-2.92793">
        <ele>166</ele>
        <time>2016-03-14T14:23:49Z</time>
      </trkpt>
      <trkpt lat="48.3103" lon="-2.92795">
        <ele>166</ele>
        <time>2016-03-14T14:23:52Z</time>
      </trkpt>
      <trkpt lat="48.31031" lon="-2.92795">
        <ele>166</ele>
        <time>2016-03-14T14:23:55Z</time>
      </trkpt>
      <trkpt lat="48.31032" lon="-2.92796">
        <ele>166</ele>
        <time>2016-03-14T14:23:57Z</time>
      </trkpt>
      <trkpt lat="48.31033" lon="-2.928">
        <ele>166</ele>
        <time>2016-03-14T14:23:59Z</time>
      </trkpt>
      <trkpt lat="48.31033" lon="-2.92801">
        <ele>166</ele>
        <time>2016-03-14T14:24:00Z</time>
      </trkpt>
      <trkpt lat="48.31034" lon="-2.92803">
        <ele>166</ele>
        <time>2016-03-14T14:24:01Z</time>
      </trkpt>
      <trkpt lat="48.31034" lon="-2.92806">
        <ele>166</ele>
        <time>2016-03-14T14:24:03Z</time>
      </trkpt>
      <trkpt lat="48.31035" lon="-2.92809">
        <ele>166</ele>
        <time>2016-03-14T14:24:05Z</time>
      </trkpt>
      <trkpt lat="48.31035" lon="-2.92811">
        <ele>166</ele>
        <time>2016-03-14T14:24:06Z</time>
      </trkpt>
      <trkpt lat="48.31036" lon="-2.92814">
        <ele>166</ele>
        <time>2016-03-14T14:24:08Z</time>
      </trkpt>
      <trkpt lat="48.31036" lon="-2.92816">
        <ele>166</ele>
        <time>2016-03-14T14:24:09Z</time>
      </trkpt>
      <trkpt lat="48.31036" lon="-2.92818">
        <ele>166</ele>
        <time>2016-03-14T14:24:10Z</time>
      </trkpt>
      <trkpt lat="48.31037" lon="-2.92821">
        <ele>166</ele>
        <time>2016-03-14T14:24:12Z</time>
      </trkpt>
      <trkpt lat="48.31038" lon="-2.92822">
        <ele>166</ele>
        <time>2016-03-14T14:24:13Z</time>
      </trkpt>
      <trkpt lat="48.31038" lon="-2.92825">
        <ele>166</ele>
        <time>2016-03-14T14:24:15Z</time>
      </trkpt>
      <trkpt lat="48.31039" lon="-2.92828">
        <ele>166</ele>
        <time>2016-03-14T14:24:17Z</time>
      </trkpt>
      <trkpt lat="48.31039" lon="-2.9283">
        <ele>166</ele>
        <time>2016-03-14T14:24:18Z</time>
      </trkpt>
      <trkpt lat="48.31039" lon="-2.92833">
        <ele>166</ele>
        <time>2016-03-14T14:24:20Z</time>
      </trkpt>
      <trkpt lat="48.31039" lon="-2.92836">
        <ele>166</ele>
        <time>2016-03-14T14:24:22Z</time>
      </trkpt>
      <trkpt lat="48.31039" lon="-2.92839">
        <ele>166</ele>
        <time>2016-03-14T14:24:24Z</time>
      </trkpt>
      <trkpt lat="48.31039" lon="-2.92841">
        <ele>166</ele>
        <time>2016-03-14T14:24:25Z</time>
      </trkpt>
      <trkpt lat="48.3104" lon="-2.92843">
        <ele>166</ele>
        <time>2016-03-14T14:24:26Z</time>
      </trkpt>
      <trkpt lat="48.3104" lon="-2.92844">
        <ele>166</ele>
        <time>2016-03-14T14:24:27Z</time>
      </trkpt>
      <trkpt lat="48.31041" lon="-2.92847">
        <ele>166</ele>
        <time>2016-03-14T14:24:29Z</time>
      </trkpt>
      <trkpt lat="48.31041" lon="-2.9285">
        <ele>166</ele>
        <time>2016-03-14T14:24:31Z</time>
      </trkpt>
      <trkpt lat="48.31042" lon="-2.92853">
        <ele>166</ele>
        <time>2016-03-14T14:24:33Z</time>
      </trkpt>
      <trkpt lat="48.31042" lon="-2.92855">
        <ele>166</ele>
        <time>2016-03-14T14:24:34Z</time>
      </trkpt>
      <trkpt lat="48.31042" lon="-2.92857">
        <ele>166</ele>
        <time>2016-03-14T14:24:35Z</time>
      </trkpt>
      <trkpt lat="48.31042" lon="-2.92859">
        <ele>166</ele>
        <time>2016-03-14T14:24:36Z</time>
      </trkpt>
      <trkpt lat="48.31043" lon="-2.92861">
        <ele>166</ele>
        <time>2016-03-14T14:24:38Z</time>
      </trkpt>
      <trkpt lat="48.31043" lon="-2.92864">
        <ele>166</ele>
        <time>2016-03-14T14:24:40Z</time>
      </trkpt>
      <trkpt lat="48.31044" lon="-2.92867">
        <ele>166</ele>
        <time>2016-03-14T14:24:42Z</time>
      </trkpt>
      <trkpt lat="48.31044" lon="-2.9287">
        <ele>166</ele>
        <time>2016-03-14T14:24:44Z</time>
      </trkpt>
      <trkpt lat="48.31044" lon="-2.92872">
        <ele>166</ele>
        <time>2016-03-14T14:24:45Z</time>
      </trkpt>
      <trkpt lat="48.31044" lon="-2.92875">
        <ele>166</ele>
        <time>2016-03-14T14:24:47Z</time>
      </trkpt>
      <trkpt lat="48.31045" lon="-2.92877">
        <ele>166</ele>
        <time>2016-03-14T14:24:48Z</time>
      </trkpt>
      <trkpt lat="48.31045" lon="-2.92879">
        <ele>166</ele>
        <time>2016-03-14T14:24:49Z</time>
      </trkpt>
      <trkpt lat="48.31045" lon="-2.92882">
        <ele>166</ele>
        <time>2016-03-14T14:24:51Z</time>
      </trkpt>
      <trkpt lat="48.31046" lon="-2.92885">
        <ele>166</ele>
        <time>2016-03-14T14:24:53Z</time>
      </trkpt>
      <trkpt lat="48.31046" lon="-2.92886">
        <ele>166</ele>
        <time>2016-03-14T14:24:54Z</time>
      </trkpt>
      <trkpt lat="48.31047" lon="-2.92888">
        <ele>166</ele>
        <time>2016-03-14T14:24:55Z</time>
      </trkpt>
      <trkpt lat="48.31047" lon="-2.92891">
        <ele>166</ele>
        <time>2016-03-14T14:24:57Z</time>
      </trkpt>
      <trkpt lat="48.31047" lon="-2.92893">
        <ele>166</ele>
        <time>2016-03-14T14:24:58Z</time>
      </trkpt>
      <trkpt lat="48.31048" lon="-2.92894">
        <ele>166</ele>
        <time>2016-03-14T14:24:59Z</time>
      </trkpt>
      <trkpt lat="48.31048" lon="-2.92896">
        <ele>166</ele>
        <time>2016-03-14T14:25:00Z</time>
      </trkpt>
      <trkpt lat="48.31048" lon="-2.92898">
        <ele>166</ele>
        <time>2016-03-14T14:25:01Z</time>
      </trkpt>
      <trkpt lat="48.31049" lon="-2.92901">
        <ele>166</ele>
        <time>2016-03-14T14:25:03Z</time>
      </trkpt>
      <trkpt lat="48.31049" lon="-2.92902">
        <ele>166</ele>
        <time>2016-03-14T14:25:04Z</time>
      </trkpt>
      <trkpt lat="48.31049" lon="-2.92906">
        <ele>166</ele>
        <time>2016-03-14T14:25:06Z</time>
      </trkpt>
      <trkpt lat="48.3105" lon="-2.92909">
        <ele>166</ele>
        <time>2016-03-14T14:25:08Z</time>
      </trkpt>
      <trkpt lat="48.3105" lon="-2.92912">
        <ele>166</ele>
        <time>2016-03-14T14:25:10Z</time>
      </trkpt>
      <trkpt lat="48.3105" lon="-2.92914">
        <ele>166</ele>
        <time>2016-03-14T14:25:11Z</time>
      </trkpt>
      <trkpt lat="48.31051" lon="-2.92917">
        <ele>166</ele>
        <time>2016-03-14T14:25:13Z</time>
      </trkpt>
      <trkpt lat="48.31052" lon="-2.9292">
        <ele>166</ele>
        <time>2016-03-14T14:25:15Z</time>
      </trkpt>
      <trkpt lat="48.31052" lon="-2.92921">
        <ele>166</ele>
        <time>2016-03-14T14:25:16Z</time>
      </trkpt>
      <trkpt lat="48.31052" lon="-2.92925">
        <ele>166</ele>
        <time>2016-03-14T14:25:18Z</time>
      </trkpt>
      <trkpt lat="48.31052" lon="-2.92927">
        <ele>166</ele>
        <time>2016-03-14T14:25:19Z</time>
      </trkpt>
      <trkpt lat="48.31052" lon="-2.92928">
        <ele>166</ele>
        <time>2016-03-14T14:25:20Z</time>
      </trkpt>
      <trkpt lat="48.31053" lon="-2.9293">
        <ele>166</ele>
        <time>2016-03-14T14:25:21Z</time>
      </trkpt>
      <trkpt lat="48.31053" lon="-2.92932">
        <ele>166</ele>
        <time>2016-03-14T14:25:22Z</time>
      </trkpt>
      <trkpt lat="48.31053" lon="-2.92935">
        <ele>166</ele>
        <time>2016-03-14T14:25:24Z</time>
      </trkpt>
      <trkpt lat="48.31054" lon="-2.92938">
        <ele>166</ele>
        <time>2016-03-14T14:25:26Z</time>
      </trkpt>
      <trkpt lat="48.31054" lon="-2.9294">
        <ele>166</ele>
        <time>2016-03-14T14:25:27Z</time>
      </trkpt>
      <trkpt lat="48.31054" lon="-2.92942">
        <ele>166</ele>
        <time>2016-03-14T14:25:28Z</time>
      </trkpt>
      <trkpt lat="48.31054" lon="-2.92944">
        <ele>166</ele>
        <time>2016-03-14T14:25:29Z</time>
      </trkpt>
      <trkpt lat="48.31055" lon="-2.92946">
        <ele>166</ele>
        <time>2016-03-14T14:25:30Z</time>
      </trkpt>
      <trkpt lat="48.31055" lon="-2.92947">
        <ele>166</ele>
        <time>2016-03-14T14:25:31Z</time>
      </trkpt>
      <trkpt lat="48.31055" lon="-2.92951">
        <ele>166</ele>
        <time>2016-03-14T14:25:33Z</time>
      </trkpt>
      <trkpt lat="48.31056" lon="-2.92952">
        <ele>166</ele>
        <time>2016-03-14T14:25:34Z</time>
      </trkpt>
      <trkpt lat="48.31056" lon="-2.92954">
        <ele>166</ele>
        <time>2016-03-14T14:25:35Z</time>
      </trkpt>
      <trkpt lat="48.31056" lon="-2.92955">
        <ele>166</ele>
        <time>2016-03-14T14:25:36Z</time>
      </trkpt>
      <trkpt lat="48.31056" lon="-2.92957">
        <ele>166</ele>
        <time>2016-03-14T14:25:37Z</time>
      </trkpt>
      <trkpt lat="48.31057" lon="-2.92959">
        <ele>166</ele>
        <time>2016-03-14T14:25:38Z</time>
      </trkpt>
      <trkpt lat="48.31057" lon="-2.92961">
        <ele>166</ele>
        <time>2016-03-14T14:25:39Z</time>
      </trkpt>
      <trkpt lat="48.31057" lon="-2.92963">
        <ele>166</ele>
        <time>2016-03-14T14:25:40Z</time>
      </trkpt>
      <trkpt lat="48.31057" lon="-2.92965">
        <ele>166</ele>
        <time>2016-03-14T14:25:42Z</time>
      </trkpt>
      <trkpt lat="48.31057" lon="-2.92967">
        <ele>166</ele>
        <time>2016-03-14T14:25:43Z</time>
      </trkpt>
      <trkpt lat="48.31057" lon="-2.92969">
        <ele>166</ele>
        <time>2016-03-14T14:25:44Z</time>
      </trkpt>
      <trkpt lat="48.31058" lon="-2.92972">
        <ele>166</ele>
        <time>2016-03-14T14:25:46Z</time>
      </trkpt>
      <trkpt lat="48.31057" lon="-2.92974">
        <ele>166</ele>
        <time>2016-03-14T14:25:47Z</time>
      </trkpt>
      <trkpt lat="48.31057" lon="-2.92975">
        <ele>166</ele>
        <time>2016-03-14T14:25:48Z</time>
      </trkpt>
      <trkpt lat="48.31058" lon="-2.92977">
        <ele>166</ele>
        <time>2016-03-14T14:25:49Z</time>
      </trkpt>
      <trkpt lat="48.31058" lon="-2.92981">
        <ele>166</ele>
        <time>2016-03-14T14:25:51Z</time>
      </trkpt>
      <trkpt lat="48.31058" lon="-2.92984">
        <ele>166</ele>
        <time>2016-03-14T14:25:53Z</time>
      </trkpt>
      <trkpt lat="48.31058" lon="-2.92986">
        <ele>166</ele>
        <time>2016-03-14T14:25:54Z</time>
      </trkpt>
      <trkpt lat="48.31059" lon="-2.92989">
        <ele>166</ele>
        <time>2016-03-14T14:25:56Z</time>
      </trkpt>
      <trkpt lat="48.31059" lon="-2.9299">
        <ele>166</ele>
        <time>2016-03-14T14:25:57Z</time>
      </trkpt>
      <trkpt lat="48.3106" lon="-2.92993">
        <ele>166</ele>
        <time>2016-03-14T14:25:59Z</time>
      </trkpt>
      <trkpt lat="48.3106" lon="-2.92996">
        <ele>166</ele>
        <time>2016-03-14T14:26:01Z</time>
      </trkpt>
      <trkpt lat="48.31061" lon="-2.92999">
        <ele>166</ele>
        <time>2016-03-14T14:26:03Z</time>
      </trkpt>
      <trkpt lat="48.31061" lon="-2.93001">
        <ele>166</ele>
        <time>2016-03-14T14:26:04Z</time>
      </trkpt>
      <trkpt lat="48.31061" lon="-2.93002">
        <ele>166</ele>
        <time>2016-03-14T14:26:05Z</time>
      </trkpt>
      <trkpt lat="48.31061" lon="-2.93004">
        <ele>166</ele>
        <time>2016-03-14T14:26:06Z</time>
      </trkpt>
      <trkpt lat="48.31061" lon="-2.93006">
        <ele>166</ele>
        <time>2016-03-14T14:26:07Z</time>
      </trkpt>
      <trkpt lat="48.31061" lon="-2.93009">
        <ele>166</ele>
        <time>2016-03-14T14:26:09Z</time>
      </trkpt>
      <trkpt lat="48.31061" lon="-2.93011">
        <ele>166</ele>
        <time>2016-03-14T14:26:10Z</time>
      </trkpt>
      <trkpt lat="48.31061" lon="-2.93012">
        <ele>166</ele>
        <time>2016-03-14T14:26:11Z</time>
      </trkpt>
      <trkpt lat="48.31061" lon="-2.93015">
        <ele>166</ele>
        <time>2016-03-14T14:26:13Z</time>
      </trkpt>
      <trkpt lat="48.31061" lon="-2.93017">
        <ele>166</ele>
        <time>2016-03-14T14:26:14Z</time>
      </trkpt>
      <trkpt lat="48.31061" lon="-2.93019">
        <ele>166</ele>
        <time>2016-03-14T14:26:15Z</time>
      </trkpt>
      <trkpt lat="48.31061" lon="-2.93022">
        <ele>166</ele>
        <time>2016-03-14T14:26:17Z</time>
      </trkpt>
      <trkpt lat="48.31062" lon="-2.93024">
        <ele>166</ele>
        <time>2016-03-14T14:26:18Z</time>
      </trkpt>
      <trkpt lat="48.31062" lon="-2.93026">
        <ele>166</ele>
        <time>2016-03-14T14:26:19Z</time>
      </trkpt>
      <trkpt lat="48.31062" lon="-2.93027">
        <ele>166</ele>
        <time>2016-03-14T14:26:20Z</time>
      </trkpt>
      <trkpt lat="48.31062" lon="-2.93029">
        <ele>166</ele>
        <time>2016-03-14T14:26:21Z</time>
      </trkpt>
      <trkpt lat="48.31062" lon="-2.93032">
        <ele>166</ele>
        <time>2016-03-14T14:26:23Z</time>
      </trkpt>
      <trkpt lat="48.31062" lon="-2.93034">
        <ele>166</ele>
        <time>2016-03-14T14:26:24Z</time>
      </trkpt>
      <trkpt lat="48.31062" lon="-2.93036">
        <ele>166</ele>
        <time>2016-03-14T14:26:25Z</time>
      </trkpt>
      <trkpt lat="48.31062" lon="-2.93037">
        <ele>166</ele>
        <time>2016-03-14T14:26:26Z</time>
      </trkpt>
      <trkpt lat="48.31063" lon="-2.9304">
        <ele>166</ele>
        <time>2016-03-14T14:26:28Z</time>
      </trkpt>
      <trkpt lat="48.31063" lon="-2.93042">
        <ele>166</ele>
        <time>2016-03-14T14:26:29Z</time>
      </trkpt>
      <trkpt lat="48.31063" lon="-2.93044">
        <ele>166</ele>
        <time>2016-03-14T14:26:30Z</time>
      </trkpt>
      <trkpt lat="48.31063" lon="-2.93047">
        <ele>166</ele>
        <time>2016-03-14T14:26:32Z</time>
      </trkpt>
      <trkpt lat="48.31064" lon="-2.93049">
        <ele>166</ele>
        <time>2016-03-14T14:26:33Z</time>
      </trkpt>
      <trkpt lat="48.31064" lon="-2.93051">
        <ele>166</ele>
        <time>2016-03-14T14:26:35Z</time>
      </trkpt>
      <trkpt lat="48.31063" lon="-2.93053">
        <ele>166</ele>
        <time>2016-03-14T14:26:37Z</time>
      </trkpt>
      <trkpt lat="48.31063" lon="-2.93055">
        <ele>166</ele>
        <time>2016-03-14T14:26:40Z</time>
      </trkpt>
      <trkpt lat="48.31063" lon="-2.93057">
        <ele>166</ele>
        <time>2016-03-14T14:26:42Z</time>
      </trkpt>
      <trkpt lat="48.31064" lon="-2.9306">
        <ele>166</ele>
        <time>2016-03-14T14:26:44Z</time>
      </trkpt>
      <trkpt lat="48.31065" lon="-2.93062">
        <ele>166</ele>
        <time>2016-03-14T14:26:45Z</time>
      </trkpt>
      <trkpt lat="48.31065" lon="-2.93064">
        <ele>166</ele>
        <time>2016-03-14T14:26:46Z</time>
      </trkpt>
      <trkpt lat="48.31066" lon="-2.93067">
        <ele>166</ele>
        <time>2016-03-14T14:26:48Z</time>
      </trkpt>
      <trkpt lat="48.31066" lon="-2.93068">
        <ele>166</ele>
        <time>2016-03-14T14:26:49Z</time>
      </trkpt>
      <trkpt lat="48.31066" lon="-2.9307">
        <ele>166</ele>
        <time>2016-03-14T14:26:50Z</time>
      </trkpt>
      <trkpt lat="48.31066" lon="-2.93072">
        <ele>166</ele>
        <time>2016-03-14T14:26:51Z</time>
      </trkpt>
      <trkpt lat="48.31066" lon="-2.93074">
        <ele>166</ele>
        <time>2016-03-14T14:26:52Z</time>
      </trkpt>
      <trkpt lat="48.31066" lon="-2.93075">
        <ele>166</ele>
        <time>2016-03-14T14:26:53Z</time>
      </trkpt>
      <trkpt lat="48.31066" lon="-2.93079">
        <ele>166</ele>
        <time>2016-03-14T14:26:55Z</time>
      </trkpt>
      <trkpt lat="48.31067" lon="-2.9308">
        <ele>166</ele>
        <time>2016-03-14T14:26:56Z</time>
      </trkpt>
      <trkpt lat="48.31067" lon="-2.93082">
        <ele>166</ele>
        <time>2016-03-14T14:26:57Z</time>
      </trkpt>
      <trkpt lat="48.31067" lon="-2.93085">
        <ele>166</ele>
        <time>2016-03-14T14:26:59Z</time>
      </trkpt>
      <trkpt lat="48.31067" lon="-2.93087">
        <ele>166</ele>
        <time>2016-03-14T14:27:00Z</time>
      </trkpt>
      <trkpt lat="48.31067" lon="-2.93089">
        <ele>166</ele>
        <time>2016-03-14T14:27:01Z</time>
      </trkpt>
      <trkpt lat="48.31067" lon="-2.9309">
        <ele>166</ele>
        <time>2016-03-14T14:27:02Z</time>
      </trkpt>
      <trkpt lat="48.31067" lon="-2.93093">
        <ele>166</ele>
        <time>2016-03-14T14:27:04Z</time>
      </trkpt>
      <trkpt lat="48.31067" lon="-2.93095">
        <ele>166</ele>
        <time>2016-03-14T14:27:05Z</time>
      </trkpt>
      <trkpt lat="48.31067" lon="-2.93097">
        <ele>166</ele>
        <time>2016-03-14T14:27:06Z</time>
      </trkpt>
      <trkpt lat="48.31068" lon="-2.931">
        <ele>166</ele>
        <time>2016-03-14T14:27:08Z</time>
      </trkpt>
      <trkpt lat="48.31068" lon="-2.93101">
        <ele>166</ele>
        <time>2016-03-14T14:27:09Z</time>
      </trkpt>
      <trkpt lat="48.31068" lon="-2.93103">
        <ele>166</ele>
        <time>2016-03-14T14:27:10Z</time>
      </trkpt>
      <trkpt lat="48.31068" lon="-2.93106">
        <ele>166</ele>
        <time>2016-03-14T14:27:12Z</time>
      </trkpt>
      <trkpt lat="48.31068" lon="-2.93108">
        <ele>166</ele>
        <time>2016-03-14T14:27:13Z</time>
      </trkpt>
      <trkpt lat="48.31068" lon="-2.93109">
        <ele>166</ele>
        <time>2016-03-14T14:27:14Z</time>
      </trkpt>
      <trkpt lat="48.31068" lon="-2.93111">
        <ele>166</ele>
        <time>2016-03-14T14:27:15Z</time>
      </trkpt>
      <trkpt lat="48.31068" lon="-2.93114">
        <ele>166</ele>
        <time>2016-03-14T14:27:17Z</time>
      </trkpt>
      <trkpt lat="48.31069" lon="-2.93117">
        <ele>166</ele>
        <time>2016-03-14T14:27:19Z</time>
      </trkpt>
      <trkpt lat="48.31069" lon="-2.93119">
        <ele>166</ele>
        <time>2016-03-14T14:27:20Z</time>
      </trkpt>
      <trkpt lat="48.3107" lon="-2.93121">
        <ele>166</ele>
        <time>2016-03-14T14:27:21Z</time>
      </trkpt>
      <trkpt lat="48.3107" lon="-2.93124">
        <ele>166</ele>
        <time>2016-03-14T14:27:23Z</time>
      </trkpt>
      <trkpt lat="48.3107" lon="-2.93125">
        <ele>166</ele>
        <time>2016-03-14T14:27:24Z</time>
      </trkpt>
      <trkpt lat="48.3107" lon="-2.93127">
        <ele>166</ele>
        <time>2016-03-14T14:27:25Z</time>
      </trkpt>
      <trkpt lat="48.3107" lon="-2.93129">
        <ele>166</ele>
        <time>2016-03-14T14:27:26Z</time>
      </trkpt>
      <trkpt lat="48.31071" lon="-2.9313">
        <ele>166</ele>
        <time>2016-03-14T14:27:27Z</time>
      </trkpt>
      <trkpt lat="48.31072" lon="-2.93133">
        <ele>166</ele>
        <time>2016-03-14T14:27:29Z</time>
      </trkpt>
      <trkpt lat="48.31072" lon="-2.93136">
        <ele>166</ele>
        <time>2016-03-14T14:27:31Z</time>
      </trkpt>
      <trkpt lat="48.31072" lon="-2.93138">
        <ele>166</ele>
        <time>2016-03-14T14:27:32Z</time>
      </trkpt>
      <trkpt lat="48.31072" lon="-2.93139">
        <ele>166</ele>
        <time>2016-03-14T14:27:33Z</time>
      </trkpt>
      <trkpt lat="48.31072" lon="-2.93141">
        <ele>166</ele>
        <time>2016-03-14T14:27:34Z</time>
      </trkpt>
      <trkpt lat="48.31072" lon="-2.93143">
        <ele>166</ele>
        <time>2016-03-14T14:27:35Z</time>
      </trkpt>
      <trkpt lat="48.31072" lon="-2.93144">
        <ele>166</ele>
        <time>2016-03-14T14:27:36Z</time>
      </trkpt>
      <trkpt lat="48.31072" lon="-2.93146">
        <ele>166</ele>
        <time>2016-03-14T14:27:37Z</time>
      </trkpt>
      <trkpt lat="48.31073" lon="-2.93148">
        <ele>166</ele>
        <time>2016-03-14T14:27:38Z</time>
      </trkpt>
      <trkpt lat="48.31072" lon="-2.9315">
        <ele>166</ele>
        <time>2016-03-14T14:27:39Z</time>
      </trkpt>
      <trkpt lat="48.31072" lon="-2.93151">
        <ele>166</ele>
        <time>2016-03-14T14:27:40Z</time>
      </trkpt>
      <trkpt lat="48.31072" lon="-2.93153">
        <ele>166</ele>
        <time>2016-03-14T14:27:41Z</time>
      </trkpt>
      <trkpt lat="48.31072" lon="-2.93155">
        <ele>166</ele>
        <time>2016-03-14T14:27:42Z</time>
      </trkpt>
      <trkpt lat="48.31072" lon="-2.93158">
        <ele>166</ele>
        <time>2016-03-14T14:27:44Z</time>
      </trkpt>
      <trkpt lat="48.31072" lon="-2.9316">
        <ele>166</ele>
        <time>2016-03-14T14:27:45Z</time>
      </trkpt>
      <trkpt lat="48.31072" lon="-2.93162">
        <ele>166</ele>
        <time>2016-03-14T14:27:46Z</time>
      </trkpt>
      <trkpt lat="48.31072" lon="-2.93164">
        <ele>166</ele>
        <time>2016-03-14T14:27:47Z</time>
      </trkpt>
      <trkpt lat="48.31072" lon="-2.93165">
        <ele>166</ele>
        <time>2016-03-14T14:27:48Z</time>
      </trkpt>
      <trkpt lat="48.31072" lon="-2.93168">
        <ele>166</ele>
        <time>2016-03-14T14:27:50Z</time>
      </trkpt>
      <trkpt lat="48.31072" lon="-2.9317">
        <ele>166</ele>
        <time>2016-03-14T14:27:51Z</time>
      </trkpt>
      <trkpt lat="48.31071" lon="-2.93173">
        <ele>166</ele>
        <time>2016-03-14T14:27:53Z</time>
      </trkpt>
      <trkpt lat="48.31071" lon="-2.93176">
        <ele>166</ele>
        <time>2016-03-14T14:27:55Z</time>
      </trkpt>
      <trkpt lat="48.3107" lon="-2.93179">
        <ele>166</ele>
        <time>2016-03-14T14:27:57Z</time>
      </trkpt>
      <trkpt lat="48.3107" lon="-2.9318">
        <ele>166</ele>
        <time>2016-03-14T14:27:58Z</time>
      </trkpt>
      <trkpt lat="48.3107" lon="-2.93183">
        <ele>166</ele>
        <time>2016-03-14T14:28:00Z</time>
      </trkpt>
      <trkpt lat="48.3107" lon="-2.93185">
        <ele>166</ele>
        <time>2016-03-14T14:28:01Z</time>
      </trkpt>
      <trkpt lat="48.31069" lon="-2.93187">
        <ele>166</ele>
        <time>2016-03-14T14:28:02Z</time>
      </trkpt>
      <trkpt lat="48.31068" lon="-2.9319">
        <ele>166</ele>
        <time>2016-03-14T14:28:04Z</time>
      </trkpt>
      <trkpt lat="48.31068" lon="-2.93193">
        <ele>166</ele>
        <time>2016-03-14T14:28:06Z</time>
      </trkpt>
      <trkpt lat="48.31068" lon="-2.93194">
        <ele>166</ele>
        <time>2016-03-14T14:28:07Z</time>
      </trkpt>
      <trkpt lat="48.31067" lon="-2.93197">
        <ele>166</ele>
        <time>2016-03-14T14:28:09Z</time>
      </trkpt>
      <trkpt lat="48.31067" lon="-2.93199">
        <ele>166</ele>
        <time>2016-03-14T14:28:11Z</time>
      </trkpt>
      <trkpt lat="48.31066" lon="-2.932">
        <ele>166</ele>
        <time>2016-03-14T14:28:13Z</time>
      </trkpt>
      <trkpt lat="48.31066" lon="-2.93202">
        <ele>166</ele>
        <time>2016-03-14T14:28:16Z</time>
      </trkpt>
      <trkpt lat="48.31065" lon="-2.93204">
        <ele>166</ele>
        <time>2016-03-14T14:28:18Z</time>
      </trkpt>
      <trkpt lat="48.31063" lon="-2.93205">
        <ele>166</ele>
        <time>2016-03-14T14:28:20Z</time>
      </trkpt>
      <trkpt lat="48.31061" lon="-2.93207">
        <ele>166</ele>
        <time>2016-03-14T14:28:22Z</time>
      </trkpt>
      <trkpt lat="48.3106" lon="-2.93209">
        <ele>166</ele>
        <time>2016-03-14T14:28:24Z</time>
      </trkpt>
      <trkpt lat="48.31058" lon="-2.9321">
        <ele>166</ele>
        <time>2016-03-14T14:28:26Z</time>
      </trkpt>
      <trkpt lat="48.31057" lon="-2.93212">
        <ele>166</ele>
        <time>2016-03-14T14:28:28Z</time>
      </trkpt>
      <trkpt lat="48.31055" lon="-2.93214">
        <ele>166</ele>
        <time>2016-03-14T14:28:31Z</time>
      </trkpt>
      <trkpt lat="48.31055" lon="-2.93216">
        <ele>166</ele>
        <time>2016-03-14T14:28:33Z</time>
      </trkpt>
      <trkpt lat="48.31054" lon="-2.93218">
        <ele>166</ele>
        <time>2016-03-14T14:28:38Z</time>
      </trkpt>
      <trkpt lat="48.31052" lon="-2.93218">
        <ele>166</ele>
        <time>2016-03-14T14:28:48Z</time>
      </trkpt>
      <trkpt lat="48.31051" lon="-2.93217">
        <ele>166</ele>
        <time>2016-03-14T14:29:07Z</time>
      </trkpt>
      <trkpt lat="48.31052" lon="-2.93217">
        <ele>166</ele>
        <time>2016-03-14T14:29:44Z</time>
      </trkpt>
      <trkpt lat="48.31051" lon="-2.93219">
        <ele>167</ele>
        <time>2016-03-14T14:30:11Z</time>
      </trkpt>
      <trkpt lat="48.31052" lon="-2.93217">
        <ele>167</ele>
        <time>2016-03-14T14:30:21Z</time>
      </trkpt>
      <trkpt lat="48.31053" lon="-2.93219">
        <ele>167</ele>
        <time>2016-03-14T14:30:36Z</time>
      </trkpt>
      <trkpt lat="48.31053" lon="-2.93222">
        <ele>167</ele>
        <time>2016-03-14T14:30:38Z</time>
      </trkpt>
      <trkpt lat="48.31053" lon="-2.93225">
        <ele>167</ele>
        <time>2016-03-14T14:30:40Z</time>
      </trkpt>
      <trkpt lat="48.31053" lon="-2.93227">
        <ele>167</ele>
        <time>2016-03-14T14:30:41Z</time>
      </trkpt>
      <trkpt lat="48.31054" lon="-2.93228">
        <ele>167</ele>
        <time>2016-03-14T14:30:42Z</time>
      </trkpt>
      <trkpt lat="48.31054" lon="-2.9323">
        <ele>167</ele>
        <time>2016-03-14T14:30:43Z</time>
      </trkpt>
      <trkpt lat="48.31054" lon="-2.93232">
        <ele>167</ele>
        <time>2016-03-14T14:30:44Z</time>
      </trkpt>
      <trkpt lat="48.31054" lon="-2.93234">
        <ele>167</ele>
        <time>2016-03-14T14:30:45Z</time>
      </trkpt>
      <trkpt lat="48.31054" lon="-2.93236">
        <ele>167</ele>
        <time>2016-03-14T14:30:46Z</time>
      </trkpt>
      <trkpt lat="48.31054" lon="-2.93237">
        <ele>167</ele>
        <time>2016-03-14T14:30:47Z</time>
      </trkpt>
      <trkpt lat="48.31054" lon="-2.93239">
        <ele>167</ele>
        <time>2016-03-14T14:30:48Z</time>
      </trkpt>
      <trkpt lat="48.31054" lon="-2.93241">
        <ele>167</ele>
        <time>2016-03-14T14:30:49Z</time>
      </trkpt>
      <trkpt lat="48.31055" lon="-2.93243">
        <ele>167</ele>
        <time>2016-03-14T14:30:50Z</time>
      </trkpt>
      <trkpt lat="48.31055" lon="-2.93245">
        <ele>167</ele>
        <time>2016-03-14T14:30:51Z</time>
      </trkpt>
      <trkpt lat="48.31055" lon="-2.93247">
        <ele>167</ele>
        <time>2016-03-14T14:30:52Z</time>
      </trkpt>
      <trkpt lat="48.31055" lon="-2.93249">
        <ele>167</ele>
        <time>2016-03-14T14:30:53Z</time>
      </trkpt>
      <trkpt lat="48.31055" lon="-2.9325">
        <ele>167</ele>
        <time>2016-03-14T14:30:54Z</time>
      </trkpt>
      <trkpt lat="48.31055" lon="-2.93252">
        <ele>167</ele>
        <time>2016-03-14T14:30:55Z</time>
      </trkpt>
      <trkpt lat="48.31055" lon="-2.93254">
        <ele>167</ele>
        <time>2016-03-14T14:30:56Z</time>
      </trkpt>
      <trkpt lat="48.31055" lon="-2.93256">
        <ele>167</ele>
        <time>2016-03-14T14:30:57Z</time>
      </trkpt>
      <trkpt lat="48.31055" lon="-2.93258">
        <ele>167</ele>
        <time>2016-03-14T14:30:58Z</time>
      </trkpt>
      <trkpt lat="48.31055" lon="-2.9326">
        <ele>167</ele>
        <time>2016-03-14T14:30:59Z</time>
      </trkpt>
      <trkpt lat="48.31055" lon="-2.93261">
        <ele>167</ele>
        <time>2016-03-14T14:31:00Z</time>
      </trkpt>
      <trkpt lat="48.31055" lon="-2.93263">
        <ele>167</ele>
        <time>2016-03-14T14:31:01Z</time>
      </trkpt>
      <trkpt lat="48.31056" lon="-2.93265">
        <ele>167</ele>
        <time>2016-03-14T14:31:02Z</time>
      </trkpt>
      <trkpt lat="48.31056" lon="-2.93267">
        <ele>167</ele>
        <time>2016-03-14T14:31:03Z</time>
      </trkpt>
      <trkpt lat="48.31056" lon="-2.93268">
        <ele>167</ele>
        <time>2016-03-14T14:31:04Z</time>
      </trkpt>
      <trkpt lat="48.31056" lon="-2.9327">
        <ele>167</ele>
        <time>2016-03-14T14:31:05Z</time>
      </trkpt>
      <trkpt lat="48.31056" lon="-2.93272">
        <ele>167</ele>
        <time>2016-03-14T14:31:06Z</time>
      </trkpt>
      <trkpt lat="48.31056" lon="-2.93274">
        <ele>167</ele>
        <time>2016-03-14T14:31:07Z</time>
      </trkpt>
      <trkpt lat="48.31056" lon="-2.93276">
        <ele>167</ele>
        <time>2016-03-14T14:31:08Z</time>
      </trkpt>
      <trkpt lat="48.31056" lon="-2.93278">
        <ele>167</ele>
        <time>2016-03-14T14:31:09Z</time>
      </trkpt>
      <trkpt lat="48.31056" lon="-2.9328">
        <ele>167</ele>
        <time>2016-03-14T14:31:10Z</time>
      </trkpt>
      <trkpt lat="48.31056" lon="-2.93282">
        <ele>167</ele>
        <time>2016-03-14T14:31:11Z</time>
      </trkpt>
      <trkpt lat="48.31056" lon="-2.93284">
        <ele>167</ele>
        <time>2016-03-14T14:31:12Z</time>
      </trkpt>
      <trkpt lat="48.31056" lon="-2.93286">
        <ele>167</ele>
        <time>2016-03-14T14:31:13Z</time>
      </trkpt>
      <trkpt lat="48.31056" lon="-2.93287">
        <ele>167</ele>
        <time>2016-03-14T14:31:14Z</time>
      </trkpt>
      <trkpt lat="48.31056" lon="-2.93289">
        <ele>167</ele>
        <time>2016-03-14T14:31:15Z</time>
      </trkpt>
      <trkpt lat="48.31056" lon="-2.93291">
        <ele>167</ele>
        <time>2016-03-14T14:31:16Z</time>
      </trkpt>
      <trkpt lat="48.31056" lon="-2.93293">
        <ele>167</ele>
        <time>2016-03-14T14:31:17Z</time>
      </trkpt>
      <trkpt lat="48.31056" lon="-2.93295">
        <ele>167</ele>
        <time>2016-03-14T14:31:18Z</time>
      </trkpt>
      <trkpt lat="48.31056" lon="-2.93297">
        <ele>167</ele>
        <time>2016-03-14T14:31:19Z</time>
      </trkpt>
      <trkpt lat="48.31056" lon="-2.93298">
        <ele>167</ele>
        <time>2016-03-14T14:31:20Z</time>
      </trkpt>
      <trkpt lat="48.31056" lon="-2.933">
        <ele>167</ele>
        <time>2016-03-14T14:31:21Z</time>
      </trkpt>
      <trkpt lat="48.31056" lon="-2.93302">
        <ele>167</ele>
        <time>2016-03-14T14:31:22Z</time>
      </trkpt>
      <trkpt lat="48.31056" lon="-2.93304">
        <ele>167</ele>
        <time>2016-03-14T14:31:23Z</time>
      </trkpt>
      <trkpt lat="48.31056" lon="-2.93306">
        <ele>167</ele>
        <time>2016-03-14T14:31:24Z</time>
      </trkpt>
      <trkpt lat="48.31056" lon="-2.93308">
        <ele>167</ele>
        <time>2016-03-14T14:31:25Z</time>
      </trkpt>
      <trkpt lat="48.31056" lon="-2.9331">
        <ele>167</ele>
        <time>2016-03-14T14:31:26Z</time>
      </trkpt>
      <trkpt lat="48.31056" lon="-2.93312">
        <ele>167</ele>
        <time>2016-03-14T14:31:27Z</time>
      </trkpt>
      <trkpt lat="48.31056" lon="-2.93314">
        <ele>167</ele>
        <time>2016-03-14T14:31:28Z</time>
      </trkpt>
      <trkpt lat="48.31056" lon="-2.93316">
        <ele>167</ele>
        <time>2016-03-14T14:31:29Z</time>
      </trkpt>
      <trkpt lat="48.31057" lon="-2.93318">
        <ele>167</ele>
        <time>2016-03-14T14:31:30Z</time>
      </trkpt>
      <trkpt lat="48.31057" lon="-2.9332">
        <ele>167</ele>
        <time>2016-03-14T14:31:31Z</time>
      </trkpt>
      <trkpt lat="48.31057" lon="-2.93321">
        <ele>167</ele>
        <time>2016-03-14T14:31:32Z</time>
      </trkpt>
      <trkpt lat="48.31057" lon="-2.93323">
        <ele>167</ele>
        <time>2016-03-14T14:31:33Z</time>
      </trkpt>
      <trkpt lat="48.31057" lon="-2.93325">
        <ele>167</ele>
        <time>2016-03-14T14:31:34Z</time>
      </trkpt>
      <trkpt lat="48.31057" lon="-2.93326">
        <ele>167</ele>
        <time>2016-03-14T14:31:35Z</time>
      </trkpt>
      <trkpt lat="48.31057" lon="-2.93328">
        <ele>167</ele>
        <time>2016-03-14T14:31:36Z</time>
      </trkpt>
      <trkpt lat="48.31057" lon="-2.9333">
        <ele>167</ele>
        <time>2016-03-14T14:31:37Z</time>
      </trkpt>
      <trkpt lat="48.31057" lon="-2.93332">
        <ele>167</ele>
        <time>2016-03-14T14:31:38Z</time>
      </trkpt>
      <trkpt lat="48.31058" lon="-2.93334">
        <ele>167</ele>
        <time>2016-03-14T14:31:39Z</time>
      </trkpt>
      <trkpt lat="48.31058" lon="-2.93336">
        <ele>167</ele>
        <time>2016-03-14T14:31:40Z</time>
      </trkpt>
      <trkpt lat="48.31058" lon="-2.93339">
        <ele>167</ele>
        <time>2016-03-14T14:31:42Z</time>
      </trkpt>
      <trkpt lat="48.31058" lon="-2.93341">
        <ele>167</ele>
        <time>2016-03-14T14:31:43Z</time>
      </trkpt>
      <trkpt lat="48.31058" lon="-2.93342">
        <ele>167</ele>
        <time>2016-03-14T14:31:44Z</time>
      </trkpt>
      <trkpt lat="48.31058" lon="-2.93344">
        <ele>167</ele>
        <time>2016-03-14T14:31:45Z</time>
      </trkpt>
      <trkpt lat="48.31059" lon="-2.93347">
        <ele>167</ele>
        <time>2016-03-14T14:31:46Z</time>
      </trkpt>
      <trkpt lat="48.31059" lon="-2.93348">
        <ele>167</ele>
        <time>2016-03-14T14:31:47Z</time>
      </trkpt>
      <trkpt lat="48.31059" lon="-2.9335">
        <ele>167</ele>
        <time>2016-03-14T14:31:48Z</time>
      </trkpt>
      <trkpt lat="48.31059" lon="-2.93353">
        <ele>167</ele>
        <time>2016-03-14T14:31:50Z</time>
      </trkpt>
      <trkpt lat="48.3106" lon="-2.93356">
        <ele>167</ele>
        <time>2016-03-14T14:31:52Z</time>
      </trkpt>
      <trkpt lat="48.3106" lon="-2.93358">
        <ele>167</ele>
        <time>2016-03-14T14:31:53Z</time>
      </trkpt>
      <trkpt lat="48.3106" lon="-2.9336">
        <ele>167</ele>
        <time>2016-03-14T14:31:54Z</time>
      </trkpt>
      <trkpt lat="48.31061" lon="-2.93361">
        <ele>167</ele>
        <time>2016-03-14T14:31:55Z</time>
      </trkpt>
      <trkpt lat="48.31061" lon="-2.93363">
        <ele>167</ele>
        <time>2016-03-14T14:31:56Z</time>
      </trkpt>
      <trkpt lat="48.31061" lon="-2.93365">
        <ele>167</ele>
        <time>2016-03-14T14:31:57Z</time>
      </trkpt>
      <trkpt lat="48.31062" lon="-2.93367">
        <ele>167</ele>
        <time>2016-03-14T14:31:58Z</time>
      </trkpt>
      <trkpt lat="48.31062" lon="-2.93368">
        <ele>167</ele>
        <time>2016-03-14T14:31:59Z</time>
      </trkpt>
      <trkpt lat="48.31062" lon="-2.9337">
        <ele>166</ele>
        <time>2016-03-14T14:32:00Z</time>
      </trkpt>
      <trkpt lat="48.31063" lon="-2.93372">
        <ele>166</ele>
        <time>2016-03-14T14:32:01Z</time>
      </trkpt>
      <trkpt lat="48.31063" lon="-2.93374">
        <ele>166</ele>
        <time>2016-03-14T14:32:02Z</time>
      </trkpt>
      <trkpt lat="48.31063" lon="-2.93376">
        <ele>166</ele>
        <time>2016-03-14T14:32:03Z</time>
      </trkpt>
      <trkpt lat="48.31064" lon="-2.93379">
        <ele>166</ele>
        <time>2016-03-14T14:32:05Z</time>
      </trkpt>
      <trkpt lat="48.31065" lon="-2.93382">
        <ele>166</ele>
        <time>2016-03-14T14:32:07Z</time>
      </trkpt>
      <trkpt lat="48.31067" lon="-2.93386">
        <ele>166</ele>
        <time>2016-03-14T14:32:09Z</time>
      </trkpt>
      <trkpt lat="48.31068" lon="-2.93387">
        <ele>166</ele>
        <time>2016-03-14T14:32:10Z</time>
      </trkpt>
      <trkpt lat="48.31069" lon="-2.9339">
        <ele>166</ele>
        <time>2016-03-14T14:32:12Z</time>
      </trkpt>
      <trkpt lat="48.3107" lon="-2.93393">
        <ele>166</ele>
        <time>2016-03-14T14:32:14Z</time>
      </trkpt>
      <trkpt lat="48.31072" lon="-2.93396">
        <ele>166</ele>
        <time>2016-03-14T14:32:16Z</time>
      </trkpt>
      <trkpt lat="48.31073" lon="-2.93399">
        <ele>166</ele>
        <time>2016-03-14T14:32:18Z</time>
      </trkpt>
      <trkpt lat="48.31074" lon="-2.93402">
        <ele>166</ele>
        <time>2016-03-14T14:32:20Z</time>
      </trkpt>
      <trkpt lat="48.31075" lon="-2.93404">
        <ele>166</ele>
        <time>2016-03-14T14:32:21Z</time>
      </trkpt>
      <trkpt lat="48.31075" lon="-2.93405">
        <ele>166</ele>
        <time>2016-03-14T14:32:22Z</time>
      </trkpt>
      <trkpt lat="48.31076" lon="-2.93407">
        <ele>166</ele>
        <time>2016-03-14T14:32:23Z</time>
      </trkpt>
      <trkpt lat="48.31078" lon="-2.9341">
        <ele>166</ele>
        <time>2016-03-14T14:32:25Z</time>
      </trkpt>
      <trkpt lat="48.31079" lon="-2.93412">
        <ele>166</ele>
        <time>2016-03-14T14:32:27Z</time>
      </trkpt>
      <trkpt lat="48.31081" lon="-2.93415">
        <ele>166</ele>
        <time>2016-03-14T14:32:29Z</time>
      </trkpt>
      <trkpt lat="48.31081" lon="-2.93417">
        <ele>166</ele>
        <time>2016-03-14T14:32:30Z</time>
      </trkpt>
      <trkpt lat="48.31083" lon="-2.9342">
        <ele>166</ele>
        <time>2016-03-14T14:32:32Z</time>
      </trkpt>
      <trkpt lat="48.31084" lon="-2.93423">
        <ele>166</ele>
        <time>2016-03-14T14:32:34Z</time>
      </trkpt>
      <trkpt lat="48.31086" lon="-2.93425">
        <ele>166</ele>
        <time>2016-03-14T14:32:36Z</time>
      </trkpt>
      <trkpt lat="48.31088" lon="-2.93428">
        <ele>166</ele>
        <time>2016-03-14T14:32:38Z</time>
      </trkpt>
      <trkpt lat="48.31089" lon="-2.93429">
        <ele>166</ele>
        <time>2016-03-14T14:32:39Z</time>
      </trkpt>
      <trkpt lat="48.31091" lon="-2.93431">
        <ele>166</ele>
        <time>2016-03-14T14:32:41Z</time>
      </trkpt>
      <trkpt lat="48.31092" lon="-2.93432">
        <ele>166</ele>
        <time>2016-03-14T14:32:42Z</time>
      </trkpt>
      <trkpt lat="48.31093" lon="-2.93434">
        <ele>166</ele>
        <time>2016-03-14T14:32:43Z</time>
      </trkpt>
      <trkpt lat="48.31095" lon="-2.93436">
        <ele>166</ele>
        <time>2016-03-14T14:32:45Z</time>
      </trkpt>
      <trkpt lat="48.31096" lon="-2.93438">
        <ele>166</ele>
        <time>2016-03-14T14:32:47Z</time>
      </trkpt>
      <trkpt lat="48.31098" lon="-2.9344">
        <ele>166</ele>
        <time>2016-03-14T14:32:49Z</time>
      </trkpt>
      <trkpt lat="48.311" lon="-2.93441">
        <ele>166</ele>
        <time>2016-03-14T14:32:51Z</time>
      </trkpt>
      <trkpt lat="48.31102" lon="-2.93443">
        <ele>166</ele>
        <time>2016-03-14T14:32:53Z</time>
      </trkpt>
      <trkpt lat="48.31104" lon="-2.93444">
        <ele>166</ele>
        <time>2016-03-14T14:32:55Z</time>
      </trkpt>
      <trkpt lat="48.31106" lon="-2.93446">
        <ele>166</ele>
        <time>2016-03-14T14:32:57Z</time>
      </trkpt>
      <trkpt lat="48.31107" lon="-2.93446">
        <ele>166</ele>
        <time>2016-03-14T14:32:58Z</time>
      </trkpt>
      <trkpt lat="48.31109" lon="-2.93447">
        <ele>165</ele>
        <time>2016-03-14T14:33:00Z</time>
      </trkpt>
      <trkpt lat="48.31111" lon="-2.93448">
        <ele>165</ele>
        <time>2016-03-14T14:33:02Z</time>
      </trkpt>
      <trkpt lat="48.31112" lon="-2.93448">
        <ele>164</ele>
        <time>2016-03-14T14:33:03Z</time>
      </trkpt>
      <trkpt lat="48.31113" lon="-2.93449">
        <ele>164</ele>
        <time>2016-03-14T14:33:04Z</time>
      </trkpt>
      <trkpt lat="48.31115" lon="-2.9345">
        <ele>164</ele>
        <time>2016-03-14T14:33:06Z</time>
      </trkpt>
      <trkpt lat="48.31117" lon="-2.9345">
        <ele>164</ele>
        <time>2016-03-14T14:33:08Z</time>
      </trkpt>
      <trkpt lat="48.31119" lon="-2.9345">
        <ele>164</ele>
        <time>2016-03-14T14:33:10Z</time>
      </trkpt>
      <trkpt lat="48.31121" lon="-2.9345">
        <ele>164</ele>
        <time>2016-03-14T14:33:11Z</time>
      </trkpt>
      <trkpt lat="48.31122" lon="-2.9345">
        <ele>164</ele>
        <time>2016-03-14T14:33:12Z</time>
      </trkpt>
      <trkpt lat="48.31124" lon="-2.93451">
        <ele>164</ele>
        <time>2016-03-14T14:33:14Z</time>
      </trkpt>
      <trkpt lat="48.31125" lon="-2.93451">
        <ele>164</ele>
        <time>2016-03-14T14:33:15Z</time>
      </trkpt>
      <trkpt lat="48.31126" lon="-2.93451">
        <ele>164</ele>
        <time>2016-03-14T14:33:16Z</time>
      </trkpt>
      <trkpt lat="48.31128" lon="-2.93452">
        <ele>164</ele>
        <time>2016-03-14T14:33:17Z</time>
      </trkpt>
      <trkpt lat="48.31129" lon="-2.93452">
        <ele>164</ele>
        <time>2016-03-14T14:33:18Z</time>
      </trkpt>
      <trkpt lat="48.3113" lon="-2.93452">
        <ele>164</ele>
        <time>2016-03-14T14:33:19Z</time>
      </trkpt>
      <trkpt lat="48.31132" lon="-2.93453">
        <ele>164</ele>
        <time>2016-03-14T14:33:20Z</time>
      </trkpt>
      <trkpt lat="48.31133" lon="-2.93454">
        <ele>164</ele>
        <time>2016-03-14T14:33:21Z</time>
      </trkpt>
      <trkpt lat="48.31135" lon="-2.93455">
        <ele>164</ele>
        <time>2016-03-14T14:33:23Z</time>
      </trkpt>
      <trkpt lat="48.31137" lon="-2.93455">
        <ele>164</ele>
        <time>2016-03-14T14:33:25Z</time>
      </trkpt>
      <trkpt lat="48.31139" lon="-2.93455">
        <ele>164</ele>
        <time>2016-03-14T14:33:27Z</time>
      </trkpt>
      <trkpt lat="48.31141" lon="-2.93456">
        <ele>164</ele>
        <time>2016-03-14T14:33:29Z</time>
      </trkpt>
      <trkpt lat="48.31143" lon="-2.93456">
        <ele>164</ele>
        <time>2016-03-14T14:33:31Z</time>
      </trkpt>
      <trkpt lat="48.31144" lon="-2.93457">
        <ele>164</ele>
        <time>2016-03-14T14:33:33Z</time>
      </trkpt>
      <trkpt lat="48.31147" lon="-2.93457">
        <ele>164</ele>
        <time>2016-03-14T14:33:35Z</time>
      </trkpt>
      <trkpt lat="48.31148" lon="-2.93457">
        <ele>164</ele>
        <time>2016-03-14T14:33:36Z</time>
      </trkpt>
      <trkpt lat="48.31149" lon="-2.93457">
        <ele>164</ele>
        <time>2016-03-14T14:33:37Z</time>
      </trkpt>
      <trkpt lat="48.3115" lon="-2.93458">
        <ele>164</ele>
        <time>2016-03-14T14:33:38Z</time>
      </trkpt>
      <trkpt lat="48.31152" lon="-2.93458">
        <ele>164</ele>
        <time>2016-03-14T14:33:40Z</time>
      </trkpt>
      <trkpt lat="48.31154" lon="-2.93458">
        <ele>164</ele>
        <time>2016-03-14T14:33:41Z</time>
      </trkpt>
      <trkpt lat="48.31155" lon="-2.93458">
        <ele>164</ele>
        <time>2016-03-14T14:33:42Z</time>
      </trkpt>
      <trkpt lat="48.31156" lon="-2.93459">
        <ele>164</ele>
        <time>2016-03-14T14:33:43Z</time>
      </trkpt>
      <trkpt lat="48.31158" lon="-2.93459">
        <ele>164</ele>
        <time>2016-03-14T14:33:45Z</time>
      </trkpt>
      <trkpt lat="48.3116" lon="-2.9346">
        <ele>164</ele>
        <time>2016-03-14T14:33:47Z</time>
      </trkpt>
      <trkpt lat="48.31162" lon="-2.93461">
        <ele>164</ele>
        <time>2016-03-14T14:33:49Z</time>
      </trkpt>
      <trkpt lat="48.31164" lon="-2.93461">
        <ele>164</ele>
        <time>2016-03-14T14:33:51Z</time>
      </trkpt>
      <trkpt lat="48.31165" lon="-2.93462">
        <ele>164</ele>
        <time>2016-03-14T14:33:52Z</time>
      </trkpt>
      <trkpt lat="48.31166" lon="-2.93462">
        <ele>164</ele>
        <time>2016-03-14T14:33:53Z</time>
      </trkpt>
      <trkpt lat="48.31168" lon="-2.93463">
        <ele>164</ele>
        <time>2016-03-14T14:33:54Z</time>
      </trkpt>
      <trkpt lat="48.31169" lon="-2.93463">
        <ele>164</ele>
        <time>2016-03-14T14:33:55Z</time>
      </trkpt>
      <trkpt lat="48.3117" lon="-2.93463">
        <ele>164</ele>
        <time>2016-03-14T14:33:56Z</time>
      </trkpt>
      <trkpt lat="48.31171" lon="-2.93464">
        <ele>164</ele>
        <time>2016-03-14T14:33:57Z</time>
      </trkpt>
      <trkpt lat="48.31173" lon="-2.93464">
        <ele>164</ele>
        <time>2016-03-14T14:33:58Z</time>
      </trkpt>
      <trkpt lat="48.31174" lon="-2.93464">
        <ele>164</ele>
        <time>2016-03-14T14:33:59Z</time>
      </trkpt>
      <trkpt lat="48.31175" lon="-2.93465">
        <ele>164</ele>
        <time>2016-03-14T14:34:00Z</time>
      </trkpt>
      <trkpt lat="48.31178" lon="-2.93466">
        <ele>164</ele>
        <time>2016-03-14T14:34:02Z</time>
      </trkpt>
      <trkpt lat="48.31179" lon="-2.93467">
        <ele>164</ele>
        <time>2016-03-14T14:34:04Z</time>
      </trkpt>
      <trkpt lat="48.31181" lon="-2.93468">
        <ele>163</ele>
        <time>2016-03-14T14:34:06Z</time>
      </trkpt>
      <trkpt lat="48.31183" lon="-2.93469">
        <ele>163</ele>
        <time>2016-03-14T14:34:08Z</time>
      </trkpt>
      <trkpt lat="48.31184" lon="-2.93469">
        <ele>163</ele>
        <time>2016-03-14T14:34:09Z</time>
      </trkpt>
      <trkpt lat="48.31187" lon="-2.9347">
        <ele>162</ele>
        <time>2016-03-14T14:34:11Z</time>
      </trkpt>
      <trkpt lat="48.31189" lon="-2.9347">
        <ele>162</ele>
        <time>2016-03-14T14:34:12Z</time>
      </trkpt>
      <trkpt lat="48.3119" lon="-2.9347">
        <ele>162</ele>
        <time>2016-03-14T14:34:13Z</time>
      </trkpt>
      <trkpt lat="48.31191" lon="-2.9347">
        <ele>162</ele>
        <time>2016-03-14T14:34:14Z</time>
      </trkpt>
      <trkpt lat="48.31192" lon="-2.93471">
        <ele>162</ele>
        <time>2016-03-14T14:34:15Z</time>
      </trkpt>
      <trkpt lat="48.31194" lon="-2.93472">
        <ele>162</ele>
        <time>2016-03-14T14:34:17Z</time>
      </trkpt>
      <trkpt lat="48.31197" lon="-2.93472">
        <ele>161</ele>
        <time>2016-03-14T14:34:19Z</time>
      </trkpt>
      <trkpt lat="48.31199" lon="-2.93473">
        <ele>161</ele>
        <time>2016-03-14T14:34:21Z</time>
      </trkpt>
      <trkpt lat="48.312" lon="-2.93474">
        <ele>161</ele>
        <time>2016-03-14T14:34:22Z</time>
      </trkpt>
      <trkpt lat="48.31202" lon="-2.93475">
        <ele>161</ele>
        <time>2016-03-14T14:34:24Z</time>
      </trkpt>
      <trkpt lat="48.31203" lon="-2.93476">
        <ele>161</ele>
        <time>2016-03-14T14:34:25Z</time>
      </trkpt>
      <trkpt lat="48.31205" lon="-2.93478">
        <ele>161</ele>
        <time>2016-03-14T14:34:27Z</time>
      </trkpt>
      <trkpt lat="48.31206" lon="-2.93478">
        <ele>161</ele>
        <time>2016-03-14T14:34:29Z</time>
      </trkpt>
      <trkpt lat="48.31207" lon="-2.9348">
        <ele>160</ele>
        <time>2016-03-14T14:34:31Z</time>
      </trkpt>
      <trkpt lat="48.31209" lon="-2.93481">
        <ele>160</ele>
        <time>2016-03-14T14:34:33Z</time>
      </trkpt>
      <trkpt lat="48.31211" lon="-2.93482">
        <ele>160</ele>
        <time>2016-03-14T14:34:34Z</time>
      </trkpt>
      <trkpt lat="48.31212" lon="-2.93483">
        <ele>160</ele>
        <time>2016-03-14T14:34:36Z</time>
      </trkpt>
      <trkpt lat="48.31214" lon="-2.93485">
        <ele>160</ele>
        <time>2016-03-14T14:34:38Z</time>
      </trkpt>
      <trkpt lat="48.31215" lon="-2.93485">
        <ele>160</ele>
        <time>2016-03-14T14:34:39Z</time>
      </trkpt>
      <trkpt lat="48.31217" lon="-2.93486">
        <ele>160</ele>
        <time>2016-03-14T14:34:40Z</time>
      </trkpt>
      <trkpt lat="48.31219" lon="-2.93487">
        <ele>160</ele>
        <time>2016-03-14T14:34:42Z</time>
      </trkpt>
      <trkpt lat="48.31221" lon="-2.93489">
        <ele>160</ele>
        <time>2016-03-14T14:34:44Z</time>
      </trkpt>
      <trkpt lat="48.31224" lon="-2.9349">
        <ele>160</ele>
        <time>2016-03-14T14:34:46Z</time>
      </trkpt>
      <trkpt lat="48.31225" lon="-2.9349">
        <ele>160</ele>
        <time>2016-03-14T14:34:47Z</time>
      </trkpt>
      <trkpt lat="48.31226" lon="-2.93491">
        <ele>160</ele>
        <time>2016-03-14T14:34:48Z</time>
      </trkpt>
      <trkpt lat="48.31228" lon="-2.93491">
        <ele>160</ele>
        <time>2016-03-14T14:34:49Z</time>
      </trkpt>
      <trkpt lat="48.31229" lon="-2.93491">
        <ele>160</ele>
        <time>2016-03-14T14:34:50Z</time>
      </trkpt>
      <trkpt lat="48.31231" lon="-2.93491">
        <ele>160</ele>
        <time>2016-03-14T14:34:51Z</time>
      </trkpt>
      <trkpt lat="48.31232" lon="-2.93492">
        <ele>160</ele>
        <time>2016-03-14T14:34:52Z</time>
      </trkpt>
      <trkpt lat="48.31233" lon="-2.93492">
        <ele>160</ele>
        <time>2016-03-14T14:34:53Z</time>
      </trkpt>
      <trkpt lat="48.31234" lon="-2.93493">
        <ele>160</ele>
        <time>2016-03-14T14:34:54Z</time>
      </trkpt>
      <trkpt lat="48.31236" lon="-2.93493">
        <ele>160</ele>
        <time>2016-03-14T14:34:55Z</time>
      </trkpt>
      <trkpt lat="48.31237" lon="-2.93494">
        <ele>160</ele>
        <time>2016-03-14T14:34:57Z</time>
      </trkpt>
      <trkpt lat="48.31239" lon="-2.93495">
        <ele>160</ele>
        <time>2016-03-14T14:34:59Z</time>
      </trkpt>
      <trkpt lat="48.3124" lon="-2.93496">
        <ele>160</ele>
        <time>2016-03-14T14:35:00Z</time>
      </trkpt>
      <trkpt lat="48.31242" lon="-2.93496">
        <ele>160</ele>
        <time>2016-03-14T14:35:01Z</time>
      </trkpt>
      <trkpt lat="48.31243" lon="-2.93496">
        <ele>160</ele>
        <time>2016-03-14T14:35:02Z</time>
      </trkpt>
      <trkpt lat="48.31244" lon="-2.93497">
        <ele>160</ele>
        <time>2016-03-14T14:35:03Z</time>
      </trkpt>
      <trkpt lat="48.31245" lon="-2.93497">
        <ele>160</ele>
        <time>2016-03-14T14:35:04Z</time>
      </trkpt>
      <trkpt lat="48.31247" lon="-2.93498">
        <ele>160</ele>
        <time>2016-03-14T14:35:05Z</time>
      </trkpt>
      <trkpt lat="48.31248" lon="-2.93498">
        <ele>160</ele>
        <time>2016-03-14T14:35:06Z</time>
      </trkpt>
      <trkpt lat="48.3125" lon="-2.93498">
        <ele>160</ele>
        <time>2016-03-14T14:35:08Z</time>
      </trkpt>
      <trkpt lat="48.31252" lon="-2.93499">
        <ele>160</ele>
        <time>2016-03-14T14:35:09Z</time>
      </trkpt>
      <trkpt lat="48.31253" lon="-2.935">
        <ele>160</ele>
        <time>2016-03-14T14:35:10Z</time>
      </trkpt>
      <trkpt lat="48.31254" lon="-2.93501">
        <ele>160</ele>
        <time>2016-03-14T14:35:11Z</time>
      </trkpt>
      <trkpt lat="48.31255" lon="-2.93501">
        <ele>160</ele>
        <time>2016-03-14T14:35:12Z</time>
      </trkpt>
      <trkpt lat="48.31257" lon="-2.93501">
        <ele>160</ele>
        <time>2016-03-14T14:35:13Z</time>
      </trkpt>
      <trkpt lat="48.31258" lon="-2.93502">
        <ele>160</ele>
        <time>2016-03-14T14:35:14Z</time>
      </trkpt>
      <trkpt lat="48.31259" lon="-2.93503">
        <ele>160</ele>
        <time>2016-03-14T14:35:15Z</time>
      </trkpt>
      <trkpt lat="48.31261" lon="-2.93504">
        <ele>160</ele>
        <time>2016-03-14T14:35:17Z</time>
      </trkpt>
      <trkpt lat="48.31263" lon="-2.93506">
        <ele>160</ele>
        <time>2016-03-14T14:35:19Z</time>
      </trkpt>
      <trkpt lat="48.31265" lon="-2.93508">
        <ele>160</ele>
        <time>2016-03-14T14:35:21Z</time>
      </trkpt>
      <trkpt lat="48.31267" lon="-2.93509">
        <ele>160</ele>
        <time>2016-03-14T14:35:23Z</time>
      </trkpt>
      <trkpt lat="48.31269" lon="-2.9351">
        <ele>160</ele>
        <time>2016-03-14T14:35:25Z</time>
      </trkpt>
      <trkpt lat="48.3127" lon="-2.9351">
        <ele>160</ele>
        <time>2016-03-14T14:35:26Z</time>
      </trkpt>
      <trkpt lat="48.31271" lon="-2.93511">
        <ele>160</ele>
        <time>2016-03-14T14:35:27Z</time>
      </trkpt>
      <trkpt lat="48.31272" lon="-2.93512">
        <ele>160</ele>
        <time>2016-03-14T14:35:28Z</time>
      </trkpt>
      <trkpt lat="48.31274" lon="-2.93513">
        <ele>160</ele>
        <time>2016-03-14T14:35:30Z</time>
      </trkpt>
      <trkpt lat="48.31276" lon="-2.93513">
        <ele>160</ele>
        <time>2016-03-14T14:35:31Z</time>
      </trkpt>
      <trkpt lat="48.31277" lon="-2.93514">
        <ele>160</ele>
        <time>2016-03-14T14:35:32Z</time>
      </trkpt>
      <trkpt lat="48.31278" lon="-2.93514">
        <ele>160</ele>
        <time>2016-03-14T14:35:33Z</time>
      </trkpt>
      <trkpt lat="48.31279" lon="-2.93515">
        <ele>160</ele>
        <time>2016-03-14T14:35:34Z</time>
      </trkpt>
      <trkpt lat="48.31281" lon="-2.93515">
        <ele>160</ele>
        <time>2016-03-14T14:35:35Z</time>
      </trkpt>
      <trkpt lat="48.31282" lon="-2.93516">
        <ele>160</ele>
        <time>2016-03-14T14:35:36Z</time>
      </trkpt>
      <trkpt lat="48.31284" lon="-2.93517">
        <ele>160</ele>
        <time>2016-03-14T14:35:38Z</time>
      </trkpt>
      <trkpt lat="48.31285" lon="-2.93517">
        <ele>160</ele>
        <time>2016-03-14T14:35:39Z</time>
      </trkpt>
      <trkpt lat="48.31287" lon="-2.93518">
        <ele>160</ele>
        <time>2016-03-14T14:35:40Z</time>
      </trkpt>
      <trkpt lat="48.31289" lon="-2.93519">
        <ele>160</ele>
        <time>2016-03-14T14:35:42Z</time>
      </trkpt>
      <trkpt lat="48.3129" lon="-2.9352">
        <ele>160</ele>
        <time>2016-03-14T14:35:44Z</time>
      </trkpt>
      <trkpt lat="48.31292" lon="-2.93521">
        <ele>160</ele>
        <time>2016-03-14T14:35:46Z</time>
      </trkpt>
      <trkpt lat="48.31294" lon="-2.93521">
        <ele>160</ele>
        <time>2016-03-14T14:35:47Z</time>
      </trkpt>
      <trkpt lat="48.31295" lon="-2.93521">
        <ele>160</ele>
        <time>2016-03-14T14:35:48Z</time>
      </trkpt>
      <trkpt lat="48.31297" lon="-2.93522">
        <ele>160</ele>
        <time>2016-03-14T14:35:50Z</time>
      </trkpt>
      <trkpt lat="48.31298" lon="-2.93522">
        <ele>160</ele>
        <time>2016-03-14T14:35:50Z</time>
      </trkpt>
      <trkpt lat="48.31299" lon="-2.93522">
        <ele>160</ele>
        <time>2016-03-14T14:35:51Z</time>
      </trkpt>
      <trkpt lat="48.313" lon="-2.93523">
        <ele>160</ele>
        <time>2016-03-14T14:35:52Z</time>
      </trkpt>
      <trkpt lat="48.31302" lon="-2.93523">
        <ele>160</ele>
        <time>2016-03-14T14:35:53Z</time>
      </trkpt>
      <trkpt lat="48.31303" lon="-2.93523">
        <ele>160</ele>
        <time>2016-03-14T14:35:54Z</time>
      </trkpt>
      <trkpt lat="48.31304" lon="-2.93524">
        <ele>160</ele>
        <time>2016-03-14T14:35:55Z</time>
      </trkpt>
      <trkpt lat="48.31305" lon="-2.93524">
        <ele>160</ele>
        <time>2016-03-14T14:35:56Z</time>
      </trkpt>
      <trkpt lat="48.31307" lon="-2.93525">
        <ele>160</ele>
        <time>2016-03-14T14:35:57Z</time>
      </trkpt>
      <trkpt lat="48.31309" lon="-2.93526">
        <ele>160</ele>
        <time>2016-03-14T14:35:58Z</time>
      </trkpt>
      <trkpt lat="48.31311" lon="-2.93527">
        <ele>160</ele>
        <time>2016-03-14T14:36:00Z</time>
      </trkpt>
      <trkpt lat="48.31312" lon="-2.93527">
        <ele>161</ele>
        <time>2016-03-14T14:36:01Z</time>
      </trkpt>
      <trkpt lat="48.31313" lon="-2.93527">
        <ele>161</ele>
        <time>2016-03-14T14:36:02Z</time>
      </trkpt>
      <trkpt lat="48.31315" lon="-2.93528">
        <ele>161</ele>
        <time>2016-03-14T14:36:04Z</time>
      </trkpt>
      <trkpt lat="48.31317" lon="-2.93529">
        <ele>162</ele>
        <time>2016-03-14T14:36:06Z</time>
      </trkpt>
      <trkpt lat="48.31318" lon="-2.9353">
        <ele>162</ele>
        <time>2016-03-14T14:36:08Z</time>
      </trkpt>
      <trkpt lat="48.31319" lon="-2.9353">
        <ele>162</ele>
        <time>2016-03-14T14:36:09Z</time>
      </trkpt>
      <trkpt lat="48.31321" lon="-2.9353">
        <ele>162</ele>
        <time>2016-03-14T14:36:10Z</time>
      </trkpt>
      <trkpt lat="48.31322" lon="-2.93531">
        <ele>162</ele>
        <time>2016-03-14T14:36:12Z</time>
      </trkpt>
      <trkpt lat="48.31324" lon="-2.93532">
        <ele>162</ele>
        <time>2016-03-14T14:36:14Z</time>
      </trkpt>
      <trkpt lat="48.31326" lon="-2.93532">
        <ele>162</ele>
        <time>2016-03-14T14:36:15Z</time>
      </trkpt>
      <trkpt lat="48.31327" lon="-2.93533">
        <ele>162</ele>
        <time>2016-03-14T14:36:17Z</time>
      </trkpt>
      <trkpt lat="48.31329" lon="-2.93534">
        <ele>162</ele>
        <time>2016-03-14T14:36:19Z</time>
      </trkpt>
      <trkpt lat="48.31332" lon="-2.93534">
        <ele>162</ele>
        <time>2016-03-14T14:36:21Z</time>
      </trkpt>
      <trkpt lat="48.31333" lon="-2.93534">
        <ele>162</ele>
        <time>2016-03-14T14:36:22Z</time>
      </trkpt>
      <trkpt lat="48.31334" lon="-2.93535">
        <ele>162</ele>
        <time>2016-03-14T14:36:23Z</time>
      </trkpt>
      <trkpt lat="48.31335" lon="-2.93535">
        <ele>162</ele>
        <time>2016-03-14T14:36:24Z</time>
      </trkpt>
      <trkpt lat="48.31337" lon="-2.93535">
        <ele>162</ele>
        <time>2016-03-14T14:36:25Z</time>
      </trkpt>
      <trkpt lat="48.31339" lon="-2.93535">
        <ele>162</ele>
        <time>2016-03-14T14:36:27Z</time>
      </trkpt>
      <trkpt lat="48.31341" lon="-2.93536">
        <ele>162</ele>
        <time>2016-03-14T14:36:29Z</time>
      </trkpt>
      <trkpt lat="48.31343" lon="-2.93537">
        <ele>162</ele>
        <time>2016-03-14T14:36:31Z</time>
      </trkpt>
      <trkpt lat="48.31345" lon="-2.93538">
        <ele>162</ele>
        <time>2016-03-14T14:36:33Z</time>
      </trkpt>
      <trkpt lat="48.31346" lon="-2.93539">
        <ele>162</ele>
        <time>2016-03-14T14:36:34Z</time>
      </trkpt>
      <trkpt lat="48.31347" lon="-2.9354">
        <ele>162</ele>
        <time>2016-03-14T14:36:35Z</time>
      </trkpt>
      <trkpt lat="48.31348" lon="-2.9354">
        <ele>162</ele>
        <time>2016-03-14T14:36:36Z</time>
      </trkpt>
      <trkpt lat="48.3135" lon="-2.9354">
        <ele>162</ele>
        <time>2016-03-14T14:36:37Z</time>
      </trkpt>
      <trkpt lat="48.31351" lon="-2.93541">
        <ele>162</ele>
        <time>2016-03-14T14:36:38Z</time>
      </trkpt>
      <trkpt lat="48.31353" lon="-2.93542">
        <ele>162</ele>
        <time>2016-03-14T14:36:40Z</time>
      </trkpt>
      <trkpt lat="48.31354" lon="-2.93543">
        <ele>162</ele>
        <time>2016-03-14T14:36:42Z</time>
      </trkpt>
      <trkpt lat="48.31355" lon="-2.93544">
        <ele>162</ele>
        <time>2016-03-14T14:36:43Z</time>
      </trkpt>
      <trkpt lat="48.31356" lon="-2.93544">
        <ele>162</ele>
        <time>2016-03-14T14:36:44Z</time>
      </trkpt>
      <trkpt lat="48.31358" lon="-2.93545">
        <ele>162</ele>
        <time>2016-03-14T14:36:45Z</time>
      </trkpt>
      <trkpt lat="48.31359" lon="-2.93546">
        <ele>162</ele>
        <time>2016-03-14T14:36:46Z</time>
      </trkpt>
      <trkpt lat="48.3136" lon="-2.93546">
        <ele>162</ele>
        <time>2016-03-14T14:36:47Z</time>
      </trkpt>
      <trkpt lat="48.31361" lon="-2.93547">
        <ele>162</ele>
        <time>2016-03-14T14:36:48Z</time>
      </trkpt>
      <trkpt lat="48.31363" lon="-2.93548">
        <ele>162</ele>
        <time>2016-03-14T14:36:49Z</time>
      </trkpt>
      <trkpt lat="48.31364" lon="-2.9355">
        <ele>162</ele>
        <time>2016-03-14T14:36:51Z</time>
      </trkpt>
      <trkpt lat="48.31366" lon="-2.93553">
        <ele>162</ele>
        <time>2016-03-14T14:36:53Z</time>
      </trkpt>
      <trkpt lat="48.31367" lon="-2.93554">
        <ele>162</ele>
        <time>2016-03-14T14:36:55Z</time>
      </trkpt>
      <trkpt lat="48.31369" lon="-2.93556">
        <ele>162</ele>
        <time>2016-03-14T14:36:57Z</time>
      </trkpt>
      <trkpt lat="48.31371" lon="-2.93558">
        <ele>162</ele>
        <time>2016-03-14T14:36:59Z</time>
      </trkpt>
      <trkpt lat="48.31373" lon="-2.9356">
        <ele>162</ele>
        <time>2016-03-14T14:37:01Z</time>
      </trkpt>
      <trkpt lat="48.31374" lon="-2.93562">
        <ele>162</ele>
        <time>2016-03-14T14:37:03Z</time>
      </trkpt>
      <trkpt lat="48.31376" lon="-2.93563">
        <ele>162</ele>
        <time>2016-03-14T14:37:04Z</time>
      </trkpt>
      <trkpt lat="48.31377" lon="-2.93564">
        <ele>162</ele>
        <time>2016-03-14T14:37:05Z</time>
      </trkpt>
      <trkpt lat="48.31379" lon="-2.93565">
        <ele>162</ele>
        <time>2016-03-14T14:37:07Z</time>
      </trkpt>
      <trkpt lat="48.3138" lon="-2.93566">
        <ele>162</ele>
        <time>2016-03-14T14:37:08Z</time>
      </trkpt>
      <trkpt lat="48.31381" lon="-2.93567">
        <ele>162</ele>
        <time>2016-03-14T14:37:09Z</time>
      </trkpt>
      <trkpt lat="48.31383" lon="-2.93569">
        <ele>162</ele>
        <time>2016-03-14T14:37:11Z</time>
      </trkpt>
      <trkpt lat="48.31385" lon="-2.93572">
        <ele>162</ele>
        <time>2016-03-14T14:37:13Z</time>
      </trkpt>
      <trkpt lat="48.31386" lon="-2.93573">
        <ele>162</ele>
        <time>2016-03-14T14:37:14Z</time>
      </trkpt>
      <trkpt lat="48.31387" lon="-2.93574">
        <ele>162</ele>
        <time>2016-03-14T14:37:15Z</time>
      </trkpt>
      <trkpt lat="48.31388" lon="-2.93575">
        <ele>162</ele>
        <time>2016-03-14T14:37:16Z</time>
      </trkpt>
      <trkpt lat="48.3139" lon="-2.93577">
        <ele>162</ele>
        <time>2016-03-14T14:37:18Z</time>
      </trkpt>
      <trkpt lat="48.31393" lon="-2.93579">
        <ele>162</ele>
        <time>2016-03-14T14:37:20Z</time>
      </trkpt>
      <trkpt lat="48.31395" lon="-2.93581">
        <ele>162</ele>
        <time>2016-03-14T14:37:22Z</time>
      </trkpt>
      <trkpt lat="48.31396" lon="-2.93583">
        <ele>162</ele>
        <time>2016-03-14T14:37:24Z</time>
      </trkpt>
      <trkpt lat="48.31398" lon="-2.93585">
        <ele>162</ele>
        <time>2016-03-14T14:37:26Z</time>
      </trkpt>
      <trkpt lat="48.314" lon="-2.93586">
        <ele>162</ele>
        <time>2016-03-14T14:37:28Z</time>
      </trkpt>
      <trkpt lat="48.31402" lon="-2.93588">
        <ele>162</ele>
        <time>2016-03-14T14:37:30Z</time>
      </trkpt>
      <trkpt lat="48.31404" lon="-2.93591">
        <ele>162</ele>
        <time>2016-03-14T14:37:32Z</time>
      </trkpt>
      <trkpt lat="48.31405" lon="-2.93594">
        <ele>162</ele>
        <time>2016-03-14T14:37:34Z</time>
      </trkpt>
      <trkpt lat="48.31408" lon="-2.93595">
        <ele>162</ele>
        <time>2016-03-14T14:37:36Z</time>
      </trkpt>
      <trkpt lat="48.31409" lon="-2.93597">
        <ele>162</ele>
        <time>2016-03-14T14:37:38Z</time>
      </trkpt>
      <trkpt lat="48.31411" lon="-2.93599">
        <ele>162</ele>
        <time>2016-03-14T14:37:40Z</time>
      </trkpt>
      <trkpt lat="48.31412" lon="-2.93601">
        <ele>162</ele>
        <time>2016-03-14T14:37:42Z</time>
      </trkpt>
      <trkpt lat="48.31414" lon="-2.93603">
        <ele>162</ele>
        <time>2016-03-14T14:37:44Z</time>
      </trkpt>
      <trkpt lat="48.31416" lon="-2.93606">
        <ele>162</ele>
        <time>2016-03-14T14:37:46Z</time>
      </trkpt>
      <trkpt lat="48.31418" lon="-2.93608">
        <ele>162</ele>
        <time>2016-03-14T14:37:48Z</time>
      </trkpt>
      <trkpt lat="48.31419" lon="-2.93611">
        <ele>162</ele>
        <time>2016-03-14T14:37:50Z</time>
      </trkpt>
      <trkpt lat="48.31421" lon="-2.93613">
        <ele>162</ele>
        <time>2016-03-14T14:37:52Z</time>
      </trkpt>
      <trkpt lat="48.31423" lon="-2.93616">
        <ele>162</ele>
        <time>2016-03-14T14:37:54Z</time>
      </trkpt>
      <trkpt lat="48.31424" lon="-2.93618">
        <ele>162</ele>
        <time>2016-03-14T14:37:56Z</time>
      </trkpt>
      <trkpt lat="48.31426" lon="-2.9362">
        <ele>162</ele>
        <time>2016-03-14T14:37:58Z</time>
      </trkpt>
      <trkpt lat="48.31427" lon="-2.93622">
        <ele>162</ele>
        <time>2016-03-14T14:38:00Z</time>
      </trkpt>
      <trkpt lat="48.31429" lon="-2.93625">
        <ele>162</ele>
        <time>2016-03-14T14:38:02Z</time>
      </trkpt>
      <trkpt lat="48.3143" lon="-2.93629">
        <ele>162</ele>
        <time>2016-03-14T14:38:04Z</time>
      </trkpt>
      <trkpt lat="48.31431" lon="-2.9363">
        <ele>162</ele>
        <time>2016-03-14T14:38:05Z</time>
      </trkpt>
      <trkpt lat="48.31433" lon="-2.93633">
        <ele>162</ele>
        <time>2016-03-14T14:38:07Z</time>
      </trkpt>
      <trkpt lat="48.31435" lon="-2.93635">
        <ele>162</ele>
        <time>2016-03-14T14:38:09Z</time>
      </trkpt>
      <trkpt lat="48.31436" lon="-2.93638">
        <ele>162</ele>
        <time>2016-03-14T14:38:11Z</time>
      </trkpt>
      <trkpt lat="48.31438" lon="-2.9364">
        <ele>162</ele>
        <time>2016-03-14T14:38:13Z</time>
      </trkpt>
      <trkpt lat="48.31439" lon="-2.93643">
        <ele>162</ele>
        <time>2016-03-14T14:38:15Z</time>
      </trkpt>
      <trkpt lat="48.3144" lon="-2.93646">
        <ele>162</ele>
        <time>2016-03-14T14:38:17Z</time>
      </trkpt>
      <trkpt lat="48.31442" lon="-2.93649">
        <ele>162</ele>
        <time>2016-03-14T14:38:19Z</time>
      </trkpt>
      <trkpt lat="48.31443" lon="-2.93652">
        <ele>162</ele>
        <time>2016-03-14T14:38:21Z</time>
      </trkpt>
      <trkpt lat="48.31444" lon="-2.93655">
        <ele>162</ele>
        <time>2016-03-14T14:38:23Z</time>
      </trkpt>
      <trkpt lat="48.31445" lon="-2.93658">
        <ele>162</ele>
        <time>2016-03-14T14:38:25Z</time>
      </trkpt>
      <trkpt lat="48.31445" lon="-2.93661">
        <ele>162</ele>
        <time>2016-03-14T14:38:27Z</time>
      </trkpt>
      <trkpt lat="48.31446" lon="-2.93663">
        <ele>162</ele>
        <time>2016-03-14T14:38:28Z</time>
      </trkpt>
      <trkpt lat="48.31446" lon="-2.93664">
        <ele>162</ele>
        <time>2016-03-14T14:38:29Z</time>
      </trkpt>
      <trkpt lat="48.31446" lon="-2.93666">
        <ele>162</ele>
        <time>2016-03-14T14:38:30Z</time>
      </trkpt>
      <trkpt lat="48.31446" lon="-2.93669">
        <ele>162</ele>
        <time>2016-03-14T14:38:32Z</time>
      </trkpt>
      <trkpt lat="48.31447" lon="-2.93672">
        <ele>162</ele>
        <time>2016-03-14T14:38:34Z</time>
      </trkpt>
      <trkpt lat="48.31447" lon="-2.93674">
        <ele>162</ele>
        <time>2016-03-14T14:38:35Z</time>
      </trkpt>
      <trkpt lat="48.31447" lon="-2.93675">
        <ele>162</ele>
        <time>2016-03-14T14:38:36Z</time>
      </trkpt>
      <trkpt lat="48.31447" lon="-2.93678">
        <ele>162</ele>
        <time>2016-03-14T14:38:38Z</time>
      </trkpt>
      <trkpt lat="48.31447" lon="-2.93682">
        <ele>162</ele>
        <time>2016-03-14T14:38:40Z</time>
      </trkpt>
      <trkpt lat="48.31447" lon="-2.93683">
        <ele>162</ele>
        <time>2016-03-14T14:38:41Z</time>
      </trkpt>
      <trkpt lat="48.31447" lon="-2.93685">
        <ele>162</ele>
        <time>2016-03-14T14:38:42Z</time>
      </trkpt>
      <trkpt lat="48.31447" lon="-2.93687">
        <ele>162</ele>
        <time>2016-03-14T14:38:43Z</time>
      </trkpt>
      <trkpt lat="48.31447" lon="-2.93689">
        <ele>162</ele>
        <time>2016-03-14T14:38:44Z</time>
      </trkpt>
      <trkpt lat="48.31447" lon="-2.9369">
        <ele>162</ele>
        <time>2016-03-14T14:38:45Z</time>
      </trkpt>
      <trkpt lat="48.31447" lon="-2.93692">
        <ele>162</ele>
        <time>2016-03-14T14:38:46Z</time>
      </trkpt>
      <trkpt lat="48.31447" lon="-2.93694">
        <ele>162</ele>
        <time>2016-03-14T14:38:47Z</time>
      </trkpt>
      <trkpt lat="48.31447" lon="-2.93696">
        <ele>162</ele>
        <time>2016-03-14T14:38:48Z</time>
      </trkpt>
      <trkpt lat="48.31447" lon="-2.93697">
        <ele>162</ele>
        <time>2016-03-14T14:38:49Z</time>
      </trkpt>
      <trkpt lat="48.31447" lon="-2.93699">
        <ele>162</ele>
        <time>2016-03-14T14:38:50Z</time>
      </trkpt>
      <trkpt lat="48.31447" lon="-2.93702">
        <ele>162</ele>
        <time>2016-03-14T14:38:52Z</time>
      </trkpt>
      <trkpt lat="48.31447" lon="-2.93704">
        <ele>162</ele>
        <time>2016-03-14T14:38:53Z</time>
      </trkpt>
      <trkpt lat="48.31447" lon="-2.93706">
        <ele>162</ele>
        <time>2016-03-14T14:38:54Z</time>
      </trkpt>
      <trkpt lat="48.31447" lon="-2.93707">
        <ele>162</ele>
        <time>2016-03-14T14:38:55Z</time>
      </trkpt>
      <trkpt lat="48.31447" lon="-2.93709">
        <ele>162</ele>
        <time>2016-03-14T14:38:56Z</time>
      </trkpt>
      <trkpt lat="48.31446" lon="-2.93711">
        <ele>162</ele>
        <time>2016-03-14T14:38:57Z</time>
      </trkpt>
      <trkpt lat="48.31446" lon="-2.93713">
        <ele>162</ele>
        <time>2016-03-14T14:38:58Z</time>
      </trkpt>
      <trkpt lat="48.31446" lon="-2.93715">
        <ele>162</ele>
        <time>2016-03-14T14:38:59Z</time>
      </trkpt>
      <trkpt lat="48.31446" lon="-2.93717">
        <ele>162</ele>
        <time>2016-03-14T14:39:00Z</time>
      </trkpt>
      <trkpt lat="48.31447" lon="-2.93719">
        <ele>162</ele>
        <time>2016-03-14T14:39:01Z</time>
      </trkpt>
      <trkpt lat="48.31447" lon="-2.9372">
        <ele>162</ele>
        <time>2016-03-14T14:39:02Z</time>
      </trkpt>
      <trkpt lat="48.31447" lon="-2.93722">
        <ele>162</ele>
        <time>2016-03-14T14:39:03Z</time>
      </trkpt>
      <trkpt lat="48.31446" lon="-2.93724">
        <ele>162</ele>
        <time>2016-03-14T14:39:04Z</time>
      </trkpt>
      <trkpt lat="48.31446" lon="-2.93725">
        <ele>162</ele>
        <time>2016-03-14T14:39:05Z</time>
      </trkpt>
      <trkpt lat="48.31446" lon="-2.93727">
        <ele>163</ele>
        <time>2016-03-14T14:39:06Z</time>
      </trkpt>
      <trkpt lat="48.31446" lon="-2.93729">
        <ele>163</ele>
        <time>2016-03-14T14:39:07Z</time>
      </trkpt>
      <trkpt lat="48.31446" lon="-2.93731">
        <ele>163</ele>
        <time>2016-03-14T14:39:08Z</time>
      </trkpt>
      <trkpt lat="48.31446" lon="-2.93733">
        <ele>163</ele>
        <time>2016-03-14T14:39:09Z</time>
      </trkpt>
      <trkpt lat="48.31446" lon="-2.93736">
        <ele>163</ele>
        <time>2016-03-14T14:39:11Z</time>
      </trkpt>
      <trkpt lat="48.31446" lon="-2.93737">
        <ele>163</ele>
        <time>2016-03-14T14:39:12Z</time>
      </trkpt>
      <trkpt lat="48.31446" lon="-2.93739">
        <ele>163</ele>
        <time>2016-03-14T14:39:13Z</time>
      </trkpt>
      <trkpt lat="48.31446" lon="-2.93741">
        <ele>163</ele>
        <time>2016-03-14T14:39:14Z</time>
      </trkpt>
      <trkpt lat="48.31446" lon="-2.93743">
        <ele>163</ele>
        <time>2016-03-14T14:39:15Z</time>
      </trkpt>
      <trkpt lat="48.31446" lon="-2.93745">
        <ele>163</ele>
        <time>2016-03-14T14:39:16Z</time>
      </trkpt>
      <trkpt lat="48.31446" lon="-2.93746">
        <ele>163</ele>
        <time>2016-03-14T14:39:17Z</time>
      </trkpt>
      <trkpt lat="48.31446" lon="-2.93748">
        <ele>163</ele>
        <time>2016-03-14T14:39:18Z</time>
      </trkpt>
      <trkpt lat="48.31446" lon="-2.9375">
        <ele>164</ele>
        <time>2016-03-14T14:39:19Z</time>
      </trkpt>
      <trkpt lat="48.31446" lon="-2.93752">
        <ele>164</ele>
        <time>2016-03-14T14:39:20Z</time>
      </trkpt>
      <trkpt lat="48.31446" lon="-2.93754">
        <ele>164</ele>
        <time>2016-03-14T14:39:21Z</time>
      </trkpt>
      <trkpt lat="48.31446" lon="-2.93756">
        <ele>164</ele>
        <time>2016-03-14T14:39:22Z</time>
      </trkpt>
      <trkpt lat="48.31445" lon="-2.93757">
        <ele>164</ele>
        <time>2016-03-14T14:39:23Z</time>
      </trkpt>
      <trkpt lat="48.31445" lon="-2.93759">
        <ele>164</ele>
        <time>2016-03-14T14:39:24Z</time>
      </trkpt>
      <trkpt lat="48.31445" lon="-2.9376">
        <ele>164</ele>
        <time>2016-03-14T14:39:25Z</time>
      </trkpt>
      <trkpt lat="48.31445" lon="-2.93762">
        <ele>164</ele>
        <time>2016-03-14T14:39:26Z</time>
      </trkpt>
      <trkpt lat="48.31445" lon="-2.93764">
        <ele>164</ele>
        <time>2016-03-14T14:39:27Z</time>
      </trkpt>
      <trkpt lat="48.31445" lon="-2.93766">
        <ele>164</ele>
        <time>2016-03-14T14:39:28Z</time>
      </trkpt>
      <trkpt lat="48.31445" lon="-2.93767">
        <ele>164</ele>
        <time>2016-03-14T14:39:29Z</time>
      </trkpt>
      <trkpt lat="48.31445" lon="-2.93769">
        <ele>164</ele>
        <time>2016-03-14T14:39:30Z</time>
      </trkpt>
      <trkpt lat="48.31445" lon="-2.93772">
        <ele>165</ele>
        <time>2016-03-14T14:39:32Z</time>
      </trkpt>
      <trkpt lat="48.31445" lon="-2.93774">
        <ele>165</ele>
        <time>2016-03-14T14:39:33Z</time>
      </trkpt>
      <trkpt lat="48.31445" lon="-2.93776">
        <ele>165</ele>
        <time>2016-03-14T14:39:34Z</time>
      </trkpt>
      <trkpt lat="48.31445" lon="-2.93777">
        <ele>165</ele>
        <time>2016-03-14T14:39:35Z</time>
      </trkpt>
      <trkpt lat="48.31445" lon="-2.93779">
        <ele>165</ele>
        <time>2016-03-14T14:39:36Z</time>
      </trkpt>
      <trkpt lat="48.31445" lon="-2.93782">
        <ele>165</ele>
        <time>2016-03-14T14:39:38Z</time>
      </trkpt>
      <trkpt lat="48.31444" lon="-2.93784">
        <ele>165</ele>
        <time>2016-03-14T14:39:39Z</time>
      </trkpt>
      <trkpt lat="48.31444" lon="-2.93786">
        <ele>165</ele>
        <time>2016-03-14T14:39:40Z</time>
      </trkpt>
      <trkpt lat="48.31444" lon="-2.93788">
        <ele>165</ele>
        <time>2016-03-14T14:39:41Z</time>
      </trkpt>
      <trkpt lat="48.31444" lon="-2.93789">
        <ele>165</ele>
        <time>2016-03-14T14:39:42Z</time>
      </trkpt>
      <trkpt lat="48.31444" lon="-2.93791">
        <ele>166</ele>
        <time>2016-03-14T14:39:43Z</time>
      </trkpt>
      <trkpt lat="48.31444" lon="-2.93794">
        <ele>166</ele>
        <time>2016-03-14T14:39:45Z</time>
      </trkpt>
      <trkpt lat="48.31444" lon="-2.93796">
        <ele>166</ele>
        <time>2016-03-14T14:39:46Z</time>
      </trkpt>
      <trkpt lat="48.31444" lon="-2.93797">
        <ele>166</ele>
        <time>2016-03-14T14:39:47Z</time>
      </trkpt>
      <trkpt lat="48.31443" lon="-2.93801">
        <ele>166</ele>
        <time>2016-03-14T14:39:49Z</time>
      </trkpt>
      <trkpt lat="48.31443" lon="-2.93804">
        <ele>166</ele>
        <time>2016-03-14T14:39:51Z</time>
      </trkpt>
      <trkpt lat="48.31443" lon="-2.93806">
        <ele>166</ele>
        <time>2016-03-14T14:39:52Z</time>
      </trkpt>
      <trkpt lat="48.31443" lon="-2.93807">
        <ele>166</ele>
        <time>2016-03-14T14:39:53Z</time>
      </trkpt>
      <trkpt lat="48.31443" lon="-2.93809">
        <ele>166</ele>
        <time>2016-03-14T14:39:54Z</time>
      </trkpt>
      <trkpt lat="48.31443" lon="-2.93811">
        <ele>166</ele>
        <time>2016-03-14T14:39:55Z</time>
      </trkpt>
      <trkpt lat="48.31443" lon="-2.93813">
        <ele>166</ele>
        <time>2016-03-14T14:39:56Z</time>
      </trkpt>
      <trkpt lat="48.31443" lon="-2.93814">
        <ele>166</ele>
        <time>2016-03-14T14:39:57Z</time>
      </trkpt>
      <trkpt lat="48.31443" lon="-2.93816">
        <ele>166</ele>
        <time>2016-03-14T14:39:58Z</time>
      </trkpt>
      <trkpt lat="48.31443" lon="-2.93818">
        <ele>166</ele>
        <time>2016-03-14T14:39:59Z</time>
      </trkpt>
      <trkpt lat="48.31443" lon="-2.9382">
        <ele>166</ele>
        <time>2016-03-14T14:40:00Z</time>
      </trkpt>
      <trkpt lat="48.31443" lon="-2.93822">
        <ele>166</ele>
        <time>2016-03-14T14:40:01Z</time>
      </trkpt>
      <trkpt lat="48.31443" lon="-2.93823">
        <ele>166</ele>
        <time>2016-03-14T14:40:02Z</time>
      </trkpt>
      <trkpt lat="48.31443" lon="-2.93825">
        <ele>166</ele>
        <time>2016-03-14T14:40:03Z</time>
      </trkpt>
      <trkpt lat="48.31443" lon="-2.93827">
        <ele>166</ele>
        <time>2016-03-14T14:40:04Z</time>
      </trkpt>
      <trkpt lat="48.31443" lon="-2.93828">
        <ele>166</ele>
        <time>2016-03-14T14:40:05Z</time>
      </trkpt>
      <trkpt lat="48.31443" lon="-2.93832">
        <ele>166</ele>
        <time>2016-03-14T14:40:07Z</time>
      </trkpt>
      <trkpt lat="48.31443" lon="-2.93833">
        <ele>166</ele>
        <time>2016-03-14T14:40:08Z</time>
      </trkpt>
      <trkpt lat="48.31443" lon="-2.93835">
        <ele>166</ele>
        <time>2016-03-14T14:40:09Z</time>
      </trkpt>
      <trkpt lat="48.31443" lon="-2.93837">
        <ele>167</ele>
        <time>2016-03-14T14:40:10Z</time>
      </trkpt>
      <trkpt lat="48.31443" lon="-2.93839">
        <ele>167</ele>
        <time>2016-03-14T14:40:11Z</time>
      </trkpt>
      <trkpt lat="48.31443" lon="-2.9384">
        <ele>167</ele>
        <time>2016-03-14T14:40:12Z</time>
      </trkpt>
      <trkpt lat="48.31443" lon="-2.93844">
        <ele>167</ele>
        <time>2016-03-14T14:40:14Z</time>
      </trkpt>
      <trkpt lat="48.31443" lon="-2.93846">
        <ele>167</ele>
        <time>2016-03-14T14:40:15Z</time>
      </trkpt>
      <trkpt lat="48.31443" lon="-2.93847">
        <ele>167</ele>
        <time>2016-03-14T14:40:16Z</time>
      </trkpt>
      <trkpt lat="48.31443" lon="-2.93849">
        <ele>167</ele>
        <time>2016-03-14T14:40:17Z</time>
      </trkpt>
      <trkpt lat="48.31443" lon="-2.9385">
        <ele>167</ele>
        <time>2016-03-14T14:40:18Z</time>
      </trkpt>
      <trkpt lat="48.31443" lon="-2.93854">
        <ele>167</ele>
        <time>2016-03-14T14:40:20Z</time>
      </trkpt>
      <trkpt lat="48.31443" lon="-2.93855">
        <ele>167</ele>
        <time>2016-03-14T14:40:21Z</time>
      </trkpt>
      <trkpt lat="48.31443" lon="-2.93857">
        <ele>167</ele>
        <time>2016-03-14T14:40:22Z</time>
      </trkpt>
      <trkpt lat="48.31443" lon="-2.93859">
        <ele>167</ele>
        <time>2016-03-14T14:40:23Z</time>
      </trkpt>
      <trkpt lat="48.31443" lon="-2.93861">
        <ele>167</ele>
        <time>2016-03-14T14:40:24Z</time>
      </trkpt>
      <trkpt lat="48.31443" lon="-2.93862">
        <ele>167</ele>
        <time>2016-03-14T14:40:25Z</time>
      </trkpt>
      <trkpt lat="48.31442" lon="-2.93864">
        <ele>167</ele>
        <time>2016-03-14T14:40:26Z</time>
      </trkpt>
      <trkpt lat="48.31442" lon="-2.93866">
        <ele>167</ele>
        <time>2016-03-14T14:40:27Z</time>
      </trkpt>
      <trkpt lat="48.31442" lon="-2.93868">
        <ele>167</ele>
        <time>2016-03-14T14:40:28Z</time>
      </trkpt>
      <trkpt lat="48.31442" lon="-2.93869">
        <ele>167</ele>
        <time>2016-03-14T14:40:29Z</time>
      </trkpt>
      <trkpt lat="48.31442" lon="-2.93871">
        <ele>167</ele>
        <time>2016-03-14T14:40:30Z</time>
      </trkpt>
      <trkpt lat="48.31442" lon="-2.93873">
        <ele>167</ele>
        <time>2016-03-14T14:40:31Z</time>
      </trkpt>
      <trkpt lat="48.31442" lon="-2.93875">
        <ele>167</ele>
        <time>2016-03-14T14:40:32Z</time>
      </trkpt>
      <trkpt lat="48.31441" lon="-2.93877">
        <ele>167</ele>
        <time>2016-03-14T14:40:33Z</time>
      </trkpt>
      <trkpt lat="48.31441" lon="-2.93879">
        <ele>167</ele>
        <time>2016-03-14T14:40:34Z</time>
      </trkpt>
      <trkpt lat="48.31441" lon="-2.9388">
        <ele>167</ele>
        <time>2016-03-14T14:40:35Z</time>
      </trkpt>
      <trkpt lat="48.31441" lon="-2.93882">
        <ele>167</ele>
        <time>2016-03-14T14:40:36Z</time>
      </trkpt>
      <trkpt lat="48.31441" lon="-2.93884">
        <ele>167</ele>
        <time>2016-03-14T14:40:37Z</time>
      </trkpt>
      <trkpt lat="48.31441" lon="-2.93886">
        <ele>167</ele>
        <time>2016-03-14T14:40:38Z</time>
      </trkpt>
      <trkpt lat="48.31441" lon="-2.93887">
        <ele>167</ele>
        <time>2016-03-14T14:40:39Z</time>
      </trkpt>
      <trkpt lat="48.31441" lon="-2.93889">
        <ele>167</ele>
        <time>2016-03-14T14:40:40Z</time>
      </trkpt>
      <trkpt lat="48.31441" lon="-2.93891">
        <ele>167</ele>
        <time>2016-03-14T14:40:41Z</time>
      </trkpt>
      <trkpt lat="48.3144" lon="-2.93893">
        <ele>167</ele>
        <time>2016-03-14T14:40:42Z</time>
      </trkpt>
      <trkpt lat="48.3144" lon="-2.93895">
        <ele>167</ele>
        <time>2016-03-14T14:40:43Z</time>
      </trkpt>
      <trkpt lat="48.3144" lon="-2.93897">
        <ele>167</ele>
        <time>2016-03-14T14:40:44Z</time>
      </trkpt>
      <trkpt lat="48.3144" lon="-2.93899">
        <ele>167</ele>
        <time>2016-03-14T14:40:45Z</time>
      </trkpt>
      <trkpt lat="48.3144" lon="-2.939">
        <ele>167</ele>
        <time>2016-03-14T14:40:46Z</time>
      </trkpt>
      <trkpt lat="48.3144" lon="-2.93904">
        <ele>167</ele>
        <time>2016-03-14T14:40:48Z</time>
      </trkpt>
      <trkpt lat="48.3144" lon="-2.93905">
        <ele>167</ele>
        <time>2016-03-14T14:40:49Z</time>
      </trkpt>
      <trkpt lat="48.3144" lon="-2.93907">
        <ele>167</ele>
        <time>2016-03-14T14:40:50Z</time>
      </trkpt>
      <trkpt lat="48.3144" lon="-2.93909">
        <ele>167</ele>
        <time>2016-03-14T14:40:51Z</time>
      </trkpt>
      <trkpt lat="48.3144" lon="-2.9391">
        <ele>167</ele>
        <time>2016-03-14T14:40:52Z</time>
      </trkpt>
      <trkpt lat="48.3144" lon="-2.93912">
        <ele>167</ele>
        <time>2016-03-14T14:40:53Z</time>
      </trkpt>
      <trkpt lat="48.3144" lon="-2.93914">
        <ele>167</ele>
        <time>2016-03-14T14:40:54Z</time>
      </trkpt>
      <trkpt lat="48.3144" lon="-2.93917">
        <ele>167</ele>
        <time>2016-03-14T14:40:56Z</time>
      </trkpt>
      <trkpt lat="48.3144" lon="-2.93921">
        <ele>167</ele>
        <time>2016-03-14T14:40:58Z</time>
      </trkpt>
      <trkpt lat="48.3144" lon="-2.93922">
        <ele>167</ele>
        <time>2016-03-14T14:40:59Z</time>
      </trkpt>
      <trkpt lat="48.3144" lon="-2.93924">
        <ele>167</ele>
        <time>2016-03-14T14:41:00Z</time>
      </trkpt>
      <trkpt lat="48.3144" lon="-2.93926">
        <ele>167</ele>
        <time>2016-03-14T14:41:01Z</time>
      </trkpt>
      <trkpt lat="48.3144" lon="-2.93928">
        <ele>167</ele>
        <time>2016-03-14T14:41:02Z</time>
      </trkpt>
      <trkpt lat="48.3144" lon="-2.93931">
        <ele>167</ele>
        <time>2016-03-14T14:41:04Z</time>
      </trkpt>
      <trkpt lat="48.3144" lon="-2.93933">
        <ele>167</ele>
        <time>2016-03-14T14:41:05Z</time>
      </trkpt>
      <trkpt lat="48.3144" lon="-2.93935">
        <ele>167</ele>
        <time>2016-03-14T14:41:06Z</time>
      </trkpt>
      <trkpt lat="48.3144" lon="-2.93937">
        <ele>167</ele>
        <time>2016-03-14T14:41:07Z</time>
      </trkpt>
      <trkpt lat="48.3144" lon="-2.93939">
        <ele>167</ele>
        <time>2016-03-14T14:41:08Z</time>
      </trkpt>
      <trkpt lat="48.3144" lon="-2.9394">
        <ele>167</ele>
        <time>2016-03-14T14:41:09Z</time>
      </trkpt>
      <trkpt lat="48.3144" lon="-2.93942">
        <ele>167</ele>
        <time>2016-03-14T14:41:10Z</time>
      </trkpt>
      <trkpt lat="48.3144" lon="-2.93944">
        <ele>167</ele>
        <time>2016-03-14T14:41:11Z</time>
      </trkpt>
      <trkpt lat="48.3144" lon="-2.93946">
        <ele>167</ele>
        <time>2016-03-14T14:41:12Z</time>
      </trkpt>
      <trkpt lat="48.3144" lon="-2.93948">
        <ele>167</ele>
        <time>2016-03-14T14:41:13Z</time>
      </trkpt>
      <trkpt lat="48.3144" lon="-2.93949">
        <ele>167</ele>
        <time>2016-03-14T14:41:14Z</time>
      </trkpt>
      <trkpt lat="48.3144" lon="-2.93951">
        <ele>167</ele>
        <time>2016-03-14T14:41:15Z</time>
      </trkpt>
      <trkpt lat="48.3144" lon="-2.93953">
        <ele>167</ele>
        <time>2016-03-14T14:41:16Z</time>
      </trkpt>
      <trkpt lat="48.3144" lon="-2.93955">
        <ele>167</ele>
        <time>2016-03-14T14:41:17Z</time>
      </trkpt>
      <trkpt lat="48.3144" lon="-2.93957">
        <ele>167</ele>
        <time>2016-03-14T14:41:18Z</time>
      </trkpt>
      <trkpt lat="48.3144" lon="-2.93958">
        <ele>167</ele>
        <time>2016-03-14T14:41:19Z</time>
      </trkpt>
      <trkpt lat="48.3144" lon="-2.9396">
        <ele>167</ele>
        <time>2016-03-14T14:41:20Z</time>
      </trkpt>
      <trkpt lat="48.3144" lon="-2.93962">
        <ele>167</ele>
        <time>2016-03-14T14:41:21Z</time>
      </trkpt>
      <trkpt lat="48.3144" lon="-2.93964">
        <ele>167</ele>
        <time>2016-03-14T14:41:22Z</time>
      </trkpt>
      <trkpt lat="48.3144" lon="-2.93965">
        <ele>167</ele>
        <time>2016-03-14T14:41:23Z</time>
      </trkpt>
      <trkpt lat="48.3144" lon="-2.93967">
        <ele>167</ele>
        <time>2016-03-14T14:41:24Z</time>
      </trkpt>
      <trkpt lat="48.3144" lon="-2.93969">
        <ele>167</ele>
        <time>2016-03-14T14:41:25Z</time>
      </trkpt>
      <trkpt lat="48.3144" lon="-2.93971">
        <ele>167</ele>
        <time>2016-03-14T14:41:26Z</time>
      </trkpt>
      <trkpt lat="48.3144" lon="-2.93974">
        <ele>167</ele>
        <time>2016-03-14T14:41:28Z</time>
      </trkpt>
      <trkpt lat="48.3144" lon="-2.93976">
        <ele>167</ele>
        <time>2016-03-14T14:41:29Z</time>
      </trkpt>
      <trkpt lat="48.3144" lon="-2.93977">
        <ele>167</ele>
        <time>2016-03-14T14:41:30Z</time>
      </trkpt>
      <trkpt lat="48.3144" lon="-2.9398">
        <ele>167</ele>
        <time>2016-03-14T14:41:31Z</time>
      </trkpt>
      <trkpt lat="48.3144" lon="-2.93982">
        <ele>167</ele>
        <time>2016-03-14T14:41:32Z</time>
      </trkpt>
      <trkpt lat="48.3144" lon="-2.93983">
        <ele>167</ele>
        <time>2016-03-14T14:41:33Z</time>
      </trkpt>
      <trkpt lat="48.31441" lon="-2.93985">
        <ele>167</ele>
        <time>2016-03-14T14:41:34Z</time>
      </trkpt>
      <trkpt lat="48.31441" lon="-2.93987">
        <ele>167</ele>
        <time>2016-03-14T14:41:35Z</time>
      </trkpt>
      <trkpt lat="48.31441" lon="-2.93988">
        <ele>167</ele>
        <time>2016-03-14T14:41:36Z</time>
      </trkpt>
      <trkpt lat="48.31441" lon="-2.9399">
        <ele>167</ele>
        <time>2016-03-14T14:41:37Z</time>
      </trkpt>
      <trkpt lat="48.31441" lon="-2.93992">
        <ele>167</ele>
        <time>2016-03-14T14:41:38Z</time>
      </trkpt>
      <trkpt lat="48.31441" lon="-2.93994">
        <ele>167</ele>
        <time>2016-03-14T14:41:39Z</time>
      </trkpt>
      <trkpt lat="48.31441" lon="-2.93996">
        <ele>167</ele>
        <time>2016-03-14T14:41:40Z</time>
      </trkpt>
      <trkpt lat="48.31441" lon="-2.93997">
        <ele>167</ele>
        <time>2016-03-14T14:41:41Z</time>
      </trkpt>
      <trkpt lat="48.31441" lon="-2.93999">
        <ele>167</ele>
        <time>2016-03-14T14:41:42Z</time>
      </trkpt>
      <trkpt lat="48.31441" lon="-2.94001">
        <ele>167</ele>
        <time>2016-03-14T14:41:43Z</time>
      </trkpt>
      <trkpt lat="48.31441" lon="-2.94004">
        <ele>167</ele>
        <time>2016-03-14T14:41:45Z</time>
      </trkpt>
      <trkpt lat="48.31441" lon="-2.94006">
        <ele>167</ele>
        <time>2016-03-14T14:41:46Z</time>
      </trkpt>
      <trkpt lat="48.31441" lon="-2.94007">
        <ele>167</ele>
        <time>2016-03-14T14:41:47Z</time>
      </trkpt>
      <trkpt lat="48.31442" lon="-2.94009">
        <ele>167</ele>
        <time>2016-03-14T14:41:48Z</time>
      </trkpt>
      <trkpt lat="48.31442" lon="-2.94011">
        <ele>167</ele>
        <time>2016-03-14T14:41:49Z</time>
      </trkpt>
      <trkpt lat="48.31442" lon="-2.94013">
        <ele>167</ele>
        <time>2016-03-14T14:41:50Z</time>
      </trkpt>
      <trkpt lat="48.31442" lon="-2.94014">
        <ele>167</ele>
        <time>2016-03-14T14:41:51Z</time>
      </trkpt>
      <trkpt lat="48.31442" lon="-2.94016">
        <ele>167</ele>
        <time>2016-03-14T14:41:52Z</time>
      </trkpt>
      <trkpt lat="48.31442" lon="-2.94018">
        <ele>167</ele>
        <time>2016-03-14T14:41:53Z</time>
      </trkpt>
      <trkpt lat="48.31442" lon="-2.9402">
        <ele>167</ele>
        <time>2016-03-14T14:41:54Z</time>
      </trkpt>
      <trkpt lat="48.31442" lon="-2.94021">
        <ele>167</ele>
        <time>2016-03-14T14:41:55Z</time>
      </trkpt>
      <trkpt lat="48.31442" lon="-2.94023">
        <ele>167</ele>
        <time>2016-03-14T14:41:56Z</time>
      </trkpt>
      <trkpt lat="48.31442" lon="-2.94024">
        <ele>167</ele>
        <time>2016-03-14T14:41:57Z</time>
      </trkpt>
      <trkpt lat="48.31442" lon="-2.94026">
        <ele>167</ele>
        <time>2016-03-14T14:41:58Z</time>
      </trkpt>
      <trkpt lat="48.31442" lon="-2.94028">
        <ele>167</ele>
        <time>2016-03-14T14:41:59Z</time>
      </trkpt>
      <trkpt lat="48.31442" lon="-2.9403">
        <ele>167</ele>
        <time>2016-03-14T14:42:00Z</time>
      </trkpt>
      <trkpt lat="48.31443" lon="-2.94032">
        <ele>167</ele>
        <time>2016-03-14T14:42:01Z</time>
      </trkpt>
      <trkpt lat="48.31443" lon="-2.94034">
        <ele>167</ele>
        <time>2016-03-14T14:42:02Z</time>
      </trkpt>
      <trkpt lat="48.31443" lon="-2.94035">
        <ele>167</ele>
        <time>2016-03-14T14:42:03Z</time>
      </trkpt>
      <trkpt lat="48.31443" lon="-2.94037">
        <ele>167</ele>
        <time>2016-03-14T14:42:04Z</time>
      </trkpt>
      <trkpt lat="48.31443" lon="-2.94039">
        <ele>167</ele>
        <time>2016-03-14T14:42:05Z</time>
      </trkpt>
      <trkpt lat="48.31443" lon="-2.94041">
        <ele>167</ele>
        <time>2016-03-14T14:42:06Z</time>
      </trkpt>
      <trkpt lat="48.31443" lon="-2.94042">
        <ele>167</ele>
        <time>2016-03-14T14:42:07Z</time>
      </trkpt>
      <trkpt lat="48.31443" lon="-2.94044">
        <ele>167</ele>
        <time>2016-03-14T14:42:08Z</time>
      </trkpt>
      <trkpt lat="48.31443" lon="-2.94046">
        <ele>167</ele>
        <time>2016-03-14T14:42:09Z</time>
      </trkpt>
      <trkpt lat="48.31443" lon="-2.94048">
        <ele>167</ele>
        <time>2016-03-14T14:42:10Z</time>
      </trkpt>
      <trkpt lat="48.31444" lon="-2.94049">
        <ele>167</ele>
        <time>2016-03-14T14:42:11Z</time>
      </trkpt>
      <trkpt lat="48.31444" lon="-2.94051">
        <ele>167</ele>
        <time>2016-03-14T14:42:12Z</time>
      </trkpt>
      <trkpt lat="48.31444" lon="-2.94053">
        <ele>167</ele>
        <time>2016-03-14T14:42:13Z</time>
      </trkpt>
      <trkpt lat="48.31444" lon="-2.94055">
        <ele>167</ele>
        <time>2016-03-14T14:42:14Z</time>
      </trkpt>
      <trkpt lat="48.31444" lon="-2.94056">
        <ele>167</ele>
        <time>2016-03-14T14:42:15Z</time>
      </trkpt>
      <trkpt lat="48.31445" lon="-2.94058">
        <ele>167</ele>
        <time>2016-03-14T14:42:16Z</time>
      </trkpt>
      <trkpt lat="48.31445" lon="-2.9406">
        <ele>167</ele>
        <time>2016-03-14T14:42:17Z</time>
      </trkpt>
      <trkpt lat="48.31445" lon="-2.94062">
        <ele>167</ele>
        <time>2016-03-14T14:42:18Z</time>
      </trkpt>
      <trkpt lat="48.31445" lon="-2.94063">
        <ele>167</ele>
        <time>2016-03-14T14:42:19Z</time>
      </trkpt>
      <trkpt lat="48.31445" lon="-2.94065">
        <ele>167</ele>
        <time>2016-03-14T14:42:20Z</time>
      </trkpt>
      <trkpt lat="48.31445" lon="-2.94068">
        <ele>167</ele>
        <time>2016-03-14T14:42:22Z</time>
      </trkpt>
      <trkpt lat="48.31445" lon="-2.9407">
        <ele>167</ele>
        <time>2016-03-14T14:42:23Z</time>
      </trkpt>
      <trkpt lat="48.31445" lon="-2.94072">
        <ele>167</ele>
        <time>2016-03-14T14:42:24Z</time>
      </trkpt>
      <trkpt lat="48.31445" lon="-2.94074">
        <ele>167</ele>
        <time>2016-03-14T14:42:25Z</time>
      </trkpt>
      <trkpt lat="48.31446" lon="-2.94075">
        <ele>167</ele>
        <time>2016-03-14T14:42:26Z</time>
      </trkpt>
      <trkpt lat="48.31446" lon="-2.94077">
        <ele>167</ele>
        <time>2016-03-14T14:42:27Z</time>
      </trkpt>
      <trkpt lat="48.31446" lon="-2.94079">
        <ele>167</ele>
        <time>2016-03-14T14:42:28Z</time>
      </trkpt>
      <trkpt lat="48.31446" lon="-2.9408">
        <ele>167</ele>
        <time>2016-03-14T14:42:29Z</time>
      </trkpt>
      <trkpt lat="48.31446" lon="-2.94082">
        <ele>167</ele>
        <time>2016-03-14T14:42:30Z</time>
      </trkpt>
      <trkpt lat="48.31446" lon="-2.94084">
        <ele>167</ele>
        <time>2016-03-14T14:42:31Z</time>
      </trkpt>
      <trkpt lat="48.31446" lon="-2.94088">
        <ele>167</ele>
        <time>2016-03-14T14:42:33Z</time>
      </trkpt>
      <trkpt lat="48.31446" lon="-2.94089">
        <ele>167</ele>
        <time>2016-03-14T14:42:34Z</time>
      </trkpt>
      <trkpt lat="48.31446" lon="-2.94091">
        <ele>167</ele>
        <time>2016-03-14T14:42:35Z</time>
      </trkpt>
      <trkpt lat="48.31447" lon="-2.94093">
        <ele>167</ele>
        <time>2016-03-14T14:42:36Z</time>
      </trkpt>
      <trkpt lat="48.31447" lon="-2.94096">
        <ele>167</ele>
        <time>2016-03-14T14:42:38Z</time>
      </trkpt>
      <trkpt lat="48.31447" lon="-2.94098">
        <ele>167</ele>
        <time>2016-03-14T14:42:39Z</time>
      </trkpt>
      <trkpt lat="48.31447" lon="-2.94099">
        <ele>167</ele>
        <time>2016-03-14T14:42:40Z</time>
      </trkpt>
      <trkpt lat="48.31447" lon="-2.94102">
        <ele>167</ele>
        <time>2016-03-14T14:42:42Z</time>
      </trkpt>
      <trkpt lat="48.31448" lon="-2.94106">
        <ele>166</ele>
        <time>2016-03-14T14:42:44Z</time>
      </trkpt>
      <trkpt lat="48.31448" lon="-2.94107">
        <ele>166</ele>
        <time>2016-03-14T14:42:45Z</time>
      </trkpt>
      <trkpt lat="48.31448" lon="-2.94109">
        <ele>166</ele>
        <time>2016-03-14T14:42:46Z</time>
      </trkpt>
      <trkpt lat="48.31448" lon="-2.94111">
        <ele>166</ele>
        <time>2016-03-14T14:42:47Z</time>
      </trkpt>
      <trkpt lat="48.31448" lon="-2.94113">
        <ele>166</ele>
        <time>2016-03-14T14:42:48Z</time>
      </trkpt>
      <trkpt lat="48.31448" lon="-2.94114">
        <ele>166</ele>
        <time>2016-03-14T14:42:49Z</time>
      </trkpt>
      <trkpt lat="48.31448" lon="-2.94116">
        <ele>166</ele>
        <time>2016-03-14T14:42:50Z</time>
      </trkpt>
      <trkpt lat="48.31448" lon="-2.94118">
        <ele>166</ele>
        <time>2016-03-14T14:42:51Z</time>
      </trkpt>
      <trkpt lat="48.31448" lon="-2.94119">
        <ele>166</ele>
        <time>2016-03-14T14:42:52Z</time>
      </trkpt>
      <trkpt lat="48.31449" lon="-2.94121">
        <ele>166</ele>
        <time>2016-03-14T14:42:53Z</time>
      </trkpt>
      <trkpt lat="48.31449" lon="-2.94123">
        <ele>166</ele>
        <time>2016-03-14T14:42:54Z</time>
      </trkpt>
      <trkpt lat="48.31449" lon="-2.94125">
        <ele>166</ele>
        <time>2016-03-14T14:42:55Z</time>
      </trkpt>
      <trkpt lat="48.31449" lon="-2.94127">
        <ele>166</ele>
        <time>2016-03-14T14:42:56Z</time>
      </trkpt>
      <trkpt lat="48.31449" lon="-2.94128">
        <ele>166</ele>
        <time>2016-03-14T14:42:57Z</time>
      </trkpt>
      <trkpt lat="48.31449" lon="-2.9413">
        <ele>166</ele>
        <time>2016-03-14T14:42:58Z</time>
      </trkpt>
      <trkpt lat="48.31449" lon="-2.94132">
        <ele>166</ele>
        <time>2016-03-14T14:42:59Z</time>
      </trkpt>
      <trkpt lat="48.3145" lon="-2.94133">
        <ele>166</ele>
        <time>2016-03-14T14:43:00Z</time>
      </trkpt>
      <trkpt lat="48.3145" lon="-2.94135">
        <ele>166</ele>
        <time>2016-03-14T14:43:01Z</time>
      </trkpt>
      <trkpt lat="48.3145" lon="-2.94137">
        <ele>166</ele>
        <time>2016-03-14T14:43:02Z</time>
      </trkpt>
      <trkpt lat="48.3145" lon="-2.94139">
        <ele>166</ele>
        <time>2016-03-14T14:43:03Z</time>
      </trkpt>
      <trkpt lat="48.3145" lon="-2.94141">
        <ele>166</ele>
        <time>2016-03-14T14:43:04Z</time>
      </trkpt>
      <trkpt lat="48.3145" lon="-2.94143">
        <ele>166</ele>
        <time>2016-03-14T14:43:05Z</time>
      </trkpt>
      <trkpt lat="48.3145" lon="-2.94144">
        <ele>166</ele>
        <time>2016-03-14T14:43:06Z</time>
      </trkpt>
      <trkpt lat="48.3145" lon="-2.94146">
        <ele>166</ele>
        <time>2016-03-14T14:43:07Z</time>
      </trkpt>
      <trkpt lat="48.31451" lon="-2.94147">
        <ele>166</ele>
        <time>2016-03-14T14:43:08Z</time>
      </trkpt>
      <trkpt lat="48.31451" lon="-2.94149">
        <ele>166</ele>
        <time>2016-03-14T14:43:09Z</time>
      </trkpt>
      <trkpt lat="48.31451" lon="-2.94151">
        <ele>166</ele>
        <time>2016-03-14T14:43:10Z</time>
      </trkpt>
      <trkpt lat="48.31451" lon="-2.94153">
        <ele>166</ele>
        <time>2016-03-14T14:43:11Z</time>
      </trkpt>
      <trkpt lat="48.31451" lon="-2.94155">
        <ele>166</ele>
        <time>2016-03-14T14:43:12Z</time>
      </trkpt>
      <trkpt lat="48.31451" lon="-2.94157">
        <ele>166</ele>
        <time>2016-03-14T14:43:13Z</time>
      </trkpt>
      <trkpt lat="48.31451" lon="-2.94158">
        <ele>166</ele>
        <time>2016-03-14T14:43:14Z</time>
      </trkpt>
      <trkpt lat="48.31451" lon="-2.9416">
        <ele>166</ele>
        <time>2016-03-14T14:43:15Z</time>
      </trkpt>
      <trkpt lat="48.31451" lon="-2.94162">
        <ele>166</ele>
        <time>2016-03-14T14:43:16Z</time>
      </trkpt>
      <trkpt lat="48.31451" lon="-2.94163">
        <ele>166</ele>
        <time>2016-03-14T14:43:17Z</time>
      </trkpt>
      <trkpt lat="48.31451" lon="-2.94165">
        <ele>166</ele>
        <time>2016-03-14T14:43:18Z</time>
      </trkpt>
      <trkpt lat="48.31451" lon="-2.94167">
        <ele>166</ele>
        <time>2016-03-14T14:43:19Z</time>
      </trkpt>
      <trkpt lat="48.31452" lon="-2.94169">
        <ele>166</ele>
        <time>2016-03-14T14:43:20Z</time>
      </trkpt>
      <trkpt lat="48.31452" lon="-2.94171">
        <ele>166</ele>
        <time>2016-03-14T14:43:21Z</time>
      </trkpt>
      <trkpt lat="48.31452" lon="-2.94172">
        <ele>166</ele>
        <time>2016-03-14T14:43:22Z</time>
      </trkpt>
      <trkpt lat="48.31452" lon="-2.94174">
        <ele>166</ele>
        <time>2016-03-14T14:43:23Z</time>
      </trkpt>
      <trkpt lat="48.31452" lon="-2.94176">
        <ele>166</ele>
        <time>2016-03-14T14:43:24Z</time>
      </trkpt>
      <trkpt lat="48.31453" lon="-2.94178">
        <ele>166</ele>
        <time>2016-03-14T14:43:25Z</time>
      </trkpt>
      <trkpt lat="48.31453" lon="-2.9418">
        <ele>166</ele>
        <time>2016-03-14T14:43:26Z</time>
      </trkpt>
      <trkpt lat="48.31453" lon="-2.94181">
        <ele>166</ele>
        <time>2016-03-14T14:43:27Z</time>
      </trkpt>
      <trkpt lat="48.31453" lon="-2.94183">
        <ele>166</ele>
        <time>2016-03-14T14:43:28Z</time>
      </trkpt>
      <trkpt lat="48.31453" lon="-2.94185">
        <ele>166</ele>
        <time>2016-03-14T14:43:29Z</time>
      </trkpt>
      <trkpt lat="48.31453" lon="-2.94186">
        <ele>166</ele>
        <time>2016-03-14T14:43:30Z</time>
      </trkpt>
      <trkpt lat="48.31453" lon="-2.94188">
        <ele>166</ele>
        <time>2016-03-14T14:43:31Z</time>
      </trkpt>
      <trkpt lat="48.31453" lon="-2.9419">
        <ele>166</ele>
        <time>2016-03-14T14:43:32Z</time>
      </trkpt>
      <trkpt lat="48.31454" lon="-2.94192">
        <ele>166</ele>
        <time>2016-03-14T14:43:33Z</time>
      </trkpt>
      <trkpt lat="48.31454" lon="-2.94194">
        <ele>166</ele>
        <time>2016-03-14T14:43:34Z</time>
      </trkpt>
      <trkpt lat="48.31454" lon="-2.94195">
        <ele>166</ele>
        <time>2016-03-14T14:43:35Z</time>
      </trkpt>
      <trkpt lat="48.31454" lon="-2.94197">
        <ele>166</ele>
        <time>2016-03-14T14:43:36Z</time>
      </trkpt>
      <trkpt lat="48.31454" lon="-2.94199">
        <ele>166</ele>
        <time>2016-03-14T14:43:37Z</time>
      </trkpt>
      <trkpt lat="48.31455" lon="-2.94202">
        <ele>166</ele>
        <time>2016-03-14T14:43:39Z</time>
      </trkpt>
      <trkpt lat="48.31455" lon="-2.94204">
        <ele>166</ele>
        <time>2016-03-14T14:43:40Z</time>
      </trkpt>
      <trkpt lat="48.31456" lon="-2.94205">
        <ele>166</ele>
        <time>2016-03-14T14:43:41Z</time>
      </trkpt>
      <trkpt lat="48.31456" lon="-2.94207">
        <ele>166</ele>
        <time>2016-03-14T14:43:42Z</time>
      </trkpt>
      <trkpt lat="48.31456" lon="-2.94209">
        <ele>166</ele>
        <time>2016-03-14T14:43:43Z</time>
      </trkpt>
      <trkpt lat="48.31457" lon="-2.94211">
        <ele>166</ele>
        <time>2016-03-14T14:43:44Z</time>
      </trkpt>
      <trkpt lat="48.31457" lon="-2.94214">
        <ele>166</ele>
        <time>2016-03-14T14:43:46Z</time>
      </trkpt>
      <trkpt lat="48.31458" lon="-2.94215">
        <ele>166</ele>
        <time>2016-03-14T14:43:47Z</time>
      </trkpt>
      <trkpt lat="48.31459" lon="-2.94218">
        <ele>166</ele>
        <time>2016-03-14T14:43:49Z</time>
      </trkpt>
      <trkpt lat="48.31459" lon="-2.9422">
        <ele>166</ele>
        <time>2016-03-14T14:43:50Z</time>
      </trkpt>
      <trkpt lat="48.3146" lon="-2.94223">
        <ele>166</ele>
        <time>2016-03-14T14:43:52Z</time>
      </trkpt>
      <trkpt lat="48.3146" lon="-2.94225">
        <ele>166</ele>
        <time>2016-03-14T14:43:53Z</time>
      </trkpt>
      <trkpt lat="48.31461" lon="-2.94228">
        <ele>166</ele>
        <time>2016-03-14T14:43:55Z</time>
      </trkpt>
      <trkpt lat="48.31462" lon="-2.9423">
        <ele>166</ele>
        <time>2016-03-14T14:43:56Z</time>
      </trkpt>
      <trkpt lat="48.31462" lon="-2.94232">
        <ele>166</ele>
        <time>2016-03-14T14:43:57Z</time>
      </trkpt>
      <trkpt lat="48.31464" lon="-2.94235">
        <ele>166</ele>
        <time>2016-03-14T14:43:59Z</time>
      </trkpt>
      <trkpt lat="48.31464" lon="-2.94236">
        <ele>166</ele>
        <time>2016-03-14T14:44:00Z</time>
      </trkpt>
      <trkpt lat="48.31465" lon="-2.94239">
        <ele>166</ele>
        <time>2016-03-14T14:44:02Z</time>
      </trkpt>
      <trkpt lat="48.31467" lon="-2.94242">
        <ele>166</ele>
        <time>2016-03-14T14:44:04Z</time>
      </trkpt>
      <trkpt lat="48.31468" lon="-2.94244">
        <ele>166</ele>
        <time>2016-03-14T14:44:06Z</time>
      </trkpt>
      <trkpt lat="48.31469" lon="-2.94247">
        <ele>166</ele>
        <time>2016-03-14T14:44:08Z</time>
      </trkpt>
      <trkpt lat="48.31471" lon="-2.94249">
        <ele>166</ele>
        <time>2016-03-14T14:44:10Z</time>
      </trkpt>
      <trkpt lat="48.31472" lon="-2.94251">
        <ele>166</ele>
        <time>2016-03-14T14:44:11Z</time>
      </trkpt>
      <trkpt lat="48.31472" lon="-2.94253">
        <ele>166</ele>
        <time>2016-03-14T14:44:12Z</time>
      </trkpt>
      <trkpt lat="48.31474" lon="-2.94255">
        <ele>166</ele>
        <time>2016-03-14T14:44:14Z</time>
      </trkpt>
      <trkpt lat="48.31475" lon="-2.94258">
        <ele>165</ele>
        <time>2016-03-14T14:44:16Z</time>
      </trkpt>
      <trkpt lat="48.31477" lon="-2.94261">
        <ele>165</ele>
        <time>2016-03-14T14:44:18Z</time>
      </trkpt>
      <trkpt lat="48.31478" lon="-2.94263">
        <ele>164</ele>
        <time>2016-03-14T14:44:20Z</time>
      </trkpt>
      <trkpt lat="48.31479" lon="-2.94266">
        <ele>164</ele>
        <time>2016-03-14T14:44:22Z</time>
      </trkpt>
      <trkpt lat="48.3148" lon="-2.94268">
        <ele>163</ele>
        <time>2016-03-14T14:44:24Z</time>
      </trkpt>
      <trkpt lat="48.31482" lon="-2.94271">
        <ele>163</ele>
        <time>2016-03-14T14:44:26Z</time>
      </trkpt>
      <trkpt lat="48.31483" lon="-2.94274">
        <ele>163</ele>
        <time>2016-03-14T14:44:28Z</time>
      </trkpt>
      <trkpt lat="48.31485" lon="-2.94277">
        <ele>162</ele>
        <time>2016-03-14T14:44:30Z</time>
      </trkpt>
      <trkpt lat="48.31486" lon="-2.94279">
        <ele>162</ele>
        <time>2016-03-14T14:44:32Z</time>
      </trkpt>
      <trkpt lat="48.31487" lon="-2.94283">
        <ele>162</ele>
        <time>2016-03-14T14:44:34Z</time>
      </trkpt>
      <trkpt lat="48.31488" lon="-2.94285">
        <ele>162</ele>
        <time>2016-03-14T14:44:36Z</time>
      </trkpt>
      <trkpt lat="48.31489" lon="-2.94288">
        <ele>162</ele>
        <time>2016-03-14T14:44:38Z</time>
      </trkpt>
      <trkpt lat="48.3149" lon="-2.94291">
        <ele>162</ele>
        <time>2016-03-14T14:44:40Z</time>
      </trkpt>
      <trkpt lat="48.3149" lon="-2.94293">
        <ele>162</ele>
        <time>2016-03-14T14:44:41Z</time>
      </trkpt>
      <trkpt lat="48.3149" lon="-2.94295">
        <ele>162</ele>
        <time>2016-03-14T14:44:42Z</time>
      </trkpt>
      <trkpt lat="48.31491" lon="-2.94296">
        <ele>162</ele>
        <time>2016-03-14T14:44:43Z</time>
      </trkpt>
      <trkpt lat="48.31491" lon="-2.94298">
        <ele>162</ele>
        <time>2016-03-14T14:44:44Z</time>
      </trkpt>
      <trkpt lat="48.31491" lon="-2.943">
        <ele>162</ele>
        <time>2016-03-14T14:44:45Z</time>
      </trkpt>
      <trkpt lat="48.31492" lon="-2.94302">
        <ele>162</ele>
        <time>2016-03-14T14:44:46Z</time>
      </trkpt>
      <trkpt lat="48.31493" lon="-2.94305">
        <ele>162</ele>
        <time>2016-03-14T14:44:48Z</time>
      </trkpt>
      <trkpt lat="48.31493" lon="-2.94307">
        <ele>162</ele>
        <time>2016-03-14T14:44:49Z</time>
      </trkpt>
      <trkpt lat="48.31493" lon="-2.94308">
        <ele>162</ele>
        <time>2016-03-14T14:44:50Z</time>
      </trkpt>
      <trkpt lat="48.31493" lon="-2.9431">
        <ele>162</ele>
        <time>2016-03-14T14:44:51Z</time>
      </trkpt>
      <trkpt lat="48.31493" lon="-2.94312">
        <ele>162</ele>
        <time>2016-03-14T14:44:52Z</time>
      </trkpt>
      <trkpt lat="48.31493" lon="-2.94314">
        <ele>162</ele>
        <time>2016-03-14T14:44:53Z</time>
      </trkpt>
      <trkpt lat="48.31494" lon="-2.94316">
        <ele>162</ele>
        <time>2016-03-14T14:44:54Z</time>
      </trkpt>
      <trkpt lat="48.31494" lon="-2.94319">
        <ele>162</ele>
        <time>2016-03-14T14:44:56Z</time>
      </trkpt>
      <trkpt lat="48.31495" lon="-2.94322">
        <ele>162</ele>
        <time>2016-03-14T14:44:58Z</time>
      </trkpt>
      <trkpt lat="48.31495" lon="-2.94324">
        <ele>162</ele>
        <time>2016-03-14T14:44:59Z</time>
      </trkpt>
      <trkpt lat="48.31495" lon="-2.94325">
        <ele>162</ele>
        <time>2016-03-14T14:45:00Z</time>
      </trkpt>
      <trkpt lat="48.31495" lon="-2.94327">
        <ele>162</ele>
        <time>2016-03-14T14:45:01Z</time>
      </trkpt>
      <trkpt lat="48.31496" lon="-2.9433">
        <ele>162</ele>
        <time>2016-03-14T14:45:03Z</time>
      </trkpt>
      <trkpt lat="48.31496" lon="-2.94332">
        <ele>162</ele>
        <time>2016-03-14T14:45:04Z</time>
      </trkpt>
      <trkpt lat="48.31496" lon="-2.94334">
        <ele>162</ele>
        <time>2016-03-14T14:45:05Z</time>
      </trkpt>
      <trkpt lat="48.31497" lon="-2.94337">
        <ele>162</ele>
        <time>2016-03-14T14:45:07Z</time>
      </trkpt>
      <trkpt lat="48.31497" lon="-2.94338">
        <ele>162</ele>
        <time>2016-03-14T14:45:08Z</time>
      </trkpt>
      <trkpt lat="48.31497" lon="-2.9434">
        <ele>162</ele>
        <time>2016-03-14T14:45:09Z</time>
      </trkpt>
      <trkpt lat="48.31497" lon="-2.94343">
        <ele>162</ele>
        <time>2016-03-14T14:45:11Z</time>
      </trkpt>
      <trkpt lat="48.31498" lon="-2.94346">
        <ele>162</ele>
        <time>2016-03-14T14:45:13Z</time>
      </trkpt>
      <trkpt lat="48.31498" lon="-2.94347">
        <ele>162</ele>
        <time>2016-03-14T14:45:15Z</time>
      </trkpt>
      <trkpt lat="48.31497" lon="-2.94349">
        <ele>162</ele>
        <time>2016-03-14T14:45:20Z</time>
      </trkpt>
      <trkpt lat="48.31496" lon="-2.94351">
        <ele>162</ele>
        <time>2016-03-14T14:45:28Z</time>
      </trkpt>
      <trkpt lat="48.31496" lon="-2.94353">
        <ele>164</ele>
        <time>2016-03-14T14:45:42Z</time>
      </trkpt>
      <trkpt lat="48.31497" lon="-2.94354">
        <ele>164</ele>
        <time>2016-03-14T14:45:50Z</time>
      </trkpt>
      <trkpt lat="48.31497" lon="-2.94356">
        <ele>164</ele>
        <time>2016-03-14T14:45:59Z</time>
      </trkpt>
      <trkpt lat="48.31497" lon="-2.94358">
        <ele>165</ele>
        <time>2016-03-14T14:46:02Z</time>
      </trkpt>
      <trkpt lat="48.31497" lon="-2.94356">
        <ele>165</ele>
        <time>2016-03-14T14:46:50Z</time>
      </trkpt>
      <trkpt lat="48.31497" lon="-2.94354">
        <ele>166</ele>
        <time>2016-03-14T14:47:04Z</time>
      </trkpt>
      <trkpt lat="48.31498" lon="-2.94354">
        <ele>167</ele>
        <time>2016-03-14T14:47:32Z</time>
      </trkpt>
      <trkpt lat="48.315" lon="-2.94355">
        <ele>167</ele>
        <time>2016-03-14T14:47:34Z</time>
      </trkpt>
      <trkpt lat="48.31502" lon="-2.94355">
        <ele>167</ele>
        <time>2016-03-14T14:47:36Z</time>
      </trkpt>
      <trkpt lat="48.31503" lon="-2.94355">
        <ele>167</ele>
        <time>2016-03-14T14:47:37Z</time>
      </trkpt>
      <trkpt lat="48.31505" lon="-2.94355">
        <ele>167</ele>
        <time>2016-03-14T14:47:39Z</time>
      </trkpt>
      <trkpt lat="48.31506" lon="-2.94354">
        <ele>167</ele>
        <time>2016-03-14T14:47:40Z</time>
      </trkpt>
      <trkpt lat="48.31508" lon="-2.94352">
        <ele>167</ele>
        <time>2016-03-14T14:47:42Z</time>
      </trkpt>
      <trkpt lat="48.3151" lon="-2.94351">
        <ele>167</ele>
        <time>2016-03-14T14:47:44Z</time>
      </trkpt>
      <trkpt lat="48.31511" lon="-2.94348">
        <ele>167</ele>
        <time>2016-03-14T14:47:46Z</time>
      </trkpt>
      <trkpt lat="48.31512" lon="-2.94346">
        <ele>167</ele>
        <time>2016-03-14T14:47:48Z</time>
      </trkpt>
      <trkpt lat="48.31513" lon="-2.94344">
        <ele>167</ele>
        <time>2016-03-14T14:47:50Z</time>
      </trkpt>
      <trkpt lat="48.31514" lon="-2.94341">
        <ele>167</ele>
        <time>2016-03-14T14:47:52Z</time>
      </trkpt>
      <trkpt lat="48.31516" lon="-2.94339">
        <ele>167</ele>
        <time>2016-03-14T14:47:54Z</time>
      </trkpt>
      <trkpt lat="48.31516" lon="-2.94336">
        <ele>167</ele>
        <time>2016-03-14T14:47:56Z</time>
      </trkpt>
      <trkpt lat="48.31517" lon="-2.94334">
        <ele>167</ele>
        <time>2016-03-14T14:47:58Z</time>
      </trkpt>
      <trkpt lat="48.31518" lon="-2.94331">
        <ele>167</ele>
        <time>2016-03-14T14:48:00Z</time>
      </trkpt>
      <trkpt lat="48.31519" lon="-2.94329">
        <ele>167</ele>
        <time>2016-03-14T14:48:02Z</time>
      </trkpt>
      <trkpt lat="48.31521" lon="-2.94327">
        <ele>167</ele>
        <time>2016-03-14T14:48:04Z</time>
      </trkpt>
      <trkpt lat="48.31523" lon="-2.94325">
        <ele>167</ele>
        <time>2016-03-14T14:48:06Z</time>
      </trkpt>
      <trkpt lat="48.31524" lon="-2.94323">
        <ele>166</ele>
        <time>2016-03-14T14:48:08Z</time>
      </trkpt>
      <trkpt lat="48.31525" lon="-2.94321">
        <ele>166</ele>
        <time>2016-03-14T14:48:10Z</time>
      </trkpt>
      <trkpt lat="48.31526" lon="-2.94319">
        <ele>165</ele>
        <time>2016-03-14T14:48:12Z</time>
      </trkpt>
      <trkpt lat="48.31527" lon="-2.94317">
        <ele>164</ele>
        <time>2016-03-14T14:48:14Z</time>
      </trkpt>
      <trkpt lat="48.31529" lon="-2.94315">
        <ele>163</ele>
        <time>2016-03-14T14:48:16Z</time>
      </trkpt>
      <trkpt lat="48.3153" lon="-2.94313">
        <ele>163</ele>
        <time>2016-03-14T14:48:18Z</time>
      </trkpt>
      <trkpt lat="48.31532" lon="-2.94309">
        <ele>163</ele>
        <time>2016-03-14T14:48:20Z</time>
      </trkpt>
      <trkpt lat="48.31534" lon="-2.94307">
        <ele>163</ele>
        <time>2016-03-14T14:48:22Z</time>
      </trkpt>
      <trkpt lat="48.31536" lon="-2.94304">
        <ele>163</ele>
        <time>2016-03-14T14:48:24Z</time>
      </trkpt>
      <trkpt lat="48.31538" lon="-2.94302">
        <ele>163</ele>
        <time>2016-03-14T14:48:26Z</time>
      </trkpt>
      <trkpt lat="48.3154" lon="-2.943">
        <ele>163</ele>
        <time>2016-03-14T14:48:28Z</time>
      </trkpt>
      <trkpt lat="48.31541" lon="-2.94297">
        <ele>163</ele>
        <time>2016-03-14T14:48:30Z</time>
      </trkpt>
      <trkpt lat="48.31543" lon="-2.94294">
        <ele>163</ele>
        <time>2016-03-14T14:48:32Z</time>
      </trkpt>
      <trkpt lat="48.31544" lon="-2.9429">
        <ele>163</ele>
        <time>2016-03-14T14:48:34Z</time>
      </trkpt>
      <trkpt lat="48.31545" lon="-2.94287">
        <ele>162</ele>
        <time>2016-03-14T14:48:36Z</time>
      </trkpt>
      <trkpt lat="48.31546" lon="-2.94286">
        <ele>162</ele>
        <time>2016-03-14T14:48:37Z</time>
      </trkpt>
      <trkpt lat="48.31547" lon="-2.94284">
        <ele>162</ele>
        <time>2016-03-14T14:48:38Z</time>
      </trkpt>
      <trkpt lat="48.31547" lon="-2.94282">
        <ele>162</ele>
        <time>2016-03-14T14:48:39Z</time>
      </trkpt>
      <trkpt lat="48.31549" lon="-2.94279">
        <ele>162</ele>
        <time>2016-03-14T14:48:41Z</time>
      </trkpt>
      <trkpt lat="48.31551" lon="-2.94276">
        <ele>162</ele>
        <time>2016-03-14T14:48:43Z</time>
      </trkpt>
      <trkpt lat="48.31551" lon="-2.94274">
        <ele>162</ele>
        <time>2016-03-14T14:48:44Z</time>
      </trkpt>
      <trkpt lat="48.31551" lon="-2.94272">
        <ele>162</ele>
        <time>2016-03-14T14:48:45Z</time>
      </trkpt>
      <trkpt lat="48.31552" lon="-2.94271">
        <ele>161</ele>
        <time>2016-03-14T14:48:46Z</time>
      </trkpt>
      <trkpt lat="48.31552" lon="-2.94269">
        <ele>161</ele>
        <time>2016-03-14T14:48:47Z</time>
      </trkpt>
      <trkpt lat="48.31553" lon="-2.94267">
        <ele>161</ele>
        <time>2016-03-14T14:48:48Z</time>
      </trkpt>
      <trkpt lat="48.31553" lon="-2.94264">
        <ele>161</ele>
        <time>2016-03-14T14:48:50Z</time>
      </trkpt>
      <trkpt lat="48.31554" lon="-2.94262">
        <ele>161</ele>
        <time>2016-03-14T14:48:51Z</time>
      </trkpt>
      <trkpt lat="48.31554" lon="-2.9426">
        <ele>161</ele>
        <time>2016-03-14T14:48:52Z</time>
      </trkpt>
      <trkpt lat="48.31554" lon="-2.94258">
        <ele>161</ele>
        <time>2016-03-14T14:48:53Z</time>
      </trkpt>
      <trkpt lat="48.31554" lon="-2.94256">
        <ele>161</ele>
        <time>2016-03-14T14:48:54Z</time>
      </trkpt>
      <trkpt lat="48.31555" lon="-2.94254">
        <ele>161</ele>
        <time>2016-03-14T14:48:55Z</time>
      </trkpt>
      <trkpt lat="48.31555" lon="-2.94252">
        <ele>161</ele>
        <time>2016-03-14T14:48:56Z</time>
      </trkpt>
      <trkpt lat="48.31556" lon="-2.9425">
        <ele>161</ele>
        <time>2016-03-14T14:48:57Z</time>
      </trkpt>
      <trkpt lat="48.31556" lon="-2.94249">
        <ele>161</ele>
        <time>2016-03-14T14:48:58Z</time>
      </trkpt>
      <trkpt lat="48.31556" lon="-2.94247">
        <ele>161</ele>
        <time>2016-03-14T14:48:59Z</time>
      </trkpt>
      <trkpt lat="48.31557" lon="-2.94246">
        <ele>161</ele>
        <time>2016-03-14T14:49:00Z</time>
      </trkpt>
      <trkpt lat="48.31557" lon="-2.94242">
        <ele>161</ele>
        <time>2016-03-14T14:49:02Z</time>
      </trkpt>
      <trkpt lat="48.31558" lon="-2.94241">
        <ele>161</ele>
        <time>2016-03-14T14:49:03Z</time>
      </trkpt>
      <trkpt lat="48.31559" lon="-2.94237">
        <ele>161</ele>
        <time>2016-03-14T14:49:05Z</time>
      </trkpt>
      <trkpt lat="48.31559" lon="-2.94236">
        <ele>161</ele>
        <time>2016-03-14T14:49:06Z</time>
      </trkpt>
      <trkpt lat="48.31559" lon="-2.94234">
        <ele>161</ele>
        <time>2016-03-14T14:49:07Z</time>
      </trkpt>
      <trkpt lat="48.31559" lon="-2.94233">
        <ele>161</ele>
        <time>2016-03-14T14:49:08Z</time>
      </trkpt>
      <trkpt lat="48.3156" lon="-2.94231">
        <ele>161</ele>
        <time>2016-03-14T14:49:09Z</time>
      </trkpt>
      <trkpt lat="48.3156" lon="-2.94229">
        <ele>161</ele>
        <time>2016-03-14T14:49:10Z</time>
      </trkpt>
      <trkpt lat="48.31561" lon="-2.94227">
        <ele>161</ele>
        <time>2016-03-14T14:49:11Z</time>
      </trkpt>
      <trkpt lat="48.31561" lon="-2.94225">
        <ele>161</ele>
        <time>2016-03-14T14:49:12Z</time>
      </trkpt>
      <trkpt lat="48.31562" lon="-2.94223">
        <ele>161</ele>
        <time>2016-03-14T14:49:13Z</time>
      </trkpt>
      <trkpt lat="48.31563" lon="-2.94221">
        <ele>161</ele>
        <time>2016-03-14T14:49:14Z</time>
      </trkpt>
      <trkpt lat="48.31563" lon="-2.94219">
        <ele>161</ele>
        <time>2016-03-14T14:49:15Z</time>
      </trkpt>
      <trkpt lat="48.31564" lon="-2.94217">
        <ele>161</ele>
        <time>2016-03-14T14:49:16Z</time>
      </trkpt>
      <trkpt lat="48.31564" lon="-2.94215">
        <ele>161</ele>
        <time>2016-03-14T14:49:17Z</time>
      </trkpt>
      <trkpt lat="48.31565" lon="-2.94214">
        <ele>161</ele>
        <time>2016-03-14T14:49:18Z</time>
      </trkpt>
      <trkpt lat="48.31565" lon="-2.94212">
        <ele>161</ele>
        <time>2016-03-14T14:49:19Z</time>
      </trkpt>
      <trkpt lat="48.31566" lon="-2.9421">
        <ele>161</ele>
        <time>2016-03-14T14:49:20Z</time>
      </trkpt>
      <trkpt lat="48.31566" lon="-2.94208">
        <ele>161</ele>
        <time>2016-03-14T14:49:21Z</time>
      </trkpt>
      <trkpt lat="48.31567" lon="-2.94205">
        <ele>161</ele>
        <time>2016-03-14T14:49:22Z</time>
      </trkpt>
      <trkpt lat="48.31568" lon="-2.94204">
        <ele>161</ele>
        <time>2016-03-14T14:49:23Z</time>
      </trkpt>
      <trkpt lat="48.31569" lon="-2.94202">
        <ele>161</ele>
        <time>2016-03-14T14:49:24Z</time>
      </trkpt>
      <trkpt lat="48.3157" lon="-2.942">
        <ele>161</ele>
        <time>2016-03-14T14:49:25Z</time>
      </trkpt>
      <trkpt lat="48.3157" lon="-2.94198">
        <ele>161</ele>
        <time>2016-03-14T14:49:26Z</time>
      </trkpt>
      <trkpt lat="48.31571" lon="-2.94196">
        <ele>161</ele>
        <time>2016-03-14T14:49:27Z</time>
      </trkpt>
      <trkpt lat="48.31571" lon="-2.94194">
        <ele>161</ele>
        <time>2016-03-14T14:49:28Z</time>
      </trkpt>
      <trkpt lat="48.31572" lon="-2.94193">
        <ele>161</ele>
        <time>2016-03-14T14:49:29Z</time>
      </trkpt>
      <trkpt lat="48.31573" lon="-2.94189">
        <ele>161</ele>
        <time>2016-03-14T14:49:31Z</time>
      </trkpt>
      <trkpt lat="48.31574" lon="-2.94188">
        <ele>161</ele>
        <time>2016-03-14T14:49:32Z</time>
      </trkpt>
      <trkpt lat="48.31575" lon="-2.94186">
        <ele>161</ele>
        <time>2016-03-14T14:49:33Z</time>
      </trkpt>
      <trkpt lat="48.31575" lon="-2.94184">
        <ele>161</ele>
        <time>2016-03-14T14:49:34Z</time>
      </trkpt>
      <trkpt lat="48.31576" lon="-2.94182">
        <ele>161</ele>
        <time>2016-03-14T14:49:35Z</time>
      </trkpt>
      <trkpt lat="48.31577" lon="-2.94179">
        <ele>161</ele>
        <time>2016-03-14T14:49:37Z</time>
      </trkpt>
      <trkpt lat="48.31579" lon="-2.94176">
        <ele>161</ele>
        <time>2016-03-14T14:49:39Z</time>
      </trkpt>
      <trkpt lat="48.31579" lon="-2.94175">
        <ele>161</ele>
        <time>2016-03-14T14:49:40Z</time>
      </trkpt>
      <trkpt lat="48.3158" lon="-2.94173">
        <ele>161</ele>
        <time>2016-03-14T14:49:41Z</time>
      </trkpt>
      <trkpt lat="48.3158" lon="-2.94171">
        <ele>161</ele>
        <time>2016-03-14T14:49:42Z</time>
      </trkpt>
      <trkpt lat="48.31581" lon="-2.94168">
        <ele>161</ele>
        <time>2016-03-14T14:49:44Z</time>
      </trkpt>
      <trkpt lat="48.31583" lon="-2.94165">
        <ele>161</ele>
        <time>2016-03-14T14:49:46Z</time>
      </trkpt>
      <trkpt lat="48.31584" lon="-2.94162">
        <ele>161</ele>
        <time>2016-03-14T14:49:48Z</time>
      </trkpt>
      <trkpt lat="48.31584" lon="-2.9416">
        <ele>161</ele>
        <time>2016-03-14T14:49:49Z</time>
      </trkpt>
      <trkpt lat="48.31585" lon="-2.94159">
        <ele>161</ele>
        <time>2016-03-14T14:49:50Z</time>
      </trkpt>
      <trkpt lat="48.31585" lon="-2.94157">
        <ele>161</ele>
        <time>2016-03-14T14:49:51Z</time>
      </trkpt>
      <trkpt lat="48.31586" lon="-2.94154">
        <ele>161</ele>
        <time>2016-03-14T14:49:53Z</time>
      </trkpt>
      <trkpt lat="48.31587" lon="-2.94151">
        <ele>161</ele>
        <time>2016-03-14T14:49:55Z</time>
      </trkpt>
      <trkpt lat="48.31588" lon="-2.94149">
        <ele>161</ele>
        <time>2016-03-14T14:49:56Z</time>
      </trkpt>
      <trkpt lat="48.31589" lon="-2.94146">
        <ele>161</ele>
        <time>2016-03-14T14:49:58Z</time>
      </trkpt>
      <trkpt lat="48.31591" lon="-2.94144">
        <ele>161</ele>
        <time>2016-03-14T14:50:00Z</time>
      </trkpt>
      <trkpt lat="48.31592" lon="-2.94142">
        <ele>161</ele>
        <time>2016-03-14T14:50:02Z</time>
      </trkpt>
      <trkpt lat="48.31594" lon="-2.94139">
        <ele>161</ele>
        <time>2016-03-14T14:50:04Z</time>
      </trkpt>
      <trkpt lat="48.31595" lon="-2.94137">
        <ele>161</ele>
        <time>2016-03-14T14:50:06Z</time>
      </trkpt>
      <trkpt lat="48.31596" lon="-2.94135">
        <ele>161</ele>
        <time>2016-03-14T14:50:08Z</time>
      </trkpt>
      <trkpt lat="48.31598" lon="-2.94132">
        <ele>161</ele>
        <time>2016-03-14T14:50:10Z</time>
      </trkpt>
      <trkpt lat="48.31599" lon="-2.9413">
        <ele>161</ele>
        <time>2016-03-14T14:50:12Z</time>
      </trkpt>
      <trkpt lat="48.31601" lon="-2.94128">
        <ele>161</ele>
        <time>2016-03-14T14:50:14Z</time>
      </trkpt>
      <trkpt lat="48.31602" lon="-2.94126">
        <ele>161</ele>
        <time>2016-03-14T14:50:16Z</time>
      </trkpt>
      <trkpt lat="48.31604" lon="-2.94124">
        <ele>161</ele>
        <time>2016-03-14T14:50:18Z</time>
      </trkpt>
      <trkpt lat="48.31606" lon="-2.94122">
        <ele>161</ele>
        <time>2016-03-14T14:50:20Z</time>
      </trkpt>
      <trkpt lat="48.31608" lon="-2.9412">
        <ele>161</ele>
        <time>2016-03-14T14:50:22Z</time>
      </trkpt>
      <trkpt lat="48.3161" lon="-2.94117">
        <ele>161</ele>
        <time>2016-03-14T14:50:24Z</time>
      </trkpt>
      <trkpt lat="48.31612" lon="-2.94115">
        <ele>161</ele>
        <time>2016-03-14T14:50:26Z</time>
      </trkpt>
      <trkpt lat="48.31614" lon="-2.94113">
        <ele>161</ele>
        <time>2016-03-14T14:50:28Z</time>
      </trkpt>
      <trkpt lat="48.31615" lon="-2.94111">
        <ele>161</ele>
        <time>2016-03-14T14:50:30Z</time>
      </trkpt>
      <trkpt lat="48.31617" lon="-2.94109">
        <ele>161</ele>
        <time>2016-03-14T14:50:32Z</time>
      </trkpt>
      <trkpt lat="48.31619" lon="-2.94107">
        <ele>161</ele>
        <time>2016-03-14T14:50:34Z</time>
      </trkpt>
      <trkpt lat="48.31621" lon="-2.94106">
        <ele>161</ele>
        <time>2016-03-14T14:50:36Z</time>
      </trkpt>
      <trkpt lat="48.31622" lon="-2.94105">
        <ele>161</ele>
        <time>2016-03-14T14:50:37Z</time>
      </trkpt>
      <trkpt lat="48.31624" lon="-2.94103">
        <ele>161</ele>
        <time>2016-03-14T14:50:39Z</time>
      </trkpt>
      <trkpt lat="48.31626" lon="-2.94102">
        <ele>161</ele>
        <time>2016-03-14T14:50:41Z</time>
      </trkpt>
      <trkpt lat="48.31628" lon="-2.94101">
        <ele>161</ele>
        <time>2016-03-14T14:50:43Z</time>
      </trkpt>
      <trkpt lat="48.3163" lon="-2.941">
        <ele>162</ele>
        <time>2016-03-14T14:50:45Z</time>
      </trkpt>
      <trkpt lat="48.31631" lon="-2.94099">
        <ele>162</ele>
        <time>2016-03-14T14:50:46Z</time>
      </trkpt>
      <trkpt lat="48.31633" lon="-2.94098">
        <ele>162</ele>
        <time>2016-03-14T14:50:48Z</time>
      </trkpt>
      <trkpt lat="48.31635" lon="-2.94097">
        <ele>162</ele>
        <time>2016-03-14T14:50:50Z</time>
      </trkpt>
      <trkpt lat="48.31636" lon="-2.94096">
        <ele>162</ele>
        <time>2016-03-14T14:50:52Z</time>
      </trkpt>
      <trkpt lat="48.31638" lon="-2.94095">
        <ele>162</ele>
        <time>2016-03-14T14:50:54Z</time>
      </trkpt>
      <trkpt lat="48.3164" lon="-2.94094">
        <ele>162</ele>
        <time>2016-03-14T14:50:56Z</time>
      </trkpt>
      <trkpt lat="48.31641" lon="-2.94094">
        <ele>163</ele>
        <time>2016-03-14T14:50:58Z</time>
      </trkpt>
      <trkpt lat="48.31643" lon="-2.94093">
        <ele>163</ele>
        <time>2016-03-14T14:51:00Z</time>
      </trkpt>
      <trkpt lat="48.31644" lon="-2.94093">
        <ele>163</ele>
        <time>2016-03-14T14:51:02Z</time>
      </trkpt>
      <trkpt lat="48.31646" lon="-2.94093">
        <ele>163</ele>
        <time>2016-03-14T14:51:04Z</time>
      </trkpt>
      <trkpt lat="48.31648" lon="-2.94092">
        <ele>163</ele>
        <time>2016-03-14T14:51:06Z</time>
      </trkpt>
      <trkpt lat="48.3165" lon="-2.94091">
        <ele>163</ele>
        <time>2016-03-14T14:51:08Z</time>
      </trkpt>
      <trkpt lat="48.31652" lon="-2.9409">
        <ele>163</ele>
        <time>2016-03-14T14:51:10Z</time>
      </trkpt>
      <trkpt lat="48.31653" lon="-2.9409">
        <ele>163</ele>
        <time>2016-03-14T14:51:11Z</time>
      </trkpt>
      <trkpt lat="48.31654" lon="-2.9409">
        <ele>163</ele>
        <time>2016-03-14T14:51:12Z</time>
      </trkpt>
      <trkpt lat="48.31656" lon="-2.94089">
        <ele>163</ele>
        <time>2016-03-14T14:51:14Z</time>
      </trkpt>
      <trkpt lat="48.31658" lon="-2.94088">
        <ele>163</ele>
        <time>2016-03-14T14:51:16Z</time>
      </trkpt>
      <trkpt lat="48.3166" lon="-2.94087">
        <ele>163</ele>
        <time>2016-03-14T14:51:18Z</time>
      </trkpt>
      <trkpt lat="48.31662" lon="-2.94086">
        <ele>163</ele>
        <time>2016-03-14T14:51:20Z</time>
      </trkpt>
      <trkpt lat="48.31664" lon="-2.94085">
        <ele>163</ele>
        <time>2016-03-14T14:51:22Z</time>
      </trkpt>
      <trkpt lat="48.31666" lon="-2.94084">
        <ele>163</ele>
        <time>2016-03-14T14:51:24Z</time>
      </trkpt>
      <trkpt lat="48.31667" lon="-2.94083">
        <ele>163</ele>
        <time>2016-03-14T14:51:26Z</time>
      </trkpt>
      <trkpt lat="48.3167" lon="-2.94082">
        <ele>163</ele>
        <time>2016-03-14T14:51:28Z</time>
      </trkpt>
      <trkpt lat="48.31671" lon="-2.94082">
        <ele>163</ele>
        <time>2016-03-14T14:51:30Z</time>
      </trkpt>
      <trkpt lat="48.31673" lon="-2.94081">
        <ele>163</ele>
        <time>2016-03-14T14:51:32Z</time>
      </trkpt>
      <trkpt lat="48.31675" lon="-2.9408">
        <ele>163</ele>
        <time>2016-03-14T14:51:34Z</time>
      </trkpt>
      <trkpt lat="48.31677" lon="-2.94079">
        <ele>163</ele>
        <time>2016-03-14T14:51:36Z</time>
      </trkpt>
      <trkpt lat="48.31679" lon="-2.94078">
        <ele>163</ele>
        <time>2016-03-14T14:51:38Z</time>
      </trkpt>
      <trkpt lat="48.31681" lon="-2.94078">
        <ele>163</ele>
        <time>2016-03-14T14:51:40Z</time>
      </trkpt>
      <trkpt lat="48.31683" lon="-2.94077">
        <ele>163</ele>
        <time>2016-03-14T14:51:42Z</time>
      </trkpt>
      <trkpt lat="48.31684" lon="-2.94076">
        <ele>163</ele>
        <time>2016-03-14T14:51:44Z</time>
      </trkpt>
      <trkpt lat="48.31687" lon="-2.94075">
        <ele>164</ele>
        <time>2016-03-14T14:51:46Z</time>
      </trkpt>
      <trkpt lat="48.31689" lon="-2.94075">
        <ele>164</ele>
        <time>2016-03-14T14:51:48Z</time>
      </trkpt>
      <trkpt lat="48.3169" lon="-2.94074">
        <ele>164</ele>
        <time>2016-03-14T14:51:50Z</time>
      </trkpt>
      <trkpt lat="48.31692" lon="-2.94073">
        <ele>164</ele>
        <time>2016-03-14T14:51:52Z</time>
      </trkpt>
      <trkpt lat="48.31694" lon="-2.94073">
        <ele>164</ele>
        <time>2016-03-14T14:51:54Z</time>
      </trkpt>
      <trkpt lat="48.31696" lon="-2.94072">
        <ele>164</ele>
        <time>2016-03-14T14:51:56Z</time>
      </trkpt>
      <trkpt lat="48.31698" lon="-2.94071">
        <ele>164</ele>
        <time>2016-03-14T14:51:58Z</time>
      </trkpt>
      <trkpt lat="48.317" lon="-2.94071">
        <ele>164</ele>
        <time>2016-03-14T14:52:00Z</time>
      </trkpt>
      <trkpt lat="48.31701" lon="-2.94071">
        <ele>164</ele>
        <time>2016-03-14T14:52:01Z</time>
      </trkpt>
      <trkpt lat="48.31702" lon="-2.9407">
        <ele>164</ele>
        <time>2016-03-14T14:52:03Z</time>
      </trkpt>
      <trkpt lat="48.31704" lon="-2.94069">
        <ele>164</ele>
        <time>2016-03-14T14:52:05Z</time>
      </trkpt>
      <trkpt lat="48.31706" lon="-2.94068">
        <ele>164</ele>
        <time>2016-03-14T14:52:07Z</time>
      </trkpt>
      <trkpt lat="48.31708" lon="-2.94067">
        <ele>164</ele>
        <time>2016-03-14T14:52:09Z</time>
      </trkpt>
      <trkpt lat="48.3171" lon="-2.94067">
        <ele>164</ele>
        <time>2016-03-14T14:52:11Z</time>
      </trkpt>
      <trkpt lat="48.31712" lon="-2.94065">
        <ele>164</ele>
        <time>2016-03-14T14:52:13Z</time>
      </trkpt>
      <trkpt lat="48.31714" lon="-2.94064">
        <ele>164</ele>
        <time>2016-03-14T14:52:15Z</time>
      </trkpt>
      <trkpt lat="48.31716" lon="-2.94063">
        <ele>164</ele>
        <time>2016-03-14T14:52:17Z</time>
      </trkpt>
      <trkpt lat="48.31718" lon="-2.94063">
        <ele>165</ele>
        <time>2016-03-14T14:52:19Z</time>
      </trkpt>
      <trkpt lat="48.3172" lon="-2.94062">
        <ele>165</ele>
        <time>2016-03-14T14:52:21Z</time>
      </trkpt>
      <trkpt lat="48.31723" lon="-2.94061">
        <ele>165</ele>
        <time>2016-03-14T14:52:23Z</time>
      </trkpt>
      <trkpt lat="48.31725" lon="-2.9406">
        <ele>165</ele>
        <time>2016-03-14T14:52:25Z</time>
      </trkpt>
      <trkpt lat="48.31726" lon="-2.9406">
        <ele>165</ele>
        <time>2016-03-14T14:52:26Z</time>
      </trkpt>
      <trkpt lat="48.31728" lon="-2.94059">
        <ele>165</ele>
        <time>2016-03-14T14:52:28Z</time>
      </trkpt>
      <trkpt lat="48.3173" lon="-2.94058">
        <ele>165</ele>
        <time>2016-03-14T14:52:30Z</time>
      </trkpt>
      <trkpt lat="48.31731" lon="-2.94057">
        <ele>165</ele>
        <time>2016-03-14T14:52:31Z</time>
      </trkpt>
      <trkpt lat="48.31733" lon="-2.94056">
        <ele>165</ele>
        <time>2016-03-14T14:52:33Z</time>
      </trkpt>
      <trkpt lat="48.31735" lon="-2.94055">
        <ele>165</ele>
        <time>2016-03-14T14:52:35Z</time>
      </trkpt>
      <trkpt lat="48.31737" lon="-2.94054">
        <ele>165</ele>
        <time>2016-03-14T14:52:37Z</time>
      </trkpt>
      <trkpt lat="48.31739" lon="-2.94053">
        <ele>166</ele>
        <time>2016-03-14T14:52:39Z</time>
      </trkpt>
      <trkpt lat="48.31741" lon="-2.94052">
        <ele>166</ele>
        <time>2016-03-14T14:52:41Z</time>
      </trkpt>
      <trkpt lat="48.31742" lon="-2.94051">
        <ele>166</ele>
        <time>2016-03-14T14:52:42Z</time>
      </trkpt>
      <trkpt lat="48.31744" lon="-2.9405">
        <ele>166</ele>
        <time>2016-03-14T14:52:44Z</time>
      </trkpt>
      <trkpt lat="48.31746" lon="-2.94048">
        <ele>166</ele>
        <time>2016-03-14T14:52:46Z</time>
      </trkpt>
      <trkpt lat="48.31748" lon="-2.94047">
        <ele>167</ele>
        <time>2016-03-14T14:52:48Z</time>
      </trkpt>
      <trkpt lat="48.3175" lon="-2.94046">
        <ele>167</ele>
        <time>2016-03-14T14:52:50Z</time>
      </trkpt>
      <trkpt lat="48.31751" lon="-2.94045">
        <ele>167</ele>
        <time>2016-03-14T14:52:51Z</time>
      </trkpt>
      <trkpt lat="48.31753" lon="-2.94044">
        <ele>167</ele>
        <time>2016-03-14T14:52:53Z</time>
      </trkpt>
      <trkpt lat="48.31755" lon="-2.94043">
        <ele>167</ele>
        <time>2016-03-14T14:52:55Z</time>
      </trkpt>
      <trkpt lat="48.31756" lon="-2.94042">
        <ele>167</ele>
        <time>2016-03-14T14:52:56Z</time>
      </trkpt>
      <trkpt lat="48.31758" lon="-2.94041">
        <ele>167</ele>
        <time>2016-03-14T14:52:58Z</time>
      </trkpt>
      <trkpt lat="48.3176" lon="-2.9404">
        <ele>167</ele>
        <time>2016-03-14T14:53:00Z</time>
      </trkpt>
      <trkpt lat="48.31762" lon="-2.94039">
        <ele>167</ele>
        <time>2016-03-14T14:53:02Z</time>
      </trkpt>
      <trkpt lat="48.31764" lon="-2.94038">
        <ele>167</ele>
        <time>2016-03-14T14:53:04Z</time>
      </trkpt>
      <trkpt lat="48.31766" lon="-2.94036">
        <ele>167</ele>
        <time>2016-03-14T14:53:06Z</time>
      </trkpt>
      <trkpt lat="48.31768" lon="-2.94035">
        <ele>167</ele>
        <time>2016-03-14T14:53:08Z</time>
      </trkpt>
      <trkpt lat="48.3177" lon="-2.94034">
        <ele>167</ele>
        <time>2016-03-14T14:53:10Z</time>
      </trkpt>
      <trkpt lat="48.31772" lon="-2.94033">
        <ele>167</ele>
        <time>2016-03-14T14:53:12Z</time>
      </trkpt>
      <trkpt lat="48.31774" lon="-2.94031">
        <ele>168</ele>
        <time>2016-03-14T14:53:14Z</time>
      </trkpt>
      <trkpt lat="48.31776" lon="-2.9403">
        <ele>168</ele>
        <time>2016-03-14T14:53:16Z</time>
      </trkpt>
      <trkpt lat="48.31778" lon="-2.94028">
        <ele>168</ele>
        <time>2016-03-14T14:53:18Z</time>
      </trkpt>
      <trkpt lat="48.3178" lon="-2.94027">
        <ele>168</ele>
        <time>2016-03-14T14:53:20Z</time>
      </trkpt>
      <trkpt lat="48.31781" lon="-2.94026">
        <ele>168</ele>
        <time>2016-03-14T14:53:21Z</time>
      </trkpt>
      <trkpt lat="48.31783" lon="-2.94025">
        <ele>168</ele>
        <time>2016-03-14T14:53:23Z</time>
      </trkpt>
      <trkpt lat="48.31785" lon="-2.94024">
        <ele>168</ele>
        <time>2016-03-14T14:53:25Z</time>
      </trkpt>
      <trkpt lat="48.31786" lon="-2.94023">
        <ele>168</ele>
        <time>2016-03-14T14:53:26Z</time>
      </trkpt>
      <trkpt lat="48.31788" lon="-2.94021">
        <ele>168</ele>
        <time>2016-03-14T14:53:28Z</time>
      </trkpt>
      <trkpt lat="48.3179" lon="-2.9402">
        <ele>168</ele>
        <time>2016-03-14T14:53:30Z</time>
      </trkpt>
      <trkpt lat="48.31792" lon="-2.94018">
        <ele>168</ele>
        <time>2016-03-14T14:53:32Z</time>
      </trkpt>
      <trkpt lat="48.31794" lon="-2.94017">
        <ele>168</ele>
        <time>2016-03-14T14:53:34Z</time>
      </trkpt>
      <trkpt lat="48.31796" lon="-2.94015">
        <ele>169</ele>
        <time>2016-03-14T14:53:36Z</time>
      </trkpt>
      <trkpt lat="48.31797" lon="-2.94014">
        <ele>169</ele>
        <time>2016-03-14T14:53:38Z</time>
      </trkpt>
      <trkpt lat="48.31799" lon="-2.94012">
        <ele>169</ele>
        <time>2016-03-14T14:53:40Z</time>
      </trkpt>
      <trkpt lat="48.31801" lon="-2.94011">
        <ele>169</ele>
        <time>2016-03-14T14:53:42Z</time>
      </trkpt>
      <trkpt lat="48.31803" lon="-2.94009">
        <ele>169</ele>
        <time>2016-03-14T14:53:44Z</time>
      </trkpt>
      <trkpt lat="48.31805" lon="-2.94007">
        <ele>169</ele>
        <time>2016-03-14T14:53:46Z</time>
      </trkpt>
      <trkpt lat="48.31807" lon="-2.94006">
        <ele>169</ele>
        <time>2016-03-14T14:53:48Z</time>
      </trkpt>
      <trkpt lat="48.31808" lon="-2.94005">
        <ele>169</ele>
        <time>2016-03-14T14:53:50Z</time>
      </trkpt>
      <trkpt lat="48.3181" lon="-2.94004">
        <ele>170</ele>
        <time>2016-03-14T14:53:52Z</time>
      </trkpt>
      <trkpt lat="48.31812" lon="-2.94002">
        <ele>170</ele>
        <time>2016-03-14T14:53:54Z</time>
      </trkpt>
      <trkpt lat="48.31814" lon="-2.94">
        <ele>170</ele>
        <time>2016-03-14T14:53:56Z</time>
      </trkpt>
      <trkpt lat="48.31816" lon="-2.93999">
        <ele>170</ele>
        <time>2016-03-14T14:53:58Z</time>
      </trkpt>
      <trkpt lat="48.31818" lon="-2.93997">
        <ele>170</ele>
        <time>2016-03-14T14:54:00Z</time>
      </trkpt>
      <trkpt lat="48.3182" lon="-2.93995">
        <ele>170</ele>
        <time>2016-03-14T14:54:02Z</time>
      </trkpt>
      <trkpt lat="48.31821" lon="-2.93994">
        <ele>170</ele>
        <time>2016-03-14T14:54:04Z</time>
      </trkpt>
      <trkpt lat="48.31823" lon="-2.93992">
        <ele>170</ele>
        <time>2016-03-14T14:54:06Z</time>
      </trkpt>
      <trkpt lat="48.31825" lon="-2.93991">
        <ele>170</ele>
        <time>2016-03-14T14:54:08Z</time>
      </trkpt>
      <trkpt lat="48.31827" lon="-2.9399">
        <ele>171</ele>
        <time>2016-03-14T14:54:10Z</time>
      </trkpt>
      <trkpt lat="48.31828" lon="-2.93989">
        <ele>171</ele>
        <time>2016-03-14T14:54:11Z</time>
      </trkpt>
      <trkpt lat="48.3183" lon="-2.93987">
        <ele>171</ele>
        <time>2016-03-14T14:54:13Z</time>
      </trkpt>
      <trkpt lat="48.31832" lon="-2.93986">
        <ele>171</ele>
        <time>2016-03-14T14:54:15Z</time>
      </trkpt>
      <trkpt lat="48.31834" lon="-2.93984">
        <ele>171</ele>
        <time>2016-03-14T14:54:17Z</time>
      </trkpt>
      <trkpt lat="48.31836" lon="-2.93983">
        <ele>171</ele>
        <time>2016-03-14T14:54:19Z</time>
      </trkpt>
      <trkpt lat="48.31838" lon="-2.93981">
        <ele>171</ele>
        <time>2016-03-14T14:54:21Z</time>
      </trkpt>
      <trkpt lat="48.3184" lon="-2.9398">
        <ele>171</ele>
        <time>2016-03-14T14:54:23Z</time>
      </trkpt>
      <trkpt lat="48.31842" lon="-2.93978">
        <ele>171</ele>
        <time>2016-03-14T14:54:25Z</time>
      </trkpt>
      <trkpt lat="48.31844" lon="-2.93976">
        <ele>171</ele>
        <time>2016-03-14T14:54:27Z</time>
      </trkpt>
      <trkpt lat="48.31846" lon="-2.93975">
        <ele>171</ele>
        <time>2016-03-14T14:54:29Z</time>
      </trkpt>
      <trkpt lat="48.31847" lon="-2.93973">
        <ele>171</ele>
        <time>2016-03-14T14:54:31Z</time>
      </trkpt>
      <trkpt lat="48.31849" lon="-2.93972">
        <ele>171</ele>
        <time>2016-03-14T14:54:32Z</time>
      </trkpt>
      <trkpt lat="48.3185" lon="-2.93971">
        <ele>171</ele>
        <time>2016-03-14T14:54:34Z</time>
      </trkpt>
      <trkpt lat="48.31852" lon="-2.93969">
        <ele>171</ele>
        <time>2016-03-14T14:54:36Z</time>
      </trkpt>
      <trkpt lat="48.31854" lon="-2.93968">
        <ele>171</ele>
        <time>2016-03-14T14:54:38Z</time>
      </trkpt>
      <trkpt lat="48.31856" lon="-2.93966">
        <ele>172</ele>
        <time>2016-03-14T14:54:40Z</time>
      </trkpt>
      <trkpt lat="48.31858" lon="-2.93965">
        <ele>172</ele>
        <time>2016-03-14T14:54:42Z</time>
      </trkpt>
      <trkpt lat="48.3186" lon="-2.93963">
        <ele>172</ele>
        <time>2016-03-14T14:54:44Z</time>
      </trkpt>
      <trkpt lat="48.31862" lon="-2.93962">
        <ele>172</ele>
        <time>2016-03-14T14:54:46Z</time>
      </trkpt>
      <trkpt lat="48.31864" lon="-2.9396">
        <ele>172</ele>
        <time>2016-03-14T14:54:48Z</time>
      </trkpt>
      <trkpt lat="48.31866" lon="-2.93959">
        <ele>172</ele>
        <time>2016-03-14T14:54:50Z</time>
      </trkpt>
      <trkpt lat="48.31868" lon="-2.93958">
        <ele>172</ele>
        <time>2016-03-14T14:54:52Z</time>
      </trkpt>
      <trkpt lat="48.31869" lon="-2.93957">
        <ele>172</ele>
        <time>2016-03-14T14:54:53Z</time>
      </trkpt>
      <trkpt lat="48.3187" lon="-2.93956">
        <ele>172</ele>
        <time>2016-03-14T14:54:54Z</time>
      </trkpt>
      <trkpt lat="48.31871" lon="-2.93956">
        <ele>172</ele>
        <time>2016-03-14T14:54:55Z</time>
      </trkpt>
      <trkpt lat="48.31873" lon="-2.93955">
        <ele>172</ele>
        <time>2016-03-14T14:54:57Z</time>
      </trkpt>
      <trkpt lat="48.31875" lon="-2.93954">
        <ele>172</ele>
        <time>2016-03-14T14:54:59Z</time>
      </trkpt>
      <trkpt lat="48.31876" lon="-2.93953">
        <ele>172</ele>
        <time>2016-03-14T14:55:00Z</time>
      </trkpt>
      <trkpt lat="48.31879" lon="-2.93953">
        <ele>172</ele>
        <time>2016-03-14T14:55:02Z</time>
      </trkpt>
      <trkpt lat="48.31881" lon="-2.93952">
        <ele>173</ele>
        <time>2016-03-14T14:55:04Z</time>
      </trkpt>
      <trkpt lat="48.31882" lon="-2.93951">
        <ele>173</ele>
        <time>2016-03-14T14:55:05Z</time>
      </trkpt>
      <trkpt lat="48.31884" lon="-2.9395">
        <ele>173</ele>
        <time>2016-03-14T14:55:07Z</time>
      </trkpt>
      <trkpt lat="48.31886" lon="-2.93949">
        <ele>173</ele>
        <time>2016-03-14T14:55:09Z</time>
      </trkpt>
      <trkpt lat="48.31887" lon="-2.93949">
        <ele>173</ele>
        <time>2016-03-14T14:55:10Z</time>
      </trkpt>
      <trkpt lat="48.31888" lon="-2.93948">
        <ele>173</ele>
        <time>2016-03-14T14:55:11Z</time>
      </trkpt>
      <trkpt lat="48.31889" lon="-2.93948">
        <ele>173</ele>
        <time>2016-03-14T14:55:12Z</time>
      </trkpt>
      <trkpt lat="48.31891" lon="-2.93947">
        <ele>173</ele>
        <time>2016-03-14T14:55:14Z</time>
      </trkpt>
      <trkpt lat="48.31893" lon="-2.93946">
        <ele>173</ele>
        <time>2016-03-14T14:55:16Z</time>
      </trkpt>
      <trkpt lat="48.31894" lon="-2.93946">
        <ele>173</ele>
        <time>2016-03-14T14:55:17Z</time>
      </trkpt>
      <trkpt lat="48.31895" lon="-2.93945">
        <ele>173</ele>
        <time>2016-03-14T14:55:18Z</time>
      </trkpt>
      <trkpt lat="48.31897" lon="-2.93945">
        <ele>173</ele>
        <time>2016-03-14T14:55:19Z</time>
      </trkpt>
      <trkpt lat="48.31898" lon="-2.93945">
        <ele>173</ele>
        <time>2016-03-14T14:55:20Z</time>
      </trkpt>
      <trkpt lat="48.319" lon="-2.93944">
        <ele>173</ele>
        <time>2016-03-14T14:55:22Z</time>
      </trkpt>
      <trkpt lat="48.31901" lon="-2.93944">
        <ele>173</ele>
        <time>2016-03-14T14:55:23Z</time>
      </trkpt>
      <trkpt lat="48.31902" lon="-2.93944">
        <ele>173</ele>
        <time>2016-03-14T14:55:24Z</time>
      </trkpt>
      <trkpt lat="48.31904" lon="-2.93943">
        <ele>173</ele>
        <time>2016-03-14T14:55:26Z</time>
      </trkpt>
      <trkpt lat="48.31905" lon="-2.93943">
        <ele>173</ele>
        <time>2016-03-14T14:55:27Z</time>
      </trkpt>
      <trkpt lat="48.31907" lon="-2.93942">
        <ele>173</ele>
        <time>2016-03-14T14:55:28Z</time>
      </trkpt>
      <trkpt lat="48.31908" lon="-2.93942">
        <ele>173</ele>
        <time>2016-03-14T14:55:29Z</time>
      </trkpt>
      <trkpt lat="48.31909" lon="-2.93942">
        <ele>173</ele>
        <time>2016-03-14T14:55:30Z</time>
      </trkpt>
      <trkpt lat="48.31911" lon="-2.93941">
        <ele>173</ele>
        <time>2016-03-14T14:55:32Z</time>
      </trkpt>
      <trkpt lat="48.31912" lon="-2.93941">
        <ele>173</ele>
        <time>2016-03-14T14:55:33Z</time>
      </trkpt>
      <trkpt lat="48.31913" lon="-2.93941">
        <ele>173</ele>
        <time>2016-03-14T14:55:34Z</time>
      </trkpt>
      <trkpt lat="48.31914" lon="-2.93941">
        <ele>173</ele>
        <time>2016-03-14T14:55:35Z</time>
      </trkpt>
      <trkpt lat="48.31916" lon="-2.93941">
        <ele>173</ele>
        <time>2016-03-14T14:55:36Z</time>
      </trkpt>
      <trkpt lat="48.31918" lon="-2.9394">
        <ele>173</ele>
        <time>2016-03-14T14:55:38Z</time>
      </trkpt>
      <trkpt lat="48.3192" lon="-2.9394">
        <ele>173</ele>
        <time>2016-03-14T14:55:40Z</time>
      </trkpt>
      <trkpt lat="48.31921" lon="-2.9394">
        <ele>173</ele>
        <time>2016-03-14T14:55:41Z</time>
      </trkpt>
      <trkpt lat="48.31923" lon="-2.93939">
        <ele>173</ele>
        <time>2016-03-14T14:55:43Z</time>
      </trkpt>
      <trkpt lat="48.31926" lon="-2.93939">
        <ele>173</ele>
        <time>2016-03-14T14:55:45Z</time>
      </trkpt>
      <trkpt lat="48.31927" lon="-2.93939">
        <ele>173</ele>
        <time>2016-03-14T14:55:46Z</time>
      </trkpt>
      <trkpt lat="48.31929" lon="-2.93938">
        <ele>173</ele>
        <time>2016-03-14T14:55:48Z</time>
      </trkpt>
      <trkpt lat="48.3193" lon="-2.93938">
        <ele>173</ele>
        <time>2016-03-14T14:55:49Z</time>
      </trkpt>
      <trkpt lat="48.31931" lon="-2.93937">
        <ele>173</ele>
        <time>2016-03-14T14:55:50Z</time>
      </trkpt>
      <trkpt lat="48.31933" lon="-2.93937">
        <ele>173</ele>
        <time>2016-03-14T14:55:52Z</time>
      </trkpt>
      <trkpt lat="48.31935" lon="-2.93936">
        <ele>173</ele>
        <time>2016-03-14T14:55:54Z</time>
      </trkpt>
      <trkpt lat="48.31937" lon="-2.93935">
        <ele>173</ele>
        <time>2016-03-14T14:55:56Z</time>
      </trkpt>
      <trkpt lat="48.31938" lon="-2.93935">
        <ele>173</ele>
        <time>2016-03-14T14:55:57Z</time>
      </trkpt>
      <trkpt lat="48.3194" lon="-2.93934">
        <ele>173</ele>
        <time>2016-03-14T14:55:59Z</time>
      </trkpt>
      <trkpt lat="48.31942" lon="-2.93933">
        <ele>173</ele>
        <time>2016-03-14T14:56:00Z</time>
      </trkpt>
      <trkpt lat="48.31943" lon="-2.93932">
        <ele>173</ele>
        <time>2016-03-14T14:56:01Z</time>
      </trkpt>
      <trkpt lat="48.31944" lon="-2.93932">
        <ele>173</ele>
        <time>2016-03-14T14:56:02Z</time>
      </trkpt>
      <trkpt lat="48.31946" lon="-2.93931">
        <ele>173</ele>
        <time>2016-03-14T14:56:04Z</time>
      </trkpt>
      <trkpt lat="48.31947" lon="-2.9393">
        <ele>173</ele>
        <time>2016-03-14T14:56:05Z</time>
      </trkpt>
      <trkpt lat="48.31948" lon="-2.9393">
        <ele>173</ele>
        <time>2016-03-14T14:56:06Z</time>
      </trkpt>
      <trkpt lat="48.3195" lon="-2.93929">
        <ele>173</ele>
        <time>2016-03-14T14:56:07Z</time>
      </trkpt>
      <trkpt lat="48.31951" lon="-2.93928">
        <ele>173</ele>
        <time>2016-03-14T14:56:08Z</time>
      </trkpt>
      <trkpt lat="48.31952" lon="-2.93928">
        <ele>173</ele>
        <time>2016-03-14T14:56:09Z</time>
      </trkpt>
      <trkpt lat="48.31954" lon="-2.93926">
        <ele>173</ele>
        <time>2016-03-14T14:56:11Z</time>
      </trkpt>
      <trkpt lat="48.31956" lon="-2.93923">
        <ele>173</ele>
        <time>2016-03-14T14:56:13Z</time>
      </trkpt>
      <trkpt lat="48.31958" lon="-2.93921">
        <ele>173</ele>
        <time>2016-03-14T14:56:15Z</time>
      </trkpt>
      <trkpt lat="48.31958" lon="-2.93917">
        <ele>173</ele>
        <time>2016-03-14T14:56:17Z</time>
      </trkpt>
      <trkpt lat="48.31958" lon="-2.93916">
        <ele>173</ele>
        <time>2016-03-14T14:56:18Z</time>
      </trkpt>
      <trkpt lat="48.31958" lon="-2.93914">
        <ele>173</ele>
        <time>2016-03-14T14:56:19Z</time>
      </trkpt>
      <trkpt lat="48.31958" lon="-2.93912">
        <ele>173</ele>
        <time>2016-03-14T14:56:20Z</time>
      </trkpt>
      <trkpt lat="48.31958" lon="-2.9391">
        <ele>173</ele>
        <time>2016-03-14T14:56:21Z</time>
      </trkpt>
      <trkpt lat="48.31958" lon="-2.93907">
        <ele>173</ele>
        <time>2016-03-14T14:56:23Z</time>
      </trkpt>
      <trkpt lat="48.31958" lon="-2.93905">
        <ele>173</ele>
        <time>2016-03-14T14:56:24Z</time>
      </trkpt>
      <trkpt lat="48.31957" lon="-2.93903">
        <ele>173</ele>
        <time>2016-03-14T14:56:25Z</time>
      </trkpt>
      <trkpt lat="48.31957" lon="-2.93902">
        <ele>173</ele>
        <time>2016-03-14T14:56:26Z</time>
      </trkpt>
      <trkpt lat="48.31957" lon="-2.939">
        <ele>173</ele>
        <time>2016-03-14T14:56:27Z</time>
      </trkpt>
      <trkpt lat="48.31956" lon="-2.93898">
        <ele>173</ele>
        <time>2016-03-14T14:56:28Z</time>
      </trkpt>
      <trkpt lat="48.31956" lon="-2.93895">
        <ele>173</ele>
        <time>2016-03-14T14:56:30Z</time>
      </trkpt>
      <trkpt lat="48.31956" lon="-2.93893">
        <ele>173</ele>
        <time>2016-03-14T14:56:31Z</time>
      </trkpt>
      <trkpt lat="48.31955" lon="-2.93892">
        <ele>173</ele>
        <time>2016-03-14T14:56:32Z</time>
      </trkpt>
      <trkpt lat="48.31955" lon="-2.9389">
        <ele>173</ele>
        <time>2016-03-14T14:56:33Z</time>
      </trkpt>
      <trkpt lat="48.31955" lon="-2.93888">
        <ele>173</ele>
        <time>2016-03-14T14:56:34Z</time>
      </trkpt>
      <trkpt lat="48.31955" lon="-2.93885">
        <ele>173</ele>
        <time>2016-03-14T14:56:36Z</time>
      </trkpt>
      <trkpt lat="48.31954" lon="-2.93883">
        <ele>173</ele>
        <time>2016-03-14T14:56:37Z</time>
      </trkpt>
      <trkpt lat="48.31954" lon="-2.93881">
        <ele>173</ele>
        <time>2016-03-14T14:56:38Z</time>
      </trkpt>
      <trkpt lat="48.31954" lon="-2.9388">
        <ele>173</ele>
        <time>2016-03-14T14:56:39Z</time>
      </trkpt>
      <trkpt lat="48.31954" lon="-2.93877">
        <ele>173</ele>
        <time>2016-03-14T14:56:41Z</time>
      </trkpt>
      <trkpt lat="48.31953" lon="-2.93875">
        <ele>173</ele>
        <time>2016-03-14T14:56:42Z</time>
      </trkpt>
      <trkpt lat="48.31953" lon="-2.93873">
        <ele>173</ele>
        <time>2016-03-14T14:56:43Z</time>
      </trkpt>
      <trkpt lat="48.31953" lon="-2.93871">
        <ele>173</ele>
        <time>2016-03-14T14:56:44Z</time>
      </trkpt>
      <trkpt lat="48.31953" lon="-2.9387">
        <ele>173</ele>
        <time>2016-03-14T14:56:45Z</time>
      </trkpt>
      <trkpt lat="48.31952" lon="-2.93868">
        <ele>173</ele>
        <time>2016-03-14T14:56:46Z</time>
      </trkpt>
      <trkpt lat="48.31952" lon="-2.93865">
        <ele>173</ele>
        <time>2016-03-14T14:56:48Z</time>
      </trkpt>
      <trkpt lat="48.31952" lon="-2.93862">
        <ele>173</ele>
        <time>2016-03-14T14:56:50Z</time>
      </trkpt>
      <trkpt lat="48.31951" lon="-2.93858">
        <ele>173</ele>
        <time>2016-03-14T14:56:52Z</time>
      </trkpt>
      <trkpt lat="48.3195" lon="-2.93855">
        <ele>173</ele>
        <time>2016-03-14T14:56:54Z</time>
      </trkpt>
      <trkpt lat="48.3195" lon="-2.93854">
        <ele>173</ele>
        <time>2016-03-14T14:56:55Z</time>
      </trkpt>
      <trkpt lat="48.3195" lon="-2.93852">
        <ele>173</ele>
        <time>2016-03-14T14:56:56Z</time>
      </trkpt>
      <trkpt lat="48.3195" lon="-2.9385">
        <ele>173</ele>
        <time>2016-03-14T14:56:57Z</time>
      </trkpt>
      <trkpt lat="48.3195" lon="-2.93847">
        <ele>173</ele>
        <time>2016-03-14T14:56:59Z</time>
      </trkpt>
      <trkpt lat="48.31949" lon="-2.93844">
        <ele>173</ele>
        <time>2016-03-14T14:57:01Z</time>
      </trkpt>
      <trkpt lat="48.31949" lon="-2.93842">
        <ele>173</ele>
        <time>2016-03-14T14:57:02Z</time>
      </trkpt>
      <trkpt lat="48.31949" lon="-2.93841">
        <ele>173</ele>
        <time>2016-03-14T14:57:03Z</time>
      </trkpt>
      <trkpt lat="48.31948" lon="-2.93837">
        <ele>173</ele>
        <time>2016-03-14T14:57:05Z</time>
      </trkpt>
      <trkpt lat="48.31948" lon="-2.93836">
        <ele>173</ele>
        <time>2016-03-14T14:57:06Z</time>
      </trkpt>
      <trkpt lat="48.31948" lon="-2.93834">
        <ele>173</ele>
        <time>2016-03-14T14:57:07Z</time>
      </trkpt>
      <trkpt lat="48.31948" lon="-2.93832">
        <ele>173</ele>
        <time>2016-03-14T14:57:08Z</time>
      </trkpt>
      <trkpt lat="48.31947" lon="-2.9383">
        <ele>173</ele>
        <time>2016-03-14T14:57:09Z</time>
      </trkpt>
      <trkpt lat="48.31947" lon="-2.93829">
        <ele>173</ele>
        <time>2016-03-14T14:57:10Z</time>
      </trkpt>
      <trkpt lat="48.31947" lon="-2.93827">
        <ele>173</ele>
        <time>2016-03-14T14:57:11Z</time>
      </trkpt>
      <trkpt lat="48.31947" lon="-2.93826">
        <ele>173</ele>
        <time>2016-03-14T14:57:12Z</time>
      </trkpt>
      <trkpt lat="48.31946" lon="-2.93824">
        <ele>173</ele>
        <time>2016-03-14T14:57:13Z</time>
      </trkpt>
      <trkpt lat="48.31946" lon="-2.93821">
        <ele>173</ele>
        <time>2016-03-14T14:57:15Z</time>
      </trkpt>
      <trkpt lat="48.31945" lon="-2.93818">
        <ele>173</ele>
        <time>2016-03-14T14:57:17Z</time>
      </trkpt>
      <trkpt lat="48.31945" lon="-2.93816">
        <ele>173</ele>
        <time>2016-03-14T14:57:18Z</time>
      </trkpt>
      <trkpt lat="48.31945" lon="-2.93813">
        <ele>173</ele>
        <time>2016-03-14T14:57:20Z</time>
      </trkpt>
      <trkpt lat="48.31945" lon="-2.9381">
        <ele>173</ele>
        <time>2016-03-14T14:57:22Z</time>
      </trkpt>
      <trkpt lat="48.31944" lon="-2.93807">
        <ele>173</ele>
        <time>2016-03-14T14:57:24Z</time>
      </trkpt>
      <trkpt lat="48.31944" lon="-2.93804">
        <ele>173</ele>
        <time>2016-03-14T14:57:26Z</time>
      </trkpt>
      <trkpt lat="48.31943" lon="-2.93801">
        <ele>173</ele>
        <time>2016-03-14T14:57:28Z</time>
      </trkpt>
      <trkpt lat="48.31943" lon="-2.93799">
        <ele>173</ele>
        <time>2016-03-14T14:57:29Z</time>
      </trkpt>
      <trkpt lat="48.31942" lon="-2.93797">
        <ele>173</ele>
        <time>2016-03-14T14:57:30Z</time>
      </trkpt>
      <trkpt lat="48.31942" lon="-2.93795">
        <ele>173</ele>
        <time>2016-03-14T14:57:31Z</time>
      </trkpt>
      <trkpt lat="48.31942" lon="-2.93792">
        <ele>173</ele>
        <time>2016-03-14T14:57:33Z</time>
      </trkpt>
      <trkpt lat="48.31942" lon="-2.93791">
        <ele>173</ele>
        <time>2016-03-14T14:57:34Z</time>
      </trkpt>
      <trkpt lat="48.31941" lon="-2.93789">
        <ele>173</ele>
        <time>2016-03-14T14:57:35Z</time>
      </trkpt>
      <trkpt lat="48.31941" lon="-2.93787">
        <ele>173</ele>
        <time>2016-03-14T14:57:36Z</time>
      </trkpt>
      <trkpt lat="48.31941" lon="-2.93784">
        <ele>173</ele>
        <time>2016-03-14T14:57:38Z</time>
      </trkpt>
      <trkpt lat="48.3194" lon="-2.93781">
        <ele>173</ele>
        <time>2016-03-14T14:57:40Z</time>
      </trkpt>
      <trkpt lat="48.3194" lon="-2.93779">
        <ele>173</ele>
        <time>2016-03-14T14:57:41Z</time>
      </trkpt>
      <trkpt lat="48.31939" lon="-2.93778">
        <ele>173</ele>
        <time>2016-03-14T14:57:42Z</time>
      </trkpt>
      <trkpt lat="48.31939" lon="-2.93776">
        <ele>173</ele>
        <time>2016-03-14T14:57:43Z</time>
      </trkpt>
      <trkpt lat="48.31939" lon="-2.93773">
        <ele>173</ele>
        <time>2016-03-14T14:57:45Z</time>
      </trkpt>
      <trkpt lat="48.31939" lon="-2.93771">
        <ele>173</ele>
        <time>2016-03-14T14:57:46Z</time>
      </trkpt>
      <trkpt lat="48.31938" lon="-2.9377">
        <ele>173</ele>
        <time>2016-03-14T14:57:47Z</time>
      </trkpt>
      <trkpt lat="48.31938" lon="-2.93768">
        <ele>173</ele>
        <time>2016-03-14T14:57:48Z</time>
      </trkpt>
      <trkpt lat="48.31937" lon="-2.93765">
        <ele>173</ele>
        <time>2016-03-14T14:57:50Z</time>
      </trkpt>
      <trkpt lat="48.31937" lon="-2.93762">
        <ele>173</ele>
        <time>2016-03-14T14:57:52Z</time>
      </trkpt>
      <trkpt lat="48.31937" lon="-2.9376">
        <ele>173</ele>
        <time>2016-03-14T14:57:53Z</time>
      </trkpt>
      <trkpt lat="48.31936" lon="-2.93757">
        <ele>173</ele>
        <time>2016-03-14T14:57:55Z</time>
      </trkpt>
      <trkpt lat="48.31936" lon="-2.93754">
        <ele>173</ele>
        <time>2016-03-14T14:57:57Z</time>
      </trkpt>
      <trkpt lat="48.31936" lon="-2.93753">
        <ele>173</ele>
        <time>2016-03-14T14:57:58Z</time>
      </trkpt>
      <trkpt lat="48.31935" lon="-2.93749">
        <ele>173</ele>
        <time>2016-03-14T14:58:00Z</time>
      </trkpt>
      <trkpt lat="48.31935" lon="-2.93747">
        <ele>173</ele>
        <time>2016-03-14T14:58:01Z</time>
      </trkpt>
      <trkpt lat="48.31935" lon="-2.93744">
        <ele>173</ele>
        <time>2016-03-14T14:58:03Z</time>
      </trkpt>
      <trkpt lat="48.31935" lon="-2.93742">
        <ele>173</ele>
        <time>2016-03-14T14:58:04Z</time>
      </trkpt>
      <trkpt lat="48.31934" lon="-2.93741">
        <ele>173</ele>
        <time>2016-03-14T14:58:05Z</time>
      </trkpt>
      <trkpt lat="48.31934" lon="-2.93739">
        <ele>173</ele>
        <time>2016-03-14T14:58:06Z</time>
      </trkpt>
      <trkpt lat="48.31934" lon="-2.93737">
        <ele>173</ele>
        <time>2016-03-14T14:58:07Z</time>
      </trkpt>
      <trkpt lat="48.31934" lon="-2.93735">
        <ele>173</ele>
        <time>2016-03-14T14:58:08Z</time>
      </trkpt>
      <trkpt lat="48.31933" lon="-2.93732">
        <ele>173</ele>
        <time>2016-03-14T14:58:10Z</time>
      </trkpt>
      <trkpt lat="48.31933" lon="-2.93729">
        <ele>173</ele>
        <time>2016-03-14T14:58:12Z</time>
      </trkpt>
      <trkpt lat="48.31932" lon="-2.93727">
        <ele>173</ele>
        <time>2016-03-14T14:58:13Z</time>
      </trkpt>
      <trkpt lat="48.31932" lon="-2.93724">
        <ele>173</ele>
        <time>2016-03-14T14:58:15Z</time>
      </trkpt>
      <trkpt lat="48.31932" lon="-2.93722">
        <ele>173</ele>
        <time>2016-03-14T14:58:17Z</time>
      </trkpt>
      <trkpt lat="48.31932" lon="-2.9372">
        <ele>173</ele>
        <time>2016-03-14T14:58:18Z</time>
      </trkpt>
      <trkpt lat="48.31932" lon="-2.93717">
        <ele>172</ele>
        <time>2016-03-14T14:58:20Z</time>
      </trkpt>
      <trkpt lat="48.31931" lon="-2.93714">
        <ele>172</ele>
        <time>2016-03-14T14:58:22Z</time>
      </trkpt>
      <trkpt lat="48.31931" lon="-2.93711">
        <ele>171</ele>
        <time>2016-03-14T14:58:24Z</time>
      </trkpt>
      <trkpt lat="48.3193" lon="-2.93708">
        <ele>171</ele>
        <time>2016-03-14T14:58:26Z</time>
      </trkpt>
      <trkpt lat="48.3193" lon="-2.93705">
        <ele>171</ele>
        <time>2016-03-14T14:58:28Z</time>
      </trkpt>
      <trkpt lat="48.31929" lon="-2.93702">
        <ele>171</ele>
        <time>2016-03-14T14:58:30Z</time>
      </trkpt>
      <trkpt lat="48.31929" lon="-2.93699">
        <ele>171</ele>
        <time>2016-03-14T14:58:32Z</time>
      </trkpt>
      <trkpt lat="48.31928" lon="-2.93696">
        <ele>170</ele>
        <time>2016-03-14T14:58:34Z</time>
      </trkpt>
      <trkpt lat="48.31928" lon="-2.93694">
        <ele>170</ele>
        <time>2016-03-14T14:58:35Z</time>
      </trkpt>
      <trkpt lat="48.31928" lon="-2.93693">
        <ele>170</ele>
        <time>2016-03-14T14:58:36Z</time>
      </trkpt>
      <trkpt lat="48.31927" lon="-2.9369">
        <ele>170</ele>
        <time>2016-03-14T14:58:38Z</time>
      </trkpt>
      <trkpt lat="48.31927" lon="-2.93688">
        <ele>170</ele>
        <time>2016-03-14T14:58:39Z</time>
      </trkpt>
      <trkpt lat="48.31927" lon="-2.93685">
        <ele>170</ele>
        <time>2016-03-14T14:58:41Z</time>
      </trkpt>
      <trkpt lat="48.31926" lon="-2.93682">
        <ele>170</ele>
        <time>2016-03-14T14:58:43Z</time>
      </trkpt>
      <trkpt lat="48.31926" lon="-2.93679">
        <ele>170</ele>
        <time>2016-03-14T14:58:45Z</time>
      </trkpt>
      <trkpt lat="48.31926" lon="-2.93677">
        <ele>170</ele>
        <time>2016-03-14T14:58:46Z</time>
      </trkpt>
      <trkpt lat="48.31926" lon="-2.93676">
        <ele>170</ele>
        <time>2016-03-14T14:58:47Z</time>
      </trkpt>
      <trkpt lat="48.31925" lon="-2.93673">
        <ele>169</ele>
        <time>2016-03-14T14:58:49Z</time>
      </trkpt>
      <trkpt lat="48.31925" lon="-2.9367">
        <ele>169</ele>
        <time>2016-03-14T14:58:51Z</time>
      </trkpt>
      <trkpt lat="48.31924" lon="-2.93668">
        <ele>169</ele>
        <time>2016-03-14T14:58:53Z</time>
      </trkpt>
      <trkpt lat="48.31924" lon="-2.93665">
        <ele>168</ele>
        <time>2016-03-14T14:58:55Z</time>
      </trkpt>
      <trkpt lat="48.31924" lon="-2.93662">
        <ele>168</ele>
        <time>2016-03-14T14:58:57Z</time>
      </trkpt>
      <trkpt lat="48.31924" lon="-2.93659">
        <ele>168</ele>
        <time>2016-03-14T14:58:59Z</time>
      </trkpt>
      <trkpt lat="48.31923" lon="-2.93656">
        <ele>168</ele>
        <time>2016-03-14T14:59:01Z</time>
      </trkpt>
      <trkpt lat="48.31923" lon="-2.93654">
        <ele>168</ele>
        <time>2016-03-14T14:59:02Z</time>
      </trkpt>
      <trkpt lat="48.31922" lon="-2.93652">
        <ele>167</ele>
        <time>2016-03-14T14:59:04Z</time>
      </trkpt>
      <trkpt lat="48.31922" lon="-2.93649">
        <ele>167</ele>
        <time>2016-03-14T14:59:06Z</time>
      </trkpt>
      <trkpt lat="48.31921" lon="-2.93646">
        <ele>167</ele>
        <time>2016-03-14T14:59:08Z</time>
      </trkpt>
      <trkpt lat="48.31921" lon="-2.93643">
        <ele>167</ele>
        <time>2016-03-14T14:59:10Z</time>
      </trkpt>
      <trkpt lat="48.31921" lon="-2.9364">
        <ele>166</ele>
        <time>2016-03-14T14:59:12Z</time>
      </trkpt>
      <trkpt lat="48.31921" lon="-2.93638">
        <ele>166</ele>
        <time>2016-03-14T14:59:13Z</time>
      </trkpt>
      <trkpt lat="48.3192" lon="-2.93635">
        <ele>166</ele>
        <time>2016-03-14T14:59:15Z</time>
      </trkpt>
      <trkpt lat="48.3192" lon="-2.93634">
        <ele>166</ele>
        <time>2016-03-14T14:59:16Z</time>
      </trkpt>
      <trkpt lat="48.3192" lon="-2.93632">
        <ele>166</ele>
        <time>2016-03-14T14:59:17Z</time>
      </trkpt>
      <trkpt lat="48.31919" lon="-2.9363">
        <ele>166</ele>
        <time>2016-03-14T14:59:18Z</time>
      </trkpt>
      <trkpt lat="48.31919" lon="-2.93627">
        <ele>166</ele>
        <time>2016-03-14T14:59:20Z</time>
      </trkpt>
      <trkpt lat="48.31919" lon="-2.93624">
        <ele>166</ele>
        <time>2016-03-14T14:59:22Z</time>
      </trkpt>
      <trkpt lat="48.31919" lon="-2.93621">
        <ele>166</ele>
        <time>2016-03-14T14:59:24Z</time>
      </trkpt>
      <trkpt lat="48.31918" lon="-2.93618">
        <ele>165</ele>
        <time>2016-03-14T14:59:26Z</time>
      </trkpt>
      <trkpt lat="48.31918" lon="-2.93616">
        <ele>165</ele>
        <time>2016-03-14T14:59:27Z</time>
      </trkpt>
      <trkpt lat="48.31918" lon="-2.93613">
        <ele>165</ele>
        <time>2016-03-14T14:59:29Z</time>
      </trkpt>
      <trkpt lat="48.31917" lon="-2.9361">
        <ele>165</ele>
        <time>2016-03-14T14:59:31Z</time>
      </trkpt>
      <trkpt lat="48.31917" lon="-2.93608">
        <ele>165</ele>
        <time>2016-03-14T14:59:32Z</time>
      </trkpt>
      <trkpt lat="48.31917" lon="-2.93605">
        <ele>165</ele>
        <time>2016-03-14T14:59:34Z</time>
      </trkpt>
      <trkpt lat="48.31916" lon="-2.93604">
        <ele>165</ele>
        <time>2016-03-14T14:59:35Z</time>
      </trkpt>
      <trkpt lat="48.31916" lon="-2.93602">
        <ele>165</ele>
        <time>2016-03-14T14:59:36Z</time>
      </trkpt>
      <trkpt lat="48.31916" lon="-2.93599">
        <ele>164</ele>
        <time>2016-03-14T14:59:38Z</time>
      </trkpt>
      <trkpt lat="48.31915" lon="-2.93596">
        <ele>164</ele>
        <time>2016-03-14T14:59:40Z</time>
      </trkpt>
      <trkpt lat="48.31915" lon="-2.93593">
        <ele>164</ele>
        <time>2016-03-14T14:59:42Z</time>
      </trkpt>
      <trkpt lat="48.31915" lon="-2.93592">
        <ele>164</ele>
        <time>2016-03-14T14:59:43Z</time>
      </trkpt>
      <trkpt lat="48.31914" lon="-2.93588">
        <ele>164</ele>
        <time>2016-03-14T14:59:45Z</time>
      </trkpt>
      <trkpt lat="48.31914" lon="-2.93585">
        <ele>164</ele>
        <time>2016-03-14T14:59:47Z</time>
      </trkpt>
      <trkpt lat="48.31913" lon="-2.93583">
        <ele>164</ele>
        <time>2016-03-14T14:59:48Z</time>
      </trkpt>
      <trkpt lat="48.31913" lon="-2.93582">
        <ele>164</ele>
        <time>2016-03-14T14:59:49Z</time>
      </trkpt>
      <trkpt lat="48.31913" lon="-2.93579">
        <ele>164</ele>
        <time>2016-03-14T14:59:51Z</time>
      </trkpt>
      <trkpt lat="48.31913" lon="-2.93577">
        <ele>164</ele>
        <time>2016-03-14T14:59:52Z</time>
      </trkpt>
      <trkpt lat="48.31912" lon="-2.93575">
        <ele>164</ele>
        <time>2016-03-14T14:59:53Z</time>
      </trkpt>
      <trkpt lat="48.31912" lon="-2.93573">
        <ele>164</ele>
        <time>2016-03-14T14:59:54Z</time>
      </trkpt>
      <trkpt lat="48.31912" lon="-2.9357">
        <ele>164</ele>
        <time>2016-03-14T14:59:56Z</time>
      </trkpt>
      <trkpt lat="48.31912" lon="-2.93569">
        <ele>164</ele>
        <time>2016-03-14T14:59:57Z</time>
      </trkpt>
      <trkpt lat="48.31911" lon="-2.93567">
        <ele>164</ele>
        <time>2016-03-14T14:59:58Z</time>
      </trkpt>
      <trkpt lat="48.31911" lon="-2.93565">
        <ele>164</ele>
        <time>2016-03-14T14:59:59Z</time>
      </trkpt>
      <trkpt lat="48.31911" lon="-2.93562">
        <ele>164</ele>
        <time>2016-03-14T15:00:01Z</time>
      </trkpt>
      <trkpt lat="48.3191" lon="-2.93561">
        <ele>164</ele>
        <time>2016-03-14T15:00:02Z</time>
      </trkpt>
      <trkpt lat="48.3191" lon="-2.93558">
        <ele>164</ele>
        <time>2016-03-14T15:00:03Z</time>
      </trkpt>
      <trkpt lat="48.3191" lon="-2.93556">
        <ele>164</ele>
        <time>2016-03-14T15:00:04Z</time>
      </trkpt>
      <trkpt lat="48.31909" lon="-2.93554">
        <ele>164</ele>
        <time>2016-03-14T15:00:05Z</time>
      </trkpt>
      <trkpt lat="48.31909" lon="-2.93552">
        <ele>164</ele>
        <time>2016-03-14T15:00:06Z</time>
      </trkpt>
      <trkpt lat="48.31908" lon="-2.93551">
        <ele>164</ele>
        <time>2016-03-14T15:00:07Z</time>
      </trkpt>
      <trkpt lat="48.31908" lon="-2.93548">
        <ele>164</ele>
        <time>2016-03-14T15:00:09Z</time>
      </trkpt>
      <trkpt lat="48.31908" lon="-2.93545">
        <ele>164</ele>
        <time>2016-03-14T15:00:11Z</time>
      </trkpt>
      <trkpt lat="48.31907" lon="-2.93542">
        <ele>164</ele>
        <time>2016-03-14T15:00:13Z</time>
      </trkpt>
      <trkpt lat="48.31907" lon="-2.9354">
        <ele>164</ele>
        <time>2016-03-14T15:00:14Z</time>
      </trkpt>
      <trkpt lat="48.31907" lon="-2.93537">
        <ele>164</ele>
        <time>2016-03-14T15:00:16Z</time>
      </trkpt>
      <trkpt lat="48.31906" lon="-2.93533">
        <ele>164</ele>
        <time>2016-03-14T15:00:18Z</time>
      </trkpt>
      <trkpt lat="48.31906" lon="-2.93531">
        <ele>164</ele>
        <time>2016-03-14T15:00:20Z</time>
      </trkpt>
      <trkpt lat="48.31905" lon="-2.93527">
        <ele>164</ele>
        <time>2016-03-14T15:00:22Z</time>
      </trkpt>
      <trkpt lat="48.31905" lon="-2.93526">
        <ele>164</ele>
        <time>2016-03-14T15:00:23Z</time>
      </trkpt>
      <trkpt lat="48.31905" lon="-2.93523">
        <ele>164</ele>
        <time>2016-03-14T15:00:25Z</time>
      </trkpt>
      <trkpt lat="48.31904" lon="-2.93519">
        <ele>164</ele>
        <time>2016-03-14T15:00:27Z</time>
      </trkpt>
      <trkpt lat="48.31903" lon="-2.93516">
        <ele>164</ele>
        <time>2016-03-14T15:00:29Z</time>
      </trkpt>
      <trkpt lat="48.31903" lon="-2.93513">
        <ele>164</ele>
        <time>2016-03-14T15:00:31Z</time>
      </trkpt>
      <trkpt lat="48.31903" lon="-2.93511">
        <ele>164</ele>
        <time>2016-03-14T15:00:32Z</time>
      </trkpt>
      <trkpt lat="48.31902" lon="-2.93508">
        <ele>164</ele>
        <time>2016-03-14T15:00:34Z</time>
      </trkpt>
      <trkpt lat="48.31902" lon="-2.93505">
        <ele>164</ele>
        <time>2016-03-14T15:00:36Z</time>
      </trkpt>
      <trkpt lat="48.31902" lon="-2.93504">
        <ele>164</ele>
        <time>2016-03-14T15:00:37Z</time>
      </trkpt>
      <trkpt lat="48.31902" lon="-2.93502">
        <ele>164</ele>
        <time>2016-03-14T15:00:38Z</time>
      </trkpt>
      <trkpt lat="48.31901" lon="-2.935">
        <ele>164</ele>
        <time>2016-03-14T15:00:39Z</time>
      </trkpt>
      <trkpt lat="48.31901" lon="-2.93498">
        <ele>164</ele>
        <time>2016-03-14T15:00:40Z</time>
      </trkpt>
      <trkpt lat="48.319" lon="-2.93496">
        <ele>164</ele>
        <time>2016-03-14T15:00:41Z</time>
      </trkpt>
      <trkpt lat="48.319" lon="-2.93494">
        <ele>164</ele>
        <time>2016-03-14T15:00:42Z</time>
      </trkpt>
      <trkpt lat="48.319" lon="-2.93492">
        <ele>164</ele>
        <time>2016-03-14T15:00:43Z</time>
      </trkpt>
      <trkpt lat="48.319" lon="-2.9349">
        <ele>164</ele>
        <time>2016-03-14T15:00:44Z</time>
      </trkpt>
      <trkpt lat="48.319" lon="-2.93487">
        <ele>164</ele>
        <time>2016-03-14T15:00:46Z</time>
      </trkpt>
      <trkpt lat="48.31899" lon="-2.93485">
        <ele>164</ele>
        <time>2016-03-14T15:00:47Z</time>
      </trkpt>
      <trkpt lat="48.31899" lon="-2.93482">
        <ele>164</ele>
        <time>2016-03-14T15:00:49Z</time>
      </trkpt>
      <trkpt lat="48.31898" lon="-2.93479">
        <ele>164</ele>
        <time>2016-03-14T15:00:51Z</time>
      </trkpt>
      <trkpt lat="48.31898" lon="-2.93476">
        <ele>164</ele>
        <time>2016-03-14T15:00:53Z</time>
      </trkpt>
      <trkpt lat="48.31897" lon="-2.93474">
        <ele>164</ele>
        <time>2016-03-14T15:00:55Z</time>
      </trkpt>
      <trkpt lat="48.31897" lon="-2.93472">
        <ele>164</ele>
        <time>2016-03-14T15:00:56Z</time>
      </trkpt>
      <trkpt lat="48.31897" lon="-2.93469">
        <ele>164</ele>
        <time>2016-03-14T15:00:58Z</time>
      </trkpt>
      <trkpt lat="48.31896" lon="-2.93466">
        <ele>164</ele>
        <time>2016-03-14T15:01:00Z</time>
      </trkpt>
      <trkpt lat="48.31895" lon="-2.93464">
        <ele>164</ele>
        <time>2016-03-14T15:01:01Z</time>
      </trkpt>
      <trkpt lat="48.31895" lon="-2.93461">
        <ele>164</ele>
        <time>2016-03-14T15:01:03Z</time>
      </trkpt>
      <trkpt lat="48.31894" lon="-2.93458">
        <ele>164</ele>
        <time>2016-03-14T15:01:05Z</time>
      </trkpt>
      <trkpt lat="48.31894" lon="-2.93457">
        <ele>164</ele>
        <time>2016-03-14T15:01:06Z</time>
      </trkpt>
      <trkpt lat="48.31894" lon="-2.93454">
        <ele>164</ele>
        <time>2016-03-14T15:01:08Z</time>
      </trkpt>
      <trkpt lat="48.31894" lon="-2.93452">
        <ele>164</ele>
        <time>2016-03-14T15:01:09Z</time>
      </trkpt>
      <trkpt lat="48.31893" lon="-2.93449">
        <ele>164</ele>
        <time>2016-03-14T15:01:11Z</time>
      </trkpt>
      <trkpt lat="48.31892" lon="-2.93447">
        <ele>164</ele>
        <time>2016-03-14T15:01:12Z</time>
      </trkpt>
      <trkpt lat="48.31892" lon="-2.93444">
        <ele>164</ele>
        <time>2016-03-14T15:01:14Z</time>
      </trkpt>
      <trkpt lat="48.31892" lon="-2.93443">
        <ele>164</ele>
        <time>2016-03-14T15:01:15Z</time>
      </trkpt>
      <trkpt lat="48.31892" lon="-2.93441">
        <ele>164</ele>
        <time>2016-03-14T15:01:16Z</time>
      </trkpt>
      <trkpt lat="48.31891" lon="-2.93439">
        <ele>164</ele>
        <time>2016-03-14T15:01:17Z</time>
      </trkpt>
      <trkpt lat="48.31891" lon="-2.93437">
        <ele>164</ele>
        <time>2016-03-14T15:01:18Z</time>
      </trkpt>
      <trkpt lat="48.31891" lon="-2.93434">
        <ele>164</ele>
        <time>2016-03-14T15:01:20Z</time>
      </trkpt>
      <trkpt lat="48.31891" lon="-2.93432">
        <ele>164</ele>
        <time>2016-03-14T15:01:21Z</time>
      </trkpt>
      <trkpt lat="48.31891" lon="-2.9343">
        <ele>164</ele>
        <time>2016-03-14T15:01:22Z</time>
      </trkpt>
      <trkpt lat="48.3189" lon="-2.93429">
        <ele>164</ele>
        <time>2016-03-14T15:01:23Z</time>
      </trkpt>
      <trkpt lat="48.3189" lon="-2.93427">
        <ele>164</ele>
        <time>2016-03-14T15:01:24Z</time>
      </trkpt>
      <trkpt lat="48.3189" lon="-2.93425">
        <ele>164</ele>
        <time>2016-03-14T15:01:25Z</time>
      </trkpt>
      <trkpt lat="48.3189" lon="-2.93423">
        <ele>164</ele>
        <time>2016-03-14T15:01:26Z</time>
      </trkpt>
      <trkpt lat="48.3189" lon="-2.93422">
        <ele>164</ele>
        <time>2016-03-14T15:01:27Z</time>
      </trkpt>
      <trkpt lat="48.31889" lon="-2.93419">
        <ele>164</ele>
        <time>2016-03-14T15:01:29Z</time>
      </trkpt>
      <trkpt lat="48.31889" lon="-2.93415">
        <ele>165</ele>
        <time>2016-03-14T15:01:31Z</time>
      </trkpt>
      <trkpt lat="48.31889" lon="-2.93413">
        <ele>165</ele>
        <time>2016-03-14T15:01:32Z</time>
      </trkpt>
      <trkpt lat="48.31888" lon="-2.9341">
        <ele>165</ele>
        <time>2016-03-14T15:01:34Z</time>
      </trkpt>
      <trkpt lat="48.31888" lon="-2.93408">
        <ele>165</ele>
        <time>2016-03-14T15:01:36Z</time>
      </trkpt>
      <trkpt lat="48.31887" lon="-2.93405">
        <ele>165</ele>
        <time>2016-03-14T15:01:38Z</time>
      </trkpt>
      <trkpt lat="48.31887" lon="-2.93401">
        <ele>165</ele>
        <time>2016-03-14T15:01:40Z</time>
      </trkpt>
      <trkpt lat="48.31887" lon="-2.93398">
        <ele>165</ele>
        <time>2016-03-14T15:01:42Z</time>
      </trkpt>
      <trkpt lat="48.31886" lon="-2.93395">
        <ele>166</ele>
        <time>2016-03-14T15:01:44Z</time>
      </trkpt>
      <trkpt lat="48.31886" lon="-2.93393">
        <ele>166</ele>
        <time>2016-03-14T15:01:46Z</time>
      </trkpt>
      <trkpt lat="48.31886" lon="-2.9339">
        <ele>166</ele>
        <time>2016-03-14T15:01:48Z</time>
      </trkpt>
      <trkpt lat="48.31886" lon="-2.93388">
        <ele>166</ele>
        <time>2016-03-14T15:01:50Z</time>
      </trkpt>
      <trkpt lat="48.31886" lon="-2.93386">
        <ele>166</ele>
        <time>2016-03-14T15:01:52Z</time>
      </trkpt>
      <trkpt lat="48.31886" lon="-2.93384">
        <ele>166</ele>
        <time>2016-03-14T15:01:55Z</time>
      </trkpt>
      <trkpt lat="48.31886" lon="-2.93382">
        <ele>168</ele>
        <time>2016-03-14T15:02:06Z</time>
      </trkpt>
      <trkpt lat="48.31886" lon="-2.9338">
        <ele>170</ele>
        <time>2016-03-14T15:02:19Z</time>
      </trkpt>
      <trkpt lat="48.31886" lon="-2.93378">
        <ele>170</ele>
        <time>2016-03-14T15:02:36Z</time>
      </trkpt>
      <trkpt lat="48.31887" lon="-2.93376">
        <ele>171</ele>
        <time>2016-03-14T15:02:39Z</time>
      </trkpt>
      <trkpt lat="48.31889" lon="-2.93374">
        <ele>171</ele>
        <time>2016-03-14T15:02:42Z</time>
      </trkpt>
      <trkpt lat="48.31889" lon="-2.93372">
        <ele>171</ele>
        <time>2016-03-14T15:02:44Z</time>
      </trkpt>
      <trkpt lat="48.31891" lon="-2.93372">
        <ele>173</ele>
        <time>2016-03-14T15:03:26Z</time>
      </trkpt>
      <trkpt lat="48.31892" lon="-2.93372">
        <ele>173</ele>
        <time>2016-03-14T15:03:28Z</time>
      </trkpt>
      <trkpt lat="48.31893" lon="-2.93372">
        <ele>173</ele>
        <time>2016-03-14T15:03:30Z</time>
      </trkpt>
      <trkpt lat="48.31895" lon="-2.93372">
        <ele>173</ele>
        <time>2016-03-14T15:03:32Z</time>
      </trkpt>
      <trkpt lat="48.31897" lon="-2.93371">
        <ele>173</ele>
        <time>2016-03-14T15:03:34Z</time>
      </trkpt>
      <trkpt lat="48.31899" lon="-2.93371">
        <ele>173</ele>
        <time>2016-03-14T15:03:36Z</time>
      </trkpt>
      <trkpt lat="48.319" lon="-2.9337">
        <ele>173</ele>
        <time>2016-03-14T15:03:38Z</time>
      </trkpt>
      <trkpt lat="48.31902" lon="-2.93369">
        <ele>173</ele>
        <time>2016-03-14T15:03:40Z</time>
      </trkpt>
      <trkpt lat="48.31904" lon="-2.93369">
        <ele>173</ele>
        <time>2016-03-14T15:03:42Z</time>
      </trkpt>
      <trkpt lat="48.31905" lon="-2.93369">
        <ele>173</ele>
        <time>2016-03-14T15:03:43Z</time>
      </trkpt>
      <trkpt lat="48.31907" lon="-2.93368">
        <ele>173</ele>
        <time>2016-03-14T15:03:45Z</time>
      </trkpt>
      <trkpt lat="48.31909" lon="-2.93368">
        <ele>173</ele>
        <time>2016-03-14T15:03:47Z</time>
      </trkpt>
      <trkpt lat="48.3191" lon="-2.93368">
        <ele>173</ele>
        <time>2016-03-14T15:03:48Z</time>
      </trkpt>
      <trkpt lat="48.31913" lon="-2.93368">
        <ele>173</ele>
        <time>2016-03-14T15:03:50Z</time>
      </trkpt>
      <trkpt lat="48.31915" lon="-2.93367">
        <ele>173</ele>
        <time>2016-03-14T15:03:52Z</time>
      </trkpt>
      <trkpt lat="48.31917" lon="-2.93367">
        <ele>173</ele>
        <time>2016-03-14T15:03:54Z</time>
      </trkpt>
      <trkpt lat="48.31919" lon="-2.93366">
        <ele>173</ele>
        <time>2016-03-14T15:03:56Z</time>
      </trkpt>
      <trkpt lat="48.3192" lon="-2.93366">
        <ele>173</ele>
        <time>2016-03-14T15:03:57Z</time>
      </trkpt>
      <trkpt lat="48.31921" lon="-2.93366">
        <ele>173</ele>
        <time>2016-03-14T15:03:58Z</time>
      </trkpt>
      <trkpt lat="48.31923" lon="-2.93365">
        <ele>173</ele>
        <time>2016-03-14T15:04:00Z</time>
      </trkpt>
      <trkpt lat="48.31925" lon="-2.93365">
        <ele>173</ele>
        <time>2016-03-14T15:04:02Z</time>
      </trkpt>
      <trkpt lat="48.31926" lon="-2.93364">
        <ele>173</ele>
        <time>2016-03-14T15:04:04Z</time>
      </trkpt>
      <trkpt lat="48.31929" lon="-2.93364">
        <ele>173</ele>
        <time>2016-03-14T15:04:06Z</time>
      </trkpt>
      <trkpt lat="48.31931" lon="-2.93364">
        <ele>173</ele>
        <time>2016-03-14T15:04:08Z</time>
      </trkpt>
      <trkpt lat="48.31932" lon="-2.93363">
        <ele>173</ele>
        <time>2016-03-14T15:04:10Z</time>
      </trkpt>
      <trkpt lat="48.31934" lon="-2.93363">
        <ele>173</ele>
        <time>2016-03-14T15:04:11Z</time>
      </trkpt>
      <trkpt lat="48.31935" lon="-2.93363">
        <ele>173</ele>
        <time>2016-03-14T15:04:12Z</time>
      </trkpt>
      <trkpt lat="48.31937" lon="-2.93363">
        <ele>173</ele>
        <time>2016-03-14T15:04:14Z</time>
      </trkpt>
      <trkpt lat="48.31939" lon="-2.93362">
        <ele>173</ele>
        <time>2016-03-14T15:04:16Z</time>
      </trkpt>
      <trkpt lat="48.31941" lon="-2.93362">
        <ele>173</ele>
        <time>2016-03-14T15:04:18Z</time>
      </trkpt>
      <trkpt lat="48.31943" lon="-2.93361">
        <ele>173</ele>
        <time>2016-03-14T15:04:20Z</time>
      </trkpt>
      <trkpt lat="48.31944" lon="-2.93361">
        <ele>173</ele>
        <time>2016-03-14T15:04:21Z</time>
      </trkpt>
      <trkpt lat="48.31946" lon="-2.93361">
        <ele>173</ele>
        <time>2016-03-14T15:04:23Z</time>
      </trkpt>
      <trkpt lat="48.31947" lon="-2.93361">
        <ele>173</ele>
        <time>2016-03-14T15:04:24Z</time>
      </trkpt>
      <trkpt lat="48.31949" lon="-2.93361">
        <ele>173</ele>
        <time>2016-03-14T15:04:25Z</time>
      </trkpt>
      <trkpt lat="48.31951" lon="-2.9336">
        <ele>173</ele>
        <time>2016-03-14T15:04:27Z</time>
      </trkpt>
      <trkpt lat="48.31952" lon="-2.9336">
        <ele>173</ele>
        <time>2016-03-14T15:04:28Z</time>
      </trkpt>
      <trkpt lat="48.31953" lon="-2.93359">
        <ele>173</ele>
        <time>2016-03-14T15:04:29Z</time>
      </trkpt>
      <trkpt lat="48.31954" lon="-2.93359">
        <ele>173</ele>
        <time>2016-03-14T15:04:30Z</time>
      </trkpt>
      <trkpt lat="48.31955" lon="-2.93359">
        <ele>173</ele>
        <time>2016-03-14T15:04:31Z</time>
      </trkpt>
      <trkpt lat="48.31958" lon="-2.93359">
        <ele>173</ele>
        <time>2016-03-14T15:04:33Z</time>
      </trkpt>
      <trkpt lat="48.31959" lon="-2.93359">
        <ele>173</ele>
        <time>2016-03-14T15:04:34Z</time>
      </trkpt>
      <trkpt lat="48.3196" lon="-2.93358">
        <ele>173</ele>
        <time>2016-03-14T15:04:35Z</time>
      </trkpt>
      <trkpt lat="48.31962" lon="-2.93358">
        <ele>173</ele>
        <time>2016-03-14T15:04:37Z</time>
      </trkpt>
      <trkpt lat="48.31963" lon="-2.93358">
        <ele>173</ele>
        <time>2016-03-14T15:04:38Z</time>
      </trkpt>
      <trkpt lat="48.31964" lon="-2.93358">
        <ele>173</ele>
        <time>2016-03-14T15:04:39Z</time>
      </trkpt>
      <trkpt lat="48.31966" lon="-2.93357">
        <ele>173</ele>
        <time>2016-03-14T15:04:40Z</time>
      </trkpt>
      <trkpt lat="48.31968" lon="-2.93357">
        <ele>173</ele>
        <time>2016-03-14T15:04:42Z</time>
      </trkpt>
      <trkpt lat="48.31969" lon="-2.93357">
        <ele>173</ele>
        <time>2016-03-14T15:04:43Z</time>
      </trkpt>
      <trkpt lat="48.3197" lon="-2.93357">
        <ele>173</ele>
        <time>2016-03-14T15:04:44Z</time>
      </trkpt>
      <trkpt lat="48.31972" lon="-2.93356">
        <ele>173</ele>
        <time>2016-03-14T15:04:45Z</time>
      </trkpt>
      <trkpt lat="48.31974" lon="-2.93356">
        <ele>173</ele>
        <time>2016-03-14T15:04:47Z</time>
      </trkpt>
      <trkpt lat="48.31975" lon="-2.93356">
        <ele>173</ele>
        <time>2016-03-14T15:04:48Z</time>
      </trkpt>
      <trkpt lat="48.31976" lon="-2.93356">
        <ele>173</ele>
        <time>2016-03-14T15:04:49Z</time>
      </trkpt>
      <trkpt lat="48.31977" lon="-2.93355">
        <ele>173</ele>
        <time>2016-03-14T15:04:50Z</time>
      </trkpt>
      <trkpt lat="48.3198" lon="-2.93355">
        <ele>173</ele>
        <time>2016-03-14T15:04:52Z</time>
      </trkpt>
      <trkpt lat="48.31982" lon="-2.93355">
        <ele>173</ele>
        <time>2016-03-14T15:04:54Z</time>
      </trkpt>
      <trkpt lat="48.31983" lon="-2.93354">
        <ele>173</ele>
        <time>2016-03-14T15:04:55Z</time>
      </trkpt>
      <trkpt lat="48.31985" lon="-2.93354">
        <ele>173</ele>
        <time>2016-03-14T15:04:57Z</time>
      </trkpt>
      <trkpt lat="48.31986" lon="-2.93354">
        <ele>174</ele>
        <time>2016-03-14T15:04:58Z</time>
      </trkpt>
      <trkpt lat="48.31987" lon="-2.93354">
        <ele>174</ele>
        <time>2016-03-14T15:04:59Z</time>
      </trkpt>
      <trkpt lat="48.31989" lon="-2.93353">
        <ele>174</ele>
        <time>2016-03-14T15:05:00Z</time>
      </trkpt>
      <trkpt lat="48.3199" lon="-2.93353">
        <ele>174</ele>
        <time>2016-03-14T15:05:01Z</time>
      </trkpt>
      <trkpt lat="48.31992" lon="-2.93353">
        <ele>174</ele>
        <time>2016-03-14T15:05:03Z</time>
      </trkpt>
      <trkpt lat="48.31993" lon="-2.93353">
        <ele>174</ele>
        <time>2016-03-14T15:05:04Z</time>
      </trkpt>
      <trkpt lat="48.31994" lon="-2.93352">
        <ele>174</ele>
        <time>2016-03-14T15:05:05Z</time>
      </trkpt>
      <trkpt lat="48.31995" lon="-2.93352">
        <ele>174</ele>
        <time>2016-03-14T15:05:06Z</time>
      </trkpt>
      <trkpt lat="48.31998" lon="-2.93352">
        <ele>174</ele>
        <time>2016-03-14T15:05:08Z</time>
      </trkpt>
      <trkpt lat="48.31999" lon="-2.93352">
        <ele>174</ele>
        <time>2016-03-14T15:05:09Z</time>
      </trkpt>
      <trkpt lat="48.32" lon="-2.93351">
        <ele>174</ele>
        <time>2016-03-14T15:05:10Z</time>
      </trkpt>
      <trkpt lat="48.32001" lon="-2.93351">
        <ele>174</ele>
        <time>2016-03-14T15:05:11Z</time>
      </trkpt>
      <trkpt lat="48.32003" lon="-2.93351">
        <ele>174</ele>
        <time>2016-03-14T15:05:12Z</time>
      </trkpt>
      <trkpt lat="48.32005" lon="-2.93351">
        <ele>174</ele>
        <time>2016-03-14T15:05:14Z</time>
      </trkpt>
      <trkpt lat="48.32006" lon="-2.9335">
        <ele>175</ele>
        <time>2016-03-14T15:05:15Z</time>
      </trkpt>
      <trkpt lat="48.32007" lon="-2.9335">
        <ele>175</ele>
        <time>2016-03-14T15:05:16Z</time>
      </trkpt>
      <trkpt lat="48.32008" lon="-2.9335">
        <ele>175</ele>
        <time>2016-03-14T15:05:17Z</time>
      </trkpt>
      <trkpt lat="48.3201" lon="-2.93349">
        <ele>175</ele>
        <time>2016-03-14T15:05:19Z</time>
      </trkpt>
      <trkpt lat="48.32011" lon="-2.93349">
        <ele>175</ele>
        <time>2016-03-14T15:05:20Z</time>
      </trkpt>
      <trkpt lat="48.32013" lon="-2.93349">
        <ele>175</ele>
        <time>2016-03-14T15:05:21Z</time>
      </trkpt>
      <trkpt lat="48.32014" lon="-2.93349">
        <ele>175</ele>
        <time>2016-03-14T15:05:22Z</time>
      </trkpt>
      <trkpt lat="48.32016" lon="-2.93349">
        <ele>175</ele>
        <time>2016-03-14T15:05:24Z</time>
      </trkpt>
      <trkpt lat="48.32017" lon="-2.93348">
        <ele>175</ele>
        <time>2016-03-14T15:05:25Z</time>
      </trkpt>
      <trkpt lat="48.32019" lon="-2.93348">
        <ele>175</ele>
        <time>2016-03-14T15:05:27Z</time>
      </trkpt>
      <trkpt lat="48.32022" lon="-2.93348">
        <ele>175</ele>
        <time>2016-03-14T15:05:29Z</time>
      </trkpt>
      <trkpt lat="48.32023" lon="-2.93348">
        <ele>176</ele>
        <time>2016-03-14T15:05:30Z</time>
      </trkpt>
      <trkpt lat="48.32024" lon="-2.93348">
        <ele>176</ele>
        <time>2016-03-14T15:05:31Z</time>
      </trkpt>
      <trkpt lat="48.32026" lon="-2.93347">
        <ele>176</ele>
        <time>2016-03-14T15:05:33Z</time>
      </trkpt>
      <trkpt lat="48.32027" lon="-2.93347">
        <ele>176</ele>
        <time>2016-03-14T15:05:34Z</time>
      </trkpt>
      <trkpt lat="48.32029" lon="-2.93347">
        <ele>176</ele>
        <time>2016-03-14T15:05:35Z</time>
      </trkpt>
      <trkpt lat="48.3203" lon="-2.93346">
        <ele>176</ele>
        <time>2016-03-14T15:05:36Z</time>
      </trkpt>
      <trkpt lat="48.32031" lon="-2.93346">
        <ele>176</ele>
        <time>2016-03-14T15:05:37Z</time>
      </trkpt>
      <trkpt lat="48.32033" lon="-2.93345">
        <ele>176</ele>
        <time>2016-03-14T15:05:39Z</time>
      </trkpt>
      <trkpt lat="48.32035" lon="-2.93345">
        <ele>176</ele>
        <time>2016-03-14T15:05:40Z</time>
      </trkpt>
      <trkpt lat="48.32037" lon="-2.93345">
        <ele>176</ele>
        <time>2016-03-14T15:05:42Z</time>
      </trkpt>
      <trkpt lat="48.32038" lon="-2.93345">
        <ele>176</ele>
        <time>2016-03-14T15:05:43Z</time>
      </trkpt>
      <trkpt lat="48.32039" lon="-2.93345">
        <ele>176</ele>
        <time>2016-03-14T15:05:44Z</time>
      </trkpt>
      <trkpt lat="48.3204" lon="-2.93345">
        <ele>176</ele>
        <time>2016-03-14T15:05:45Z</time>
      </trkpt>
      <trkpt lat="48.32042" lon="-2.93344">
        <ele>176</ele>
        <time>2016-03-14T15:05:47Z</time>
      </trkpt>
      <trkpt lat="48.32043" lon="-2.93344">
        <ele>176</ele>
        <time>2016-03-14T15:05:48Z</time>
      </trkpt>
      <trkpt lat="48.32045" lon="-2.93344">
        <ele>177</ele>
        <time>2016-03-14T15:05:50Z</time>
      </trkpt>
      <trkpt lat="48.32047" lon="-2.93343">
        <ele>177</ele>
        <time>2016-03-14T15:05:52Z</time>
      </trkpt>
      <trkpt lat="48.32048" lon="-2.93343">
        <ele>177</ele>
        <time>2016-03-14T15:05:54Z</time>
      </trkpt>
      <trkpt lat="48.3205" lon="-2.93343">
        <ele>177</ele>
        <time>2016-03-14T15:05:56Z</time>
      </trkpt>
      <trkpt lat="48.32052" lon="-2.93342">
        <ele>178</ele>
        <time>2016-03-14T15:05:57Z</time>
      </trkpt>
      <trkpt lat="48.32053" lon="-2.93342">
        <ele>178</ele>
        <time>2016-03-14T15:05:59Z</time>
      </trkpt>
      <trkpt lat="48.32055" lon="-2.93342">
        <ele>178</ele>
        <time>2016-03-14T15:06:01Z</time>
      </trkpt>
      <trkpt lat="48.32057" lon="-2.93342">
        <ele>178</ele>
        <time>2016-03-14T15:06:03Z</time>
      </trkpt>
      <trkpt lat="48.32059" lon="-2.93342">
        <ele>179</ele>
        <time>2016-03-14T15:06:05Z</time>
      </trkpt>
      <trkpt lat="48.32061" lon="-2.93341">
        <ele>179</ele>
        <time>2016-03-14T15:06:07Z</time>
      </trkpt>
      <trkpt lat="48.32063" lon="-2.93341">
        <ele>179</ele>
        <time>2016-03-14T15:06:08Z</time>
      </trkpt>
      <trkpt lat="48.32064" lon="-2.9334">
        <ele>179</ele>
        <time>2016-03-14T15:06:10Z</time>
      </trkpt>
      <trkpt lat="48.32066" lon="-2.9334">
        <ele>179</ele>
        <time>2016-03-14T15:06:11Z</time>
      </trkpt>
      <trkpt lat="48.32067" lon="-2.9334">
        <ele>179</ele>
        <time>2016-03-14T15:06:12Z</time>
      </trkpt>
      <trkpt lat="48.32069" lon="-2.93339">
        <ele>179</ele>
        <time>2016-03-14T15:06:14Z</time>
      </trkpt>
      <trkpt lat="48.3207" lon="-2.93339">
        <ele>179</ele>
        <time>2016-03-14T15:06:15Z</time>
      </trkpt>
      <trkpt lat="48.32072" lon="-2.93339">
        <ele>179</ele>
        <time>2016-03-14T15:06:17Z</time>
      </trkpt>
      <trkpt lat="48.32074" lon="-2.93338">
        <ele>179</ele>
        <time>2016-03-14T15:06:19Z</time>
      </trkpt>
      <trkpt lat="48.32076" lon="-2.93338">
        <ele>179</ele>
        <time>2016-03-14T15:06:21Z</time>
      </trkpt>
      <trkpt lat="48.32077" lon="-2.93338">
        <ele>179</ele>
        <time>2016-03-14T15:06:23Z</time>
      </trkpt>
      <trkpt lat="48.32079" lon="-2.93337">
        <ele>179</ele>
        <time>2016-03-14T15:06:24Z</time>
      </trkpt>
      <trkpt lat="48.3208" lon="-2.93337">
        <ele>179</ele>
        <time>2016-03-14T15:06:26Z</time>
      </trkpt>
      <trkpt lat="48.32082" lon="-2.93337">
        <ele>179</ele>
        <time>2016-03-14T15:06:27Z</time>
      </trkpt>
      <trkpt lat="48.32084" lon="-2.93337">
        <ele>179</ele>
        <time>2016-03-14T15:06:29Z</time>
      </trkpt>
      <trkpt lat="48.32086" lon="-2.93337">
        <ele>179</ele>
        <time>2016-03-14T15:06:31Z</time>
      </trkpt>
      <trkpt lat="48.32087" lon="-2.93337">
        <ele>179</ele>
        <time>2016-03-14T15:06:33Z</time>
      </trkpt>
      <trkpt lat="48.3209" lon="-2.93336">
        <ele>180</ele>
        <time>2016-03-14T15:06:35Z</time>
      </trkpt>
      <trkpt lat="48.32092" lon="-2.93337">
        <ele>180</ele>
        <time>2016-03-14T15:06:37Z</time>
      </trkpt>
      <trkpt lat="48.32093" lon="-2.93336">
        <ele>180</ele>
        <time>2016-03-14T15:06:39Z</time>
      </trkpt>
      <trkpt lat="48.32095" lon="-2.93336">
        <ele>180</ele>
        <time>2016-03-14T15:06:41Z</time>
      </trkpt>
      <trkpt lat="48.32097" lon="-2.93337">
        <ele>180</ele>
        <time>2016-03-14T15:06:43Z</time>
      </trkpt>
      <trkpt lat="48.32099" lon="-2.93336">
        <ele>181</ele>
        <time>2016-03-14T15:06:45Z</time>
      </trkpt>
      <trkpt lat="48.32101" lon="-2.93336">
        <ele>181</ele>
        <time>2016-03-14T15:06:47Z</time>
      </trkpt>
      <trkpt lat="48.32102" lon="-2.93337">
        <ele>181</ele>
        <time>2016-03-14T15:06:48Z</time>
      </trkpt>
      <trkpt lat="48.32103" lon="-2.93337">
        <ele>181</ele>
        <time>2016-03-14T15:06:49Z</time>
      </trkpt>
      <trkpt lat="48.32106" lon="-2.93337">
        <ele>181</ele>
        <time>2016-03-14T15:06:51Z</time>
      </trkpt>
      <trkpt lat="48.32108" lon="-2.93337">
        <ele>182</ele>
        <time>2016-03-14T15:06:53Z</time>
      </trkpt>
      <trkpt lat="48.32109" lon="-2.93337">
        <ele>182</ele>
        <time>2016-03-14T15:06:55Z</time>
      </trkpt>
      <trkpt lat="48.3211" lon="-2.93337">
        <ele>182</ele>
        <time>2016-03-14T15:06:56Z</time>
      </trkpt>
      <trkpt lat="48.32112" lon="-2.93337">
        <ele>182</ele>
        <time>2016-03-14T15:06:58Z</time>
      </trkpt>
      <trkpt lat="48.32114" lon="-2.93337">
        <ele>183</ele>
        <time>2016-03-14T15:07:00Z</time>
      </trkpt>
      <trkpt lat="48.32116" lon="-2.93337">
        <ele>183</ele>
        <time>2016-03-14T15:07:02Z</time>
      </trkpt>
      <trkpt lat="48.32118" lon="-2.93338">
        <ele>184</ele>
        <time>2016-03-14T15:07:04Z</time>
      </trkpt>
      <trkpt lat="48.3212" lon="-2.93338">
        <ele>184</ele>
        <time>2016-03-14T15:07:06Z</time>
      </trkpt>
      <trkpt lat="48.32122" lon="-2.93338">
        <ele>184</ele>
        <time>2016-03-14T15:07:08Z</time>
      </trkpt>
      <trkpt lat="48.32124" lon="-2.93338">
        <ele>184</ele>
        <time>2016-03-14T15:07:10Z</time>
      </trkpt>
      <trkpt lat="48.32125" lon="-2.93338">
        <ele>185</ele>
        <time>2016-03-14T15:07:11Z</time>
      </trkpt>
      <trkpt lat="48.32127" lon="-2.93339">
        <ele>185</ele>
        <time>2016-03-14T15:07:13Z</time>
      </trkpt>
      <trkpt lat="48.32128" lon="-2.93339">
        <ele>185</ele>
        <time>2016-03-14T15:07:14Z</time>
      </trkpt>
      <trkpt lat="48.3213" lon="-2.93339">
        <ele>185</ele>
        <time>2016-03-14T15:07:16Z</time>
      </trkpt>
      <trkpt lat="48.32132" lon="-2.93338">
        <ele>185</ele>
        <time>2016-03-14T15:07:18Z</time>
      </trkpt>
      <trkpt lat="48.32133" lon="-2.93339">
        <ele>186</ele>
        <time>2016-03-14T15:07:20Z</time>
      </trkpt>
      <trkpt lat="48.32135" lon="-2.93339">
        <ele>186</ele>
        <time>2016-03-14T15:07:21Z</time>
      </trkpt>
      <trkpt lat="48.32137" lon="-2.93339">
        <ele>186</ele>
        <time>2016-03-14T15:07:23Z</time>
      </trkpt>
      <trkpt lat="48.32139" lon="-2.93339">
        <ele>186</ele>
        <time>2016-03-14T15:07:25Z</time>
      </trkpt>
      <trkpt lat="48.3214" lon="-2.93339">
        <ele>186</ele>
        <time>2016-03-14T15:07:27Z</time>
      </trkpt>
      <trkpt lat="48.32143" lon="-2.93339">
        <ele>186</ele>
        <time>2016-03-14T15:07:29Z</time>
      </trkpt>
      <trkpt lat="48.32144" lon="-2.9334">
        <ele>186</ele>
        <time>2016-03-14T15:07:31Z</time>
      </trkpt>
      <trkpt lat="48.32145" lon="-2.9334">
        <ele>186</ele>
        <time>2016-03-14T15:07:32Z</time>
      </trkpt>
      <trkpt lat="48.32147" lon="-2.9334">
        <ele>186</ele>
        <time>2016-03-14T15:07:34Z</time>
      </trkpt>
      <trkpt lat="48.32149" lon="-2.9334">
        <ele>187</ele>
        <time>2016-03-14T15:07:36Z</time>
      </trkpt>
      <trkpt lat="48.32151" lon="-2.9334">
        <ele>187</ele>
        <time>2016-03-14T15:07:38Z</time>
      </trkpt>
      <trkpt lat="48.32153" lon="-2.9334">
        <ele>187</ele>
        <time>2016-03-14T15:07:40Z</time>
      </trkpt>
      <trkpt lat="48.32155" lon="-2.9334">
        <ele>187</ele>
        <time>2016-03-14T15:07:42Z</time>
      </trkpt>
      <trkpt lat="48.32157" lon="-2.93341">
        <ele>187</ele>
        <time>2016-03-14T15:07:44Z</time>
      </trkpt>
      <trkpt lat="48.32159" lon="-2.93341">
        <ele>187</ele>
        <time>2016-03-14T15:07:46Z</time>
      </trkpt>
      <trkpt lat="48.32161" lon="-2.93342">
        <ele>188</ele>
        <time>2016-03-14T15:07:48Z</time>
      </trkpt>
      <trkpt lat="48.32162" lon="-2.93341">
        <ele>188</ele>
        <time>2016-03-14T15:07:50Z</time>
      </trkpt>
      <trkpt lat="48.32164" lon="-2.93341">
        <ele>188</ele>
        <time>2016-03-14T15:07:51Z</time>
      </trkpt>
      <trkpt lat="48.32166" lon="-2.93341">
        <ele>188</ele>
        <time>2016-03-14T15:07:53Z</time>
      </trkpt>
      <trkpt lat="48.32168" lon="-2.93341">
        <ele>189</ele>
        <time>2016-03-14T15:07:55Z</time>
      </trkpt>
      <trkpt lat="48.3217" lon="-2.93341">
        <ele>189</ele>
        <time>2016-03-14T15:07:57Z</time>
      </trkpt>
      <trkpt lat="48.32171" lon="-2.93341">
        <ele>189</ele>
        <time>2016-03-14T15:07:58Z</time>
      </trkpt>
      <trkpt lat="48.32172" lon="-2.93341">
        <ele>189</ele>
        <time>2016-03-14T15:07:59Z</time>
      </trkpt>
      <trkpt lat="48.32173" lon="-2.93341">
        <ele>189</ele>
        <time>2016-03-14T15:08:00Z</time>
      </trkpt>
      <trkpt lat="48.32175" lon="-2.9334">
        <ele>189</ele>
        <time>2016-03-14T15:08:02Z</time>
      </trkpt>
      <trkpt lat="48.32177" lon="-2.9334">
        <ele>190</ele>
        <time>2016-03-14T15:08:04Z</time>
      </trkpt>
      <trkpt lat="48.32179" lon="-2.93339">
        <ele>190</ele>
        <time>2016-03-14T15:08:06Z</time>
      </trkpt>
      <trkpt lat="48.32181" lon="-2.93339">
        <ele>190</ele>
        <time>2016-03-14T15:08:08Z</time>
      </trkpt>
      <trkpt lat="48.32183" lon="-2.93337">
        <ele>190</ele>
        <time>2016-03-14T15:08:10Z</time>
      </trkpt>
      <trkpt lat="48.32185" lon="-2.93336">
        <ele>190</ele>
        <time>2016-03-14T15:08:12Z</time>
      </trkpt>
      <trkpt lat="48.32186" lon="-2.93334">
        <ele>190</ele>
        <time>2016-03-14T15:08:14Z</time>
      </trkpt>
      <trkpt lat="48.32188" lon="-2.93332">
        <ele>190</ele>
        <time>2016-03-14T15:08:16Z</time>
      </trkpt>
      <trkpt lat="48.3219" lon="-2.9333">
        <ele>190</ele>
        <time>2016-03-14T15:08:18Z</time>
      </trkpt>
      <trkpt lat="48.32191" lon="-2.93327">
        <ele>190</ele>
        <time>2016-03-14T15:08:20Z</time>
      </trkpt>
      <trkpt lat="48.32191" lon="-2.93325">
        <ele>190</ele>
        <time>2016-03-14T15:08:21Z</time>
      </trkpt>
      <trkpt lat="48.32192" lon="-2.93322">
        <ele>190</ele>
        <time>2016-03-14T15:08:23Z</time>
      </trkpt>
      <trkpt lat="48.32192" lon="-2.9332">
        <ele>190</ele>
        <time>2016-03-14T15:08:24Z</time>
      </trkpt>
      <trkpt lat="48.32192" lon="-2.93319">
        <ele>190</ele>
        <time>2016-03-14T15:08:25Z</time>
      </trkpt>
      <trkpt lat="48.32192" lon="-2.93317">
        <ele>190</ele>
        <time>2016-03-14T15:08:26Z</time>
      </trkpt>
      <trkpt lat="48.32192" lon="-2.93315">
        <ele>190</ele>
        <time>2016-03-14T15:08:27Z</time>
      </trkpt>
      <trkpt lat="48.32192" lon="-2.93314">
        <ele>190</ele>
        <time>2016-03-14T15:08:28Z</time>
      </trkpt>
      <trkpt lat="48.32193" lon="-2.93312">
        <ele>190</ele>
        <time>2016-03-14T15:08:29Z</time>
      </trkpt>
      <trkpt lat="48.32193" lon="-2.9331">
        <ele>190</ele>
        <time>2016-03-14T15:08:30Z</time>
      </trkpt>
      <trkpt lat="48.32193" lon="-2.93308">
        <ele>190</ele>
        <time>2016-03-14T15:08:31Z</time>
      </trkpt>
      <trkpt lat="48.32193" lon="-2.93306">
        <ele>190</ele>
        <time>2016-03-14T15:08:32Z</time>
      </trkpt>
      <trkpt lat="48.32193" lon="-2.93303">
        <ele>190</ele>
        <time>2016-03-14T15:08:34Z</time>
      </trkpt>
      <trkpt lat="48.32193" lon="-2.93301">
        <ele>190</ele>
        <time>2016-03-14T15:08:35Z</time>
      </trkpt>
      <trkpt lat="48.32193" lon="-2.93299">
        <ele>190</ele>
        <time>2016-03-14T15:08:36Z</time>
      </trkpt>
      <trkpt lat="48.32194" lon="-2.93298">
        <ele>190</ele>
        <time>2016-03-14T15:08:37Z</time>
      </trkpt>
      <trkpt lat="48.32194" lon="-2.93296">
        <ele>190</ele>
        <time>2016-03-14T15:08:38Z</time>
      </trkpt>
      <trkpt lat="48.32194" lon="-2.93294">
        <ele>191</ele>
        <time>2016-03-14T15:08:39Z</time>
      </trkpt>
      <trkpt lat="48.32194" lon="-2.93292">
        <ele>191</ele>
        <time>2016-03-14T15:08:40Z</time>
      </trkpt>
      <trkpt lat="48.32194" lon="-2.9329">
        <ele>191</ele>
        <time>2016-03-14T15:08:41Z</time>
      </trkpt>
      <trkpt lat="48.32194" lon="-2.93289">
        <ele>191</ele>
        <time>2016-03-14T15:08:42Z</time>
      </trkpt>
      <trkpt lat="48.32194" lon="-2.93287">
        <ele>191</ele>
        <time>2016-03-14T15:08:43Z</time>
      </trkpt>
      <trkpt lat="48.32194" lon="-2.93285">
        <ele>191</ele>
        <time>2016-03-14T15:08:44Z</time>
      </trkpt>
      <trkpt lat="48.32194" lon="-2.93284">
        <ele>191</ele>
        <time>2016-03-14T15:08:45Z</time>
      </trkpt>
      <trkpt lat="48.32194" lon="-2.93282">
        <ele>191</ele>
        <time>2016-03-14T15:08:46Z</time>
      </trkpt>
      <trkpt lat="48.32194" lon="-2.9328">
        <ele>191</ele>
        <time>2016-03-14T15:08:47Z</time>
      </trkpt>
      <trkpt lat="48.32194" lon="-2.93278">
        <ele>191</ele>
        <time>2016-03-14T15:08:48Z</time>
      </trkpt>
      <trkpt lat="48.32194" lon="-2.93276">
        <ele>191</ele>
        <time>2016-03-14T15:08:49Z</time>
      </trkpt>
      <trkpt lat="48.32194" lon="-2.93274">
        <ele>191</ele>
        <time>2016-03-14T15:08:50Z</time>
      </trkpt>
      <trkpt lat="48.32194" lon="-2.93273">
        <ele>191</ele>
        <time>2016-03-14T15:08:51Z</time>
      </trkpt>
      <trkpt lat="48.32193" lon="-2.93271">
        <ele>191</ele>
        <time>2016-03-14T15:08:52Z</time>
      </trkpt>
      <trkpt lat="48.32193" lon="-2.93269">
        <ele>191</ele>
        <time>2016-03-14T15:08:53Z</time>
      </trkpt>
      <trkpt lat="48.32192" lon="-2.93267">
        <ele>191</ele>
        <time>2016-03-14T15:08:54Z</time>
      </trkpt>
      <trkpt lat="48.32192" lon="-2.93266">
        <ele>191</ele>
        <time>2016-03-14T15:08:55Z</time>
      </trkpt>
      <trkpt lat="48.3219" lon="-2.93263">
        <ele>191</ele>
        <time>2016-03-14T15:08:57Z</time>
      </trkpt>
      <trkpt lat="48.32189" lon="-2.9326">
        <ele>191</ele>
        <time>2016-03-14T15:08:59Z</time>
      </trkpt>
      <trkpt lat="48.32188" lon="-2.93257">
        <ele>191</ele>
        <time>2016-03-14T15:09:01Z</time>
      </trkpt>
      <trkpt lat="48.32186" lon="-2.93254">
        <ele>191</ele>
        <time>2016-03-14T15:09:03Z</time>
      </trkpt>
      <trkpt lat="48.32184" lon="-2.93251">
        <ele>191</ele>
        <time>2016-03-14T15:09:05Z</time>
      </trkpt>
      <trkpt lat="48.32183" lon="-2.93248">
        <ele>191</ele>
        <time>2016-03-14T15:09:07Z</time>
      </trkpt>
      <trkpt lat="48.32181" lon="-2.93246">
        <ele>191</ele>
        <time>2016-03-14T15:09:09Z</time>
      </trkpt>
      <trkpt lat="48.32179" lon="-2.93243">
        <ele>191</ele>
        <time>2016-03-14T15:09:11Z</time>
      </trkpt>
      <trkpt lat="48.32178" lon="-2.9324">
        <ele>191</ele>
        <time>2016-03-14T15:09:13Z</time>
      </trkpt>
      <trkpt lat="48.32176" lon="-2.93237">
        <ele>191</ele>
        <time>2016-03-14T15:09:15Z</time>
      </trkpt>
      <trkpt lat="48.32174" lon="-2.93235">
        <ele>191</ele>
        <time>2016-03-14T15:09:17Z</time>
      </trkpt>
      <trkpt lat="48.32172" lon="-2.93232">
        <ele>191</ele>
        <time>2016-03-14T15:09:19Z</time>
      </trkpt>
      <trkpt lat="48.32171" lon="-2.9323">
        <ele>191</ele>
        <time>2016-03-14T15:09:21Z</time>
      </trkpt>
      <trkpt lat="48.32169" lon="-2.93227">
        <ele>191</ele>
        <time>2016-03-14T15:09:23Z</time>
      </trkpt>
      <trkpt lat="48.32167" lon="-2.93225">
        <ele>191</ele>
        <time>2016-03-14T15:09:25Z</time>
      </trkpt>
      <trkpt lat="48.32166" lon="-2.93222">
        <ele>191</ele>
        <time>2016-03-14T15:09:27Z</time>
      </trkpt>
      <trkpt lat="48.32164" lon="-2.9322">
        <ele>191</ele>
        <time>2016-03-14T15:09:29Z</time>
      </trkpt>
      <trkpt lat="48.32162" lon="-2.93217">
        <ele>191</ele>
        <time>2016-03-14T15:09:31Z</time>
      </trkpt>
      <trkpt lat="48.32161" lon="-2.93214">
        <ele>191</ele>
        <time>2016-03-14T15:09:33Z</time>
      </trkpt>
      <trkpt lat="48.32159" lon="-2.93212">
        <ele>191</ele>
        <time>2016-03-14T15:09:35Z</time>
      </trkpt>
      <trkpt lat="48.32157" lon="-2.93209">
        <ele>191</ele>
        <time>2016-03-14T15:09:37Z</time>
      </trkpt>
      <trkpt lat="48.32155" lon="-2.93206">
        <ele>191</ele>
        <time>2016-03-14T15:09:39Z</time>
      </trkpt>
      <trkpt lat="48.32153" lon="-2.93204">
        <ele>191</ele>
        <time>2016-03-14T15:09:41Z</time>
      </trkpt>
      <trkpt lat="48.32152" lon="-2.93201">
        <ele>191</ele>
        <time>2016-03-14T15:09:43Z</time>
      </trkpt>
      <trkpt lat="48.3215" lon="-2.93199">
        <ele>191</ele>
        <time>2016-03-14T15:09:45Z</time>
      </trkpt>
      <trkpt lat="48.32148" lon="-2.93196">
        <ele>191</ele>
        <time>2016-03-14T15:09:47Z</time>
      </trkpt>
      <trkpt lat="48.32146" lon="-2.93194">
        <ele>191</ele>
        <time>2016-03-14T15:09:49Z</time>
      </trkpt>
      <trkpt lat="48.32144" lon="-2.93191">
        <ele>191</ele>
        <time>2016-03-14T15:09:51Z</time>
      </trkpt>
      <trkpt lat="48.32142" lon="-2.93188">
        <ele>191</ele>
        <time>2016-03-14T15:09:53Z</time>
      </trkpt>
      <trkpt lat="48.3214" lon="-2.93185">
        <ele>191</ele>
        <time>2016-03-14T15:09:55Z</time>
      </trkpt>
      <trkpt lat="48.32138" lon="-2.93183">
        <ele>191</ele>
        <time>2016-03-14T15:09:57Z</time>
      </trkpt>
      <trkpt lat="48.32137" lon="-2.9318">
        <ele>191</ele>
        <time>2016-03-14T15:09:59Z</time>
      </trkpt>
      <trkpt lat="48.32135" lon="-2.93177">
        <ele>191</ele>
        <time>2016-03-14T15:10:01Z</time>
      </trkpt>
      <trkpt lat="48.32132" lon="-2.93175">
        <ele>191</ele>
        <time>2016-03-14T15:10:03Z</time>
      </trkpt>
      <trkpt lat="48.32131" lon="-2.93172">
        <ele>191</ele>
        <time>2016-03-14T15:10:05Z</time>
      </trkpt>
      <trkpt lat="48.32129" lon="-2.9317">
        <ele>191</ele>
        <time>2016-03-14T15:10:07Z</time>
      </trkpt>
      <trkpt lat="48.32127" lon="-2.93167">
        <ele>191</ele>
        <time>2016-03-14T15:10:09Z</time>
      </trkpt>
      <trkpt lat="48.32125" lon="-2.93165">
        <ele>191</ele>
        <time>2016-03-14T15:10:11Z</time>
      </trkpt>
      <trkpt lat="48.32123" lon="-2.93162">
        <ele>191</ele>
        <time>2016-03-14T15:10:13Z</time>
      </trkpt>
      <trkpt lat="48.32121" lon="-2.9316">
        <ele>191</ele>
        <time>2016-03-14T15:10:15Z</time>
      </trkpt>
      <trkpt lat="48.32119" lon="-2.93158">
        <ele>191</ele>
        <time>2016-03-14T15:10:17Z</time>
      </trkpt>
      <trkpt lat="48.32117" lon="-2.93155">
        <ele>191</ele>
        <time>2016-03-14T15:10:19Z</time>
      </trkpt>
      <trkpt lat="48.32115" lon="-2.93153">
        <ele>191</ele>
        <time>2016-03-14T15:10:21Z</time>
      </trkpt>
      <trkpt lat="48.32113" lon="-2.93151">
        <ele>191</ele>
        <time>2016-03-14T15:10:23Z</time>
      </trkpt>
      <trkpt lat="48.32111" lon="-2.93148">
        <ele>191</ele>
        <time>2016-03-14T15:10:25Z</time>
      </trkpt>
      <trkpt lat="48.32109" lon="-2.93146">
        <ele>191</ele>
        <time>2016-03-14T15:10:27Z</time>
      </trkpt>
      <trkpt lat="48.32107" lon="-2.93144">
        <ele>191</ele>
        <time>2016-03-14T15:10:29Z</time>
      </trkpt>
      <trkpt lat="48.32105" lon="-2.93142">
        <ele>191</ele>
        <time>2016-03-14T15:10:31Z</time>
      </trkpt>
      <trkpt lat="48.32103" lon="-2.9314">
        <ele>191</ele>
        <time>2016-03-14T15:10:33Z</time>
      </trkpt>
      <trkpt lat="48.32101" lon="-2.93138">
        <ele>191</ele>
        <time>2016-03-14T15:10:35Z</time>
      </trkpt>
      <trkpt lat="48.32099" lon="-2.93137">
        <ele>191</ele>
        <time>2016-03-14T15:10:36Z</time>
      </trkpt>
      <trkpt lat="48.32097" lon="-2.93134">
        <ele>191</ele>
        <time>2016-03-14T15:10:38Z</time>
      </trkpt>
      <trkpt lat="48.32095" lon="-2.93132">
        <ele>191</ele>
        <time>2016-03-14T15:10:40Z</time>
      </trkpt>
      <trkpt lat="48.32094" lon="-2.93131">
        <ele>191</ele>
        <time>2016-03-14T15:10:41Z</time>
      </trkpt>
      <trkpt lat="48.32092" lon="-2.93129">
        <ele>191</ele>
        <time>2016-03-14T15:10:43Z</time>
      </trkpt>
      <trkpt lat="48.32091" lon="-2.93128">
        <ele>191</ele>
        <time>2016-03-14T15:10:44Z</time>
      </trkpt>
      <trkpt lat="48.3209" lon="-2.93127">
        <ele>191</ele>
        <time>2016-03-14T15:10:45Z</time>
      </trkpt>
      <trkpt lat="48.32087" lon="-2.93125">
        <ele>191</ele>
        <time>2016-03-14T15:10:47Z</time>
      </trkpt>
      <trkpt lat="48.32086" lon="-2.93124">
        <ele>191</ele>
        <time>2016-03-14T15:10:48Z</time>
      </trkpt>
      <trkpt lat="48.32084" lon="-2.93121">
        <ele>191</ele>
        <time>2016-03-14T15:10:50Z</time>
      </trkpt>
      <trkpt lat="48.32082" lon="-2.9312">
        <ele>191</ele>
        <time>2016-03-14T15:10:52Z</time>
      </trkpt>
      <trkpt lat="48.32081" lon="-2.93119">
        <ele>191</ele>
        <time>2016-03-14T15:10:53Z</time>
      </trkpt>
      <trkpt lat="48.3208" lon="-2.93118">
        <ele>191</ele>
        <time>2016-03-14T15:10:54Z</time>
      </trkpt>
      <trkpt lat="48.32078" lon="-2.93116">
        <ele>191</ele>
        <time>2016-03-14T15:10:56Z</time>
      </trkpt>
      <trkpt lat="48.32076" lon="-2.93114">
        <ele>191</ele>
        <time>2016-03-14T15:10:58Z</time>
      </trkpt>
      <trkpt lat="48.32074" lon="-2.93112">
        <ele>191</ele>
        <time>2016-03-14T15:11:00Z</time>
      </trkpt>
      <trkpt lat="48.32073" lon="-2.93112">
        <ele>191</ele>
        <time>2016-03-14T15:11:01Z</time>
      </trkpt>
      <trkpt lat="48.32072" lon="-2.93111">
        <ele>191</ele>
        <time>2016-03-14T15:11:02Z</time>
      </trkpt>
      <trkpt lat="48.32069" lon="-2.93109">
        <ele>191</ele>
        <time>2016-03-14T15:11:04Z</time>
      </trkpt>
      <trkpt lat="48.32068" lon="-2.93108">
        <ele>191</ele>
        <time>2016-03-14T15:11:05Z</time>
      </trkpt>
      <trkpt lat="48.32067" lon="-2.93107">
        <ele>191</ele>
        <time>2016-03-14T15:11:06Z</time>
      </trkpt>
      <trkpt lat="48.32066" lon="-2.93106">
        <ele>191</ele>
        <time>2016-03-14T15:11:07Z</time>
      </trkpt>
      <trkpt lat="48.32065" lon="-2.93106">
        <ele>191</ele>
        <time>2016-03-14T15:11:08Z</time>
      </trkpt>
      <trkpt lat="48.32064" lon="-2.93105">
        <ele>191</ele>
        <time>2016-03-14T15:11:09Z</time>
      </trkpt>
      <trkpt lat="48.32062" lon="-2.93104">
        <ele>191</ele>
        <time>2016-03-14T15:11:10Z</time>
      </trkpt>
      <trkpt lat="48.32061" lon="-2.93103">
        <ele>191</ele>
        <time>2016-03-14T15:11:11Z</time>
      </trkpt>
      <trkpt lat="48.3206" lon="-2.93102">
        <ele>191</ele>
        <time>2016-03-14T15:11:12Z</time>
      </trkpt>
      <trkpt lat="48.32058" lon="-2.93101">
        <ele>191</ele>
        <time>2016-03-14T15:11:14Z</time>
      </trkpt>
      <trkpt lat="48.32056" lon="-2.93099">
        <ele>191</ele>
        <time>2016-03-14T15:11:16Z</time>
      </trkpt>
      <trkpt lat="48.32055" lon="-2.93098">
        <ele>191</ele>
        <time>2016-03-14T15:11:17Z</time>
      </trkpt>
      <trkpt lat="48.32053" lon="-2.93097">
        <ele>191</ele>
        <time>2016-03-14T15:11:18Z</time>
      </trkpt>
      <trkpt lat="48.32052" lon="-2.93097">
        <ele>191</ele>
        <time>2016-03-14T15:11:19Z</time>
      </trkpt>
      <trkpt lat="48.32051" lon="-2.93096">
        <ele>191</ele>
        <time>2016-03-14T15:11:20Z</time>
      </trkpt>
      <trkpt lat="48.3205" lon="-2.93095">
        <ele>191</ele>
        <time>2016-03-14T15:11:21Z</time>
      </trkpt>
      <trkpt lat="48.32049" lon="-2.93095">
        <ele>191</ele>
        <time>2016-03-14T15:11:22Z</time>
      </trkpt>
      <trkpt lat="48.32048" lon="-2.93094">
        <ele>191</ele>
        <time>2016-03-14T15:11:23Z</time>
      </trkpt>
      <trkpt lat="48.32046" lon="-2.93093">
        <ele>191</ele>
        <time>2016-03-14T15:11:24Z</time>
      </trkpt>
      <trkpt lat="48.32045" lon="-2.93092">
        <ele>191</ele>
        <time>2016-03-14T15:11:25Z</time>
      </trkpt>
      <trkpt lat="48.32043" lon="-2.93091">
        <ele>191</ele>
        <time>2016-03-14T15:11:27Z</time>
      </trkpt>
      <trkpt lat="48.32042" lon="-2.93091">
        <ele>191</ele>
        <time>2016-03-14T15:11:28Z</time>
      </trkpt>
      <trkpt lat="48.32041" lon="-2.9309">
        <ele>191</ele>
        <time>2016-03-14T15:11:29Z</time>
      </trkpt>
      <trkpt lat="48.32038" lon="-2.93088">
        <ele>191</ele>
        <time>2016-03-14T15:11:31Z</time>
      </trkpt>
      <trkpt lat="48.32036" lon="-2.93087">
        <ele>191</ele>
        <time>2016-03-14T15:11:33Z</time>
      </trkpt>
      <trkpt lat="48.32035" lon="-2.93086">
        <ele>191</ele>
        <time>2016-03-14T15:11:34Z</time>
      </trkpt>
      <trkpt lat="48.32034" lon="-2.93086">
        <ele>191</ele>
        <time>2016-03-14T15:11:35Z</time>
      </trkpt>
      <trkpt lat="48.32033" lon="-2.93085">
        <ele>191</ele>
        <time>2016-03-14T15:11:36Z</time>
      </trkpt>
      <trkpt lat="48.32032" lon="-2.93084">
        <ele>191</ele>
        <time>2016-03-14T15:11:37Z</time>
      </trkpt>
      <trkpt lat="48.3203" lon="-2.93083">
        <ele>191</ele>
        <time>2016-03-14T15:11:38Z</time>
      </trkpt>
      <trkpt lat="48.32029" lon="-2.93083">
        <ele>191</ele>
        <time>2016-03-14T15:11:39Z</time>
      </trkpt>
      <trkpt lat="48.32027" lon="-2.93081">
        <ele>191</ele>
        <time>2016-03-14T15:11:41Z</time>
      </trkpt>
      <trkpt lat="48.32026" lon="-2.93081">
        <ele>191</ele>
        <time>2016-03-14T15:11:42Z</time>
      </trkpt>
      <trkpt lat="48.32025" lon="-2.9308">
        <ele>191</ele>
        <time>2016-03-14T15:11:43Z</time>
      </trkpt>
      <trkpt lat="48.32024" lon="-2.93079">
        <ele>191</ele>
        <time>2016-03-14T15:11:44Z</time>
      </trkpt>
      <trkpt lat="48.32022" lon="-2.93079">
        <ele>191</ele>
        <time>2016-03-14T15:11:45Z</time>
      </trkpt>
      <trkpt lat="48.3202" lon="-2.93077">
        <ele>191</ele>
        <time>2016-03-14T15:11:47Z</time>
      </trkpt>
      <trkpt lat="48.32019" lon="-2.93077">
        <ele>191</ele>
        <time>2016-03-14T15:11:48Z</time>
      </trkpt>
      <trkpt lat="48.32018" lon="-2.93076">
        <ele>191</ele>
        <time>2016-03-14T15:11:49Z</time>
      </trkpt>
      <trkpt lat="48.32016" lon="-2.93076">
        <ele>191</ele>
        <time>2016-03-14T15:11:50Z</time>
      </trkpt>
      <trkpt lat="48.32014" lon="-2.93074">
        <ele>191</ele>
        <time>2016-03-14T15:11:52Z</time>
      </trkpt>
      <trkpt lat="48.32013" lon="-2.93074">
        <ele>191</ele>
        <time>2016-03-14T15:11:53Z</time>
      </trkpt>
      <trkpt lat="48.32012" lon="-2.93073">
        <ele>191</ele>
        <time>2016-03-14T15:11:54Z</time>
      </trkpt>
      <trkpt lat="48.32011" lon="-2.93073">
        <ele>191</ele>
        <time>2016-03-14T15:11:55Z</time>
      </trkpt>
      <trkpt lat="48.3201" lon="-2.93072">
        <ele>191</ele>
        <time>2016-03-14T15:11:56Z</time>
      </trkpt>
      <trkpt lat="48.32008" lon="-2.93072">
        <ele>191</ele>
        <time>2016-03-14T15:11:57Z</time>
      </trkpt>
      <trkpt lat="48.32006" lon="-2.9307">
        <ele>191</ele>
        <time>2016-03-14T15:11:59Z</time>
      </trkpt>
      <trkpt lat="48.32005" lon="-2.9307">
        <ele>191</ele>
        <time>2016-03-14T15:12:00Z</time>
      </trkpt>
      <trkpt lat="48.32004" lon="-2.93069">
        <ele>191</ele>
        <time>2016-03-14T15:12:01Z</time>
      </trkpt>
      <trkpt lat="48.32003" lon="-2.93068">
        <ele>191</ele>
        <time>2016-03-14T15:12:02Z</time>
      </trkpt>
      <trkpt lat="48.32002" lon="-2.93068">
        <ele>191</ele>
        <time>2016-03-14T15:12:03Z</time>
      </trkpt>
      <trkpt lat="48.32" lon="-2.93067">
        <ele>191</ele>
        <time>2016-03-14T15:12:04Z</time>
      </trkpt>
      <trkpt lat="48.31998" lon="-2.93066">
        <ele>191</ele>
        <time>2016-03-14T15:12:06Z</time>
      </trkpt>
      <trkpt lat="48.31997" lon="-2.93066">
        <ele>191</ele>
        <time>2016-03-14T15:12:07Z</time>
      </trkpt>
      <trkpt lat="48.31996" lon="-2.93065">
        <ele>191</ele>
        <time>2016-03-14T15:12:08Z</time>
      </trkpt>
      <trkpt lat="48.31995" lon="-2.93064">
        <ele>191</ele>
        <time>2016-03-14T15:12:09Z</time>
      </trkpt>
      <trkpt lat="48.31994" lon="-2.93064">
        <ele>191</ele>
        <time>2016-03-14T15:12:10Z</time>
      </trkpt>
      <trkpt lat="48.31992" lon="-2.93063">
        <ele>191</ele>
        <time>2016-03-14T15:12:12Z</time>
      </trkpt>
      <trkpt lat="48.3199" lon="-2.93062">
        <ele>191</ele>
        <time>2016-03-14T15:12:13Z</time>
      </trkpt>
      <trkpt lat="48.31989" lon="-2.93062">
        <ele>191</ele>
        <time>2016-03-14T15:12:14Z</time>
      </trkpt>
      <trkpt lat="48.31988" lon="-2.93061">
        <ele>191</ele>
        <time>2016-03-14T15:12:15Z</time>
      </trkpt>
      <trkpt lat="48.31987" lon="-2.9306">
        <ele>191</ele>
        <time>2016-03-14T15:12:16Z</time>
      </trkpt>
      <trkpt lat="48.31985" lon="-2.9306">
        <ele>191</ele>
        <time>2016-03-14T15:12:17Z</time>
      </trkpt>
      <trkpt lat="48.31983" lon="-2.93058">
        <ele>191</ele>
        <time>2016-03-14T15:12:19Z</time>
      </trkpt>
      <trkpt lat="48.31982" lon="-2.93058">
        <ele>191</ele>
        <time>2016-03-14T15:12:20Z</time>
      </trkpt>
      <trkpt lat="48.3198" lon="-2.93057">
        <ele>191</ele>
        <time>2016-03-14T15:12:22Z</time>
      </trkpt>
      <trkpt lat="48.31978" lon="-2.93056">
        <ele>191</ele>
        <time>2016-03-14T15:12:24Z</time>
      </trkpt>
      <trkpt lat="48.31977" lon="-2.93055">
        <ele>191</ele>
        <time>2016-03-14T15:12:25Z</time>
      </trkpt>
      <trkpt lat="48.31976" lon="-2.93054">
        <ele>191</ele>
        <time>2016-03-14T15:12:26Z</time>
      </trkpt>
      <trkpt lat="48.31974" lon="-2.93054">
        <ele>191</ele>
        <time>2016-03-14T15:12:27Z</time>
      </trkpt>
      <trkpt lat="48.31973" lon="-2.93053">
        <ele>191</ele>
        <time>2016-03-14T15:12:28Z</time>
      </trkpt>
      <trkpt lat="48.31972" lon="-2.93052">
        <ele>191</ele>
        <time>2016-03-14T15:12:29Z</time>
      </trkpt>
      <trkpt lat="48.3197" lon="-2.93051">
        <ele>191</ele>
        <time>2016-03-14T15:12:31Z</time>
      </trkpt>
      <trkpt lat="48.31969" lon="-2.9305">
        <ele>191</ele>
        <time>2016-03-14T15:12:32Z</time>
      </trkpt>
      <trkpt lat="48.31967" lon="-2.93049">
        <ele>191</ele>
        <time>2016-03-14T15:12:33Z</time>
      </trkpt>
      <trkpt lat="48.31966" lon="-2.93048">
        <ele>191</ele>
        <time>2016-03-14T15:12:34Z</time>
      </trkpt>
      <trkpt lat="48.31965" lon="-2.93048">
        <ele>191</ele>
        <time>2016-03-14T15:12:35Z</time>
      </trkpt>
      <trkpt lat="48.31963" lon="-2.93047">
        <ele>191</ele>
        <time>2016-03-14T15:12:36Z</time>
      </trkpt>
      <trkpt lat="48.31962" lon="-2.93046">
        <ele>191</ele>
        <time>2016-03-14T15:12:37Z</time>
      </trkpt>
      <trkpt lat="48.3196" lon="-2.93045">
        <ele>191</ele>
        <time>2016-03-14T15:12:39Z</time>
      </trkpt>
      <trkpt lat="48.31959" lon="-2.93044">
        <ele>191</ele>
        <time>2016-03-14T15:12:40Z</time>
      </trkpt>
      <trkpt lat="48.31958" lon="-2.93043">
        <ele>191</ele>
        <time>2016-03-14T15:12:41Z</time>
      </trkpt>
      <trkpt lat="48.31955" lon="-2.93042">
        <ele>191</ele>
        <time>2016-03-14T15:12:43Z</time>
      </trkpt>
      <trkpt lat="48.31954" lon="-2.93041">
        <ele>191</ele>
        <time>2016-03-14T15:12:44Z</time>
      </trkpt>
      <trkpt lat="48.31952" lon="-2.9304">
        <ele>191</ele>
        <time>2016-03-14T15:12:46Z</time>
      </trkpt>
      <trkpt lat="48.31951" lon="-2.93039">
        <ele>191</ele>
        <time>2016-03-14T15:12:47Z</time>
      </trkpt>
      <trkpt lat="48.3195" lon="-2.93038">
        <ele>191</ele>
        <time>2016-03-14T15:12:48Z</time>
      </trkpt>
      <trkpt lat="48.31948" lon="-2.93037">
        <ele>191</ele>
        <time>2016-03-14T15:12:49Z</time>
      </trkpt>
      <trkpt lat="48.31947" lon="-2.93037">
        <ele>191</ele>
        <time>2016-03-14T15:12:50Z</time>
      </trkpt>
      <trkpt lat="48.31945" lon="-2.93035">
        <ele>191</ele>
        <time>2016-03-14T15:12:52Z</time>
      </trkpt>
      <trkpt lat="48.31943" lon="-2.93034">
        <ele>191</ele>
        <time>2016-03-14T15:12:54Z</time>
      </trkpt>
      <trkpt lat="48.31942" lon="-2.93033">
        <ele>190</ele>
        <time>2016-03-14T15:12:55Z</time>
      </trkpt>
      <trkpt lat="48.31941" lon="-2.93033">
        <ele>190</ele>
        <time>2016-03-14T15:12:56Z</time>
      </trkpt>
      <trkpt lat="48.31939" lon="-2.93032">
        <ele>190</ele>
        <time>2016-03-14T15:12:57Z</time>
      </trkpt>
      <trkpt lat="48.31937" lon="-2.9303">
        <ele>190</ele>
        <time>2016-03-14T15:12:59Z</time>
      </trkpt>
      <trkpt lat="48.31936" lon="-2.9303">
        <ele>190</ele>
        <time>2016-03-14T15:13:00Z</time>
      </trkpt>
      <trkpt lat="48.31934" lon="-2.93028">
        <ele>190</ele>
        <time>2016-03-14T15:13:02Z</time>
      </trkpt>
      <trkpt lat="48.31932" lon="-2.93027">
        <ele>190</ele>
        <time>2016-03-14T15:13:04Z</time>
      </trkpt>
      <trkpt lat="48.31931" lon="-2.93026">
        <ele>190</ele>
        <time>2016-03-14T15:13:05Z</time>
      </trkpt>
      <trkpt lat="48.3193" lon="-2.93026">
        <ele>190</ele>
        <time>2016-03-14T15:13:06Z</time>
      </trkpt>
      <trkpt lat="48.31929" lon="-2.93025">
        <ele>190</ele>
        <time>2016-03-14T15:13:07Z</time>
      </trkpt>
      <trkpt lat="48.31927" lon="-2.93024">
        <ele>189</ele>
        <time>2016-03-14T15:13:08Z</time>
      </trkpt>
      <trkpt lat="48.31925" lon="-2.93023">
        <ele>189</ele>
        <time>2016-03-14T15:13:10Z</time>
      </trkpt>
      <trkpt lat="48.31923" lon="-2.93021">
        <ele>188</ele>
        <time>2016-03-14T15:13:12Z</time>
      </trkpt>
      <trkpt lat="48.31921" lon="-2.9302">
        <ele>188</ele>
        <time>2016-03-14T15:13:14Z</time>
      </trkpt>
      <trkpt lat="48.31919" lon="-2.93019">
        <ele>188</ele>
        <time>2016-03-14T15:13:16Z</time>
      </trkpt>
      <trkpt lat="48.31918" lon="-2.93019">
        <ele>188</ele>
        <time>2016-03-14T15:13:17Z</time>
      </trkpt>
      <trkpt lat="48.31916" lon="-2.93018">
        <ele>188</ele>
        <time>2016-03-14T15:13:18Z</time>
      </trkpt>
      <trkpt lat="48.31915" lon="-2.93017">
        <ele>188</ele>
        <time>2016-03-14T15:13:19Z</time>
      </trkpt>
      <trkpt lat="48.31913" lon="-2.93016">
        <ele>188</ele>
        <time>2016-03-14T15:13:21Z</time>
      </trkpt>
      <trkpt lat="48.31912" lon="-2.93016">
        <ele>188</ele>
        <time>2016-03-14T15:13:22Z</time>
      </trkpt>
      <trkpt lat="48.31911" lon="-2.93015">
        <ele>188</ele>
        <time>2016-03-14T15:13:23Z</time>
      </trkpt>
      <trkpt lat="48.31909" lon="-2.93014">
        <ele>188</ele>
        <time>2016-03-14T15:13:25Z</time>
      </trkpt>
      <trkpt lat="48.31907" lon="-2.93012">
        <ele>188</ele>
        <time>2016-03-14T15:13:27Z</time>
      </trkpt>
      <trkpt lat="48.31905" lon="-2.9301">
        <ele>187</ele>
        <time>2016-03-14T15:13:29Z</time>
      </trkpt>
      <trkpt lat="48.31903" lon="-2.93009">
        <ele>187</ele>
        <time>2016-03-14T15:13:31Z</time>
      </trkpt>
      <trkpt lat="48.31902" lon="-2.93009">
        <ele>187</ele>
        <time>2016-03-14T15:13:32Z</time>
      </trkpt>
      <trkpt lat="48.319" lon="-2.93008">
        <ele>187</ele>
        <time>2016-03-14T15:13:34Z</time>
      </trkpt>
      <trkpt lat="48.31898" lon="-2.93007">
        <ele>187</ele>
        <time>2016-03-14T15:13:35Z</time>
      </trkpt>
      <trkpt lat="48.31897" lon="-2.93006">
        <ele>187</ele>
        <time>2016-03-14T15:13:36Z</time>
      </trkpt>
      <trkpt lat="48.31896" lon="-2.93006">
        <ele>187</ele>
        <time>2016-03-14T15:13:37Z</time>
      </trkpt>
      <trkpt lat="48.31895" lon="-2.93005">
        <ele>187</ele>
        <time>2016-03-14T15:13:38Z</time>
      </trkpt>
      <trkpt lat="48.31893" lon="-2.93004">
        <ele>187</ele>
        <time>2016-03-14T15:13:40Z</time>
      </trkpt>
      <trkpt lat="48.3189" lon="-2.93002">
        <ele>187</ele>
        <time>2016-03-14T15:13:42Z</time>
      </trkpt>
      <trkpt lat="48.31889" lon="-2.93002">
        <ele>187</ele>
        <time>2016-03-14T15:13:43Z</time>
      </trkpt>
      <trkpt lat="48.31888" lon="-2.93001">
        <ele>187</ele>
        <time>2016-03-14T15:13:44Z</time>
      </trkpt>
      <trkpt lat="48.31887" lon="-2.93">
        <ele>187</ele>
        <time>2016-03-14T15:13:45Z</time>
      </trkpt>
      <trkpt lat="48.31886" lon="-2.93">
        <ele>187</ele>
        <time>2016-03-14T15:13:46Z</time>
      </trkpt>
      <trkpt lat="48.31884" lon="-2.92999">
        <ele>187</ele>
        <time>2016-03-14T15:13:47Z</time>
      </trkpt>
      <trkpt lat="48.31883" lon="-2.92998">
        <ele>187</ele>
        <time>2016-03-14T15:13:48Z</time>
      </trkpt>
      <trkpt lat="48.31882" lon="-2.92998">
        <ele>187</ele>
        <time>2016-03-14T15:13:49Z</time>
      </trkpt>
      <trkpt lat="48.31881" lon="-2.92997">
        <ele>187</ele>
        <time>2016-03-14T15:13:50Z</time>
      </trkpt>
      <trkpt lat="48.3188" lon="-2.92996">
        <ele>187</ele>
        <time>2016-03-14T15:13:51Z</time>
      </trkpt>
      <trkpt lat="48.31879" lon="-2.92995">
        <ele>187</ele>
        <time>2016-03-14T15:13:52Z</time>
      </trkpt>
      <trkpt lat="48.31878" lon="-2.92995">
        <ele>187</ele>
        <time>2016-03-14T15:13:53Z</time>
      </trkpt>
      <trkpt lat="48.31876" lon="-2.92994">
        <ele>187</ele>
        <time>2016-03-14T15:13:54Z</time>
      </trkpt>
      <trkpt lat="48.31875" lon="-2.92993">
        <ele>187</ele>
        <time>2016-03-14T15:13:55Z</time>
      </trkpt>
      <trkpt lat="48.31874" lon="-2.92992">
        <ele>187</ele>
        <time>2016-03-14T15:13:56Z</time>
      </trkpt>
      <trkpt lat="48.31873" lon="-2.92992">
        <ele>187</ele>
        <time>2016-03-14T15:13:57Z</time>
      </trkpt>
      <trkpt lat="48.31871" lon="-2.9299">
        <ele>187</ele>
        <time>2016-03-14T15:13:59Z</time>
      </trkpt>
      <trkpt lat="48.3187" lon="-2.92989">
        <ele>187</ele>
        <time>2016-03-14T15:14:00Z</time>
      </trkpt>
      <trkpt lat="48.31868" lon="-2.92988">
        <ele>187</ele>
        <time>2016-03-14T15:14:02Z</time>
      </trkpt>
      <trkpt lat="48.31866" lon="-2.92987">
        <ele>187</ele>
        <time>2016-03-14T15:14:03Z</time>
      </trkpt>
      <trkpt lat="48.31865" lon="-2.92986">
        <ele>187</ele>
        <time>2016-03-14T15:14:04Z</time>
      </trkpt>
      <trkpt lat="48.31864" lon="-2.92986">
        <ele>187</ele>
        <time>2016-03-14T15:14:05Z</time>
      </trkpt>
      <trkpt lat="48.31862" lon="-2.92984">
        <ele>186</ele>
        <time>2016-03-14T15:14:07Z</time>
      </trkpt>
      <trkpt lat="48.3186" lon="-2.92982">
        <ele>186</ele>
        <time>2016-03-14T15:14:09Z</time>
      </trkpt>
      <trkpt lat="48.31859" lon="-2.92981">
        <ele>186</ele>
        <time>2016-03-14T15:14:10Z</time>
      </trkpt>
      <trkpt lat="48.31858" lon="-2.9298">
        <ele>186</ele>
        <time>2016-03-14T15:14:11Z</time>
      </trkpt>
      <trkpt lat="48.31857" lon="-2.92979">
        <ele>186</ele>
        <time>2016-03-14T15:14:12Z</time>
      </trkpt>
      <trkpt lat="48.31855" lon="-2.92978">
        <ele>186</ele>
        <time>2016-03-14T15:14:13Z</time>
      </trkpt>
      <trkpt lat="48.31854" lon="-2.92977">
        <ele>186</ele>
        <time>2016-03-14T15:14:14Z</time>
      </trkpt>
      <trkpt lat="48.31852" lon="-2.92975">
        <ele>186</ele>
        <time>2016-03-14T15:14:16Z</time>
      </trkpt>
      <trkpt lat="48.31851" lon="-2.92974">
        <ele>186</ele>
        <time>2016-03-14T15:14:17Z</time>
      </trkpt>
      <trkpt lat="48.31849" lon="-2.92973">
        <ele>185</ele>
        <time>2016-03-14T15:14:19Z</time>
      </trkpt>
      <trkpt lat="48.31848" lon="-2.92972">
        <ele>185</ele>
        <time>2016-03-14T15:14:20Z</time>
      </trkpt>
      <trkpt lat="48.31847" lon="-2.92971">
        <ele>185</ele>
        <time>2016-03-14T15:14:21Z</time>
      </trkpt>
      <trkpt lat="48.31845" lon="-2.9297">
        <ele>185</ele>
        <time>2016-03-14T15:14:22Z</time>
      </trkpt>
      <trkpt lat="48.31843" lon="-2.92968">
        <ele>185</ele>
        <time>2016-03-14T15:14:24Z</time>
      </trkpt>
      <trkpt lat="48.31842" lon="-2.92967">
        <ele>185</ele>
        <time>2016-03-14T15:14:25Z</time>
      </trkpt>
      <trkpt lat="48.3184" lon="-2.92965">
        <ele>185</ele>
        <time>2016-03-14T15:14:27Z</time>
      </trkpt>
      <trkpt lat="48.31839" lon="-2.92965">
        <ele>185</ele>
        <time>2016-03-14T15:14:28Z</time>
      </trkpt>
      <trkpt lat="48.31837" lon="-2.92964">
        <ele>185</ele>
        <time>2016-03-14T15:14:29Z</time>
      </trkpt>
      <trkpt lat="48.31836" lon="-2.92962">
        <ele>185</ele>
        <time>2016-03-14T15:14:31Z</time>
      </trkpt>
      <trkpt lat="48.31833" lon="-2.9296">
        <ele>185</ele>
        <time>2016-03-14T15:14:33Z</time>
      </trkpt>
      <trkpt lat="48.31831" lon="-2.92958">
        <ele>185</ele>
        <time>2016-03-14T15:14:35Z</time>
      </trkpt>
      <trkpt lat="48.31829" lon="-2.92957">
        <ele>184</ele>
        <time>2016-03-14T15:14:37Z</time>
      </trkpt>
      <trkpt lat="48.31828" lon="-2.92956">
        <ele>184</ele>
        <time>2016-03-14T15:14:38Z</time>
      </trkpt>
      <trkpt lat="48.31827" lon="-2.92955">
        <ele>184</ele>
        <time>2016-03-14T15:14:39Z</time>
      </trkpt>
      <trkpt lat="48.31826" lon="-2.92954">
        <ele>184</ele>
        <time>2016-03-14T15:14:40Z</time>
      </trkpt>
      <trkpt lat="48.31824" lon="-2.92953">
        <ele>184</ele>
        <time>2016-03-14T15:14:41Z</time>
      </trkpt>
      <trkpt lat="48.31823" lon="-2.92953">
        <ele>184</ele>
        <time>2016-03-14T15:14:42Z</time>
      </trkpt>
      <trkpt lat="48.31822" lon="-2.92952">
        <ele>184</ele>
        <time>2016-03-14T15:14:43Z</time>
      </trkpt>
      <trkpt lat="48.31821" lon="-2.92951">
        <ele>184</ele>
        <time>2016-03-14T15:14:44Z</time>
      </trkpt>
      <trkpt lat="48.3182" lon="-2.9295">
        <ele>184</ele>
        <time>2016-03-14T15:14:45Z</time>
      </trkpt>
      <trkpt lat="48.31818" lon="-2.92949">
        <ele>184</ele>
        <time>2016-03-14T15:14:46Z</time>
      </trkpt>
      <trkpt lat="48.31817" lon="-2.92948">
        <ele>184</ele>
        <time>2016-03-14T15:14:47Z</time>
      </trkpt>
      <trkpt lat="48.31816" lon="-2.92947">
        <ele>184</ele>
        <time>2016-03-14T15:14:48Z</time>
      </trkpt>
      <trkpt lat="48.31815" lon="-2.92946">
        <ele>184</ele>
        <time>2016-03-14T15:14:49Z</time>
      </trkpt>
      <trkpt lat="48.31813" lon="-2.92945">
        <ele>184</ele>
        <time>2016-03-14T15:14:51Z</time>
      </trkpt>
      <trkpt lat="48.31811" lon="-2.92944">
        <ele>184</ele>
        <time>2016-03-14T15:14:52Z</time>
      </trkpt>
      <trkpt lat="48.3181" lon="-2.92943">
        <ele>184</ele>
        <time>2016-03-14T15:14:53Z</time>
      </trkpt>
      <trkpt lat="48.31809" lon="-2.92942">
        <ele>184</ele>
        <time>2016-03-14T15:14:54Z</time>
      </trkpt>
      <trkpt lat="48.31808" lon="-2.92941">
        <ele>184</ele>
        <time>2016-03-14T15:14:55Z</time>
      </trkpt>
      <trkpt lat="48.31807" lon="-2.9294">
        <ele>184</ele>
        <time>2016-03-14T15:14:56Z</time>
      </trkpt>
      <trkpt lat="48.31805" lon="-2.92939">
        <ele>184</ele>
        <time>2016-03-14T15:14:57Z</time>
      </trkpt>
      <trkpt lat="48.31804" lon="-2.92938">
        <ele>184</ele>
        <time>2016-03-14T15:14:58Z</time>
      </trkpt>
      <trkpt lat="48.31802" lon="-2.92936">
        <ele>184</ele>
        <time>2016-03-14T15:15:00Z</time>
      </trkpt>
      <trkpt lat="48.318" lon="-2.92935">
        <ele>184</ele>
        <time>2016-03-14T15:15:02Z</time>
      </trkpt>
      <trkpt lat="48.31799" lon="-2.92934">
        <ele>184</ele>
        <time>2016-03-14T15:15:03Z</time>
      </trkpt>
      <trkpt lat="48.31797" lon="-2.92933">
        <ele>184</ele>
        <time>2016-03-14T15:15:04Z</time>
      </trkpt>
      <trkpt lat="48.31796" lon="-2.92932">
        <ele>184</ele>
        <time>2016-03-14T15:15:05Z</time>
      </trkpt>
      <trkpt lat="48.31795" lon="-2.92932">
        <ele>184</ele>
        <time>2016-03-14T15:15:06Z</time>
      </trkpt>
      <trkpt lat="48.31793" lon="-2.9293">
        <ele>184</ele>
        <time>2016-03-14T15:15:08Z</time>
      </trkpt>
      <trkpt lat="48.31791" lon="-2.92929">
        <ele>184</ele>
        <time>2016-03-14T15:15:10Z</time>
      </trkpt>
      <trkpt lat="48.31789" lon="-2.92927">
        <ele>184</ele>
        <time>2016-03-14T15:15:12Z</time>
      </trkpt>
      <trkpt lat="48.31787" lon="-2.92926">
        <ele>184</ele>
        <time>2016-03-14T15:15:14Z</time>
      </trkpt>
      <trkpt lat="48.31785" lon="-2.92924">
        <ele>184</ele>
        <time>2016-03-14T15:15:16Z</time>
      </trkpt>
      <trkpt lat="48.31783" lon="-2.92923">
        <ele>184</ele>
        <time>2016-03-14T15:15:18Z</time>
      </trkpt>
      <trkpt lat="48.31782" lon="-2.92922">
        <ele>184</ele>
        <time>2016-03-14T15:15:19Z</time>
      </trkpt>
      <trkpt lat="48.3178" lon="-2.9292">
        <ele>184</ele>
        <time>2016-03-14T15:15:21Z</time>
      </trkpt>
      <trkpt lat="48.31778" lon="-2.92918">
        <ele>184</ele>
        <time>2016-03-14T15:15:23Z</time>
      </trkpt>
      <trkpt lat="48.31777" lon="-2.92918">
        <ele>184</ele>
        <time>2016-03-14T15:15:24Z</time>
      </trkpt>
      <trkpt lat="48.31776" lon="-2.92917">
        <ele>184</ele>
        <time>2016-03-14T15:15:25Z</time>
      </trkpt>
      <trkpt lat="48.31775" lon="-2.92916">
        <ele>184</ele>
        <time>2016-03-14T15:15:26Z</time>
      </trkpt>
      <trkpt lat="48.31773" lon="-2.92916">
        <ele>184</ele>
        <time>2016-03-14T15:15:27Z</time>
      </trkpt>
      <trkpt lat="48.31772" lon="-2.92915">
        <ele>184</ele>
        <time>2016-03-14T15:15:28Z</time>
      </trkpt>
      <trkpt lat="48.31771" lon="-2.92914">
        <ele>184</ele>
        <time>2016-03-14T15:15:29Z</time>
      </trkpt>
      <trkpt lat="48.3177" lon="-2.92914">
        <ele>184</ele>
        <time>2016-03-14T15:15:30Z</time>
      </trkpt>
      <trkpt lat="48.31768" lon="-2.92912">
        <ele>184</ele>
        <time>2016-03-14T15:15:32Z</time>
      </trkpt>
      <trkpt lat="48.31766" lon="-2.92911">
        <ele>184</ele>
        <time>2016-03-14T15:15:33Z</time>
      </trkpt>
      <trkpt lat="48.31765" lon="-2.92911">
        <ele>184</ele>
        <time>2016-03-14T15:15:34Z</time>
      </trkpt>
      <trkpt lat="48.31764" lon="-2.9291">
        <ele>184</ele>
        <time>2016-03-14T15:15:35Z</time>
      </trkpt>
      <trkpt lat="48.31762" lon="-2.92909">
        <ele>184</ele>
        <time>2016-03-14T15:15:36Z</time>
      </trkpt>
      <trkpt lat="48.31761" lon="-2.92909">
        <ele>184</ele>
        <time>2016-03-14T15:15:37Z</time>
      </trkpt>
      <trkpt lat="48.3176" lon="-2.92908">
        <ele>184</ele>
        <time>2016-03-14T15:15:38Z</time>
      </trkpt>
      <trkpt lat="48.31759" lon="-2.92907">
        <ele>184</ele>
        <time>2016-03-14T15:15:39Z</time>
      </trkpt>
      <trkpt lat="48.31758" lon="-2.92906">
        <ele>184</ele>
        <time>2016-03-14T15:15:40Z</time>
      </trkpt>
      <trkpt lat="48.31755" lon="-2.92905">
        <ele>184</ele>
        <time>2016-03-14T15:15:42Z</time>
      </trkpt>
      <trkpt lat="48.31754" lon="-2.92905">
        <ele>184</ele>
        <time>2016-03-14T15:15:43Z</time>
      </trkpt>
      <trkpt lat="48.31753" lon="-2.92904">
        <ele>184</ele>
        <time>2016-03-14T15:15:44Z</time>
      </trkpt>
      <trkpt lat="48.31752" lon="-2.92903">
        <ele>184</ele>
        <time>2016-03-14T15:15:45Z</time>
      </trkpt>
      <trkpt lat="48.3175" lon="-2.92903">
        <ele>184</ele>
        <time>2016-03-14T15:15:46Z</time>
      </trkpt>
      <trkpt lat="48.31748" lon="-2.92901">
        <ele>184</ele>
        <time>2016-03-14T15:15:48Z</time>
      </trkpt>
      <trkpt lat="48.31747" lon="-2.92901">
        <ele>184</ele>
        <time>2016-03-14T15:15:49Z</time>
      </trkpt>
      <trkpt lat="48.31746" lon="-2.929">
        <ele>184</ele>
        <time>2016-03-14T15:15:50Z</time>
      </trkpt>
      <trkpt lat="48.31745" lon="-2.929">
        <ele>184</ele>
        <time>2016-03-14T15:15:51Z</time>
      </trkpt>
      <trkpt lat="48.31744" lon="-2.92899">
        <ele>184</ele>
        <time>2016-03-14T15:15:52Z</time>
      </trkpt>
      <trkpt lat="48.31742" lon="-2.92899">
        <ele>184</ele>
        <time>2016-03-14T15:15:53Z</time>
      </trkpt>
      <trkpt lat="48.31741" lon="-2.92898">
        <ele>184</ele>
        <time>2016-03-14T15:15:54Z</time>
      </trkpt>
      <trkpt lat="48.3174" lon="-2.92898">
        <ele>184</ele>
        <time>2016-03-14T15:15:55Z</time>
      </trkpt>
      <trkpt lat="48.31739" lon="-2.92897">
        <ele>184</ele>
        <time>2016-03-14T15:15:56Z</time>
      </trkpt>
      <trkpt lat="48.31738" lon="-2.92897">
        <ele>184</ele>
        <time>2016-03-14T15:15:57Z</time>
      </trkpt>
      <trkpt lat="48.31736" lon="-2.92896">
        <ele>184</ele>
        <time>2016-03-14T15:15:58Z</time>
      </trkpt>
      <trkpt lat="48.31735" lon="-2.92896">
        <ele>184</ele>
        <time>2016-03-14T15:15:59Z</time>
      </trkpt>
      <trkpt lat="48.31734" lon="-2.92895">
        <ele>184</ele>
        <time>2016-03-14T15:16:00Z</time>
      </trkpt>
      <trkpt lat="48.31733" lon="-2.92895">
        <ele>184</ele>
        <time>2016-03-14T15:16:01Z</time>
      </trkpt>
      <trkpt lat="48.31731" lon="-2.92894">
        <ele>184</ele>
        <time>2016-03-14T15:16:02Z</time>
      </trkpt>
      <trkpt lat="48.3173" lon="-2.92894">
        <ele>184</ele>
        <time>2016-03-14T15:16:03Z</time>
      </trkpt>
      <trkpt lat="48.31729" lon="-2.92893">
        <ele>184</ele>
        <time>2016-03-14T15:16:04Z</time>
      </trkpt>
      <trkpt lat="48.31728" lon="-2.92893">
        <ele>184</ele>
        <time>2016-03-14T15:16:05Z</time>
      </trkpt>
      <trkpt lat="48.31727" lon="-2.92893">
        <ele>184</ele>
        <time>2016-03-14T15:16:06Z</time>
      </trkpt>
      <trkpt lat="48.31725" lon="-2.92892">
        <ele>184</ele>
        <time>2016-03-14T15:16:07Z</time>
      </trkpt>
      <trkpt lat="48.31724" lon="-2.92892">
        <ele>184</ele>
        <time>2016-03-14T15:16:08Z</time>
      </trkpt>
      <trkpt lat="48.31723" lon="-2.92891">
        <ele>184</ele>
        <time>2016-03-14T15:16:09Z</time>
      </trkpt>
      <trkpt lat="48.31721" lon="-2.92891">
        <ele>184</ele>
        <time>2016-03-14T15:16:10Z</time>
      </trkpt>
      <trkpt lat="48.3172" lon="-2.9289">
        <ele>184</ele>
        <time>2016-03-14T15:16:11Z</time>
      </trkpt>
      <trkpt lat="48.31719" lon="-2.9289">
        <ele>184</ele>
        <time>2016-03-14T15:16:12Z</time>
      </trkpt>
      <trkpt lat="48.31718" lon="-2.9289">
        <ele>184</ele>
        <time>2016-03-14T15:16:13Z</time>
      </trkpt>
      <trkpt lat="48.31716" lon="-2.92889">
        <ele>184</ele>
        <time>2016-03-14T15:16:15Z</time>
      </trkpt>
      <trkpt lat="48.31715" lon="-2.92889">
        <ele>184</ele>
        <time>2016-03-14T15:16:16Z</time>
      </trkpt>
      <trkpt lat="48.31713" lon="-2.92888">
        <ele>184</ele>
        <time>2016-03-14T15:16:17Z</time>
      </trkpt>
      <trkpt lat="48.31712" lon="-2.92888">
        <ele>184</ele>
        <time>2016-03-14T15:16:18Z</time>
      </trkpt>
      <trkpt lat="48.31711" lon="-2.92888">
        <ele>184</ele>
        <time>2016-03-14T15:16:19Z</time>
      </trkpt>
      <trkpt lat="48.3171" lon="-2.92887">
        <ele>184</ele>
        <time>2016-03-14T15:16:20Z</time>
      </trkpt>
      <trkpt lat="48.31708" lon="-2.92887">
        <ele>184</ele>
        <time>2016-03-14T15:16:21Z</time>
      </trkpt>
      <trkpt lat="48.31707" lon="-2.92886">
        <ele>184</ele>
        <time>2016-03-14T15:16:22Z</time>
      </trkpt>
      <trkpt lat="48.31706" lon="-2.92886">
        <ele>184</ele>
        <time>2016-03-14T15:16:23Z</time>
      </trkpt>
      <trkpt lat="48.31705" lon="-2.92885">
        <ele>184</ele>
        <time>2016-03-14T15:16:24Z</time>
      </trkpt>
      <trkpt lat="48.31703" lon="-2.92885">
        <ele>184</ele>
        <time>2016-03-14T15:16:25Z</time>
      </trkpt>
      <trkpt lat="48.31702" lon="-2.92885">
        <ele>184</ele>
        <time>2016-03-14T15:16:26Z</time>
      </trkpt>
      <trkpt lat="48.31701" lon="-2.92884">
        <ele>184</ele>
        <time>2016-03-14T15:16:27Z</time>
      </trkpt>
      <trkpt lat="48.317" lon="-2.92884">
        <ele>184</ele>
        <time>2016-03-14T15:16:28Z</time>
      </trkpt>
      <trkpt lat="48.31699" lon="-2.92883">
        <ele>184</ele>
        <time>2016-03-14T15:16:29Z</time>
      </trkpt>
      <trkpt lat="48.31697" lon="-2.92883">
        <ele>184</ele>
        <time>2016-03-14T15:16:30Z</time>
      </trkpt>
      <trkpt lat="48.31696" lon="-2.92882">
        <ele>184</ele>
        <time>2016-03-14T15:16:31Z</time>
      </trkpt>
      <trkpt lat="48.31695" lon="-2.92882">
        <ele>184</ele>
        <time>2016-03-14T15:16:32Z</time>
      </trkpt>
      <trkpt lat="48.31694" lon="-2.92882">
        <ele>184</ele>
        <time>2016-03-14T15:16:33Z</time>
      </trkpt>
      <trkpt lat="48.31693" lon="-2.92881">
        <ele>184</ele>
        <time>2016-03-14T15:16:34Z</time>
      </trkpt>
      <trkpt lat="48.31691" lon="-2.92881">
        <ele>184</ele>
        <time>2016-03-14T15:16:35Z</time>
      </trkpt>
      <trkpt lat="48.3169" lon="-2.9288">
        <ele>184</ele>
        <time>2016-03-14T15:16:36Z</time>
      </trkpt>
      <trkpt lat="48.31689" lon="-2.9288">
        <ele>184</ele>
        <time>2016-03-14T15:16:37Z</time>
      </trkpt>
      <trkpt lat="48.31688" lon="-2.92879">
        <ele>184</ele>
        <time>2016-03-14T15:16:38Z</time>
      </trkpt>
      <trkpt lat="48.31686" lon="-2.92879">
        <ele>184</ele>
        <time>2016-03-14T15:16:39Z</time>
      </trkpt>
      <trkpt lat="48.31685" lon="-2.92878">
        <ele>184</ele>
        <time>2016-03-14T15:16:40Z</time>
      </trkpt>
      <trkpt lat="48.31684" lon="-2.92878">
        <ele>184</ele>
        <time>2016-03-14T15:16:41Z</time>
      </trkpt>
      <trkpt lat="48.31682" lon="-2.92877">
        <ele>184</ele>
        <time>2016-03-14T15:16:43Z</time>
      </trkpt>
      <trkpt lat="48.31681" lon="-2.92876">
        <ele>184</ele>
        <time>2016-03-14T15:16:44Z</time>
      </trkpt>
      <trkpt lat="48.3168" lon="-2.92876">
        <ele>184</ele>
        <time>2016-03-14T15:16:45Z</time>
      </trkpt>
      <trkpt lat="48.31678" lon="-2.92875">
        <ele>184</ele>
        <time>2016-03-14T15:16:46Z</time>
      </trkpt>
      <trkpt lat="48.31677" lon="-2.92875">
        <ele>184</ele>
        <time>2016-03-14T15:16:47Z</time>
      </trkpt>
      <trkpt lat="48.31676" lon="-2.92875">
        <ele>184</ele>
        <time>2016-03-14T15:16:48Z</time>
      </trkpt>
      <trkpt lat="48.31674" lon="-2.92874">
        <ele>184</ele>
        <time>2016-03-14T15:16:50Z</time>
      </trkpt>
      <trkpt lat="48.31673" lon="-2.92873">
        <ele>184</ele>
        <time>2016-03-14T15:16:51Z</time>
      </trkpt>
      <trkpt lat="48.31671" lon="-2.92873">
        <ele>184</ele>
        <time>2016-03-14T15:16:52Z</time>
      </trkpt>
      <trkpt lat="48.3167" lon="-2.92872">
        <ele>184</ele>
        <time>2016-03-14T15:16:53Z</time>
      </trkpt>
      <trkpt lat="48.31669" lon="-2.92872">
        <ele>184</ele>
        <time>2016-03-14T15:16:54Z</time>
      </trkpt>
      <trkpt lat="48.31668" lon="-2.92871">
        <ele>184</ele>
        <time>2016-03-14T15:16:55Z</time>
      </trkpt>
      <trkpt lat="48.31666" lon="-2.9287">
        <ele>184</ele>
        <time>2016-03-14T15:16:57Z</time>
      </trkpt>
      <trkpt lat="48.31664" lon="-2.92868">
        <ele>184</ele>
        <time>2016-03-14T15:16:59Z</time>
      </trkpt>
      <trkpt lat="48.31661" lon="-2.92867">
        <ele>184</ele>
        <time>2016-03-14T15:17:01Z</time>
      </trkpt>
      <trkpt lat="48.3166" lon="-2.92867">
        <ele>184</ele>
        <time>2016-03-14T15:17:02Z</time>
      </trkpt>
      <trkpt lat="48.31659" lon="-2.92866">
        <ele>184</ele>
        <time>2016-03-14T15:17:03Z</time>
      </trkpt>
      <trkpt lat="48.31657" lon="-2.92865">
        <ele>184</ele>
        <time>2016-03-14T15:17:05Z</time>
      </trkpt>
      <trkpt lat="48.31656" lon="-2.92865">
        <ele>184</ele>
        <time>2016-03-14T15:17:06Z</time>
      </trkpt>
      <trkpt lat="48.31655" lon="-2.92864">
        <ele>184</ele>
        <time>2016-03-14T15:17:07Z</time>
      </trkpt>
      <trkpt lat="48.31654" lon="-2.92863">
        <ele>184</ele>
        <time>2016-03-14T15:17:08Z</time>
      </trkpt>
      <trkpt lat="48.31652" lon="-2.92863">
        <ele>184</ele>
        <time>2016-03-14T15:17:09Z</time>
      </trkpt>
      <trkpt lat="48.3165" lon="-2.92862">
        <ele>184</ele>
        <time>2016-03-14T15:17:11Z</time>
      </trkpt>
      <trkpt lat="48.31649" lon="-2.92862">
        <ele>184</ele>
        <time>2016-03-14T15:17:12Z</time>
      </trkpt>
      <trkpt lat="48.31647" lon="-2.9286">
        <ele>184</ele>
        <time>2016-03-14T15:17:14Z</time>
      </trkpt>
      <trkpt lat="48.31646" lon="-2.9286">
        <ele>184</ele>
        <time>2016-03-14T15:17:15Z</time>
      </trkpt>
      <trkpt lat="48.31644" lon="-2.92859">
        <ele>184</ele>
        <time>2016-03-14T15:17:17Z</time>
      </trkpt>
      <trkpt lat="48.31642" lon="-2.92857">
        <ele>184</ele>
        <time>2016-03-14T15:17:19Z</time>
      </trkpt>
      <trkpt lat="48.31641" lon="-2.92857">
        <ele>184</ele>
        <time>2016-03-14T15:17:20Z</time>
      </trkpt>
      <trkpt lat="48.31639" lon="-2.92856">
        <ele>184</ele>
        <time>2016-03-14T15:17:22Z</time>
      </trkpt>
      <trkpt lat="48.31637" lon="-2.92854">
        <ele>184</ele>
        <time>2016-03-14T15:17:24Z</time>
      </trkpt>
      <trkpt lat="48.31635" lon="-2.92852">
        <ele>184</ele>
        <time>2016-03-14T15:17:26Z</time>
      </trkpt>
      <trkpt lat="48.31633" lon="-2.92851">
        <ele>183</ele>
        <time>2016-03-14T15:17:28Z</time>
      </trkpt>
      <trkpt lat="48.31631" lon="-2.92849">
        <ele>183</ele>
        <time>2016-03-14T15:17:30Z</time>
      </trkpt>
      <trkpt lat="48.31629" lon="-2.92848">
        <ele>182</ele>
        <time>2016-03-14T15:17:32Z</time>
      </trkpt>
      <trkpt lat="48.31627" lon="-2.92846">
        <ele>182</ele>
        <time>2016-03-14T15:17:34Z</time>
      </trkpt>
      <trkpt lat="48.31625" lon="-2.92845">
        <ele>182</ele>
        <time>2016-03-14T15:17:36Z</time>
      </trkpt>
      <trkpt lat="48.31623" lon="-2.92844">
        <ele>182</ele>
        <time>2016-03-14T15:17:38Z</time>
      </trkpt>
      <trkpt lat="48.31621" lon="-2.92843">
        <ele>182</ele>
        <time>2016-03-14T15:17:40Z</time>
      </trkpt>
      <trkpt lat="48.3162" lon="-2.92841">
        <ele>182</ele>
        <time>2016-03-14T15:17:42Z</time>
      </trkpt>
      <trkpt lat="48.31617" lon="-2.92839">
        <ele>182</ele>
        <time>2016-03-14T15:17:44Z</time>
      </trkpt>
      <trkpt lat="48.31616" lon="-2.92838">
        <ele>182</ele>
        <time>2016-03-14T15:17:45Z</time>
      </trkpt>
      <trkpt lat="48.31614" lon="-2.92835">
        <ele>182</ele>
        <time>2016-03-14T15:17:47Z</time>
      </trkpt>
      <trkpt lat="48.31612" lon="-2.92833">
        <ele>182</ele>
        <time>2016-03-14T15:17:49Z</time>
      </trkpt>
      <trkpt lat="48.3161" lon="-2.92832">
        <ele>182</ele>
        <time>2016-03-14T15:17:51Z</time>
      </trkpt>
      <trkpt lat="48.31609" lon="-2.92831">
        <ele>182</ele>
        <time>2016-03-14T15:17:52Z</time>
      </trkpt>
      <trkpt lat="48.31607" lon="-2.92828">
        <ele>182</ele>
        <time>2016-03-14T15:17:54Z</time>
      </trkpt>
      <trkpt lat="48.31605" lon="-2.92827">
        <ele>182</ele>
        <time>2016-03-14T15:17:56Z</time>
      </trkpt>
      <trkpt lat="48.31603" lon="-2.92825">
        <ele>182</ele>
        <time>2016-03-14T15:17:58Z</time>
      </trkpt>
      <trkpt lat="48.31601" lon="-2.92823">
        <ele>182</ele>
        <time>2016-03-14T15:18:00Z</time>
      </trkpt>
      <trkpt lat="48.316" lon="-2.9282">
        <ele>182</ele>
        <time>2016-03-14T15:18:02Z</time>
      </trkpt>
      <trkpt lat="48.31598" lon="-2.92818">
        <ele>182</ele>
        <time>2016-03-14T15:18:04Z</time>
      </trkpt>
      <trkpt lat="48.31596" lon="-2.92816">
        <ele>182</ele>
        <time>2016-03-14T15:18:06Z</time>
      </trkpt>
      <trkpt lat="48.31594" lon="-2.92813">
        <ele>182</ele>
        <time>2016-03-14T15:18:08Z</time>
      </trkpt>
      <trkpt lat="48.31592" lon="-2.92811">
        <ele>182</ele>
        <time>2016-03-14T15:18:10Z</time>
      </trkpt>
      <trkpt lat="48.3159" lon="-2.92808">
        <ele>182</ele>
        <time>2016-03-14T15:18:12Z</time>
      </trkpt>
      <trkpt lat="48.31588" lon="-2.92806">
        <ele>182</ele>
        <time>2016-03-14T15:18:14Z</time>
      </trkpt>
      <trkpt lat="48.31586" lon="-2.92803">
        <ele>182</ele>
        <time>2016-03-14T15:18:16Z</time>
      </trkpt>
      <trkpt lat="48.31585" lon="-2.928">
        <ele>182</ele>
        <time>2016-03-14T15:18:18Z</time>
      </trkpt>
      <trkpt lat="48.31583" lon="-2.92798">
        <ele>182</ele>
        <time>2016-03-14T15:18:20Z</time>
      </trkpt>
      <trkpt lat="48.3158" lon="-2.92796">
        <ele>182</ele>
        <time>2016-03-14T15:18:22Z</time>
      </trkpt>
      <trkpt lat="48.31578" lon="-2.92793">
        <ele>182</ele>
        <time>2016-03-14T15:18:24Z</time>
      </trkpt>
      <trkpt lat="48.31577" lon="-2.92791">
        <ele>182</ele>
        <time>2016-03-14T15:18:26Z</time>
      </trkpt>
      <trkpt lat="48.31575" lon="-2.92788">
        <ele>182</ele>
        <time>2016-03-14T15:18:28Z</time>
      </trkpt>
      <trkpt lat="48.31574" lon="-2.92787">
        <ele>182</ele>
        <time>2016-03-14T15:18:29Z</time>
      </trkpt>
      <trkpt lat="48.31572" lon="-2.92784">
        <ele>182</ele>
        <time>2016-03-14T15:18:31Z</time>
      </trkpt>
      <trkpt lat="48.31571" lon="-2.92782">
        <ele>182</ele>
        <time>2016-03-14T15:18:32Z</time>
      </trkpt>
      <trkpt lat="48.31569" lon="-2.9278">
        <ele>182</ele>
        <time>2016-03-14T15:18:34Z</time>
      </trkpt>
      <trkpt lat="48.31567" lon="-2.92777">
        <ele>182</ele>
        <time>2016-03-14T15:18:36Z</time>
      </trkpt>
      <trkpt lat="48.31565" lon="-2.92775">
        <ele>182</ele>
        <time>2016-03-14T15:18:38Z</time>
      </trkpt>
      <trkpt lat="48.31563" lon="-2.92773">
        <ele>182</ele>
        <time>2016-03-14T15:18:40Z</time>
      </trkpt>
      <trkpt lat="48.31561" lon="-2.9277">
        <ele>182</ele>
        <time>2016-03-14T15:18:42Z</time>
      </trkpt>
      <trkpt lat="48.31559" lon="-2.92768">
        <ele>182</ele>
        <time>2016-03-14T15:18:44Z</time>
      </trkpt>
      <trkpt lat="48.31557" lon="-2.92766">
        <ele>182</ele>
        <time>2016-03-14T15:18:46Z</time>
      </trkpt>
      <trkpt lat="48.31555" lon="-2.92763">
        <ele>182</ele>
        <time>2016-03-14T15:18:48Z</time>
      </trkpt>
      <trkpt lat="48.31553" lon="-2.92761">
        <ele>182</ele>
        <time>2016-03-14T15:18:50Z</time>
      </trkpt>
      <trkpt lat="48.31551" lon="-2.92759">
        <ele>182</ele>
        <time>2016-03-14T15:18:52Z</time>
      </trkpt>
      <trkpt lat="48.31549" lon="-2.92758">
        <ele>182</ele>
        <time>2016-03-14T15:18:54Z</time>
      </trkpt>
      <trkpt lat="48.31548" lon="-2.92755">
        <ele>182</ele>
        <time>2016-03-14T15:18:56Z</time>
      </trkpt>
      <trkpt lat="48.31546" lon="-2.92754">
        <ele>182</ele>
        <time>2016-03-14T15:18:58Z</time>
      </trkpt>
      <trkpt lat="48.31544" lon="-2.92752">
        <ele>182</ele>
        <time>2016-03-14T15:19:00Z</time>
      </trkpt>
      <trkpt lat="48.31542" lon="-2.9275">
        <ele>182</ele>
        <time>2016-03-14T15:19:02Z</time>
      </trkpt>
      <trkpt lat="48.31541" lon="-2.92749">
        <ele>182</ele>
        <time>2016-03-14T15:19:03Z</time>
      </trkpt>
      <trkpt lat="48.31539" lon="-2.92747">
        <ele>182</ele>
        <time>2016-03-14T15:19:05Z</time>
      </trkpt>
      <trkpt lat="48.31537" lon="-2.92745">
        <ele>182</ele>
        <time>2016-03-14T15:19:07Z</time>
      </trkpt>
      <trkpt lat="48.31535" lon="-2.92743">
        <ele>182</ele>
        <time>2016-03-14T15:19:09Z</time>
      </trkpt>
      <trkpt lat="48.31533" lon="-2.92741">
        <ele>182</ele>
        <time>2016-03-14T15:19:11Z</time>
      </trkpt>
      <trkpt lat="48.31531" lon="-2.9274">
        <ele>182</ele>
        <time>2016-03-14T15:19:13Z</time>
      </trkpt>
      <trkpt lat="48.31529" lon="-2.92739">
        <ele>182</ele>
        <time>2016-03-14T15:19:15Z</time>
      </trkpt>
      <trkpt lat="48.31527" lon="-2.92737">
        <ele>182</ele>
        <time>2016-03-14T15:19:17Z</time>
      </trkpt>
      <trkpt lat="48.31525" lon="-2.92735">
        <ele>182</ele>
        <time>2016-03-14T15:19:19Z</time>
      </trkpt>
      <trkpt lat="48.31524" lon="-2.92733">
        <ele>182</ele>
        <time>2016-03-14T15:19:21Z</time>
      </trkpt>
      <trkpt lat="48.31522" lon="-2.92731">
        <ele>182</ele>
        <time>2016-03-14T15:19:23Z</time>
      </trkpt>
      <trkpt lat="48.3152" lon="-2.92729">
        <ele>181</ele>
        <time>2016-03-14T15:19:25Z</time>
      </trkpt>
      <trkpt lat="48.31519" lon="-2.92727">
        <ele>181</ele>
        <time>2016-03-14T15:19:27Z</time>
      </trkpt>
      <trkpt lat="48.31517" lon="-2.92725">
        <ele>180</ele>
        <time>2016-03-14T15:19:29Z</time>
      </trkpt>
      <trkpt lat="48.31516" lon="-2.92723">
        <ele>180</ele>
        <time>2016-03-14T15:19:31Z</time>
      </trkpt>
      <trkpt lat="48.31515" lon="-2.92722">
        <ele>179</ele>
        <time>2016-03-14T15:19:33Z</time>
      </trkpt>
      <trkpt lat="48.31514" lon="-2.92719">
        <ele>178</ele>
        <time>2016-03-14T15:19:35Z</time>
      </trkpt>
      <trkpt lat="48.31512" lon="-2.92716">
        <ele>177</ele>
        <time>2016-03-14T15:19:37Z</time>
      </trkpt>
      <trkpt lat="48.31511" lon="-2.92713">
        <ele>177</ele>
        <time>2016-03-14T15:19:39Z</time>
      </trkpt>
      <trkpt lat="48.31509" lon="-2.92711">
        <ele>177</ele>
        <time>2016-03-14T15:19:41Z</time>
      </trkpt>
      <trkpt lat="48.31508" lon="-2.92708">
        <ele>177</ele>
        <time>2016-03-14T15:19:43Z</time>
      </trkpt>
      <trkpt lat="48.31507" lon="-2.92706">
        <ele>177</ele>
        <time>2016-03-14T15:19:44Z</time>
      </trkpt>
      <trkpt lat="48.31506" lon="-2.92704">
        <ele>177</ele>
        <time>2016-03-14T15:19:45Z</time>
      </trkpt>
      <trkpt lat="48.31505" lon="-2.92701">
        <ele>177</ele>
        <time>2016-03-14T15:19:46Z</time>
      </trkpt>
      <trkpt lat="48.31505" lon="-2.92699">
        <ele>177</ele>
        <time>2016-03-14T15:19:47Z</time>
      </trkpt>
      <trkpt lat="48.31504" lon="-2.92698">
        <ele>177</ele>
        <time>2016-03-14T15:19:48Z</time>
      </trkpt>
      <trkpt lat="48.31503" lon="-2.92694">
        <ele>177</ele>
        <time>2016-03-14T15:19:50Z</time>
      </trkpt>
      <trkpt lat="48.31503" lon="-2.92691">
        <ele>177</ele>
        <time>2016-03-14T15:19:52Z</time>
      </trkpt>
      <trkpt lat="48.31502" lon="-2.92689">
        <ele>177</ele>
        <time>2016-03-14T15:19:53Z</time>
      </trkpt>
      <trkpt lat="48.31502" lon="-2.92688">
        <ele>177</ele>
        <time>2016-03-14T15:19:54Z</time>
      </trkpt>
      <trkpt lat="48.31501" lon="-2.92685">
        <ele>177</ele>
        <time>2016-03-14T15:19:55Z</time>
      </trkpt>
      <trkpt lat="48.31501" lon="-2.92683">
        <ele>177</ele>
        <time>2016-03-14T15:19:56Z</time>
      </trkpt>
      <trkpt lat="48.31501" lon="-2.92681">
        <ele>177</ele>
        <time>2016-03-14T15:19:57Z</time>
      </trkpt>
      <trkpt lat="48.31501" lon="-2.92678">
        <ele>177</ele>
        <time>2016-03-14T15:19:58Z</time>
      </trkpt>
      <trkpt lat="48.31501" lon="-2.92676">
        <ele>177</ele>
        <time>2016-03-14T15:19:59Z</time>
      </trkpt>
      <trkpt lat="48.315" lon="-2.92675">
        <ele>177</ele>
        <time>2016-03-14T15:20:00Z</time>
      </trkpt>
      <trkpt lat="48.315" lon="-2.92673">
        <ele>177</ele>
        <time>2016-03-14T15:20:01Z</time>
      </trkpt>
      <trkpt lat="48.315" lon="-2.92671">
        <ele>177</ele>
        <time>2016-03-14T15:20:02Z</time>
      </trkpt>
      <trkpt lat="48.315" lon="-2.92669">
        <ele>177</ele>
        <time>2016-03-14T15:20:03Z</time>
      </trkpt>
      <trkpt lat="48.315" lon="-2.92667">
        <ele>177</ele>
        <time>2016-03-14T15:20:04Z</time>
      </trkpt>
      <trkpt lat="48.315" lon="-2.92665">
        <ele>177</ele>
        <time>2016-03-14T15:20:05Z</time>
      </trkpt>
      <trkpt lat="48.315" lon="-2.92663">
        <ele>177</ele>
        <time>2016-03-14T15:20:06Z</time>
      </trkpt>
      <trkpt lat="48.315" lon="-2.92661">
        <ele>178</ele>
        <time>2016-03-14T15:20:07Z</time>
      </trkpt>
      <trkpt lat="48.315" lon="-2.9266">
        <ele>178</ele>
        <time>2016-03-14T15:20:08Z</time>
      </trkpt>
      <trkpt lat="48.315" lon="-2.92658">
        <ele>178</ele>
        <time>2016-03-14T15:20:09Z</time>
      </trkpt>
      <trkpt lat="48.315" lon="-2.92655">
        <ele>178</ele>
        <time>2016-03-14T15:20:10Z</time>
      </trkpt>
      <trkpt lat="48.315" lon="-2.92653">
        <ele>178</ele>
        <time>2016-03-14T15:20:11Z</time>
      </trkpt>
      <trkpt lat="48.315" lon="-2.92651">
        <ele>179</ele>
        <time>2016-03-14T15:20:12Z</time>
      </trkpt>
      <trkpt lat="48.31501" lon="-2.92649">
        <ele>179</ele>
        <time>2016-03-14T15:20:13Z</time>
      </trkpt>
      <trkpt lat="48.31501" lon="-2.92647">
        <ele>179</ele>
        <time>2016-03-14T15:20:14Z</time>
      </trkpt>
      <trkpt lat="48.31501" lon="-2.92646">
        <ele>179</ele>
        <time>2016-03-14T15:20:15Z</time>
      </trkpt>
      <trkpt lat="48.31501" lon="-2.92643">
        <ele>179</ele>
        <time>2016-03-14T15:20:16Z</time>
      </trkpt>
      <trkpt lat="48.31501" lon="-2.92641">
        <ele>179</ele>
        <time>2016-03-14T15:20:17Z</time>
      </trkpt>
      <trkpt lat="48.31501" lon="-2.92639">
        <ele>179</ele>
        <time>2016-03-14T15:20:18Z</time>
      </trkpt>
      <trkpt lat="48.31501" lon="-2.92637">
        <ele>180</ele>
        <time>2016-03-14T15:20:19Z</time>
      </trkpt>
      <trkpt lat="48.31501" lon="-2.92635">
        <ele>180</ele>
        <time>2016-03-14T15:20:20Z</time>
      </trkpt>
      <trkpt lat="48.31501" lon="-2.92633">
        <ele>180</ele>
        <time>2016-03-14T15:20:21Z</time>
      </trkpt>
      <trkpt lat="48.31501" lon="-2.92632">
        <ele>180</ele>
        <time>2016-03-14T15:20:22Z</time>
      </trkpt>
      <trkpt lat="48.31502" lon="-2.9263">
        <ele>180</ele>
        <time>2016-03-14T15:20:23Z</time>
      </trkpt>
      <trkpt lat="48.31502" lon="-2.92628">
        <ele>180</ele>
        <time>2016-03-14T15:20:24Z</time>
      </trkpt>
      <trkpt lat="48.31502" lon="-2.92626">
        <ele>180</ele>
        <time>2016-03-14T15:20:25Z</time>
      </trkpt>
      <trkpt lat="48.31502" lon="-2.92624">
        <ele>180</ele>
        <time>2016-03-14T15:20:26Z</time>
      </trkpt>
      <trkpt lat="48.31502" lon="-2.92623">
        <ele>180</ele>
        <time>2016-03-14T15:20:27Z</time>
      </trkpt>
      <trkpt lat="48.31502" lon="-2.92621">
        <ele>181</ele>
        <time>2016-03-14T15:20:28Z</time>
      </trkpt>
      <trkpt lat="48.31502" lon="-2.92619">
        <ele>181</ele>
        <time>2016-03-14T15:20:29Z</time>
      </trkpt>
      <trkpt lat="48.31502" lon="-2.92617">
        <ele>181</ele>
        <time>2016-03-14T15:20:30Z</time>
      </trkpt>
      <trkpt lat="48.31502" lon="-2.92616">
        <ele>181</ele>
        <time>2016-03-14T15:20:31Z</time>
      </trkpt>
      <trkpt lat="48.31502" lon="-2.92614">
        <ele>181</ele>
        <time>2016-03-14T15:20:32Z</time>
      </trkpt>
      <trkpt lat="48.31502" lon="-2.92612">
        <ele>181</ele>
        <time>2016-03-14T15:20:33Z</time>
      </trkpt>
      <trkpt lat="48.31502" lon="-2.9261">
        <ele>181</ele>
        <time>2016-03-14T15:20:34Z</time>
      </trkpt>
      <trkpt lat="48.31502" lon="-2.92608">
        <ele>181</ele>
        <time>2016-03-14T15:20:35Z</time>
      </trkpt>
      <trkpt lat="48.31502" lon="-2.92606">
        <ele>181</ele>
        <time>2016-03-14T15:20:36Z</time>
      </trkpt>
      <trkpt lat="48.31502" lon="-2.92604">
        <ele>181</ele>
        <time>2016-03-14T15:20:37Z</time>
      </trkpt>
      <trkpt lat="48.31502" lon="-2.92602">
        <ele>181</ele>
        <time>2016-03-14T15:20:38Z</time>
      </trkpt>
      <trkpt lat="48.31502" lon="-2.926">
        <ele>181</ele>
        <time>2016-03-14T15:20:39Z</time>
      </trkpt>
      <trkpt lat="48.31502" lon="-2.92598">
        <ele>181</ele>
        <time>2016-03-14T15:20:40Z</time>
      </trkpt>
      <trkpt lat="48.31502" lon="-2.92596">
        <ele>181</ele>
        <time>2016-03-14T15:20:41Z</time>
      </trkpt>
      <trkpt lat="48.31502" lon="-2.92594">
        <ele>181</ele>
        <time>2016-03-14T15:20:42Z</time>
      </trkpt>
      <trkpt lat="48.31502" lon="-2.92592">
        <ele>181</ele>
        <time>2016-03-14T15:20:43Z</time>
      </trkpt>
      <trkpt lat="48.31502" lon="-2.9259">
        <ele>181</ele>
        <time>2016-03-14T15:20:44Z</time>
      </trkpt>
      <trkpt lat="48.31502" lon="-2.92588">
        <ele>181</ele>
        <time>2016-03-14T15:20:45Z</time>
      </trkpt>
      <trkpt lat="48.31502" lon="-2.92587">
        <ele>181</ele>
        <time>2016-03-14T15:20:46Z</time>
      </trkpt>
      <trkpt lat="48.31502" lon="-2.92585">
        <ele>181</ele>
        <time>2016-03-14T15:20:47Z</time>
      </trkpt>
      <trkpt lat="48.31502" lon="-2.92583">
        <ele>181</ele>
        <time>2016-03-14T15:20:48Z</time>
      </trkpt>
      <trkpt lat="48.31502" lon="-2.92582">
        <ele>181</ele>
        <time>2016-03-14T15:20:49Z</time>
      </trkpt>
      <trkpt lat="48.31502" lon="-2.9258">
        <ele>181</ele>
        <time>2016-03-14T15:20:50Z</time>
      </trkpt>
      <trkpt lat="48.31501" lon="-2.92578">
        <ele>181</ele>
        <time>2016-03-14T15:20:51Z</time>
      </trkpt>
      <trkpt lat="48.31501" lon="-2.92576">
        <ele>181</ele>
        <time>2016-03-14T15:20:52Z</time>
      </trkpt>
      <trkpt lat="48.31501" lon="-2.92574">
        <ele>181</ele>
        <time>2016-03-14T15:20:53Z</time>
      </trkpt>
      <trkpt lat="48.31501" lon="-2.92571">
        <ele>181</ele>
        <time>2016-03-14T15:20:55Z</time>
      </trkpt>
      <trkpt lat="48.31501" lon="-2.92568">
        <ele>181</ele>
        <time>2016-03-14T15:20:57Z</time>
      </trkpt>
      <trkpt lat="48.315" lon="-2.92566">
        <ele>181</ele>
        <time>2016-03-14T15:20:58Z</time>
      </trkpt>
      <trkpt lat="48.315" lon="-2.92565">
        <ele>181</ele>
        <time>2016-03-14T15:20:59Z</time>
      </trkpt>
      <trkpt lat="48.315" lon="-2.92563">
        <ele>181</ele>
        <time>2016-03-14T15:21:00Z</time>
      </trkpt>
      <trkpt lat="48.31499" lon="-2.9256">
        <ele>181</ele>
        <time>2016-03-14T15:21:02Z</time>
      </trkpt>
      <trkpt lat="48.31499" lon="-2.92558">
        <ele>181</ele>
        <time>2016-03-14T15:21:03Z</time>
      </trkpt>
      <trkpt lat="48.31499" lon="-2.92555">
        <ele>181</ele>
        <time>2016-03-14T15:21:05Z</time>
      </trkpt>
      <trkpt lat="48.31499" lon="-2.92553">
        <ele>181</ele>
        <time>2016-03-14T15:21:06Z</time>
      </trkpt>
      <trkpt lat="48.31498" lon="-2.92552">
        <ele>181</ele>
        <time>2016-03-14T15:21:07Z</time>
      </trkpt>
      <trkpt lat="48.31498" lon="-2.92549">
        <ele>181</ele>
        <time>2016-03-14T15:21:09Z</time>
      </trkpt>
      <trkpt lat="48.31498" lon="-2.92547">
        <ele>181</ele>
        <time>2016-03-14T15:21:10Z</time>
      </trkpt>
      <trkpt lat="48.31498" lon="-2.92546">
        <ele>181</ele>
        <time>2016-03-14T15:21:11Z</time>
      </trkpt>
      <trkpt lat="48.31498" lon="-2.92543">
        <ele>181</ele>
        <time>2016-03-14T15:21:13Z</time>
      </trkpt>
      <trkpt lat="48.31497" lon="-2.92541">
        <ele>181</ele>
        <time>2016-03-14T15:21:14Z</time>
      </trkpt>
      <trkpt lat="48.31497" lon="-2.92539">
        <ele>181</ele>
        <time>2016-03-14T15:21:15Z</time>
      </trkpt>
      <trkpt lat="48.31496" lon="-2.92535">
        <ele>181</ele>
        <time>2016-03-14T15:21:17Z</time>
      </trkpt>
      <trkpt lat="48.31496" lon="-2.92533">
        <ele>181</ele>
        <time>2016-03-14T15:21:18Z</time>
      </trkpt>
      <trkpt lat="48.31496" lon="-2.92531">
        <ele>181</ele>
        <time>2016-03-14T15:21:19Z</time>
      </trkpt>
      <trkpt lat="48.31496" lon="-2.92529">
        <ele>181</ele>
        <time>2016-03-14T15:21:20Z</time>
      </trkpt>
      <trkpt lat="48.31496" lon="-2.92528">
        <ele>181</ele>
        <time>2016-03-14T15:21:21Z</time>
      </trkpt>
      <trkpt lat="48.31495" lon="-2.92526">
        <ele>181</ele>
        <time>2016-03-14T15:21:22Z</time>
      </trkpt>
      <trkpt lat="48.31495" lon="-2.92524">
        <ele>181</ele>
        <time>2016-03-14T15:21:23Z</time>
      </trkpt>
      <trkpt lat="48.31495" lon="-2.92522">
        <ele>181</ele>
        <time>2016-03-14T15:21:24Z</time>
      </trkpt>
      <trkpt lat="48.31495" lon="-2.9252">
        <ele>181</ele>
        <time>2016-03-14T15:21:25Z</time>
      </trkpt>
      <trkpt lat="48.31495" lon="-2.92518">
        <ele>181</ele>
        <time>2016-03-14T15:21:26Z</time>
      </trkpt>
      <trkpt lat="48.31494" lon="-2.92516">
        <ele>181</ele>
        <time>2016-03-14T15:21:27Z</time>
      </trkpt>
      <trkpt lat="48.31494" lon="-2.92514">
        <ele>181</ele>
        <time>2016-03-14T15:21:28Z</time>
      </trkpt>
      <trkpt lat="48.31493" lon="-2.92512">
        <ele>181</ele>
        <time>2016-03-14T15:21:29Z</time>
      </trkpt>
      <trkpt lat="48.31493" lon="-2.92511">
        <ele>181</ele>
        <time>2016-03-14T15:21:30Z</time>
      </trkpt>
      <trkpt lat="48.31493" lon="-2.92509">
        <ele>181</ele>
        <time>2016-03-14T15:21:31Z</time>
      </trkpt>
      <trkpt lat="48.31493" lon="-2.92507">
        <ele>181</ele>
        <time>2016-03-14T15:21:32Z</time>
      </trkpt>
      <trkpt lat="48.31493" lon="-2.92505">
        <ele>181</ele>
        <time>2016-03-14T15:21:33Z</time>
      </trkpt>
      <trkpt lat="48.31492" lon="-2.92503">
        <ele>181</ele>
        <time>2016-03-14T15:21:34Z</time>
      </trkpt>
      <trkpt lat="48.31492" lon="-2.92501">
        <ele>181</ele>
        <time>2016-03-14T15:21:35Z</time>
      </trkpt>
      <trkpt lat="48.31492" lon="-2.92499">
        <ele>181</ele>
        <time>2016-03-14T15:21:36Z</time>
      </trkpt>
      <trkpt lat="48.31491" lon="-2.92497">
        <ele>181</ele>
        <time>2016-03-14T15:21:37Z</time>
      </trkpt>
      <trkpt lat="48.31491" lon="-2.92495">
        <ele>181</ele>
        <time>2016-03-14T15:21:38Z</time>
      </trkpt>
      <trkpt lat="48.31491" lon="-2.92493">
        <ele>181</ele>
        <time>2016-03-14T15:21:39Z</time>
      </trkpt>
      <trkpt lat="48.31491" lon="-2.92492">
        <ele>181</ele>
        <time>2016-03-14T15:21:40Z</time>
      </trkpt>
      <trkpt lat="48.3149" lon="-2.9249">
        <ele>181</ele>
        <time>2016-03-14T15:21:41Z</time>
      </trkpt>
      <trkpt lat="48.3149" lon="-2.92488">
        <ele>181</ele>
        <time>2016-03-14T15:21:42Z</time>
      </trkpt>
      <trkpt lat="48.3149" lon="-2.92486">
        <ele>181</ele>
        <time>2016-03-14T15:21:43Z</time>
      </trkpt>
      <trkpt lat="48.3149" lon="-2.92484">
        <ele>181</ele>
        <time>2016-03-14T15:21:44Z</time>
      </trkpt>
      <trkpt lat="48.3149" lon="-2.92482">
        <ele>181</ele>
        <time>2016-03-14T15:21:45Z</time>
      </trkpt>
      <trkpt lat="48.3149" lon="-2.92481">
        <ele>181</ele>
        <time>2016-03-14T15:21:46Z</time>
      </trkpt>
      <trkpt lat="48.3149" lon="-2.92479">
        <ele>181</ele>
        <time>2016-03-14T15:21:47Z</time>
      </trkpt>
      <trkpt lat="48.3149" lon="-2.92477">
        <ele>181</ele>
        <time>2016-03-14T15:21:48Z</time>
      </trkpt>
      <trkpt lat="48.31489" lon="-2.92476">
        <ele>181</ele>
        <time>2016-03-14T15:21:49Z</time>
      </trkpt>
      <trkpt lat="48.31489" lon="-2.92474">
        <ele>181</ele>
        <time>2016-03-14T15:21:50Z</time>
      </trkpt>
      <trkpt lat="48.31489" lon="-2.92471">
        <ele>181</ele>
        <time>2016-03-14T15:21:52Z</time>
      </trkpt>
      <trkpt lat="48.31489" lon="-2.92469">
        <ele>181</ele>
        <time>2016-03-14T15:21:53Z</time>
      </trkpt>
      <trkpt lat="48.31489" lon="-2.92467">
        <ele>181</ele>
        <time>2016-03-14T15:21:54Z</time>
      </trkpt>
      <trkpt lat="48.31489" lon="-2.92465">
        <ele>181</ele>
        <time>2016-03-14T15:21:55Z</time>
      </trkpt>
      <trkpt lat="48.31489" lon="-2.92463">
        <ele>181</ele>
        <time>2016-03-14T15:21:56Z</time>
      </trkpt>
      <trkpt lat="48.31489" lon="-2.92461">
        <ele>181</ele>
        <time>2016-03-14T15:21:57Z</time>
      </trkpt>
      <trkpt lat="48.31488" lon="-2.9246">
        <ele>181</ele>
        <time>2016-03-14T15:21:58Z</time>
      </trkpt>
      <trkpt lat="48.31488" lon="-2.92458">
        <ele>181</ele>
        <time>2016-03-14T15:21:59Z</time>
      </trkpt>
      <trkpt lat="48.31488" lon="-2.92456">
        <ele>181</ele>
        <time>2016-03-14T15:22:00Z</time>
      </trkpt>
      <trkpt lat="48.31488" lon="-2.92454">
        <ele>181</ele>
        <time>2016-03-14T15:22:01Z</time>
      </trkpt>
      <trkpt lat="48.31488" lon="-2.92452">
        <ele>181</ele>
        <time>2016-03-14T15:22:02Z</time>
      </trkpt>
      <trkpt lat="48.31488" lon="-2.9245">
        <ele>181</ele>
        <time>2016-03-14T15:22:03Z</time>
      </trkpt>
      <trkpt lat="48.31488" lon="-2.92448">
        <ele>181</ele>
        <time>2016-03-14T15:22:04Z</time>
      </trkpt>
      <trkpt lat="48.31488" lon="-2.92446">
        <ele>181</ele>
        <time>2016-03-14T15:22:05Z</time>
      </trkpt>
      <trkpt lat="48.31488" lon="-2.92444">
        <ele>181</ele>
        <time>2016-03-14T15:22:06Z</time>
      </trkpt>
      <trkpt lat="48.31488" lon="-2.92443">
        <ele>181</ele>
        <time>2016-03-14T15:22:07Z</time>
      </trkpt>
      <trkpt lat="48.31488" lon="-2.92441">
        <ele>181</ele>
        <time>2016-03-14T15:22:08Z</time>
      </trkpt>
      <trkpt lat="48.31487" lon="-2.92439">
        <ele>181</ele>
        <time>2016-03-14T15:22:09Z</time>
      </trkpt>
      <trkpt lat="48.31487" lon="-2.92437">
        <ele>181</ele>
        <time>2016-03-14T15:22:10Z</time>
      </trkpt>
      <trkpt lat="48.31487" lon="-2.92435">
        <ele>181</ele>
        <time>2016-03-14T15:22:11Z</time>
      </trkpt>
      <trkpt lat="48.31487" lon="-2.92434">
        <ele>181</ele>
        <time>2016-03-14T15:22:12Z</time>
      </trkpt>
      <trkpt lat="48.31487" lon="-2.92431">
        <ele>181</ele>
        <time>2016-03-14T15:22:13Z</time>
      </trkpt>
      <trkpt lat="48.31487" lon="-2.9243">
        <ele>181</ele>
        <time>2016-03-14T15:22:14Z</time>
      </trkpt>
      <trkpt lat="48.31487" lon="-2.92428">
        <ele>181</ele>
        <time>2016-03-14T15:22:15Z</time>
      </trkpt>
      <trkpt lat="48.31487" lon="-2.92426">
        <ele>181</ele>
        <time>2016-03-14T15:22:16Z</time>
      </trkpt>
      <trkpt lat="48.31486" lon="-2.92425">
        <ele>181</ele>
        <time>2016-03-14T15:22:17Z</time>
      </trkpt>
      <trkpt lat="48.31486" lon="-2.92423">
        <ele>181</ele>
        <time>2016-03-14T15:22:18Z</time>
      </trkpt>
      <trkpt lat="48.31486" lon="-2.92421">
        <ele>181</ele>
        <time>2016-03-14T15:22:19Z</time>
      </trkpt>
      <trkpt lat="48.31486" lon="-2.92419">
        <ele>181</ele>
        <time>2016-03-14T15:22:20Z</time>
      </trkpt>
      <trkpt lat="48.31485" lon="-2.92417">
        <ele>181</ele>
        <time>2016-03-14T15:22:21Z</time>
      </trkpt>
      <trkpt lat="48.31485" lon="-2.92415">
        <ele>181</ele>
        <time>2016-03-14T15:22:22Z</time>
      </trkpt>
      <trkpt lat="48.31485" lon="-2.92414">
        <ele>181</ele>
        <time>2016-03-14T15:22:23Z</time>
      </trkpt>
      <trkpt lat="48.31485" lon="-2.92412">
        <ele>181</ele>
        <time>2016-03-14T15:22:24Z</time>
      </trkpt>
      <trkpt lat="48.31484" lon="-2.9241">
        <ele>181</ele>
        <time>2016-03-14T15:22:25Z</time>
      </trkpt>
      <trkpt lat="48.31483" lon="-2.92407">
        <ele>181</ele>
        <time>2016-03-14T15:22:27Z</time>
      </trkpt>
      <trkpt lat="48.31482" lon="-2.92404">
        <ele>181</ele>
        <time>2016-03-14T15:22:29Z</time>
      </trkpt>
      <trkpt lat="48.31482" lon="-2.92401">
        <ele>181</ele>
        <time>2016-03-14T15:22:31Z</time>
      </trkpt>
      <trkpt lat="48.31481" lon="-2.92399">
        <ele>181</ele>
        <time>2016-03-14T15:22:32Z</time>
      </trkpt>
      <trkpt lat="48.3148" lon="-2.92396">
        <ele>181</ele>
        <time>2016-03-14T15:22:34Z</time>
      </trkpt>
      <trkpt lat="48.31479" lon="-2.92394">
        <ele>181</ele>
        <time>2016-03-14T15:22:36Z</time>
      </trkpt>
      <trkpt lat="48.31478" lon="-2.92391">
        <ele>181</ele>
        <time>2016-03-14T15:22:38Z</time>
      </trkpt>
      <trkpt lat="48.31477" lon="-2.92389">
        <ele>181</ele>
        <time>2016-03-14T15:22:40Z</time>
      </trkpt>
      <trkpt lat="48.31477" lon="-2.92388">
        <ele>181</ele>
        <time>2016-03-14T15:22:42Z</time>
      </trkpt>
      <trkpt lat="48.31476" lon="-2.92386">
        <ele>181</ele>
        <time>2016-03-14T15:22:45Z</time>
      </trkpt>
      <trkpt lat="48.31475" lon="-2.92383">
        <ele>181</ele>
        <time>2016-03-14T15:22:48Z</time>
      </trkpt>
      <trkpt lat="48.31475" lon="-2.92381">
        <ele>181</ele>
        <time>2016-03-14T15:22:50Z</time>
      </trkpt>
      <trkpt lat="48.31474" lon="-2.92378">
        <ele>181</ele>
        <time>2016-03-14T15:22:52Z</time>
      </trkpt>
      <trkpt lat="48.31474" lon="-2.92376">
        <ele>181</ele>
        <time>2016-03-14T15:22:54Z</time>
      </trkpt>
      <trkpt lat="48.31474" lon="-2.92373">
        <ele>181</ele>
        <time>2016-03-14T15:22:56Z</time>
      </trkpt>
      <trkpt lat="48.31474" lon="-2.92371">
        <ele>181</ele>
        <time>2016-03-14T15:22:57Z</time>
      </trkpt>
      <trkpt lat="48.31476" lon="-2.92369">
        <ele>181</ele>
        <time>2016-03-14T15:22:59Z</time>
      </trkpt>
      <trkpt lat="48.31477" lon="-2.92367">
        <ele>181</ele>
        <time>2016-03-14T15:23:01Z</time>
      </trkpt>
      <trkpt lat="48.31479" lon="-2.92366">
        <ele>181</ele>
        <time>2016-03-14T15:23:03Z</time>
      </trkpt>
      <trkpt lat="48.31481" lon="-2.92365">
        <ele>181</ele>
        <time>2016-03-14T15:23:05Z</time>
      </trkpt>
      <trkpt lat="48.31483" lon="-2.92364">
        <ele>181</ele>
        <time>2016-03-14T15:23:07Z</time>
      </trkpt>
      <trkpt lat="48.31485" lon="-2.92364">
        <ele>181</ele>
        <time>2016-03-14T15:23:09Z</time>
      </trkpt>
      <trkpt lat="48.31487" lon="-2.92364">
        <ele>181</ele>
        <time>2016-03-14T15:23:11Z</time>
      </trkpt>
      <trkpt lat="48.31488" lon="-2.92363">
        <ele>181</ele>
        <time>2016-03-14T15:23:12Z</time>
      </trkpt>
      <trkpt lat="48.3149" lon="-2.92363">
        <ele>181</ele>
        <time>2016-03-14T15:23:14Z</time>
      </trkpt>
      <trkpt lat="48.31491" lon="-2.92363">
        <ele>181</ele>
        <time>2016-03-14T15:23:15Z</time>
      </trkpt>
      <trkpt lat="48.31493" lon="-2.92363">
        <ele>181</ele>
        <time>2016-03-14T15:23:17Z</time>
      </trkpt>
      <trkpt lat="48.31495" lon="-2.92363">
        <ele>181</ele>
        <time>2016-03-14T15:23:19Z</time>
      </trkpt>
      <trkpt lat="48.31497" lon="-2.92362">
        <ele>181</ele>
        <time>2016-03-14T15:23:21Z</time>
      </trkpt>
      <trkpt lat="48.31499" lon="-2.92362">
        <ele>181</ele>
        <time>2016-03-14T15:23:23Z</time>
      </trkpt>
      <trkpt lat="48.31501" lon="-2.92362">
        <ele>181</ele>
        <time>2016-03-14T15:23:25Z</time>
      </trkpt>
      <trkpt lat="48.31502" lon="-2.92362">
        <ele>181</ele>
        <time>2016-03-14T15:23:26Z</time>
      </trkpt>
      <trkpt lat="48.31503" lon="-2.92361">
        <ele>181</ele>
        <time>2016-03-14T15:23:27Z</time>
      </trkpt>
      <trkpt lat="48.31505" lon="-2.92361">
        <ele>181</ele>
        <time>2016-03-14T15:23:29Z</time>
      </trkpt>
      <trkpt lat="48.31507" lon="-2.92361">
        <ele>181</ele>
        <time>2016-03-14T15:23:31Z</time>
      </trkpt>
      <trkpt lat="48.31508" lon="-2.92361">
        <ele>181</ele>
        <time>2016-03-14T15:23:32Z</time>
      </trkpt>
      <trkpt lat="48.3151" lon="-2.92361">
        <ele>181</ele>
        <time>2016-03-14T15:23:34Z</time>
      </trkpt>
      <trkpt lat="48.31511" lon="-2.92361">
        <ele>181</ele>
        <time>2016-03-14T15:23:35Z</time>
      </trkpt>
      <trkpt lat="48.31512" lon="-2.92361">
        <ele>181</ele>
        <time>2016-03-14T15:23:36Z</time>
      </trkpt>
      <trkpt lat="48.31514" lon="-2.9236">
        <ele>181</ele>
        <time>2016-03-14T15:23:38Z</time>
      </trkpt>
      <trkpt lat="48.31517" lon="-2.9236">
        <ele>181</ele>
        <time>2016-03-14T15:23:40Z</time>
      </trkpt>
      <trkpt lat="48.31519" lon="-2.9236">
        <ele>181</ele>
        <time>2016-03-14T15:23:42Z</time>
      </trkpt>
      <trkpt lat="48.31521" lon="-2.9236">
        <ele>181</ele>
        <time>2016-03-14T15:23:44Z</time>
      </trkpt>
      <trkpt lat="48.31522" lon="-2.9236">
        <ele>181</ele>
        <time>2016-03-14T15:23:45Z</time>
      </trkpt>
      <trkpt lat="48.31524" lon="-2.9236">
        <ele>181</ele>
        <time>2016-03-14T15:23:47Z</time>
      </trkpt>
      <trkpt lat="48.31526" lon="-2.92359">
        <ele>181</ele>
        <time>2016-03-14T15:23:49Z</time>
      </trkpt>
      <trkpt lat="48.31528" lon="-2.92359">
        <ele>181</ele>
        <time>2016-03-14T15:23:51Z</time>
      </trkpt>
      <trkpt lat="48.3153" lon="-2.92359">
        <ele>181</ele>
        <time>2016-03-14T15:23:53Z</time>
      </trkpt>
      <trkpt lat="48.31531" lon="-2.92358">
        <ele>181</ele>
        <time>2016-03-14T15:23:54Z</time>
      </trkpt>
      <trkpt lat="48.31533" lon="-2.92358">
        <ele>181</ele>
        <time>2016-03-14T15:23:55Z</time>
      </trkpt>
      <trkpt lat="48.31534" lon="-2.92358">
        <ele>181</ele>
        <time>2016-03-14T15:23:57Z</time>
      </trkpt>
      <trkpt lat="48.31535" lon="-2.92358">
        <ele>181</ele>
        <time>2016-03-14T15:23:58Z</time>
      </trkpt>
      <trkpt lat="48.31537" lon="-2.92358">
        <ele>181</ele>
        <time>2016-03-14T15:23:59Z</time>
      </trkpt>
      <trkpt lat="48.31539" lon="-2.92357">
        <ele>181</ele>
        <time>2016-03-14T15:24:01Z</time>
      </trkpt>
      <trkpt lat="48.3154" lon="-2.92357">
        <ele>181</ele>
        <time>2016-03-14T15:24:02Z</time>
      </trkpt>
      <trkpt lat="48.31542" lon="-2.92356">
        <ele>181</ele>
        <time>2016-03-14T15:24:04Z</time>
      </trkpt>
      <trkpt lat="48.31544" lon="-2.92356">
        <ele>181</ele>
        <time>2016-03-14T15:24:06Z</time>
      </trkpt>
      <trkpt lat="48.31545" lon="-2.92355">
        <ele>181</ele>
        <time>2016-03-14T15:24:07Z</time>
      </trkpt>
      <trkpt lat="48.31547" lon="-2.92354">
        <ele>181</ele>
        <time>2016-03-14T15:24:09Z</time>
      </trkpt>
      <trkpt lat="48.31549" lon="-2.92353">
        <ele>181</ele>
        <time>2016-03-14T15:24:11Z</time>
      </trkpt>
      <trkpt lat="48.3155" lon="-2.92351">
        <ele>181</ele>
        <time>2016-03-14T15:24:13Z</time>
      </trkpt>
      <trkpt lat="48.31552" lon="-2.92349">
        <ele>181</ele>
        <time>2016-03-14T15:24:15Z</time>
      </trkpt>
      <trkpt lat="48.31554" lon="-2.92347">
        <ele>181</ele>
        <time>2016-03-14T15:24:17Z</time>
      </trkpt>
      <trkpt lat="48.31555" lon="-2.92345">
        <ele>181</ele>
        <time>2016-03-14T15:24:19Z</time>
      </trkpt>
      <trkpt lat="48.31556" lon="-2.92343">
        <ele>181</ele>
        <time>2016-03-14T15:24:21Z</time>
      </trkpt>
      <trkpt lat="48.31557" lon="-2.92341">
        <ele>181</ele>
        <time>2016-03-14T15:24:23Z</time>
      </trkpt>
      <trkpt lat="48.31559" lon="-2.92339">
        <ele>182</ele>
        <time>2016-03-14T15:24:25Z</time>
      </trkpt>
      <trkpt lat="48.31559" lon="-2.92337">
        <ele>182</ele>
        <time>2016-03-14T15:24:27Z</time>
      </trkpt>
      <trkpt lat="48.31561" lon="-2.92334">
        <ele>182</ele>
        <time>2016-03-14T15:24:29Z</time>
      </trkpt>
      <trkpt lat="48.31561" lon="-2.92331">
        <ele>182</ele>
        <time>2016-03-14T15:24:31Z</time>
      </trkpt>
      <trkpt lat="48.31562" lon="-2.92328">
        <ele>182</ele>
        <time>2016-03-14T15:24:33Z</time>
      </trkpt>
      <trkpt lat="48.31563" lon="-2.92325">
        <ele>182</ele>
        <time>2016-03-14T15:24:35Z</time>
      </trkpt>
      <trkpt lat="48.31564" lon="-2.92324">
        <ele>182</ele>
        <time>2016-03-14T15:24:36Z</time>
      </trkpt>
      <trkpt lat="48.31564" lon="-2.92322">
        <ele>182</ele>
        <time>2016-03-14T15:24:37Z</time>
      </trkpt>
      <trkpt lat="48.31565" lon="-2.92319">
        <ele>182</ele>
        <time>2016-03-14T15:24:39Z</time>
      </trkpt>
      <trkpt lat="48.31566" lon="-2.92317">
        <ele>183</ele>
        <time>2016-03-14T15:24:41Z</time>
      </trkpt>
      <trkpt lat="48.31567" lon="-2.92314">
        <ele>183</ele>
        <time>2016-03-14T15:24:43Z</time>
      </trkpt>
      <trkpt lat="48.31568" lon="-2.92311">
        <ele>183</ele>
        <time>2016-03-14T15:24:45Z</time>
      </trkpt>
      <trkpt lat="48.31569" lon="-2.92308">
        <ele>183</ele>
        <time>2016-03-14T15:24:47Z</time>
      </trkpt>
      <trkpt lat="48.3157" lon="-2.92306">
        <ele>183</ele>
        <time>2016-03-14T15:24:49Z</time>
      </trkpt>
      <trkpt lat="48.3157" lon="-2.92304">
        <ele>183</ele>
        <time>2016-03-14T15:24:50Z</time>
      </trkpt>
      <trkpt lat="48.31571" lon="-2.92302">
        <ele>183</ele>
        <time>2016-03-14T15:24:51Z</time>
      </trkpt>
      <trkpt lat="48.31572" lon="-2.923">
        <ele>183</ele>
        <time>2016-03-14T15:24:53Z</time>
      </trkpt>
      <trkpt lat="48.31573" lon="-2.92297">
        <ele>183</ele>
        <time>2016-03-14T15:24:55Z</time>
      </trkpt>
      <trkpt lat="48.31574" lon="-2.92294">
        <ele>183</ele>
        <time>2016-03-14T15:24:57Z</time>
      </trkpt>
      <trkpt lat="48.31575" lon="-2.92291">
        <ele>183</ele>
        <time>2016-03-14T15:24:59Z</time>
      </trkpt>
      <trkpt lat="48.31576" lon="-2.92289">
        <ele>183</ele>
        <time>2016-03-14T15:25:00Z</time>
      </trkpt>
      <trkpt lat="48.31577" lon="-2.92286">
        <ele>184</ele>
        <time>2016-03-14T15:25:02Z</time>
      </trkpt>
      <trkpt lat="48.31578" lon="-2.92284">
        <ele>184</ele>
        <time>2016-03-14T15:25:04Z</time>
      </trkpt>
      <trkpt lat="48.3158" lon="-2.92281">
        <ele>184</ele>
        <time>2016-03-14T15:25:06Z</time>
      </trkpt>
      <trkpt lat="48.3158" lon="-2.92278">
        <ele>184</ele>
        <time>2016-03-14T15:25:08Z</time>
      </trkpt>
      <trkpt lat="48.31581" lon="-2.92276">
        <ele>185</ele>
        <time>2016-03-14T15:25:10Z</time>
      </trkpt>
      <trkpt lat="48.31582" lon="-2.92273">
        <ele>185</ele>
        <time>2016-03-14T15:25:12Z</time>
      </trkpt>
      <trkpt lat="48.31583" lon="-2.9227">
        <ele>185</ele>
        <time>2016-03-14T15:25:14Z</time>
      </trkpt>
      <trkpt lat="48.31584" lon="-2.92268">
        <ele>185</ele>
        <time>2016-03-14T15:25:16Z</time>
      </trkpt>
      <trkpt lat="48.31585" lon="-2.92266">
        <ele>185</ele>
        <time>2016-03-14T15:25:18Z</time>
      </trkpt>
      <trkpt lat="48.31586" lon="-2.92263">
        <ele>185</ele>
        <time>2016-03-14T15:25:20Z</time>
      </trkpt>
      <trkpt lat="48.31588" lon="-2.9226">
        <ele>185</ele>
        <time>2016-03-14T15:25:22Z</time>
      </trkpt>
      <trkpt lat="48.31588" lon="-2.92257">
        <ele>186</ele>
        <time>2016-03-14T15:25:24Z</time>
      </trkpt>
      <trkpt lat="48.31589" lon="-2.92255">
        <ele>186</ele>
        <time>2016-03-14T15:25:25Z</time>
      </trkpt>
      <trkpt lat="48.3159" lon="-2.92254">
        <ele>186</ele>
        <time>2016-03-14T15:25:26Z</time>
      </trkpt>
      <trkpt lat="48.3159" lon="-2.92252">
        <ele>186</ele>
        <time>2016-03-14T15:25:27Z</time>
      </trkpt>
      <trkpt lat="48.31591" lon="-2.92249">
        <ele>186</ele>
        <time>2016-03-14T15:25:29Z</time>
      </trkpt>
      <trkpt lat="48.31591" lon="-2.92248">
        <ele>186</ele>
        <time>2016-03-14T15:25:30Z</time>
      </trkpt>
      <trkpt lat="48.31592" lon="-2.92246">
        <ele>186</ele>
        <time>2016-03-14T15:25:31Z</time>
      </trkpt>
      <trkpt lat="48.31592" lon="-2.92243">
        <ele>186</ele>
        <time>2016-03-14T15:25:33Z</time>
      </trkpt>
      <trkpt lat="48.31593" lon="-2.9224">
        <ele>186</ele>
        <time>2016-03-14T15:25:35Z</time>
      </trkpt>
      <trkpt lat="48.31593" lon="-2.92238">
        <ele>186</ele>
        <time>2016-03-14T15:25:36Z</time>
      </trkpt>
      <trkpt lat="48.31594" lon="-2.92236">
        <ele>186</ele>
        <time>2016-03-14T15:25:37Z</time>
      </trkpt>
      <trkpt lat="48.31594" lon="-2.92235">
        <ele>186</ele>
        <time>2016-03-14T15:25:38Z</time>
      </trkpt>
      <trkpt lat="48.31595" lon="-2.92232">
        <ele>186</ele>
        <time>2016-03-14T15:25:40Z</time>
      </trkpt>
      <trkpt lat="48.31595" lon="-2.9223">
        <ele>186</ele>
        <time>2016-03-14T15:25:41Z</time>
      </trkpt>
      <trkpt lat="48.31595" lon="-2.92229">
        <ele>186</ele>
        <time>2016-03-14T15:25:42Z</time>
      </trkpt>
      <trkpt lat="48.31596" lon="-2.92227">
        <ele>186</ele>
        <time>2016-03-14T15:25:43Z</time>
      </trkpt>
      <trkpt lat="48.31596" lon="-2.92224">
        <ele>186</ele>
        <time>2016-03-14T15:25:45Z</time>
      </trkpt>
      <trkpt lat="48.31596" lon="-2.92222">
        <ele>186</ele>
        <time>2016-03-14T15:25:46Z</time>
      </trkpt>
      <trkpt lat="48.31596" lon="-2.9222">
        <ele>186</ele>
        <time>2016-03-14T15:25:47Z</time>
      </trkpt>
      <trkpt lat="48.31596" lon="-2.92218">
        <ele>186</ele>
        <time>2016-03-14T15:25:48Z</time>
      </trkpt>
      <trkpt lat="48.31596" lon="-2.92217">
        <ele>187</ele>
        <time>2016-03-14T15:25:49Z</time>
      </trkpt>
      <trkpt lat="48.31597" lon="-2.92213">
        <ele>187</ele>
        <time>2016-03-14T15:25:51Z</time>
      </trkpt>
      <trkpt lat="48.31597" lon="-2.92212">
        <ele>187</ele>
        <time>2016-03-14T15:25:52Z</time>
      </trkpt>
      <trkpt lat="48.31597" lon="-2.9221">
        <ele>187</ele>
        <time>2016-03-14T15:25:53Z</time>
      </trkpt>
      <trkpt lat="48.31597" lon="-2.92208">
        <ele>187</ele>
        <time>2016-03-14T15:25:54Z</time>
      </trkpt>
      <trkpt lat="48.31597" lon="-2.92207">
        <ele>187</ele>
        <time>2016-03-14T15:25:55Z</time>
      </trkpt>
      <trkpt lat="48.31597" lon="-2.92205">
        <ele>187</ele>
        <time>2016-03-14T15:25:56Z</time>
      </trkpt>
      <trkpt lat="48.31598" lon="-2.92203">
        <ele>187</ele>
        <time>2016-03-14T15:25:57Z</time>
      </trkpt>
      <trkpt lat="48.31598" lon="-2.92201">
        <ele>187</ele>
        <time>2016-03-14T15:25:58Z</time>
      </trkpt>
      <trkpt lat="48.31598" lon="-2.92199">
        <ele>187</ele>
        <time>2016-03-14T15:25:59Z</time>
      </trkpt>
      <trkpt lat="48.31598" lon="-2.92198">
        <ele>187</ele>
        <time>2016-03-14T15:26:00Z</time>
      </trkpt>
      <trkpt lat="48.31598" lon="-2.92196">
        <ele>187</ele>
        <time>2016-03-14T15:26:01Z</time>
      </trkpt>
      <trkpt lat="48.31598" lon="-2.92194">
        <ele>187</ele>
        <time>2016-03-14T15:26:02Z</time>
      </trkpt>
      <trkpt lat="48.31598" lon="-2.92193">
        <ele>187</ele>
        <time>2016-03-14T15:26:03Z</time>
      </trkpt>
      <trkpt lat="48.31598" lon="-2.92191">
        <ele>187</ele>
        <time>2016-03-14T15:26:04Z</time>
      </trkpt>
      <trkpt lat="48.31598" lon="-2.92189">
        <ele>187</ele>
        <time>2016-03-14T15:26:05Z</time>
      </trkpt>
      <trkpt lat="48.31598" lon="-2.92187">
        <ele>187</ele>
        <time>2016-03-14T15:26:06Z</time>
      </trkpt>
      <trkpt lat="48.31598" lon="-2.92186">
        <ele>187</ele>
        <time>2016-03-14T15:26:07Z</time>
      </trkpt>
      <trkpt lat="48.31599" lon="-2.92184">
        <ele>187</ele>
        <time>2016-03-14T15:26:08Z</time>
      </trkpt>
      <trkpt lat="48.31599" lon="-2.92182">
        <ele>187</ele>
        <time>2016-03-14T15:26:09Z</time>
      </trkpt>
      <trkpt lat="48.31599" lon="-2.9218">
        <ele>187</ele>
        <time>2016-03-14T15:26:10Z</time>
      </trkpt>
      <trkpt lat="48.31599" lon="-2.92178">
        <ele>187</ele>
        <time>2016-03-14T15:26:11Z</time>
      </trkpt>
      <trkpt lat="48.31599" lon="-2.92177">
        <ele>187</ele>
        <time>2016-03-14T15:26:12Z</time>
      </trkpt>
      <trkpt lat="48.31599" lon="-2.92175">
        <ele>187</ele>
        <time>2016-03-14T15:26:13Z</time>
      </trkpt>
      <trkpt lat="48.31599" lon="-2.92173">
        <ele>187</ele>
        <time>2016-03-14T15:26:14Z</time>
      </trkpt>
      <trkpt lat="48.31599" lon="-2.92172">
        <ele>187</ele>
        <time>2016-03-14T15:26:15Z</time>
      </trkpt>
      <trkpt lat="48.31599" lon="-2.9217">
        <ele>187</ele>
        <time>2016-03-14T15:26:16Z</time>
      </trkpt>
      <trkpt lat="48.31599" lon="-2.92168">
        <ele>187</ele>
        <time>2016-03-14T15:26:17Z</time>
      </trkpt>
      <trkpt lat="48.31599" lon="-2.92166">
        <ele>187</ele>
        <time>2016-03-14T15:26:18Z</time>
      </trkpt>
      <trkpt lat="48.31599" lon="-2.92164">
        <ele>187</ele>
        <time>2016-03-14T15:26:19Z</time>
      </trkpt>
      <trkpt lat="48.31599" lon="-2.92163">
        <ele>187</ele>
        <time>2016-03-14T15:26:20Z</time>
      </trkpt>
      <trkpt lat="48.31599" lon="-2.92161">
        <ele>187</ele>
        <time>2016-03-14T15:26:21Z</time>
      </trkpt>
      <trkpt lat="48.31599" lon="-2.92159">
        <ele>188</ele>
        <time>2016-03-14T15:26:22Z</time>
      </trkpt>
      <trkpt lat="48.31599" lon="-2.92157">
        <ele>188</ele>
        <time>2016-03-14T15:26:23Z</time>
      </trkpt>
      <trkpt lat="48.31599" lon="-2.92156">
        <ele>188</ele>
        <time>2016-03-14T15:26:24Z</time>
      </trkpt>
      <trkpt lat="48.316" lon="-2.92154">
        <ele>188</ele>
        <time>2016-03-14T15:26:25Z</time>
      </trkpt>
      <trkpt lat="48.316" lon="-2.92152">
        <ele>188</ele>
        <time>2016-03-14T15:26:26Z</time>
      </trkpt>
      <trkpt lat="48.316" lon="-2.9215">
        <ele>188</ele>
        <time>2016-03-14T15:26:27Z</time>
      </trkpt>
      <trkpt lat="48.316" lon="-2.92148">
        <ele>188</ele>
        <time>2016-03-14T15:26:28Z</time>
      </trkpt>
      <trkpt lat="48.316" lon="-2.92147">
        <ele>188</ele>
        <time>2016-03-14T15:26:29Z</time>
      </trkpt>
      <trkpt lat="48.316" lon="-2.92145">
        <ele>188</ele>
        <time>2016-03-14T15:26:30Z</time>
      </trkpt>
      <trkpt lat="48.316" lon="-2.92143">
        <ele>188</ele>
        <time>2016-03-14T15:26:31Z</time>
      </trkpt>
      <trkpt lat="48.316" lon="-2.92142">
        <ele>188</ele>
        <time>2016-03-14T15:26:32Z</time>
      </trkpt>
      <trkpt lat="48.316" lon="-2.9214">
        <ele>188</ele>
        <time>2016-03-14T15:26:33Z</time>
      </trkpt>
      <trkpt lat="48.316" lon="-2.92138">
        <ele>188</ele>
        <time>2016-03-14T15:26:34Z</time>
      </trkpt>
      <trkpt lat="48.316" lon="-2.92136">
        <ele>188</ele>
        <time>2016-03-14T15:26:35Z</time>
      </trkpt>
      <trkpt lat="48.316" lon="-2.92134">
        <ele>188</ele>
        <time>2016-03-14T15:26:36Z</time>
      </trkpt>
      <trkpt lat="48.31599" lon="-2.92132">
        <ele>188</ele>
        <time>2016-03-14T15:26:37Z</time>
      </trkpt>
      <trkpt lat="48.31599" lon="-2.92131">
        <ele>188</ele>
        <time>2016-03-14T15:26:38Z</time>
      </trkpt>
      <trkpt lat="48.31599" lon="-2.92127">
        <ele>188</ele>
        <time>2016-03-14T15:26:40Z</time>
      </trkpt>
      <trkpt lat="48.31599" lon="-2.92126">
        <ele>188</ele>
        <time>2016-03-14T15:26:41Z</time>
      </trkpt>
      <trkpt lat="48.31599" lon="-2.92124">
        <ele>188</ele>
        <time>2016-03-14T15:26:42Z</time>
      </trkpt>
      <trkpt lat="48.31599" lon="-2.92122">
        <ele>188</ele>
        <time>2016-03-14T15:26:43Z</time>
      </trkpt>
      <trkpt lat="48.31599" lon="-2.9212">
        <ele>188</ele>
        <time>2016-03-14T15:26:44Z</time>
      </trkpt>
      <trkpt lat="48.31599" lon="-2.92119">
        <ele>188</ele>
        <time>2016-03-14T15:26:45Z</time>
      </trkpt>
      <trkpt lat="48.31598" lon="-2.92115">
        <ele>188</ele>
        <time>2016-03-14T15:26:47Z</time>
      </trkpt>
      <trkpt lat="48.31598" lon="-2.92113">
        <ele>188</ele>
        <time>2016-03-14T15:26:48Z</time>
      </trkpt>
      <trkpt lat="48.31598" lon="-2.92112">
        <ele>188</ele>
        <time>2016-03-14T15:26:49Z</time>
      </trkpt>
      <trkpt lat="48.31598" lon="-2.9211">
        <ele>188</ele>
        <time>2016-03-14T15:26:50Z</time>
      </trkpt>
      <trkpt lat="48.31597" lon="-2.92107">
        <ele>188</ele>
        <time>2016-03-14T15:26:52Z</time>
      </trkpt>
      <trkpt lat="48.31597" lon="-2.92105">
        <ele>188</ele>
        <time>2016-03-14T15:26:53Z</time>
      </trkpt>
      <trkpt lat="48.31596" lon="-2.92103">
        <ele>188</ele>
        <time>2016-03-14T15:26:54Z</time>
      </trkpt>
      <trkpt lat="48.31596" lon="-2.92101">
        <ele>188</ele>
        <time>2016-03-14T15:26:55Z</time>
      </trkpt>
      <trkpt lat="48.31596" lon="-2.92099">
        <ele>188</ele>
        <time>2016-03-14T15:26:56Z</time>
      </trkpt>
      <trkpt lat="48.31596" lon="-2.92098">
        <ele>188</ele>
        <time>2016-03-14T15:26:57Z</time>
      </trkpt>
      <trkpt lat="48.31595" lon="-2.92096">
        <ele>188</ele>
        <time>2016-03-14T15:26:58Z</time>
      </trkpt>
      <trkpt lat="48.31595" lon="-2.92094">
        <ele>188</ele>
        <time>2016-03-14T15:26:59Z</time>
      </trkpt>
      <trkpt lat="48.31595" lon="-2.92093">
        <ele>188</ele>
        <time>2016-03-14T15:27:00Z</time>
      </trkpt>
      <trkpt lat="48.31594" lon="-2.92091">
        <ele>188</ele>
        <time>2016-03-14T15:27:01Z</time>
      </trkpt>
      <trkpt lat="48.31594" lon="-2.92089">
        <ele>188</ele>
        <time>2016-03-14T15:27:02Z</time>
      </trkpt>
      <trkpt lat="48.31594" lon="-2.92088">
        <ele>188</ele>
        <time>2016-03-14T15:27:03Z</time>
      </trkpt>
      <trkpt lat="48.31594" lon="-2.92086">
        <ele>188</ele>
        <time>2016-03-14T15:27:04Z</time>
      </trkpt>
      <trkpt lat="48.31593" lon="-2.92084">
        <ele>188</ele>
        <time>2016-03-14T15:27:05Z</time>
      </trkpt>
      <trkpt lat="48.31593" lon="-2.92081">
        <ele>188</ele>
        <time>2016-03-14T15:27:07Z</time>
      </trkpt>
      <trkpt lat="48.31593" lon="-2.92079">
        <ele>188</ele>
        <time>2016-03-14T15:27:08Z</time>
      </trkpt>
      <trkpt lat="48.31593" lon="-2.92077">
        <ele>188</ele>
        <time>2016-03-14T15:27:09Z</time>
      </trkpt>
      <trkpt lat="48.31592" lon="-2.92075">
        <ele>188</ele>
        <time>2016-03-14T15:27:10Z</time>
      </trkpt>
      <trkpt lat="48.31592" lon="-2.92073">
        <ele>188</ele>
        <time>2016-03-14T15:27:11Z</time>
      </trkpt>
      <trkpt lat="48.31592" lon="-2.92072">
        <ele>188</ele>
        <time>2016-03-14T15:27:12Z</time>
      </trkpt>
      <trkpt lat="48.31592" lon="-2.9207">
        <ele>188</ele>
        <time>2016-03-14T15:27:13Z</time>
      </trkpt>
      <trkpt lat="48.31591" lon="-2.92068">
        <ele>188</ele>
        <time>2016-03-14T15:27:14Z</time>
      </trkpt>
      <trkpt lat="48.31591" lon="-2.92067">
        <ele>188</ele>
        <time>2016-03-14T15:27:15Z</time>
      </trkpt>
      <trkpt lat="48.31591" lon="-2.92065">
        <ele>188</ele>
        <time>2016-03-14T15:27:16Z</time>
      </trkpt>
      <trkpt lat="48.31591" lon="-2.92063">
        <ele>188</ele>
        <time>2016-03-14T15:27:17Z</time>
      </trkpt>
      <trkpt lat="48.31591" lon="-2.92061">
        <ele>188</ele>
        <time>2016-03-14T15:27:18Z</time>
      </trkpt>
      <trkpt lat="48.31591" lon="-2.92059">
        <ele>188</ele>
        <time>2016-03-14T15:27:19Z</time>
      </trkpt>
      <trkpt lat="48.31591" lon="-2.92057">
        <ele>188</ele>
        <time>2016-03-14T15:27:20Z</time>
      </trkpt>
      <trkpt lat="48.31591" lon="-2.92056">
        <ele>189</ele>
        <time>2016-03-14T15:27:21Z</time>
      </trkpt>
      <trkpt lat="48.31591" lon="-2.92054">
        <ele>189</ele>
        <time>2016-03-14T15:27:22Z</time>
      </trkpt>
      <trkpt lat="48.3159" lon="-2.92052">
        <ele>189</ele>
        <time>2016-03-14T15:27:23Z</time>
      </trkpt>
      <trkpt lat="48.3159" lon="-2.9205">
        <ele>189</ele>
        <time>2016-03-14T15:27:24Z</time>
      </trkpt>
      <trkpt lat="48.3159" lon="-2.92048">
        <ele>189</ele>
        <time>2016-03-14T15:27:25Z</time>
      </trkpt>
      <trkpt lat="48.3159" lon="-2.92047">
        <ele>189</ele>
        <time>2016-03-14T15:27:26Z</time>
      </trkpt>
      <trkpt lat="48.3159" lon="-2.92045">
        <ele>189</ele>
        <time>2016-03-14T15:27:27Z</time>
      </trkpt>
      <trkpt lat="48.3159" lon="-2.92043">
        <ele>189</ele>
        <time>2016-03-14T15:27:28Z</time>
      </trkpt>
      <trkpt lat="48.3159" lon="-2.92041">
        <ele>189</ele>
        <time>2016-03-14T15:27:29Z</time>
      </trkpt>
      <trkpt lat="48.3159" lon="-2.92039">
        <ele>189</ele>
        <time>2016-03-14T15:27:30Z</time>
      </trkpt>
      <trkpt lat="48.3159" lon="-2.92038">
        <ele>189</ele>
        <time>2016-03-14T15:27:31Z</time>
      </trkpt>
      <trkpt lat="48.3159" lon="-2.92036">
        <ele>189</ele>
        <time>2016-03-14T15:27:32Z</time>
      </trkpt>
      <trkpt lat="48.3159" lon="-2.92034">
        <ele>189</ele>
        <time>2016-03-14T15:27:33Z</time>
      </trkpt>
      <trkpt lat="48.3159" lon="-2.92033">
        <ele>189</ele>
        <time>2016-03-14T15:27:34Z</time>
      </trkpt>
      <trkpt lat="48.3159" lon="-2.92031">
        <ele>189</ele>
        <time>2016-03-14T15:27:35Z</time>
      </trkpt>
      <trkpt lat="48.3159" lon="-2.92029">
        <ele>189</ele>
        <time>2016-03-14T15:27:36Z</time>
      </trkpt>
      <trkpt lat="48.3159" lon="-2.92027">
        <ele>189</ele>
        <time>2016-03-14T15:27:37Z</time>
      </trkpt>
      <trkpt lat="48.3159" lon="-2.92025">
        <ele>189</ele>
        <time>2016-03-14T15:27:38Z</time>
      </trkpt>
      <trkpt lat="48.3159" lon="-2.92023">
        <ele>189</ele>
        <time>2016-03-14T15:27:39Z</time>
      </trkpt>
      <trkpt lat="48.3159" lon="-2.92022">
        <ele>189</ele>
        <time>2016-03-14T15:27:40Z</time>
      </trkpt>
      <trkpt lat="48.3159" lon="-2.9202">
        <ele>189</ele>
        <time>2016-03-14T15:27:41Z</time>
      </trkpt>
      <trkpt lat="48.3159" lon="-2.92017">
        <ele>189</ele>
        <time>2016-03-14T15:27:43Z</time>
      </trkpt>
      <trkpt lat="48.31589" lon="-2.92015">
        <ele>189</ele>
        <time>2016-03-14T15:27:44Z</time>
      </trkpt>
      <trkpt lat="48.31589" lon="-2.92013">
        <ele>189</ele>
        <time>2016-03-14T15:27:45Z</time>
      </trkpt>
      <trkpt lat="48.31589" lon="-2.92011">
        <ele>189</ele>
        <time>2016-03-14T15:27:46Z</time>
      </trkpt>
      <trkpt lat="48.31589" lon="-2.92009">
        <ele>189</ele>
        <time>2016-03-14T15:27:47Z</time>
      </trkpt>
      <trkpt lat="48.31589" lon="-2.92008">
        <ele>189</ele>
        <time>2016-03-14T15:27:48Z</time>
      </trkpt>
      <trkpt lat="48.31589" lon="-2.92006">
        <ele>189</ele>
        <time>2016-03-14T15:27:49Z</time>
      </trkpt>
      <trkpt lat="48.31589" lon="-2.92004">
        <ele>189</ele>
        <time>2016-03-14T15:27:50Z</time>
      </trkpt>
      <trkpt lat="48.31589" lon="-2.92003">
        <ele>189</ele>
        <time>2016-03-14T15:27:51Z</time>
      </trkpt>
      <trkpt lat="48.31589" lon="-2.92001">
        <ele>189</ele>
        <time>2016-03-14T15:27:52Z</time>
      </trkpt>
      <trkpt lat="48.31589" lon="-2.91998">
        <ele>189</ele>
        <time>2016-03-14T15:27:54Z</time>
      </trkpt>
      <trkpt lat="48.31589" lon="-2.91996">
        <ele>189</ele>
        <time>2016-03-14T15:27:55Z</time>
      </trkpt>
      <trkpt lat="48.31589" lon="-2.91995">
        <ele>189</ele>
        <time>2016-03-14T15:27:56Z</time>
      </trkpt>
      <trkpt lat="48.31589" lon="-2.91993">
        <ele>189</ele>
        <time>2016-03-14T15:27:57Z</time>
      </trkpt>
      <trkpt lat="48.31589" lon="-2.91991">
        <ele>189</ele>
        <time>2016-03-14T15:27:58Z</time>
      </trkpt>
      <trkpt lat="48.31589" lon="-2.91989">
        <ele>189</ele>
        <time>2016-03-14T15:27:59Z</time>
      </trkpt>
      <trkpt lat="48.31589" lon="-2.91986">
        <ele>189</ele>
        <time>2016-03-14T15:28:01Z</time>
      </trkpt>
      <trkpt lat="48.31589" lon="-2.91983">
        <ele>189</ele>
        <time>2016-03-14T15:28:03Z</time>
      </trkpt>
      <trkpt lat="48.31589" lon="-2.91982">
        <ele>189</ele>
        <time>2016-03-14T15:28:04Z</time>
      </trkpt>
      <trkpt lat="48.31589" lon="-2.9198">
        <ele>189</ele>
        <time>2016-03-14T15:28:05Z</time>
      </trkpt>
      <trkpt lat="48.31588" lon="-2.91977">
        <ele>189</ele>
        <time>2016-03-14T15:28:07Z</time>
      </trkpt>
      <trkpt lat="48.31588" lon="-2.91975">
        <ele>189</ele>
        <time>2016-03-14T15:28:08Z</time>
      </trkpt>
      <trkpt lat="48.31588" lon="-2.91973">
        <ele>189</ele>
        <time>2016-03-14T15:28:09Z</time>
      </trkpt>
      <trkpt lat="48.31588" lon="-2.91971">
        <ele>189</ele>
        <time>2016-03-14T15:28:10Z</time>
      </trkpt>
      <trkpt lat="48.31588" lon="-2.91969">
        <ele>189</ele>
        <time>2016-03-14T15:28:11Z</time>
      </trkpt>
      <trkpt lat="48.31588" lon="-2.91967">
        <ele>189</ele>
        <time>2016-03-14T15:28:12Z</time>
      </trkpt>
      <trkpt lat="48.31588" lon="-2.91966">
        <ele>189</ele>
        <time>2016-03-14T15:28:13Z</time>
      </trkpt>
      <trkpt lat="48.31588" lon="-2.91964">
        <ele>189</ele>
        <time>2016-03-14T15:28:14Z</time>
      </trkpt>
      <trkpt lat="48.31588" lon="-2.91962">
        <ele>189</ele>
        <time>2016-03-14T15:28:15Z</time>
      </trkpt>
      <trkpt lat="48.31588" lon="-2.9196">
        <ele>189</ele>
        <time>2016-03-14T15:28:16Z</time>
      </trkpt>
      <trkpt lat="48.31588" lon="-2.91958">
        <ele>189</ele>
        <time>2016-03-14T15:28:17Z</time>
      </trkpt>
      <trkpt lat="48.31588" lon="-2.91956">
        <ele>189</ele>
        <time>2016-03-14T15:28:18Z</time>
      </trkpt>
      <trkpt lat="48.31588" lon="-2.91954">
        <ele>189</ele>
        <time>2016-03-14T15:28:19Z</time>
      </trkpt>
      <trkpt lat="48.31588" lon="-2.91953">
        <ele>189</ele>
        <time>2016-03-14T15:28:20Z</time>
      </trkpt>
      <trkpt lat="48.31588" lon="-2.91951">
        <ele>189</ele>
        <time>2016-03-14T15:28:21Z</time>
      </trkpt>
      <trkpt lat="48.31588" lon="-2.91949">
        <ele>189</ele>
        <time>2016-03-14T15:28:22Z</time>
      </trkpt>
      <trkpt lat="48.31588" lon="-2.91948">
        <ele>189</ele>
        <time>2016-03-14T15:28:23Z</time>
      </trkpt>
      <trkpt lat="48.31588" lon="-2.91946">
        <ele>189</ele>
        <time>2016-03-14T15:28:24Z</time>
      </trkpt>
      <trkpt lat="48.31588" lon="-2.91944">
        <ele>189</ele>
        <time>2016-03-14T15:28:25Z</time>
      </trkpt>
      <trkpt lat="48.31588" lon="-2.91942">
        <ele>189</ele>
        <time>2016-03-14T15:28:26Z</time>
      </trkpt>
      <trkpt lat="48.31588" lon="-2.9194">
        <ele>189</ele>
        <time>2016-03-14T15:28:27Z</time>
      </trkpt>
      <trkpt lat="48.31588" lon="-2.91938">
        <ele>189</ele>
        <time>2016-03-14T15:28:28Z</time>
      </trkpt>
      <trkpt lat="48.31588" lon="-2.91936">
        <ele>189</ele>
        <time>2016-03-14T15:28:29Z</time>
      </trkpt>
      <trkpt lat="48.31588" lon="-2.91934">
        <ele>189</ele>
        <time>2016-03-14T15:28:30Z</time>
      </trkpt>
      <trkpt lat="48.31588" lon="-2.91933">
        <ele>189</ele>
        <time>2016-03-14T15:28:31Z</time>
      </trkpt>
      <trkpt lat="48.31588" lon="-2.91931">
        <ele>189</ele>
        <time>2016-03-14T15:28:32Z</time>
      </trkpt>
      <trkpt lat="48.31588" lon="-2.91929">
        <ele>189</ele>
        <time>2016-03-14T15:28:33Z</time>
      </trkpt>
      <trkpt lat="48.31588" lon="-2.91927">
        <ele>189</ele>
        <time>2016-03-14T15:28:34Z</time>
      </trkpt>
      <trkpt lat="48.31588" lon="-2.91925">
        <ele>189</ele>
        <time>2016-03-14T15:28:35Z</time>
      </trkpt>
      <trkpt lat="48.31588" lon="-2.91923">
        <ele>189</ele>
        <time>2016-03-14T15:28:36Z</time>
      </trkpt>
      <trkpt lat="48.31588" lon="-2.91921">
        <ele>189</ele>
        <time>2016-03-14T15:28:37Z</time>
      </trkpt>
      <trkpt lat="48.31588" lon="-2.91919">
        <ele>189</ele>
        <time>2016-03-14T15:28:38Z</time>
      </trkpt>
      <trkpt lat="48.31588" lon="-2.91918">
        <ele>189</ele>
        <time>2016-03-14T15:28:39Z</time>
      </trkpt>
      <trkpt lat="48.31588" lon="-2.91916">
        <ele>189</ele>
        <time>2016-03-14T15:28:40Z</time>
      </trkpt>
      <trkpt lat="48.31588" lon="-2.91914">
        <ele>189</ele>
        <time>2016-03-14T15:28:41Z</time>
      </trkpt>
      <trkpt lat="48.31588" lon="-2.91912">
        <ele>189</ele>
        <time>2016-03-14T15:28:42Z</time>
      </trkpt>
      <trkpt lat="48.31588" lon="-2.91911">
        <ele>189</ele>
        <time>2016-03-14T15:28:43Z</time>
      </trkpt>
      <trkpt lat="48.31588" lon="-2.91909">
        <ele>189</ele>
        <time>2016-03-14T15:28:44Z</time>
      </trkpt>
      <trkpt lat="48.31588" lon="-2.91907">
        <ele>189</ele>
        <time>2016-03-14T15:28:45Z</time>
      </trkpt>
      <trkpt lat="48.31589" lon="-2.91905">
        <ele>189</ele>
        <time>2016-03-14T15:28:46Z</time>
      </trkpt>
      <trkpt lat="48.31589" lon="-2.91903">
        <ele>189</ele>
        <time>2016-03-14T15:28:47Z</time>
      </trkpt>
      <trkpt lat="48.31589" lon="-2.91901">
        <ele>189</ele>
        <time>2016-03-14T15:28:48Z</time>
      </trkpt>
      <trkpt lat="48.31589" lon="-2.91899">
        <ele>189</ele>
        <time>2016-03-14T15:28:49Z</time>
      </trkpt>
      <trkpt lat="48.31589" lon="-2.91898">
        <ele>189</ele>
        <time>2016-03-14T15:28:50Z</time>
      </trkpt>
      <trkpt lat="48.31589" lon="-2.91896">
        <ele>189</ele>
        <time>2016-03-14T15:28:51Z</time>
      </trkpt>
      <trkpt lat="48.31589" lon="-2.91894">
        <ele>189</ele>
        <time>2016-03-14T15:28:52Z</time>
      </trkpt>
      <trkpt lat="48.3159" lon="-2.91893">
        <ele>189</ele>
        <time>2016-03-14T15:28:53Z</time>
      </trkpt>
      <trkpt lat="48.3159" lon="-2.91891">
        <ele>189</ele>
        <time>2016-03-14T15:28:54Z</time>
      </trkpt>
      <trkpt lat="48.3159" lon="-2.91889">
        <ele>189</ele>
        <time>2016-03-14T15:28:55Z</time>
      </trkpt>
      <trkpt lat="48.3159" lon="-2.91887">
        <ele>189</ele>
        <time>2016-03-14T15:28:56Z</time>
      </trkpt>
      <trkpt lat="48.3159" lon="-2.91885">
        <ele>189</ele>
        <time>2016-03-14T15:28:57Z</time>
      </trkpt>
      <trkpt lat="48.3159" lon="-2.91884">
        <ele>189</ele>
        <time>2016-03-14T15:28:58Z</time>
      </trkpt>
      <trkpt lat="48.31591" lon="-2.91882">
        <ele>189</ele>
        <time>2016-03-14T15:28:59Z</time>
      </trkpt>
      <trkpt lat="48.31591" lon="-2.9188">
        <ele>189</ele>
        <time>2016-03-14T15:29:00Z</time>
      </trkpt>
      <trkpt lat="48.31591" lon="-2.91878">
        <ele>189</ele>
        <time>2016-03-14T15:29:01Z</time>
      </trkpt>
      <trkpt lat="48.31591" lon="-2.91877">
        <ele>189</ele>
        <time>2016-03-14T15:29:02Z</time>
      </trkpt>
      <trkpt lat="48.31592" lon="-2.91875">
        <ele>189</ele>
        <time>2016-03-14T15:29:03Z</time>
      </trkpt>
      <trkpt lat="48.31592" lon="-2.91873">
        <ele>189</ele>
        <time>2016-03-14T15:29:04Z</time>
      </trkpt>
      <trkpt lat="48.31592" lon="-2.91871">
        <ele>189</ele>
        <time>2016-03-14T15:29:05Z</time>
      </trkpt>
      <trkpt lat="48.31593" lon="-2.91869">
        <ele>189</ele>
        <time>2016-03-14T15:29:06Z</time>
      </trkpt>
      <trkpt lat="48.31593" lon="-2.91868">
        <ele>189</ele>
        <time>2016-03-14T15:29:07Z</time>
      </trkpt>
      <trkpt lat="48.31594" lon="-2.91864">
        <ele>189</ele>
        <time>2016-03-14T15:29:09Z</time>
      </trkpt>
      <trkpt lat="48.31594" lon="-2.91863">
        <ele>189</ele>
        <time>2016-03-14T15:29:10Z</time>
      </trkpt>
      <trkpt lat="48.31595" lon="-2.91861">
        <ele>189</ele>
        <time>2016-03-14T15:29:11Z</time>
      </trkpt>
      <trkpt lat="48.31595" lon="-2.91859">
        <ele>189</ele>
        <time>2016-03-14T15:29:12Z</time>
      </trkpt>
      <trkpt lat="48.31596" lon="-2.91857">
        <ele>189</ele>
        <time>2016-03-14T15:29:13Z</time>
      </trkpt>
      <trkpt lat="48.31596" lon="-2.91854">
        <ele>189</ele>
        <time>2016-03-14T15:29:15Z</time>
      </trkpt>
      <trkpt lat="48.31597" lon="-2.91852">
        <ele>189</ele>
        <time>2016-03-14T15:29:16Z</time>
      </trkpt>
      <trkpt lat="48.31597" lon="-2.91851">
        <ele>189</ele>
        <time>2016-03-14T15:29:17Z</time>
      </trkpt>
      <trkpt lat="48.31598" lon="-2.91849">
        <ele>189</ele>
        <time>2016-03-14T15:29:18Z</time>
      </trkpt>
      <trkpt lat="48.31598" lon="-2.91847">
        <ele>189</ele>
        <time>2016-03-14T15:29:19Z</time>
      </trkpt>
      <trkpt lat="48.31599" lon="-2.91845">
        <ele>189</ele>
        <time>2016-03-14T15:29:20Z</time>
      </trkpt>
      <trkpt lat="48.31599" lon="-2.91843">
        <ele>189</ele>
        <time>2016-03-14T15:29:21Z</time>
      </trkpt>
      <trkpt lat="48.316" lon="-2.9184">
        <ele>189</ele>
        <time>2016-03-14T15:29:23Z</time>
      </trkpt>
      <trkpt lat="48.31601" lon="-2.91837">
        <ele>189</ele>
        <time>2016-03-14T15:29:25Z</time>
      </trkpt>
      <trkpt lat="48.31602" lon="-2.91835">
        <ele>189</ele>
        <time>2016-03-14T15:29:26Z</time>
      </trkpt>
      <trkpt lat="48.31603" lon="-2.91834">
        <ele>189</ele>
        <time>2016-03-14T15:29:27Z</time>
      </trkpt>
      <trkpt lat="48.31604" lon="-2.91832">
        <ele>189</ele>
        <time>2016-03-14T15:29:28Z</time>
      </trkpt>
      <trkpt lat="48.31605" lon="-2.91829">
        <ele>189</ele>
        <time>2016-03-14T15:29:30Z</time>
      </trkpt>
      <trkpt lat="48.31606" lon="-2.91826">
        <ele>189</ele>
        <time>2016-03-14T15:29:32Z</time>
      </trkpt>
      <trkpt lat="48.31607" lon="-2.91824">
        <ele>189</ele>
        <time>2016-03-14T15:29:33Z</time>
      </trkpt>
      <trkpt lat="48.31607" lon="-2.91823">
        <ele>189</ele>
        <time>2016-03-14T15:29:34Z</time>
      </trkpt>
      <trkpt lat="48.31609" lon="-2.9182">
        <ele>189</ele>
        <time>2016-03-14T15:29:36Z</time>
      </trkpt>
      <trkpt lat="48.3161" lon="-2.91818">
        <ele>189</ele>
        <time>2016-03-14T15:29:37Z</time>
      </trkpt>
      <trkpt lat="48.31611" lon="-2.91815">
        <ele>189</ele>
        <time>2016-03-14T15:29:39Z</time>
      </trkpt>
      <trkpt lat="48.31612" lon="-2.91812">
        <ele>189</ele>
        <time>2016-03-14T15:29:41Z</time>
      </trkpt>
      <trkpt lat="48.31613" lon="-2.9181">
        <ele>189</ele>
        <time>2016-03-14T15:29:42Z</time>
      </trkpt>
      <trkpt lat="48.31614" lon="-2.91807">
        <ele>189</ele>
        <time>2016-03-14T15:29:44Z</time>
      </trkpt>
      <trkpt lat="48.31616" lon="-2.91805">
        <ele>189</ele>
        <time>2016-03-14T15:29:46Z</time>
      </trkpt>
      <trkpt lat="48.31617" lon="-2.91802">
        <ele>189</ele>
        <time>2016-03-14T15:29:48Z</time>
      </trkpt>
      <trkpt lat="48.31619" lon="-2.91798">
        <ele>189</ele>
        <time>2016-03-14T15:29:50Z</time>
      </trkpt>
      <trkpt lat="48.3162" lon="-2.91795">
        <ele>189</ele>
        <time>2016-03-14T15:29:52Z</time>
      </trkpt>
      <trkpt lat="48.31622" lon="-2.91792">
        <ele>189</ele>
        <time>2016-03-14T15:29:54Z</time>
      </trkpt>
      <trkpt lat="48.31623" lon="-2.9179">
        <ele>189</ele>
        <time>2016-03-14T15:29:56Z</time>
      </trkpt>
      <trkpt lat="48.31625" lon="-2.91786">
        <ele>189</ele>
        <time>2016-03-14T15:29:58Z</time>
      </trkpt>
      <trkpt lat="48.31625" lon="-2.91785">
        <ele>189</ele>
        <time>2016-03-14T15:29:59Z</time>
      </trkpt>
      <trkpt lat="48.31627" lon="-2.91782">
        <ele>189</ele>
        <time>2016-03-14T15:30:01Z</time>
      </trkpt>
      <trkpt lat="48.31628" lon="-2.91779">
        <ele>189</ele>
        <time>2016-03-14T15:30:03Z</time>
      </trkpt>
      <trkpt lat="48.3163" lon="-2.91776">
        <ele>189</ele>
        <time>2016-03-14T15:30:05Z</time>
      </trkpt>
      <trkpt lat="48.3163" lon="-2.91774">
        <ele>189</ele>
        <time>2016-03-14T15:30:06Z</time>
      </trkpt>
      <trkpt lat="48.31631" lon="-2.91773">
        <ele>189</ele>
        <time>2016-03-14T15:30:07Z</time>
      </trkpt>
      <trkpt lat="48.31633" lon="-2.9177">
        <ele>189</ele>
        <time>2016-03-14T15:30:09Z</time>
      </trkpt>
      <trkpt lat="48.31634" lon="-2.91767">
        <ele>189</ele>
        <time>2016-03-14T15:30:11Z</time>
      </trkpt>
      <trkpt lat="48.31635" lon="-2.91764">
        <ele>189</ele>
        <time>2016-03-14T15:30:13Z</time>
      </trkpt>
      <trkpt lat="48.31636" lon="-2.91762">
        <ele>189</ele>
        <time>2016-03-14T15:30:14Z</time>
      </trkpt>
      <trkpt lat="48.31637" lon="-2.91761">
        <ele>189</ele>
        <time>2016-03-14T15:30:15Z</time>
      </trkpt>
      <trkpt lat="48.31638" lon="-2.91758">
        <ele>189</ele>
        <time>2016-03-14T15:30:17Z</time>
      </trkpt>
      <trkpt lat="48.3164" lon="-2.91755">
        <ele>189</ele>
        <time>2016-03-14T15:30:19Z</time>
      </trkpt>
      <trkpt lat="48.31641" lon="-2.91752">
        <ele>189</ele>
        <time>2016-03-14T15:30:21Z</time>
      </trkpt>
      <trkpt lat="48.31643" lon="-2.91749">
        <ele>189</ele>
        <time>2016-03-14T15:30:23Z</time>
      </trkpt>
      <trkpt lat="48.31644" lon="-2.91746">
        <ele>189</ele>
        <time>2016-03-14T15:30:25Z</time>
      </trkpt>
      <trkpt lat="48.31645" lon="-2.91743">
        <ele>189</ele>
        <time>2016-03-14T15:30:27Z</time>
      </trkpt>
      <trkpt lat="48.31646" lon="-2.91742">
        <ele>189</ele>
        <time>2016-03-14T15:30:28Z</time>
      </trkpt>
      <trkpt lat="48.31647" lon="-2.91739">
        <ele>189</ele>
        <time>2016-03-14T15:30:30Z</time>
      </trkpt>
      <trkpt lat="48.31648" lon="-2.91736">
        <ele>189</ele>
        <time>2016-03-14T15:30:32Z</time>
      </trkpt>
      <trkpt lat="48.31649" lon="-2.91735">
        <ele>189</ele>
        <time>2016-03-14T15:30:33Z</time>
      </trkpt>
      <trkpt lat="48.31651" lon="-2.91732">
        <ele>189</ele>
        <time>2016-03-14T15:30:35Z</time>
      </trkpt>
      <trkpt lat="48.31652" lon="-2.91729">
        <ele>189</ele>
        <time>2016-03-14T15:30:37Z</time>
      </trkpt>
      <trkpt lat="48.31653" lon="-2.91726">
        <ele>189</ele>
        <time>2016-03-14T15:30:39Z</time>
      </trkpt>
      <trkpt lat="48.31654" lon="-2.91723">
        <ele>189</ele>
        <time>2016-03-14T15:30:41Z</time>
      </trkpt>
      <trkpt lat="48.31656" lon="-2.9172">
        <ele>189</ele>
        <time>2016-03-14T15:30:43Z</time>
      </trkpt>
      <trkpt lat="48.31656" lon="-2.91719">
        <ele>189</ele>
        <time>2016-03-14T15:30:44Z</time>
      </trkpt>
      <trkpt lat="48.31657" lon="-2.91716">
        <ele>189</ele>
        <time>2016-03-14T15:30:46Z</time>
      </trkpt>
      <trkpt lat="48.31659" lon="-2.91713">
        <ele>189</ele>
        <time>2016-03-14T15:30:48Z</time>
      </trkpt>
      <trkpt lat="48.3166" lon="-2.9171">
        <ele>189</ele>
        <time>2016-03-14T15:30:50Z</time>
      </trkpt>
      <trkpt lat="48.31661" lon="-2.91707">
        <ele>189</ele>
        <time>2016-03-14T15:30:52Z</time>
      </trkpt>
      <trkpt lat="48.31662" lon="-2.91705">
        <ele>189</ele>
        <time>2016-03-14T15:30:54Z</time>
      </trkpt>
      <trkpt lat="48.31662" lon="-2.91703">
        <ele>189</ele>
        <time>2016-03-14T15:30:55Z</time>
      </trkpt>
      <trkpt lat="48.31664" lon="-2.917">
        <ele>189</ele>
        <time>2016-03-14T15:30:57Z</time>
      </trkpt>
      <trkpt lat="48.31665" lon="-2.91697">
        <ele>189</ele>
        <time>2016-03-14T15:30:59Z</time>
      </trkpt>
      <trkpt lat="48.31665" lon="-2.91696">
        <ele>189</ele>
        <time>2016-03-14T15:31:00Z</time>
      </trkpt>
      <trkpt lat="48.31666" lon="-2.91693">
        <ele>189</ele>
        <time>2016-03-14T15:31:02Z</time>
      </trkpt>
      <trkpt lat="48.31667" lon="-2.9169">
        <ele>189</ele>
        <time>2016-03-14T15:31:04Z</time>
      </trkpt>
      <trkpt lat="48.31668" lon="-2.91687">
        <ele>189</ele>
        <time>2016-03-14T15:31:06Z</time>
      </trkpt>
      <trkpt lat="48.3167" lon="-2.91684">
        <ele>189</ele>
        <time>2016-03-14T15:31:08Z</time>
      </trkpt>
      <trkpt lat="48.3167" lon="-2.91681">
        <ele>189</ele>
        <time>2016-03-14T15:31:10Z</time>
      </trkpt>
      <trkpt lat="48.31671" lon="-2.91679">
        <ele>189</ele>
        <time>2016-03-14T15:31:11Z</time>
      </trkpt>
      <trkpt lat="48.31672" lon="-2.91677">
        <ele>189</ele>
        <time>2016-03-14T15:31:12Z</time>
      </trkpt>
      <trkpt lat="48.31673" lon="-2.91674">
        <ele>189</ele>
        <time>2016-03-14T15:31:14Z</time>
      </trkpt>
      <trkpt lat="48.31674" lon="-2.91671">
        <ele>190</ele>
        <time>2016-03-14T15:31:16Z</time>
      </trkpt>
      <trkpt lat="48.31674" lon="-2.91669">
        <ele>190</ele>
        <time>2016-03-14T15:31:17Z</time>
      </trkpt>
      <trkpt lat="48.31675" lon="-2.91668">
        <ele>190</ele>
        <time>2016-03-14T15:31:18Z</time>
      </trkpt>
      <trkpt lat="48.31676" lon="-2.91665">
        <ele>190</ele>
        <time>2016-03-14T15:31:20Z</time>
      </trkpt>
      <trkpt lat="48.31677" lon="-2.91662">
        <ele>190</ele>
        <time>2016-03-14T15:31:22Z</time>
      </trkpt>
      <trkpt lat="48.31678" lon="-2.9166">
        <ele>190</ele>
        <time>2016-03-14T15:31:23Z</time>
      </trkpt>
      <trkpt lat="48.31678" lon="-2.91658">
        <ele>190</ele>
        <time>2016-03-14T15:31:24Z</time>
      </trkpt>
      <trkpt lat="48.31678" lon="-2.91656">
        <ele>190</ele>
        <time>2016-03-14T15:31:25Z</time>
      </trkpt>
      <trkpt lat="48.3168" lon="-2.91654">
        <ele>190</ele>
        <time>2016-03-14T15:31:27Z</time>
      </trkpt>
      <trkpt lat="48.31681" lon="-2.91651">
        <ele>190</ele>
        <time>2016-03-14T15:31:29Z</time>
      </trkpt>
      <trkpt lat="48.31682" lon="-2.91648">
        <ele>190</ele>
        <time>2016-03-14T15:31:31Z</time>
      </trkpt>
      <trkpt lat="48.31683" lon="-2.91645">
        <ele>190</ele>
        <time>2016-03-14T15:31:33Z</time>
      </trkpt>
      <trkpt lat="48.31684" lon="-2.91642">
        <ele>190</ele>
        <time>2016-03-14T15:31:35Z</time>
      </trkpt>
      <trkpt lat="48.31684" lon="-2.9164">
        <ele>190</ele>
        <time>2016-03-14T15:31:36Z</time>
      </trkpt>
      <trkpt lat="48.31685" lon="-2.91638">
        <ele>190</ele>
        <time>2016-03-14T15:31:37Z</time>
      </trkpt>
      <trkpt lat="48.31686" lon="-2.91635">
        <ele>190</ele>
        <time>2016-03-14T15:31:39Z</time>
      </trkpt>
      <trkpt lat="48.31687" lon="-2.91632">
        <ele>191</ele>
        <time>2016-03-14T15:31:41Z</time>
      </trkpt>
      <trkpt lat="48.31688" lon="-2.9163">
        <ele>191</ele>
        <time>2016-03-14T15:31:42Z</time>
      </trkpt>
      <trkpt lat="48.31688" lon="-2.91629">
        <ele>191</ele>
        <time>2016-03-14T15:31:43Z</time>
      </trkpt>
      <trkpt lat="48.31689" lon="-2.91627">
        <ele>191</ele>
        <time>2016-03-14T15:31:44Z</time>
      </trkpt>
      <trkpt lat="48.3169" lon="-2.91624">
        <ele>191</ele>
        <time>2016-03-14T15:31:46Z</time>
      </trkpt>
      <trkpt lat="48.3169" lon="-2.91622">
        <ele>191</ele>
        <time>2016-03-14T15:31:47Z</time>
      </trkpt>
      <trkpt lat="48.31691" lon="-2.9162">
        <ele>191</ele>
        <time>2016-03-14T15:31:48Z</time>
      </trkpt>
      <trkpt lat="48.31691" lon="-2.91618">
        <ele>191</ele>
        <time>2016-03-14T15:31:49Z</time>
      </trkpt>
      <trkpt lat="48.31692" lon="-2.91617">
        <ele>191</ele>
        <time>2016-03-14T15:31:50Z</time>
      </trkpt>
      <trkpt lat="48.31692" lon="-2.91615">
        <ele>191</ele>
        <time>2016-03-14T15:31:51Z</time>
      </trkpt>
      <trkpt lat="48.31693" lon="-2.91612">
        <ele>191</ele>
        <time>2016-03-14T15:31:53Z</time>
      </trkpt>
      <trkpt lat="48.31694" lon="-2.9161">
        <ele>191</ele>
        <time>2016-03-14T15:31:54Z</time>
      </trkpt>
      <trkpt lat="48.31694" lon="-2.91609">
        <ele>191</ele>
        <time>2016-03-14T15:31:55Z</time>
      </trkpt>
      <trkpt lat="48.31695" lon="-2.91607">
        <ele>191</ele>
        <time>2016-03-14T15:31:56Z</time>
      </trkpt>
      <trkpt lat="48.31695" lon="-2.91605">
        <ele>191</ele>
        <time>2016-03-14T15:31:57Z</time>
      </trkpt>
      <trkpt lat="48.31696" lon="-2.91602">
        <ele>191</ele>
        <time>2016-03-14T15:31:59Z</time>
      </trkpt>
      <trkpt lat="48.31697" lon="-2.91599">
        <ele>191</ele>
        <time>2016-03-14T15:32:01Z</time>
      </trkpt>
      <trkpt lat="48.31697" lon="-2.91597">
        <ele>191</ele>
        <time>2016-03-14T15:32:02Z</time>
      </trkpt>
      <trkpt lat="48.31698" lon="-2.91595">
        <ele>191</ele>
        <time>2016-03-14T15:32:03Z</time>
      </trkpt>
      <trkpt lat="48.31698" lon="-2.91592">
        <ele>191</ele>
        <time>2016-03-14T15:32:05Z</time>
      </trkpt>
      <trkpt lat="48.31699" lon="-2.91591">
        <ele>191</ele>
        <time>2016-03-14T15:32:06Z</time>
      </trkpt>
      <trkpt lat="48.31699" lon="-2.91589">
        <ele>191</ele>
        <time>2016-03-14T15:32:07Z</time>
      </trkpt>
      <trkpt lat="48.31699" lon="-2.91587">
        <ele>191</ele>
        <time>2016-03-14T15:32:08Z</time>
      </trkpt>
      <trkpt lat="48.317" lon="-2.91586">
        <ele>191</ele>
        <time>2016-03-14T15:32:09Z</time>
      </trkpt>
      <trkpt lat="48.31701" lon="-2.91583">
        <ele>191</ele>
        <time>2016-03-14T15:32:11Z</time>
      </trkpt>
      <trkpt lat="48.31702" lon="-2.91579">
        <ele>191</ele>
        <time>2016-03-14T15:32:13Z</time>
      </trkpt>
      <trkpt lat="48.31702" lon="-2.91578">
        <ele>191</ele>
        <time>2016-03-14T15:32:14Z</time>
      </trkpt>
      <trkpt lat="48.31702" lon="-2.91576">
        <ele>191</ele>
        <time>2016-03-14T15:32:15Z</time>
      </trkpt>
      <trkpt lat="48.31703" lon="-2.91574">
        <ele>191</ele>
        <time>2016-03-14T15:32:16Z</time>
      </trkpt>
      <trkpt lat="48.31704" lon="-2.91571">
        <ele>191</ele>
        <time>2016-03-14T15:32:18Z</time>
      </trkpt>
      <trkpt lat="48.31704" lon="-2.91569">
        <ele>191</ele>
        <time>2016-03-14T15:32:19Z</time>
      </trkpt>
      <trkpt lat="48.31704" lon="-2.91568">
        <ele>191</ele>
        <time>2016-03-14T15:32:21Z</time>
      </trkpt>
      <trkpt lat="48.31704" lon="-2.91566">
        <ele>191</ele>
        <time>2016-03-14T15:32:21Z</time>
      </trkpt>
      <trkpt lat="48.31705" lon="-2.91563">
        <ele>191</ele>
        <time>2016-03-14T15:32:23Z</time>
      </trkpt>
      <trkpt lat="48.31706" lon="-2.9156">
        <ele>191</ele>
        <time>2016-03-14T15:32:25Z</time>
      </trkpt>
      <trkpt lat="48.31706" lon="-2.91558">
        <ele>191</ele>
        <time>2016-03-14T15:32:26Z</time>
      </trkpt>
      <trkpt lat="48.31707" lon="-2.91556">
        <ele>191</ele>
        <time>2016-03-14T15:32:27Z</time>
      </trkpt>
      <trkpt lat="48.31708" lon="-2.91553">
        <ele>191</ele>
        <time>2016-03-14T15:32:29Z</time>
      </trkpt>
      <trkpt lat="48.31708" lon="-2.91551">
        <ele>191</ele>
        <time>2016-03-14T15:32:30Z</time>
      </trkpt>
      <trkpt lat="48.31709" lon="-2.91548">
        <ele>191</ele>
        <time>2016-03-14T15:32:32Z</time>
      </trkpt>
      <trkpt lat="48.3171" lon="-2.91547">
        <ele>191</ele>
        <time>2016-03-14T15:32:33Z</time>
      </trkpt>
      <trkpt lat="48.3171" lon="-2.91545">
        <ele>191</ele>
        <time>2016-03-14T15:32:34Z</time>
      </trkpt>
      <trkpt lat="48.3171" lon="-2.91543">
        <ele>191</ele>
        <time>2016-03-14T15:32:35Z</time>
      </trkpt>
      <trkpt lat="48.31711" lon="-2.91541">
        <ele>191</ele>
        <time>2016-03-14T15:32:36Z</time>
      </trkpt>
      <trkpt lat="48.31712" lon="-2.91538">
        <ele>191</ele>
        <time>2016-03-14T15:32:38Z</time>
      </trkpt>
      <trkpt lat="48.31713" lon="-2.91535">
        <ele>191</ele>
        <time>2016-03-14T15:32:40Z</time>
      </trkpt>
      <trkpt lat="48.31713" lon="-2.91533">
        <ele>191</ele>
        <time>2016-03-14T15:32:41Z</time>
      </trkpt>
      <trkpt lat="48.31714" lon="-2.9153">
        <ele>191</ele>
        <time>2016-03-14T15:32:43Z</time>
      </trkpt>
      <trkpt lat="48.31715" lon="-2.91527">
        <ele>191</ele>
        <time>2016-03-14T15:32:45Z</time>
      </trkpt>
      <trkpt lat="48.31715" lon="-2.91525">
        <ele>191</ele>
        <time>2016-03-14T15:32:46Z</time>
      </trkpt>
      <trkpt lat="48.31716" lon="-2.91524">
        <ele>191</ele>
        <time>2016-03-14T15:32:47Z</time>
      </trkpt>
      <trkpt lat="48.31717" lon="-2.91521">
        <ele>191</ele>
        <time>2016-03-14T15:32:49Z</time>
      </trkpt>
      <trkpt lat="48.31718" lon="-2.91518">
        <ele>191</ele>
        <time>2016-03-14T15:32:51Z</time>
      </trkpt>
      <trkpt lat="48.31718" lon="-2.91516">
        <ele>191</ele>
        <time>2016-03-14T15:32:52Z</time>
      </trkpt>
      <trkpt lat="48.31718" lon="-2.91514">
        <ele>191</ele>
        <time>2016-03-14T15:32:53Z</time>
      </trkpt>
      <trkpt lat="48.31719" lon="-2.91513">
        <ele>191</ele>
        <time>2016-03-14T15:32:54Z</time>
      </trkpt>
      <trkpt lat="48.31719" lon="-2.91511">
        <ele>191</ele>
        <time>2016-03-14T15:32:55Z</time>
      </trkpt>
      <trkpt lat="48.3172" lon="-2.91508">
        <ele>191</ele>
        <time>2016-03-14T15:32:57Z</time>
      </trkpt>
      <trkpt lat="48.31722" lon="-2.91505">
        <ele>191</ele>
        <time>2016-03-14T15:32:59Z</time>
      </trkpt>
      <trkpt lat="48.31723" lon="-2.91502">
        <ele>191</ele>
        <time>2016-03-14T15:33:01Z</time>
      </trkpt>
      <trkpt lat="48.31724" lon="-2.91499">
        <ele>191</ele>
        <time>2016-03-14T15:33:03Z</time>
      </trkpt>
      <trkpt lat="48.31725" lon="-2.91496">
        <ele>191</ele>
        <time>2016-03-14T15:33:05Z</time>
      </trkpt>
      <trkpt lat="48.31726" lon="-2.91494">
        <ele>191</ele>
        <time>2016-03-14T15:33:06Z</time>
      </trkpt>
      <trkpt lat="48.31727" lon="-2.91492">
        <ele>191</ele>
        <time>2016-03-14T15:33:08Z</time>
      </trkpt>
      <trkpt lat="48.31727" lon="-2.9149">
        <ele>191</ele>
        <time>2016-03-14T15:33:09Z</time>
      </trkpt>
      <trkpt lat="48.31728" lon="-2.91487">
        <ele>191</ele>
        <time>2016-03-14T15:33:11Z</time>
      </trkpt>
      <trkpt lat="48.3173" lon="-2.91484">
        <ele>191</ele>
        <time>2016-03-14T15:33:13Z</time>
      </trkpt>
      <trkpt lat="48.31732" lon="-2.91481">
        <ele>191</ele>
        <time>2016-03-14T15:33:15Z</time>
      </trkpt>
      <trkpt lat="48.31733" lon="-2.91479">
        <ele>191</ele>
        <time>2016-03-14T15:33:17Z</time>
      </trkpt>
      <trkpt lat="48.31734" lon="-2.91476">
        <ele>191</ele>
        <time>2016-03-14T15:33:19Z</time>
      </trkpt>
      <trkpt lat="48.31736" lon="-2.91473">
        <ele>191</ele>
        <time>2016-03-14T15:33:21Z</time>
      </trkpt>
      <trkpt lat="48.31738" lon="-2.91471">
        <ele>191</ele>
        <time>2016-03-14T15:33:23Z</time>
      </trkpt>
      <trkpt lat="48.31739" lon="-2.91469">
        <ele>191</ele>
        <time>2016-03-14T15:33:25Z</time>
      </trkpt>
      <trkpt lat="48.31741" lon="-2.91467">
        <ele>191</ele>
        <time>2016-03-14T15:33:27Z</time>
      </trkpt>
      <trkpt lat="48.31743" lon="-2.91464">
        <ele>191</ele>
        <time>2016-03-14T15:33:29Z</time>
      </trkpt>
      <trkpt lat="48.31744" lon="-2.91462">
        <ele>191</ele>
        <time>2016-03-14T15:33:31Z</time>
      </trkpt>
      <trkpt lat="48.31746" lon="-2.9146">
        <ele>191</ele>
        <time>2016-03-14T15:33:33Z</time>
      </trkpt>
      <trkpt lat="48.31747" lon="-2.91459">
        <ele>191</ele>
        <time>2016-03-14T15:33:35Z</time>
      </trkpt>
      <trkpt lat="48.31748" lon="-2.91459">
        <ele>191</ele>
        <time>2016-03-14T15:33:38Z</time>
      </trkpt>
      <trkpt lat="48.31749" lon="-2.91459">
        <ele>191</ele>
        <time>2016-03-14T15:33:41Z</time>
      </trkpt>
      <trkpt lat="48.31751" lon="-2.91458">
        <ele>191</ele>
        <time>2016-03-14T15:33:45Z</time>
      </trkpt>
      <trkpt lat="48.31752" lon="-2.91457">
        <ele>191</ele>
        <time>2016-03-14T15:33:48Z</time>
      </trkpt>
      <trkpt lat="48.31753" lon="-2.91457">
        <ele>191</ele>
        <time>2016-03-14T15:33:53Z</time>
      </trkpt>
      <trkpt lat="48.31754" lon="-2.91457">
        <ele>191</ele>
        <time>2016-03-14T15:34:41Z</time>
      </trkpt>
      <trkpt lat="48.31756" lon="-2.91457">
        <ele>194</ele>
        <time>2016-03-14T15:36:23Z</time>
      </trkpt>
      <trkpt lat="48.31757" lon="-2.91456">
        <ele>194</ele>
        <time>2016-03-14T15:36:59Z</time>
      </trkpt>
      <trkpt lat="48.31756" lon="-2.91454">
        <ele>194</ele>
        <time>2016-03-14T15:37:11Z</time>
      </trkpt>
      <trkpt lat="48.31757" lon="-2.91453">
        <ele>194</ele>
        <time>2016-03-14T15:37:17Z</time>
      </trkpt>
      <trkpt lat="48.31758" lon="-2.91452">
        <ele>194</ele>
        <time>2016-03-14T15:37:20Z</time>
      </trkpt>
      <trkpt lat="48.3176" lon="-2.91451">
        <ele>194</ele>
        <time>2016-03-14T15:37:23Z</time>
      </trkpt>
      <trkpt lat="48.31761" lon="-2.9145">
        <ele>194</ele>
        <time>2016-03-14T15:37:25Z</time>
      </trkpt>
      <trkpt lat="48.31762" lon="-2.91449">
        <ele>194</ele>
        <time>2016-03-14T15:37:28Z</time>
      </trkpt>
      <trkpt lat="48.31763" lon="-2.91448">
        <ele>194</ele>
        <time>2016-03-14T15:37:30Z</time>
      </trkpt>
      <trkpt lat="48.31765" lon="-2.91447">
        <ele>194</ele>
        <time>2016-03-14T15:37:32Z</time>
      </trkpt>
      <trkpt lat="48.31767" lon="-2.91446">
        <ele>194</ele>
        <time>2016-03-14T15:37:34Z</time>
      </trkpt>
      <trkpt lat="48.31768" lon="-2.91445">
        <ele>194</ele>
        <time>2016-03-14T15:37:36Z</time>
      </trkpt>
      <trkpt lat="48.3177" lon="-2.91444">
        <ele>194</ele>
        <time>2016-03-14T15:37:38Z</time>
      </trkpt>
      <trkpt lat="48.31771" lon="-2.91443">
        <ele>194</ele>
        <time>2016-03-14T15:37:39Z</time>
      </trkpt>
      <trkpt lat="48.31773" lon="-2.91442">
        <ele>194</ele>
        <time>2016-03-14T15:37:41Z</time>
      </trkpt>
      <trkpt lat="48.31775" lon="-2.91441">
        <ele>194</ele>
        <time>2016-03-14T15:37:43Z</time>
      </trkpt>
      <trkpt lat="48.31777" lon="-2.91439">
        <ele>194</ele>
        <time>2016-03-14T15:37:45Z</time>
      </trkpt>
      <trkpt lat="48.31779" lon="-2.91438">
        <ele>194</ele>
        <time>2016-03-14T15:37:47Z</time>
      </trkpt>
      <trkpt lat="48.31781" lon="-2.91437">
        <ele>194</ele>
        <time>2016-03-14T15:37:49Z</time>
      </trkpt>
      <trkpt lat="48.31783" lon="-2.91435">
        <ele>194</ele>
        <time>2016-03-14T15:37:51Z</time>
      </trkpt>
      <trkpt lat="48.31784" lon="-2.91435">
        <ele>194</ele>
        <time>2016-03-14T15:37:52Z</time>
      </trkpt>
      <trkpt lat="48.31785" lon="-2.91433">
        <ele>194</ele>
        <time>2016-03-14T15:37:54Z</time>
      </trkpt>
      <trkpt lat="48.31787" lon="-2.91432">
        <ele>194</ele>
        <time>2016-03-14T15:37:56Z</time>
      </trkpt>
      <trkpt lat="48.31788" lon="-2.9143">
        <ele>193</ele>
        <time>2016-03-14T15:37:58Z</time>
      </trkpt>
      <trkpt lat="48.3179" lon="-2.91429">
        <ele>193</ele>
        <time>2016-03-14T15:38:00Z</time>
      </trkpt>
      <trkpt lat="48.31792" lon="-2.91427">
        <ele>192</ele>
        <time>2016-03-14T15:38:02Z</time>
      </trkpt>
      <trkpt lat="48.31794" lon="-2.91425">
        <ele>192</ele>
        <time>2016-03-14T15:38:04Z</time>
      </trkpt>
      <trkpt lat="48.31795" lon="-2.91424">
        <ele>192</ele>
        <time>2016-03-14T15:38:06Z</time>
      </trkpt>
      <trkpt lat="48.31797" lon="-2.91422">
        <ele>192</ele>
        <time>2016-03-14T15:38:08Z</time>
      </trkpt>
      <trkpt lat="48.31798" lon="-2.91421">
        <ele>192</ele>
        <time>2016-03-14T15:38:09Z</time>
      </trkpt>
      <trkpt lat="48.318" lon="-2.9142">
        <ele>192</ele>
        <time>2016-03-14T15:38:11Z</time>
      </trkpt>
      <trkpt lat="48.31802" lon="-2.91419">
        <ele>191</ele>
        <time>2016-03-14T15:38:13Z</time>
      </trkpt>
      <trkpt lat="48.31804" lon="-2.91417">
        <ele>191</ele>
        <time>2016-03-14T15:38:15Z</time>
      </trkpt>
      <trkpt lat="48.31805" lon="-2.91416">
        <ele>191</ele>
        <time>2016-03-14T15:38:16Z</time>
      </trkpt>
      <trkpt lat="48.31807" lon="-2.91413">
        <ele>191</ele>
        <time>2016-03-14T15:38:18Z</time>
      </trkpt>
      <trkpt lat="48.31808" lon="-2.91412">
        <ele>191</ele>
        <time>2016-03-14T15:38:19Z</time>
      </trkpt>
      <trkpt lat="48.3181" lon="-2.91409">
        <ele>191</ele>
        <time>2016-03-14T15:38:21Z</time>
      </trkpt>
      <trkpt lat="48.31812" lon="-2.91407">
        <ele>191</ele>
        <time>2016-03-14T15:38:23Z</time>
      </trkpt>
      <trkpt lat="48.31814" lon="-2.91405">
        <ele>191</ele>
        <time>2016-03-14T15:38:25Z</time>
      </trkpt>
      <trkpt lat="48.31816" lon="-2.91403">
        <ele>191</ele>
        <time>2016-03-14T15:38:27Z</time>
      </trkpt>
      <trkpt lat="48.31818" lon="-2.91401">
        <ele>191</ele>
        <time>2016-03-14T15:38:29Z</time>
      </trkpt>
      <trkpt lat="48.3182" lon="-2.91398">
        <ele>191</ele>
        <time>2016-03-14T15:38:31Z</time>
      </trkpt>
      <trkpt lat="48.31821" lon="-2.91397">
        <ele>191</ele>
        <time>2016-03-14T15:38:32Z</time>
      </trkpt>
      <trkpt lat="48.31823" lon="-2.91395">
        <ele>191</ele>
        <time>2016-03-14T15:38:34Z</time>
      </trkpt>
      <trkpt lat="48.31824" lon="-2.91392">
        <ele>190</ele>
        <time>2016-03-14T15:38:36Z</time>
      </trkpt>
      <trkpt lat="48.31825" lon="-2.91389">
        <ele>190</ele>
        <time>2016-03-14T15:38:38Z</time>
      </trkpt>
      <trkpt lat="48.31825" lon="-2.91387">
        <ele>189</ele>
        <time>2016-03-14T15:38:39Z</time>
      </trkpt>
      <trkpt lat="48.31825" lon="-2.91385">
        <ele>189</ele>
        <time>2016-03-14T15:38:40Z</time>
      </trkpt>
      <trkpt lat="48.31826" lon="-2.91383">
        <ele>189</ele>
        <time>2016-03-14T15:38:41Z</time>
      </trkpt>
      <trkpt lat="48.31826" lon="-2.91382">
        <ele>189</ele>
        <time>2016-03-14T15:38:42Z</time>
      </trkpt>
      <trkpt lat="48.31826" lon="-2.9138">
        <ele>188</ele>
        <time>2016-03-14T15:38:43Z</time>
      </trkpt>
      <trkpt lat="48.31826" lon="-2.91378">
        <ele>188</ele>
        <time>2016-03-14T15:38:44Z</time>
      </trkpt>
      <trkpt lat="48.31827" lon="-2.91376">
        <ele>188</ele>
        <time>2016-03-14T15:38:45Z</time>
      </trkpt>
      <trkpt lat="48.31827" lon="-2.91375">
        <ele>188</ele>
        <time>2016-03-14T15:38:46Z</time>
      </trkpt>
      <trkpt lat="48.31828" lon="-2.91373">
        <ele>188</ele>
        <time>2016-03-14T15:38:47Z</time>
      </trkpt>
      <trkpt lat="48.31828" lon="-2.91371">
        <ele>188</ele>
        <time>2016-03-14T15:38:48Z</time>
      </trkpt>
      <trkpt lat="48.31829" lon="-2.9137">
        <ele>188</ele>
        <time>2016-03-14T15:38:49Z</time>
      </trkpt>
      <trkpt lat="48.31829" lon="-2.91367">
        <ele>188</ele>
        <time>2016-03-14T15:38:51Z</time>
      </trkpt>
      <trkpt lat="48.3183" lon="-2.91365">
        <ele>188</ele>
        <time>2016-03-14T15:38:52Z</time>
      </trkpt>
      <trkpt lat="48.3183" lon="-2.91363">
        <ele>188</ele>
        <time>2016-03-14T15:38:53Z</time>
      </trkpt>
      <trkpt lat="48.3183" lon="-2.91361">
        <ele>188</ele>
        <time>2016-03-14T15:38:54Z</time>
      </trkpt>
      <trkpt lat="48.31831" lon="-2.9136">
        <ele>187</ele>
        <time>2016-03-14T15:38:55Z</time>
      </trkpt>
      <trkpt lat="48.31832" lon="-2.91357">
        <ele>187</ele>
        <time>2016-03-14T15:38:57Z</time>
      </trkpt>
      <trkpt lat="48.31833" lon="-2.91354">
        <ele>187</ele>
        <time>2016-03-14T15:38:59Z</time>
      </trkpt>
      <trkpt lat="48.31834" lon="-2.91352">
        <ele>187</ele>
        <time>2016-03-14T15:39:00Z</time>
      </trkpt>
      <trkpt lat="48.31834" lon="-2.91351">
        <ele>187</ele>
        <time>2016-03-14T15:39:01Z</time>
      </trkpt>
      <trkpt lat="48.31834" lon="-2.91349">
        <ele>187</ele>
        <time>2016-03-14T15:39:02Z</time>
      </trkpt>
      <trkpt lat="48.31834" lon="-2.91347">
        <ele>187</ele>
        <time>2016-03-14T15:39:03Z</time>
      </trkpt>
      <trkpt lat="48.31834" lon="-2.91345">
        <ele>187</ele>
        <time>2016-03-14T15:39:04Z</time>
      </trkpt>
      <trkpt lat="48.31834" lon="-2.91343">
        <ele>187</ele>
        <time>2016-03-14T15:39:05Z</time>
      </trkpt>
      <trkpt lat="48.31835" lon="-2.9134">
        <ele>187</ele>
        <time>2016-03-14T15:39:07Z</time>
      </trkpt>
      <trkpt lat="48.31835" lon="-2.91338">
        <ele>187</ele>
        <time>2016-03-14T15:39:08Z</time>
      </trkpt>
      <trkpt lat="48.31836" lon="-2.91335">
        <ele>187</ele>
        <time>2016-03-14T15:39:10Z</time>
      </trkpt>
      <trkpt lat="48.31836" lon="-2.91333">
        <ele>187</ele>
        <time>2016-03-14T15:39:11Z</time>
      </trkpt>
      <trkpt lat="48.31836" lon="-2.91332">
        <ele>187</ele>
        <time>2016-03-14T15:39:12Z</time>
      </trkpt>
      <trkpt lat="48.31836" lon="-2.9133">
        <ele>187</ele>
        <time>2016-03-14T15:39:13Z</time>
      </trkpt>
      <trkpt lat="48.31837" lon="-2.91328">
        <ele>187</ele>
        <time>2016-03-14T15:39:14Z</time>
      </trkpt>
      <trkpt lat="48.31837" lon="-2.91326">
        <ele>187</ele>
        <time>2016-03-14T15:39:15Z</time>
      </trkpt>
      <trkpt lat="48.31837" lon="-2.91324">
        <ele>187</ele>
        <time>2016-03-14T15:39:16Z</time>
      </trkpt>
      <trkpt lat="48.31837" lon="-2.91322">
        <ele>187</ele>
        <time>2016-03-14T15:39:17Z</time>
      </trkpt>
      <trkpt lat="48.31837" lon="-2.9132">
        <ele>187</ele>
        <time>2016-03-14T15:39:18Z</time>
      </trkpt>
      <trkpt lat="48.31838" lon="-2.91318">
        <ele>187</ele>
        <time>2016-03-14T15:39:19Z</time>
      </trkpt>
      <trkpt lat="48.31839" lon="-2.91317">
        <ele>187</ele>
        <time>2016-03-14T15:39:20Z</time>
      </trkpt>
      <trkpt lat="48.31839" lon="-2.91315">
        <ele>187</ele>
        <time>2016-03-14T15:39:21Z</time>
      </trkpt>
      <trkpt lat="48.31839" lon="-2.91313">
        <ele>187</ele>
        <time>2016-03-14T15:39:22Z</time>
      </trkpt>
      <trkpt lat="48.31839" lon="-2.91312">
        <ele>187</ele>
        <time>2016-03-14T15:39:23Z</time>
      </trkpt>
      <trkpt lat="48.3184" lon="-2.9131">
        <ele>187</ele>
        <time>2016-03-14T15:39:24Z</time>
      </trkpt>
      <trkpt lat="48.3184" lon="-2.91308">
        <ele>187</ele>
        <time>2016-03-14T15:39:25Z</time>
      </trkpt>
      <trkpt lat="48.3184" lon="-2.91306">
        <ele>187</ele>
        <time>2016-03-14T15:39:26Z</time>
      </trkpt>
      <trkpt lat="48.3184" lon="-2.91304">
        <ele>187</ele>
        <time>2016-03-14T15:39:27Z</time>
      </trkpt>
      <trkpt lat="48.3184" lon="-2.91302">
        <ele>186</ele>
        <time>2016-03-14T15:39:28Z</time>
      </trkpt>
      <trkpt lat="48.3184" lon="-2.913">
        <ele>186</ele>
        <time>2016-03-14T15:39:29Z</time>
      </trkpt>
      <trkpt lat="48.3184" lon="-2.91299">
        <ele>186</ele>
        <time>2016-03-14T15:39:30Z</time>
      </trkpt>
      <trkpt lat="48.3184" lon="-2.91295">
        <ele>186</ele>
        <time>2016-03-14T15:39:32Z</time>
      </trkpt>
      <trkpt lat="48.31841" lon="-2.91294">
        <ele>185</ele>
        <time>2016-03-14T15:39:33Z</time>
      </trkpt>
      <trkpt lat="48.31841" lon="-2.91292">
        <ele>185</ele>
        <time>2016-03-14T15:39:34Z</time>
      </trkpt>
      <trkpt lat="48.31841" lon="-2.9129">
        <ele>185</ele>
        <time>2016-03-14T15:39:35Z</time>
      </trkpt>
      <trkpt lat="48.31841" lon="-2.91288">
        <ele>185</ele>
        <time>2016-03-14T15:39:36Z</time>
      </trkpt>
      <trkpt lat="48.31841" lon="-2.91286">
        <ele>184</ele>
        <time>2016-03-14T15:39:37Z</time>
      </trkpt>
      <trkpt lat="48.31841" lon="-2.91284">
        <ele>184</ele>
        <time>2016-03-14T15:39:38Z</time>
      </trkpt>
      <trkpt lat="48.31841" lon="-2.91283">
        <ele>184</ele>
        <time>2016-03-14T15:39:39Z</time>
      </trkpt>
      <trkpt lat="48.31841" lon="-2.91281">
        <ele>184</ele>
        <time>2016-03-14T15:39:40Z</time>
      </trkpt>
      <trkpt lat="48.31842" lon="-2.91279">
        <ele>184</ele>
        <time>2016-03-14T15:39:41Z</time>
      </trkpt>
      <trkpt lat="48.31842" lon="-2.91278">
        <ele>184</ele>
        <time>2016-03-14T15:39:42Z</time>
      </trkpt>
      <trkpt lat="48.31842" lon="-2.91276">
        <ele>184</ele>
        <time>2016-03-14T15:39:43Z</time>
      </trkpt>
      <trkpt lat="48.31842" lon="-2.91274">
        <ele>184</ele>
        <time>2016-03-14T15:39:44Z</time>
      </trkpt>
      <trkpt lat="48.31843" lon="-2.91272">
        <ele>184</ele>
        <time>2016-03-14T15:39:45Z</time>
      </trkpt>
      <trkpt lat="48.31843" lon="-2.9127">
        <ele>184</ele>
        <time>2016-03-14T15:39:46Z</time>
      </trkpt>
      <trkpt lat="48.31843" lon="-2.91268">
        <ele>184</ele>
        <time>2016-03-14T15:39:47Z</time>
      </trkpt>
      <trkpt lat="48.31844" lon="-2.91266">
        <ele>184</ele>
        <time>2016-03-14T15:39:48Z</time>
      </trkpt>
      <trkpt lat="48.31844" lon="-2.91264">
        <ele>183</ele>
        <time>2016-03-14T15:39:49Z</time>
      </trkpt>
      <trkpt lat="48.31844" lon="-2.91262">
        <ele>183</ele>
        <time>2016-03-14T15:39:50Z</time>
      </trkpt>
      <trkpt lat="48.31844" lon="-2.91261">
        <ele>183</ele>
        <time>2016-03-14T15:39:51Z</time>
      </trkpt>
      <trkpt lat="48.31844" lon="-2.91259">
        <ele>183</ele>
        <time>2016-03-14T15:39:52Z</time>
      </trkpt>
      <trkpt lat="48.31844" lon="-2.91257">
        <ele>183</ele>
        <time>2016-03-14T15:39:55Z</time>
      </trkpt>
      <trkpt lat="48.31844" lon="-2.91255">
        <ele>183</ele>
        <time>2016-03-14T15:39:58Z</time>
      </trkpt>
      <trkpt lat="48.31845" lon="-2.91252">
        <ele>183</ele>
        <time>2016-03-14T15:40:02Z</time>
      </trkpt>
      <trkpt lat="48.31845" lon="-2.9125">
        <ele>183</ele>
        <time>2016-03-14T15:40:03Z</time>
      </trkpt>
      <trkpt lat="48.31845" lon="-2.91248">
        <ele>183</ele>
        <time>2016-03-14T15:40:04Z</time>
      </trkpt>
      <trkpt lat="48.31845" lon="-2.91246">
        <ele>183</ele>
        <time>2016-03-14T15:40:05Z</time>
      </trkpt>
      <trkpt lat="48.31845" lon="-2.91244">
        <ele>183</ele>
        <time>2016-03-14T15:40:06Z</time>
      </trkpt>
      <trkpt lat="48.31846" lon="-2.91242">
        <ele>183</ele>
        <time>2016-03-14T15:40:07Z</time>
      </trkpt>
      <trkpt lat="48.31846" lon="-2.9124">
        <ele>183</ele>
        <time>2016-03-14T15:40:08Z</time>
      </trkpt>
      <trkpt lat="48.31846" lon="-2.91238">
        <ele>183</ele>
        <time>2016-03-14T15:40:09Z</time>
      </trkpt>
      <trkpt lat="48.31846" lon="-2.91236">
        <ele>182</ele>
        <time>2016-03-14T15:40:10Z</time>
      </trkpt>
      <trkpt lat="48.31846" lon="-2.91234">
        <ele>182</ele>
        <time>2016-03-14T15:40:11Z</time>
      </trkpt>
      <trkpt lat="48.31846" lon="-2.91232">
        <ele>182</ele>
        <time>2016-03-14T15:40:12Z</time>
      </trkpt>
      <trkpt lat="48.31846" lon="-2.91231">
        <ele>182</ele>
        <time>2016-03-14T15:40:13Z</time>
      </trkpt>
      <trkpt lat="48.31847" lon="-2.91229">
        <ele>181</ele>
        <time>2016-03-14T15:40:14Z</time>
      </trkpt>
      <trkpt lat="48.31847" lon="-2.91226">
        <ele>181</ele>
        <time>2016-03-14T15:40:15Z</time>
      </trkpt>
      <trkpt lat="48.31847" lon="-2.91225">
        <ele>181</ele>
        <time>2016-03-14T15:40:16Z</time>
      </trkpt>
      <trkpt lat="48.31847" lon="-2.91223">
        <ele>181</ele>
        <time>2016-03-14T15:40:17Z</time>
      </trkpt>
      <trkpt lat="48.31847" lon="-2.9122">
        <ele>181</ele>
        <time>2016-03-14T15:40:18Z</time>
      </trkpt>
      <trkpt lat="48.31847" lon="-2.91218">
        <ele>180</ele>
        <time>2016-03-14T15:40:19Z</time>
      </trkpt>
      <trkpt lat="48.31847" lon="-2.91216">
        <ele>180</ele>
        <time>2016-03-14T15:40:20Z</time>
      </trkpt>
      <trkpt lat="48.31847" lon="-2.91214">
        <ele>180</ele>
        <time>2016-03-14T15:40:21Z</time>
      </trkpt>
      <trkpt lat="48.31847" lon="-2.91212">
        <ele>179</ele>
        <time>2016-03-14T15:40:22Z</time>
      </trkpt>
      <trkpt lat="48.31846" lon="-2.91211">
        <ele>179</ele>
        <time>2016-03-14T15:40:23Z</time>
      </trkpt>
      <trkpt lat="48.31846" lon="-2.91209">
        <ele>179</ele>
        <time>2016-03-14T15:40:24Z</time>
      </trkpt>
      <trkpt lat="48.31846" lon="-2.91207">
        <ele>178</ele>
        <time>2016-03-14T15:40:25Z</time>
      </trkpt>
      <trkpt lat="48.31846" lon="-2.91205">
        <ele>178</ele>
        <time>2016-03-14T15:40:26Z</time>
      </trkpt>
      <trkpt lat="48.31846" lon="-2.91203">
        <ele>177</ele>
        <time>2016-03-14T15:40:27Z</time>
      </trkpt>
      <trkpt lat="48.31846" lon="-2.91201">
        <ele>177</ele>
        <time>2016-03-14T15:40:28Z</time>
      </trkpt>
      <trkpt lat="48.31845" lon="-2.91199">
        <ele>176</ele>
        <time>2016-03-14T15:40:29Z</time>
      </trkpt>
      <trkpt lat="48.31845" lon="-2.91197">
        <ele>176</ele>
        <time>2016-03-14T15:40:30Z</time>
      </trkpt>
      <trkpt lat="48.31845" lon="-2.91196">
        <ele>175</ele>
        <time>2016-03-14T15:40:31Z</time>
      </trkpt>
      <trkpt lat="48.31844" lon="-2.91193">
        <ele>175</ele>
        <time>2016-03-14T15:40:32Z</time>
      </trkpt>
      <trkpt lat="48.31844" lon="-2.91191">
        <ele>175</ele>
        <time>2016-03-14T15:40:33Z</time>
      </trkpt>
      <trkpt lat="48.31844" lon="-2.91189">
        <ele>174</ele>
        <time>2016-03-14T15:40:34Z</time>
      </trkpt>
      <trkpt lat="48.31844" lon="-2.91188">
        <ele>174</ele>
        <time>2016-03-14T15:40:35Z</time>
      </trkpt>
      <trkpt lat="48.31844" lon="-2.91185">
        <ele>174</ele>
        <time>2016-03-14T15:40:36Z</time>
      </trkpt>
      <trkpt lat="48.31844" lon="-2.91183">
        <ele>173</ele>
        <time>2016-03-14T15:40:37Z</time>
      </trkpt>
      <trkpt lat="48.31843" lon="-2.91182">
        <ele>173</ele>
        <time>2016-03-14T15:40:38Z</time>
      </trkpt>
      <trkpt lat="48.31843" lon="-2.9118">
        <ele>173</ele>
        <time>2016-03-14T15:40:39Z</time>
      </trkpt>
      <trkpt lat="48.31843" lon="-2.91178">
        <ele>172</ele>
        <time>2016-03-14T15:40:40Z</time>
      </trkpt>
      <trkpt lat="48.31843" lon="-2.91176">
        <ele>172</ele>
        <time>2016-03-14T15:40:41Z</time>
      </trkpt>
      <trkpt lat="48.31843" lon="-2.91174">
        <ele>172</ele>
        <time>2016-03-14T15:40:42Z</time>
      </trkpt>
      <trkpt lat="48.31842" lon="-2.91173">
        <ele>172</ele>
        <time>2016-03-14T15:40:43Z</time>
      </trkpt>
      <trkpt lat="48.31842" lon="-2.91171">
        <ele>171</ele>
        <time>2016-03-14T15:40:44Z</time>
      </trkpt>
      <trkpt lat="48.31842" lon="-2.91169">
        <ele>171</ele>
        <time>2016-03-14T15:40:45Z</time>
      </trkpt>
      <trkpt lat="48.31842" lon="-2.91167">
        <ele>171</ele>
        <time>2016-03-14T15:40:46Z</time>
      </trkpt>
      <trkpt lat="48.31842" lon="-2.91165">
        <ele>171</ele>
        <time>2016-03-14T15:40:47Z</time>
      </trkpt>
      <trkpt lat="48.31842" lon="-2.91164">
        <ele>170</ele>
        <time>2016-03-14T15:40:48Z</time>
      </trkpt>
      <trkpt lat="48.31845" lon="-2.91162">
        <ele>170</ele>
        <time>2016-03-14T15:40:49Z</time>
      </trkpt>
      <trkpt lat="48.31846" lon="-2.91161">
        <ele>170</ele>
        <time>2016-03-14T15:40:50Z</time>
      </trkpt>
      <trkpt lat="48.31848" lon="-2.9116">
        <ele>170</ele>
        <time>2016-03-14T15:40:51Z</time>
      </trkpt>
      <trkpt lat="48.3185" lon="-2.91157">
        <ele>170</ele>
        <time>2016-03-14T15:40:53Z</time>
      </trkpt>
      <trkpt lat="48.31852" lon="-2.91156">
        <ele>170</ele>
        <time>2016-03-14T15:40:54Z</time>
      </trkpt>
      <trkpt lat="48.31854" lon="-2.91156">
        <ele>170</ele>
        <time>2016-03-14T15:40:55Z</time>
      </trkpt>
      <trkpt lat="48.31855" lon="-2.91154">
        <ele>170</ele>
        <time>2016-03-14T15:40:57Z</time>
      </trkpt>
      <trkpt lat="48.31857" lon="-2.91152">
        <ele>170</ele>
        <time>2016-03-14T15:40:59Z</time>
      </trkpt>
      <trkpt lat="48.31858" lon="-2.9115">
        <ele>170</ele>
        <time>2016-03-14T15:41:01Z</time>
      </trkpt>
      <trkpt lat="48.3186" lon="-2.91149">
        <ele>170</ele>
        <time>2016-03-14T15:41:02Z</time>
      </trkpt>
      <trkpt lat="48.31861" lon="-2.91148">
        <ele>170</ele>
        <time>2016-03-14T15:41:04Z</time>
      </trkpt>
      <trkpt lat="48.31863" lon="-2.91146">
        <ele>170</ele>
        <time>2016-03-14T15:41:06Z</time>
      </trkpt>
      <trkpt lat="48.31865" lon="-2.91145">
        <ele>170</ele>
        <time>2016-03-14T15:41:08Z</time>
      </trkpt>
      <trkpt lat="48.31866" lon="-2.91144">
        <ele>170</ele>
        <time>2016-03-14T15:41:09Z</time>
      </trkpt>
      <trkpt lat="48.31868" lon="-2.91144">
        <ele>170</ele>
        <time>2016-03-14T15:41:10Z</time>
      </trkpt>
      <trkpt lat="48.31869" lon="-2.91142">
        <ele>170</ele>
        <time>2016-03-14T15:41:12Z</time>
      </trkpt>
      <trkpt lat="48.31871" lon="-2.91141">
        <ele>170</ele>
        <time>2016-03-14T15:41:14Z</time>
      </trkpt>
      <trkpt lat="48.31873" lon="-2.91141">
        <ele>170</ele>
        <time>2016-03-14T15:41:15Z</time>
      </trkpt>
      <trkpt lat="48.31874" lon="-2.91141">
        <ele>170</ele>
        <time>2016-03-14T15:41:16Z</time>
      </trkpt>
      <trkpt lat="48.31877" lon="-2.9114">
        <ele>170</ele>
        <time>2016-03-14T15:41:18Z</time>
      </trkpt>
      <trkpt lat="48.31878" lon="-2.9114">
        <ele>170</ele>
        <time>2016-03-14T15:41:19Z</time>
      </trkpt>
      <trkpt lat="48.3188" lon="-2.9114">
        <ele>170</ele>
        <time>2016-03-14T15:41:20Z</time>
      </trkpt>
      <trkpt lat="48.31881" lon="-2.91139">
        <ele>170</ele>
        <time>2016-03-14T15:41:21Z</time>
      </trkpt>
      <trkpt lat="48.31883" lon="-2.91139">
        <ele>170</ele>
        <time>2016-03-14T15:41:22Z</time>
      </trkpt>
      <trkpt lat="48.31884" lon="-2.91138">
        <ele>170</ele>
        <time>2016-03-14T15:41:23Z</time>
      </trkpt>
      <trkpt lat="48.31886" lon="-2.91138">
        <ele>170</ele>
        <time>2016-03-14T15:41:24Z</time>
      </trkpt>
      <trkpt lat="48.31887" lon="-2.91138">
        <ele>170</ele>
        <time>2016-03-14T15:41:25Z</time>
      </trkpt>
      <trkpt lat="48.31889" lon="-2.91138">
        <ele>170</ele>
        <time>2016-03-14T15:41:26Z</time>
      </trkpt>
      <trkpt lat="48.31891" lon="-2.91137">
        <ele>170</ele>
        <time>2016-03-14T15:41:27Z</time>
      </trkpt>
      <trkpt lat="48.31892" lon="-2.91137">
        <ele>170</ele>
        <time>2016-03-14T15:41:28Z</time>
      </trkpt>
      <trkpt lat="48.31894" lon="-2.91137">
        <ele>170</ele>
        <time>2016-03-14T15:41:29Z</time>
      </trkpt>
      <trkpt lat="48.31895" lon="-2.91136">
        <ele>170</ele>
        <time>2016-03-14T15:41:30Z</time>
      </trkpt>
      <trkpt lat="48.31896" lon="-2.91136">
        <ele>170</ele>
        <time>2016-03-14T15:41:31Z</time>
      </trkpt>
      <trkpt lat="48.31897" lon="-2.91136">
        <ele>170</ele>
        <time>2016-03-14T15:41:32Z</time>
      </trkpt>
      <trkpt lat="48.31898" lon="-2.91136">
        <ele>170</ele>
        <time>2016-03-14T15:41:33Z</time>
      </trkpt>
      <trkpt lat="48.319" lon="-2.91136">
        <ele>170</ele>
        <time>2016-03-14T15:41:34Z</time>
      </trkpt>
      <trkpt lat="48.31902" lon="-2.91135">
        <ele>170</ele>
        <time>2016-03-14T15:41:36Z</time>
      </trkpt>
      <trkpt lat="48.31903" lon="-2.91134">
        <ele>170</ele>
        <time>2016-03-14T15:41:37Z</time>
      </trkpt>
      <trkpt lat="48.31905" lon="-2.91134">
        <ele>170</ele>
        <time>2016-03-14T15:41:38Z</time>
      </trkpt>
      <trkpt lat="48.31906" lon="-2.91133">
        <ele>170</ele>
        <time>2016-03-14T15:41:39Z</time>
      </trkpt>
      <trkpt lat="48.31907" lon="-2.91133">
        <ele>170</ele>
        <time>2016-03-14T15:41:40Z</time>
      </trkpt>
      <trkpt lat="48.31908" lon="-2.91133">
        <ele>170</ele>
        <time>2016-03-14T15:41:41Z</time>
      </trkpt>
      <trkpt lat="48.3191" lon="-2.91133">
        <ele>170</ele>
        <time>2016-03-14T15:41:42Z</time>
      </trkpt>
      <trkpt lat="48.31911" lon="-2.91132">
        <ele>170</ele>
        <time>2016-03-14T15:41:43Z</time>
      </trkpt>
      <trkpt lat="48.31912" lon="-2.91132">
        <ele>170</ele>
        <time>2016-03-14T15:41:44Z</time>
      </trkpt>
      <trkpt lat="48.31913" lon="-2.91132">
        <ele>170</ele>
        <time>2016-03-14T15:41:45Z</time>
      </trkpt>
      <trkpt lat="48.31915" lon="-2.91132">
        <ele>170</ele>
        <time>2016-03-14T15:41:46Z</time>
      </trkpt>
      <trkpt lat="48.31916" lon="-2.91131">
        <ele>170</ele>
        <time>2016-03-14T15:41:47Z</time>
      </trkpt>
      <trkpt lat="48.31917" lon="-2.91131">
        <ele>170</ele>
        <time>2016-03-14T15:41:48Z</time>
      </trkpt>
      <trkpt lat="48.31918" lon="-2.91131">
        <ele>170</ele>
        <time>2016-03-14T15:41:49Z</time>
      </trkpt>
      <trkpt lat="48.3192" lon="-2.91131">
        <ele>169</ele>
        <time>2016-03-14T15:41:50Z</time>
      </trkpt>
      <trkpt lat="48.31921" lon="-2.9113">
        <ele>169</ele>
        <time>2016-03-14T15:41:51Z</time>
      </trkpt>
      <trkpt lat="48.31923" lon="-2.91129">
        <ele>169</ele>
        <time>2016-03-14T15:41:53Z</time>
      </trkpt>
      <trkpt lat="48.31925" lon="-2.91129">
        <ele>168</ele>
        <time>2016-03-14T15:41:55Z</time>
      </trkpt>
      <trkpt lat="48.31926" lon="-2.91128">
        <ele>168</ele>
        <time>2016-03-14T15:41:56Z</time>
      </trkpt>
      <trkpt lat="48.31928" lon="-2.91128">
        <ele>168</ele>
        <time>2016-03-14T15:41:57Z</time>
      </trkpt>
      <trkpt lat="48.31929" lon="-2.91128">
        <ele>168</ele>
        <time>2016-03-14T15:41:58Z</time>
      </trkpt>
      <trkpt lat="48.31931" lon="-2.91127">
        <ele>168</ele>
        <time>2016-03-14T15:41:59Z</time>
      </trkpt>
      <trkpt lat="48.31932" lon="-2.91127">
        <ele>168</ele>
        <time>2016-03-14T15:42:00Z</time>
      </trkpt>
      <trkpt lat="48.31934" lon="-2.91127">
        <ele>168</ele>
        <time>2016-03-14T15:42:01Z</time>
      </trkpt>
      <trkpt lat="48.31936" lon="-2.91127">
        <ele>168</ele>
        <time>2016-03-14T15:42:02Z</time>
      </trkpt>
      <trkpt lat="48.31937" lon="-2.91127">
        <ele>168</ele>
        <time>2016-03-14T15:42:03Z</time>
      </trkpt>
      <trkpt lat="48.31938" lon="-2.91126">
        <ele>168</ele>
        <time>2016-03-14T15:42:04Z</time>
      </trkpt>
      <trkpt lat="48.3194" lon="-2.91126">
        <ele>168</ele>
        <time>2016-03-14T15:42:06Z</time>
      </trkpt>
      <trkpt lat="48.31942" lon="-2.91125">
        <ele>168</ele>
        <time>2016-03-14T15:42:07Z</time>
      </trkpt>
      <trkpt lat="48.31944" lon="-2.91124">
        <ele>168</ele>
        <time>2016-03-14T15:42:09Z</time>
      </trkpt>
      <trkpt lat="48.31945" lon="-2.91124">
        <ele>168</ele>
        <time>2016-03-14T15:42:10Z</time>
      </trkpt>
      <trkpt lat="48.31947" lon="-2.91125">
        <ele>168</ele>
        <time>2016-03-14T15:42:11Z</time>
      </trkpt>
      <trkpt lat="48.31948" lon="-2.91124">
        <ele>168</ele>
        <time>2016-03-14T15:42:12Z</time>
      </trkpt>
      <trkpt lat="48.3195" lon="-2.91124">
        <ele>168</ele>
        <time>2016-03-14T15:42:13Z</time>
      </trkpt>
      <trkpt lat="48.31952" lon="-2.91124">
        <ele>168</ele>
        <time>2016-03-14T15:42:14Z</time>
      </trkpt>
      <trkpt lat="48.31953" lon="-2.91124">
        <ele>168</ele>
        <time>2016-03-14T15:42:15Z</time>
      </trkpt>
      <trkpt lat="48.31954" lon="-2.91124">
        <ele>168</ele>
        <time>2016-03-14T15:42:16Z</time>
      </trkpt>
      <trkpt lat="48.31956" lon="-2.91124">
        <ele>168</ele>
        <time>2016-03-14T15:42:18Z</time>
      </trkpt>
      <trkpt lat="48.31958" lon="-2.91123">
        <ele>169</ele>
        <time>2016-03-14T15:42:20Z</time>
      </trkpt>
      <trkpt lat="48.3196" lon="-2.91124">
        <ele>169</ele>
        <time>2016-03-14T15:42:21Z</time>
      </trkpt>
      <trkpt lat="48.31961" lon="-2.91123">
        <ele>170</ele>
        <time>2016-03-14T15:42:22Z</time>
      </trkpt>
      <trkpt lat="48.31963" lon="-2.91123">
        <ele>170</ele>
        <time>2016-03-14T15:42:23Z</time>
      </trkpt>
      <trkpt lat="48.31964" lon="-2.91123">
        <ele>170</ele>
        <time>2016-03-14T15:42:24Z</time>
      </trkpt>
      <trkpt lat="48.31966" lon="-2.91123">
        <ele>171</ele>
        <time>2016-03-14T15:42:25Z</time>
      </trkpt>
      <trkpt lat="48.31968" lon="-2.91123">
        <ele>171</ele>
        <time>2016-03-14T15:42:27Z</time>
      </trkpt>
      <trkpt lat="48.31969" lon="-2.91123">
        <ele>171</ele>
        <time>2016-03-14T15:42:28Z</time>
      </trkpt>
      <trkpt lat="48.3197" lon="-2.91123">
        <ele>172</ele>
        <time>2016-03-14T15:42:29Z</time>
      </trkpt>
      <trkpt lat="48.31972" lon="-2.91122">
        <ele>172</ele>
        <time>2016-03-14T15:42:31Z</time>
      </trkpt>
      <trkpt lat="48.31973" lon="-2.91122">
        <ele>172</ele>
        <time>2016-03-14T15:42:32Z</time>
      </trkpt>
      <trkpt lat="48.31975" lon="-2.91122">
        <ele>172</ele>
        <time>2016-03-14T15:42:33Z</time>
      </trkpt>
      <trkpt lat="48.31976" lon="-2.91122">
        <ele>173</ele>
        <time>2016-03-14T15:42:34Z</time>
      </trkpt>
      <trkpt lat="48.31977" lon="-2.91122">
        <ele>173</ele>
        <time>2016-03-14T15:42:35Z</time>
      </trkpt>
      <trkpt lat="48.3198" lon="-2.91122">
        <ele>173</ele>
        <time>2016-03-14T15:42:37Z</time>
      </trkpt>
      <trkpt lat="48.31982" lon="-2.91122">
        <ele>173</ele>
        <time>2016-03-14T15:42:38Z</time>
      </trkpt>
      <trkpt lat="48.31983" lon="-2.91122">
        <ele>173</ele>
        <time>2016-03-14T15:42:39Z</time>
      </trkpt>
      <trkpt lat="48.31985" lon="-2.91121">
        <ele>174</ele>
        <time>2016-03-14T15:42:41Z</time>
      </trkpt>
      <trkpt lat="48.31986" lon="-2.9112">
        <ele>174</ele>
        <time>2016-03-14T15:42:42Z</time>
      </trkpt>
      <trkpt lat="48.31987" lon="-2.91121">
        <ele>175</ele>
        <time>2016-03-14T15:42:43Z</time>
      </trkpt>
      <trkpt lat="48.3199" lon="-2.9112">
        <ele>175</ele>
        <time>2016-03-14T15:42:45Z</time>
      </trkpt>
      <trkpt lat="48.31992" lon="-2.9112">
        <ele>175</ele>
        <time>2016-03-14T15:42:47Z</time>
      </trkpt>
      <trkpt lat="48.31994" lon="-2.91119">
        <ele>175</ele>
        <time>2016-03-14T15:42:49Z</time>
      </trkpt>
      <trkpt lat="48.31996" lon="-2.91119">
        <ele>176</ele>
        <time>2016-03-14T15:42:51Z</time>
      </trkpt>
      <trkpt lat="48.31997" lon="-2.91119">
        <ele>176</ele>
        <time>2016-03-14T15:42:52Z</time>
      </trkpt>
      <trkpt lat="48.31999" lon="-2.91119">
        <ele>176</ele>
        <time>2016-03-14T15:42:54Z</time>
      </trkpt>
      <trkpt lat="48.32001" lon="-2.91119">
        <ele>176</ele>
        <time>2016-03-14T15:42:56Z</time>
      </trkpt>
      <trkpt lat="48.32003" lon="-2.91118">
        <ele>176</ele>
        <time>2016-03-14T15:42:58Z</time>
      </trkpt>
      <trkpt lat="48.32005" lon="-2.91117">
        <ele>176</ele>
        <time>2016-03-14T15:43:00Z</time>
      </trkpt>
      <trkpt lat="48.32007" lon="-2.91116">
        <ele>176</ele>
        <time>2016-03-14T15:43:02Z</time>
      </trkpt>
      <trkpt lat="48.32009" lon="-2.91115">
        <ele>176</ele>
        <time>2016-03-14T15:43:04Z</time>
      </trkpt>
      <trkpt lat="48.32011" lon="-2.91114">
        <ele>176</ele>
        <time>2016-03-14T15:43:06Z</time>
      </trkpt>
      <trkpt lat="48.32012" lon="-2.91114">
        <ele>176</ele>
        <time>2016-03-14T15:43:07Z</time>
      </trkpt>
      <trkpt lat="48.32014" lon="-2.91113">
        <ele>176</ele>
        <time>2016-03-14T15:43:09Z</time>
      </trkpt>
      <trkpt lat="48.32016" lon="-2.91112">
        <ele>176</ele>
        <time>2016-03-14T15:43:11Z</time>
      </trkpt>
      <trkpt lat="48.32018" lon="-2.91111">
        <ele>176</ele>
        <time>2016-03-14T15:43:13Z</time>
      </trkpt>
      <trkpt lat="48.32019" lon="-2.9111">
        <ele>176</ele>
        <time>2016-03-14T15:43:15Z</time>
      </trkpt>
      <trkpt lat="48.32021" lon="-2.91108">
        <ele>176</ele>
        <time>2016-03-14T15:43:17Z</time>
      </trkpt>
      <trkpt lat="48.32024" lon="-2.91107">
        <ele>176</ele>
        <time>2016-03-14T15:43:19Z</time>
      </trkpt>
      <trkpt lat="48.32025" lon="-2.91105">
        <ele>176</ele>
        <time>2016-03-14T15:43:21Z</time>
      </trkpt>
      <trkpt lat="48.32027" lon="-2.91103">
        <ele>177</ele>
        <time>2016-03-14T15:43:23Z</time>
      </trkpt>
      <trkpt lat="48.32028" lon="-2.91102">
        <ele>177</ele>
        <time>2016-03-14T15:43:24Z</time>
      </trkpt>
      <trkpt lat="48.3203" lon="-2.91101">
        <ele>177</ele>
        <time>2016-03-14T15:43:26Z</time>
      </trkpt>
      <trkpt lat="48.32032" lon="-2.911">
        <ele>177</ele>
        <time>2016-03-14T15:43:27Z</time>
      </trkpt>
      <trkpt lat="48.32033" lon="-2.91099">
        <ele>177</ele>
        <time>2016-03-14T15:43:28Z</time>
      </trkpt>
      <trkpt lat="48.32035" lon="-2.91097">
        <ele>177</ele>
        <time>2016-03-14T15:43:30Z</time>
      </trkpt>
      <trkpt lat="48.32036" lon="-2.91095">
        <ele>177</ele>
        <time>2016-03-14T15:43:32Z</time>
      </trkpt>
      <trkpt lat="48.32038" lon="-2.91093">
        <ele>177</ele>
        <time>2016-03-14T15:43:34Z</time>
      </trkpt>
      <trkpt lat="48.32039" lon="-2.91091">
        <ele>177</ele>
        <time>2016-03-14T15:43:36Z</time>
      </trkpt>
      <trkpt lat="48.32041" lon="-2.91089">
        <ele>177</ele>
        <time>2016-03-14T15:43:38Z</time>
      </trkpt>
      <trkpt lat="48.32042" lon="-2.91087">
        <ele>177</ele>
        <time>2016-03-14T15:43:40Z</time>
      </trkpt>
      <trkpt lat="48.32044" lon="-2.91086">
        <ele>177</ele>
        <time>2016-03-14T15:43:42Z</time>
      </trkpt>
      <trkpt lat="48.32045" lon="-2.91084">
        <ele>177</ele>
        <time>2016-03-14T15:43:44Z</time>
      </trkpt>
      <trkpt lat="48.32046" lon="-2.91081">
        <ele>177</ele>
        <time>2016-03-14T15:43:46Z</time>
      </trkpt>
      <trkpt lat="48.32047" lon="-2.91079">
        <ele>177</ele>
        <time>2016-03-14T15:43:48Z</time>
      </trkpt>
      <trkpt lat="48.32049" lon="-2.91076">
        <ele>177</ele>
        <time>2016-03-14T15:43:50Z</time>
      </trkpt>
      <trkpt lat="48.32051" lon="-2.91074">
        <ele>177</ele>
        <time>2016-03-14T15:43:52Z</time>
      </trkpt>
      <trkpt lat="48.32052" lon="-2.91072">
        <ele>177</ele>
        <time>2016-03-14T15:43:54Z</time>
      </trkpt>
      <trkpt lat="48.32053" lon="-2.9107">
        <ele>177</ele>
        <time>2016-03-14T15:43:56Z</time>
      </trkpt>
      <trkpt lat="48.32055" lon="-2.91068">
        <ele>178</ele>
        <time>2016-03-14T15:44:02Z</time>
      </trkpt>
      <trkpt lat="48.32056" lon="-2.91067">
        <ele>178</ele>
        <time>2016-03-14T15:44:05Z</time>
      </trkpt>
      <trkpt lat="48.32058" lon="-2.91065">
        <ele>179</ele>
        <time>2016-03-14T15:44:07Z</time>
      </trkpt>
      <trkpt lat="48.32059" lon="-2.91064">
        <ele>179</ele>
        <time>2016-03-14T15:44:09Z</time>
      </trkpt>
      <trkpt lat="48.32061" lon="-2.91062">
        <ele>179</ele>
        <time>2016-03-14T15:44:11Z</time>
      </trkpt>
      <trkpt lat="48.32062" lon="-2.91059">
        <ele>179</ele>
        <time>2016-03-14T15:44:13Z</time>
      </trkpt>
      <trkpt lat="48.32063" lon="-2.91057">
        <ele>179</ele>
        <time>2016-03-14T15:44:15Z</time>
      </trkpt>
      <trkpt lat="48.32064" lon="-2.91054">
        <ele>179</ele>
        <time>2016-03-14T15:44:17Z</time>
      </trkpt>
      <trkpt lat="48.32066" lon="-2.91052">
        <ele>179</ele>
        <time>2016-03-14T15:44:19Z</time>
      </trkpt>
      <trkpt lat="48.32067" lon="-2.91049">
        <ele>179</ele>
        <time>2016-03-14T15:44:21Z</time>
      </trkpt>
      <trkpt lat="48.32069" lon="-2.91046">
        <ele>179</ele>
        <time>2016-03-14T15:44:23Z</time>
      </trkpt>
      <trkpt lat="48.3207" lon="-2.91044">
        <ele>179</ele>
        <time>2016-03-14T15:44:25Z</time>
      </trkpt>
      <trkpt lat="48.32071" lon="-2.91042">
        <ele>179</ele>
        <time>2016-03-14T15:44:26Z</time>
      </trkpt>
      <trkpt lat="48.32072" lon="-2.9104">
        <ele>179</ele>
        <time>2016-03-14T15:44:27Z</time>
      </trkpt>
      <trkpt lat="48.32072" lon="-2.91039">
        <ele>179</ele>
        <time>2016-03-14T15:44:28Z</time>
      </trkpt>
      <trkpt lat="48.32074" lon="-2.91036">
        <ele>179</ele>
        <time>2016-03-14T15:44:30Z</time>
      </trkpt>
      <trkpt lat="48.32076" lon="-2.91034">
        <ele>179</ele>
        <time>2016-03-14T15:44:32Z</time>
      </trkpt>
      <trkpt lat="48.32077" lon="-2.91033">
        <ele>179</ele>
        <time>2016-03-14T15:44:33Z</time>
      </trkpt>
      <trkpt lat="48.32077" lon="-2.91031">
        <ele>179</ele>
        <time>2016-03-14T15:44:34Z</time>
      </trkpt>
      <trkpt lat="48.32078" lon="-2.9103">
        <ele>179</ele>
        <time>2016-03-14T15:44:35Z</time>
      </trkpt>
      <trkpt lat="48.32079" lon="-2.91026">
        <ele>179</ele>
        <time>2016-03-14T15:44:37Z</time>
      </trkpt>
      <trkpt lat="48.32079" lon="-2.91024">
        <ele>179</ele>
        <time>2016-03-14T15:44:39Z</time>
      </trkpt>
      <trkpt lat="48.3208" lon="-2.91021">
        <ele>179</ele>
        <time>2016-03-14T15:44:42Z</time>
      </trkpt>
      <trkpt lat="48.3208" lon="-2.91019">
        <ele>179</ele>
        <time>2016-03-14T15:44:44Z</time>
      </trkpt>
      <trkpt lat="48.3208" lon="-2.91018">
        <ele>179</ele>
        <time>2016-03-14T15:44:46Z</time>
      </trkpt>
      <trkpt lat="48.3208" lon="-2.91016">
        <ele>179</ele>
        <time>2016-03-14T15:45:07Z</time>
      </trkpt>
      <trkpt lat="48.32079" lon="-2.91013">
        <ele>179</ele>
        <time>2016-03-14T15:45:10Z</time>
      </trkpt>
      <trkpt lat="48.32078" lon="-2.91011">
        <ele>179</ele>
        <time>2016-03-14T15:45:12Z</time>
      </trkpt>
      <trkpt lat="48.32078" lon="-2.9101">
        <ele>179</ele>
        <time>2016-03-14T15:45:14Z</time>
      </trkpt>
      <trkpt lat="48.32077" lon="-2.91007">
        <ele>179</ele>
        <time>2016-03-14T15:45:18Z</time>
      </trkpt>
      <trkpt lat="48.32076" lon="-2.91006">
        <ele>179</ele>
        <time>2016-03-14T15:45:21Z</time>
      </trkpt>
      <trkpt lat="48.32075" lon="-2.91003">
        <ele>179</ele>
        <time>2016-03-14T15:45:38Z</time>
      </trkpt>
      <trkpt lat="48.32074" lon="-2.91001">
        <ele>179</ele>
        <time>2016-03-14T15:45:40Z</time>
      </trkpt>
      <trkpt lat="48.32072" lon="-2.90998">
        <ele>179</ele>
        <time>2016-03-14T15:45:42Z</time>
      </trkpt>
      <trkpt lat="48.32072" lon="-2.90996">
        <ele>179</ele>
        <time>2016-03-14T15:45:44Z</time>
      </trkpt>
      <trkpt lat="48.3207" lon="-2.90993">
        <ele>179</ele>
        <time>2016-03-14T15:45:46Z</time>
      </trkpt>
      <trkpt lat="48.32069" lon="-2.9099">
        <ele>179</ele>
        <time>2016-03-14T15:45:48Z</time>
      </trkpt>
      <trkpt lat="48.32069" lon="-2.90988">
        <ele>179</ele>
        <time>2016-03-14T15:45:50Z</time>
      </trkpt>
      <trkpt lat="48.32067" lon="-2.90985">
        <ele>179</ele>
        <time>2016-03-14T15:45:52Z</time>
      </trkpt>
      <trkpt lat="48.32066" lon="-2.90982">
        <ele>179</ele>
        <time>2016-03-14T15:45:54Z</time>
      </trkpt>
      <trkpt lat="48.32066" lon="-2.90979">
        <ele>179</ele>
        <time>2016-03-14T15:45:56Z</time>
      </trkpt>
      <trkpt lat="48.32065" lon="-2.90976">
        <ele>179</ele>
        <time>2016-03-14T15:45:58Z</time>
      </trkpt>
      <trkpt lat="48.32064" lon="-2.90973">
        <ele>179</ele>
        <time>2016-03-14T15:46:00Z</time>
      </trkpt>
      <trkpt lat="48.32064" lon="-2.90971">
        <ele>179</ele>
        <time>2016-03-14T15:46:01Z</time>
      </trkpt>
      <trkpt lat="48.32063" lon="-2.90968">
        <ele>179</ele>
        <time>2016-03-14T15:46:03Z</time>
      </trkpt>
      <trkpt lat="48.32062" lon="-2.90966">
        <ele>179</ele>
        <time>2016-03-14T15:46:05Z</time>
      </trkpt>
      <trkpt lat="48.32062" lon="-2.90964">
        <ele>179</ele>
        <time>2016-03-14T15:46:07Z</time>
      </trkpt>
      <trkpt lat="48.32061" lon="-2.90962">
        <ele>179</ele>
        <time>2016-03-14T15:46:08Z</time>
      </trkpt>
      <trkpt lat="48.32061" lon="-2.90959">
        <ele>179</ele>
        <time>2016-03-14T15:46:10Z</time>
      </trkpt>
      <trkpt lat="48.32059" lon="-2.90957">
        <ele>179</ele>
        <time>2016-03-14T15:46:12Z</time>
      </trkpt>
      <trkpt lat="48.32058" lon="-2.90954">
        <ele>179</ele>
        <time>2016-03-14T15:46:14Z</time>
      </trkpt>
      <trkpt lat="48.32056" lon="-2.90951">
        <ele>178</ele>
        <time>2016-03-14T15:46:16Z</time>
      </trkpt>
      <trkpt lat="48.32055" lon="-2.90948">
        <ele>178</ele>
        <time>2016-03-14T15:46:18Z</time>
      </trkpt>
      <trkpt lat="48.32053" lon="-2.90946">
        <ele>177</ele>
        <time>2016-03-14T15:46:20Z</time>
      </trkpt>
      <trkpt lat="48.32051" lon="-2.90943">
        <ele>177</ele>
        <time>2016-03-14T15:46:22Z</time>
      </trkpt>
      <trkpt lat="48.3205" lon="-2.90941">
        <ele>177</ele>
        <time>2016-03-14T15:46:24Z</time>
      </trkpt>
      <trkpt lat="48.32048" lon="-2.90938">
        <ele>177</ele>
        <time>2016-03-14T15:46:26Z</time>
      </trkpt>
      <trkpt lat="48.32046" lon="-2.90936">
        <ele>177</ele>
        <time>2016-03-14T15:46:28Z</time>
      </trkpt>
      <trkpt lat="48.32044" lon="-2.90934">
        <ele>176</ele>
        <time>2016-03-14T15:46:30Z</time>
      </trkpt>
      <trkpt lat="48.32042" lon="-2.90932">
        <ele>176</ele>
        <time>2016-03-14T15:46:32Z</time>
      </trkpt>
      <trkpt lat="48.32041" lon="-2.90931">
        <ele>176</ele>
        <time>2016-03-14T15:46:34Z</time>
      </trkpt>
      <trkpt lat="48.32039" lon="-2.90929">
        <ele>175</ele>
        <time>2016-03-14T15:46:36Z</time>
      </trkpt>
      <trkpt lat="48.32037" lon="-2.90928">
        <ele>175</ele>
        <time>2016-03-14T15:46:38Z</time>
      </trkpt>
      <trkpt lat="48.32035" lon="-2.90926">
        <ele>174</ele>
        <time>2016-03-14T15:46:40Z</time>
      </trkpt>
      <trkpt lat="48.32034" lon="-2.90925">
        <ele>174</ele>
        <time>2016-03-14T15:46:42Z</time>
      </trkpt>
      <trkpt lat="48.32032" lon="-2.90923">
        <ele>173</ele>
        <time>2016-03-14T15:46:44Z</time>
      </trkpt>
      <trkpt lat="48.3203" lon="-2.90921">
        <ele>172</ele>
        <time>2016-03-14T15:46:46Z</time>
      </trkpt>
      <trkpt lat="48.32028" lon="-2.9092">
        <ele>172</ele>
        <time>2016-03-14T15:46:48Z</time>
      </trkpt>
      <trkpt lat="48.32026" lon="-2.90918">
        <ele>172</ele>
        <time>2016-03-14T15:46:50Z</time>
      </trkpt>
      <trkpt lat="48.32024" lon="-2.90916">
        <ele>171</ele>
        <time>2016-03-14T15:46:52Z</time>
      </trkpt>
      <trkpt lat="48.32022" lon="-2.90915">
        <ele>171</ele>
        <time>2016-03-14T15:46:54Z</time>
      </trkpt>
      <trkpt lat="48.3202" lon="-2.90914">
        <ele>170</ele>
        <time>2016-03-14T15:46:56Z</time>
      </trkpt>
      <trkpt lat="48.32018" lon="-2.90912">
        <ele>170</ele>
        <time>2016-03-14T15:46:58Z</time>
      </trkpt>
      <trkpt lat="48.32016" lon="-2.90911">
        <ele>169</ele>
        <time>2016-03-14T15:47:00Z</time>
      </trkpt>
      <trkpt lat="48.32014" lon="-2.9091">
        <ele>169</ele>
        <time>2016-03-14T15:47:02Z</time>
      </trkpt>
      <trkpt lat="48.32013" lon="-2.90908">
        <ele>169</ele>
        <time>2016-03-14T15:47:04Z</time>
      </trkpt>
      <trkpt lat="48.32011" lon="-2.90907">
        <ele>168</ele>
        <time>2016-03-14T15:47:06Z</time>
      </trkpt>
      <trkpt lat="48.32009" lon="-2.90906">
        <ele>168</ele>
        <time>2016-03-14T15:47:08Z</time>
      </trkpt>
      <trkpt lat="48.32007" lon="-2.90903">
        <ele>167</ele>
        <time>2016-03-14T15:47:10Z</time>
      </trkpt>
      <trkpt lat="48.32005" lon="-2.90902">
        <ele>167</ele>
        <time>2016-03-14T15:47:12Z</time>
      </trkpt>
      <trkpt lat="48.32003" lon="-2.90901">
        <ele>167</ele>
        <time>2016-03-14T15:47:14Z</time>
      </trkpt>
      <trkpt lat="48.32002" lon="-2.909">
        <ele>166</ele>
        <time>2016-03-14T15:47:15Z</time>
      </trkpt>
      <trkpt lat="48.32" lon="-2.90898">
        <ele>166</ele>
        <time>2016-03-14T15:47:17Z</time>
      </trkpt>
      <trkpt lat="48.31999" lon="-2.90895">
        <ele>166</ele>
        <time>2016-03-14T15:47:19Z</time>
      </trkpt>
      <trkpt lat="48.31997" lon="-2.90893">
        <ele>166</ele>
        <time>2016-03-14T15:47:21Z</time>
      </trkpt>
      <trkpt lat="48.31995" lon="-2.90892">
        <ele>166</ele>
        <time>2016-03-14T15:47:23Z</time>
      </trkpt>
      <trkpt lat="48.31993" lon="-2.9089">
        <ele>166</ele>
        <time>2016-03-14T15:47:25Z</time>
      </trkpt>
      <trkpt lat="48.31992" lon="-2.90889">
        <ele>166</ele>
        <time>2016-03-14T15:47:26Z</time>
      </trkpt>
      <trkpt lat="48.31989" lon="-2.90887">
        <ele>166</ele>
        <time>2016-03-14T15:47:28Z</time>
      </trkpt>
      <trkpt lat="48.31988" lon="-2.90886">
        <ele>166</ele>
        <time>2016-03-14T15:47:29Z</time>
      </trkpt>
      <trkpt lat="48.31987" lon="-2.90884">
        <ele>166</ele>
        <time>2016-03-14T15:47:30Z</time>
      </trkpt>
      <trkpt lat="48.31985" lon="-2.90883">
        <ele>166</ele>
        <time>2016-03-14T15:47:31Z</time>
      </trkpt>
      <trkpt lat="48.31984" lon="-2.90881">
        <ele>166</ele>
        <time>2016-03-14T15:47:32Z</time>
      </trkpt>
      <trkpt lat="48.31983" lon="-2.9088">
        <ele>166</ele>
        <time>2016-03-14T15:47:33Z</time>
      </trkpt>
      <trkpt lat="48.31982" lon="-2.90876">
        <ele>166</ele>
        <time>2016-03-14T15:47:35Z</time>
      </trkpt>
      <trkpt lat="48.3198" lon="-2.90874">
        <ele>166</ele>
        <time>2016-03-14T15:47:37Z</time>
      </trkpt>
      <trkpt lat="48.31978" lon="-2.90871">
        <ele>166</ele>
        <time>2016-03-14T15:47:39Z</time>
      </trkpt>
      <trkpt lat="48.31977" lon="-2.9087">
        <ele>166</ele>
        <time>2016-03-14T15:47:41Z</time>
      </trkpt>
      <trkpt lat="48.31975" lon="-2.90868">
        <ele>166</ele>
        <time>2016-03-14T15:47:43Z</time>
      </trkpt>
      <trkpt lat="48.31973" lon="-2.90867">
        <ele>166</ele>
        <time>2016-03-14T15:47:45Z</time>
      </trkpt>
      <trkpt lat="48.31972" lon="-2.90867">
        <ele>166</ele>
        <time>2016-03-14T15:47:49Z</time>
      </trkpt>
      <trkpt lat="48.3197" lon="-2.90866">
        <ele>166</ele>
        <time>2016-03-14T15:47:52Z</time>
      </trkpt>
      <trkpt lat="48.31971" lon="-2.90868">
        <ele>167</ele>
        <time>2016-03-14T15:47:58Z</time>
      </trkpt>
      <trkpt lat="48.31972" lon="-2.90869">
        <ele>169</ele>
        <time>2016-03-14T15:48:02Z</time>
      </trkpt>
      <trkpt lat="48.31972" lon="-2.90867">
        <ele>169</ele>
        <time>2016-03-14T15:48:04Z</time>
      </trkpt>
      <trkpt lat="48.31971" lon="-2.90865">
        <ele>170</ele>
        <time>2016-03-14T15:48:07Z</time>
      </trkpt>
      <trkpt lat="48.31971" lon="-2.90863">
        <ele>170</ele>
        <time>2016-03-14T15:48:10Z</time>
      </trkpt>
      <trkpt lat="48.31972" lon="-2.90861">
        <ele>170</ele>
        <time>2016-03-14T15:48:12Z</time>
      </trkpt>
      <trkpt lat="48.31971" lon="-2.90858">
        <ele>170</ele>
        <time>2016-03-14T15:48:14Z</time>
      </trkpt>
      <trkpt lat="48.31971" lon="-2.90856">
        <ele>170</ele>
        <time>2016-03-14T15:48:16Z</time>
      </trkpt>
      <trkpt lat="48.31971" lon="-2.90854">
        <ele>170</ele>
        <time>2016-03-14T15:48:18Z</time>
      </trkpt>
      <trkpt lat="48.3197" lon="-2.90851">
        <ele>170</ele>
        <time>2016-03-14T15:48:20Z</time>
      </trkpt>
      <trkpt lat="48.31969" lon="-2.90848">
        <ele>170</ele>
        <time>2016-03-14T15:48:22Z</time>
      </trkpt>
      <trkpt lat="48.31968" lon="-2.90845">
        <ele>170</ele>
        <time>2016-03-14T15:48:24Z</time>
      </trkpt>
      <trkpt lat="48.31968" lon="-2.90844">
        <ele>170</ele>
        <time>2016-03-14T15:48:25Z</time>
      </trkpt>
      <trkpt lat="48.31967" lon="-2.90841">
        <ele>170</ele>
        <time>2016-03-14T15:48:27Z</time>
      </trkpt>
      <trkpt lat="48.31965" lon="-2.90838">
        <ele>170</ele>
        <time>2016-03-14T15:48:29Z</time>
      </trkpt>
      <trkpt lat="48.31964" lon="-2.90836">
        <ele>170</ele>
        <time>2016-03-14T15:48:31Z</time>
      </trkpt>
      <trkpt lat="48.31963" lon="-2.90833">
        <ele>170</ele>
        <time>2016-03-14T15:48:33Z</time>
      </trkpt>
      <trkpt lat="48.31962" lon="-2.90831">
        <ele>170</ele>
        <time>2016-03-14T15:48:35Z</time>
      </trkpt>
      <trkpt lat="48.31961" lon="-2.90828">
        <ele>170</ele>
        <time>2016-03-14T15:48:37Z</time>
      </trkpt>
      <trkpt lat="48.3196" lon="-2.90825">
        <ele>170</ele>
        <time>2016-03-14T15:48:39Z</time>
      </trkpt>
      <trkpt lat="48.31959" lon="-2.90824">
        <ele>170</ele>
        <time>2016-03-14T15:48:41Z</time>
      </trkpt>
      <trkpt lat="48.31959" lon="-2.90822">
        <ele>170</ele>
        <time>2016-03-14T15:48:43Z</time>
      </trkpt>
      <trkpt lat="48.31958" lon="-2.9082">
        <ele>170</ele>
        <time>2016-03-14T15:48:44Z</time>
      </trkpt>
      <trkpt lat="48.31957" lon="-2.90817">
        <ele>170</ele>
        <time>2016-03-14T15:48:46Z</time>
      </trkpt>
      <trkpt lat="48.31957" lon="-2.90815">
        <ele>170</ele>
        <time>2016-03-14T15:48:47Z</time>
      </trkpt>
      <trkpt lat="48.31956" lon="-2.90813">
        <ele>170</ele>
        <time>2016-03-14T15:48:48Z</time>
      </trkpt>
      <trkpt lat="48.31956" lon="-2.90811">
        <ele>170</ele>
        <time>2016-03-14T15:48:49Z</time>
      </trkpt>
      <trkpt lat="48.31955" lon="-2.90809">
        <ele>170</ele>
        <time>2016-03-14T15:48:51Z</time>
      </trkpt>
      <trkpt lat="48.31955" lon="-2.90807">
        <ele>170</ele>
        <time>2016-03-14T15:48:52Z</time>
      </trkpt>
      <trkpt lat="48.31954" lon="-2.90805">
        <ele>170</ele>
        <time>2016-03-14T15:48:53Z</time>
      </trkpt>
      <trkpt lat="48.31953" lon="-2.90803">
        <ele>170</ele>
        <time>2016-03-14T15:48:54Z</time>
      </trkpt>
      <trkpt lat="48.31953" lon="-2.908">
        <ele>170</ele>
        <time>2016-03-14T15:48:56Z</time>
      </trkpt>
      <trkpt lat="48.31952" lon="-2.90797">
        <ele>170</ele>
        <time>2016-03-14T15:48:58Z</time>
      </trkpt>
      <trkpt lat="48.31952" lon="-2.90795">
        <ele>170</ele>
        <time>2016-03-14T15:48:59Z</time>
      </trkpt>
      <trkpt lat="48.31952" lon="-2.90793">
        <ele>170</ele>
        <time>2016-03-14T15:49:00Z</time>
      </trkpt>
      <trkpt lat="48.31951" lon="-2.90791">
        <ele>170</ele>
        <time>2016-03-14T15:49:02Z</time>
      </trkpt>
      <trkpt lat="48.3195" lon="-2.90789">
        <ele>170</ele>
        <time>2016-03-14T15:49:03Z</time>
      </trkpt>
      <trkpt lat="48.3195" lon="-2.90787">
        <ele>170</ele>
        <time>2016-03-14T15:49:04Z</time>
      </trkpt>
      <trkpt lat="48.31949" lon="-2.90784">
        <ele>170</ele>
        <time>2016-03-14T15:49:06Z</time>
      </trkpt>
      <trkpt lat="48.31947" lon="-2.90781">
        <ele>170</ele>
        <time>2016-03-14T15:49:08Z</time>
      </trkpt>
      <trkpt lat="48.31946" lon="-2.90779">
        <ele>171</ele>
        <time>2016-03-14T15:49:10Z</time>
      </trkpt>
      <trkpt lat="48.31944" lon="-2.90777">
        <ele>171</ele>
        <time>2016-03-14T15:49:12Z</time>
      </trkpt>
      <trkpt lat="48.31942" lon="-2.90775">
        <ele>171</ele>
        <time>2016-03-14T15:49:14Z</time>
      </trkpt>
      <trkpt lat="48.31941" lon="-2.90774">
        <ele>171</ele>
        <time>2016-03-14T15:49:15Z</time>
      </trkpt>
      <trkpt lat="48.3194" lon="-2.90774">
        <ele>171</ele>
        <time>2016-03-14T15:49:16Z</time>
      </trkpt>
      <trkpt lat="48.31938" lon="-2.90774">
        <ele>171</ele>
        <time>2016-03-14T15:49:17Z</time>
      </trkpt>
      <trkpt lat="48.31937" lon="-2.90773">
        <ele>171</ele>
        <time>2016-03-14T15:49:18Z</time>
      </trkpt>
      <trkpt lat="48.31935" lon="-2.90773">
        <ele>171</ele>
        <time>2016-03-14T15:49:20Z</time>
      </trkpt>
      <trkpt lat="48.31934" lon="-2.90773">
        <ele>171</ele>
        <time>2016-03-14T15:49:21Z</time>
      </trkpt>
      <trkpt lat="48.31933" lon="-2.90773">
        <ele>171</ele>
        <time>2016-03-14T15:49:22Z</time>
      </trkpt>
      <trkpt lat="48.31932" lon="-2.90774">
        <ele>171</ele>
        <time>2016-03-14T15:49:23Z</time>
      </trkpt>
      <trkpt lat="48.31929" lon="-2.90774">
        <ele>171</ele>
        <time>2016-03-14T15:49:25Z</time>
      </trkpt>
      <trkpt lat="48.31928" lon="-2.90775">
        <ele>171</ele>
        <time>2016-03-14T15:49:26Z</time>
      </trkpt>
      <trkpt lat="48.31927" lon="-2.90775">
        <ele>171</ele>
        <time>2016-03-14T15:49:27Z</time>
      </trkpt>
      <trkpt lat="48.31926" lon="-2.90776">
        <ele>171</ele>
        <time>2016-03-14T15:49:28Z</time>
      </trkpt>
      <trkpt lat="48.31924" lon="-2.90777">
        <ele>171</ele>
        <time>2016-03-14T15:49:30Z</time>
      </trkpt>
      <trkpt lat="48.31922" lon="-2.90778">
        <ele>171</ele>
        <time>2016-03-14T15:49:31Z</time>
      </trkpt>
      <trkpt lat="48.3192" lon="-2.90779">
        <ele>171</ele>
        <time>2016-03-14T15:49:33Z</time>
      </trkpt>
      <trkpt lat="48.31918" lon="-2.90781">
        <ele>171</ele>
        <time>2016-03-14T15:49:35Z</time>
      </trkpt>
      <trkpt lat="48.31917" lon="-2.90783">
        <ele>171</ele>
        <time>2016-03-14T15:49:37Z</time>
      </trkpt>
      <trkpt lat="48.31915" lon="-2.90786">
        <ele>171</ele>
        <time>2016-03-14T15:49:39Z</time>
      </trkpt>
      <trkpt lat="48.31913" lon="-2.90789">
        <ele>171</ele>
        <time>2016-03-14T15:49:41Z</time>
      </trkpt>
      <trkpt lat="48.31912" lon="-2.9079">
        <ele>171</ele>
        <time>2016-03-14T15:49:42Z</time>
      </trkpt>
      <trkpt lat="48.3191" lon="-2.90793">
        <ele>171</ele>
        <time>2016-03-14T15:49:44Z</time>
      </trkpt>
      <trkpt lat="48.31909" lon="-2.90796">
        <ele>171</ele>
        <time>2016-03-14T15:49:46Z</time>
      </trkpt>
      <trkpt lat="48.31908" lon="-2.90799">
        <ele>171</ele>
        <time>2016-03-14T15:49:48Z</time>
      </trkpt>
      <trkpt lat="48.31906" lon="-2.90801">
        <ele>171</ele>
        <time>2016-03-14T15:49:50Z</time>
      </trkpt>
      <trkpt lat="48.31904" lon="-2.90803">
        <ele>171</ele>
        <time>2016-03-14T15:49:52Z</time>
      </trkpt>
      <trkpt lat="48.31902" lon="-2.90805">
        <ele>171</ele>
        <time>2016-03-14T15:49:54Z</time>
      </trkpt>
      <trkpt lat="48.319" lon="-2.90806">
        <ele>171</ele>
        <time>2016-03-14T15:49:56Z</time>
      </trkpt>
      <trkpt lat="48.31898" lon="-2.90806">
        <ele>171</ele>
        <time>2016-03-14T15:49:57Z</time>
      </trkpt>
      <trkpt lat="48.31897" lon="-2.90807">
        <ele>171</ele>
        <time>2016-03-14T15:49:58Z</time>
      </trkpt>
      <trkpt lat="48.31895" lon="-2.90807">
        <ele>171</ele>
        <time>2016-03-14T15:50:00Z</time>
      </trkpt>
      <trkpt lat="48.31894" lon="-2.90807">
        <ele>171</ele>
        <time>2016-03-14T15:50:01Z</time>
      </trkpt>
      <trkpt lat="48.31893" lon="-2.90807">
        <ele>171</ele>
        <time>2016-03-14T15:50:02Z</time>
      </trkpt>
      <trkpt lat="48.31891" lon="-2.90806">
        <ele>171</ele>
        <time>2016-03-14T15:50:04Z</time>
      </trkpt>
      <trkpt lat="48.31889" lon="-2.90805">
        <ele>171</ele>
        <time>2016-03-14T15:50:06Z</time>
      </trkpt>
      <trkpt lat="48.31887" lon="-2.90804">
        <ele>171</ele>
        <time>2016-03-14T15:50:07Z</time>
      </trkpt>
      <trkpt lat="48.31886" lon="-2.90803">
        <ele>171</ele>
        <time>2016-03-14T15:50:09Z</time>
      </trkpt>
      <trkpt lat="48.31884" lon="-2.90802">
        <ele>171</ele>
        <time>2016-03-14T15:50:11Z</time>
      </trkpt>
      <trkpt lat="48.31882" lon="-2.90801">
        <ele>171</ele>
        <time>2016-03-14T15:50:12Z</time>
      </trkpt>
      <trkpt lat="48.3188" lon="-2.90799">
        <ele>170</ele>
        <time>2016-03-14T15:50:14Z</time>
      </trkpt>
      <trkpt lat="48.31879" lon="-2.90797">
        <ele>170</ele>
        <time>2016-03-14T15:50:16Z</time>
      </trkpt>
      <trkpt lat="48.31877" lon="-2.90795">
        <ele>169</ele>
        <time>2016-03-14T15:50:18Z</time>
      </trkpt>
      <trkpt lat="48.31875" lon="-2.90794">
        <ele>169</ele>
        <time>2016-03-14T15:50:19Z</time>
      </trkpt>
      <trkpt lat="48.31873" lon="-2.90792">
        <ele>169</ele>
        <time>2016-03-14T15:50:21Z</time>
      </trkpt>
      <trkpt lat="48.31872" lon="-2.9079">
        <ele>168</ele>
        <time>2016-03-14T15:50:23Z</time>
      </trkpt>
      <trkpt lat="48.3187" lon="-2.90786">
        <ele>168</ele>
        <time>2016-03-14T15:50:25Z</time>
      </trkpt>
      <trkpt lat="48.3187" lon="-2.90785">
        <ele>168</ele>
        <time>2016-03-14T15:50:26Z</time>
      </trkpt>
      <trkpt lat="48.31869" lon="-2.90783">
        <ele>168</ele>
        <time>2016-03-14T15:50:27Z</time>
      </trkpt>
      <trkpt lat="48.31868" lon="-2.90781">
        <ele>168</ele>
        <time>2016-03-14T15:50:28Z</time>
      </trkpt>
      <trkpt lat="48.31868" lon="-2.90779">
        <ele>168</ele>
        <time>2016-03-14T15:50:29Z</time>
      </trkpt>
      <trkpt lat="48.31866" lon="-2.90776">
        <ele>168</ele>
        <time>2016-03-14T15:50:31Z</time>
      </trkpt>
      <trkpt lat="48.31866" lon="-2.90775">
        <ele>168</ele>
        <time>2016-03-14T15:50:32Z</time>
      </trkpt>
      <trkpt lat="48.31865" lon="-2.90773">
        <ele>168</ele>
        <time>2016-03-14T15:50:33Z</time>
      </trkpt>
      <trkpt lat="48.31864" lon="-2.9077">
        <ele>168</ele>
        <time>2016-03-14T15:50:35Z</time>
      </trkpt>
      <trkpt lat="48.31863" lon="-2.90768">
        <ele>168</ele>
        <time>2016-03-14T15:50:36Z</time>
      </trkpt>
      <trkpt lat="48.31861" lon="-2.90765">
        <ele>168</ele>
        <time>2016-03-14T15:50:38Z</time>
      </trkpt>
      <trkpt lat="48.31861" lon="-2.90763">
        <ele>168</ele>
        <time>2016-03-14T15:50:39Z</time>
      </trkpt>
      <trkpt lat="48.31861" lon="-2.90762">
        <ele>168</ele>
        <time>2016-03-14T15:50:40Z</time>
      </trkpt>
      <trkpt lat="48.31861" lon="-2.9076">
        <ele>168</ele>
        <time>2016-03-14T15:50:41Z</time>
      </trkpt>
      <trkpt lat="48.3186" lon="-2.90758">
        <ele>168</ele>
        <time>2016-03-14T15:50:42Z</time>
      </trkpt>
      <trkpt lat="48.3186" lon="-2.90757">
        <ele>168</ele>
        <time>2016-03-14T15:50:43Z</time>
      </trkpt>
      <trkpt lat="48.3186" lon="-2.90755">
        <ele>168</ele>
        <time>2016-03-14T15:50:44Z</time>
      </trkpt>
      <trkpt lat="48.3186" lon="-2.90754">
        <ele>168</ele>
        <time>2016-03-14T15:50:45Z</time>
      </trkpt>
      <trkpt lat="48.3186" lon="-2.90752">
        <ele>168</ele>
        <time>2016-03-14T15:50:46Z</time>
      </trkpt>
      <trkpt lat="48.31859" lon="-2.9075">
        <ele>168</ele>
        <time>2016-03-14T15:50:48Z</time>
      </trkpt>
      <trkpt lat="48.31859" lon="-2.90748">
        <ele>168</ele>
        <time>2016-03-14T15:50:49Z</time>
      </trkpt>
      <trkpt lat="48.31859" lon="-2.90746">
        <ele>168</ele>
        <time>2016-03-14T15:50:50Z</time>
      </trkpt>
      <trkpt lat="48.31859" lon="-2.90744">
        <ele>168</ele>
        <time>2016-03-14T15:50:51Z</time>
      </trkpt>
      <trkpt lat="48.31858" lon="-2.90742">
        <ele>168</ele>
        <time>2016-03-14T15:50:52Z</time>
      </trkpt>
      <trkpt lat="48.31858" lon="-2.90739">
        <ele>167</ele>
        <time>2016-03-14T15:50:54Z</time>
      </trkpt>
      <trkpt lat="48.31858" lon="-2.90738">
        <ele>167</ele>
        <time>2016-03-14T15:50:55Z</time>
      </trkpt>
      <trkpt lat="48.31858" lon="-2.90736">
        <ele>166</ele>
        <time>2016-03-14T15:50:56Z</time>
      </trkpt>
      <trkpt lat="48.31856" lon="-2.90734">
        <ele>166</ele>
        <time>2016-03-14T15:50:58Z</time>
      </trkpt>
      <trkpt lat="48.31854" lon="-2.90731">
        <ele>166</ele>
        <time>2016-03-14T15:51:00Z</time>
      </trkpt>
      <trkpt lat="48.31853" lon="-2.90728">
        <ele>166</ele>
        <time>2016-03-14T15:51:02Z</time>
      </trkpt>
      <trkpt lat="48.31852" lon="-2.90725">
        <ele>166</ele>
        <time>2016-03-14T15:51:04Z</time>
      </trkpt>
      <trkpt lat="48.31851" lon="-2.90722">
        <ele>166</ele>
        <time>2016-03-14T15:51:06Z</time>
      </trkpt>
      <trkpt lat="48.3185" lon="-2.9072">
        <ele>166</ele>
        <time>2016-03-14T15:51:08Z</time>
      </trkpt>
      <trkpt lat="48.31849" lon="-2.90718">
        <ele>166</ele>
        <time>2016-03-14T15:51:09Z</time>
      </trkpt>
      <trkpt lat="48.31848" lon="-2.90715">
        <ele>166</ele>
        <time>2016-03-14T15:51:11Z</time>
      </trkpt>
      <trkpt lat="48.31847" lon="-2.90712">
        <ele>166</ele>
        <time>2016-03-14T15:51:13Z</time>
      </trkpt>
      <trkpt lat="48.31844" lon="-2.9071">
        <ele>166</ele>
        <time>2016-03-14T15:51:15Z</time>
      </trkpt>
      <trkpt lat="48.31843" lon="-2.90708">
        <ele>166</ele>
        <time>2016-03-14T15:51:17Z</time>
      </trkpt>
      <trkpt lat="48.31841" lon="-2.90705">
        <ele>166</ele>
        <time>2016-03-14T15:51:19Z</time>
      </trkpt>
      <trkpt lat="48.31839" lon="-2.90704">
        <ele>166</ele>
        <time>2016-03-14T15:51:20Z</time>
      </trkpt>
      <trkpt lat="48.31838" lon="-2.90703">
        <ele>166</ele>
        <time>2016-03-14T15:51:21Z</time>
      </trkpt>
      <trkpt lat="48.31836" lon="-2.90702">
        <ele>166</ele>
        <time>2016-03-14T15:51:23Z</time>
      </trkpt>
      <trkpt lat="48.31835" lon="-2.90701">
        <ele>166</ele>
        <time>2016-03-14T15:51:24Z</time>
      </trkpt>
      <trkpt lat="48.31834" lon="-2.907">
        <ele>166</ele>
        <time>2016-03-14T15:51:25Z</time>
      </trkpt>
      <trkpt lat="48.31833" lon="-2.90699">
        <ele>166</ele>
        <time>2016-03-14T15:51:26Z</time>
      </trkpt>
      <trkpt lat="48.31832" lon="-2.90699">
        <ele>166</ele>
        <time>2016-03-14T15:51:27Z</time>
      </trkpt>
      <trkpt lat="48.3183" lon="-2.90697">
        <ele>166</ele>
        <time>2016-03-14T15:51:29Z</time>
      </trkpt>
      <trkpt lat="48.31828" lon="-2.90696">
        <ele>166</ele>
        <time>2016-03-14T15:51:31Z</time>
      </trkpt>
      <trkpt lat="48.31826" lon="-2.90695">
        <ele>166</ele>
        <time>2016-03-14T15:51:32Z</time>
      </trkpt>
      <trkpt lat="48.31825" lon="-2.90694">
        <ele>166</ele>
        <time>2016-03-14T15:51:33Z</time>
      </trkpt>
      <trkpt lat="48.31824" lon="-2.90694">
        <ele>166</ele>
        <time>2016-03-14T15:51:34Z</time>
      </trkpt>
      <trkpt lat="48.31822" lon="-2.90692">
        <ele>166</ele>
        <time>2016-03-14T15:51:36Z</time>
      </trkpt>
      <trkpt lat="48.31821" lon="-2.90692">
        <ele>166</ele>
        <time>2016-03-14T15:51:37Z</time>
      </trkpt>
      <trkpt lat="48.3182" lon="-2.90692">
        <ele>166</ele>
        <time>2016-03-14T15:51:38Z</time>
      </trkpt>
      <trkpt lat="48.31818" lon="-2.90691">
        <ele>166</ele>
        <time>2016-03-14T15:51:39Z</time>
      </trkpt>
      <trkpt lat="48.31816" lon="-2.9069">
        <ele>166</ele>
        <time>2016-03-14T15:51:41Z</time>
      </trkpt>
      <trkpt lat="48.31814" lon="-2.9069">
        <ele>166</ele>
        <time>2016-03-14T15:51:43Z</time>
      </trkpt>
      <trkpt lat="48.31813" lon="-2.9069">
        <ele>166</ele>
        <time>2016-03-14T15:51:44Z</time>
      </trkpt>
      <trkpt lat="48.31812" lon="-2.90689">
        <ele>166</ele>
        <time>2016-03-14T15:51:45Z</time>
      </trkpt>
      <trkpt lat="48.31809" lon="-2.90689">
        <ele>166</ele>
        <time>2016-03-14T15:51:47Z</time>
      </trkpt>
      <trkpt lat="48.31808" lon="-2.90689">
        <ele>166</ele>
        <time>2016-03-14T15:51:48Z</time>
      </trkpt>
      <trkpt lat="48.31807" lon="-2.90689">
        <ele>166</ele>
        <time>2016-03-14T15:51:49Z</time>
      </trkpt>
      <trkpt lat="48.31805" lon="-2.90689">
        <ele>166</ele>
        <time>2016-03-14T15:51:50Z</time>
      </trkpt>
      <trkpt lat="48.31804" lon="-2.90689">
        <ele>166</ele>
        <time>2016-03-14T15:51:51Z</time>
      </trkpt>
      <trkpt lat="48.31803" lon="-2.90689">
        <ele>166</ele>
        <time>2016-03-14T15:51:52Z</time>
      </trkpt>
      <trkpt lat="48.31802" lon="-2.90689">
        <ele>166</ele>
        <time>2016-03-14T15:51:53Z</time>
      </trkpt>
      <trkpt lat="48.31801" lon="-2.90689">
        <ele>166</ele>
        <time>2016-03-14T15:51:54Z</time>
      </trkpt>
      <trkpt lat="48.31799" lon="-2.9069">
        <ele>166</ele>
        <time>2016-03-14T15:51:55Z</time>
      </trkpt>
      <trkpt lat="48.31798" lon="-2.9069">
        <ele>166</ele>
        <time>2016-03-14T15:51:56Z</time>
      </trkpt>
      <trkpt lat="48.31797" lon="-2.90692">
        <ele>166</ele>
        <time>2016-03-14T15:51:58Z</time>
      </trkpt>
      <trkpt lat="48.31795" lon="-2.90692">
        <ele>166</ele>
        <time>2016-03-14T15:51:59Z</time>
      </trkpt>
      <trkpt lat="48.31794" lon="-2.90694">
        <ele>166</ele>
        <time>2016-03-14T15:52:01Z</time>
      </trkpt>
      <trkpt lat="48.31792" lon="-2.90696">
        <ele>166</ele>
        <time>2016-03-14T15:52:03Z</time>
      </trkpt>
      <trkpt lat="48.3179" lon="-2.90697">
        <ele>166</ele>
        <time>2016-03-14T15:52:05Z</time>
      </trkpt>
      <trkpt lat="48.31789" lon="-2.90699">
        <ele>166</ele>
        <time>2016-03-14T15:52:07Z</time>
      </trkpt>
      <trkpt lat="48.31787" lon="-2.90701">
        <ele>166</ele>
        <time>2016-03-14T15:52:09Z</time>
      </trkpt>
      <trkpt lat="48.31785" lon="-2.90703">
        <ele>166</ele>
        <time>2016-03-14T15:52:11Z</time>
      </trkpt>
      <trkpt lat="48.31783" lon="-2.90704">
        <ele>166</ele>
        <time>2016-03-14T15:52:13Z</time>
      </trkpt>
      <trkpt lat="48.31781" lon="-2.90706">
        <ele>166</ele>
        <time>2016-03-14T15:52:15Z</time>
      </trkpt>
      <trkpt lat="48.31779" lon="-2.90708">
        <ele>166</ele>
        <time>2016-03-14T15:52:17Z</time>
      </trkpt>
      <trkpt lat="48.31778" lon="-2.9071">
        <ele>166</ele>
        <time>2016-03-14T15:52:19Z</time>
      </trkpt>
      <trkpt lat="48.31776" lon="-2.90711">
        <ele>166</ele>
        <time>2016-03-14T15:52:20Z</time>
      </trkpt>
      <trkpt lat="48.31774" lon="-2.90713">
        <ele>166</ele>
        <time>2016-03-14T15:52:22Z</time>
      </trkpt>
      <trkpt lat="48.31773" lon="-2.90715">
        <ele>166</ele>
        <time>2016-03-14T15:52:24Z</time>
      </trkpt>
      <trkpt lat="48.31771" lon="-2.90716">
        <ele>166</ele>
        <time>2016-03-14T15:52:25Z</time>
      </trkpt>
      <trkpt lat="48.3177" lon="-2.90717">
        <ele>166</ele>
        <time>2016-03-14T15:52:26Z</time>
      </trkpt>
      <trkpt lat="48.31769" lon="-2.90717">
        <ele>166</ele>
        <time>2016-03-14T15:52:27Z</time>
      </trkpt>
      <trkpt lat="48.31767" lon="-2.90717">
        <ele>166</ele>
        <time>2016-03-14T15:52:28Z</time>
      </trkpt>
      <trkpt lat="48.31766" lon="-2.90718">
        <ele>166</ele>
        <time>2016-03-14T15:52:29Z</time>
      </trkpt>
      <trkpt lat="48.31765" lon="-2.90718">
        <ele>166</ele>
        <time>2016-03-14T15:52:30Z</time>
      </trkpt>
      <trkpt lat="48.31763" lon="-2.90721">
        <ele>166</ele>
        <time>2016-03-14T15:52:32Z</time>
      </trkpt>
      <trkpt lat="48.31762" lon="-2.90721">
        <ele>166</ele>
        <time>2016-03-14T15:52:33Z</time>
      </trkpt>
      <trkpt lat="48.31761" lon="-2.90722">
        <ele>166</ele>
        <time>2016-03-14T15:52:34Z</time>
      </trkpt>
      <trkpt lat="48.31759" lon="-2.90722">
        <ele>166</ele>
        <time>2016-03-14T15:52:35Z</time>
      </trkpt>
      <trkpt lat="48.31758" lon="-2.90723">
        <ele>166</ele>
        <time>2016-03-14T15:52:36Z</time>
      </trkpt>
      <trkpt lat="48.31756" lon="-2.90726">
        <ele>166</ele>
        <time>2016-03-14T15:52:38Z</time>
      </trkpt>
      <trkpt lat="48.31755" lon="-2.90727">
        <ele>166</ele>
        <time>2016-03-14T15:52:39Z</time>
      </trkpt>
      <trkpt lat="48.31755" lon="-2.90729">
        <ele>166</ele>
        <time>2016-03-14T15:52:40Z</time>
      </trkpt>
      <trkpt lat="48.31754" lon="-2.90731">
        <ele>166</ele>
        <time>2016-03-14T15:52:41Z</time>
      </trkpt>
      <trkpt lat="48.31753" lon="-2.90732">
        <ele>166</ele>
        <time>2016-03-14T15:52:42Z</time>
      </trkpt>
      <trkpt lat="48.31752" lon="-2.90734">
        <ele>166</ele>
        <time>2016-03-14T15:52:43Z</time>
      </trkpt>
      <trkpt lat="48.31749" lon="-2.90737">
        <ele>166</ele>
        <time>2016-03-14T15:52:45Z</time>
      </trkpt>
      <trkpt lat="48.31747" lon="-2.90738">
        <ele>166</ele>
        <time>2016-03-14T15:52:47Z</time>
      </trkpt>
      <trkpt lat="48.31746" lon="-2.90739">
        <ele>167</ele>
        <time>2016-03-14T15:52:48Z</time>
      </trkpt>
      <trkpt lat="48.31745" lon="-2.9074">
        <ele>167</ele>
        <time>2016-03-14T15:52:49Z</time>
      </trkpt>
      <trkpt lat="48.31744" lon="-2.90743">
        <ele>168</ele>
        <time>2016-03-14T15:52:51Z</time>
      </trkpt>
      <trkpt lat="48.31742" lon="-2.90744">
        <ele>169</ele>
        <time>2016-03-14T15:52:53Z</time>
      </trkpt>
      <trkpt lat="48.31741" lon="-2.90745">
        <ele>169</ele>
        <time>2016-03-14T15:52:54Z</time>
      </trkpt>
      <trkpt lat="48.31739" lon="-2.90746">
        <ele>170</ele>
        <time>2016-03-14T15:52:55Z</time>
      </trkpt>
      <trkpt lat="48.31738" lon="-2.90748">
        <ele>170</ele>
        <time>2016-03-14T15:52:56Z</time>
      </trkpt>
      <trkpt lat="48.31736" lon="-2.90749">
        <ele>170</ele>
        <time>2016-03-14T15:52:57Z</time>
      </trkpt>
      <trkpt lat="48.31734" lon="-2.9075">
        <ele>171</ele>
        <time>2016-03-14T15:52:58Z</time>
      </trkpt>
      <trkpt lat="48.31733" lon="-2.90753">
        <ele>171</ele>
        <time>2016-03-14T15:53:00Z</time>
      </trkpt>
      <trkpt lat="48.31731" lon="-2.90754">
        <ele>172</ele>
        <time>2016-03-14T15:53:02Z</time>
      </trkpt>
      <trkpt lat="48.31729" lon="-2.90755">
        <ele>172</ele>
        <time>2016-03-14T15:53:03Z</time>
      </trkpt>
      <trkpt lat="48.31727" lon="-2.90755">
        <ele>172</ele>
        <time>2016-03-14T15:53:05Z</time>
      </trkpt>
      <trkpt lat="48.31726" lon="-2.90756">
        <ele>172</ele>
        <time>2016-03-14T15:53:07Z</time>
      </trkpt>
      <trkpt lat="48.31724" lon="-2.90756">
        <ele>172</ele>
        <time>2016-03-14T15:53:09Z</time>
      </trkpt>
      <trkpt lat="48.31723" lon="-2.90757">
        <ele>172</ele>
        <time>2016-03-14T15:53:11Z</time>
      </trkpt>
      <trkpt lat="48.3172" lon="-2.90758">
        <ele>172</ele>
        <time>2016-03-14T15:53:13Z</time>
      </trkpt>
      <trkpt lat="48.31719" lon="-2.90758">
        <ele>172</ele>
        <time>2016-03-14T15:53:14Z</time>
      </trkpt>
      <trkpt lat="48.31718" lon="-2.9076">
        <ele>172</ele>
        <time>2016-03-14T15:53:16Z</time>
      </trkpt>
      <trkpt lat="48.31717" lon="-2.90762">
        <ele>173</ele>
        <time>2016-03-14T15:53:18Z</time>
      </trkpt>
      <trkpt lat="48.31715" lon="-2.90762">
        <ele>173</ele>
        <time>2016-03-14T15:53:20Z</time>
      </trkpt>
      <trkpt lat="48.31713" lon="-2.90763">
        <ele>173</ele>
        <time>2016-03-14T15:53:22Z</time>
      </trkpt>
      <trkpt lat="48.31712" lon="-2.90764">
        <ele>173</ele>
        <time>2016-03-14T15:53:24Z</time>
      </trkpt>
      <trkpt lat="48.31711" lon="-2.90764">
        <ele>173</ele>
        <time>2016-03-14T15:53:25Z</time>
      </trkpt>
      <trkpt lat="48.31709" lon="-2.90765">
        <ele>173</ele>
        <time>2016-03-14T15:53:27Z</time>
      </trkpt>
      <trkpt lat="48.31707" lon="-2.90766">
        <ele>173</ele>
        <time>2016-03-14T15:53:29Z</time>
      </trkpt>
      <trkpt lat="48.31705" lon="-2.90765">
        <ele>173</ele>
        <time>2016-03-14T15:53:31Z</time>
      </trkpt>
      <trkpt lat="48.31703" lon="-2.90765">
        <ele>173</ele>
        <time>2016-03-14T15:53:33Z</time>
      </trkpt>
      <trkpt lat="48.31701" lon="-2.90765">
        <ele>173</ele>
        <time>2016-03-14T15:53:35Z</time>
      </trkpt>
      <trkpt lat="48.317" lon="-2.90765">
        <ele>173</ele>
        <time>2016-03-14T15:53:36Z</time>
      </trkpt>
      <trkpt lat="48.31699" lon="-2.90765">
        <ele>173</ele>
        <time>2016-03-14T15:53:37Z</time>
      </trkpt>
      <trkpt lat="48.31697" lon="-2.90765">
        <ele>173</ele>
        <time>2016-03-14T15:53:39Z</time>
      </trkpt>
      <trkpt lat="48.31696" lon="-2.90764">
        <ele>172</ele>
        <time>2016-03-14T15:53:41Z</time>
      </trkpt>
      <trkpt lat="48.31694" lon="-2.90763">
        <ele>171</ele>
        <time>2016-03-14T15:53:43Z</time>
      </trkpt>
      <trkpt lat="48.31693" lon="-2.90763">
        <ele>170</ele>
        <time>2016-03-14T15:53:45Z</time>
      </trkpt>
      <trkpt lat="48.31691" lon="-2.90762">
        <ele>170</ele>
        <time>2016-03-14T15:53:47Z</time>
      </trkpt>
      <trkpt lat="48.31689" lon="-2.90762">
        <ele>170</ele>
        <time>2016-03-14T15:53:49Z</time>
      </trkpt>
      <trkpt lat="48.31688" lon="-2.90762">
        <ele>170</ele>
        <time>2016-03-14T15:53:51Z</time>
      </trkpt>
      <trkpt lat="48.31686" lon="-2.90762">
        <ele>170</ele>
        <time>2016-03-14T15:53:53Z</time>
      </trkpt>
      <trkpt lat="48.31684" lon="-2.90763">
        <ele>170</ele>
        <time>2016-03-14T15:53:54Z</time>
      </trkpt>
      <trkpt lat="48.31683" lon="-2.90763">
        <ele>170</ele>
        <time>2016-03-14T15:53:55Z</time>
      </trkpt>
      <trkpt lat="48.31681" lon="-2.90763">
        <ele>170</ele>
        <time>2016-03-14T15:53:57Z</time>
      </trkpt>
      <trkpt lat="48.3168" lon="-2.90764">
        <ele>170</ele>
        <time>2016-03-14T15:53:58Z</time>
      </trkpt>
      <trkpt lat="48.31679" lon="-2.90764">
        <ele>170</ele>
        <time>2016-03-14T15:53:59Z</time>
      </trkpt>
      <trkpt lat="48.31678" lon="-2.90765">
        <ele>170</ele>
        <time>2016-03-14T15:54:00Z</time>
      </trkpt>
      <trkpt lat="48.31675" lon="-2.90766">
        <ele>170</ele>
        <time>2016-03-14T15:54:02Z</time>
      </trkpt>
      <trkpt lat="48.31674" lon="-2.90766">
        <ele>170</ele>
        <time>2016-03-14T15:54:03Z</time>
      </trkpt>
      <trkpt lat="48.31673" lon="-2.90767">
        <ele>170</ele>
        <time>2016-03-14T15:54:04Z</time>
      </trkpt>
      <trkpt lat="48.31672" lon="-2.90768">
        <ele>170</ele>
        <time>2016-03-14T15:54:05Z</time>
      </trkpt>
      <trkpt lat="48.31671" lon="-2.90768">
        <ele>170</ele>
        <time>2016-03-14T15:54:06Z</time>
      </trkpt>
      <trkpt lat="48.31668" lon="-2.90769">
        <ele>170</ele>
        <time>2016-03-14T15:54:08Z</time>
      </trkpt>
      <trkpt lat="48.31667" lon="-2.90769">
        <ele>170</ele>
        <time>2016-03-14T15:54:09Z</time>
      </trkpt>
      <trkpt lat="48.31666" lon="-2.9077">
        <ele>170</ele>
        <time>2016-03-14T15:54:10Z</time>
      </trkpt>
      <trkpt lat="48.31664" lon="-2.9077">
        <ele>170</ele>
        <time>2016-03-14T15:54:12Z</time>
      </trkpt>
      <trkpt lat="48.31662" lon="-2.90771">
        <ele>170</ele>
        <time>2016-03-14T15:54:14Z</time>
      </trkpt>
      <trkpt lat="48.31661" lon="-2.90771">
        <ele>170</ele>
        <time>2016-03-14T15:54:15Z</time>
      </trkpt>
      <trkpt lat="48.31659" lon="-2.90771">
        <ele>170</ele>
        <time>2016-03-14T15:54:16Z</time>
      </trkpt>
      <trkpt lat="48.31657" lon="-2.90772">
        <ele>170</ele>
        <time>2016-03-14T15:54:18Z</time>
      </trkpt>
      <trkpt lat="48.31656" lon="-2.90773">
        <ele>170</ele>
        <time>2016-03-14T15:54:19Z</time>
      </trkpt>
      <trkpt lat="48.31655" lon="-2.90773">
        <ele>170</ele>
        <time>2016-03-14T15:54:20Z</time>
      </trkpt>
      <trkpt lat="48.31654" lon="-2.90774">
        <ele>170</ele>
        <time>2016-03-14T15:54:21Z</time>
      </trkpt>
      <trkpt lat="48.31653" lon="-2.90774">
        <ele>170</ele>
        <time>2016-03-14T15:54:22Z</time>
      </trkpt>
      <trkpt lat="48.31652" lon="-2.90774">
        <ele>170</ele>
        <time>2016-03-14T15:54:23Z</time>
      </trkpt>
      <trkpt lat="48.31651" lon="-2.90775">
        <ele>170</ele>
        <time>2016-03-14T15:54:24Z</time>
      </trkpt>
      <trkpt lat="48.31649" lon="-2.90775">
        <ele>170</ele>
        <time>2016-03-14T15:54:25Z</time>
      </trkpt>
      <trkpt lat="48.31648" lon="-2.90775">
        <ele>170</ele>
        <time>2016-03-14T15:54:26Z</time>
      </trkpt>
      <trkpt lat="48.31647" lon="-2.90775">
        <ele>170</ele>
        <time>2016-03-14T15:54:27Z</time>
      </trkpt>
      <trkpt lat="48.31645" lon="-2.90776">
        <ele>170</ele>
        <time>2016-03-14T15:54:29Z</time>
      </trkpt>
      <trkpt lat="48.31644" lon="-2.90776">
        <ele>170</ele>
        <time>2016-03-14T15:54:30Z</time>
      </trkpt>
      <trkpt lat="48.31641" lon="-2.90777">
        <ele>170</ele>
        <time>2016-03-14T15:54:32Z</time>
      </trkpt>
      <trkpt lat="48.3164" lon="-2.90777">
        <ele>170</ele>
        <time>2016-03-14T15:54:33Z</time>
      </trkpt>
      <trkpt lat="48.31639" lon="-2.90777">
        <ele>170</ele>
        <time>2016-03-14T15:54:34Z</time>
      </trkpt>
      <trkpt lat="48.31637" lon="-2.90778">
        <ele>169</ele>
        <time>2016-03-14T15:54:36Z</time>
      </trkpt>
      <trkpt lat="48.31635" lon="-2.90778">
        <ele>169</ele>
        <time>2016-03-14T15:54:37Z</time>
      </trkpt>
      <trkpt lat="48.31634" lon="-2.90778">
        <ele>169</ele>
        <time>2016-03-14T15:54:38Z</time>
      </trkpt>
      <trkpt lat="48.31633" lon="-2.90777">
        <ele>169</ele>
        <time>2016-03-14T15:54:39Z</time>
      </trkpt>
      <trkpt lat="48.31631" lon="-2.90777">
        <ele>169</ele>
        <time>2016-03-14T15:54:41Z</time>
      </trkpt>
      <trkpt lat="48.3163" lon="-2.90776">
        <ele>169</ele>
        <time>2016-03-14T15:54:42Z</time>
      </trkpt>
      <trkpt lat="48.31628" lon="-2.90776">
        <ele>169</ele>
        <time>2016-03-14T15:54:43Z</time>
      </trkpt>
      <trkpt lat="48.31626" lon="-2.90776">
        <ele>169</ele>
        <time>2016-03-14T15:54:45Z</time>
      </trkpt>
      <trkpt lat="48.31625" lon="-2.90775">
        <ele>169</ele>
        <time>2016-03-14T15:54:46Z</time>
      </trkpt>
      <trkpt lat="48.31624" lon="-2.90774">
        <ele>169</ele>
        <time>2016-03-14T15:54:47Z</time>
      </trkpt>
      <trkpt lat="48.31622" lon="-2.90774">
        <ele>169</ele>
        <time>2016-03-14T15:54:48Z</time>
      </trkpt>
      <trkpt lat="48.31621" lon="-2.90774">
        <ele>169</ele>
        <time>2016-03-14T15:54:49Z</time>
      </trkpt>
      <trkpt lat="48.3162" lon="-2.90774">
        <ele>169</ele>
        <time>2016-03-14T15:54:50Z</time>
      </trkpt>
      <trkpt lat="48.31619" lon="-2.90774">
        <ele>168</ele>
        <time>2016-03-14T15:54:51Z</time>
      </trkpt>
      <trkpt lat="48.31618" lon="-2.90774">
        <ele>168</ele>
        <time>2016-03-14T15:54:52Z</time>
      </trkpt>
      <trkpt lat="48.31617" lon="-2.90774">
        <ele>168</ele>
        <time>2016-03-14T15:54:53Z</time>
      </trkpt>
      <trkpt lat="48.31615" lon="-2.90774">
        <ele>168</ele>
        <time>2016-03-14T15:54:54Z</time>
      </trkpt>
      <trkpt lat="48.31614" lon="-2.90774">
        <ele>168</ele>
        <time>2016-03-14T15:54:55Z</time>
      </trkpt>
      <trkpt lat="48.31613" lon="-2.90774">
        <ele>168</ele>
        <time>2016-03-14T15:54:56Z</time>
      </trkpt>
      <trkpt lat="48.31612" lon="-2.90774">
        <ele>168</ele>
        <time>2016-03-14T15:54:57Z</time>
      </trkpt>
      <trkpt lat="48.3161" lon="-2.90774">
        <ele>168</ele>
        <time>2016-03-14T15:54:59Z</time>
      </trkpt>
      <trkpt lat="48.31609" lon="-2.90774">
        <ele>168</ele>
        <time>2016-03-14T15:55:00Z</time>
      </trkpt>
      <trkpt lat="48.31607" lon="-2.90774">
        <ele>168</ele>
        <time>2016-03-14T15:55:01Z</time>
      </trkpt>
      <trkpt lat="48.31606" lon="-2.90774">
        <ele>167</ele>
        <time>2016-03-14T15:55:02Z</time>
      </trkpt>
      <trkpt lat="48.31604" lon="-2.90774">
        <ele>167</ele>
        <time>2016-03-14T15:55:04Z</time>
      </trkpt>
      <trkpt lat="48.31602" lon="-2.90773">
        <ele>167</ele>
        <time>2016-03-14T15:55:06Z</time>
      </trkpt>
      <trkpt lat="48.31601" lon="-2.90773">
        <ele>167</ele>
        <time>2016-03-14T15:55:07Z</time>
      </trkpt>
      <trkpt lat="48.31599" lon="-2.90773">
        <ele>167</ele>
        <time>2016-03-14T15:55:08Z</time>
      </trkpt>
      <trkpt lat="48.31597" lon="-2.90773">
        <ele>167</ele>
        <time>2016-03-14T15:55:10Z</time>
      </trkpt>
      <trkpt lat="48.31595" lon="-2.90772">
        <ele>167</ele>
        <time>2016-03-14T15:55:12Z</time>
      </trkpt>
      <trkpt lat="48.31593" lon="-2.90771">
        <ele>167</ele>
        <time>2016-03-14T15:55:14Z</time>
      </trkpt>
      <trkpt lat="48.31592" lon="-2.9077">
        <ele>167</ele>
        <time>2016-03-14T15:55:16Z</time>
      </trkpt>
      <trkpt lat="48.31591" lon="-2.9077">
        <ele>167</ele>
        <time>2016-03-14T15:55:18Z</time>
      </trkpt>
      <trkpt lat="48.3159" lon="-2.9077">
        <ele>167</ele>
        <time>2016-03-14T15:55:20Z</time>
      </trkpt>
      <trkpt lat="48.31588" lon="-2.90771">
        <ele>167</ele>
        <time>2016-03-14T15:55:24Z</time>
      </trkpt>
      <trkpt lat="48.31587" lon="-2.90773">
        <ele>167</ele>
        <time>2016-03-14T15:55:27Z</time>
      </trkpt>
      <trkpt lat="48.31585" lon="-2.90774">
        <ele>167</ele>
        <time>2016-03-14T15:55:29Z</time>
      </trkpt>
      <trkpt lat="48.31584" lon="-2.90773">
        <ele>167</ele>
        <time>2016-03-14T15:55:31Z</time>
      </trkpt>
      <trkpt lat="48.31583" lon="-2.90772">
        <ele>167</ele>
        <time>2016-03-14T15:55:33Z</time>
      </trkpt>
      <trkpt lat="48.31581" lon="-2.90771">
        <ele>166</ele>
        <time>2016-03-14T15:55:35Z</time>
      </trkpt>
      <trkpt lat="48.3158" lon="-2.90769">
        <ele>166</ele>
        <time>2016-03-14T15:55:37Z</time>
      </trkpt>
      <trkpt lat="48.31578" lon="-2.90766">
        <ele>165</ele>
        <time>2016-03-14T15:55:39Z</time>
      </trkpt>
      <trkpt lat="48.31577" lon="-2.90764">
        <ele>165</ele>
        <time>2016-03-14T15:55:41Z</time>
      </trkpt>
      <trkpt lat="48.31575" lon="-2.90762">
        <ele>165</ele>
        <time>2016-03-14T15:55:43Z</time>
      </trkpt>
      <trkpt lat="48.31574" lon="-2.90761">
        <ele>165</ele>
        <time>2016-03-14T15:55:45Z</time>
      </trkpt>
      <trkpt lat="48.31573" lon="-2.9076">
        <ele>165</ele>
        <time>2016-03-14T15:55:47Z</time>
      </trkpt>
      <trkpt lat="48.31571" lon="-2.90759">
        <ele>165</ele>
        <time>2016-03-14T15:55:49Z</time>
      </trkpt>
      <trkpt lat="48.31569" lon="-2.90757">
        <ele>165</ele>
        <time>2016-03-14T15:55:51Z</time>
      </trkpt>
      <trkpt lat="48.31568" lon="-2.90755">
        <ele>165</ele>
        <time>2016-03-14T15:55:53Z</time>
      </trkpt>
      <trkpt lat="48.31567" lon="-2.90753">
        <ele>165</ele>
        <time>2016-03-14T15:55:56Z</time>
      </trkpt>
      <trkpt lat="48.31565" lon="-2.90752">
        <ele>165</ele>
        <time>2016-03-14T15:55:58Z</time>
      </trkpt>
      <trkpt lat="48.31564" lon="-2.9075">
        <ele>165</ele>
        <time>2016-03-14T15:56:01Z</time>
      </trkpt>
      <trkpt lat="48.31563" lon="-2.9075">
        <ele>165</ele>
        <time>2016-03-14T15:56:05Z</time>
      </trkpt>
      <trkpt lat="48.31562" lon="-2.90748">
        <ele>165</ele>
        <time>2016-03-14T15:56:10Z</time>
      </trkpt>
      <trkpt lat="48.3156" lon="-2.90747">
        <ele>165</ele>
        <time>2016-03-14T15:56:17Z</time>
      </trkpt>
      <trkpt lat="48.31559" lon="-2.90745">
        <ele>165</ele>
        <time>2016-03-14T15:56:19Z</time>
      </trkpt>
      <trkpt lat="48.31558" lon="-2.90744">
        <ele>165</ele>
        <time>2016-03-14T15:56:21Z</time>
      </trkpt>
      <trkpt lat="48.31556" lon="-2.90743">
        <ele>165</ele>
        <time>2016-03-14T15:56:23Z</time>
      </trkpt>
      <trkpt lat="48.31554" lon="-2.90743">
        <ele>165</ele>
        <time>2016-03-14T15:56:25Z</time>
      </trkpt>
      <trkpt lat="48.31552" lon="-2.90742">
        <ele>165</ele>
        <time>2016-03-14T15:56:29Z</time>
      </trkpt>
      <trkpt lat="48.31551" lon="-2.90741">
        <ele>165</ele>
        <time>2016-03-14T15:56:31Z</time>
      </trkpt>
      <trkpt lat="48.31549" lon="-2.9074">
        <ele>165</ele>
        <time>2016-03-14T15:56:33Z</time>
      </trkpt>
      <trkpt lat="48.31548" lon="-2.9074">
        <ele>165</ele>
        <time>2016-03-14T15:56:34Z</time>
      </trkpt>
      <trkpt lat="48.31546" lon="-2.9074">
        <ele>165</ele>
        <time>2016-03-14T15:56:36Z</time>
      </trkpt>
      <trkpt lat="48.31544" lon="-2.90739">
        <ele>165</ele>
        <time>2016-03-14T15:56:38Z</time>
      </trkpt>
      <trkpt lat="48.31543" lon="-2.90738">
        <ele>165</ele>
        <time>2016-03-14T15:56:39Z</time>
      </trkpt>
      <trkpt lat="48.31542" lon="-2.90737">
        <ele>165</ele>
        <time>2016-03-14T15:56:40Z</time>
      </trkpt>
      <trkpt lat="48.31539" lon="-2.90736">
        <ele>164</ele>
        <time>2016-03-14T15:56:42Z</time>
      </trkpt>
      <trkpt lat="48.31538" lon="-2.90736">
        <ele>164</ele>
        <time>2016-03-14T15:56:43Z</time>
      </trkpt>
      <trkpt lat="48.31536" lon="-2.90735">
        <ele>163</ele>
        <time>2016-03-14T15:56:45Z</time>
      </trkpt>
      <trkpt lat="48.31535" lon="-2.90734">
        <ele>162</ele>
        <time>2016-03-14T15:56:47Z</time>
      </trkpt>
      <trkpt lat="48.31533" lon="-2.90732">
        <ele>162</ele>
        <time>2016-03-14T15:56:49Z</time>
      </trkpt>
      <trkpt lat="48.31532" lon="-2.90731">
        <ele>162</ele>
        <time>2016-03-14T15:56:51Z</time>
      </trkpt>
      <trkpt lat="48.3153" lon="-2.90728">
        <ele>162</ele>
        <time>2016-03-14T15:56:53Z</time>
      </trkpt>
      <trkpt lat="48.31527" lon="-2.90726">
        <ele>162</ele>
        <time>2016-03-14T15:56:55Z</time>
      </trkpt>
      <trkpt lat="48.31526" lon="-2.90724">
        <ele>162</ele>
        <time>2016-03-14T15:56:57Z</time>
      </trkpt>
      <trkpt lat="48.31524" lon="-2.90722">
        <ele>162</ele>
        <time>2016-03-14T15:56:59Z</time>
      </trkpt>
      <trkpt lat="48.31522" lon="-2.9072">
        <ele>162</ele>
        <time>2016-03-14T15:57:01Z</time>
      </trkpt>
      <trkpt lat="48.31521" lon="-2.90718">
        <ele>162</ele>
        <time>2016-03-14T15:57:03Z</time>
      </trkpt>
      <trkpt lat="48.31519" lon="-2.90716">
        <ele>162</ele>
        <time>2016-03-14T15:57:05Z</time>
      </trkpt>
      <trkpt lat="48.31517" lon="-2.90714">
        <ele>162</ele>
        <time>2016-03-14T15:57:07Z</time>
      </trkpt>
      <trkpt lat="48.31517" lon="-2.90711">
        <ele>162</ele>
        <time>2016-03-14T15:57:09Z</time>
      </trkpt>
      <trkpt lat="48.31516" lon="-2.90709">
        <ele>162</ele>
        <time>2016-03-14T15:57:10Z</time>
      </trkpt>
      <trkpt lat="48.31516" lon="-2.90708">
        <ele>162</ele>
        <time>2016-03-14T15:57:11Z</time>
      </trkpt>
      <trkpt lat="48.31515" lon="-2.90705">
        <ele>162</ele>
        <time>2016-03-14T15:57:13Z</time>
      </trkpt>
      <trkpt lat="48.31514" lon="-2.90703">
        <ele>162</ele>
        <time>2016-03-14T15:57:14Z</time>
      </trkpt>
      <trkpt lat="48.31514" lon="-2.90701">
        <ele>162</ele>
        <time>2016-03-14T15:57:17Z</time>
      </trkpt>
      <trkpt lat="48.31512" lon="-2.90699">
        <ele>162</ele>
        <time>2016-03-14T15:57:19Z</time>
      </trkpt>
      <trkpt lat="48.3151" lon="-2.90698">
        <ele>162</ele>
        <time>2016-03-14T15:57:22Z</time>
      </trkpt>
      <trkpt lat="48.31508" lon="-2.90698">
        <ele>162</ele>
        <time>2016-03-14T15:57:24Z</time>
      </trkpt>
      <trkpt lat="48.31506" lon="-2.90698">
        <ele>162</ele>
        <time>2016-03-14T15:57:26Z</time>
      </trkpt>
      <trkpt lat="48.31505" lon="-2.90698">
        <ele>162</ele>
        <time>2016-03-14T15:57:27Z</time>
      </trkpt>
      <trkpt lat="48.31504" lon="-2.90698">
        <ele>162</ele>
        <time>2016-03-14T15:57:28Z</time>
      </trkpt>
      <trkpt lat="48.31503" lon="-2.90698">
        <ele>162</ele>
        <time>2016-03-14T15:57:29Z</time>
      </trkpt>
      <trkpt lat="48.31501" lon="-2.90698">
        <ele>162</ele>
        <time>2016-03-14T15:57:30Z</time>
      </trkpt>
      <trkpt lat="48.31499" lon="-2.90699">
        <ele>162</ele>
        <time>2016-03-14T15:57:32Z</time>
      </trkpt>
      <trkpt lat="48.31498" lon="-2.90699">
        <ele>162</ele>
        <time>2016-03-14T15:57:33Z</time>
      </trkpt>
      <trkpt lat="48.31496" lon="-2.90699">
        <ele>162</ele>
        <time>2016-03-14T15:57:34Z</time>
      </trkpt>
      <trkpt lat="48.31495" lon="-2.90699">
        <ele>162</ele>
        <time>2016-03-14T15:57:36Z</time>
      </trkpt>
      <trkpt lat="48.31493" lon="-2.90699">
        <ele>162</ele>
        <time>2016-03-14T15:57:38Z</time>
      </trkpt>
      <trkpt lat="48.31491" lon="-2.90698">
        <ele>162</ele>
        <time>2016-03-14T15:57:39Z</time>
      </trkpt>
      <trkpt lat="48.3149" lon="-2.907">
        <ele>162</ele>
        <time>2016-03-14T15:57:41Z</time>
      </trkpt>
      <trkpt lat="48.31489" lon="-2.907">
        <ele>162</ele>
        <time>2016-03-14T15:57:43Z</time>
      </trkpt>
      <trkpt lat="48.31488" lon="-2.90701">
        <ele>163</ele>
        <time>2016-03-14T15:57:45Z</time>
      </trkpt>
      <trkpt lat="48.31486" lon="-2.90701">
        <ele>163</ele>
        <time>2016-03-14T15:57:46Z</time>
      </trkpt>
      <trkpt lat="48.31484" lon="-2.907">
        <ele>163</ele>
        <time>2016-03-14T15:57:48Z</time>
      </trkpt>
      <trkpt lat="48.31482" lon="-2.907">
        <ele>163</ele>
        <time>2016-03-14T15:57:50Z</time>
      </trkpt>
      <trkpt lat="48.3148" lon="-2.907">
        <ele>163</ele>
        <time>2016-03-14T15:57:52Z</time>
      </trkpt>
      <trkpt lat="48.31479" lon="-2.907">
        <ele>163</ele>
        <time>2016-03-14T15:57:53Z</time>
      </trkpt>
      <trkpt lat="48.31478" lon="-2.907">
        <ele>163</ele>
        <time>2016-03-14T15:57:54Z</time>
      </trkpt>
      <trkpt lat="48.31476" lon="-2.90699">
        <ele>163</ele>
        <time>2016-03-14T15:57:56Z</time>
      </trkpt>
      <trkpt lat="48.31475" lon="-2.90698">
        <ele>163</ele>
        <time>2016-03-14T15:57:57Z</time>
      </trkpt>
      <trkpt lat="48.31473" lon="-2.90697">
        <ele>163</ele>
        <time>2016-03-14T15:57:58Z</time>
      </trkpt>
      <trkpt lat="48.31472" lon="-2.90696">
        <ele>163</ele>
        <time>2016-03-14T15:57:59Z</time>
      </trkpt>
      <trkpt lat="48.3147" lon="-2.90695">
        <ele>163</ele>
        <time>2016-03-14T15:58:01Z</time>
      </trkpt>
      <trkpt lat="48.31469" lon="-2.90694">
        <ele>163</ele>
        <time>2016-03-14T15:58:03Z</time>
      </trkpt>
      <trkpt lat="48.31467" lon="-2.90693">
        <ele>163</ele>
        <time>2016-03-14T15:58:04Z</time>
      </trkpt>
      <trkpt lat="48.31466" lon="-2.90691">
        <ele>163</ele>
        <time>2016-03-14T15:58:06Z</time>
      </trkpt>
      <trkpt lat="48.31464" lon="-2.90689">
        <ele>163</ele>
        <time>2016-03-14T15:58:08Z</time>
      </trkpt>
      <trkpt lat="48.31462" lon="-2.90687">
        <ele>163</ele>
        <time>2016-03-14T15:58:10Z</time>
      </trkpt>
      <trkpt lat="48.3146" lon="-2.90685">
        <ele>163</ele>
        <time>2016-03-14T15:58:12Z</time>
      </trkpt>
      <trkpt lat="48.31458" lon="-2.90684">
        <ele>163</ele>
        <time>2016-03-14T15:58:13Z</time>
      </trkpt>
      <trkpt lat="48.31457" lon="-2.90683">
        <ele>163</ele>
        <time>2016-03-14T15:58:14Z</time>
      </trkpt>
      <trkpt lat="48.31454" lon="-2.90681">
        <ele>163</ele>
        <time>2016-03-14T15:58:16Z</time>
      </trkpt>
      <trkpt lat="48.31453" lon="-2.9068">
        <ele>163</ele>
        <time>2016-03-14T15:58:18Z</time>
      </trkpt>
      <trkpt lat="48.31451" lon="-2.90678">
        <ele>162</ele>
        <time>2016-03-14T15:58:20Z</time>
      </trkpt>
      <trkpt lat="48.3145" lon="-2.90677">
        <ele>162</ele>
        <time>2016-03-14T15:58:21Z</time>
      </trkpt>
      <trkpt lat="48.31448" lon="-2.90676">
        <ele>161</ele>
        <time>2016-03-14T15:58:23Z</time>
      </trkpt>
      <trkpt lat="48.31446" lon="-2.90675">
        <ele>161</ele>
        <time>2016-03-14T15:58:25Z</time>
      </trkpt>
      <trkpt lat="48.31445" lon="-2.90674">
        <ele>160</ele>
        <time>2016-03-14T15:58:27Z</time>
      </trkpt>
      <trkpt lat="48.31443" lon="-2.90674">
        <ele>160</ele>
        <time>2016-03-14T15:58:29Z</time>
      </trkpt>
      <trkpt lat="48.31442" lon="-2.90674">
        <ele>160</ele>
        <time>2016-03-14T15:58:31Z</time>
      </trkpt>
      <trkpt lat="48.3144" lon="-2.90673">
        <ele>160</ele>
        <time>2016-03-14T15:58:33Z</time>
      </trkpt>
      <trkpt lat="48.31439" lon="-2.90672">
        <ele>160</ele>
        <time>2016-03-14T15:58:34Z</time>
      </trkpt>
      <trkpt lat="48.31438" lon="-2.9067">
        <ele>160</ele>
        <time>2016-03-14T15:58:36Z</time>
      </trkpt>
      <trkpt lat="48.31436" lon="-2.90668">
        <ele>160</ele>
        <time>2016-03-14T15:58:38Z</time>
      </trkpt>
      <trkpt lat="48.31435" lon="-2.90666">
        <ele>160</ele>
        <time>2016-03-14T15:58:40Z</time>
      </trkpt>
      <trkpt lat="48.31433" lon="-2.90666">
        <ele>160</ele>
        <time>2016-03-14T15:58:42Z</time>
      </trkpt>
      <trkpt lat="48.31432" lon="-2.90668">
        <ele>160</ele>
        <time>2016-03-14T15:58:45Z</time>
      </trkpt>
      <trkpt lat="48.3143" lon="-2.90668">
        <ele>161</ele>
        <time>2016-03-14T15:58:47Z</time>
      </trkpt>
      <trkpt lat="48.31429" lon="-2.90668">
        <ele>161</ele>
        <time>2016-03-14T15:58:48Z</time>
      </trkpt>
      <trkpt lat="48.31427" lon="-2.90667">
        <ele>161</ele>
        <time>2016-03-14T15:58:50Z</time>
      </trkpt>
      <trkpt lat="48.31425" lon="-2.90667">
        <ele>161</ele>
        <time>2016-03-14T15:58:51Z</time>
      </trkpt>
      <trkpt lat="48.31423" lon="-2.90668">
        <ele>162</ele>
        <time>2016-03-14T15:58:53Z</time>
      </trkpt>
      <trkpt lat="48.31422" lon="-2.90669">
        <ele>162</ele>
        <time>2016-03-14T15:58:55Z</time>
      </trkpt>
      <trkpt lat="48.31421" lon="-2.90669">
        <ele>162</ele>
        <time>2016-03-14T15:58:56Z</time>
      </trkpt>
      <trkpt lat="48.31419" lon="-2.9067">
        <ele>162</ele>
        <time>2016-03-14T15:58:57Z</time>
      </trkpt>
      <trkpt lat="48.31418" lon="-2.9067">
        <ele>162</ele>
        <time>2016-03-14T15:58:58Z</time>
      </trkpt>
      <trkpt lat="48.31417" lon="-2.90671">
        <ele>162</ele>
        <time>2016-03-14T15:58:59Z</time>
      </trkpt>
      <trkpt lat="48.31415" lon="-2.90673">
        <ele>162</ele>
        <time>2016-03-14T15:59:01Z</time>
      </trkpt>
      <trkpt lat="48.31414" lon="-2.90673">
        <ele>162</ele>
        <time>2016-03-14T15:59:02Z</time>
      </trkpt>
      <trkpt lat="48.31412" lon="-2.90675">
        <ele>162</ele>
        <time>2016-03-14T15:59:04Z</time>
      </trkpt>
      <trkpt lat="48.3141" lon="-2.90676">
        <ele>162</ele>
        <time>2016-03-14T15:59:05Z</time>
      </trkpt>
      <trkpt lat="48.31409" lon="-2.90676">
        <ele>162</ele>
        <time>2016-03-14T15:59:06Z</time>
      </trkpt>
      <trkpt lat="48.31408" lon="-2.90677">
        <ele>162</ele>
        <time>2016-03-14T15:59:07Z</time>
      </trkpt>
      <trkpt lat="48.31406" lon="-2.90679">
        <ele>162</ele>
        <time>2016-03-14T15:59:09Z</time>
      </trkpt>
      <trkpt lat="48.31404" lon="-2.90681">
        <ele>162</ele>
        <time>2016-03-14T15:59:11Z</time>
      </trkpt>
      <trkpt lat="48.31402" lon="-2.90682">
        <ele>162</ele>
        <time>2016-03-14T15:59:13Z</time>
      </trkpt>
      <trkpt lat="48.314" lon="-2.90684">
        <ele>162</ele>
        <time>2016-03-14T15:59:15Z</time>
      </trkpt>
      <trkpt lat="48.31398" lon="-2.90686">
        <ele>162</ele>
        <time>2016-03-14T15:59:17Z</time>
      </trkpt>
      <trkpt lat="48.31397" lon="-2.90687">
        <ele>162</ele>
        <time>2016-03-14T15:59:19Z</time>
      </trkpt>
      <trkpt lat="48.31395" lon="-2.90688">
        <ele>162</ele>
        <time>2016-03-14T15:59:21Z</time>
      </trkpt>
      <trkpt lat="48.31393" lon="-2.90688">
        <ele>162</ele>
        <time>2016-03-14T15:59:23Z</time>
      </trkpt>
      <trkpt lat="48.31392" lon="-2.90688">
        <ele>162</ele>
        <time>2016-03-14T15:59:25Z</time>
      </trkpt>
      <trkpt lat="48.3139" lon="-2.90689">
        <ele>162</ele>
        <time>2016-03-14T15:59:27Z</time>
      </trkpt>
      <trkpt lat="48.31389" lon="-2.90689">
        <ele>162</ele>
        <time>2016-03-14T15:59:28Z</time>
      </trkpt>
      <trkpt lat="48.31387" lon="-2.90689">
        <ele>162</ele>
        <time>2016-03-14T15:59:29Z</time>
      </trkpt>
      <trkpt lat="48.31386" lon="-2.90689">
        <ele>162</ele>
        <time>2016-03-14T15:59:30Z</time>
      </trkpt>
      <trkpt lat="48.31385" lon="-2.9069">
        <ele>162</ele>
        <time>2016-03-14T15:59:31Z</time>
      </trkpt>
      <trkpt lat="48.31384" lon="-2.90691">
        <ele>162</ele>
        <time>2016-03-14T15:59:32Z</time>
      </trkpt>
      <trkpt lat="48.31383" lon="-2.90692">
        <ele>162</ele>
        <time>2016-03-14T15:59:33Z</time>
      </trkpt>
      <trkpt lat="48.31381" lon="-2.90694">
        <ele>162</ele>
        <time>2016-03-14T15:59:35Z</time>
      </trkpt>
      <trkpt lat="48.3138" lon="-2.90694">
        <ele>162</ele>
        <time>2016-03-14T15:59:36Z</time>
      </trkpt>
      <trkpt lat="48.31379" lon="-2.90695">
        <ele>162</ele>
        <time>2016-03-14T15:59:37Z</time>
      </trkpt>
      <trkpt lat="48.31377" lon="-2.90697">
        <ele>162</ele>
        <time>2016-03-14T15:59:38Z</time>
      </trkpt>
      <trkpt lat="48.31376" lon="-2.90699">
        <ele>162</ele>
        <time>2016-03-14T15:59:40Z</time>
      </trkpt>
      <trkpt lat="48.31374" lon="-2.907">
        <ele>162</ele>
        <time>2016-03-14T15:59:41Z</time>
      </trkpt>
      <trkpt lat="48.31373" lon="-2.907">
        <ele>162</ele>
        <time>2016-03-14T15:59:42Z</time>
      </trkpt>
      <trkpt lat="48.31371" lon="-2.907">
        <ele>162</ele>
        <time>2016-03-14T15:59:43Z</time>
      </trkpt>
      <trkpt lat="48.31369" lon="-2.90701">
        <ele>162</ele>
        <time>2016-03-14T15:59:45Z</time>
      </trkpt>
      <trkpt lat="48.31368" lon="-2.90703">
        <ele>162</ele>
        <time>2016-03-14T15:59:46Z</time>
      </trkpt>
      <trkpt lat="48.31367" lon="-2.90703">
        <ele>162</ele>
        <time>2016-03-14T15:59:47Z</time>
      </trkpt>
      <trkpt lat="48.31366" lon="-2.90706">
        <ele>162</ele>
        <time>2016-03-14T15:59:49Z</time>
      </trkpt>
      <trkpt lat="48.31364" lon="-2.90707">
        <ele>162</ele>
        <time>2016-03-14T15:59:51Z</time>
      </trkpt>
      <trkpt lat="48.31363" lon="-2.90708">
        <ele>162</ele>
        <time>2016-03-14T15:59:52Z</time>
      </trkpt>
      <trkpt lat="48.31361" lon="-2.9071">
        <ele>162</ele>
        <time>2016-03-14T15:59:54Z</time>
      </trkpt>
      <trkpt lat="48.3136" lon="-2.9071">
        <ele>162</ele>
        <time>2016-03-14T15:59:55Z</time>
      </trkpt>
      <trkpt lat="48.31358" lon="-2.90712">
        <ele>162</ele>
        <time>2016-03-14T15:59:57Z</time>
      </trkpt>
      <trkpt lat="48.31356" lon="-2.90713">
        <ele>162</ele>
        <time>2016-03-14T15:59:59Z</time>
      </trkpt>
      <trkpt lat="48.31355" lon="-2.90713">
        <ele>162</ele>
        <time>2016-03-14T16:00:00Z</time>
      </trkpt>
      <trkpt lat="48.31353" lon="-2.90715">
        <ele>162</ele>
        <time>2016-03-14T16:00:02Z</time>
      </trkpt>
      <trkpt lat="48.31352" lon="-2.90716">
        <ele>162</ele>
        <time>2016-03-14T16:00:04Z</time>
      </trkpt>
      <trkpt lat="48.3135" lon="-2.90718">
        <ele>162</ele>
        <time>2016-03-14T16:00:06Z</time>
      </trkpt>
      <trkpt lat="48.31348" lon="-2.90721">
        <ele>162</ele>
        <time>2016-03-14T16:00:08Z</time>
      </trkpt>
      <trkpt lat="48.31347" lon="-2.90721">
        <ele>162</ele>
        <time>2016-03-14T16:00:09Z</time>
      </trkpt>
      <trkpt lat="48.31345" lon="-2.90722">
        <ele>162</ele>
        <time>2016-03-14T16:00:11Z</time>
      </trkpt>
      <trkpt lat="48.31343" lon="-2.90724">
        <ele>162</ele>
        <time>2016-03-14T16:00:13Z</time>
      </trkpt>
      <trkpt lat="48.31342" lon="-2.90724">
        <ele>162</ele>
        <time>2016-03-14T16:00:15Z</time>
      </trkpt>
      <trkpt lat="48.3134" lon="-2.90725">
        <ele>162</ele>
        <time>2016-03-14T16:00:16Z</time>
      </trkpt>
      <trkpt lat="48.31339" lon="-2.90725">
        <ele>162</ele>
        <time>2016-03-14T16:00:17Z</time>
      </trkpt>
      <trkpt lat="48.31338" lon="-2.90725">
        <ele>162</ele>
        <time>2016-03-14T16:00:19Z</time>
      </trkpt>
      <trkpt lat="48.31336" lon="-2.90727">
        <ele>162</ele>
        <time>2016-03-14T16:00:21Z</time>
      </trkpt>
      <trkpt lat="48.31334" lon="-2.90729">
        <ele>162</ele>
        <time>2016-03-14T16:00:23Z</time>
      </trkpt>
      <trkpt lat="48.31332" lon="-2.90731">
        <ele>162</ele>
        <time>2016-03-14T16:00:25Z</time>
      </trkpt>
      <trkpt lat="48.31331" lon="-2.90733">
        <ele>162</ele>
        <time>2016-03-14T16:00:27Z</time>
      </trkpt>
      <trkpt lat="48.31329" lon="-2.90735">
        <ele>162</ele>
        <time>2016-03-14T16:00:29Z</time>
      </trkpt>
      <trkpt lat="48.31328" lon="-2.90738">
        <ele>162</ele>
        <time>2016-03-14T16:00:31Z</time>
      </trkpt>
      <trkpt lat="48.31328" lon="-2.90739">
        <ele>162</ele>
        <time>2016-03-14T16:00:32Z</time>
      </trkpt>
      <trkpt lat="48.31327" lon="-2.90741">
        <ele>162</ele>
        <time>2016-03-14T16:00:33Z</time>
      </trkpt>
      <trkpt lat="48.31326" lon="-2.90744">
        <ele>162</ele>
        <time>2016-03-14T16:00:35Z</time>
      </trkpt>
      <trkpt lat="48.31324" lon="-2.90744">
        <ele>162</ele>
        <time>2016-03-14T16:00:36Z</time>
      </trkpt>
      <trkpt lat="48.31323" lon="-2.90744">
        <ele>162</ele>
        <time>2016-03-14T16:00:37Z</time>
      </trkpt>
      <trkpt lat="48.31322" lon="-2.90745">
        <ele>162</ele>
        <time>2016-03-14T16:00:39Z</time>
      </trkpt>
      <trkpt lat="48.31321" lon="-2.90747">
        <ele>162</ele>
        <time>2016-03-14T16:00:41Z</time>
      </trkpt>
      <trkpt lat="48.31319" lon="-2.90749">
        <ele>162</ele>
        <time>2016-03-14T16:00:43Z</time>
      </trkpt>
      <trkpt lat="48.31318" lon="-2.90749">
        <ele>162</ele>
        <time>2016-03-14T16:00:44Z</time>
      </trkpt>
      <trkpt lat="48.31316" lon="-2.9075">
        <ele>162</ele>
        <time>2016-03-14T16:00:45Z</time>
      </trkpt>
      <trkpt lat="48.31315" lon="-2.9075">
        <ele>162</ele>
        <time>2016-03-14T16:00:46Z</time>
      </trkpt>
      <trkpt lat="48.31313" lon="-2.90752">
        <ele>162</ele>
        <time>2016-03-14T16:00:48Z</time>
      </trkpt>
      <trkpt lat="48.31311" lon="-2.90753">
        <ele>162</ele>
        <time>2016-03-14T16:00:50Z</time>
      </trkpt>
      <trkpt lat="48.3131" lon="-2.90755">
        <ele>162</ele>
        <time>2016-03-14T16:00:52Z</time>
      </trkpt>
      <trkpt lat="48.31308" lon="-2.90757">
        <ele>162</ele>
        <time>2016-03-14T16:00:54Z</time>
      </trkpt>
      <trkpt lat="48.31306" lon="-2.90758">
        <ele>162</ele>
        <time>2016-03-14T16:00:56Z</time>
      </trkpt>
      <trkpt lat="48.31305" lon="-2.90759">
        <ele>162</ele>
        <time>2016-03-14T16:00:57Z</time>
      </trkpt>
      <trkpt lat="48.31303" lon="-2.9076">
        <ele>162</ele>
        <time>2016-03-14T16:00:59Z</time>
      </trkpt>
      <trkpt lat="48.31301" lon="-2.90762">
        <ele>162</ele>
        <time>2016-03-14T16:01:01Z</time>
      </trkpt>
      <trkpt lat="48.313" lon="-2.90763">
        <ele>162</ele>
        <time>2016-03-14T16:01:03Z</time>
      </trkpt>
      <trkpt lat="48.31298" lon="-2.90765">
        <ele>162</ele>
        <time>2016-03-14T16:01:05Z</time>
      </trkpt>
      <trkpt lat="48.31295" lon="-2.90766">
        <ele>162</ele>
        <time>2016-03-14T16:01:07Z</time>
      </trkpt>
      <trkpt lat="48.31294" lon="-2.90766">
        <ele>162</ele>
        <time>2016-03-14T16:01:08Z</time>
      </trkpt>
      <trkpt lat="48.31292" lon="-2.90765">
        <ele>162</ele>
        <time>2016-03-14T16:01:10Z</time>
      </trkpt>
      <trkpt lat="48.3129" lon="-2.90764">
        <ele>162</ele>
        <time>2016-03-14T16:01:12Z</time>
      </trkpt>
      <trkpt lat="48.31288" lon="-2.90762">
        <ele>162</ele>
        <time>2016-03-14T16:01:14Z</time>
      </trkpt>
      <trkpt lat="48.31286" lon="-2.90762">
        <ele>162</ele>
        <time>2016-03-14T16:01:15Z</time>
      </trkpt>
      <trkpt lat="48.31284" lon="-2.90762">
        <ele>162</ele>
        <time>2016-03-14T16:01:16Z</time>
      </trkpt>
      <trkpt lat="48.31283" lon="-2.90762">
        <ele>162</ele>
        <time>2016-03-14T16:01:17Z</time>
      </trkpt>
      <trkpt lat="48.31282" lon="-2.90762">
        <ele>162</ele>
        <time>2016-03-14T16:01:18Z</time>
      </trkpt>
      <trkpt lat="48.3128" lon="-2.90763">
        <ele>162</ele>
        <time>2016-03-14T16:01:19Z</time>
      </trkpt>
      <trkpt lat="48.31279" lon="-2.90764">
        <ele>162</ele>
        <time>2016-03-14T16:01:20Z</time>
      </trkpt>
      <trkpt lat="48.31277" lon="-2.90765">
        <ele>163</ele>
        <time>2016-03-14T16:01:21Z</time>
      </trkpt>
      <trkpt lat="48.31276" lon="-2.90766">
        <ele>163</ele>
        <time>2016-03-14T16:01:22Z</time>
      </trkpt>
      <trkpt lat="48.31275" lon="-2.90766">
        <ele>163</ele>
        <time>2016-03-14T16:01:23Z</time>
      </trkpt>
      <trkpt lat="48.31274" lon="-2.90766">
        <ele>163</ele>
        <time>2016-03-14T16:01:24Z</time>
      </trkpt>
      <trkpt lat="48.31272" lon="-2.90767">
        <ele>163</ele>
        <time>2016-03-14T16:01:25Z</time>
      </trkpt>
      <trkpt lat="48.31271" lon="-2.90767">
        <ele>163</ele>
        <time>2016-03-14T16:01:26Z</time>
      </trkpt>
      <trkpt lat="48.3127" lon="-2.90768">
        <ele>163</ele>
        <time>2016-03-14T16:01:27Z</time>
      </trkpt>
      <trkpt lat="48.31268" lon="-2.90769">
        <ele>163</ele>
        <time>2016-03-14T16:01:28Z</time>
      </trkpt>
      <trkpt lat="48.31267" lon="-2.9077">
        <ele>163</ele>
        <time>2016-03-14T16:01:29Z</time>
      </trkpt>
      <trkpt lat="48.31266" lon="-2.9077">
        <ele>163</ele>
        <time>2016-03-14T16:01:30Z</time>
      </trkpt>
      <trkpt lat="48.31265" lon="-2.90771">
        <ele>163</ele>
        <time>2016-03-14T16:01:31Z</time>
      </trkpt>
      <trkpt lat="48.31264" lon="-2.90771">
        <ele>163</ele>
        <time>2016-03-14T16:01:32Z</time>
      </trkpt>
      <trkpt lat="48.31263" lon="-2.90772">
        <ele>163</ele>
        <time>2016-03-14T16:01:33Z</time>
      </trkpt>
      <trkpt lat="48.31261" lon="-2.90773">
        <ele>163</ele>
        <time>2016-03-14T16:01:34Z</time>
      </trkpt>
      <trkpt lat="48.3126" lon="-2.90774">
        <ele>163</ele>
        <time>2016-03-14T16:01:35Z</time>
      </trkpt>
      <trkpt lat="48.31258" lon="-2.90776">
        <ele>163</ele>
        <time>2016-03-14T16:01:37Z</time>
      </trkpt>
      <trkpt lat="48.31257" lon="-2.90779">
        <ele>163</ele>
        <time>2016-03-14T16:01:39Z</time>
      </trkpt>
      <trkpt lat="48.31256" lon="-2.90781">
        <ele>163</ele>
        <time>2016-03-14T16:01:40Z</time>
      </trkpt>
      <trkpt lat="48.31256" lon="-2.90783">
        <ele>163</ele>
        <time>2016-03-14T16:01:41Z</time>
      </trkpt>
      <trkpt lat="48.31256" lon="-2.90785">
        <ele>163</ele>
        <time>2016-03-14T16:01:43Z</time>
      </trkpt>
      <trkpt lat="48.31256" lon="-2.90788">
        <ele>163</ele>
        <time>2016-03-14T16:01:45Z</time>
      </trkpt>
      <trkpt lat="48.31256" lon="-2.9079">
        <ele>163</ele>
        <time>2016-03-14T16:01:47Z</time>
      </trkpt>
      <trkpt lat="48.31255" lon="-2.90793">
        <ele>163</ele>
        <time>2016-03-14T16:01:49Z</time>
      </trkpt>
      <trkpt lat="48.31255" lon="-2.90795">
        <ele>163</ele>
        <time>2016-03-14T16:01:51Z</time>
      </trkpt>
      <trkpt lat="48.31253" lon="-2.90798">
        <ele>163</ele>
        <time>2016-03-14T16:01:54Z</time>
      </trkpt>
      <trkpt lat="48.31252" lon="-2.90799">
        <ele>163</ele>
        <time>2016-03-14T16:01:56Z</time>
      </trkpt>
      <trkpt lat="48.3125" lon="-2.90801">
        <ele>163</ele>
        <time>2016-03-14T16:01:58Z</time>
      </trkpt>
      <trkpt lat="48.31248" lon="-2.90804">
        <ele>163</ele>
        <time>2016-03-14T16:02:00Z</time>
      </trkpt>
      <trkpt lat="48.31247" lon="-2.90805">
        <ele>163</ele>
        <time>2016-03-14T16:02:02Z</time>
      </trkpt>
      <trkpt lat="48.31245" lon="-2.90807">
        <ele>163</ele>
        <time>2016-03-14T16:02:04Z</time>
      </trkpt>
      <trkpt lat="48.31244" lon="-2.90809">
        <ele>163</ele>
        <time>2016-03-14T16:02:05Z</time>
      </trkpt>
      <trkpt lat="48.31243" lon="-2.9081">
        <ele>163</ele>
        <time>2016-03-14T16:02:06Z</time>
      </trkpt>
      <trkpt lat="48.31241" lon="-2.90811">
        <ele>163</ele>
        <time>2016-03-14T16:02:08Z</time>
      </trkpt>
      <trkpt lat="48.31239" lon="-2.90813">
        <ele>163</ele>
        <time>2016-03-14T16:02:10Z</time>
      </trkpt>
      <trkpt lat="48.31238" lon="-2.90814">
        <ele>163</ele>
        <time>2016-03-14T16:02:12Z</time>
      </trkpt>
      <trkpt lat="48.31237" lon="-2.90815">
        <ele>163</ele>
        <time>2016-03-14T16:02:13Z</time>
      </trkpt>
      <trkpt lat="48.31235" lon="-2.90817">
        <ele>163</ele>
        <time>2016-03-14T16:02:15Z</time>
      </trkpt>
      <trkpt lat="48.31234" lon="-2.90818">
        <ele>163</ele>
        <time>2016-03-14T16:02:17Z</time>
      </trkpt>
      <trkpt lat="48.31232" lon="-2.90821">
        <ele>163</ele>
        <time>2016-03-14T16:02:19Z</time>
      </trkpt>
      <trkpt lat="48.3123" lon="-2.90823">
        <ele>163</ele>
        <time>2016-03-14T16:02:21Z</time>
      </trkpt>
      <trkpt lat="48.31229" lon="-2.90825">
        <ele>163</ele>
        <time>2016-03-14T16:02:23Z</time>
      </trkpt>
      <trkpt lat="48.31228" lon="-2.90828">
        <ele>163</ele>
        <time>2016-03-14T16:02:25Z</time>
      </trkpt>
      <trkpt lat="48.31226" lon="-2.90831">
        <ele>163</ele>
        <time>2016-03-14T16:02:27Z</time>
      </trkpt>
      <trkpt lat="48.31224" lon="-2.90833">
        <ele>163</ele>
        <time>2016-03-14T16:02:29Z</time>
      </trkpt>
      <trkpt lat="48.31223" lon="-2.90835">
        <ele>163</ele>
        <time>2016-03-14T16:02:31Z</time>
      </trkpt>
      <trkpt lat="48.31221" lon="-2.90837">
        <ele>163</ele>
        <time>2016-03-14T16:02:33Z</time>
      </trkpt>
      <trkpt lat="48.31219" lon="-2.90839">
        <ele>163</ele>
        <time>2016-03-14T16:02:35Z</time>
      </trkpt>
      <trkpt lat="48.31218" lon="-2.90839">
        <ele>163</ele>
        <time>2016-03-14T16:02:36Z</time>
      </trkpt>
      <trkpt lat="48.31216" lon="-2.90839">
        <ele>163</ele>
        <time>2016-03-14T16:02:38Z</time>
      </trkpt>
      <trkpt lat="48.31214" lon="-2.90838">
        <ele>163</ele>
        <time>2016-03-14T16:02:40Z</time>
      </trkpt>
      <trkpt lat="48.31212" lon="-2.90837">
        <ele>163</ele>
        <time>2016-03-14T16:02:42Z</time>
      </trkpt>
      <trkpt lat="48.31211" lon="-2.90837">
        <ele>163</ele>
        <time>2016-03-14T16:02:44Z</time>
      </trkpt>
      <trkpt lat="48.31208" lon="-2.90838">
        <ele>163</ele>
        <time>2016-03-14T16:02:46Z</time>
      </trkpt>
      <trkpt lat="48.31207" lon="-2.90839">
        <ele>163</ele>
        <time>2016-03-14T16:02:47Z</time>
      </trkpt>
      <trkpt lat="48.31206" lon="-2.90839">
        <ele>163</ele>
        <time>2016-03-14T16:02:48Z</time>
      </trkpt>
      <trkpt lat="48.31205" lon="-2.9084">
        <ele>163</ele>
        <time>2016-03-14T16:02:49Z</time>
      </trkpt>
      <trkpt lat="48.31203" lon="-2.90842">
        <ele>163</ele>
        <time>2016-03-14T16:02:51Z</time>
      </trkpt>
      <trkpt lat="48.31201" lon="-2.90843">
        <ele>163</ele>
        <time>2016-03-14T16:02:53Z</time>
      </trkpt>
      <trkpt lat="48.31199" lon="-2.90844">
        <ele>163</ele>
        <time>2016-03-14T16:02:55Z</time>
      </trkpt>
      <trkpt lat="48.31198" lon="-2.90845">
        <ele>163</ele>
        <time>2016-03-14T16:02:56Z</time>
      </trkpt>
      <trkpt lat="48.31196" lon="-2.90845">
        <ele>163</ele>
        <time>2016-03-14T16:02:58Z</time>
      </trkpt>
      <trkpt lat="48.31194" lon="-2.90846">
        <ele>163</ele>
        <time>2016-03-14T16:03:00Z</time>
      </trkpt>
      <trkpt lat="48.31192" lon="-2.90848">
        <ele>163</ele>
        <time>2016-03-14T16:03:02Z</time>
      </trkpt>
      <trkpt lat="48.31191" lon="-2.9085">
        <ele>163</ele>
        <time>2016-03-14T16:03:04Z</time>
      </trkpt>
      <trkpt lat="48.31189" lon="-2.90852">
        <ele>163</ele>
        <time>2016-03-14T16:03:06Z</time>
      </trkpt>
      <trkpt lat="48.31187" lon="-2.90854">
        <ele>163</ele>
        <time>2016-03-14T16:03:08Z</time>
      </trkpt>
      <trkpt lat="48.31186" lon="-2.90855">
        <ele>163</ele>
        <time>2016-03-14T16:03:10Z</time>
      </trkpt>
      <trkpt lat="48.31184" lon="-2.90857">
        <ele>163</ele>
        <time>2016-03-14T16:03:12Z</time>
      </trkpt>
      <trkpt lat="48.31181" lon="-2.90858">
        <ele>163</ele>
        <time>2016-03-14T16:03:14Z</time>
      </trkpt>
      <trkpt lat="48.31179" lon="-2.9086">
        <ele>163</ele>
        <time>2016-03-14T16:03:16Z</time>
      </trkpt>
      <trkpt lat="48.31178" lon="-2.9086">
        <ele>163</ele>
        <time>2016-03-14T16:03:18Z</time>
      </trkpt>
      <trkpt lat="48.31176" lon="-2.90861">
        <ele>163</ele>
        <time>2016-03-14T16:03:20Z</time>
      </trkpt>
      <trkpt lat="48.31174" lon="-2.90863">
        <ele>163</ele>
        <time>2016-03-14T16:03:22Z</time>
      </trkpt>
      <trkpt lat="48.31173" lon="-2.90865">
        <ele>163</ele>
        <time>2016-03-14T16:03:24Z</time>
      </trkpt>
      <trkpt lat="48.31171" lon="-2.90867">
        <ele>163</ele>
        <time>2016-03-14T16:03:26Z</time>
      </trkpt>
      <trkpt lat="48.31169" lon="-2.90869">
        <ele>163</ele>
        <time>2016-03-14T16:03:28Z</time>
      </trkpt>
      <trkpt lat="48.31167" lon="-2.90871">
        <ele>163</ele>
        <time>2016-03-14T16:03:30Z</time>
      </trkpt>
      <trkpt lat="48.31165" lon="-2.90872">
        <ele>163</ele>
        <time>2016-03-14T16:03:32Z</time>
      </trkpt>
      <trkpt lat="48.31163" lon="-2.90874">
        <ele>163</ele>
        <time>2016-03-14T16:03:34Z</time>
      </trkpt>
      <trkpt lat="48.31162" lon="-2.90875">
        <ele>163</ele>
        <time>2016-03-14T16:03:36Z</time>
      </trkpt>
      <trkpt lat="48.3116" lon="-2.90876">
        <ele>163</ele>
        <time>2016-03-14T16:03:38Z</time>
      </trkpt>
      <trkpt lat="48.31158" lon="-2.90876">
        <ele>163</ele>
        <time>2016-03-14T16:03:39Z</time>
      </trkpt>
      <trkpt lat="48.31157" lon="-2.90876">
        <ele>163</ele>
        <time>2016-03-14T16:03:40Z</time>
      </trkpt>
      <trkpt lat="48.31155" lon="-2.90876">
        <ele>163</ele>
        <time>2016-03-14T16:03:42Z</time>
      </trkpt>
      <trkpt lat="48.31154" lon="-2.90876">
        <ele>163</ele>
        <time>2016-03-14T16:03:43Z</time>
      </trkpt>
      <trkpt lat="48.31152" lon="-2.90874">
        <ele>163</ele>
        <time>2016-03-14T16:03:45Z</time>
      </trkpt>
      <trkpt lat="48.31152" lon="-2.90872">
        <ele>163</ele>
        <time>2016-03-14T16:03:47Z</time>
      </trkpt>
      <trkpt lat="48.31151" lon="-2.9087">
        <ele>163</ele>
        <time>2016-03-14T16:03:49Z</time>
      </trkpt>
      <trkpt lat="48.3115" lon="-2.90867">
        <ele>164</ele>
        <time>2016-03-14T16:03:51Z</time>
      </trkpt>
      <trkpt lat="48.3115" lon="-2.90865">
        <ele>164</ele>
        <time>2016-03-14T16:03:53Z</time>
      </trkpt>
      <trkpt lat="48.31148" lon="-2.90863">
        <ele>165</ele>
        <time>2016-03-14T16:03:56Z</time>
      </trkpt>
      <trkpt lat="48.31147" lon="-2.90862">
        <ele>166</ele>
        <time>2016-03-14T16:03:58Z</time>
      </trkpt>
      <trkpt lat="48.31145" lon="-2.90863">
        <ele>166</ele>
        <time>2016-03-14T16:04:00Z</time>
      </trkpt>
      <trkpt lat="48.31143" lon="-2.90865">
        <ele>166</ele>
        <time>2016-03-14T16:04:02Z</time>
      </trkpt>
      <trkpt lat="48.31142" lon="-2.90867">
        <ele>166</ele>
        <time>2016-03-14T16:04:04Z</time>
      </trkpt>
      <trkpt lat="48.3114" lon="-2.90868">
        <ele>166</ele>
        <time>2016-03-14T16:04:06Z</time>
      </trkpt>
      <trkpt lat="48.31138" lon="-2.90868">
        <ele>166</ele>
        <time>2016-03-14T16:04:08Z</time>
      </trkpt>
      <trkpt lat="48.31136" lon="-2.90868">
        <ele>166</ele>
        <time>2016-03-14T16:04:10Z</time>
      </trkpt>
      <trkpt lat="48.31134" lon="-2.90868">
        <ele>166</ele>
        <time>2016-03-14T16:04:12Z</time>
      </trkpt>
      <trkpt lat="48.31132" lon="-2.90869">
        <ele>166</ele>
        <time>2016-03-14T16:04:14Z</time>
      </trkpt>
      <trkpt lat="48.3113" lon="-2.9087">
        <ele>166</ele>
        <time>2016-03-14T16:04:16Z</time>
      </trkpt>
      <trkpt lat="48.31128" lon="-2.90872">
        <ele>166</ele>
        <time>2016-03-14T16:04:18Z</time>
      </trkpt>
      <trkpt lat="48.31127" lon="-2.90875">
        <ele>166</ele>
        <time>2016-03-14T16:04:20Z</time>
      </trkpt>
      <trkpt lat="48.31127" lon="-2.90876">
        <ele>166</ele>
        <time>2016-03-14T16:04:21Z</time>
      </trkpt>
      <trkpt lat="48.31126" lon="-2.90879">
        <ele>166</ele>
        <time>2016-03-14T16:04:23Z</time>
      </trkpt>
      <trkpt lat="48.31124" lon="-2.90881">
        <ele>166</ele>
        <time>2016-03-14T16:04:25Z</time>
      </trkpt>
      <trkpt lat="48.31123" lon="-2.90882">
        <ele>166</ele>
        <time>2016-03-14T16:04:27Z</time>
      </trkpt>
      <trkpt lat="48.31121" lon="-2.90883">
        <ele>166</ele>
        <time>2016-03-14T16:04:29Z</time>
      </trkpt>
      <trkpt lat="48.3112" lon="-2.90884">
        <ele>166</ele>
        <time>2016-03-14T16:04:31Z</time>
      </trkpt>
      <trkpt lat="48.31118" lon="-2.90886">
        <ele>166</ele>
        <time>2016-03-14T16:04:33Z</time>
      </trkpt>
      <trkpt lat="48.31117" lon="-2.90889">
        <ele>166</ele>
        <time>2016-03-14T16:04:35Z</time>
      </trkpt>
      <trkpt lat="48.31116" lon="-2.90892">
        <ele>166</ele>
        <time>2016-03-14T16:04:37Z</time>
      </trkpt>
      <trkpt lat="48.31115" lon="-2.90894">
        <ele>166</ele>
        <time>2016-03-14T16:04:39Z</time>
      </trkpt>
      <trkpt lat="48.31113" lon="-2.90896">
        <ele>166</ele>
        <time>2016-03-14T16:04:41Z</time>
      </trkpt>
      <trkpt lat="48.31112" lon="-2.90898">
        <ele>166</ele>
        <time>2016-03-14T16:04:43Z</time>
      </trkpt>
      <trkpt lat="48.3111" lon="-2.909">
        <ele>166</ele>
        <time>2016-03-14T16:04:47Z</time>
      </trkpt>
      <trkpt lat="48.31109" lon="-2.909">
        <ele>166</ele>
        <time>2016-03-14T16:04:50Z</time>
      </trkpt>
      <trkpt lat="48.31107" lon="-2.909">
        <ele>167</ele>
        <time>2016-03-14T16:04:52Z</time>
      </trkpt>
      <trkpt lat="48.31106" lon="-2.909">
        <ele>168</ele>
        <time>2016-03-14T16:04:55Z</time>
      </trkpt>
      <trkpt lat="48.31104" lon="-2.90902">
        <ele>169</ele>
        <time>2016-03-14T16:04:58Z</time>
      </trkpt>
      <trkpt lat="48.31104" lon="-2.90905">
        <ele>169</ele>
        <time>2016-03-14T16:05:00Z</time>
      </trkpt>
      <trkpt lat="48.31104" lon="-2.90907">
        <ele>169</ele>
        <time>2016-03-14T16:05:01Z</time>
      </trkpt>
      <trkpt lat="48.31102" lon="-2.90909">
        <ele>169</ele>
        <time>2016-03-14T16:05:03Z</time>
      </trkpt>
      <trkpt lat="48.31101" lon="-2.90911">
        <ele>169</ele>
        <time>2016-03-14T16:05:05Z</time>
      </trkpt>
      <trkpt lat="48.311" lon="-2.90913">
        <ele>169</ele>
        <time>2016-03-14T16:05:07Z</time>
      </trkpt>
      <trkpt lat="48.31099" lon="-2.90914">
        <ele>169</ele>
        <time>2016-03-14T16:05:08Z</time>
      </trkpt>
      <trkpt lat="48.31097" lon="-2.90916">
        <ele>169</ele>
        <time>2016-03-14T16:05:10Z</time>
      </trkpt>
      <trkpt lat="48.31095" lon="-2.90918">
        <ele>169</ele>
        <time>2016-03-14T16:05:12Z</time>
      </trkpt>
      <trkpt lat="48.31094" lon="-2.9092">
        <ele>169</ele>
        <time>2016-03-14T16:05:14Z</time>
      </trkpt>
      <trkpt lat="48.31092" lon="-2.90922">
        <ele>169</ele>
        <time>2016-03-14T16:05:16Z</time>
      </trkpt>
      <trkpt lat="48.3109" lon="-2.90925">
        <ele>169</ele>
        <time>2016-03-14T16:05:18Z</time>
      </trkpt>
      <trkpt lat="48.31089" lon="-2.90927">
        <ele>169</ele>
        <time>2016-03-14T16:05:20Z</time>
      </trkpt>
      <trkpt lat="48.31087" lon="-2.90928">
        <ele>169</ele>
        <time>2016-03-14T16:05:22Z</time>
      </trkpt>
      <trkpt lat="48.31085" lon="-2.90929">
        <ele>169</ele>
        <time>2016-03-14T16:05:24Z</time>
      </trkpt>
      <trkpt lat="48.31084" lon="-2.90931">
        <ele>169</ele>
        <time>2016-03-14T16:05:26Z</time>
      </trkpt>
      <trkpt lat="48.31082" lon="-2.90932">
        <ele>169</ele>
        <time>2016-03-14T16:05:28Z</time>
      </trkpt>
      <trkpt lat="48.31081" lon="-2.90934">
        <ele>169</ele>
        <time>2016-03-14T16:05:30Z</time>
      </trkpt>
      <trkpt lat="48.31079" lon="-2.90935">
        <ele>169</ele>
        <time>2016-03-14T16:05:32Z</time>
      </trkpt>
      <trkpt lat="48.31078" lon="-2.90937">
        <ele>169</ele>
        <time>2016-03-14T16:05:34Z</time>
      </trkpt>
      <trkpt lat="48.31077" lon="-2.9094">
        <ele>169</ele>
        <time>2016-03-14T16:05:36Z</time>
      </trkpt>
      <trkpt lat="48.31077" lon="-2.90942">
        <ele>169</ele>
        <time>2016-03-14T16:05:38Z</time>
      </trkpt>
      <trkpt lat="48.31076" lon="-2.90946">
        <ele>169</ele>
        <time>2016-03-14T16:05:41Z</time>
      </trkpt>
      <trkpt lat="48.31075" lon="-2.90948">
        <ele>169</ele>
        <time>2016-03-14T16:05:43Z</time>
      </trkpt>
      <trkpt lat="48.31073" lon="-2.9095">
        <ele>169</ele>
        <time>2016-03-14T16:05:45Z</time>
      </trkpt>
      <trkpt lat="48.31071" lon="-2.90952">
        <ele>169</ele>
        <time>2016-03-14T16:05:47Z</time>
      </trkpt>
      <trkpt lat="48.3107" lon="-2.90955">
        <ele>169</ele>
        <time>2016-03-14T16:05:49Z</time>
      </trkpt>
      <trkpt lat="48.31069" lon="-2.90959">
        <ele>169</ele>
        <time>2016-03-14T16:05:51Z</time>
      </trkpt>
      <trkpt lat="48.31068" lon="-2.90961">
        <ele>169</ele>
        <time>2016-03-14T16:05:52Z</time>
      </trkpt>
      <trkpt lat="48.31067" lon="-2.90964">
        <ele>169</ele>
        <time>2016-03-14T16:05:54Z</time>
      </trkpt>
      <trkpt lat="48.31065" lon="-2.90967">
        <ele>169</ele>
        <time>2016-03-14T16:05:56Z</time>
      </trkpt>
      <trkpt lat="48.31063" lon="-2.90969">
        <ele>169</ele>
        <time>2016-03-14T16:05:58Z</time>
      </trkpt>
      <trkpt lat="48.31062" lon="-2.90971">
        <ele>169</ele>
        <time>2016-03-14T16:06:00Z</time>
      </trkpt>
      <trkpt lat="48.31061" lon="-2.90973">
        <ele>169</ele>
        <time>2016-03-14T16:06:01Z</time>
      </trkpt>
      <trkpt lat="48.3106" lon="-2.90976">
        <ele>169</ele>
        <time>2016-03-14T16:06:03Z</time>
      </trkpt>
      <trkpt lat="48.31058" lon="-2.90978">
        <ele>170</ele>
        <time>2016-03-14T16:06:05Z</time>
      </trkpt>
      <trkpt lat="48.31057" lon="-2.9098">
        <ele>170</ele>
        <time>2016-03-14T16:06:07Z</time>
      </trkpt>
      <trkpt lat="48.31056" lon="-2.90982">
        <ele>170</ele>
        <time>2016-03-14T16:06:09Z</time>
      </trkpt>
      <trkpt lat="48.31055" lon="-2.90983">
        <ele>170</ele>
        <time>2016-03-14T16:06:11Z</time>
      </trkpt>
      <trkpt lat="48.31054" lon="-2.90985">
        <ele>170</ele>
        <time>2016-03-14T16:06:13Z</time>
      </trkpt>
      <trkpt lat="48.31052" lon="-2.90986">
        <ele>170</ele>
        <time>2016-03-14T16:06:15Z</time>
      </trkpt>
      <trkpt lat="48.31051" lon="-2.90988">
        <ele>170</ele>
        <time>2016-03-14T16:06:17Z</time>
      </trkpt>
      <trkpt lat="48.31051" lon="-2.9099">
        <ele>170</ele>
        <time>2016-03-14T16:06:19Z</time>
      </trkpt>
      <trkpt lat="48.3105" lon="-2.90992">
        <ele>170</ele>
        <time>2016-03-14T16:06:21Z</time>
      </trkpt>
      <trkpt lat="48.31049" lon="-2.90995">
        <ele>170</ele>
        <time>2016-03-14T16:06:23Z</time>
      </trkpt>
      <trkpt lat="48.31048" lon="-2.90997">
        <ele>170</ele>
        <time>2016-03-14T16:06:25Z</time>
      </trkpt>
      <trkpt lat="48.31047" lon="-2.91">
        <ele>170</ele>
        <time>2016-03-14T16:06:27Z</time>
      </trkpt>
      <trkpt lat="48.31046" lon="-2.91003">
        <ele>170</ele>
        <time>2016-03-14T16:06:29Z</time>
      </trkpt>
      <trkpt lat="48.31045" lon="-2.91004">
        <ele>170</ele>
        <time>2016-03-14T16:06:30Z</time>
      </trkpt>
      <trkpt lat="48.31044" lon="-2.91007">
        <ele>170</ele>
        <time>2016-03-14T16:06:32Z</time>
      </trkpt>
      <trkpt lat="48.31042" lon="-2.91009">
        <ele>170</ele>
        <time>2016-03-14T16:06:34Z</time>
      </trkpt>
      <trkpt lat="48.3104" lon="-2.91011">
        <ele>170</ele>
        <time>2016-03-14T16:06:36Z</time>
      </trkpt>
      <trkpt lat="48.31039" lon="-2.91014">
        <ele>170</ele>
        <time>2016-03-14T16:06:38Z</time>
      </trkpt>
      <trkpt lat="48.31037" lon="-2.91016">
        <ele>170</ele>
        <time>2016-03-14T16:06:40Z</time>
      </trkpt>
      <trkpt lat="48.31036" lon="-2.91018">
        <ele>170</ele>
        <time>2016-03-14T16:06:42Z</time>
      </trkpt>
      <trkpt lat="48.31035" lon="-2.9102">
        <ele>170</ele>
        <time>2016-03-14T16:06:44Z</time>
      </trkpt>
      <trkpt lat="48.31033" lon="-2.91023">
        <ele>170</ele>
        <time>2016-03-14T16:06:46Z</time>
      </trkpt>
      <trkpt lat="48.31032" lon="-2.91025">
        <ele>170</ele>
        <time>2016-03-14T16:06:47Z</time>
      </trkpt>
      <trkpt lat="48.31031" lon="-2.91027">
        <ele>170</ele>
        <time>2016-03-14T16:06:48Z</time>
      </trkpt>
      <trkpt lat="48.31031" lon="-2.91029">
        <ele>170</ele>
        <time>2016-03-14T16:06:49Z</time>
      </trkpt>
      <trkpt lat="48.31031" lon="-2.91031">
        <ele>172</ele>
        <time>2016-03-14T16:06:51Z</time>
      </trkpt>
      <trkpt lat="48.31031" lon="-2.91033">
        <ele>173</ele>
        <time>2016-03-14T16:06:53Z</time>
      </trkpt>
      <trkpt lat="48.3103" lon="-2.91035">
        <ele>173</ele>
        <time>2016-03-14T16:06:55Z</time>
      </trkpt>
      <trkpt lat="48.31029" lon="-2.91036">
        <ele>173</ele>
        <time>2016-03-14T16:06:56Z</time>
      </trkpt>
      <trkpt lat="48.31027" lon="-2.91037">
        <ele>173</ele>
        <time>2016-03-14T16:06:58Z</time>
      </trkpt>
      <trkpt lat="48.31026" lon="-2.9104">
        <ele>173</ele>
        <time>2016-03-14T16:07:00Z</time>
      </trkpt>
      <trkpt lat="48.31025" lon="-2.91042">
        <ele>173</ele>
        <time>2016-03-14T16:07:01Z</time>
      </trkpt>
      <trkpt lat="48.31025" lon="-2.91044">
        <ele>173</ele>
        <time>2016-03-14T16:07:02Z</time>
      </trkpt>
      <trkpt lat="48.31024" lon="-2.91045">
        <ele>174</ele>
        <time>2016-03-14T16:07:03Z</time>
      </trkpt>
      <trkpt lat="48.31023" lon="-2.91048">
        <ele>174</ele>
        <time>2016-03-14T16:07:04Z</time>
      </trkpt>
      <trkpt lat="48.31023" lon="-2.9105">
        <ele>175</ele>
        <time>2016-03-14T16:07:05Z</time>
      </trkpt>
      <trkpt lat="48.31021" lon="-2.91053">
        <ele>175</ele>
        <time>2016-03-14T16:07:07Z</time>
      </trkpt>
      <trkpt lat="48.31019" lon="-2.91055">
        <ele>175</ele>
        <time>2016-03-14T16:07:09Z</time>
      </trkpt>
      <trkpt lat="48.31017" lon="-2.91058">
        <ele>175</ele>
        <time>2016-03-14T16:07:11Z</time>
      </trkpt>
      <trkpt lat="48.31016" lon="-2.9106">
        <ele>175</ele>
        <time>2016-03-14T16:07:13Z</time>
      </trkpt>
      <trkpt lat="48.31016" lon="-2.91062">
        <ele>175</ele>
        <time>2016-03-14T16:07:14Z</time>
      </trkpt>
      <trkpt lat="48.31015" lon="-2.91065">
        <ele>175</ele>
        <time>2016-03-14T16:07:15Z</time>
      </trkpt>
      <trkpt lat="48.31015" lon="-2.91066">
        <ele>175</ele>
        <time>2016-03-14T16:07:16Z</time>
      </trkpt>
      <trkpt lat="48.31014" lon="-2.91068">
        <ele>175</ele>
        <time>2016-03-14T16:07:18Z</time>
      </trkpt>
      <trkpt lat="48.31013" lon="-2.91071">
        <ele>176</ele>
        <time>2016-03-14T16:07:20Z</time>
      </trkpt>
      <trkpt lat="48.31012" lon="-2.91073">
        <ele>176</ele>
        <time>2016-03-14T16:07:21Z</time>
      </trkpt>
      <trkpt lat="48.31011" lon="-2.91076">
        <ele>176</ele>
        <time>2016-03-14T16:07:23Z</time>
      </trkpt>
      <trkpt lat="48.31011" lon="-2.91078">
        <ele>177</ele>
        <time>2016-03-14T16:07:24Z</time>
      </trkpt>
      <trkpt lat="48.3101" lon="-2.91079">
        <ele>177</ele>
        <time>2016-03-14T16:07:25Z</time>
      </trkpt>
      <trkpt lat="48.31009" lon="-2.9108">
        <ele>178</ele>
        <time>2016-03-14T16:07:26Z</time>
      </trkpt>
      <trkpt lat="48.31008" lon="-2.91082">
        <ele>178</ele>
        <time>2016-03-14T16:07:27Z</time>
      </trkpt>
      <trkpt lat="48.31008" lon="-2.91085">
        <ele>179</ele>
        <time>2016-03-14T16:07:29Z</time>
      </trkpt>
      <trkpt lat="48.31007" lon="-2.91088">
        <ele>179</ele>
        <time>2016-03-14T16:07:31Z</time>
      </trkpt>
      <trkpt lat="48.31007" lon="-2.91091">
        <ele>179</ele>
        <time>2016-03-14T16:07:33Z</time>
      </trkpt>
      <trkpt lat="48.31007" lon="-2.91093">
        <ele>179</ele>
        <time>2016-03-14T16:07:35Z</time>
      </trkpt>
      <trkpt lat="48.31007" lon="-2.91095">
        <ele>179</ele>
        <time>2016-03-14T16:07:36Z</time>
      </trkpt>
      <trkpt lat="48.31007" lon="-2.91097">
        <ele>179</ele>
        <time>2016-03-14T16:07:37Z</time>
      </trkpt>
      <trkpt lat="48.31007" lon="-2.91099">
        <ele>179</ele>
        <time>2016-03-14T16:07:39Z</time>
      </trkpt>
      <trkpt lat="48.31007" lon="-2.91101">
        <ele>179</ele>
        <time>2016-03-14T16:07:41Z</time>
      </trkpt>
      <trkpt lat="48.31008" lon="-2.91104">
        <ele>179</ele>
        <time>2016-03-14T16:07:43Z</time>
      </trkpt>
      <trkpt lat="48.31008" lon="-2.91107">
        <ele>178</ele>
        <time>2016-03-14T16:07:45Z</time>
      </trkpt>
      <trkpt lat="48.31009" lon="-2.91109">
        <ele>177</ele>
        <time>2016-03-14T16:07:47Z</time>
      </trkpt>
      <trkpt lat="48.31009" lon="-2.91112">
        <ele>175</ele>
        <time>2016-03-14T16:07:49Z</time>
      </trkpt>
      <trkpt lat="48.31009" lon="-2.91114">
        <ele>174</ele>
        <time>2016-03-14T16:07:51Z</time>
      </trkpt>
      <trkpt lat="48.31007" lon="-2.91116">
        <ele>174</ele>
        <time>2016-03-14T16:07:53Z</time>
      </trkpt>
      <trkpt lat="48.31007" lon="-2.91118">
        <ele>174</ele>
        <time>2016-03-14T16:07:54Z</time>
      </trkpt>
      <trkpt lat="48.31007" lon="-2.9112">
        <ele>174</ele>
        <time>2016-03-14T16:07:55Z</time>
      </trkpt>
      <trkpt lat="48.31006" lon="-2.91122">
        <ele>174</ele>
        <time>2016-03-14T16:07:56Z</time>
      </trkpt>
      <trkpt lat="48.31006" lon="-2.91124">
        <ele>174</ele>
        <time>2016-03-14T16:07:58Z</time>
      </trkpt>
      <trkpt lat="48.31006" lon="-2.91126">
        <ele>174</ele>
        <time>2016-03-14T16:08:00Z</time>
      </trkpt>
      <trkpt lat="48.31006" lon="-2.91128">
        <ele>174</ele>
        <time>2016-03-14T16:08:01Z</time>
      </trkpt>
      <trkpt lat="48.31006" lon="-2.9113">
        <ele>174</ele>
        <time>2016-03-14T16:08:07Z</time>
      </trkpt>
      <trkpt lat="48.31005" lon="-2.9113">
        <ele>174</ele>
        <time>2016-03-14T16:08:12Z</time>
      </trkpt>
      <trkpt lat="48.31005" lon="-2.91132">
        <ele>174</ele>
        <time>2016-03-14T16:08:16Z</time>
      </trkpt>
      <trkpt lat="48.31006" lon="-2.91134">
        <ele>174</ele>
        <time>2016-03-14T16:08:20Z</time>
      </trkpt>
      <trkpt lat="48.31006" lon="-2.91132">
        <ele>174</ele>
        <time>2016-03-14T16:08:24Z</time>
      </trkpt>
      <trkpt lat="48.31005" lon="-2.9113">
        <ele>174</ele>
        <time>2016-03-14T16:08:33Z</time>
      </trkpt>
      <trkpt lat="48.31003" lon="-2.91129">
        <ele>174</ele>
        <time>2016-03-14T16:08:36Z</time>
      </trkpt>
      <trkpt lat="48.31002" lon="-2.91128">
        <ele>174</ele>
        <time>2016-03-14T16:08:40Z</time>
      </trkpt>
      <trkpt lat="48.31001" lon="-2.91129">
        <ele>174</ele>
        <time>2016-03-14T16:08:50Z</time>
      </trkpt>
      <trkpt lat="48.31" lon="-2.91131">
        <ele>174</ele>
        <time>2016-03-14T16:09:00Z</time>
      </trkpt>
      <trkpt lat="48.31002" lon="-2.91131">
        <ele>174</ele>
        <time>2016-03-14T16:09:04Z</time>
      </trkpt>
      <trkpt lat="48.31003" lon="-2.91131">
        <ele>174</ele>
        <time>2016-03-14T16:09:07Z</time>
      </trkpt>
      <trkpt lat="48.31002" lon="-2.91131">
        <ele>174</ele>
        <time>2016-03-14T16:09:14Z</time>
      </trkpt>
      <trkpt lat="48.31001" lon="-2.91129">
        <ele>174</ele>
        <time>2016-03-14T16:09:17Z</time>
      </trkpt>
      <trkpt lat="48.31" lon="-2.91129">
        <ele>174</ele>
        <time>2016-03-14T16:09:20Z</time>
      </trkpt>
      <trkpt lat="48.31001" lon="-2.9113">
        <ele>174</ele>
        <time>2016-03-14T16:09:23Z</time>
      </trkpt>
      <trkpt lat="48.31002" lon="-2.9113">
        <ele>174</ele>
        <time>2016-03-14T16:09:30Z</time>
      </trkpt>
      <trkpt lat="48.31" lon="-2.91128">
        <ele>174</ele>
        <time>2016-03-14T16:09:37Z</time>
      </trkpt>
      <trkpt lat="48.30998" lon="-2.91127">
        <ele>174</ele>
        <time>2016-03-14T16:09:39Z</time>
      </trkpt>
      <trkpt lat="48.30997" lon="-2.91128">
        <ele>174</ele>
        <time>2016-03-14T16:09:41Z</time>
      </trkpt>
      <trkpt lat="48.30997" lon="-2.9113">
        <ele>174</ele>
        <time>2016-03-14T16:09:45Z</time>
      </trkpt>
      <trkpt lat="48.30996" lon="-2.9113">
        <ele>174</ele>
        <time>2016-03-14T16:09:47Z</time>
      </trkpt>
      <trkpt lat="48.30994" lon="-2.91131">
        <ele>174</ele>
        <time>2016-03-14T16:09:49Z</time>
      </trkpt>
      <trkpt lat="48.30994" lon="-2.91133">
        <ele>174</ele>
        <time>2016-03-14T16:09:53Z</time>
      </trkpt>
      <trkpt lat="48.30995" lon="-2.91132">
        <ele>174</ele>
        <time>2016-03-14T16:10:08Z</time>
      </trkpt>
      <trkpt lat="48.30996" lon="-2.91132">
        <ele>174</ele>
        <time>2016-03-14T16:10:13Z</time>
      </trkpt>
      <trkpt lat="48.30998" lon="-2.91131">
        <ele>174</ele>
        <time>2016-03-14T16:10:17Z</time>
      </trkpt>
      <trkpt lat="48.31" lon="-2.91132">
        <ele>174</ele>
        <time>2016-03-14T16:10:21Z</time>
      </trkpt>
      <trkpt lat="48.31001" lon="-2.91131">
        <ele>174</ele>
        <time>2016-03-14T16:10:24Z</time>
      </trkpt>
      <trkpt lat="48.31001" lon="-2.91133">
        <ele>174</ele>
        <time>2016-03-14T16:10:28Z</time>
      </trkpt>
      <trkpt lat="48.30999" lon="-2.91134">
        <ele>174</ele>
        <time>2016-03-14T16:10:32Z</time>
      </trkpt>
      <trkpt lat="48.30999" lon="-2.91135">
        <ele>174</ele>
        <time>2016-03-14T16:10:36Z</time>
      </trkpt>
      <trkpt lat="48.31" lon="-2.91136">
        <ele>174</ele>
        <time>2016-03-14T16:10:38Z</time>
      </trkpt>
      <trkpt lat="48.31001" lon="-2.91136">
        <ele>174</ele>
        <time>2016-03-14T16:10:40Z</time>
      </trkpt>
      <trkpt lat="48.31002" lon="-2.91138">
        <ele>174</ele>
        <time>2016-03-14T16:10:42Z</time>
      </trkpt>
      <trkpt lat="48.31001" lon="-2.9114">
        <ele>174</ele>
        <time>2016-03-14T16:10:45Z</time>
      </trkpt>
      <trkpt lat="48.31001" lon="-2.91142">
        <ele>174</ele>
        <time>2016-03-14T16:10:47Z</time>
      </trkpt>
      <trkpt lat="48.31" lon="-2.91143">
        <ele>174</ele>
        <time>2016-03-14T16:10:49Z</time>
      </trkpt>
      <trkpt lat="48.31" lon="-2.91146">
        <ele>174</ele>
        <time>2016-03-14T16:10:51Z</time>
      </trkpt>
      <trkpt lat="48.30999" lon="-2.91148">
        <ele>174</ele>
        <time>2016-03-14T16:10:53Z</time>
      </trkpt>
      <trkpt lat="48.30999" lon="-2.9115">
        <ele>174</ele>
        <time>2016-03-14T16:10:55Z</time>
      </trkpt>
      <trkpt lat="48.30997" lon="-2.91151">
        <ele>173</ele>
        <time>2016-03-14T16:10:57Z</time>
      </trkpt>
      <trkpt lat="48.30997" lon="-2.91154">
        <ele>172</ele>
        <time>2016-03-14T16:10:59Z</time>
      </trkpt>
      <trkpt lat="48.30996" lon="-2.91156">
        <ele>172</ele>
        <time>2016-03-14T16:11:01Z</time>
      </trkpt>
      <trkpt lat="48.30994" lon="-2.91158">
        <ele>171</ele>
        <time>2016-03-14T16:11:03Z</time>
      </trkpt>
      <trkpt lat="48.30994" lon="-2.9116">
        <ele>170</ele>
        <time>2016-03-14T16:11:05Z</time>
      </trkpt>
      <trkpt lat="48.30992" lon="-2.91162">
        <ele>170</ele>
        <time>2016-03-14T16:11:07Z</time>
      </trkpt>
      <trkpt lat="48.30991" lon="-2.91164">
        <ele>170</ele>
        <time>2016-03-14T16:11:09Z</time>
      </trkpt>
      <trkpt lat="48.3099" lon="-2.91166">
        <ele>170</ele>
        <time>2016-03-14T16:11:11Z</time>
      </trkpt>
      <trkpt lat="48.30989" lon="-2.91168">
        <ele>170</ele>
        <time>2016-03-14T16:11:13Z</time>
      </trkpt>
      <trkpt lat="48.30988" lon="-2.9117">
        <ele>170</ele>
        <time>2016-03-14T16:11:15Z</time>
      </trkpt>
      <trkpt lat="48.30988" lon="-2.91172">
        <ele>170</ele>
        <time>2016-03-14T16:11:17Z</time>
      </trkpt>
      <trkpt lat="48.30987" lon="-2.91174">
        <ele>170</ele>
        <time>2016-03-14T16:11:19Z</time>
      </trkpt>
      <trkpt lat="48.30986" lon="-2.91175">
        <ele>170</ele>
        <time>2016-03-14T16:11:21Z</time>
      </trkpt>
      <trkpt lat="48.30985" lon="-2.91178">
        <ele>170</ele>
        <time>2016-03-14T16:11:23Z</time>
      </trkpt>
      <trkpt lat="48.30984" lon="-2.91181">
        <ele>170</ele>
        <time>2016-03-14T16:11:24Z</time>
      </trkpt>
      <trkpt lat="48.30983" lon="-2.91184">
        <ele>170</ele>
        <time>2016-03-14T16:11:25Z</time>
      </trkpt>
      <trkpt lat="48.30983" lon="-2.91185">
        <ele>170</ele>
        <time>2016-03-14T16:11:26Z</time>
      </trkpt>
      <trkpt lat="48.30982" lon="-2.91188">
        <ele>170</ele>
        <time>2016-03-14T16:11:27Z</time>
      </trkpt>
      <trkpt lat="48.30981" lon="-2.91189">
        <ele>170</ele>
        <time>2016-03-14T16:11:28Z</time>
      </trkpt>
      <trkpt lat="48.30979" lon="-2.91192">
        <ele>170</ele>
        <time>2016-03-14T16:11:30Z</time>
      </trkpt>
      <trkpt lat="48.30978" lon="-2.91195">
        <ele>170</ele>
        <time>2016-03-14T16:11:32Z</time>
      </trkpt>
      <trkpt lat="48.30977" lon="-2.91198">
        <ele>170</ele>
        <time>2016-03-14T16:11:33Z</time>
      </trkpt>
      <trkpt lat="48.30976" lon="-2.912">
        <ele>170</ele>
        <time>2016-03-14T16:11:34Z</time>
      </trkpt>
      <trkpt lat="48.30975" lon="-2.91202">
        <ele>170</ele>
        <time>2016-03-14T16:11:35Z</time>
      </trkpt>
      <trkpt lat="48.30974" lon="-2.91205">
        <ele>170</ele>
        <time>2016-03-14T16:11:37Z</time>
      </trkpt>
      <trkpt lat="48.30972" lon="-2.91208">
        <ele>170</ele>
        <time>2016-03-14T16:11:39Z</time>
      </trkpt>
      <trkpt lat="48.30971" lon="-2.91211">
        <ele>170</ele>
        <time>2016-03-14T16:11:41Z</time>
      </trkpt>
      <trkpt lat="48.30969" lon="-2.91213">
        <ele>170</ele>
        <time>2016-03-14T16:11:43Z</time>
      </trkpt>
      <trkpt lat="48.30968" lon="-2.91215">
        <ele>170</ele>
        <time>2016-03-14T16:11:45Z</time>
      </trkpt>
      <trkpt lat="48.30967" lon="-2.91217">
        <ele>170</ele>
        <time>2016-03-14T16:11:47Z</time>
      </trkpt>
      <trkpt lat="48.30966" lon="-2.9122">
        <ele>170</ele>
        <time>2016-03-14T16:11:49Z</time>
      </trkpt>
      <trkpt lat="48.30965" lon="-2.91223">
        <ele>170</ele>
        <time>2016-03-14T16:11:51Z</time>
      </trkpt>
      <trkpt lat="48.30963" lon="-2.91225">
        <ele>170</ele>
        <time>2016-03-14T16:11:53Z</time>
      </trkpt>
      <trkpt lat="48.30962" lon="-2.91226">
        <ele>170</ele>
        <time>2016-03-14T16:11:55Z</time>
      </trkpt>
      <trkpt lat="48.3096" lon="-2.91228">
        <ele>170</ele>
        <time>2016-03-14T16:11:57Z</time>
      </trkpt>
      <trkpt lat="48.30959" lon="-2.9123">
        <ele>170</ele>
        <time>2016-03-14T16:12:00Z</time>
      </trkpt>
      <trkpt lat="48.30957" lon="-2.91232">
        <ele>170</ele>
        <time>2016-03-14T16:12:02Z</time>
      </trkpt>
      <trkpt lat="48.30955" lon="-2.91235">
        <ele>169</ele>
        <time>2016-03-14T16:12:04Z</time>
      </trkpt>
      <trkpt lat="48.30953" lon="-2.91238">
        <ele>169</ele>
        <time>2016-03-14T16:12:06Z</time>
      </trkpt>
      <trkpt lat="48.30952" lon="-2.9124">
        <ele>169</ele>
        <time>2016-03-14T16:12:07Z</time>
      </trkpt>
      <trkpt lat="48.30951" lon="-2.91242">
        <ele>169</ele>
        <time>2016-03-14T16:12:08Z</time>
      </trkpt>
      <trkpt lat="48.30949" lon="-2.91244">
        <ele>169</ele>
        <time>2016-03-14T16:12:10Z</time>
      </trkpt>
      <trkpt lat="48.30947" lon="-2.91245">
        <ele>169</ele>
        <time>2016-03-14T16:12:12Z</time>
      </trkpt>
      <trkpt lat="48.30945" lon="-2.91246">
        <ele>169</ele>
        <time>2016-03-14T16:12:14Z</time>
      </trkpt>
      <trkpt lat="48.30943" lon="-2.91247">
        <ele>169</ele>
        <time>2016-03-14T16:12:16Z</time>
      </trkpt>
      <trkpt lat="48.30942" lon="-2.91248">
        <ele>169</ele>
        <time>2016-03-14T16:12:17Z</time>
      </trkpt>
      <trkpt lat="48.3094" lon="-2.9125">
        <ele>169</ele>
        <time>2016-03-14T16:12:19Z</time>
      </trkpt>
      <trkpt lat="48.30939" lon="-2.9125">
        <ele>169</ele>
        <time>2016-03-14T16:12:20Z</time>
      </trkpt>
      <trkpt lat="48.30938" lon="-2.91251">
        <ele>169</ele>
        <time>2016-03-14T16:12:21Z</time>
      </trkpt>
      <trkpt lat="48.30936" lon="-2.91251">
        <ele>169</ele>
        <time>2016-03-14T16:12:22Z</time>
      </trkpt>
      <trkpt lat="48.30935" lon="-2.91251">
        <ele>169</ele>
        <time>2016-03-14T16:12:23Z</time>
      </trkpt>
      <trkpt lat="48.30934" lon="-2.91252">
        <ele>169</ele>
        <time>2016-03-14T16:12:24Z</time>
      </trkpt>
      <trkpt lat="48.30932" lon="-2.91253">
        <ele>169</ele>
        <time>2016-03-14T16:12:26Z</time>
      </trkpt>
      <trkpt lat="48.3093" lon="-2.91253">
        <ele>169</ele>
        <time>2016-03-14T16:12:28Z</time>
      </trkpt>
      <trkpt lat="48.30929" lon="-2.91253">
        <ele>169</ele>
        <time>2016-03-14T16:12:30Z</time>
      </trkpt>
      <trkpt lat="48.30927" lon="-2.91254">
        <ele>169</ele>
        <time>2016-03-14T16:12:32Z</time>
      </trkpt>
      <trkpt lat="48.30925" lon="-2.91255">
        <ele>169</ele>
        <time>2016-03-14T16:12:33Z</time>
      </trkpt>
      <trkpt lat="48.30924" lon="-2.91255">
        <ele>169</ele>
        <time>2016-03-14T16:12:34Z</time>
      </trkpt>
      <trkpt lat="48.30922" lon="-2.91255">
        <ele>169</ele>
        <time>2016-03-14T16:12:36Z</time>
      </trkpt>
      <trkpt lat="48.30921" lon="-2.91254">
        <ele>169</ele>
        <time>2016-03-14T16:12:37Z</time>
      </trkpt>
      <trkpt lat="48.3092" lon="-2.91255">
        <ele>169</ele>
        <time>2016-03-14T16:12:39Z</time>
      </trkpt>
      <trkpt lat="48.30918" lon="-2.91255">
        <ele>169</ele>
        <time>2016-03-14T16:12:41Z</time>
      </trkpt>
      <trkpt lat="48.30916" lon="-2.91256">
        <ele>169</ele>
        <time>2016-03-14T16:12:43Z</time>
      </trkpt>
      <trkpt lat="48.30914" lon="-2.91257">
        <ele>169</ele>
        <time>2016-03-14T16:12:45Z</time>
      </trkpt>
      <trkpt lat="48.30912" lon="-2.91257">
        <ele>169</ele>
        <time>2016-03-14T16:12:47Z</time>
      </trkpt>
      <trkpt lat="48.30911" lon="-2.91257">
        <ele>169</ele>
        <time>2016-03-14T16:12:48Z</time>
      </trkpt>
      <trkpt lat="48.30909" lon="-2.91258">
        <ele>169</ele>
        <time>2016-03-14T16:12:50Z</time>
      </trkpt>
      <trkpt lat="48.30907" lon="-2.91258">
        <ele>169</ele>
        <time>2016-03-14T16:12:52Z</time>
      </trkpt>
      <trkpt lat="48.30906" lon="-2.91258">
        <ele>169</ele>
        <time>2016-03-14T16:12:54Z</time>
      </trkpt>
      <trkpt lat="48.30904" lon="-2.91257">
        <ele>169</ele>
        <time>2016-03-14T16:12:55Z</time>
      </trkpt>
      <trkpt lat="48.30903" lon="-2.91258">
        <ele>169</ele>
        <time>2016-03-14T16:12:57Z</time>
      </trkpt>
      <trkpt lat="48.30902" lon="-2.91257">
        <ele>169</ele>
        <time>2016-03-14T16:12:58Z</time>
      </trkpt>
      <trkpt lat="48.30901" lon="-2.91256">
        <ele>169</ele>
        <time>2016-03-14T16:12:59Z</time>
      </trkpt>
      <trkpt lat="48.30899" lon="-2.91256">
        <ele>169</ele>
        <time>2016-03-14T16:13:02Z</time>
      </trkpt>
      <trkpt lat="48.30897" lon="-2.91257">
        <ele>169</ele>
        <time>2016-03-14T16:13:04Z</time>
      </trkpt>
      <trkpt lat="48.30894" lon="-2.91257">
        <ele>169</ele>
        <time>2016-03-14T16:13:06Z</time>
      </trkpt>
      <trkpt lat="48.30893" lon="-2.91257">
        <ele>169</ele>
        <time>2016-03-14T16:13:08Z</time>
      </trkpt>
      <trkpt lat="48.30892" lon="-2.91257">
        <ele>169</ele>
        <time>2016-03-14T16:13:09Z</time>
      </trkpt>
      <trkpt lat="48.30889" lon="-2.91256">
        <ele>169</ele>
        <time>2016-03-14T16:13:11Z</time>
      </trkpt>
      <trkpt lat="48.30888" lon="-2.91256">
        <ele>169</ele>
        <time>2016-03-14T16:13:12Z</time>
      </trkpt>
      <trkpt lat="48.30886" lon="-2.91257">
        <ele>169</ele>
        <time>2016-03-14T16:13:14Z</time>
      </trkpt>
      <trkpt lat="48.30885" lon="-2.91257">
        <ele>170</ele>
        <time>2016-03-14T16:13:17Z</time>
      </trkpt>
      <trkpt lat="48.30883" lon="-2.91255">
        <ele>170</ele>
        <time>2016-03-14T16:13:19Z</time>
      </trkpt>
      <trkpt lat="48.30881" lon="-2.91253">
        <ele>170</ele>
        <time>2016-03-14T16:13:21Z</time>
      </trkpt>
      <trkpt lat="48.3088" lon="-2.91253">
        <ele>170</ele>
        <time>2016-03-14T16:13:23Z</time>
      </trkpt>
      <trkpt lat="48.30878" lon="-2.91252">
        <ele>170</ele>
        <time>2016-03-14T16:13:25Z</time>
      </trkpt>
      <trkpt lat="48.30876" lon="-2.91251">
        <ele>170</ele>
        <time>2016-03-14T16:13:27Z</time>
      </trkpt>
      <trkpt lat="48.30875" lon="-2.91251">
        <ele>170</ele>
        <time>2016-03-14T16:13:28Z</time>
      </trkpt>
      <trkpt lat="48.30873" lon="-2.9125">
        <ele>170</ele>
        <time>2016-03-14T16:13:30Z</time>
      </trkpt>
      <trkpt lat="48.30871" lon="-2.9125">
        <ele>170</ele>
        <time>2016-03-14T16:13:32Z</time>
      </trkpt>
      <trkpt lat="48.30869" lon="-2.9125">
        <ele>170</ele>
        <time>2016-03-14T16:13:34Z</time>
      </trkpt>
      <trkpt lat="48.30867" lon="-2.91249">
        <ele>170</ele>
        <time>2016-03-14T16:13:35Z</time>
      </trkpt>
      <trkpt lat="48.30866" lon="-2.91249">
        <ele>170</ele>
        <time>2016-03-14T16:13:36Z</time>
      </trkpt>
      <trkpt lat="48.30864" lon="-2.91248">
        <ele>170</ele>
        <time>2016-03-14T16:13:37Z</time>
      </trkpt>
      <trkpt lat="48.30863" lon="-2.91248">
        <ele>170</ele>
        <time>2016-03-14T16:13:39Z</time>
      </trkpt>
      <trkpt lat="48.3086" lon="-2.91248">
        <ele>170</ele>
        <time>2016-03-14T16:13:41Z</time>
      </trkpt>
      <trkpt lat="48.30858" lon="-2.91246">
        <ele>170</ele>
        <time>2016-03-14T16:13:43Z</time>
      </trkpt>
      <trkpt lat="48.30856" lon="-2.91245">
        <ele>169</ele>
        <time>2016-03-14T16:13:45Z</time>
      </trkpt>
      <trkpt lat="48.30854" lon="-2.91244">
        <ele>168</ele>
        <time>2016-03-14T16:13:47Z</time>
      </trkpt>
      <trkpt lat="48.30852" lon="-2.91244">
        <ele>167</ele>
        <time>2016-03-14T16:13:48Z</time>
      </trkpt>
      <trkpt lat="48.30851" lon="-2.91244">
        <ele>167</ele>
        <time>2016-03-14T16:13:49Z</time>
      </trkpt>
      <trkpt lat="48.30849" lon="-2.91243">
        <ele>167</ele>
        <time>2016-03-14T16:13:50Z</time>
      </trkpt>
      <trkpt lat="48.30848" lon="-2.91243">
        <ele>167</ele>
        <time>2016-03-14T16:13:51Z</time>
      </trkpt>
      <trkpt lat="48.30846" lon="-2.91243">
        <ele>167</ele>
        <time>2016-03-14T16:13:53Z</time>
      </trkpt>
      <trkpt lat="48.30844" lon="-2.91243">
        <ele>166</ele>
        <time>2016-03-14T16:13:55Z</time>
      </trkpt>
      <trkpt lat="48.30843" lon="-2.91242">
        <ele>166</ele>
        <time>2016-03-14T16:13:57Z</time>
      </trkpt>
      <trkpt lat="48.30841" lon="-2.91239">
        <ele>165</ele>
        <time>2016-03-14T16:14:00Z</time>
      </trkpt>
      <trkpt lat="48.30841" lon="-2.91237">
        <ele>164</ele>
        <time>2016-03-14T16:14:02Z</time>
      </trkpt>
      <trkpt lat="48.3084" lon="-2.91235">
        <ele>164</ele>
        <time>2016-03-14T16:14:04Z</time>
      </trkpt>
      <trkpt lat="48.30839" lon="-2.91232">
        <ele>163</ele>
        <time>2016-03-14T16:14:06Z</time>
      </trkpt>
      <trkpt lat="48.30839" lon="-2.9123">
        <ele>163</ele>
        <time>2016-03-14T16:14:08Z</time>
      </trkpt>
      <trkpt lat="48.30838" lon="-2.91227">
        <ele>162</ele>
        <time>2016-03-14T16:14:10Z</time>
      </trkpt>
      <trkpt lat="48.30838" lon="-2.91225">
        <ele>162</ele>
        <time>2016-03-14T16:14:11Z</time>
      </trkpt>
      <trkpt lat="48.30838" lon="-2.91222">
        <ele>162</ele>
        <time>2016-03-14T16:14:13Z</time>
      </trkpt>
      <trkpt lat="48.30837" lon="-2.9122">
        <ele>162</ele>
        <time>2016-03-14T16:14:15Z</time>
      </trkpt>
      <trkpt lat="48.30837" lon="-2.91218">
        <ele>162</ele>
        <time>2016-03-14T16:14:16Z</time>
      </trkpt>
      <trkpt lat="48.30836" lon="-2.91216">
        <ele>162</ele>
        <time>2016-03-14T16:14:17Z</time>
      </trkpt>
      <trkpt lat="48.30835" lon="-2.91214">
        <ele>162</ele>
        <time>2016-03-14T16:14:18Z</time>
      </trkpt>
      <trkpt lat="48.30835" lon="-2.91212">
        <ele>162</ele>
        <time>2016-03-14T16:14:19Z</time>
      </trkpt>
      <trkpt lat="48.30834" lon="-2.9121">
        <ele>162</ele>
        <time>2016-03-14T16:14:20Z</time>
      </trkpt>
      <trkpt lat="48.30833" lon="-2.91208">
        <ele>162</ele>
        <time>2016-03-14T16:14:21Z</time>
      </trkpt>
      <trkpt lat="48.30833" lon="-2.91206">
        <ele>162</ele>
        <time>2016-03-14T16:14:22Z</time>
      </trkpt>
      <trkpt lat="48.30832" lon="-2.91204">
        <ele>162</ele>
        <time>2016-03-14T16:14:23Z</time>
      </trkpt>
      <trkpt lat="48.30832" lon="-2.91202">
        <ele>162</ele>
        <time>2016-03-14T16:14:24Z</time>
      </trkpt>
      <trkpt lat="48.30831" lon="-2.912">
        <ele>162</ele>
        <time>2016-03-14T16:14:25Z</time>
      </trkpt>
      <trkpt lat="48.30831" lon="-2.91198">
        <ele>162</ele>
        <time>2016-03-14T16:14:26Z</time>
      </trkpt>
      <trkpt lat="48.30831" lon="-2.91197">
        <ele>162</ele>
        <time>2016-03-14T16:14:27Z</time>
      </trkpt>
      <trkpt lat="48.3083" lon="-2.91195">
        <ele>162</ele>
        <time>2016-03-14T16:14:28Z</time>
      </trkpt>
      <trkpt lat="48.3083" lon="-2.91194">
        <ele>162</ele>
        <time>2016-03-14T16:14:29Z</time>
      </trkpt>
      <trkpt lat="48.3083" lon="-2.91192">
        <ele>162</ele>
        <time>2016-03-14T16:14:30Z</time>
      </trkpt>
      <trkpt lat="48.30829" lon="-2.91189">
        <ele>162</ele>
        <time>2016-03-14T16:14:32Z</time>
      </trkpt>
      <trkpt lat="48.30828" lon="-2.91187">
        <ele>162</ele>
        <time>2016-03-14T16:14:34Z</time>
      </trkpt>
      <trkpt lat="48.30827" lon="-2.91185">
        <ele>162</ele>
        <time>2016-03-14T16:14:36Z</time>
      </trkpt>
      <trkpt lat="48.30827" lon="-2.91183">
        <ele>162</ele>
        <time>2016-03-14T16:14:39Z</time>
      </trkpt>
      <trkpt lat="48.30826" lon="-2.91182">
        <ele>162</ele>
        <time>2016-03-14T16:14:42Z</time>
      </trkpt>
      <trkpt lat="48.30826" lon="-2.91179">
        <ele>162</ele>
        <time>2016-03-14T16:14:45Z</time>
      </trkpt>
      <trkpt lat="48.30826" lon="-2.91178">
        <ele>162</ele>
        <time>2016-03-14T16:14:49Z</time>
      </trkpt>
      <trkpt lat="48.30825" lon="-2.91176">
        <ele>162</ele>
        <time>2016-03-14T16:14:52Z</time>
      </trkpt>
      <trkpt lat="48.30825" lon="-2.91173">
        <ele>162</ele>
        <time>2016-03-14T16:14:54Z</time>
      </trkpt>
      <trkpt lat="48.30825" lon="-2.91171">
        <ele>162</ele>
        <time>2016-03-14T16:14:56Z</time>
      </trkpt>
      <trkpt lat="48.30826" lon="-2.91169">
        <ele>162</ele>
        <time>2016-03-14T16:14:59Z</time>
      </trkpt>
      <trkpt lat="48.30826" lon="-2.91166">
        <ele>162</ele>
        <time>2016-03-14T16:15:01Z</time>
      </trkpt>
      <trkpt lat="48.30826" lon="-2.91163">
        <ele>162</ele>
        <time>2016-03-14T16:15:03Z</time>
      </trkpt>
      <trkpt lat="48.30826" lon="-2.91161">
        <ele>163</ele>
        <time>2016-03-14T16:15:05Z</time>
      </trkpt>
      <trkpt lat="48.30826" lon="-2.91159">
        <ele>163</ele>
        <time>2016-03-14T16:15:07Z</time>
      </trkpt>
      <trkpt lat="48.30825" lon="-2.91156">
        <ele>163</ele>
        <time>2016-03-14T16:15:09Z</time>
      </trkpt>
      <trkpt lat="48.30824" lon="-2.91154">
        <ele>163</ele>
        <time>2016-03-14T16:15:11Z</time>
      </trkpt>
      <trkpt lat="48.30825" lon="-2.91153">
        <ele>163</ele>
        <time>2016-03-14T16:15:12Z</time>
      </trkpt>
      <trkpt lat="48.30825" lon="-2.91149">
        <ele>163</ele>
        <time>2016-03-14T16:15:14Z</time>
      </trkpt>
      <trkpt lat="48.30825" lon="-2.91147">
        <ele>163</ele>
        <time>2016-03-14T16:15:15Z</time>
      </trkpt>
      <trkpt lat="48.30824" lon="-2.91145">
        <ele>163</ele>
        <time>2016-03-14T16:15:16Z</time>
      </trkpt>
      <trkpt lat="48.30825" lon="-2.91143">
        <ele>163</ele>
        <time>2016-03-14T16:15:18Z</time>
      </trkpt>
      <trkpt lat="48.30825" lon="-2.91141">
        <ele>163</ele>
        <time>2016-03-14T16:15:19Z</time>
      </trkpt>
      <trkpt lat="48.30825" lon="-2.91139">
        <ele>163</ele>
        <time>2016-03-14T16:15:20Z</time>
      </trkpt>
      <trkpt lat="48.30824" lon="-2.91138">
        <ele>163</ele>
        <time>2016-03-14T16:15:21Z</time>
      </trkpt>
      <trkpt lat="48.30824" lon="-2.91135">
        <ele>163</ele>
        <time>2016-03-14T16:15:23Z</time>
      </trkpt>
      <trkpt lat="48.30824" lon="-2.91132">
        <ele>163</ele>
        <time>2016-03-14T16:15:25Z</time>
      </trkpt>
      <trkpt lat="48.30824" lon="-2.9113">
        <ele>163</ele>
        <time>2016-03-14T16:15:26Z</time>
      </trkpt>
      <trkpt lat="48.30824" lon="-2.91127">
        <ele>164</ele>
        <time>2016-03-14T16:15:28Z</time>
      </trkpt>
      <trkpt lat="48.30822" lon="-2.91125">
        <ele>164</ele>
        <time>2016-03-14T16:15:30Z</time>
      </trkpt>
      <trkpt lat="48.30821" lon="-2.91122">
        <ele>164</ele>
        <time>2016-03-14T16:15:32Z</time>
      </trkpt>
      <trkpt lat="48.3082" lon="-2.91121">
        <ele>164</ele>
        <time>2016-03-14T16:15:33Z</time>
      </trkpt>
      <trkpt lat="48.30819" lon="-2.91119">
        <ele>164</ele>
        <time>2016-03-14T16:15:35Z</time>
      </trkpt>
      <trkpt lat="48.30818" lon="-2.91116">
        <ele>164</ele>
        <time>2016-03-14T16:15:37Z</time>
      </trkpt>
      <trkpt lat="48.30817" lon="-2.91114">
        <ele>164</ele>
        <time>2016-03-14T16:15:39Z</time>
      </trkpt>
      <trkpt lat="48.30817" lon="-2.91112">
        <ele>164</ele>
        <time>2016-03-14T16:15:40Z</time>
      </trkpt>
      <trkpt lat="48.30817" lon="-2.91109">
        <ele>164</ele>
        <time>2016-03-14T16:15:42Z</time>
      </trkpt>
      <trkpt lat="48.30817" lon="-2.91107">
        <ele>164</ele>
        <time>2016-03-14T16:15:44Z</time>
      </trkpt>
      <trkpt lat="48.30817" lon="-2.91104">
        <ele>164</ele>
        <time>2016-03-14T16:15:46Z</time>
      </trkpt>
      <trkpt lat="48.30817" lon="-2.91101">
        <ele>164</ele>
        <time>2016-03-14T16:15:48Z</time>
      </trkpt>
      <trkpt lat="48.30816" lon="-2.91099">
        <ele>164</ele>
        <time>2016-03-14T16:15:50Z</time>
      </trkpt>
      <trkpt lat="48.30815" lon="-2.91096">
        <ele>164</ele>
        <time>2016-03-14T16:15:52Z</time>
      </trkpt>
      <trkpt lat="48.30815" lon="-2.91093">
        <ele>164</ele>
        <time>2016-03-14T16:15:54Z</time>
      </trkpt>
      <trkpt lat="48.30815" lon="-2.9109">
        <ele>164</ele>
        <time>2016-03-14T16:15:56Z</time>
      </trkpt>
      <trkpt lat="48.30814" lon="-2.91087">
        <ele>164</ele>
        <time>2016-03-14T16:15:58Z</time>
      </trkpt>
      <trkpt lat="48.30814" lon="-2.91084">
        <ele>164</ele>
        <time>2016-03-14T16:16:00Z</time>
      </trkpt>
      <trkpt lat="48.30814" lon="-2.91082">
        <ele>164</ele>
        <time>2016-03-14T16:16:02Z</time>
      </trkpt>
      <trkpt lat="48.30814" lon="-2.9108">
        <ele>164</ele>
        <time>2016-03-14T16:16:03Z</time>
      </trkpt>
      <trkpt lat="48.30813" lon="-2.91078">
        <ele>164</ele>
        <time>2016-03-14T16:16:04Z</time>
      </trkpt>
      <trkpt lat="48.30812" lon="-2.91077">
        <ele>164</ele>
        <time>2016-03-14T16:16:06Z</time>
      </trkpt>
      <trkpt lat="48.30811" lon="-2.91075">
        <ele>164</ele>
        <time>2016-03-14T16:16:08Z</time>
      </trkpt>
      <trkpt lat="48.3081" lon="-2.91072">
        <ele>164</ele>
        <time>2016-03-14T16:16:10Z</time>
      </trkpt>
      <trkpt lat="48.30809" lon="-2.9107">
        <ele>164</ele>
        <time>2016-03-14T16:16:11Z</time>
      </trkpt>
      <trkpt lat="48.30809" lon="-2.91069">
        <ele>164</ele>
        <time>2016-03-14T16:16:12Z</time>
      </trkpt>
      <trkpt lat="48.30809" lon="-2.91067">
        <ele>164</ele>
        <time>2016-03-14T16:16:13Z</time>
      </trkpt>
      <trkpt lat="48.30808" lon="-2.91065">
        <ele>164</ele>
        <time>2016-03-14T16:16:14Z</time>
      </trkpt>
      <trkpt lat="48.30807" lon="-2.91063">
        <ele>164</ele>
        <time>2016-03-14T16:16:15Z</time>
      </trkpt>
      <trkpt lat="48.30807" lon="-2.91061">
        <ele>164</ele>
        <time>2016-03-14T16:16:16Z</time>
      </trkpt>
      <trkpt lat="48.30806" lon="-2.9106">
        <ele>164</ele>
        <time>2016-03-14T16:16:17Z</time>
      </trkpt>
      <trkpt lat="48.30805" lon="-2.91058">
        <ele>164</ele>
        <time>2016-03-14T16:16:18Z</time>
      </trkpt>
      <trkpt lat="48.30804" lon="-2.91054">
        <ele>164</ele>
        <time>2016-03-14T16:16:20Z</time>
      </trkpt>
      <trkpt lat="48.30803" lon="-2.91052">
        <ele>164</ele>
        <time>2016-03-14T16:16:22Z</time>
      </trkpt>
      <trkpt lat="48.30803" lon="-2.9105">
        <ele>165</ele>
        <time>2016-03-14T16:16:23Z</time>
      </trkpt>
      <trkpt lat="48.30803" lon="-2.91048">
        <ele>165</ele>
        <time>2016-03-14T16:16:24Z</time>
      </trkpt>
      <trkpt lat="48.30803" lon="-2.91046">
        <ele>165</ele>
        <time>2016-03-14T16:16:25Z</time>
      </trkpt>
      <trkpt lat="48.30803" lon="-2.91044">
        <ele>165</ele>
        <time>2016-03-14T16:16:26Z</time>
      </trkpt>
      <trkpt lat="48.30803" lon="-2.91042">
        <ele>165</ele>
        <time>2016-03-14T16:16:28Z</time>
      </trkpt>
      <trkpt lat="48.30804" lon="-2.9104">
        <ele>165</ele>
        <time>2016-03-14T16:16:31Z</time>
      </trkpt>
      <trkpt lat="48.30804" lon="-2.91037">
        <ele>166</ele>
        <time>2016-03-14T16:16:33Z</time>
      </trkpt>
      <trkpt lat="48.30804" lon="-2.91035">
        <ele>166</ele>
        <time>2016-03-14T16:16:34Z</time>
      </trkpt>
      <trkpt lat="48.30804" lon="-2.91033">
        <ele>167</ele>
        <time>2016-03-14T16:16:35Z</time>
      </trkpt>
      <trkpt lat="48.30804" lon="-2.91032">
        <ele>167</ele>
        <time>2016-03-14T16:16:36Z</time>
      </trkpt>
      <trkpt lat="48.30804" lon="-2.9103">
        <ele>167</ele>
        <time>2016-03-14T16:16:37Z</time>
      </trkpt>
      <trkpt lat="48.30804" lon="-2.91028">
        <ele>167</ele>
        <time>2016-03-14T16:16:38Z</time>
      </trkpt>
      <trkpt lat="48.30804" lon="-2.91026">
        <ele>167</ele>
        <time>2016-03-14T16:16:39Z</time>
      </trkpt>
      <trkpt lat="48.30804" lon="-2.91024">
        <ele>167</ele>
        <time>2016-03-14T16:16:40Z</time>
      </trkpt>
      <trkpt lat="48.30804" lon="-2.91023">
        <ele>167</ele>
        <time>2016-03-14T16:16:41Z</time>
      </trkpt>
      <trkpt lat="48.30804" lon="-2.9102">
        <ele>167</ele>
        <time>2016-03-14T16:16:42Z</time>
      </trkpt>
      <trkpt lat="48.30804" lon="-2.91018">
        <ele>167</ele>
        <time>2016-03-14T16:16:44Z</time>
      </trkpt>
      <trkpt lat="48.30805" lon="-2.91016">
        <ele>167</ele>
        <time>2016-03-14T16:16:46Z</time>
      </trkpt>
      <trkpt lat="48.30805" lon="-2.91014">
        <ele>167</ele>
        <time>2016-03-14T16:16:48Z</time>
      </trkpt>
      <trkpt lat="48.30805" lon="-2.91012">
        <ele>167</ele>
        <time>2016-03-14T16:16:50Z</time>
      </trkpt>
      <trkpt lat="48.30805" lon="-2.91009">
        <ele>167</ele>
        <time>2016-03-14T16:16:52Z</time>
      </trkpt>
      <trkpt lat="48.30804" lon="-2.91006">
        <ele>166</ele>
        <time>2016-03-14T16:16:55Z</time>
      </trkpt>
      <trkpt lat="48.30804" lon="-2.91003">
        <ele>165</ele>
        <time>2016-03-14T16:16:57Z</time>
      </trkpt>
      <trkpt lat="48.30804" lon="-2.91">
        <ele>164</ele>
        <time>2016-03-14T16:16:59Z</time>
      </trkpt>
      <trkpt lat="48.30804" lon="-2.90999">
        <ele>164</ele>
        <time>2016-03-14T16:17:00Z</time>
      </trkpt>
      <trkpt lat="48.30804" lon="-2.90997">
        <ele>164</ele>
        <time>2016-03-14T16:17:01Z</time>
      </trkpt>
      <trkpt lat="48.30805" lon="-2.90995">
        <ele>164</ele>
        <time>2016-03-14T16:17:02Z</time>
      </trkpt>
      <trkpt lat="48.30805" lon="-2.90993">
        <ele>164</ele>
        <time>2016-03-14T16:17:03Z</time>
      </trkpt>
      <trkpt lat="48.30806" lon="-2.90991">
        <ele>164</ele>
        <time>2016-03-14T16:17:04Z</time>
      </trkpt>
      <trkpt lat="48.30806" lon="-2.90989">
        <ele>164</ele>
        <time>2016-03-14T16:17:05Z</time>
      </trkpt>
      <trkpt lat="48.30806" lon="-2.90987">
        <ele>164</ele>
        <time>2016-03-14T16:17:07Z</time>
      </trkpt>
      <trkpt lat="48.30806" lon="-2.90985">
        <ele>164</ele>
        <time>2016-03-14T16:17:09Z</time>
      </trkpt>
      <trkpt lat="48.30806" lon="-2.90981">
        <ele>164</ele>
        <time>2016-03-14T16:17:11Z</time>
      </trkpt>
      <trkpt lat="48.30806" lon="-2.9098">
        <ele>164</ele>
        <time>2016-03-14T16:17:12Z</time>
      </trkpt>
      <trkpt lat="48.30806" lon="-2.90978">
        <ele>164</ele>
        <time>2016-03-14T16:17:13Z</time>
      </trkpt>
      <trkpt lat="48.30804" lon="-2.90975">
        <ele>164</ele>
        <time>2016-03-14T16:17:15Z</time>
      </trkpt>
      <trkpt lat="48.30804" lon="-2.90972">
        <ele>164</ele>
        <time>2016-03-14T16:17:18Z</time>
      </trkpt>
      <trkpt lat="48.30804" lon="-2.90971">
        <ele>164</ele>
        <time>2016-03-14T16:17:20Z</time>
      </trkpt>
      <trkpt lat="48.30803" lon="-2.90968">
        <ele>164</ele>
        <time>2016-03-14T16:17:23Z</time>
      </trkpt>
      <trkpt lat="48.30801" lon="-2.90966">
        <ele>164</ele>
        <time>2016-03-14T16:17:26Z</time>
      </trkpt>
      <trkpt lat="48.30802" lon="-2.90964">
        <ele>164</ele>
        <time>2016-03-14T16:17:30Z</time>
      </trkpt>
      <trkpt lat="48.30802" lon="-2.90962">
        <ele>164</ele>
        <time>2016-03-14T16:17:33Z</time>
      </trkpt>
      <trkpt lat="48.30802" lon="-2.9096">
        <ele>164</ele>
        <time>2016-03-14T16:17:35Z</time>
      </trkpt>
      <trkpt lat="48.30801" lon="-2.90958">
        <ele>164</ele>
        <time>2016-03-14T16:17:36Z</time>
      </trkpt>
      <trkpt lat="48.30801" lon="-2.90956">
        <ele>164</ele>
        <time>2016-03-14T16:17:38Z</time>
      </trkpt>
      <trkpt lat="48.308" lon="-2.90951">
        <ele>164</ele>
        <time>2016-03-14T16:17:40Z</time>
      </trkpt>
      <trkpt lat="48.30799" lon="-2.90949">
        <ele>164</ele>
        <time>2016-03-14T16:17:41Z</time>
      </trkpt>
      <trkpt lat="48.30799" lon="-2.90947">
        <ele>164</ele>
        <time>2016-03-14T16:17:43Z</time>
      </trkpt>
      <trkpt lat="48.30799" lon="-2.90945">
        <ele>164</ele>
        <time>2016-03-14T16:17:44Z</time>
      </trkpt>
      <trkpt lat="48.30799" lon="-2.90943">
        <ele>164</ele>
        <time>2016-03-14T16:17:45Z</time>
      </trkpt>
      <trkpt lat="48.30799" lon="-2.90941">
        <ele>164</ele>
        <time>2016-03-14T16:17:46Z</time>
      </trkpt>
      <trkpt lat="48.30799" lon="-2.90939">
        <ele>164</ele>
        <time>2016-03-14T16:17:47Z</time>
      </trkpt>
      <trkpt lat="48.30799" lon="-2.90936">
        <ele>164</ele>
        <time>2016-03-14T16:17:49Z</time>
      </trkpt>
      <trkpt lat="48.30798" lon="-2.90934">
        <ele>164</ele>
        <time>2016-03-14T16:17:51Z</time>
      </trkpt>
      <trkpt lat="48.30797" lon="-2.90932">
        <ele>164</ele>
        <time>2016-03-14T16:17:53Z</time>
      </trkpt>
      <trkpt lat="48.30798" lon="-2.90928">
        <ele>164</ele>
        <time>2016-03-14T16:17:55Z</time>
      </trkpt>
      <trkpt lat="48.30799" lon="-2.90925">
        <ele>164</ele>
        <time>2016-03-14T16:17:57Z</time>
      </trkpt>
      <trkpt lat="48.30799" lon="-2.90922">
        <ele>164</ele>
        <time>2016-03-14T16:17:59Z</time>
      </trkpt>
      <trkpt lat="48.30798" lon="-2.9092">
        <ele>164</ele>
        <time>2016-03-14T16:18:00Z</time>
      </trkpt>
      <trkpt lat="48.30798" lon="-2.90918">
        <ele>164</ele>
        <time>2016-03-14T16:18:02Z</time>
      </trkpt>
      <trkpt lat="48.30797" lon="-2.90915">
        <ele>165</ele>
        <time>2016-03-14T16:18:04Z</time>
      </trkpt>
      <trkpt lat="48.30797" lon="-2.90913">
        <ele>165</ele>
        <time>2016-03-14T16:18:05Z</time>
      </trkpt>
      <trkpt lat="48.30796" lon="-2.9091">
        <ele>165</ele>
        <time>2016-03-14T16:18:07Z</time>
      </trkpt>
      <trkpt lat="48.30795" lon="-2.90907">
        <ele>166</ele>
        <time>2016-03-14T16:18:09Z</time>
      </trkpt>
      <trkpt lat="48.30795" lon="-2.90904">
        <ele>166</ele>
        <time>2016-03-14T16:18:11Z</time>
      </trkpt>
      <trkpt lat="48.30795" lon="-2.90902">
        <ele>166</ele>
        <time>2016-03-14T16:18:12Z</time>
      </trkpt>
      <trkpt lat="48.30795" lon="-2.909">
        <ele>166</ele>
        <time>2016-03-14T16:18:13Z</time>
      </trkpt>
      <trkpt lat="48.30795" lon="-2.90898">
        <ele>166</ele>
        <time>2016-03-14T16:18:14Z</time>
      </trkpt>
      <trkpt lat="48.30794" lon="-2.90896">
        <ele>166</ele>
        <time>2016-03-14T16:18:15Z</time>
      </trkpt>
      <trkpt lat="48.30794" lon="-2.90894">
        <ele>166</ele>
        <time>2016-03-14T16:18:16Z</time>
      </trkpt>
      <trkpt lat="48.30793" lon="-2.90892">
        <ele>166</ele>
        <time>2016-03-14T16:18:18Z</time>
      </trkpt>
      <trkpt lat="48.30793" lon="-2.9089">
        <ele>166</ele>
        <time>2016-03-14T16:18:19Z</time>
      </trkpt>
      <trkpt lat="48.30792" lon="-2.90888">
        <ele>166</ele>
        <time>2016-03-14T16:18:20Z</time>
      </trkpt>
      <trkpt lat="48.30791" lon="-2.90886">
        <ele>166</ele>
        <time>2016-03-14T16:18:21Z</time>
      </trkpt>
      <trkpt lat="48.30791" lon="-2.90884">
        <ele>166</ele>
        <time>2016-03-14T16:18:22Z</time>
      </trkpt>
      <trkpt lat="48.3079" lon="-2.90881">
        <ele>166</ele>
        <time>2016-03-14T16:18:24Z</time>
      </trkpt>
      <trkpt lat="48.3079" lon="-2.90879">
        <ele>166</ele>
        <time>2016-03-14T16:18:25Z</time>
      </trkpt>
      <trkpt lat="48.3079" lon="-2.90878">
        <ele>166</ele>
        <time>2016-03-14T16:18:26Z</time>
      </trkpt>
      <trkpt lat="48.30789" lon="-2.90876">
        <ele>166</ele>
        <time>2016-03-14T16:18:27Z</time>
      </trkpt>
      <trkpt lat="48.30789" lon="-2.90874">
        <ele>166</ele>
        <time>2016-03-14T16:18:28Z</time>
      </trkpt>
      <trkpt lat="48.30788" lon="-2.90872">
        <ele>166</ele>
        <time>2016-03-14T16:18:29Z</time>
      </trkpt>
      <trkpt lat="48.30788" lon="-2.9087">
        <ele>166</ele>
        <time>2016-03-14T16:18:30Z</time>
      </trkpt>
      <trkpt lat="48.30788" lon="-2.90867">
        <ele>166</ele>
        <time>2016-03-14T16:18:32Z</time>
      </trkpt>
      <trkpt lat="48.30787" lon="-2.90865">
        <ele>166</ele>
        <time>2016-03-14T16:18:34Z</time>
      </trkpt>
      <trkpt lat="48.30786" lon="-2.90863">
        <ele>166</ele>
        <time>2016-03-14T16:18:36Z</time>
      </trkpt>
      <trkpt lat="48.30785" lon="-2.90861">
        <ele>166</ele>
        <time>2016-03-14T16:18:38Z</time>
      </trkpt>
      <trkpt lat="48.30785" lon="-2.90859">
        <ele>166</ele>
        <time>2016-03-14T16:18:40Z</time>
      </trkpt>
      <trkpt lat="48.30785" lon="-2.90857">
        <ele>166</ele>
        <time>2016-03-14T16:18:42Z</time>
      </trkpt>
      <trkpt lat="48.30783" lon="-2.90854">
        <ele>166</ele>
        <time>2016-03-14T16:18:45Z</time>
      </trkpt>
      <trkpt lat="48.30783" lon="-2.90852">
        <ele>166</ele>
        <time>2016-03-14T16:18:46Z</time>
      </trkpt>
      <trkpt lat="48.30783" lon="-2.9085">
        <ele>166</ele>
        <time>2016-03-14T16:18:47Z</time>
      </trkpt>
      <trkpt lat="48.30782" lon="-2.90847">
        <ele>166</ele>
        <time>2016-03-14T16:18:49Z</time>
      </trkpt>
      <trkpt lat="48.30782" lon="-2.90845">
        <ele>166</ele>
        <time>2016-03-14T16:18:50Z</time>
      </trkpt>
      <trkpt lat="48.3078" lon="-2.90843">
        <ele>166</ele>
        <time>2016-03-14T16:18:51Z</time>
      </trkpt>
      <trkpt lat="48.30779" lon="-2.90842">
        <ele>166</ele>
        <time>2016-03-14T16:18:52Z</time>
      </trkpt>
      <trkpt lat="48.30779" lon="-2.9084">
        <ele>166</ele>
        <time>2016-03-14T16:18:53Z</time>
      </trkpt>
      <trkpt lat="48.30778" lon="-2.90838">
        <ele>166</ele>
        <time>2016-03-14T16:18:55Z</time>
      </trkpt>
      <trkpt lat="48.30777" lon="-2.90835">
        <ele>166</ele>
        <time>2016-03-14T16:18:56Z</time>
      </trkpt>
      <trkpt lat="48.30777" lon="-2.90833">
        <ele>166</ele>
        <time>2016-03-14T16:18:57Z</time>
      </trkpt>
      <trkpt lat="48.30776" lon="-2.90832">
        <ele>166</ele>
        <time>2016-03-14T16:18:59Z</time>
      </trkpt>
      <trkpt lat="48.30775" lon="-2.90829">
        <ele>166</ele>
        <time>2016-03-14T16:19:01Z</time>
      </trkpt>
      <trkpt lat="48.30774" lon="-2.90826">
        <ele>166</ele>
        <time>2016-03-14T16:19:03Z</time>
      </trkpt>
      <trkpt lat="48.30774" lon="-2.90823">
        <ele>166</ele>
        <time>2016-03-14T16:19:05Z</time>
      </trkpt>
      <trkpt lat="48.30774" lon="-2.90821">
        <ele>166</ele>
        <time>2016-03-14T16:19:06Z</time>
      </trkpt>
      <trkpt lat="48.30774" lon="-2.90819">
        <ele>166</ele>
        <time>2016-03-14T16:19:07Z</time>
      </trkpt>
      <trkpt lat="48.30775" lon="-2.90817">
        <ele>166</ele>
        <time>2016-03-14T16:19:08Z</time>
      </trkpt>
      <trkpt lat="48.30775" lon="-2.90815">
        <ele>165</ele>
        <time>2016-03-14T16:19:10Z</time>
      </trkpt>
      <trkpt lat="48.30775" lon="-2.90813">
        <ele>164</ele>
        <time>2016-03-14T16:19:12Z</time>
      </trkpt>
      <trkpt lat="48.30775" lon="-2.9081">
        <ele>164</ele>
        <time>2016-03-14T16:19:14Z</time>
      </trkpt>
      <trkpt lat="48.30774" lon="-2.90808">
        <ele>164</ele>
        <time>2016-03-14T16:19:16Z</time>
      </trkpt>
      <trkpt lat="48.30773" lon="-2.90804">
        <ele>164</ele>
        <time>2016-03-14T16:19:18Z</time>
      </trkpt>
      <trkpt lat="48.30773" lon="-2.90801">
        <ele>164</ele>
        <time>2016-03-14T16:19:20Z</time>
      </trkpt>
      <trkpt lat="48.30772" lon="-2.90799">
        <ele>164</ele>
        <time>2016-03-14T16:19:21Z</time>
      </trkpt>
      <trkpt lat="48.30772" lon="-2.90797">
        <ele>164</ele>
        <time>2016-03-14T16:19:22Z</time>
      </trkpt>
      <trkpt lat="48.30771" lon="-2.90794">
        <ele>164</ele>
        <time>2016-03-14T16:19:24Z</time>
      </trkpt>
      <trkpt lat="48.3077" lon="-2.90793">
        <ele>164</ele>
        <time>2016-03-14T16:19:25Z</time>
      </trkpt>
      <trkpt lat="48.30768" lon="-2.9079">
        <ele>164</ele>
        <time>2016-03-14T16:19:27Z</time>
      </trkpt>
      <trkpt lat="48.30767" lon="-2.90788">
        <ele>164</ele>
        <time>2016-03-14T16:19:28Z</time>
      </trkpt>
      <trkpt lat="48.30767" lon="-2.90787">
        <ele>164</ele>
        <time>2016-03-14T16:19:29Z</time>
      </trkpt>
      <trkpt lat="48.30766" lon="-2.90783">
        <ele>164</ele>
        <time>2016-03-14T16:19:31Z</time>
      </trkpt>
      <trkpt lat="48.30765" lon="-2.90781">
        <ele>164</ele>
        <time>2016-03-14T16:19:33Z</time>
      </trkpt>
      <trkpt lat="48.30765" lon="-2.90779">
        <ele>164</ele>
        <time>2016-03-14T16:19:35Z</time>
      </trkpt>
      <trkpt lat="48.30764" lon="-2.90776">
        <ele>163</ele>
        <time>2016-03-14T16:19:37Z</time>
      </trkpt>
      <trkpt lat="48.30764" lon="-2.90774">
        <ele>163</ele>
        <time>2016-03-14T16:19:38Z</time>
      </trkpt>
      <trkpt lat="48.30763" lon="-2.90771">
        <ele>163</ele>
        <time>2016-03-14T16:19:40Z</time>
      </trkpt>
      <trkpt lat="48.30761" lon="-2.90768">
        <ele>163</ele>
        <time>2016-03-14T16:19:42Z</time>
      </trkpt>
      <trkpt lat="48.3076" lon="-2.90766">
        <ele>163</ele>
        <time>2016-03-14T16:19:44Z</time>
      </trkpt>
      <trkpt lat="48.30759" lon="-2.90762">
        <ele>163</ele>
        <time>2016-03-14T16:19:46Z</time>
      </trkpt>
      <trkpt lat="48.30758" lon="-2.90759">
        <ele>163</ele>
        <time>2016-03-14T16:19:48Z</time>
      </trkpt>
      <trkpt lat="48.30756" lon="-2.90757">
        <ele>163</ele>
        <time>2016-03-14T16:19:50Z</time>
      </trkpt>
      <trkpt lat="48.30755" lon="-2.90755">
        <ele>163</ele>
        <time>2016-03-14T16:19:51Z</time>
      </trkpt>
      <trkpt lat="48.30755" lon="-2.90753">
        <ele>163</ele>
        <time>2016-03-14T16:19:53Z</time>
      </trkpt>
      <trkpt lat="48.30753" lon="-2.90751">
        <ele>163</ele>
        <time>2016-03-14T16:19:55Z</time>
      </trkpt>
      <trkpt lat="48.30753" lon="-2.90749">
        <ele>163</ele>
        <time>2016-03-14T16:19:57Z</time>
      </trkpt>
      <trkpt lat="48.30752" lon="-2.90745">
        <ele>163</ele>
        <time>2016-03-14T16:19:59Z</time>
      </trkpt>
      <trkpt lat="48.30751" lon="-2.90742">
        <ele>163</ele>
        <time>2016-03-14T16:20:01Z</time>
      </trkpt>
      <trkpt lat="48.30751" lon="-2.9074">
        <ele>163</ele>
        <time>2016-03-14T16:20:02Z</time>
      </trkpt>
      <trkpt lat="48.30752" lon="-2.90739">
        <ele>163</ele>
        <time>2016-03-14T16:20:04Z</time>
      </trkpt>
      <trkpt lat="48.30752" lon="-2.90737">
        <ele>163</ele>
        <time>2016-03-14T16:20:06Z</time>
      </trkpt>
      <trkpt lat="48.30752" lon="-2.90734">
        <ele>163</ele>
        <time>2016-03-14T16:20:08Z</time>
      </trkpt>
      <trkpt lat="48.30751" lon="-2.90731">
        <ele>163</ele>
        <time>2016-03-14T16:20:10Z</time>
      </trkpt>
      <trkpt lat="48.3075" lon="-2.90728">
        <ele>163</ele>
        <time>2016-03-14T16:20:12Z</time>
      </trkpt>
      <trkpt lat="48.30749" lon="-2.90724">
        <ele>163</ele>
        <time>2016-03-14T16:20:14Z</time>
      </trkpt>
      <trkpt lat="48.30749" lon="-2.90722">
        <ele>163</ele>
        <time>2016-03-14T16:20:15Z</time>
      </trkpt>
      <trkpt lat="48.30749" lon="-2.9072">
        <ele>163</ele>
        <time>2016-03-14T16:20:16Z</time>
      </trkpt>
      <trkpt lat="48.30749" lon="-2.90718">
        <ele>163</ele>
        <time>2016-03-14T16:20:17Z</time>
      </trkpt>
      <trkpt lat="48.30748" lon="-2.90715">
        <ele>163</ele>
        <time>2016-03-14T16:20:19Z</time>
      </trkpt>
      <trkpt lat="48.30748" lon="-2.90714">
        <ele>163</ele>
        <time>2016-03-14T16:20:20Z</time>
      </trkpt>
      <trkpt lat="48.30747" lon="-2.90711">
        <ele>163</ele>
        <time>2016-03-14T16:20:21Z</time>
      </trkpt>
      <trkpt lat="48.30747" lon="-2.90709">
        <ele>163</ele>
        <time>2016-03-14T16:20:22Z</time>
      </trkpt>
      <trkpt lat="48.30747" lon="-2.90708">
        <ele>163</ele>
        <time>2016-03-14T16:20:23Z</time>
      </trkpt>
      <trkpt lat="48.30747" lon="-2.90706">
        <ele>163</ele>
        <time>2016-03-14T16:20:24Z</time>
      </trkpt>
      <trkpt lat="48.30747" lon="-2.90704">
        <ele>163</ele>
        <time>2016-03-14T16:20:25Z</time>
      </trkpt>
      <trkpt lat="48.30747" lon="-2.90703">
        <ele>163</ele>
        <time>2016-03-14T16:20:26Z</time>
      </trkpt>
      <trkpt lat="48.30746" lon="-2.90699">
        <ele>163</ele>
        <time>2016-03-14T16:20:28Z</time>
      </trkpt>
      <trkpt lat="48.30746" lon="-2.90697">
        <ele>163</ele>
        <time>2016-03-14T16:20:29Z</time>
      </trkpt>
      <trkpt lat="48.30747" lon="-2.90696">
        <ele>163</ele>
        <time>2016-03-14T16:20:30Z</time>
      </trkpt>
      <trkpt lat="48.30747" lon="-2.90693">
        <ele>163</ele>
        <time>2016-03-14T16:20:32Z</time>
      </trkpt>
      <trkpt lat="48.30747" lon="-2.90691">
        <ele>163</ele>
        <time>2016-03-14T16:20:33Z</time>
      </trkpt>
      <trkpt lat="48.30747" lon="-2.9069">
        <ele>163</ele>
        <time>2016-03-14T16:20:34Z</time>
      </trkpt>
      <trkpt lat="48.30746" lon="-2.90687">
        <ele>163</ele>
        <time>2016-03-14T16:20:36Z</time>
      </trkpt>
      <trkpt lat="48.30746" lon="-2.90684">
        <ele>163</ele>
        <time>2016-03-14T16:20:38Z</time>
      </trkpt>
      <trkpt lat="48.30746" lon="-2.90682">
        <ele>163</ele>
        <time>2016-03-14T16:20:39Z</time>
      </trkpt>
      <trkpt lat="48.30746" lon="-2.9068">
        <ele>163</ele>
        <time>2016-03-14T16:20:41Z</time>
      </trkpt>
      <trkpt lat="48.30745" lon="-2.90677">
        <ele>163</ele>
        <time>2016-03-14T16:20:43Z</time>
      </trkpt>
      <trkpt lat="48.30744" lon="-2.90675">
        <ele>163</ele>
        <time>2016-03-14T16:20:44Z</time>
      </trkpt>
      <trkpt lat="48.30743" lon="-2.90672">
        <ele>163</ele>
        <time>2016-03-14T16:20:46Z</time>
      </trkpt>
      <trkpt lat="48.30743" lon="-2.9067">
        <ele>163</ele>
        <time>2016-03-14T16:20:47Z</time>
      </trkpt>
      <trkpt lat="48.30743" lon="-2.90669">
        <ele>163</ele>
        <time>2016-03-14T16:20:48Z</time>
      </trkpt>
      <trkpt lat="48.30743" lon="-2.90666">
        <ele>163</ele>
        <time>2016-03-14T16:20:50Z</time>
      </trkpt>
      <trkpt lat="48.30743" lon="-2.90664">
        <ele>163</ele>
        <time>2016-03-14T16:20:52Z</time>
      </trkpt>
      <trkpt lat="48.30742" lon="-2.90661">
        <ele>163</ele>
        <time>2016-03-14T16:20:54Z</time>
      </trkpt>
      <trkpt lat="48.30742" lon="-2.90659">
        <ele>163</ele>
        <time>2016-03-14T16:20:56Z</time>
      </trkpt>
      <trkpt lat="48.30741" lon="-2.90657">
        <ele>163</ele>
        <time>2016-03-14T16:20:58Z</time>
      </trkpt>
      <trkpt lat="48.30741" lon="-2.90655">
        <ele>163</ele>
        <time>2016-03-14T16:21:00Z</time>
      </trkpt>
      <trkpt lat="48.3074" lon="-2.90653">
        <ele>163</ele>
        <time>2016-03-14T16:21:02Z</time>
      </trkpt>
      <trkpt lat="48.3074" lon="-2.90651">
        <ele>163</ele>
        <time>2016-03-14T16:21:04Z</time>
      </trkpt>
      <trkpt lat="48.3074" lon="-2.90648">
        <ele>163</ele>
        <time>2016-03-14T16:21:06Z</time>
      </trkpt>
      <trkpt lat="48.3074" lon="-2.90645">
        <ele>163</ele>
        <time>2016-03-14T16:21:08Z</time>
      </trkpt>
      <trkpt lat="48.3074" lon="-2.90644">
        <ele>163</ele>
        <time>2016-03-14T16:21:09Z</time>
      </trkpt>
      <trkpt lat="48.3074" lon="-2.90641">
        <ele>163</ele>
        <time>2016-03-14T16:21:10Z</time>
      </trkpt>
      <trkpt lat="48.30739" lon="-2.90639">
        <ele>163</ele>
        <time>2016-03-14T16:21:11Z</time>
      </trkpt>
      <trkpt lat="48.30739" lon="-2.90637">
        <ele>163</ele>
        <time>2016-03-14T16:21:13Z</time>
      </trkpt>
      <trkpt lat="48.30739" lon="-2.90634">
        <ele>163</ele>
        <time>2016-03-14T16:21:15Z</time>
      </trkpt>
      <trkpt lat="48.3074" lon="-2.90631">
        <ele>163</ele>
        <time>2016-03-14T16:21:17Z</time>
      </trkpt>
      <trkpt lat="48.3074" lon="-2.9063">
        <ele>163</ele>
        <time>2016-03-14T16:21:18Z</time>
      </trkpt>
      <trkpt lat="48.3074" lon="-2.90628">
        <ele>163</ele>
        <time>2016-03-14T16:21:19Z</time>
      </trkpt>
      <trkpt lat="48.3074" lon="-2.90626">
        <ele>163</ele>
        <time>2016-03-14T16:21:20Z</time>
      </trkpt>
      <trkpt lat="48.3074" lon="-2.90624">
        <ele>163</ele>
        <time>2016-03-14T16:21:21Z</time>
      </trkpt>
      <trkpt lat="48.30739" lon="-2.90622">
        <ele>163</ele>
        <time>2016-03-14T16:21:22Z</time>
      </trkpt>
      <trkpt lat="48.30739" lon="-2.9062">
        <ele>163</ele>
        <time>2016-03-14T16:21:23Z</time>
      </trkpt>
      <trkpt lat="48.30738" lon="-2.90618">
        <ele>163</ele>
        <time>2016-03-14T16:21:24Z</time>
      </trkpt>
      <trkpt lat="48.30737" lon="-2.90616">
        <ele>163</ele>
        <time>2016-03-14T16:21:26Z</time>
      </trkpt>
      <trkpt lat="48.30736" lon="-2.90613">
        <ele>163</ele>
        <time>2016-03-14T16:21:28Z</time>
      </trkpt>
      <trkpt lat="48.30736" lon="-2.90611">
        <ele>163</ele>
        <time>2016-03-14T16:21:29Z</time>
      </trkpt>
      <trkpt lat="48.30735" lon="-2.90608">
        <ele>163</ele>
        <time>2016-03-14T16:21:31Z</time>
      </trkpt>
      <trkpt lat="48.30734" lon="-2.90605">
        <ele>163</ele>
        <time>2016-03-14T16:21:33Z</time>
      </trkpt>
      <trkpt lat="48.30734" lon="-2.90603">
        <ele>163</ele>
        <time>2016-03-14T16:21:35Z</time>
      </trkpt>
      <trkpt lat="48.30733" lon="-2.90601">
        <ele>163</ele>
        <time>2016-03-14T16:21:37Z</time>
      </trkpt>
      <trkpt lat="48.30733" lon="-2.90598">
        <ele>163</ele>
        <time>2016-03-14T16:21:39Z</time>
      </trkpt>
      <trkpt lat="48.30733" lon="-2.90596">
        <ele>163</ele>
        <time>2016-03-14T16:21:41Z</time>
      </trkpt>
      <trkpt lat="48.30732" lon="-2.90593">
        <ele>163</ele>
        <time>2016-03-14T16:21:43Z</time>
      </trkpt>
      <trkpt lat="48.30732" lon="-2.9059">
        <ele>163</ele>
        <time>2016-03-14T16:21:45Z</time>
      </trkpt>
      <trkpt lat="48.30732" lon="-2.90588">
        <ele>163</ele>
        <time>2016-03-14T16:21:46Z</time>
      </trkpt>
      <trkpt lat="48.30731" lon="-2.90585">
        <ele>163</ele>
        <time>2016-03-14T16:21:48Z</time>
      </trkpt>
      <trkpt lat="48.30731" lon="-2.90582">
        <ele>163</ele>
        <time>2016-03-14T16:21:50Z</time>
      </trkpt>
      <trkpt lat="48.30731" lon="-2.9058">
        <ele>163</ele>
        <time>2016-03-14T16:21:51Z</time>
      </trkpt>
      <trkpt lat="48.30731" lon="-2.90577">
        <ele>163</ele>
        <time>2016-03-14T16:21:53Z</time>
      </trkpt>
      <trkpt lat="48.3073" lon="-2.90575">
        <ele>163</ele>
        <time>2016-03-14T16:21:55Z</time>
      </trkpt>
      <trkpt lat="48.3073" lon="-2.90573">
        <ele>163</ele>
        <time>2016-03-14T16:21:57Z</time>
      </trkpt>
      <trkpt lat="48.30728" lon="-2.9057">
        <ele>163</ele>
        <time>2016-03-14T16:21:59Z</time>
      </trkpt>
      <trkpt lat="48.30727" lon="-2.90567">
        <ele>163</ele>
        <time>2016-03-14T16:22:01Z</time>
      </trkpt>
      <trkpt lat="48.30727" lon="-2.90565">
        <ele>163</ele>
        <time>2016-03-14T16:22:02Z</time>
      </trkpt>
      <trkpt lat="48.30725" lon="-2.90563">
        <ele>163</ele>
        <time>2016-03-14T16:22:04Z</time>
      </trkpt>
      <trkpt lat="48.30725" lon="-2.9056">
        <ele>163</ele>
        <time>2016-03-14T16:22:06Z</time>
      </trkpt>
      <trkpt lat="48.30724" lon="-2.90558">
        <ele>163</ele>
        <time>2016-03-14T16:22:08Z</time>
      </trkpt>
      <trkpt lat="48.30723" lon="-2.90557">
        <ele>163</ele>
        <time>2016-03-14T16:22:10Z</time>
      </trkpt>
      <trkpt lat="48.30722" lon="-2.90554">
        <ele>163</ele>
        <time>2016-03-14T16:22:12Z</time>
      </trkpt>
      <trkpt lat="48.30722" lon="-2.90552">
        <ele>163</ele>
        <time>2016-03-14T16:22:14Z</time>
      </trkpt>
      <trkpt lat="48.30722" lon="-2.9055">
        <ele>163</ele>
        <time>2016-03-14T16:22:16Z</time>
      </trkpt>
      <trkpt lat="48.30719" lon="-2.90546">
        <ele>163</ele>
        <time>2016-03-14T16:22:18Z</time>
      </trkpt>
      <trkpt lat="48.30719" lon="-2.90544">
        <ele>163</ele>
        <time>2016-03-14T16:22:19Z</time>
      </trkpt>
      <trkpt lat="48.30717" lon="-2.90543">
        <ele>163</ele>
        <time>2016-03-14T16:22:22Z</time>
      </trkpt>
      <trkpt lat="48.30716" lon="-2.9054">
        <ele>163</ele>
        <time>2016-03-14T16:22:24Z</time>
      </trkpt>
      <trkpt lat="48.30715" lon="-2.90537">
        <ele>163</ele>
        <time>2016-03-14T16:22:26Z</time>
      </trkpt>
      <trkpt lat="48.30714" lon="-2.90535">
        <ele>163</ele>
        <time>2016-03-14T16:22:28Z</time>
      </trkpt>
      <trkpt lat="48.30712" lon="-2.90533">
        <ele>163</ele>
        <time>2016-03-14T16:22:30Z</time>
      </trkpt>
      <trkpt lat="48.30711" lon="-2.9053">
        <ele>163</ele>
        <time>2016-03-14T16:22:32Z</time>
      </trkpt>
      <trkpt lat="48.30709" lon="-2.90527">
        <ele>163</ele>
        <time>2016-03-14T16:22:34Z</time>
      </trkpt>
      <trkpt lat="48.30708" lon="-2.90525">
        <ele>163</ele>
        <time>2016-03-14T16:22:35Z</time>
      </trkpt>
      <trkpt lat="48.30707" lon="-2.90523">
        <ele>163</ele>
        <time>2016-03-14T16:22:37Z</time>
      </trkpt>
      <trkpt lat="48.30706" lon="-2.9052">
        <ele>163</ele>
        <time>2016-03-14T16:22:39Z</time>
      </trkpt>
      <trkpt lat="48.30704" lon="-2.90518">
        <ele>163</ele>
        <time>2016-03-14T16:22:41Z</time>
      </trkpt>
      <trkpt lat="48.30703" lon="-2.90517">
        <ele>163</ele>
        <time>2016-03-14T16:22:43Z</time>
      </trkpt>
      <trkpt lat="48.30703" lon="-2.90515">
        <ele>163</ele>
        <time>2016-03-14T16:22:45Z</time>
      </trkpt>
      <trkpt lat="48.30702" lon="-2.90513">
        <ele>163</ele>
        <time>2016-03-14T16:22:47Z</time>
      </trkpt>
      <trkpt lat="48.30701" lon="-2.90512">
        <ele>163</ele>
        <time>2016-03-14T16:22:49Z</time>
      </trkpt>
      <trkpt lat="48.307" lon="-2.9051">
        <ele>163</ele>
        <time>2016-03-14T16:22:51Z</time>
      </trkpt>
      <trkpt lat="48.30698" lon="-2.90508">
        <ele>163</ele>
        <time>2016-03-14T16:22:53Z</time>
      </trkpt>
      <trkpt lat="48.30698" lon="-2.90505">
        <ele>163</ele>
        <time>2016-03-14T16:22:55Z</time>
      </trkpt>
      <trkpt lat="48.30696" lon="-2.90504">
        <ele>163</ele>
        <time>2016-03-14T16:22:57Z</time>
      </trkpt>
      <trkpt lat="48.30695" lon="-2.90502">
        <ele>163</ele>
        <time>2016-03-14T16:22:59Z</time>
      </trkpt>
      <trkpt lat="48.30693" lon="-2.905">
        <ele>163</ele>
        <time>2016-03-14T16:23:01Z</time>
      </trkpt>
      <trkpt lat="48.30692" lon="-2.90498">
        <ele>163</ele>
        <time>2016-03-14T16:23:04Z</time>
      </trkpt>
      <trkpt lat="48.30691" lon="-2.90496">
        <ele>163</ele>
        <time>2016-03-14T16:23:05Z</time>
      </trkpt>
      <trkpt lat="48.3069" lon="-2.90494">
        <ele>163</ele>
        <time>2016-03-14T16:23:06Z</time>
      </trkpt>
      <trkpt lat="48.30689" lon="-2.9049">
        <ele>163</ele>
        <time>2016-03-14T16:23:08Z</time>
      </trkpt>
      <trkpt lat="48.30688" lon="-2.90488">
        <ele>163</ele>
        <time>2016-03-14T16:23:09Z</time>
      </trkpt>
      <trkpt lat="48.30686" lon="-2.90486">
        <ele>163</ele>
        <time>2016-03-14T16:23:11Z</time>
      </trkpt>
      <trkpt lat="48.30684" lon="-2.90484">
        <ele>163</ele>
        <time>2016-03-14T16:23:13Z</time>
      </trkpt>
      <trkpt lat="48.30682" lon="-2.90482">
        <ele>164</ele>
        <time>2016-03-14T16:23:15Z</time>
      </trkpt>
      <trkpt lat="48.30681" lon="-2.90481">
        <ele>164</ele>
        <time>2016-03-14T16:23:17Z</time>
      </trkpt>
      <trkpt lat="48.30679" lon="-2.9048">
        <ele>164</ele>
        <time>2016-03-14T16:23:19Z</time>
      </trkpt>
      <trkpt lat="48.30678" lon="-2.90479">
        <ele>164</ele>
        <time>2016-03-14T16:23:21Z</time>
      </trkpt>
      <trkpt lat="48.30676" lon="-2.90478">
        <ele>164</ele>
        <time>2016-03-14T16:23:23Z</time>
      </trkpt>
      <trkpt lat="48.30675" lon="-2.90476">
        <ele>164</ele>
        <time>2016-03-14T16:23:25Z</time>
      </trkpt>
      <trkpt lat="48.30674" lon="-2.90475">
        <ele>164</ele>
        <time>2016-03-14T16:23:27Z</time>
      </trkpt>
      <trkpt lat="48.30672" lon="-2.90474">
        <ele>165</ele>
        <time>2016-03-14T16:23:29Z</time>
      </trkpt>
      <trkpt lat="48.30671" lon="-2.90472">
        <ele>165</ele>
        <time>2016-03-14T16:23:31Z</time>
      </trkpt>
      <trkpt lat="48.30669" lon="-2.9047">
        <ele>165</ele>
        <time>2016-03-14T16:23:33Z</time>
      </trkpt>
      <trkpt lat="48.30667" lon="-2.90469">
        <ele>165</ele>
        <time>2016-03-14T16:23:35Z</time>
      </trkpt>
      <trkpt lat="48.30664" lon="-2.90468">
        <ele>165</ele>
        <time>2016-03-14T16:23:37Z</time>
      </trkpt>
      <trkpt lat="48.30663" lon="-2.90467">
        <ele>165</ele>
        <time>2016-03-14T16:23:38Z</time>
      </trkpt>
      <trkpt lat="48.30661" lon="-2.90466">
        <ele>165</ele>
        <time>2016-03-14T16:23:40Z</time>
      </trkpt>
      <trkpt lat="48.30659" lon="-2.90465">
        <ele>165</ele>
        <time>2016-03-14T16:23:42Z</time>
      </trkpt>
      <trkpt lat="48.30658" lon="-2.90464">
        <ele>165</ele>
        <time>2016-03-14T16:23:44Z</time>
      </trkpt>
      <trkpt lat="48.30657" lon="-2.90463">
        <ele>165</ele>
        <time>2016-03-14T16:23:45Z</time>
      </trkpt>
      <trkpt lat="48.30656" lon="-2.90463">
        <ele>164</ele>
        <time>2016-03-14T16:23:46Z</time>
      </trkpt>
      <trkpt lat="48.30654" lon="-2.90462">
        <ele>163</ele>
        <time>2016-03-14T16:23:48Z</time>
      </trkpt>
      <trkpt lat="48.30652" lon="-2.9046">
        <ele>163</ele>
        <time>2016-03-14T16:23:50Z</time>
      </trkpt>
      <trkpt lat="48.3065" lon="-2.90459">
        <ele>163</ele>
        <time>2016-03-14T16:23:52Z</time>
      </trkpt>
      <trkpt lat="48.30649" lon="-2.90457">
        <ele>163</ele>
        <time>2016-03-14T16:23:53Z</time>
      </trkpt>
      <trkpt lat="48.30648" lon="-2.90457">
        <ele>163</ele>
        <time>2016-03-14T16:23:54Z</time>
      </trkpt>
      <trkpt lat="48.30646" lon="-2.90456">
        <ele>163</ele>
        <time>2016-03-14T16:23:56Z</time>
      </trkpt>
      <trkpt lat="48.30645" lon="-2.90455">
        <ele>163</ele>
        <time>2016-03-14T16:23:57Z</time>
      </trkpt>
      <trkpt lat="48.30643" lon="-2.90454">
        <ele>163</ele>
        <time>2016-03-14T16:23:58Z</time>
      </trkpt>
      <trkpt lat="48.30641" lon="-2.90453">
        <ele>163</ele>
        <time>2016-03-14T16:24:00Z</time>
      </trkpt>
      <trkpt lat="48.30639" lon="-2.90452">
        <ele>163</ele>
        <time>2016-03-14T16:24:02Z</time>
      </trkpt>
      <trkpt lat="48.30637" lon="-2.9045">
        <ele>163</ele>
        <time>2016-03-14T16:24:04Z</time>
      </trkpt>
      <trkpt lat="48.30635" lon="-2.90449">
        <ele>163</ele>
        <time>2016-03-14T16:24:05Z</time>
      </trkpt>
      <trkpt lat="48.30634" lon="-2.90448">
        <ele>163</ele>
        <time>2016-03-14T16:24:06Z</time>
      </trkpt>
      <trkpt lat="48.30632" lon="-2.90446">
        <ele>163</ele>
        <time>2016-03-14T16:24:08Z</time>
      </trkpt>
      <trkpt lat="48.30631" lon="-2.90446">
        <ele>163</ele>
        <time>2016-03-14T16:24:09Z</time>
      </trkpt>
      <trkpt lat="48.3063" lon="-2.90445">
        <ele>163</ele>
        <time>2016-03-14T16:24:10Z</time>
      </trkpt>
      <trkpt lat="48.30628" lon="-2.90444">
        <ele>163</ele>
        <time>2016-03-14T16:24:12Z</time>
      </trkpt>
      <trkpt lat="48.30626" lon="-2.90443">
        <ele>163</ele>
        <time>2016-03-14T16:24:14Z</time>
      </trkpt>
      <trkpt lat="48.30624" lon="-2.90442">
        <ele>163</ele>
        <time>2016-03-14T16:24:16Z</time>
      </trkpt>
      <trkpt lat="48.30623" lon="-2.90442">
        <ele>163</ele>
        <time>2016-03-14T16:24:17Z</time>
      </trkpt>
      <trkpt lat="48.30621" lon="-2.90441">
        <ele>163</ele>
        <time>2016-03-14T16:24:19Z</time>
      </trkpt>
      <trkpt lat="48.30619" lon="-2.9044">
        <ele>163</ele>
        <time>2016-03-14T16:24:21Z</time>
      </trkpt>
      <trkpt lat="48.30618" lon="-2.90439">
        <ele>163</ele>
        <time>2016-03-14T16:24:22Z</time>
      </trkpt>
      <trkpt lat="48.30616" lon="-2.90438">
        <ele>163</ele>
        <time>2016-03-14T16:24:24Z</time>
      </trkpt>
      <trkpt lat="48.30615" lon="-2.90436">
        <ele>163</ele>
        <time>2016-03-14T16:24:26Z</time>
      </trkpt>
      <trkpt lat="48.30613" lon="-2.90434">
        <ele>163</ele>
        <time>2016-03-14T16:24:28Z</time>
      </trkpt>
      <trkpt lat="48.30613" lon="-2.90433">
        <ele>163</ele>
        <time>2016-03-14T16:24:29Z</time>
      </trkpt>
      <trkpt lat="48.30611" lon="-2.90429">
        <ele>163</ele>
        <time>2016-03-14T16:24:31Z</time>
      </trkpt>
      <trkpt lat="48.30611" lon="-2.90427">
        <ele>163</ele>
        <time>2016-03-14T16:24:32Z</time>
      </trkpt>
      <trkpt lat="48.3061" lon="-2.90425">
        <ele>163</ele>
        <time>2016-03-14T16:24:34Z</time>
      </trkpt>
      <trkpt lat="48.3061" lon="-2.90422">
        <ele>163</ele>
        <time>2016-03-14T16:24:36Z</time>
      </trkpt>
      <trkpt lat="48.3061" lon="-2.90419">
        <ele>163</ele>
        <time>2016-03-14T16:24:38Z</time>
      </trkpt>
      <trkpt lat="48.30609" lon="-2.90416">
        <ele>162</ele>
        <time>2016-03-14T16:24:40Z</time>
      </trkpt>
      <trkpt lat="48.30608" lon="-2.90414">
        <ele>162</ele>
        <time>2016-03-14T16:24:41Z</time>
      </trkpt>
      <trkpt lat="48.30608" lon="-2.90411">
        <ele>162</ele>
        <time>2016-03-14T16:24:43Z</time>
      </trkpt>
      <trkpt lat="48.30607" lon="-2.90409">
        <ele>162</ele>
        <time>2016-03-14T16:24:44Z</time>
      </trkpt>
      <trkpt lat="48.30606" lon="-2.90406">
        <ele>162</ele>
        <time>2016-03-14T16:24:46Z</time>
      </trkpt>
      <trkpt lat="48.30606" lon="-2.90404">
        <ele>162</ele>
        <time>2016-03-14T16:24:47Z</time>
      </trkpt>
      <trkpt lat="48.30605" lon="-2.90402">
        <ele>162</ele>
        <time>2016-03-14T16:24:48Z</time>
      </trkpt>
      <trkpt lat="48.30605" lon="-2.904">
        <ele>162</ele>
        <time>2016-03-14T16:24:49Z</time>
      </trkpt>
      <trkpt lat="48.30605" lon="-2.90398">
        <ele>162</ele>
        <time>2016-03-14T16:24:50Z</time>
      </trkpt>
      <trkpt lat="48.30605" lon="-2.90396">
        <ele>162</ele>
        <time>2016-03-14T16:24:51Z</time>
      </trkpt>
      <trkpt lat="48.30605" lon="-2.90395">
        <ele>162</ele>
        <time>2016-03-14T16:24:52Z</time>
      </trkpt>
      <trkpt lat="48.30605" lon="-2.90393">
        <ele>162</ele>
        <time>2016-03-14T16:24:53Z</time>
      </trkpt>
      <trkpt lat="48.30605" lon="-2.90391">
        <ele>162</ele>
        <time>2016-03-14T16:24:54Z</time>
      </trkpt>
      <trkpt lat="48.30605" lon="-2.9039">
        <ele>162</ele>
        <time>2016-03-14T16:24:55Z</time>
      </trkpt>
      <trkpt lat="48.30605" lon="-2.90388">
        <ele>162</ele>
        <time>2016-03-14T16:24:56Z</time>
      </trkpt>
      <trkpt lat="48.30605" lon="-2.90385">
        <ele>162</ele>
        <time>2016-03-14T16:24:58Z</time>
      </trkpt>
      <trkpt lat="48.30605" lon="-2.90383">
        <ele>162</ele>
        <time>2016-03-14T16:24:59Z</time>
      </trkpt>
      <trkpt lat="48.30606" lon="-2.9038">
        <ele>162</ele>
        <time>2016-03-14T16:25:01Z</time>
      </trkpt>
      <trkpt lat="48.30606" lon="-2.90378">
        <ele>162</ele>
        <time>2016-03-14T16:25:02Z</time>
      </trkpt>
      <trkpt lat="48.30606" lon="-2.90375">
        <ele>162</ele>
        <time>2016-03-14T16:25:04Z</time>
      </trkpt>
      <trkpt lat="48.30606" lon="-2.90373">
        <ele>162</ele>
        <time>2016-03-14T16:25:06Z</time>
      </trkpt>
      <trkpt lat="48.30607" lon="-2.9037">
        <ele>162</ele>
        <time>2016-03-14T16:25:08Z</time>
      </trkpt>
      <trkpt lat="48.30607" lon="-2.90369">
        <ele>162</ele>
        <time>2016-03-14T16:25:10Z</time>
      </trkpt>
      <trkpt lat="48.30608" lon="-2.90367">
        <ele>162</ele>
        <time>2016-03-14T16:25:12Z</time>
      </trkpt>
      <trkpt lat="48.30609" lon="-2.90365">
        <ele>162</ele>
        <time>2016-03-14T16:25:15Z</time>
      </trkpt>
      <trkpt lat="48.3061" lon="-2.90363">
        <ele>162</ele>
        <time>2016-03-14T16:25:18Z</time>
      </trkpt>
      <trkpt lat="48.30611" lon="-2.90361">
        <ele>162</ele>
        <time>2016-03-14T16:25:21Z</time>
      </trkpt>
      <trkpt lat="48.30611" lon="-2.90359">
        <ele>162</ele>
        <time>2016-03-14T16:25:25Z</time>
      </trkpt>
      <trkpt lat="48.30611" lon="-2.90356">
        <ele>162</ele>
        <time>2016-03-14T16:25:28Z</time>
      </trkpt>
      <trkpt lat="48.30611" lon="-2.90354">
        <ele>162</ele>
        <time>2016-03-14T16:25:30Z</time>
      </trkpt>
      <trkpt lat="48.30611" lon="-2.90353">
        <ele>162</ele>
        <time>2016-03-14T16:25:32Z</time>
      </trkpt>
      <trkpt lat="48.30611" lon="-2.90351">
        <ele>162</ele>
        <time>2016-03-14T16:25:34Z</time>
      </trkpt>
      <trkpt lat="48.30613" lon="-2.90349">
        <ele>162</ele>
        <time>2016-03-14T16:25:37Z</time>
      </trkpt>
      <trkpt lat="48.30611" lon="-2.90347">
        <ele>163</ele>
        <time>2016-03-14T16:25:45Z</time>
      </trkpt>
      <trkpt lat="48.30611" lon="-2.90349">
        <ele>163</ele>
        <time>2016-03-14T16:25:51Z</time>
      </trkpt>
      <trkpt lat="48.30611" lon="-2.90347">
        <ele>164</ele>
        <time>2016-03-14T16:26:02Z</time>
      </trkpt>
      <trkpt lat="48.30611" lon="-2.90345">
        <ele>164</ele>
        <time>2016-03-14T16:26:05Z</time>
      </trkpt>
      <trkpt lat="48.30612" lon="-2.90343">
        <ele>164</ele>
        <time>2016-03-14T16:26:07Z</time>
      </trkpt>
      <trkpt lat="48.30613" lon="-2.90341">
        <ele>164</ele>
        <time>2016-03-14T16:26:09Z</time>
      </trkpt>
      <trkpt lat="48.30613" lon="-2.90339">
        <ele>164</ele>
        <time>2016-03-14T16:26:11Z</time>
      </trkpt>
      <trkpt lat="48.30615" lon="-2.90337">
        <ele>164</ele>
        <time>2016-03-14T16:26:13Z</time>
      </trkpt>
      <trkpt lat="48.30616" lon="-2.90336">
        <ele>164</ele>
        <time>2016-03-14T16:26:15Z</time>
      </trkpt>
      <trkpt lat="48.30617" lon="-2.90334">
        <ele>164</ele>
        <time>2016-03-14T16:26:17Z</time>
      </trkpt>
      <trkpt lat="48.30619" lon="-2.90332">
        <ele>164</ele>
        <time>2016-03-14T16:26:19Z</time>
      </trkpt>
      <trkpt lat="48.3062" lon="-2.9033">
        <ele>164</ele>
        <time>2016-03-14T16:26:21Z</time>
      </trkpt>
      <trkpt lat="48.30621" lon="-2.90329">
        <ele>164</ele>
        <time>2016-03-14T16:26:23Z</time>
      </trkpt>
      <trkpt lat="48.30622" lon="-2.90327">
        <ele>164</ele>
        <time>2016-03-14T16:26:25Z</time>
      </trkpt>
      <trkpt lat="48.30624" lon="-2.90325">
        <ele>164</ele>
        <time>2016-03-14T16:26:27Z</time>
      </trkpt>
      <trkpt lat="48.30626" lon="-2.90323">
        <ele>164</ele>
        <time>2016-03-14T16:26:29Z</time>
      </trkpt>
      <trkpt lat="48.30627" lon="-2.9032">
        <ele>164</ele>
        <time>2016-03-14T16:26:31Z</time>
      </trkpt>
      <trkpt lat="48.30628" lon="-2.90318">
        <ele>164</ele>
        <time>2016-03-14T16:26:33Z</time>
      </trkpt>
      <trkpt lat="48.30628" lon="-2.90315">
        <ele>164</ele>
        <time>2016-03-14T16:26:35Z</time>
      </trkpt>
      <trkpt lat="48.30629" lon="-2.90312">
        <ele>164</ele>
        <time>2016-03-14T16:26:37Z</time>
      </trkpt>
      <trkpt lat="48.30629" lon="-2.9031">
        <ele>164</ele>
        <time>2016-03-14T16:26:38Z</time>
      </trkpt>
      <trkpt lat="48.30629" lon="-2.90308">
        <ele>164</ele>
        <time>2016-03-14T16:26:39Z</time>
      </trkpt>
      <trkpt lat="48.30629" lon="-2.90306">
        <ele>164</ele>
        <time>2016-03-14T16:26:40Z</time>
      </trkpt>
      <trkpt lat="48.30629" lon="-2.90305">
        <ele>164</ele>
        <time>2016-03-14T16:26:41Z</time>
      </trkpt>
      <trkpt lat="48.30628" lon="-2.90303">
        <ele>164</ele>
        <time>2016-03-14T16:26:42Z</time>
      </trkpt>
      <trkpt lat="48.30628" lon="-2.90301">
        <ele>164</ele>
        <time>2016-03-14T16:26:44Z</time>
      </trkpt>
      <trkpt lat="48.30627" lon="-2.90299">
        <ele>164</ele>
        <time>2016-03-14T16:26:47Z</time>
      </trkpt>
      <trkpt lat="48.30627" lon="-2.90297">
        <ele>164</ele>
        <time>2016-03-14T16:26:49Z</time>
      </trkpt>
      <trkpt lat="48.30625" lon="-2.90294">
        <ele>164</ele>
        <time>2016-03-14T16:26:51Z</time>
      </trkpt>
      <trkpt lat="48.30624" lon="-2.90291">
        <ele>164</ele>
        <time>2016-03-14T16:26:53Z</time>
      </trkpt>
      <trkpt lat="48.30622" lon="-2.90289">
        <ele>164</ele>
        <time>2016-03-14T16:26:55Z</time>
      </trkpt>
      <trkpt lat="48.3062" lon="-2.90287">
        <ele>164</ele>
        <time>2016-03-14T16:26:58Z</time>
      </trkpt>
      <trkpt lat="48.30619" lon="-2.90286">
        <ele>164</ele>
        <time>2016-03-14T16:26:59Z</time>
      </trkpt>
      <trkpt lat="48.30618" lon="-2.90286">
        <ele>164</ele>
        <time>2016-03-14T16:27:00Z</time>
      </trkpt>
      <trkpt lat="48.30616" lon="-2.90285">
        <ele>164</ele>
        <time>2016-03-14T16:27:02Z</time>
      </trkpt>
      <trkpt lat="48.30614" lon="-2.90283">
        <ele>164</ele>
        <time>2016-03-14T16:27:04Z</time>
      </trkpt>
      <trkpt lat="48.30613" lon="-2.90283">
        <ele>164</ele>
        <time>2016-03-14T16:27:05Z</time>
      </trkpt>
      <trkpt lat="48.30612" lon="-2.90283">
        <ele>164</ele>
        <time>2016-03-14T16:27:06Z</time>
      </trkpt>
      <trkpt lat="48.3061" lon="-2.90283">
        <ele>164</ele>
        <time>2016-03-14T16:27:08Z</time>
      </trkpt>
      <trkpt lat="48.30608" lon="-2.90282">
        <ele>164</ele>
        <time>2016-03-14T16:27:09Z</time>
      </trkpt>
      <trkpt lat="48.30607" lon="-2.90282">
        <ele>164</ele>
        <time>2016-03-14T16:27:10Z</time>
      </trkpt>
      <trkpt lat="48.30606" lon="-2.90281">
        <ele>164</ele>
        <time>2016-03-14T16:27:11Z</time>
      </trkpt>
      <trkpt lat="48.30604" lon="-2.9028">
        <ele>164</ele>
        <time>2016-03-14T16:27:13Z</time>
      </trkpt>
      <trkpt lat="48.30602" lon="-2.9028">
        <ele>164</ele>
        <time>2016-03-14T16:27:15Z</time>
      </trkpt>
      <trkpt lat="48.30601" lon="-2.90281">
        <ele>164</ele>
        <time>2016-03-14T16:27:16Z</time>
      </trkpt>
      <trkpt lat="48.306" lon="-2.90281">
        <ele>164</ele>
        <time>2016-03-14T16:27:17Z</time>
      </trkpt>
      <trkpt lat="48.30598" lon="-2.90281">
        <ele>164</ele>
        <time>2016-03-14T16:27:18Z</time>
      </trkpt>
      <trkpt lat="48.30597" lon="-2.90281">
        <ele>164</ele>
        <time>2016-03-14T16:27:22Z</time>
      </trkpt>
      <trkpt lat="48.30596" lon="-2.9028">
        <ele>164</ele>
        <time>2016-03-14T16:27:30Z</time>
      </trkpt>
      <trkpt lat="48.30596" lon="-2.90279">
        <ele>164</ele>
        <time>2016-03-14T16:27:48Z</time>
      </trkpt>
      <trkpt lat="48.30596" lon="-2.90281">
        <ele>164</ele>
        <time>2016-03-14T16:28:08Z</time>
      </trkpt>
      <trkpt lat="48.30595" lon="-2.90283">
        <ele>164</ele>
        <time>2016-03-14T16:28:11Z</time>
      </trkpt>
      <trkpt lat="48.30595" lon="-2.90284">
        <ele>166</ele>
        <time>2016-03-14T16:28:19Z</time>
      </trkpt>
      <trkpt lat="48.30593" lon="-2.90283">
        <ele>168</ele>
        <time>2016-03-14T16:28:57Z</time>
      </trkpt>
      <trkpt lat="48.30592" lon="-2.90283">
        <ele>168</ele>
        <time>2016-03-14T16:29:03Z</time>
      </trkpt>
      <trkpt lat="48.30591" lon="-2.90282">
        <ele>168</ele>
        <time>2016-03-14T16:29:08Z</time>
      </trkpt>
      <trkpt lat="48.3059" lon="-2.90282">
        <ele>168</ele>
        <time>2016-03-14T16:29:17Z</time>
      </trkpt>
      <trkpt lat="48.3059" lon="-2.90284">
        <ele>168</ele>
        <time>2016-03-14T16:29:20Z</time>
      </trkpt>
      <trkpt lat="48.30592" lon="-2.90285">
        <ele>168</ele>
        <time>2016-03-14T16:29:25Z</time>
      </trkpt>
      <trkpt lat="48.30593" lon="-2.90285">
        <ele>168</ele>
        <time>2016-03-14T16:29:29Z</time>
      </trkpt>
      <trkpt lat="48.30594" lon="-2.90284">
        <ele>168</ele>
        <time>2016-03-14T16:29:33Z</time>
      </trkpt>
      <trkpt lat="48.30595" lon="-2.90283">
        <ele>168</ele>
        <time>2016-03-14T16:29:43Z</time>
      </trkpt>
      <trkpt lat="48.30596" lon="-2.90283">
        <ele>168</ele>
        <time>2016-03-14T16:29:54Z</time>
      </trkpt>
      <trkpt lat="48.30598" lon="-2.90283">
        <ele>168</ele>
        <time>2016-03-14T16:30:09Z</time>
      </trkpt>
      <trkpt lat="48.30596" lon="-2.90282">
        <ele>168</ele>
        <time>2016-03-14T16:30:30Z</time>
      </trkpt>
      <trkpt lat="48.30595" lon="-2.90281">
        <ele>168</ele>
        <time>2016-03-14T16:30:46Z</time>
      </trkpt>
      <trkpt lat="48.30594" lon="-2.9028">
        <ele>168</ele>
        <time>2016-03-14T16:30:53Z</time>
      </trkpt>
      <trkpt lat="48.30592" lon="-2.9028">
        <ele>169</ele>
        <time>2016-03-14T16:30:58Z</time>
      </trkpt>
      <trkpt lat="48.30592" lon="-2.90279">
        <ele>169</ele>
        <time>2016-03-14T16:31:05Z</time>
      </trkpt>
      <trkpt lat="48.30591" lon="-2.90279">
        <ele>169</ele>
        <time>2016-03-14T16:31:13Z</time>
      </trkpt>
      <trkpt lat="48.3059" lon="-2.90279">
        <ele>169</ele>
        <time>2016-03-14T16:31:15Z</time>
      </trkpt>
      <trkpt lat="48.30588" lon="-2.90279">
        <ele>169</ele>
        <time>2016-03-14T16:31:17Z</time>
      </trkpt>
      <trkpt lat="48.30587" lon="-2.90279">
        <ele>169</ele>
        <time>2016-03-14T16:31:19Z</time>
      </trkpt>
      <trkpt lat="48.30585" lon="-2.90279">
        <ele>169</ele>
        <time>2016-03-14T16:31:24Z</time>
      </trkpt>
      <trkpt lat="48.30584" lon="-2.90279">
        <ele>169</ele>
        <time>2016-03-14T16:31:26Z</time>
      </trkpt>
      <trkpt lat="48.30582" lon="-2.9028">
        <ele>169</ele>
        <time>2016-03-14T16:31:29Z</time>
      </trkpt>
      <trkpt lat="48.30581" lon="-2.9028">
        <ele>169</ele>
        <time>2016-03-14T16:31:31Z</time>
      </trkpt>
      <trkpt lat="48.30579" lon="-2.9028">
        <ele>169</ele>
        <time>2016-03-14T16:31:33Z</time>
      </trkpt>
      <trkpt lat="48.30577" lon="-2.9028">
        <ele>169</ele>
        <time>2016-03-14T16:31:35Z</time>
      </trkpt>
      <trkpt lat="48.30576" lon="-2.9028">
        <ele>169</ele>
        <time>2016-03-14T16:31:37Z</time>
      </trkpt>
      <trkpt lat="48.30574" lon="-2.90281">
        <ele>169</ele>
        <time>2016-03-14T16:31:39Z</time>
      </trkpt>
      <trkpt lat="48.30573" lon="-2.90281">
        <ele>169</ele>
        <time>2016-03-14T16:31:41Z</time>
      </trkpt>
      <trkpt lat="48.30571" lon="-2.90281">
        <ele>169</ele>
        <time>2016-03-14T16:31:43Z</time>
      </trkpt>
      <trkpt lat="48.30568" lon="-2.90282">
        <ele>169</ele>
        <time>2016-03-14T16:31:45Z</time>
      </trkpt>
      <trkpt lat="48.30567" lon="-2.90282">
        <ele>169</ele>
        <time>2016-03-14T16:31:47Z</time>
      </trkpt>
      <trkpt lat="48.30566" lon="-2.90282">
        <ele>169</ele>
        <time>2016-03-14T16:31:48Z</time>
      </trkpt>
      <trkpt lat="48.30564" lon="-2.90282">
        <ele>169</ele>
        <time>2016-03-14T16:31:49Z</time>
      </trkpt>
      <trkpt lat="48.30562" lon="-2.90282">
        <ele>169</ele>
        <time>2016-03-14T16:31:51Z</time>
      </trkpt>
      <trkpt lat="48.3056" lon="-2.90282">
        <ele>169</ele>
        <time>2016-03-14T16:31:53Z</time>
      </trkpt>
      <trkpt lat="48.30559" lon="-2.90281">
        <ele>169</ele>
        <time>2016-03-14T16:31:55Z</time>
      </trkpt>
      <trkpt lat="48.30558" lon="-2.90281">
        <ele>169</ele>
        <time>2016-03-14T16:31:56Z</time>
      </trkpt>
      <trkpt lat="48.30556" lon="-2.90281">
        <ele>169</ele>
        <time>2016-03-14T16:31:57Z</time>
      </trkpt>
      <trkpt lat="48.30554" lon="-2.9028">
        <ele>169</ele>
        <time>2016-03-14T16:31:59Z</time>
      </trkpt>
      <trkpt lat="48.30552" lon="-2.90279">
        <ele>169</ele>
        <time>2016-03-14T16:32:01Z</time>
      </trkpt>
      <trkpt lat="48.3055" lon="-2.90278">
        <ele>169</ele>
        <time>2016-03-14T16:32:03Z</time>
      </trkpt>
      <trkpt lat="48.30548" lon="-2.90278">
        <ele>169</ele>
        <time>2016-03-14T16:32:05Z</time>
      </trkpt>
      <trkpt lat="48.30546" lon="-2.90277">
        <ele>169</ele>
        <time>2016-03-14T16:32:07Z</time>
      </trkpt>
      <trkpt lat="48.30545" lon="-2.90276">
        <ele>169</ele>
        <time>2016-03-14T16:32:09Z</time>
      </trkpt>
      <trkpt lat="48.30542" lon="-2.90275">
        <ele>169</ele>
        <time>2016-03-14T16:32:11Z</time>
      </trkpt>
      <trkpt lat="48.30541" lon="-2.90275">
        <ele>169</ele>
        <time>2016-03-14T16:32:12Z</time>
      </trkpt>
      <trkpt lat="48.3054" lon="-2.90275">
        <ele>169</ele>
        <time>2016-03-14T16:32:13Z</time>
      </trkpt>
      <trkpt lat="48.30538" lon="-2.90274">
        <ele>169</ele>
        <time>2016-03-14T16:32:15Z</time>
      </trkpt>
      <trkpt lat="48.30536" lon="-2.90273">
        <ele>169</ele>
        <time>2016-03-14T16:32:17Z</time>
      </trkpt>
      <trkpt lat="48.30535" lon="-2.90272">
        <ele>169</ele>
        <time>2016-03-14T16:32:19Z</time>
      </trkpt>
      <trkpt lat="48.30534" lon="-2.90271">
        <ele>169</ele>
        <time>2016-03-14T16:32:21Z</time>
      </trkpt>
      <trkpt lat="48.30533" lon="-2.90269">
        <ele>169</ele>
        <time>2016-03-14T16:32:23Z</time>
      </trkpt>
      <trkpt lat="48.30532" lon="-2.90267">
        <ele>169</ele>
        <time>2016-03-14T16:32:24Z</time>
      </trkpt>
      <trkpt lat="48.3053" lon="-2.90265">
        <ele>169</ele>
        <time>2016-03-14T16:32:26Z</time>
      </trkpt>
      <trkpt lat="48.30529" lon="-2.90263">
        <ele>169</ele>
        <time>2016-03-14T16:32:28Z</time>
      </trkpt>
      <trkpt lat="48.30527" lon="-2.90261">
        <ele>169</ele>
        <time>2016-03-14T16:32:30Z</time>
      </trkpt>
      <trkpt lat="48.30525" lon="-2.90259">
        <ele>169</ele>
        <time>2016-03-14T16:32:33Z</time>
      </trkpt>
      <trkpt lat="48.30523" lon="-2.90256">
        <ele>169</ele>
        <time>2016-03-14T16:32:35Z</time>
      </trkpt>
      <trkpt lat="48.30522" lon="-2.90255">
        <ele>169</ele>
        <time>2016-03-14T16:32:36Z</time>
      </trkpt>
      <trkpt lat="48.3052" lon="-2.90253">
        <ele>169</ele>
        <time>2016-03-14T16:32:38Z</time>
      </trkpt>
      <trkpt lat="48.30519" lon="-2.90252">
        <ele>169</ele>
        <time>2016-03-14T16:32:39Z</time>
      </trkpt>
      <trkpt lat="48.30518" lon="-2.9025">
        <ele>169</ele>
        <time>2016-03-14T16:32:40Z</time>
      </trkpt>
      <trkpt lat="48.30516" lon="-2.90249">
        <ele>169</ele>
        <time>2016-03-14T16:32:42Z</time>
      </trkpt>
      <trkpt lat="48.30514" lon="-2.90247">
        <ele>169</ele>
        <time>2016-03-14T16:32:44Z</time>
      </trkpt>
      <trkpt lat="48.30513" lon="-2.90246">
        <ele>169</ele>
        <time>2016-03-14T16:32:45Z</time>
      </trkpt>
      <trkpt lat="48.30512" lon="-2.90244">
        <ele>169</ele>
        <time>2016-03-14T16:32:47Z</time>
      </trkpt>
      <trkpt lat="48.3051" lon="-2.90243">
        <ele>169</ele>
        <time>2016-03-14T16:32:48Z</time>
      </trkpt>
      <trkpt lat="48.30509" lon="-2.90242">
        <ele>169</ele>
        <time>2016-03-14T16:32:50Z</time>
      </trkpt>
      <trkpt lat="48.30508" lon="-2.90241">
        <ele>169</ele>
        <time>2016-03-14T16:32:52Z</time>
      </trkpt>
      <trkpt lat="48.30506" lon="-2.9024">
        <ele>169</ele>
        <time>2016-03-14T16:32:54Z</time>
      </trkpt>
      <trkpt lat="48.30504" lon="-2.90239">
        <ele>169</ele>
        <time>2016-03-14T16:32:56Z</time>
      </trkpt>
      <trkpt lat="48.30502" lon="-2.90238">
        <ele>169</ele>
        <time>2016-03-14T16:32:58Z</time>
      </trkpt>
      <trkpt lat="48.305" lon="-2.90236">
        <ele>168</ele>
        <time>2016-03-14T16:33:00Z</time>
      </trkpt>
      <trkpt lat="48.30499" lon="-2.90235">
        <ele>168</ele>
        <time>2016-03-14T16:33:01Z</time>
      </trkpt>
      <trkpt lat="48.30498" lon="-2.90234">
        <ele>168</ele>
        <time>2016-03-14T16:33:02Z</time>
      </trkpt>
      <trkpt lat="48.30496" lon="-2.90232">
        <ele>168</ele>
        <time>2016-03-14T16:33:04Z</time>
      </trkpt>
      <trkpt lat="48.30495" lon="-2.90232">
        <ele>168</ele>
        <time>2016-03-14T16:33:05Z</time>
      </trkpt>
      <trkpt lat="48.30494" lon="-2.90231">
        <ele>168</ele>
        <time>2016-03-14T16:33:06Z</time>
      </trkpt>
      <trkpt lat="48.30492" lon="-2.9023">
        <ele>168</ele>
        <time>2016-03-14T16:33:08Z</time>
      </trkpt>
      <trkpt lat="48.3049" lon="-2.90228">
        <ele>168</ele>
        <time>2016-03-14T16:33:10Z</time>
      </trkpt>
      <trkpt lat="48.30489" lon="-2.90227">
        <ele>168</ele>
        <time>2016-03-14T16:33:12Z</time>
      </trkpt>
      <trkpt lat="48.30487" lon="-2.90225">
        <ele>168</ele>
        <time>2016-03-14T16:33:14Z</time>
      </trkpt>
      <trkpt lat="48.30485" lon="-2.90224">
        <ele>168</ele>
        <time>2016-03-14T16:33:16Z</time>
      </trkpt>
      <trkpt lat="48.30483" lon="-2.90222">
        <ele>168</ele>
        <time>2016-03-14T16:33:18Z</time>
      </trkpt>
      <trkpt lat="48.30481" lon="-2.90221">
        <ele>168</ele>
        <time>2016-03-14T16:33:20Z</time>
      </trkpt>
      <trkpt lat="48.3048" lon="-2.9022">
        <ele>168</ele>
        <time>2016-03-14T16:33:21Z</time>
      </trkpt>
      <trkpt lat="48.30479" lon="-2.90219">
        <ele>168</ele>
        <time>2016-03-14T16:33:23Z</time>
      </trkpt>
      <trkpt lat="48.30477" lon="-2.90218">
        <ele>168</ele>
        <time>2016-03-14T16:33:25Z</time>
      </trkpt>
      <trkpt lat="48.30476" lon="-2.90216">
        <ele>168</ele>
        <time>2016-03-14T16:33:27Z</time>
      </trkpt>
      <trkpt lat="48.30474" lon="-2.90215">
        <ele>168</ele>
        <time>2016-03-14T16:33:29Z</time>
      </trkpt>
      <trkpt lat="48.30472" lon="-2.90213">
        <ele>168</ele>
        <time>2016-03-14T16:33:31Z</time>
      </trkpt>
      <trkpt lat="48.3047" lon="-2.90212">
        <ele>168</ele>
        <time>2016-03-14T16:33:33Z</time>
      </trkpt>
      <trkpt lat="48.30468" lon="-2.90211">
        <ele>168</ele>
        <time>2016-03-14T16:33:35Z</time>
      </trkpt>
      <trkpt lat="48.30466" lon="-2.9021">
        <ele>168</ele>
        <time>2016-03-14T16:33:37Z</time>
      </trkpt>
      <trkpt lat="48.30465" lon="-2.90209">
        <ele>168</ele>
        <time>2016-03-14T16:33:39Z</time>
      </trkpt>
      <trkpt lat="48.30463" lon="-2.90209">
        <ele>168</ele>
        <time>2016-03-14T16:33:41Z</time>
      </trkpt>
      <trkpt lat="48.30462" lon="-2.90208">
        <ele>168</ele>
        <time>2016-03-14T16:33:43Z</time>
      </trkpt>
      <trkpt lat="48.3046" lon="-2.9021">
        <ele>168</ele>
        <time>2016-03-14T16:33:45Z</time>
      </trkpt>
      <trkpt lat="48.30459" lon="-2.9021">
        <ele>168</ele>
        <time>2016-03-14T16:33:46Z</time>
      </trkpt>
      <trkpt lat="48.30457" lon="-2.90212">
        <ele>168</ele>
        <time>2016-03-14T16:33:48Z</time>
      </trkpt>
      <trkpt lat="48.30456" lon="-2.90211">
        <ele>168</ele>
        <time>2016-03-14T16:33:50Z</time>
      </trkpt>
      <trkpt lat="48.30455" lon="-2.90209">
        <ele>168</ele>
        <time>2016-03-14T16:33:52Z</time>
      </trkpt>
      <trkpt lat="48.30454" lon="-2.90207">
        <ele>168</ele>
        <time>2016-03-14T16:33:54Z</time>
      </trkpt>
      <trkpt lat="48.30452" lon="-2.90206">
        <ele>168</ele>
        <time>2016-03-14T16:33:56Z</time>
      </trkpt>
      <trkpt lat="48.3045" lon="-2.90205">
        <ele>168</ele>
        <time>2016-03-14T16:33:58Z</time>
      </trkpt>
      <trkpt lat="48.30449" lon="-2.90204">
        <ele>168</ele>
        <time>2016-03-14T16:33:59Z</time>
      </trkpt>
      <trkpt lat="48.30447" lon="-2.90202">
        <ele>168</ele>
        <time>2016-03-14T16:34:01Z</time>
      </trkpt>
      <trkpt lat="48.30446" lon="-2.90202">
        <ele>168</ele>
        <time>2016-03-14T16:34:02Z</time>
      </trkpt>
      <trkpt lat="48.30444" lon="-2.902">
        <ele>168</ele>
        <time>2016-03-14T16:34:04Z</time>
      </trkpt>
      <trkpt lat="48.30443" lon="-2.90199">
        <ele>168</ele>
        <time>2016-03-14T16:34:05Z</time>
      </trkpt>
      <trkpt lat="48.30441" lon="-2.90198">
        <ele>168</ele>
        <time>2016-03-14T16:34:07Z</time>
      </trkpt>
      <trkpt lat="48.30439" lon="-2.90196">
        <ele>168</ele>
        <time>2016-03-14T16:34:09Z</time>
      </trkpt>
      <trkpt lat="48.30437" lon="-2.90196">
        <ele>168</ele>
        <time>2016-03-14T16:34:10Z</time>
      </trkpt>
      <trkpt lat="48.30436" lon="-2.90195">
        <ele>168</ele>
        <time>2016-03-14T16:34:12Z</time>
      </trkpt>
      <trkpt lat="48.30434" lon="-2.90193">
        <ele>168</ele>
        <time>2016-03-14T16:34:14Z</time>
      </trkpt>
      <trkpt lat="48.30433" lon="-2.90192">
        <ele>168</ele>
        <time>2016-03-14T16:34:15Z</time>
      </trkpt>
      <trkpt lat="48.30432" lon="-2.90192">
        <ele>168</ele>
        <time>2016-03-14T16:34:16Z</time>
      </trkpt>
      <trkpt lat="48.30431" lon="-2.90191">
        <ele>168</ele>
        <time>2016-03-14T16:34:17Z</time>
      </trkpt>
      <trkpt lat="48.30429" lon="-2.90189">
        <ele>168</ele>
        <time>2016-03-14T16:34:19Z</time>
      </trkpt>
      <trkpt lat="48.30428" lon="-2.90188">
        <ele>168</ele>
        <time>2016-03-14T16:34:20Z</time>
      </trkpt>
      <trkpt lat="48.30426" lon="-2.90187">
        <ele>168</ele>
        <time>2016-03-14T16:34:21Z</time>
      </trkpt>
      <trkpt lat="48.30425" lon="-2.90186">
        <ele>168</ele>
        <time>2016-03-14T16:34:22Z</time>
      </trkpt>
      <trkpt lat="48.30423" lon="-2.90186">
        <ele>168</ele>
        <time>2016-03-14T16:34:24Z</time>
      </trkpt>
      <trkpt lat="48.30422" lon="-2.90187">
        <ele>168</ele>
        <time>2016-03-14T16:34:25Z</time>
      </trkpt>
      <trkpt lat="48.3042" lon="-2.90186">
        <ele>168</ele>
        <time>2016-03-14T16:34:26Z</time>
      </trkpt>
      <trkpt lat="48.30419" lon="-2.90185">
        <ele>168</ele>
        <time>2016-03-14T16:34:27Z</time>
      </trkpt>
      <trkpt lat="48.30418" lon="-2.90184">
        <ele>168</ele>
        <time>2016-03-14T16:34:28Z</time>
      </trkpt>
      <trkpt lat="48.30416" lon="-2.90183">
        <ele>168</ele>
        <time>2016-03-14T16:34:30Z</time>
      </trkpt>
      <trkpt lat="48.30415" lon="-2.90182">
        <ele>168</ele>
        <time>2016-03-14T16:34:31Z</time>
      </trkpt>
      <trkpt lat="48.30414" lon="-2.90182">
        <ele>168</ele>
        <time>2016-03-14T16:34:32Z</time>
      </trkpt>
      <trkpt lat="48.30413" lon="-2.90181">
        <ele>168</ele>
        <time>2016-03-14T16:34:33Z</time>
      </trkpt>
      <trkpt lat="48.30411" lon="-2.9018">
        <ele>168</ele>
        <time>2016-03-14T16:34:35Z</time>
      </trkpt>
      <trkpt lat="48.3041" lon="-2.90177">
        <ele>168</ele>
        <time>2016-03-14T16:34:37Z</time>
      </trkpt>
      <trkpt lat="48.30408" lon="-2.90176">
        <ele>168</ele>
        <time>2016-03-14T16:34:39Z</time>
      </trkpt>
      <trkpt lat="48.30407" lon="-2.90174">
        <ele>168</ele>
        <time>2016-03-14T16:34:41Z</time>
      </trkpt>
      <trkpt lat="48.30405" lon="-2.90172">
        <ele>168</ele>
        <time>2016-03-14T16:34:43Z</time>
      </trkpt>
      <trkpt lat="48.30404" lon="-2.9017">
        <ele>168</ele>
        <time>2016-03-14T16:34:44Z</time>
      </trkpt>
      <trkpt lat="48.30402" lon="-2.90169">
        <ele>168</ele>
        <time>2016-03-14T16:34:45Z</time>
      </trkpt>
      <trkpt lat="48.30401" lon="-2.90168">
        <ele>168</ele>
        <time>2016-03-14T16:34:46Z</time>
      </trkpt>
      <trkpt lat="48.30399" lon="-2.90166">
        <ele>168</ele>
        <time>2016-03-14T16:34:48Z</time>
      </trkpt>
      <trkpt lat="48.30398" lon="-2.90165">
        <ele>168</ele>
        <time>2016-03-14T16:34:49Z</time>
      </trkpt>
      <trkpt lat="48.30397" lon="-2.90164">
        <ele>168</ele>
        <time>2016-03-14T16:34:51Z</time>
      </trkpt>
      <trkpt lat="48.30396" lon="-2.90162">
        <ele>168</ele>
        <time>2016-03-14T16:34:54Z</time>
      </trkpt>
      <trkpt lat="48.30395" lon="-2.9016">
        <ele>168</ele>
        <time>2016-03-14T16:34:56Z</time>
      </trkpt>
      <trkpt lat="48.30393" lon="-2.9016">
        <ele>168</ele>
        <time>2016-03-14T16:34:57Z</time>
      </trkpt>
      <trkpt lat="48.30392" lon="-2.9016">
        <ele>168</ele>
        <time>2016-03-14T16:34:58Z</time>
      </trkpt>
      <trkpt lat="48.30391" lon="-2.90157">
        <ele>168</ele>
        <time>2016-03-14T16:35:01Z</time>
      </trkpt>
      <trkpt lat="48.30388" lon="-2.90155">
        <ele>168</ele>
        <time>2016-03-14T16:35:03Z</time>
      </trkpt>
      <trkpt lat="48.30387" lon="-2.90154">
        <ele>168</ele>
        <time>2016-03-14T16:35:05Z</time>
      </trkpt>
      <trkpt lat="48.30385" lon="-2.90154">
        <ele>168</ele>
        <time>2016-03-14T16:35:07Z</time>
      </trkpt>
      <trkpt lat="48.30384" lon="-2.90153">
        <ele>168</ele>
        <time>2016-03-14T16:35:08Z</time>
      </trkpt>
      <trkpt lat="48.30383" lon="-2.90153">
        <ele>168</ele>
        <time>2016-03-14T16:35:10Z</time>
      </trkpt>
      <trkpt lat="48.3038" lon="-2.9015">
        <ele>168</ele>
        <time>2016-03-14T16:35:12Z</time>
      </trkpt>
      <trkpt lat="48.3038" lon="-2.90148">
        <ele>168</ele>
        <time>2016-03-14T16:35:13Z</time>
      </trkpt>
      <trkpt lat="48.30379" lon="-2.90146">
        <ele>168</ele>
        <time>2016-03-14T16:35:14Z</time>
      </trkpt>
      <trkpt lat="48.30378" lon="-2.90143">
        <ele>168</ele>
        <time>2016-03-14T16:35:16Z</time>
      </trkpt>
      <trkpt lat="48.30377" lon="-2.90142">
        <ele>168</ele>
        <time>2016-03-14T16:35:17Z</time>
      </trkpt>
      <trkpt lat="48.30376" lon="-2.90141">
        <ele>168</ele>
        <time>2016-03-14T16:35:18Z</time>
      </trkpt>
      <trkpt lat="48.30374" lon="-2.9014">
        <ele>168</ele>
        <time>2016-03-14T16:35:19Z</time>
      </trkpt>
      <trkpt lat="48.30373" lon="-2.90139">
        <ele>168</ele>
        <time>2016-03-14T16:35:20Z</time>
      </trkpt>
      <trkpt lat="48.30372" lon="-2.90137">
        <ele>168</ele>
        <time>2016-03-14T16:35:22Z</time>
      </trkpt>
      <trkpt lat="48.3037" lon="-2.90135">
        <ele>168</ele>
        <time>2016-03-14T16:35:24Z</time>
      </trkpt>
      <trkpt lat="48.30369" lon="-2.90134">
        <ele>168</ele>
        <time>2016-03-14T16:35:26Z</time>
      </trkpt>
      <trkpt lat="48.30368" lon="-2.90131">
        <ele>168</ele>
        <time>2016-03-14T16:35:28Z</time>
      </trkpt>
      <trkpt lat="48.30367" lon="-2.90128">
        <ele>167</ele>
        <time>2016-03-14T16:35:30Z</time>
      </trkpt>
      <trkpt lat="48.30365" lon="-2.90125">
        <ele>167</ele>
        <time>2016-03-14T16:35:32Z</time>
      </trkpt>
      <trkpt lat="48.30362" lon="-2.90124">
        <ele>167</ele>
        <time>2016-03-14T16:35:34Z</time>
      </trkpt>
      <trkpt lat="48.3036" lon="-2.90123">
        <ele>167</ele>
        <time>2016-03-14T16:35:35Z</time>
      </trkpt>
      <trkpt lat="48.30357" lon="-2.90122">
        <ele>167</ele>
        <time>2016-03-14T16:35:37Z</time>
      </trkpt>
      <trkpt lat="48.30355" lon="-2.90121">
        <ele>167</ele>
        <time>2016-03-14T16:35:39Z</time>
      </trkpt>
      <trkpt lat="48.30353" lon="-2.90121">
        <ele>167</ele>
        <time>2016-03-14T16:35:40Z</time>
      </trkpt>
      <trkpt lat="48.30352" lon="-2.9012">
        <ele>167</ele>
        <time>2016-03-14T16:35:41Z</time>
      </trkpt>
      <trkpt lat="48.3035" lon="-2.9012">
        <ele>168</ele>
        <time>2016-03-14T16:35:42Z</time>
      </trkpt>
      <trkpt lat="48.30348" lon="-2.90121">
        <ele>168</ele>
        <time>2016-03-14T16:35:44Z</time>
      </trkpt>
      <trkpt lat="48.30346" lon="-2.90123">
        <ele>169</ele>
        <time>2016-03-14T16:35:46Z</time>
      </trkpt>
      <trkpt lat="48.30345" lon="-2.90125">
        <ele>169</ele>
        <time>2016-03-14T16:35:48Z</time>
      </trkpt>
      <trkpt lat="48.30343" lon="-2.90126">
        <ele>169</ele>
        <time>2016-03-14T16:35:50Z</time>
      </trkpt>
      <trkpt lat="48.30342" lon="-2.90126">
        <ele>169</ele>
        <time>2016-03-14T16:35:52Z</time>
      </trkpt>
      <trkpt lat="48.3034" lon="-2.90127">
        <ele>169</ele>
        <time>2016-03-14T16:35:54Z</time>
      </trkpt>
      <trkpt lat="48.30338" lon="-2.90128">
        <ele>169</ele>
        <time>2016-03-14T16:35:56Z</time>
      </trkpt>
      <trkpt lat="48.30336" lon="-2.90129">
        <ele>169</ele>
        <time>2016-03-14T16:35:58Z</time>
      </trkpt>
      <trkpt lat="48.30334" lon="-2.90129">
        <ele>169</ele>
        <time>2016-03-14T16:36:00Z</time>
      </trkpt>
      <trkpt lat="48.30333" lon="-2.9013">
        <ele>169</ele>
        <time>2016-03-14T16:36:02Z</time>
      </trkpt>
      <trkpt lat="48.30332" lon="-2.9013">
        <ele>169</ele>
        <time>2016-03-14T16:36:03Z</time>
      </trkpt>
      <trkpt lat="48.30331" lon="-2.90131">
        <ele>169</ele>
        <time>2016-03-14T16:36:04Z</time>
      </trkpt>
      <trkpt lat="48.30329" lon="-2.90131">
        <ele>169</ele>
        <time>2016-03-14T16:36:06Z</time>
      </trkpt>
      <trkpt lat="48.30327" lon="-2.90132">
        <ele>169</ele>
        <time>2016-03-14T16:36:08Z</time>
      </trkpt>
      <trkpt lat="48.30325" lon="-2.90133">
        <ele>169</ele>
        <time>2016-03-14T16:36:10Z</time>
      </trkpt>
      <trkpt lat="48.30324" lon="-2.90133">
        <ele>168</ele>
        <time>2016-03-14T16:36:11Z</time>
      </trkpt>
      <trkpt lat="48.30323" lon="-2.90133">
        <ele>168</ele>
        <time>2016-03-14T16:36:12Z</time>
      </trkpt>
      <trkpt lat="48.30321" lon="-2.90134">
        <ele>168</ele>
        <time>2016-03-14T16:36:13Z</time>
      </trkpt>
      <trkpt lat="48.3032" lon="-2.90134">
        <ele>168</ele>
        <time>2016-03-14T16:36:14Z</time>
      </trkpt>
      <trkpt lat="48.30319" lon="-2.90134">
        <ele>167</ele>
        <time>2016-03-14T16:36:15Z</time>
      </trkpt>
      <trkpt lat="48.30317" lon="-2.90135">
        <ele>166</ele>
        <time>2016-03-14T16:36:17Z</time>
      </trkpt>
      <trkpt lat="48.30315" lon="-2.90135">
        <ele>166</ele>
        <time>2016-03-14T16:36:18Z</time>
      </trkpt>
      <trkpt lat="48.30314" lon="-2.90135">
        <ele>166</ele>
        <time>2016-03-14T16:36:19Z</time>
      </trkpt>
      <trkpt lat="48.30312" lon="-2.90135">
        <ele>165</ele>
        <time>2016-03-14T16:36:21Z</time>
      </trkpt>
      <trkpt lat="48.30311" lon="-2.90135">
        <ele>165</ele>
        <time>2016-03-14T16:36:22Z</time>
      </trkpt>
      <trkpt lat="48.3031" lon="-2.90134">
        <ele>164</ele>
        <time>2016-03-14T16:36:23Z</time>
      </trkpt>
      <trkpt lat="48.30306" lon="-2.90135">
        <ele>164</ele>
        <time>2016-03-14T16:36:25Z</time>
      </trkpt>
      <trkpt lat="48.30304" lon="-2.90136">
        <ele>164</ele>
        <time>2016-03-14T16:36:26Z</time>
      </trkpt>
      <trkpt lat="48.30303" lon="-2.90137">
        <ele>164</ele>
        <time>2016-03-14T16:36:27Z</time>
      </trkpt>
      <trkpt lat="48.30302" lon="-2.90138">
        <ele>164</ele>
        <time>2016-03-14T16:36:28Z</time>
      </trkpt>
      <trkpt lat="48.303" lon="-2.90139">
        <ele>164</ele>
        <time>2016-03-14T16:36:29Z</time>
      </trkpt>
      <trkpt lat="48.30299" lon="-2.9014">
        <ele>164</ele>
        <time>2016-03-14T16:36:30Z</time>
      </trkpt>
      <trkpt lat="48.30297" lon="-2.90141">
        <ele>164</ele>
        <time>2016-03-14T16:36:31Z</time>
      </trkpt>
      <trkpt lat="48.30296" lon="-2.90141">
        <ele>164</ele>
        <time>2016-03-14T16:36:32Z</time>
      </trkpt>
      <trkpt lat="48.30295" lon="-2.90142">
        <ele>164</ele>
        <time>2016-03-14T16:36:33Z</time>
      </trkpt>
      <trkpt lat="48.30293" lon="-2.90144">
        <ele>164</ele>
        <time>2016-03-14T16:36:35Z</time>
      </trkpt>
      <trkpt lat="48.30291" lon="-2.90146">
        <ele>164</ele>
        <time>2016-03-14T16:36:37Z</time>
      </trkpt>
      <trkpt lat="48.3029" lon="-2.90149">
        <ele>164</ele>
        <time>2016-03-14T16:36:39Z</time>
      </trkpt>
      <trkpt lat="48.30289" lon="-2.90151">
        <ele>164</ele>
        <time>2016-03-14T16:36:40Z</time>
      </trkpt>
      <trkpt lat="48.30288" lon="-2.90154">
        <ele>164</ele>
        <time>2016-03-14T16:36:42Z</time>
      </trkpt>
      <trkpt lat="48.30288" lon="-2.90157">
        <ele>164</ele>
        <time>2016-03-14T16:36:44Z</time>
      </trkpt>
      <trkpt lat="48.30288" lon="-2.90159">
        <ele>164</ele>
        <time>2016-03-14T16:36:45Z</time>
      </trkpt>
      <trkpt lat="48.30288" lon="-2.9016">
        <ele>164</ele>
        <time>2016-03-14T16:36:46Z</time>
      </trkpt>
      <trkpt lat="48.30288" lon="-2.90163">
        <ele>164</ele>
        <time>2016-03-14T16:36:48Z</time>
      </trkpt>
      <trkpt lat="48.30288" lon="-2.90166">
        <ele>164</ele>
        <time>2016-03-14T16:36:50Z</time>
      </trkpt>
      <trkpt lat="48.30288" lon="-2.90169">
        <ele>164</ele>
        <time>2016-03-14T16:36:52Z</time>
      </trkpt>
      <trkpt lat="48.30289" lon="-2.90171">
        <ele>164</ele>
        <time>2016-03-14T16:36:53Z</time>
      </trkpt>
      <trkpt lat="48.30288" lon="-2.90174">
        <ele>164</ele>
        <time>2016-03-14T16:36:55Z</time>
      </trkpt>
      <trkpt lat="48.30288" lon="-2.90176">
        <ele>164</ele>
        <time>2016-03-14T16:36:56Z</time>
      </trkpt>
      <trkpt lat="48.30288" lon="-2.90177">
        <ele>164</ele>
        <time>2016-03-14T16:36:57Z</time>
      </trkpt>
      <trkpt lat="48.30288" lon="-2.90179">
        <ele>164</ele>
        <time>2016-03-14T16:36:58Z</time>
      </trkpt>
      <trkpt lat="48.30287" lon="-2.90182">
        <ele>164</ele>
        <time>2016-03-14T16:36:59Z</time>
      </trkpt>
      <trkpt lat="48.30286" lon="-2.90185">
        <ele>164</ele>
        <time>2016-03-14T16:37:00Z</time>
      </trkpt>
      <trkpt lat="48.30285" lon="-2.90187">
        <ele>164</ele>
        <time>2016-03-14T16:37:01Z</time>
      </trkpt>
      <trkpt lat="48.30284" lon="-2.9019">
        <ele>164</ele>
        <time>2016-03-14T16:37:02Z</time>
      </trkpt>
      <trkpt lat="48.30283" lon="-2.90192">
        <ele>164</ele>
        <time>2016-03-14T16:37:03Z</time>
      </trkpt>
      <trkpt lat="48.30283" lon="-2.90194">
        <ele>164</ele>
        <time>2016-03-14T16:37:04Z</time>
      </trkpt>
      <trkpt lat="48.30283" lon="-2.90196">
        <ele>164</ele>
        <time>2016-03-14T16:37:05Z</time>
      </trkpt>
      <trkpt lat="48.30283" lon="-2.90198">
        <ele>164</ele>
        <time>2016-03-14T16:37:06Z</time>
      </trkpt>
      <trkpt lat="48.30284" lon="-2.90201">
        <ele>164</ele>
        <time>2016-03-14T16:37:07Z</time>
      </trkpt>
      <trkpt lat="48.30285" lon="-2.90202">
        <ele>164</ele>
        <time>2016-03-14T16:37:08Z</time>
      </trkpt>
      <trkpt lat="48.30285" lon="-2.90205">
        <ele>164</ele>
        <time>2016-03-14T16:37:09Z</time>
      </trkpt>
      <trkpt lat="48.30285" lon="-2.90206">
        <ele>164</ele>
        <time>2016-03-14T16:37:10Z</time>
      </trkpt>
      <trkpt lat="48.30285" lon="-2.90209">
        <ele>164</ele>
        <time>2016-03-14T16:37:11Z</time>
      </trkpt>
      <trkpt lat="48.30285" lon="-2.9021">
        <ele>164</ele>
        <time>2016-03-14T16:37:12Z</time>
      </trkpt>
      <trkpt lat="48.30285" lon="-2.90212">
        <ele>164</ele>
        <time>2016-03-14T16:37:13Z</time>
      </trkpt>
      <trkpt lat="48.30286" lon="-2.90214">
        <ele>164</ele>
        <time>2016-03-14T16:37:14Z</time>
      </trkpt>
      <trkpt lat="48.30286" lon="-2.90217">
        <ele>164</ele>
        <time>2016-03-14T16:37:16Z</time>
      </trkpt>
      <trkpt lat="48.30287" lon="-2.90219">
        <ele>164</ele>
        <time>2016-03-14T16:37:18Z</time>
      </trkpt>
      <trkpt lat="48.30287" lon="-2.90222">
        <ele>164</ele>
        <time>2016-03-14T16:37:20Z</time>
      </trkpt>
      <trkpt lat="48.30286" lon="-2.90225">
        <ele>164</ele>
        <time>2016-03-14T16:37:22Z</time>
      </trkpt>
      <trkpt lat="48.30286" lon="-2.90227">
        <ele>164</ele>
        <time>2016-03-14T16:37:23Z</time>
      </trkpt>
      <trkpt lat="48.30286" lon="-2.90229">
        <ele>164</ele>
        <time>2016-03-14T16:37:24Z</time>
      </trkpt>
      <trkpt lat="48.30286" lon="-2.90231">
        <ele>164</ele>
        <time>2016-03-14T16:37:26Z</time>
      </trkpt>
      <trkpt lat="48.30286" lon="-2.90233">
        <ele>164</ele>
        <time>2016-03-14T16:37:28Z</time>
      </trkpt>
      <trkpt lat="48.30285" lon="-2.90236">
        <ele>164</ele>
        <time>2016-03-14T16:37:31Z</time>
      </trkpt>
      <trkpt lat="48.30285" lon="-2.9024">
        <ele>164</ele>
        <time>2016-03-14T16:37:33Z</time>
      </trkpt>
      <trkpt lat="48.30286" lon="-2.90241">
        <ele>164</ele>
        <time>2016-03-14T16:37:34Z</time>
      </trkpt>
      <trkpt lat="48.30286" lon="-2.90244">
        <ele>164</ele>
        <time>2016-03-14T16:37:35Z</time>
      </trkpt>
      <trkpt lat="48.30285" lon="-2.90247">
        <ele>164</ele>
        <time>2016-03-14T16:37:36Z</time>
      </trkpt>
      <trkpt lat="48.30285" lon="-2.90249">
        <ele>164</ele>
        <time>2016-03-14T16:37:37Z</time>
      </trkpt>
      <trkpt lat="48.30284" lon="-2.90251">
        <ele>164</ele>
        <time>2016-03-14T16:37:38Z</time>
      </trkpt>
      <trkpt lat="48.30283" lon="-2.90254">
        <ele>164</ele>
        <time>2016-03-14T16:37:39Z</time>
      </trkpt>
      <trkpt lat="48.30282" lon="-2.90256">
        <ele>164</ele>
        <time>2016-03-14T16:37:41Z</time>
      </trkpt>
      <trkpt lat="48.30282" lon="-2.90259">
        <ele>164</ele>
        <time>2016-03-14T16:37:43Z</time>
      </trkpt>
      <trkpt lat="48.30281" lon="-2.90262">
        <ele>164</ele>
        <time>2016-03-14T16:37:45Z</time>
      </trkpt>
      <trkpt lat="48.3028" lon="-2.90264">
        <ele>164</ele>
        <time>2016-03-14T16:37:47Z</time>
      </trkpt>
      <trkpt lat="48.30279" lon="-2.90266">
        <ele>164</ele>
        <time>2016-03-14T16:37:49Z</time>
      </trkpt>
      <trkpt lat="48.30277" lon="-2.90268">
        <ele>165</ele>
        <time>2016-03-14T16:37:51Z</time>
      </trkpt>
      <trkpt lat="48.30276" lon="-2.9027">
        <ele>165</ele>
        <time>2016-03-14T16:37:53Z</time>
      </trkpt>
      <trkpt lat="48.30274" lon="-2.90272">
        <ele>165</ele>
        <time>2016-03-14T16:37:55Z</time>
      </trkpt>
      <trkpt lat="48.30272" lon="-2.90274">
        <ele>165</ele>
        <time>2016-03-14T16:37:58Z</time>
      </trkpt>
      <trkpt lat="48.30271" lon="-2.90275">
        <ele>165</ele>
        <time>2016-03-14T16:38:00Z</time>
      </trkpt>
      <trkpt lat="48.3027" lon="-2.90277">
        <ele>165</ele>
        <time>2016-03-14T16:38:03Z</time>
      </trkpt>
      <trkpt lat="48.30268" lon="-2.90278">
        <ele>165</ele>
        <time>2016-03-14T16:38:05Z</time>
      </trkpt>
      <trkpt lat="48.30267" lon="-2.90279">
        <ele>165</ele>
        <time>2016-03-14T16:38:07Z</time>
      </trkpt>
      <trkpt lat="48.30265" lon="-2.9028">
        <ele>165</ele>
        <time>2016-03-14T16:38:08Z</time>
      </trkpt>
      <trkpt lat="48.30264" lon="-2.90281">
        <ele>165</ele>
        <time>2016-03-14T16:38:09Z</time>
      </trkpt>
      <trkpt lat="48.30263" lon="-2.90281">
        <ele>165</ele>
        <time>2016-03-14T16:38:10Z</time>
      </trkpt>
      <trkpt lat="48.30261" lon="-2.90283">
        <ele>165</ele>
        <time>2016-03-14T16:38:12Z</time>
      </trkpt>
      <trkpt lat="48.3026" lon="-2.90285">
        <ele>165</ele>
        <time>2016-03-14T16:38:13Z</time>
      </trkpt>
      <trkpt lat="48.30258" lon="-2.90286">
        <ele>165</ele>
        <time>2016-03-14T16:38:14Z</time>
      </trkpt>
      <trkpt lat="48.30256" lon="-2.90288">
        <ele>165</ele>
        <time>2016-03-14T16:38:16Z</time>
      </trkpt>
      <trkpt lat="48.30255" lon="-2.9029">
        <ele>165</ele>
        <time>2016-03-14T16:38:17Z</time>
      </trkpt>
      <trkpt lat="48.30253" lon="-2.90292">
        <ele>165</ele>
        <time>2016-03-14T16:38:19Z</time>
      </trkpt>
      <trkpt lat="48.30251" lon="-2.90293">
        <ele>165</ele>
        <time>2016-03-14T16:38:21Z</time>
      </trkpt>
      <trkpt lat="48.30249" lon="-2.90295">
        <ele>166</ele>
        <time>2016-03-14T16:38:23Z</time>
      </trkpt>
      <trkpt lat="48.30248" lon="-2.90295">
        <ele>166</ele>
        <time>2016-03-14T16:38:24Z</time>
      </trkpt>
      <trkpt lat="48.30246" lon="-2.90296">
        <ele>167</ele>
        <time>2016-03-14T16:38:26Z</time>
      </trkpt>
      <trkpt lat="48.30244" lon="-2.90296">
        <ele>168</ele>
        <time>2016-03-14T16:38:28Z</time>
      </trkpt>
      <trkpt lat="48.30243" lon="-2.90297">
        <ele>169</ele>
        <time>2016-03-14T16:38:30Z</time>
      </trkpt>
      <trkpt lat="48.30241" lon="-2.90297">
        <ele>169</ele>
        <time>2016-03-14T16:38:32Z</time>
      </trkpt>
      <trkpt lat="48.3024" lon="-2.90297">
        <ele>170</ele>
        <time>2016-03-14T16:38:33Z</time>
      </trkpt>
      <trkpt lat="48.30239" lon="-2.90298">
        <ele>170</ele>
        <time>2016-03-14T16:38:34Z</time>
      </trkpt>
      <trkpt lat="48.30236" lon="-2.90298">
        <ele>171</ele>
        <time>2016-03-14T16:38:36Z</time>
      </trkpt>
      <trkpt lat="48.30235" lon="-2.90298">
        <ele>172</ele>
        <time>2016-03-14T16:38:38Z</time>
      </trkpt>
      <trkpt lat="48.30234" lon="-2.90298">
        <ele>172</ele>
        <time>2016-03-14T16:38:40Z</time>
      </trkpt>
      <trkpt lat="48.30232" lon="-2.90298">
        <ele>172</ele>
        <time>2016-03-14T16:38:42Z</time>
      </trkpt>
      <trkpt lat="48.3023" lon="-2.90298">
        <ele>172</ele>
        <time>2016-03-14T16:38:44Z</time>
      </trkpt>
      <trkpt lat="48.30229" lon="-2.90298">
        <ele>172</ele>
        <time>2016-03-14T16:38:45Z</time>
      </trkpt>
      <trkpt lat="48.30227" lon="-2.90298">
        <ele>172</ele>
        <time>2016-03-14T16:38:47Z</time>
      </trkpt>
      <trkpt lat="48.30225" lon="-2.90298">
        <ele>172</ele>
        <time>2016-03-14T16:38:49Z</time>
      </trkpt>
      <trkpt lat="48.30224" lon="-2.90298">
        <ele>173</ele>
        <time>2016-03-14T16:38:50Z</time>
      </trkpt>
      <trkpt lat="48.30223" lon="-2.90298">
        <ele>173</ele>
        <time>2016-03-14T16:38:51Z</time>
      </trkpt>
      <trkpt lat="48.30221" lon="-2.90298">
        <ele>173</ele>
        <time>2016-03-14T16:38:53Z</time>
      </trkpt>
      <trkpt lat="48.30219" lon="-2.90298">
        <ele>173</ele>
        <time>2016-03-14T16:38:54Z</time>
      </trkpt>
      <trkpt lat="48.30218" lon="-2.90299">
        <ele>173</ele>
        <time>2016-03-14T16:38:55Z</time>
      </trkpt>
      <trkpt lat="48.30216" lon="-2.90299">
        <ele>173</ele>
        <time>2016-03-14T16:38:56Z</time>
      </trkpt>
      <trkpt lat="48.30215" lon="-2.90299">
        <ele>173</ele>
        <time>2016-03-14T16:38:57Z</time>
      </trkpt>
      <trkpt lat="48.30213" lon="-2.90299">
        <ele>173</ele>
        <time>2016-03-14T16:38:59Z</time>
      </trkpt>
      <trkpt lat="48.3021" lon="-2.903">
        <ele>173</ele>
        <time>2016-03-14T16:39:01Z</time>
      </trkpt>
      <trkpt lat="48.30209" lon="-2.903">
        <ele>173</ele>
        <time>2016-03-14T16:39:02Z</time>
      </trkpt>
      <trkpt lat="48.30207" lon="-2.903">
        <ele>171</ele>
        <time>2016-03-14T16:39:04Z</time>
      </trkpt>
      <trkpt lat="48.30206" lon="-2.903">
        <ele>171</ele>
        <time>2016-03-14T16:39:05Z</time>
      </trkpt>
      <trkpt lat="48.30204" lon="-2.903">
        <ele>170</ele>
        <time>2016-03-14T16:39:06Z</time>
      </trkpt>
      <trkpt lat="48.30203" lon="-2.903">
        <ele>170</ele>
        <time>2016-03-14T16:39:07Z</time>
      </trkpt>
      <trkpt lat="48.30202" lon="-2.90299">
        <ele>170</ele>
        <time>2016-03-14T16:39:08Z</time>
      </trkpt>
      <trkpt lat="48.302" lon="-2.903">
        <ele>170</ele>
        <time>2016-03-14T16:39:09Z</time>
      </trkpt>
      <trkpt lat="48.30199" lon="-2.903">
        <ele>170</ele>
        <time>2016-03-14T16:39:10Z</time>
      </trkpt>
      <trkpt lat="48.30197" lon="-2.903">
        <ele>170</ele>
        <time>2016-03-14T16:39:12Z</time>
      </trkpt>
      <trkpt lat="48.30196" lon="-2.903">
        <ele>170</ele>
        <time>2016-03-14T16:39:13Z</time>
      </trkpt>
      <trkpt lat="48.30194" lon="-2.903">
        <ele>170</ele>
        <time>2016-03-14T16:39:14Z</time>
      </trkpt>
      <trkpt lat="48.30193" lon="-2.903">
        <ele>170</ele>
        <time>2016-03-14T16:39:15Z</time>
      </trkpt>
      <trkpt lat="48.30191" lon="-2.90301">
        <ele>170</ele>
        <time>2016-03-14T16:39:16Z</time>
      </trkpt>
      <trkpt lat="48.3019" lon="-2.903">
        <ele>170</ele>
        <time>2016-03-14T16:39:17Z</time>
      </trkpt>
      <trkpt lat="48.30189" lon="-2.903">
        <ele>170</ele>
        <time>2016-03-14T16:39:18Z</time>
      </trkpt>
      <trkpt lat="48.30186" lon="-2.903">
        <ele>170</ele>
        <time>2016-03-14T16:39:20Z</time>
      </trkpt>
      <trkpt lat="48.30185" lon="-2.90299">
        <ele>170</ele>
        <time>2016-03-14T16:39:21Z</time>
      </trkpt>
      <trkpt lat="48.30184" lon="-2.90299">
        <ele>170</ele>
        <time>2016-03-14T16:39:22Z</time>
      </trkpt>
      <trkpt lat="48.30182" lon="-2.90299">
        <ele>170</ele>
        <time>2016-03-14T16:39:24Z</time>
      </trkpt>
      <trkpt lat="48.3018" lon="-2.90298">
        <ele>170</ele>
        <time>2016-03-14T16:39:25Z</time>
      </trkpt>
      <trkpt lat="48.30179" lon="-2.90297">
        <ele>170</ele>
        <time>2016-03-14T16:39:27Z</time>
      </trkpt>
      <trkpt lat="48.30177" lon="-2.90296">
        <ele>170</ele>
        <time>2016-03-14T16:39:29Z</time>
      </trkpt>
      <trkpt lat="48.30175" lon="-2.90295">
        <ele>170</ele>
        <time>2016-03-14T16:39:31Z</time>
      </trkpt>
      <trkpt lat="48.30174" lon="-2.90293">
        <ele>170</ele>
        <time>2016-03-14T16:39:33Z</time>
      </trkpt>
      <trkpt lat="48.30172" lon="-2.90291">
        <ele>170</ele>
        <time>2016-03-14T16:39:36Z</time>
      </trkpt>
      <trkpt lat="48.30171" lon="-2.9029">
        <ele>170</ele>
        <time>2016-03-14T16:39:38Z</time>
      </trkpt>
      <trkpt lat="48.30169" lon="-2.90289">
        <ele>170</ele>
        <time>2016-03-14T16:39:40Z</time>
      </trkpt>
      <trkpt lat="48.30168" lon="-2.90287">
        <ele>170</ele>
        <time>2016-03-14T16:39:42Z</time>
      </trkpt>
      <trkpt lat="48.30167" lon="-2.90284">
        <ele>170</ele>
        <time>2016-03-14T16:39:44Z</time>
      </trkpt>
      <trkpt lat="48.30166" lon="-2.90282">
        <ele>170</ele>
        <time>2016-03-14T16:39:45Z</time>
      </trkpt>
      <trkpt lat="48.30166" lon="-2.9028">
        <ele>170</ele>
        <time>2016-03-14T16:39:46Z</time>
      </trkpt>
      <trkpt lat="48.30166" lon="-2.90279">
        <ele>170</ele>
        <time>2016-03-14T16:39:47Z</time>
      </trkpt>
      <trkpt lat="48.30166" lon="-2.90277">
        <ele>170</ele>
        <time>2016-03-14T16:39:48Z</time>
      </trkpt>
      <trkpt lat="48.30165" lon="-2.90275">
        <ele>170</ele>
        <time>2016-03-14T16:39:49Z</time>
      </trkpt>
      <trkpt lat="48.30165" lon="-2.90273">
        <ele>170</ele>
        <time>2016-03-14T16:39:50Z</time>
      </trkpt>
      <trkpt lat="48.30165" lon="-2.90272">
        <ele>170</ele>
        <time>2016-03-14T16:39:51Z</time>
      </trkpt>
      <trkpt lat="48.30165" lon="-2.9027">
        <ele>170</ele>
        <time>2016-03-14T16:39:52Z</time>
      </trkpt>
      <trkpt lat="48.30164" lon="-2.90267">
        <ele>170</ele>
        <time>2016-03-14T16:39:54Z</time>
      </trkpt>
      <trkpt lat="48.30163" lon="-2.90265">
        <ele>170</ele>
        <time>2016-03-14T16:39:56Z</time>
      </trkpt>
      <trkpt lat="48.30163" lon="-2.90262">
        <ele>170</ele>
        <time>2016-03-14T16:39:58Z</time>
      </trkpt>
      <trkpt lat="48.30163" lon="-2.9026">
        <ele>170</ele>
        <time>2016-03-14T16:39:59Z</time>
      </trkpt>
      <trkpt lat="48.30162" lon="-2.90257">
        <ele>170</ele>
        <time>2016-03-14T16:40:01Z</time>
      </trkpt>
      <trkpt lat="48.30161" lon="-2.90255">
        <ele>170</ele>
        <time>2016-03-14T16:40:03Z</time>
      </trkpt>
      <trkpt lat="48.30161" lon="-2.90253">
        <ele>170</ele>
        <time>2016-03-14T16:40:04Z</time>
      </trkpt>
      <trkpt lat="48.3016" lon="-2.90251">
        <ele>170</ele>
        <time>2016-03-14T16:40:05Z</time>
      </trkpt>
      <trkpt lat="48.30158" lon="-2.90248">
        <ele>170</ele>
        <time>2016-03-14T16:40:07Z</time>
      </trkpt>
      <trkpt lat="48.30157" lon="-2.90245">
        <ele>170</ele>
        <time>2016-03-14T16:40:09Z</time>
      </trkpt>
      <trkpt lat="48.30156" lon="-2.90242">
        <ele>170</ele>
        <time>2016-03-14T16:40:11Z</time>
      </trkpt>
      <trkpt lat="48.30155" lon="-2.90241">
        <ele>170</ele>
        <time>2016-03-14T16:40:12Z</time>
      </trkpt>
      <trkpt lat="48.30154" lon="-2.90238">
        <ele>170</ele>
        <time>2016-03-14T16:40:14Z</time>
      </trkpt>
      <trkpt lat="48.30153" lon="-2.90236">
        <ele>170</ele>
        <time>2016-03-14T16:40:15Z</time>
      </trkpt>
      <trkpt lat="48.30152" lon="-2.90234">
        <ele>170</ele>
        <time>2016-03-14T16:40:17Z</time>
      </trkpt>
      <trkpt lat="48.30151" lon="-2.90232">
        <ele>170</ele>
        <time>2016-03-14T16:40:18Z</time>
      </trkpt>
      <trkpt lat="48.30151" lon="-2.9023">
        <ele>170</ele>
        <time>2016-03-14T16:40:19Z</time>
      </trkpt>
      <trkpt lat="48.3015" lon="-2.90228">
        <ele>170</ele>
        <time>2016-03-14T16:40:20Z</time>
      </trkpt>
      <trkpt lat="48.3015" lon="-2.90226">
        <ele>170</ele>
        <time>2016-03-14T16:40:21Z</time>
      </trkpt>
      <trkpt lat="48.30149" lon="-2.90224">
        <ele>170</ele>
        <time>2016-03-14T16:40:22Z</time>
      </trkpt>
      <trkpt lat="48.30148" lon="-2.90222">
        <ele>170</ele>
        <time>2016-03-14T16:40:23Z</time>
      </trkpt>
      <trkpt lat="48.30147" lon="-2.90219">
        <ele>170</ele>
        <time>2016-03-14T16:40:25Z</time>
      </trkpt>
      <trkpt lat="48.30146" lon="-2.90216">
        <ele>170</ele>
        <time>2016-03-14T16:40:27Z</time>
      </trkpt>
      <trkpt lat="48.30145" lon="-2.90214">
        <ele>170</ele>
        <time>2016-03-14T16:40:29Z</time>
      </trkpt>
      <trkpt lat="48.30144" lon="-2.90211">
        <ele>170</ele>
        <time>2016-03-14T16:40:31Z</time>
      </trkpt>
      <trkpt lat="48.30143" lon="-2.90209">
        <ele>170</ele>
        <time>2016-03-14T16:40:32Z</time>
      </trkpt>
      <trkpt lat="48.30143" lon="-2.90207">
        <ele>170</ele>
        <time>2016-03-14T16:40:33Z</time>
      </trkpt>
      <trkpt lat="48.30143" lon="-2.90205">
        <ele>170</ele>
        <time>2016-03-14T16:40:35Z</time>
      </trkpt>
      <trkpt lat="48.30142" lon="-2.90202">
        <ele>170</ele>
        <time>2016-03-14T16:40:37Z</time>
      </trkpt>
      <trkpt lat="48.30141" lon="-2.902">
        <ele>170</ele>
        <time>2016-03-14T16:40:39Z</time>
      </trkpt>
      <trkpt lat="48.3014" lon="-2.90199">
        <ele>170</ele>
        <time>2016-03-14T16:40:41Z</time>
      </trkpt>
      <trkpt lat="48.30139" lon="-2.90196">
        <ele>170</ele>
        <time>2016-03-14T16:40:43Z</time>
      </trkpt>
      <trkpt lat="48.30138" lon="-2.90194">
        <ele>170</ele>
        <time>2016-03-14T16:40:46Z</time>
      </trkpt>
      <trkpt lat="48.30138" lon="-2.90193">
        <ele>170</ele>
        <time>2016-03-14T16:40:47Z</time>
      </trkpt>
      <trkpt lat="48.30137" lon="-2.90192">
        <ele>170</ele>
        <time>2016-03-14T16:40:49Z</time>
      </trkpt>
      <trkpt lat="48.30135" lon="-2.90188">
        <ele>170</ele>
        <time>2016-03-14T16:40:51Z</time>
      </trkpt>
      <trkpt lat="48.30134" lon="-2.90186">
        <ele>170</ele>
        <time>2016-03-14T16:40:52Z</time>
      </trkpt>
      <trkpt lat="48.30133" lon="-2.90184">
        <ele>170</ele>
        <time>2016-03-14T16:40:53Z</time>
      </trkpt>
      <trkpt lat="48.30132" lon="-2.90181">
        <ele>170</ele>
        <time>2016-03-14T16:40:55Z</time>
      </trkpt>
      <trkpt lat="48.30132" lon="-2.9018">
        <ele>170</ele>
        <time>2016-03-14T16:40:56Z</time>
      </trkpt>
      <trkpt lat="48.3013" lon="-2.90178">
        <ele>170</ele>
        <time>2016-03-14T16:40:57Z</time>
      </trkpt>
      <trkpt lat="48.3013" lon="-2.90176">
        <ele>170</ele>
        <time>2016-03-14T16:40:58Z</time>
      </trkpt>
      <trkpt lat="48.30129" lon="-2.90174">
        <ele>170</ele>
        <time>2016-03-14T16:41:00Z</time>
      </trkpt>
      <trkpt lat="48.30129" lon="-2.90172">
        <ele>170</ele>
        <time>2016-03-14T16:41:02Z</time>
      </trkpt>
      <trkpt lat="48.30127" lon="-2.9017">
        <ele>171</ele>
        <time>2016-03-14T16:41:05Z</time>
      </trkpt>
      <trkpt lat="48.30126" lon="-2.90168">
        <ele>172</ele>
        <time>2016-03-14T16:41:07Z</time>
      </trkpt>
      <trkpt lat="48.30126" lon="-2.90166">
        <ele>173</ele>
        <time>2016-03-14T16:41:09Z</time>
      </trkpt>
      <trkpt lat="48.30126" lon="-2.90164">
        <ele>173</ele>
        <time>2016-03-14T16:41:11Z</time>
      </trkpt>
      <trkpt lat="48.30125" lon="-2.90161">
        <ele>173</ele>
        <time>2016-03-14T16:41:14Z</time>
      </trkpt>
      <trkpt lat="48.30125" lon="-2.9016">
        <ele>173</ele>
        <time>2016-03-14T16:41:16Z</time>
      </trkpt>
      <trkpt lat="48.30125" lon="-2.90158">
        <ele>173</ele>
        <time>2016-03-14T16:41:22Z</time>
      </trkpt>
      <trkpt lat="48.30125" lon="-2.90156">
        <ele>173</ele>
        <time>2016-03-14T16:41:27Z</time>
      </trkpt>
      <trkpt lat="48.30123" lon="-2.90156">
        <ele>173</ele>
        <time>2016-03-14T16:41:32Z</time>
      </trkpt>
      <trkpt lat="48.30122" lon="-2.90155">
        <ele>173</ele>
        <time>2016-03-14T16:41:34Z</time>
      </trkpt>
      <trkpt lat="48.30121" lon="-2.90154">
        <ele>173</ele>
        <time>2016-03-14T16:41:36Z</time>
      </trkpt>
      <trkpt lat="48.30122" lon="-2.90154">
        <ele>174</ele>
        <time>2016-03-14T16:41:43Z</time>
      </trkpt>
      <trkpt lat="48.30123" lon="-2.90155">
        <ele>174</ele>
        <time>2016-03-14T16:41:46Z</time>
      </trkpt>
      <trkpt lat="48.30125" lon="-2.90154">
        <ele>174</ele>
        <time>2016-03-14T16:41:50Z</time>
      </trkpt>
      <trkpt lat="48.30126" lon="-2.90153">
        <ele>176</ele>
        <time>2016-03-14T16:41:55Z</time>
      </trkpt>
      <trkpt lat="48.30125" lon="-2.9015">
        <ele>176</ele>
        <time>2016-03-14T16:41:58Z</time>
      </trkpt>
      <trkpt lat="48.30125" lon="-2.90149">
        <ele>177</ele>
        <time>2016-03-14T16:42:01Z</time>
      </trkpt>
      <trkpt lat="48.30125" lon="-2.90147">
        <ele>177</ele>
        <time>2016-03-14T16:42:05Z</time>
      </trkpt>
      <trkpt lat="48.30125" lon="-2.90145">
        <ele>177</ele>
        <time>2016-03-14T16:42:08Z</time>
      </trkpt>
      <trkpt lat="48.30125" lon="-2.90143">
        <ele>177</ele>
        <time>2016-03-14T16:42:11Z</time>
      </trkpt>
      <trkpt lat="48.30125" lon="-2.90141">
        <ele>177</ele>
        <time>2016-03-14T16:42:13Z</time>
      </trkpt>
      <trkpt lat="48.30125" lon="-2.90139">
        <ele>177</ele>
        <time>2016-03-14T16:42:15Z</time>
      </trkpt>
      <trkpt lat="48.30125" lon="-2.90137">
        <ele>177</ele>
        <time>2016-03-14T16:42:17Z</time>
      </trkpt>
      <trkpt lat="48.30126" lon="-2.90135">
        <ele>177</ele>
        <time>2016-03-14T16:42:19Z</time>
      </trkpt>
      <trkpt lat="48.30127" lon="-2.90133">
        <ele>177</ele>
        <time>2016-03-14T16:42:21Z</time>
      </trkpt>
      <trkpt lat="48.30128" lon="-2.90131">
        <ele>177</ele>
        <time>2016-03-14T16:42:23Z</time>
      </trkpt>
      <trkpt lat="48.30129" lon="-2.90129">
        <ele>177</ele>
        <time>2016-03-14T16:42:25Z</time>
      </trkpt>
      <trkpt lat="48.30129" lon="-2.90126">
        <ele>177</ele>
        <time>2016-03-14T16:42:27Z</time>
      </trkpt>
      <trkpt lat="48.3013" lon="-2.90124">
        <ele>177</ele>
        <time>2016-03-14T16:42:29Z</time>
      </trkpt>
      <trkpt lat="48.30131" lon="-2.90122">
        <ele>177</ele>
        <time>2016-03-14T16:42:31Z</time>
      </trkpt>
      <trkpt lat="48.30131" lon="-2.90119">
        <ele>177</ele>
        <time>2016-03-14T16:42:33Z</time>
      </trkpt>
      <trkpt lat="48.30132" lon="-2.90116">
        <ele>177</ele>
        <time>2016-03-14T16:42:35Z</time>
      </trkpt>
      <trkpt lat="48.30133" lon="-2.90114">
        <ele>177</ele>
        <time>2016-03-14T16:42:37Z</time>
      </trkpt>
      <trkpt lat="48.30133" lon="-2.90112">
        <ele>177</ele>
        <time>2016-03-14T16:42:39Z</time>
      </trkpt>
      <trkpt lat="48.30133" lon="-2.9011">
        <ele>177</ele>
        <time>2016-03-14T16:42:41Z</time>
      </trkpt>
      <trkpt lat="48.30134" lon="-2.90108">
        <ele>177</ele>
        <time>2016-03-14T16:42:43Z</time>
      </trkpt>
      <trkpt lat="48.30135" lon="-2.90106">
        <ele>177</ele>
        <time>2016-03-14T16:42:45Z</time>
      </trkpt>
      <trkpt lat="48.30135" lon="-2.90104">
        <ele>177</ele>
        <time>2016-03-14T16:42:47Z</time>
      </trkpt>
      <trkpt lat="48.30136" lon="-2.90102">
        <ele>177</ele>
        <time>2016-03-14T16:42:49Z</time>
      </trkpt>
      <trkpt lat="48.30137" lon="-2.90101">
        <ele>177</ele>
        <time>2016-03-14T16:42:51Z</time>
      </trkpt>
      <trkpt lat="48.30138" lon="-2.90098">
        <ele>177</ele>
        <time>2016-03-14T16:42:53Z</time>
      </trkpt>
      <trkpt lat="48.30139" lon="-2.90097">
        <ele>177</ele>
        <time>2016-03-14T16:42:55Z</time>
      </trkpt>
      <trkpt lat="48.3014" lon="-2.90095">
        <ele>177</ele>
        <time>2016-03-14T16:42:57Z</time>
      </trkpt>
      <trkpt lat="48.30142" lon="-2.90093">
        <ele>177</ele>
        <time>2016-03-14T16:42:59Z</time>
      </trkpt>
      <trkpt lat="48.30143" lon="-2.90091">
        <ele>177</ele>
        <time>2016-03-14T16:43:01Z</time>
      </trkpt>
      <trkpt lat="48.30144" lon="-2.9009">
        <ele>177</ele>
        <time>2016-03-14T16:43:03Z</time>
      </trkpt>
      <trkpt lat="48.30145" lon="-2.90087">
        <ele>177</ele>
        <time>2016-03-14T16:43:06Z</time>
      </trkpt>
      <trkpt lat="48.30146" lon="-2.90086">
        <ele>177</ele>
        <time>2016-03-14T16:43:12Z</time>
      </trkpt>
      <trkpt lat="48.30147" lon="-2.90084">
        <ele>177</ele>
        <time>2016-03-14T16:43:15Z</time>
      </trkpt>
      <trkpt lat="48.30148" lon="-2.90081">
        <ele>177</ele>
        <time>2016-03-14T16:43:19Z</time>
      </trkpt>
      <trkpt lat="48.30149" lon="-2.90079">
        <ele>177</ele>
        <time>2016-03-14T16:43:21Z</time>
      </trkpt>
      <trkpt lat="48.30149" lon="-2.90077">
        <ele>177</ele>
        <time>2016-03-14T16:43:23Z</time>
      </trkpt>
      <trkpt lat="48.3015" lon="-2.90075">
        <ele>177</ele>
        <time>2016-03-14T16:43:25Z</time>
      </trkpt>
      <trkpt lat="48.30149" lon="-2.90073">
        <ele>177</ele>
        <time>2016-03-14T16:43:27Z</time>
      </trkpt>
      <trkpt lat="48.30149" lon="-2.90071">
        <ele>177</ele>
        <time>2016-03-14T16:43:29Z</time>
      </trkpt>
      <trkpt lat="48.30148" lon="-2.90069">
        <ele>177</ele>
        <time>2016-03-14T16:43:34Z</time>
      </trkpt>
      <trkpt lat="48.30148" lon="-2.90067">
        <ele>177</ele>
        <time>2016-03-14T16:43:39Z</time>
      </trkpt>
      <trkpt lat="48.30148" lon="-2.90067">
        <ele>177</ele>
        <time>2016-03-14T16:43:41Z</time>
      </trkpt>
    </trkseg>
  </trk>
</gpx>